<?xml version="1.0" encoding="UTF-8" standalone="no" ?>
<gpx xmlns="http://www.topografix.com/GPX/1/1" xmlns:xsi="http://www.w3.org/2001/XMLSchema-instance" xsi:schemaLocation="http://www.topografix.com/GPX/1/1 http://www.topografix.com/GPX/1/1/gpx.xsd" version="1.1" creator="VisuGPX - https://www.visugpx.com">
  <metadata>
    <name>8341092-Randonnée des 2000 savoyards</name>
  </metadata>
  <trk>
    <name><![CDATA[8341092-Randonnée des 2000 savoyards]]></name>
    <trkseg>
      <trkpt lat="45.6755" lon="6.39298">
        <ele>348</ele>
        <time>2018-02-14T19:54:15Z</time>
      </trkpt>
      <trkpt lat="45.67606" lon="6.39317">
        <ele>349</ele>
        <time>2018-02-14T19:55:15Z</time>
      </trkpt>
      <trkpt lat="45.67631" lon="6.39339">
        <ele>349</ele>
        <time>2018-02-14T19:56:15Z</time>
      </trkpt>
      <trkpt lat="45.67636" lon="6.39346">
        <ele>349</ele>
        <time>2018-02-14T19:57:15Z</time>
      </trkpt>
      <trkpt lat="45.6764" lon="6.39359">
        <ele>349</ele>
        <time>2018-02-14T19:58:15Z</time>
      </trkpt>
      <trkpt lat="45.67641" lon="6.39367">
        <ele>348</ele>
        <time>2018-02-14T19:59:15Z</time>
      </trkpt>
      <trkpt lat="45.67621" lon="6.39483">
        <ele>347</ele>
        <time>2018-02-14T20:00:15Z</time>
      </trkpt>
      <trkpt lat="45.67615" lon="6.39507">
        <ele>348</ele>
        <time>2018-02-14T20:01:15Z</time>
      </trkpt>
      <trkpt lat="45.67603" lon="6.39528">
        <ele>350</ele>
        <time>2018-02-14T20:02:15Z</time>
      </trkpt>
      <trkpt lat="45.67592" lon="6.39539">
        <ele>351</ele>
        <time>2018-02-14T20:03:15Z</time>
      </trkpt>
      <trkpt lat="45.67573" lon="6.39573">
        <ele>353</ele>
        <time>2018-02-14T20:04:15Z</time>
      </trkpt>
      <trkpt lat="45.67548" lon="6.39614">
        <ele>358</ele>
        <time>2018-02-14T20:05:15Z</time>
      </trkpt>
      <trkpt lat="45.67497" lon="6.39685">
        <ele>365</ele>
        <time>2018-02-14T20:06:15Z</time>
      </trkpt>
      <trkpt lat="45.67456" lon="6.39706">
        <ele>372</ele>
        <time>2018-02-14T20:07:15Z</time>
      </trkpt>
      <trkpt lat="45.67388" lon="6.39716">
        <ele>378</ele>
        <time>2018-02-14T20:08:15Z</time>
      </trkpt>
      <trkpt lat="45.6736" lon="6.39725">
        <ele>382</ele>
        <time>2018-02-14T20:09:15Z</time>
      </trkpt>
      <trkpt lat="45.67339" lon="6.39719">
        <ele>383</ele>
        <time>2018-02-14T20:10:15Z</time>
      </trkpt>
      <trkpt lat="45.67309" lon="6.39684">
        <ele>385</ele>
        <time>2018-02-14T20:11:15Z</time>
      </trkpt>
      <trkpt lat="45.67285" lon="6.39649">
        <ele>385</ele>
        <time>2018-02-14T20:12:15Z</time>
      </trkpt>
      <trkpt lat="45.67278" lon="6.39645">
        <ele>386</ele>
        <time>2018-02-14T20:13:15Z</time>
      </trkpt>
      <trkpt lat="45.67255" lon="6.39643">
        <ele>391</ele>
        <time>2018-02-14T20:14:15Z</time>
      </trkpt>
      <trkpt lat="45.67248" lon="6.39648">
        <ele>393</ele>
        <time>2018-02-14T20:15:15Z</time>
      </trkpt>
      <trkpt lat="45.67244" lon="6.39656">
        <ele>394</ele>
        <time>2018-02-14T20:16:15Z</time>
      </trkpt>
      <trkpt lat="45.67245" lon="6.39682">
        <ele>397</ele>
        <time>2018-02-14T20:17:15Z</time>
      </trkpt>
      <trkpt lat="45.67254" lon="6.39722">
        <ele>400</ele>
        <time>2018-02-14T20:18:15Z</time>
      </trkpt>
      <trkpt lat="45.67251" lon="6.39724">
        <ele>400</ele>
        <time>2018-02-14T20:19:15Z</time>
      </trkpt>
      <trkpt lat="45.67251" lon="6.39724">
        <ele>400</ele>
        <time>2018-02-14T20:20:15Z</time>
      </trkpt>
      <trkpt lat="45.67236" lon="6.39736">
        <ele>404</ele>
        <time>2018-02-14T20:21:15Z</time>
      </trkpt>
      <trkpt lat="45.67229" lon="6.39747">
        <ele>406</ele>
        <time>2018-02-14T20:22:15Z</time>
      </trkpt>
      <trkpt lat="45.67216" lon="6.39761">
        <ele>410</ele>
        <time>2018-02-14T20:23:15Z</time>
      </trkpt>
      <trkpt lat="45.67209" lon="6.39765">
        <ele>411</ele>
        <time>2018-02-14T20:24:15Z</time>
      </trkpt>
      <trkpt lat="45.67192" lon="6.39761">
        <ele>413</ele>
        <time>2018-02-14T20:25:15Z</time>
      </trkpt>
      <trkpt lat="45.67173" lon="6.3975">
        <ele>414</ele>
        <time>2018-02-14T20:26:15Z</time>
      </trkpt>
      <trkpt lat="45.67134" lon="6.39718">
        <ele>412</ele>
        <time>2018-02-14T20:27:15Z</time>
      </trkpt>
      <trkpt lat="45.67121" lon="6.39705">
        <ele>411</ele>
        <time>2018-02-14T20:28:15Z</time>
      </trkpt>
      <trkpt lat="45.6711" lon="6.39706">
        <ele>412</ele>
        <time>2018-02-14T20:29:15Z</time>
      </trkpt>
      <trkpt lat="45.67097" lon="6.39711">
        <ele>414</ele>
        <time>2018-02-14T20:30:15Z</time>
      </trkpt>
      <trkpt lat="45.67081" lon="6.39728">
        <ele>415</ele>
        <time>2018-02-14T20:31:15Z</time>
      </trkpt>
      <trkpt lat="45.67067" lon="6.39748">
        <ele>414</ele>
        <time>2018-02-14T20:32:15Z</time>
      </trkpt>
      <trkpt lat="45.67054" lon="6.3976">
        <ele>413</ele>
        <time>2018-02-14T20:33:15Z</time>
      </trkpt>
      <trkpt lat="45.67036" lon="6.39774">
        <ele>410</ele>
        <time>2018-02-14T20:34:15Z</time>
      </trkpt>
      <trkpt lat="45.67012" lon="6.39801">
        <ele>403</ele>
        <time>2018-02-14T20:35:15Z</time>
      </trkpt>
      <trkpt lat="45.6701" lon="6.39805">
        <ele>402</ele>
        <time>2018-02-14T20:36:15Z</time>
      </trkpt>
      <trkpt lat="45.67008" lon="6.3982">
        <ele>401</ele>
        <time>2018-02-14T20:37:15Z</time>
      </trkpt>
      <trkpt lat="45.67009" lon="6.3984">
        <ele>400</ele>
        <time>2018-02-14T20:38:15Z</time>
      </trkpt>
      <trkpt lat="45.67005" lon="6.3987">
        <ele>399</ele>
        <time>2018-02-14T20:39:15Z</time>
      </trkpt>
      <trkpt lat="45.67" lon="6.39884">
        <ele>397</ele>
        <time>2018-02-14T20:40:15Z</time>
      </trkpt>
      <trkpt lat="45.66995" lon="6.39887">
        <ele>394</ele>
        <time>2018-02-14T20:41:15Z</time>
      </trkpt>
      <trkpt lat="45.66988" lon="6.39917">
        <ele>391</ele>
        <time>2018-02-14T20:42:15Z</time>
      </trkpt>
      <trkpt lat="45.66988" lon="6.3997">
        <ele>390</ele>
        <time>2018-02-14T20:43:15Z</time>
      </trkpt>
      <trkpt lat="45.66993" lon="6.40013">
        <ele>391</ele>
        <time>2018-02-14T20:44:15Z</time>
      </trkpt>
      <trkpt lat="45.66995" lon="6.40068">
        <ele>390</ele>
        <time>2018-02-14T20:45:15Z</time>
      </trkpt>
      <trkpt lat="45.66986" lon="6.40101">
        <ele>388</ele>
        <time>2018-02-14T20:46:15Z</time>
      </trkpt>
      <trkpt lat="45.66941" lon="6.40208">
        <ele>375</ele>
        <time>2018-02-14T20:47:15Z</time>
      </trkpt>
      <trkpt lat="45.66933" lon="6.4022">
        <ele>371</ele>
        <time>2018-02-14T20:48:15Z</time>
      </trkpt>
      <trkpt lat="45.66951" lon="6.40291">
        <ele>375</ele>
        <time>2018-02-14T20:49:15Z</time>
      </trkpt>
      <trkpt lat="45.66953" lon="6.40356">
        <ele>369</ele>
        <time>2018-02-14T20:50:15Z</time>
      </trkpt>
      <trkpt lat="45.66959" lon="6.40383">
        <ele>370</ele>
        <time>2018-02-14T20:51:15Z</time>
      </trkpt>
      <trkpt lat="45.66973" lon="6.40421">
        <ele>374</ele>
        <time>2018-02-14T20:52:15Z</time>
      </trkpt>
      <trkpt lat="45.6696" lon="6.40459">
        <ele>370</ele>
        <time>2018-02-14T20:53:15Z</time>
      </trkpt>
      <trkpt lat="45.66951" lon="6.40504">
        <ele>367</ele>
        <time>2018-02-14T20:54:15Z</time>
      </trkpt>
      <trkpt lat="45.669" lon="6.40663">
        <ele>360</ele>
        <time>2018-02-14T20:55:15Z</time>
      </trkpt>
      <trkpt lat="45.66892" lon="6.40683">
        <ele>359</ele>
        <time>2018-02-14T20:56:15Z</time>
      </trkpt>
      <trkpt lat="45.66861" lon="6.40685">
        <ele>351</ele>
        <time>2018-02-14T20:57:15Z</time>
      </trkpt>
      <trkpt lat="45.66861" lon="6.40678">
        <ele>350</ele>
        <time>2018-02-14T20:58:15Z</time>
      </trkpt>
      <trkpt lat="45.66856" lon="6.40674">
        <ele>349</ele>
        <time>2018-02-14T20:59:15Z</time>
      </trkpt>
      <trkpt lat="45.66853" lon="6.40674">
        <ele>348</ele>
        <time>2018-02-14T21:00:15Z</time>
      </trkpt>
      <trkpt lat="45.6685" lon="6.40679">
        <ele>347</ele>
        <time>2018-02-14T21:01:15Z</time>
      </trkpt>
      <trkpt lat="45.66851" lon="6.40686">
        <ele>348</ele>
        <time>2018-02-14T21:02:15Z</time>
      </trkpt>
      <trkpt lat="45.66856" lon="6.4069">
        <ele>349</ele>
        <time>2018-02-14T21:03:15Z</time>
      </trkpt>
      <trkpt lat="45.6685" lon="6.4077">
        <ele>353</ele>
        <time>2018-02-14T21:04:15Z</time>
      </trkpt>
      <trkpt lat="45.66841" lon="6.40851">
        <ele>356</ele>
        <time>2018-02-14T21:05:15Z</time>
      </trkpt>
      <trkpt lat="45.66829" lon="6.4095">
        <ele>358</ele>
        <time>2018-02-14T21:06:15Z</time>
      </trkpt>
      <trkpt lat="45.6682" lon="6.40976">
        <ele>355</ele>
        <time>2018-02-14T21:07:15Z</time>
      </trkpt>
      <trkpt lat="45.66803" lon="6.41009">
        <ele>351</ele>
        <time>2018-02-14T21:08:15Z</time>
      </trkpt>
      <trkpt lat="45.66755" lon="6.41076">
        <ele>340</ele>
        <time>2018-02-14T21:09:15Z</time>
      </trkpt>
      <trkpt lat="45.66732" lon="6.41164">
        <ele>342</ele>
        <time>2018-02-14T21:10:15Z</time>
      </trkpt>
      <trkpt lat="45.6671" lon="6.41214">
        <ele>343</ele>
        <time>2018-02-14T21:11:15Z</time>
      </trkpt>
      <trkpt lat="45.66667" lon="6.41287">
        <ele>342</ele>
        <time>2018-02-14T21:12:15Z</time>
      </trkpt>
      <trkpt lat="45.66652" lon="6.41316">
        <ele>343</ele>
        <time>2018-02-14T21:13:15Z</time>
      </trkpt>
      <trkpt lat="45.66639" lon="6.41348">
        <ele>345</ele>
        <time>2018-02-14T21:14:15Z</time>
      </trkpt>
      <trkpt lat="45.66621" lon="6.41407">
        <ele>347</ele>
        <time>2018-02-14T21:15:15Z</time>
      </trkpt>
      <trkpt lat="45.666" lon="6.41489">
        <ele>353</ele>
        <time>2018-02-14T21:16:15Z</time>
      </trkpt>
      <trkpt lat="45.66591" lon="6.41539">
        <ele>355</ele>
        <time>2018-02-14T21:17:15Z</time>
      </trkpt>
      <trkpt lat="45.66585" lon="6.41606">
        <ele>359</ele>
        <time>2018-02-14T21:18:15Z</time>
      </trkpt>
      <trkpt lat="45.66577" lon="6.4164">
        <ele>359</ele>
        <time>2018-02-14T21:19:15Z</time>
      </trkpt>
      <trkpt lat="45.66551" lon="6.41715">
        <ele>359</ele>
        <time>2018-02-14T21:20:15Z</time>
      </trkpt>
      <trkpt lat="45.66541" lon="6.41758">
        <ele>359</ele>
        <time>2018-02-14T21:21:15Z</time>
      </trkpt>
      <trkpt lat="45.66539" lon="6.41841">
        <ele>361</ele>
        <time>2018-02-14T21:22:15Z</time>
      </trkpt>
      <trkpt lat="45.66501" lon="6.42068">
        <ele>352</ele>
        <time>2018-02-14T21:23:15Z</time>
      </trkpt>
      <trkpt lat="45.66496" lon="6.4211">
        <ele>351</ele>
        <time>2018-02-14T21:24:15Z</time>
      </trkpt>
      <trkpt lat="45.66497" lon="6.42135">
        <ele>351</ele>
        <time>2018-02-14T21:25:15Z</time>
      </trkpt>
      <trkpt lat="45.66516" lon="6.42386">
        <ele>349</ele>
        <time>2018-02-14T21:26:15Z</time>
      </trkpt>
      <trkpt lat="45.66526" lon="6.42529">
        <ele>354</ele>
        <time>2018-02-14T21:27:15Z</time>
      </trkpt>
      <trkpt lat="45.66523" lon="6.42553">
        <ele>354</ele>
        <time>2018-02-14T21:28:15Z</time>
      </trkpt>
      <trkpt lat="45.66518" lon="6.42575">
        <ele>353</ele>
        <time>2018-02-14T21:29:15Z</time>
      </trkpt>
      <trkpt lat="45.66507" lon="6.42597">
        <ele>352</ele>
        <time>2018-02-14T21:30:15Z</time>
      </trkpt>
      <trkpt lat="45.66455" lon="6.42669">
        <ele>352</ele>
        <time>2018-02-14T21:31:15Z</time>
      </trkpt>
      <trkpt lat="45.66445" lon="6.42687">
        <ele>353</ele>
        <time>2018-02-14T21:32:15Z</time>
      </trkpt>
      <trkpt lat="45.66433" lon="6.42714">
        <ele>354</ele>
        <time>2018-02-14T21:33:15Z</time>
      </trkpt>
      <trkpt lat="45.6642" lon="6.42755">
        <ele>355</ele>
        <time>2018-02-14T21:34:15Z</time>
      </trkpt>
      <trkpt lat="45.66421" lon="6.42788">
        <ele>354</ele>
        <time>2018-02-14T21:35:15Z</time>
      </trkpt>
      <trkpt lat="45.66438" lon="6.42844">
        <ele>357</ele>
        <time>2018-02-14T21:36:15Z</time>
      </trkpt>
      <trkpt lat="45.6644" lon="6.42883">
        <ele>358</ele>
        <time>2018-02-14T21:37:15Z</time>
      </trkpt>
      <trkpt lat="45.66436" lon="6.42905">
        <ele>357</ele>
        <time>2018-02-14T21:38:15Z</time>
      </trkpt>
      <trkpt lat="45.66413" lon="6.42951">
        <ele>352</ele>
        <time>2018-02-14T21:39:15Z</time>
      </trkpt>
      <trkpt lat="45.66382" lon="6.42982">
        <ele>352</ele>
        <time>2018-02-14T21:40:15Z</time>
      </trkpt>
      <trkpt lat="45.6634" lon="6.43013">
        <ele>351</ele>
        <time>2018-02-14T21:41:15Z</time>
      </trkpt>
      <trkpt lat="45.66306" lon="6.43046">
        <ele>353</ele>
        <time>2018-02-14T21:42:15Z</time>
      </trkpt>
      <trkpt lat="45.66281" lon="6.43082">
        <ele>354</ele>
        <time>2018-02-14T21:43:15Z</time>
      </trkpt>
      <trkpt lat="45.66262" lon="6.43138">
        <ele>354</ele>
        <time>2018-02-14T21:44:15Z</time>
      </trkpt>
      <trkpt lat="45.6624" lon="6.43215">
        <ele>355</ele>
        <time>2018-02-14T21:45:15Z</time>
      </trkpt>
      <trkpt lat="45.66213" lon="6.43277">
        <ele>357</ele>
        <time>2018-02-14T21:46:15Z</time>
      </trkpt>
      <trkpt lat="45.66197" lon="6.43292">
        <ele>357</ele>
        <time>2018-02-14T21:47:15Z</time>
      </trkpt>
      <trkpt lat="45.66171" lon="6.43307">
        <ele>353</ele>
        <time>2018-02-14T21:48:15Z</time>
      </trkpt>
      <trkpt lat="45.66146" lon="6.43317">
        <ele>353</ele>
        <time>2018-02-14T21:49:15Z</time>
      </trkpt>
      <trkpt lat="45.66126" lon="6.43321">
        <ele>354</ele>
        <time>2018-02-14T21:50:15Z</time>
      </trkpt>
      <trkpt lat="45.66107" lon="6.43323">
        <ele>354</ele>
        <time>2018-02-14T21:51:15Z</time>
      </trkpt>
      <trkpt lat="45.66063" lon="6.43314">
        <ele>352</ele>
        <time>2018-02-14T21:52:15Z</time>
      </trkpt>
      <trkpt lat="45.66025" lon="6.43313">
        <ele>350</ele>
        <time>2018-02-14T21:53:15Z</time>
      </trkpt>
      <trkpt lat="45.66001" lon="6.43322">
        <ele>349</ele>
        <time>2018-02-14T21:54:15Z</time>
      </trkpt>
      <trkpt lat="45.65977" lon="6.43337">
        <ele>349</ele>
        <time>2018-02-14T21:55:15Z</time>
      </trkpt>
      <trkpt lat="45.65938" lon="6.43368">
        <ele>351</ele>
        <time>2018-02-14T21:56:15Z</time>
      </trkpt>
      <trkpt lat="45.65894" lon="6.43395">
        <ele>353</ele>
        <time>2018-02-14T21:57:15Z</time>
      </trkpt>
      <trkpt lat="45.65849" lon="6.43411">
        <ele>354</ele>
        <time>2018-02-14T21:58:15Z</time>
      </trkpt>
      <trkpt lat="45.65793" lon="6.43423">
        <ele>354</ele>
        <time>2018-02-14T21:59:15Z</time>
      </trkpt>
      <trkpt lat="45.65724" lon="6.43456">
        <ele>355</ele>
        <time>2018-02-14T22:00:15Z</time>
      </trkpt>
      <trkpt lat="45.65675" lon="6.43484">
        <ele>354</ele>
        <time>2018-02-14T22:01:15Z</time>
      </trkpt>
      <trkpt lat="45.65646" lon="6.43513">
        <ele>355</ele>
        <time>2018-02-14T22:02:15Z</time>
      </trkpt>
      <trkpt lat="45.6562" lon="6.43546">
        <ele>359</ele>
        <time>2018-02-14T22:03:15Z</time>
      </trkpt>
      <trkpt lat="45.65558" lon="6.43565">
        <ele>362</ele>
        <time>2018-02-14T22:04:15Z</time>
      </trkpt>
      <trkpt lat="45.65503" lon="6.43586">
        <ele>363</ele>
        <time>2018-02-14T22:05:15Z</time>
      </trkpt>
      <trkpt lat="45.65462" lon="6.43596">
        <ele>362</ele>
        <time>2018-02-14T22:06:15Z</time>
      </trkpt>
      <trkpt lat="45.65446" lon="6.43604">
        <ele>362</ele>
        <time>2018-02-14T22:07:15Z</time>
      </trkpt>
      <trkpt lat="45.65393" lon="6.43649">
        <ele>363</ele>
        <time>2018-02-14T22:08:15Z</time>
      </trkpt>
      <trkpt lat="45.65364" lon="6.43699">
        <ele>363</ele>
        <time>2018-02-14T22:09:15Z</time>
      </trkpt>
      <trkpt lat="45.65347" lon="6.43723">
        <ele>363</ele>
        <time>2018-02-14T22:10:15Z</time>
      </trkpt>
      <trkpt lat="45.65299" lon="6.43745">
        <ele>362</ele>
        <time>2018-02-14T22:11:15Z</time>
      </trkpt>
      <trkpt lat="45.65296" lon="6.43737">
        <ele>361</ele>
        <time>2018-02-14T22:12:15Z</time>
      </trkpt>
      <trkpt lat="45.65292" lon="6.43733">
        <ele>361</ele>
        <time>2018-02-14T22:13:15Z</time>
      </trkpt>
      <trkpt lat="45.65283" lon="6.43732">
        <ele>361</ele>
        <time>2018-02-14T22:14:15Z</time>
      </trkpt>
      <trkpt lat="45.65278" lon="6.43737">
        <ele>361</ele>
        <time>2018-02-14T22:15:15Z</time>
      </trkpt>
      <trkpt lat="45.65274" lon="6.4375">
        <ele>361</ele>
        <time>2018-02-14T22:16:15Z</time>
      </trkpt>
      <trkpt lat="45.65275" lon="6.43758">
        <ele>361</ele>
        <time>2018-02-14T22:17:15Z</time>
      </trkpt>
      <trkpt lat="45.65212" lon="6.43802">
        <ele>362</ele>
        <time>2018-02-14T22:18:15Z</time>
      </trkpt>
      <trkpt lat="45.65133" lon="6.43875">
        <ele>363</ele>
        <time>2018-02-14T22:19:15Z</time>
      </trkpt>
      <trkpt lat="45.65093" lon="6.43909">
        <ele>364</ele>
        <time>2018-02-14T22:20:15Z</time>
      </trkpt>
      <trkpt lat="45.64956" lon="6.4399">
        <ele>361</ele>
        <time>2018-02-14T22:21:15Z</time>
      </trkpt>
      <trkpt lat="45.64872" lon="6.4403">
        <ele>361</ele>
        <time>2018-02-14T22:22:15Z</time>
      </trkpt>
      <trkpt lat="45.64815" lon="6.44051">
        <ele>360</ele>
        <time>2018-02-14T22:23:15Z</time>
      </trkpt>
      <trkpt lat="45.64729" lon="6.44074">
        <ele>359</ele>
        <time>2018-02-14T22:24:15Z</time>
      </trkpt>
      <trkpt lat="45.64437" lon="6.44139">
        <ele>356</ele>
        <time>2018-02-14T22:25:15Z</time>
      </trkpt>
      <trkpt lat="45.64092" lon="6.44233">
        <ele>361</ele>
        <time>2018-02-14T22:26:15Z</time>
      </trkpt>
      <trkpt lat="45.64018" lon="6.44251">
        <ele>361</ele>
        <time>2018-02-14T22:27:15Z</time>
      </trkpt>
      <trkpt lat="45.63906" lon="6.44287">
        <ele>362</ele>
        <time>2018-02-14T22:28:15Z</time>
      </trkpt>
      <trkpt lat="45.63646" lon="6.44457">
        <ele>359</ele>
        <time>2018-02-14T22:29:15Z</time>
      </trkpt>
      <trkpt lat="45.63328" lon="6.4466">
        <ele>361</ele>
        <time>2018-02-14T22:30:15Z</time>
      </trkpt>
      <trkpt lat="45.63279" lon="6.44677">
        <ele>361</ele>
        <time>2018-02-14T22:31:15Z</time>
      </trkpt>
      <trkpt lat="45.63216" lon="6.4469">
        <ele>361</ele>
        <time>2018-02-14T22:32:15Z</time>
      </trkpt>
      <trkpt lat="45.63178" lon="6.44687">
        <ele>362</ele>
        <time>2018-02-14T22:33:15Z</time>
      </trkpt>
      <trkpt lat="45.6315" lon="6.44689">
        <ele>362</ele>
        <time>2018-02-14T22:34:15Z</time>
      </trkpt>
      <trkpt lat="45.63121" lon="6.44697">
        <ele>362</ele>
        <time>2018-02-14T22:35:15Z</time>
      </trkpt>
      <trkpt lat="45.63081" lon="6.44716">
        <ele>361</ele>
        <time>2018-02-14T22:36:15Z</time>
      </trkpt>
      <trkpt lat="45.63068" lon="6.4472">
        <ele>361</ele>
        <time>2018-02-14T22:37:15Z</time>
      </trkpt>
      <trkpt lat="45.62962" lon="6.44736">
        <ele>363</ele>
        <time>2018-02-14T22:38:15Z</time>
      </trkpt>
      <trkpt lat="45.62902" lon="6.4475">
        <ele>363</ele>
        <time>2018-02-14T22:39:15Z</time>
      </trkpt>
      <trkpt lat="45.62785" lon="6.44801">
        <ele>364</ele>
        <time>2018-02-14T22:40:15Z</time>
      </trkpt>
      <trkpt lat="45.62734" lon="6.4482">
        <ele>364</ele>
        <time>2018-02-14T22:41:15Z</time>
      </trkpt>
      <trkpt lat="45.62553" lon="6.44877">
        <ele>364</ele>
        <time>2018-02-14T22:42:15Z</time>
      </trkpt>
      <trkpt lat="45.62478" lon="6.4489">
        <ele>365</ele>
        <time>2018-02-14T22:43:15Z</time>
      </trkpt>
      <trkpt lat="45.62417" lon="6.44899">
        <ele>365</ele>
        <time>2018-02-14T22:44:15Z</time>
      </trkpt>
      <trkpt lat="45.62351" lon="6.44912">
        <ele>364</ele>
        <time>2018-02-14T22:45:15Z</time>
      </trkpt>
      <trkpt lat="45.62349" lon="6.44906">
        <ele>364</ele>
        <time>2018-02-14T22:46:15Z</time>
      </trkpt>
      <trkpt lat="45.62341" lon="6.44901">
        <ele>364</ele>
        <time>2018-02-14T22:47:15Z</time>
      </trkpt>
      <trkpt lat="45.62336" lon="6.44903">
        <ele>364</ele>
        <time>2018-02-14T22:48:15Z</time>
      </trkpt>
      <trkpt lat="45.62332" lon="6.44909">
        <ele>364</ele>
        <time>2018-02-14T22:49:15Z</time>
      </trkpt>
      <trkpt lat="45.62331" lon="6.4492">
        <ele>364</ele>
        <time>2018-02-14T22:50:15Z</time>
      </trkpt>
      <trkpt lat="45.62175" lon="6.44957">
        <ele>370</ele>
        <time>2018-02-14T22:51:15Z</time>
      </trkpt>
      <trkpt lat="45.62131" lon="6.44969">
        <ele>372</ele>
        <time>2018-02-14T22:52:15Z</time>
      </trkpt>
      <trkpt lat="45.621" lon="6.44985">
        <ele>373</ele>
        <time>2018-02-14T22:53:15Z</time>
      </trkpt>
      <trkpt lat="45.61768" lon="6.45124">
        <ele>386</ele>
        <time>2018-02-14T22:54:15Z</time>
      </trkpt>
      <trkpt lat="45.61697" lon="6.45159">
        <ele>387</ele>
        <time>2018-02-14T22:55:15Z</time>
      </trkpt>
      <trkpt lat="45.61643" lon="6.45189">
        <ele>386</ele>
        <time>2018-02-14T22:56:15Z</time>
      </trkpt>
      <trkpt lat="45.61588" lon="6.45217">
        <ele>385</ele>
        <time>2018-02-14T22:57:15Z</time>
      </trkpt>
      <trkpt lat="45.61561" lon="6.45236">
        <ele>384</ele>
        <time>2018-02-14T22:58:15Z</time>
      </trkpt>
      <trkpt lat="45.61537" lon="6.45263">
        <ele>383</ele>
        <time>2018-02-14T22:59:15Z</time>
      </trkpt>
      <trkpt lat="45.61515" lon="6.45278">
        <ele>382</ele>
        <time>2018-02-14T23:00:15Z</time>
      </trkpt>
      <trkpt lat="45.61473" lon="6.45291">
        <ele>380</ele>
        <time>2018-02-14T23:01:15Z</time>
      </trkpt>
      <trkpt lat="45.61405" lon="6.45303">
        <ele>376</ele>
        <time>2018-02-14T23:02:15Z</time>
      </trkpt>
      <trkpt lat="45.61373" lon="6.45304">
        <ele>374</ele>
        <time>2018-02-14T23:03:15Z</time>
      </trkpt>
      <trkpt lat="45.61355" lon="6.45299">
        <ele>374</ele>
        <time>2018-02-14T23:04:15Z</time>
      </trkpt>
      <trkpt lat="45.61302" lon="6.4527">
        <ele>373</ele>
        <time>2018-02-14T23:05:15Z</time>
      </trkpt>
      <trkpt lat="45.61245" lon="6.45249">
        <ele>373</ele>
        <time>2018-02-14T23:06:15Z</time>
      </trkpt>
      <trkpt lat="45.60993" lon="6.45174">
        <ele>373</ele>
        <time>2018-02-14T23:07:15Z</time>
      </trkpt>
      <trkpt lat="45.6097" lon="6.45168">
        <ele>373</ele>
        <time>2018-02-14T23:08:15Z</time>
      </trkpt>
      <trkpt lat="45.60899" lon="6.45176">
        <ele>374</ele>
        <time>2018-02-14T23:09:15Z</time>
      </trkpt>
      <trkpt lat="45.60878" lon="6.45174">
        <ele>374</ele>
        <time>2018-02-14T23:10:15Z</time>
      </trkpt>
      <trkpt lat="45.60752" lon="6.4512">
        <ele>372</ele>
        <time>2018-02-14T23:11:15Z</time>
      </trkpt>
      <trkpt lat="45.60123" lon="6.4493">
        <ele>377</ele>
        <time>2018-02-14T23:12:15Z</time>
      </trkpt>
      <trkpt lat="45.60111" lon="6.44929">
        <ele>377</ele>
        <time>2018-02-14T23:13:15Z</time>
      </trkpt>
      <trkpt lat="45.60078" lon="6.4494">
        <ele>378</ele>
        <time>2018-02-14T23:14:15Z</time>
      </trkpt>
      <trkpt lat="45.60043" lon="6.44933">
        <ele>378</ele>
        <time>2018-02-14T23:15:15Z</time>
      </trkpt>
      <trkpt lat="45.60012" lon="6.44918">
        <ele>379</ele>
        <time>2018-02-14T23:16:15Z</time>
      </trkpt>
      <trkpt lat="45.59976" lon="6.44885">
        <ele>379</ele>
        <time>2018-02-14T23:17:15Z</time>
      </trkpt>
      <trkpt lat="45.59785" lon="6.44827">
        <ele>380</ele>
        <time>2018-02-14T23:18:15Z</time>
      </trkpt>
      <trkpt lat="45.59638" lon="6.44778">
        <ele>382</ele>
        <time>2018-02-14T23:19:15Z</time>
      </trkpt>
      <trkpt lat="45.59593" lon="6.44771">
        <ele>382</ele>
        <time>2018-02-14T23:20:15Z</time>
      </trkpt>
      <trkpt lat="45.59533" lon="6.44799">
        <ele>390</ele>
        <time>2018-02-14T23:21:15Z</time>
      </trkpt>
      <trkpt lat="45.59462" lon="6.44818">
        <ele>396</ele>
        <time>2018-02-14T23:22:15Z</time>
      </trkpt>
      <trkpt lat="45.59454" lon="6.44816">
        <ele>395</ele>
        <time>2018-02-14T23:23:15Z</time>
      </trkpt>
      <trkpt lat="45.5945" lon="6.44813">
        <ele>394</ele>
        <time>2018-02-14T23:24:15Z</time>
      </trkpt>
      <trkpt lat="45.59448" lon="6.44799">
        <ele>391</ele>
        <time>2018-02-14T23:25:15Z</time>
      </trkpt>
      <trkpt lat="45.59445" lon="6.44791">
        <ele>389</ele>
        <time>2018-02-14T23:26:15Z</time>
      </trkpt>
      <trkpt lat="45.59441" lon="6.44787">
        <ele>388</ele>
        <time>2018-02-14T23:27:15Z</time>
      </trkpt>
      <trkpt lat="45.59431" lon="6.44784">
        <ele>386</ele>
        <time>2018-02-14T23:28:15Z</time>
      </trkpt>
      <trkpt lat="45.59422" lon="6.44777">
        <ele>384</ele>
        <time>2018-02-14T23:29:15Z</time>
      </trkpt>
      <trkpt lat="45.59414" lon="6.44736">
        <ele>378</ele>
        <time>2018-02-14T23:30:15Z</time>
      </trkpt>
      <trkpt lat="45.59414" lon="6.44727">
        <ele>378</ele>
        <time>2018-02-14T23:31:15Z</time>
      </trkpt>
      <trkpt lat="45.59417" lon="6.4472">
        <ele>378</ele>
        <time>2018-02-14T23:32:15Z</time>
      </trkpt>
      <trkpt lat="45.59421" lon="6.44716">
        <ele>379</ele>
        <time>2018-02-14T23:33:15Z</time>
      </trkpt>
      <trkpt lat="45.59446" lon="6.4471">
        <ele>379</ele>
        <time>2018-02-14T23:34:15Z</time>
      </trkpt>
      <trkpt lat="45.5945" lon="6.44706">
        <ele>379</ele>
        <time>2018-02-14T23:35:15Z</time>
      </trkpt>
      <trkpt lat="45.59454" lon="6.44698">
        <ele>379</ele>
        <time>2018-02-14T23:36:15Z</time>
      </trkpt>
      <trkpt lat="45.59456" lon="6.44689">
        <ele>379</ele>
        <time>2018-02-14T23:37:15Z</time>
      </trkpt>
      <trkpt lat="45.59455" lon="6.44682">
        <ele>379</ele>
        <time>2018-02-14T23:38:15Z</time>
      </trkpt>
      <trkpt lat="45.59416" lon="6.44622">
        <ele>382</ele>
        <time>2018-02-14T23:39:15Z</time>
      </trkpt>
      <trkpt lat="45.59398" lon="6.44597">
        <ele>384</ele>
        <time>2018-02-14T23:40:15Z</time>
      </trkpt>
      <trkpt lat="45.59381" lon="6.44607">
        <ele>384</ele>
        <time>2018-02-14T23:41:15Z</time>
      </trkpt>
      <trkpt lat="45.59337" lon="6.44609">
        <ele>384</ele>
        <time>2018-02-14T23:42:15Z</time>
      </trkpt>
      <trkpt lat="45.59268" lon="6.44639">
        <ele>384</ele>
        <time>2018-02-14T23:43:15Z</time>
      </trkpt>
      <trkpt lat="45.59249" lon="6.44643">
        <ele>384</ele>
        <time>2018-02-14T23:44:15Z</time>
      </trkpt>
      <trkpt lat="45.59099" lon="6.44624">
        <ele>392</ele>
        <time>2018-02-14T23:45:15Z</time>
      </trkpt>
      <trkpt lat="45.58951" lon="6.44595">
        <ele>393</ele>
        <time>2018-02-14T23:46:15Z</time>
      </trkpt>
      <trkpt lat="45.58889" lon="6.44581">
        <ele>392</ele>
        <time>2018-02-14T23:47:15Z</time>
      </trkpt>
      <trkpt lat="45.58856" lon="6.4458">
        <ele>391</ele>
        <time>2018-02-14T23:48:15Z</time>
      </trkpt>
      <trkpt lat="45.58793" lon="6.44583">
        <ele>389</ele>
        <time>2018-02-14T23:49:15Z</time>
      </trkpt>
      <trkpt lat="45.58701" lon="6.44603">
        <ele>387</ele>
        <time>2018-02-14T23:50:15Z</time>
      </trkpt>
      <trkpt lat="45.58682" lon="6.44615">
        <ele>386</ele>
        <time>2018-02-14T23:51:15Z</time>
      </trkpt>
      <trkpt lat="45.58663" lon="6.44633">
        <ele>385</ele>
        <time>2018-02-14T23:52:15Z</time>
      </trkpt>
      <trkpt lat="45.58654" lon="6.44646">
        <ele>385</ele>
        <time>2018-02-14T23:53:15Z</time>
      </trkpt>
      <trkpt lat="45.58616" lon="6.44705">
        <ele>386</ele>
        <time>2018-02-14T23:54:15Z</time>
      </trkpt>
      <trkpt lat="45.58602" lon="6.44732">
        <ele>386</ele>
        <time>2018-02-14T23:55:15Z</time>
      </trkpt>
      <trkpt lat="45.58571" lon="6.4478">
        <ele>386</ele>
        <time>2018-02-14T23:56:15Z</time>
      </trkpt>
      <trkpt lat="45.5855" lon="6.44812">
        <ele>386</ele>
        <time>2018-02-14T23:57:15Z</time>
      </trkpt>
      <trkpt lat="45.58488" lon="6.44898">
        <ele>387</ele>
        <time>2018-02-14T23:58:15Z</time>
      </trkpt>
      <trkpt lat="45.58464" lon="6.44941">
        <ele>388</ele>
        <time>2018-02-14T23:59:15Z</time>
      </trkpt>
      <trkpt lat="45.58433" lon="6.44992">
        <ele>388</ele>
        <time>2018-02-15T00:00:15Z</time>
      </trkpt>
      <trkpt lat="45.58407" lon="6.45027">
        <ele>389</ele>
        <time>2018-02-15T00:01:15Z</time>
      </trkpt>
      <trkpt lat="45.58385" lon="6.45052">
        <ele>392</ele>
        <time>2018-02-15T00:02:15Z</time>
      </trkpt>
      <trkpt lat="45.58356" lon="6.45078">
        <ele>395</ele>
        <time>2018-02-15T00:03:15Z</time>
      </trkpt>
      <trkpt lat="45.58327" lon="6.45115">
        <ele>396</ele>
        <time>2018-02-15T00:04:15Z</time>
      </trkpt>
      <trkpt lat="45.58292" lon="6.45175">
        <ele>392</ele>
        <time>2018-02-15T00:05:15Z</time>
      </trkpt>
      <trkpt lat="45.58282" lon="6.45184">
        <ele>392</ele>
        <time>2018-02-15T00:06:15Z</time>
      </trkpt>
      <trkpt lat="45.58261" lon="6.45194">
        <ele>391</ele>
        <time>2018-02-15T00:07:15Z</time>
      </trkpt>
      <trkpt lat="45.58204" lon="6.45203">
        <ele>391</ele>
        <time>2018-02-15T00:08:15Z</time>
      </trkpt>
      <trkpt lat="45.58182" lon="6.45219">
        <ele>390</ele>
        <time>2018-02-15T00:09:15Z</time>
      </trkpt>
      <trkpt lat="45.58172" lon="6.45233">
        <ele>389</ele>
        <time>2018-02-15T00:10:15Z</time>
      </trkpt>
      <trkpt lat="45.58163" lon="6.4525">
        <ele>388</ele>
        <time>2018-02-15T00:11:15Z</time>
      </trkpt>
      <trkpt lat="45.58149" lon="6.45284">
        <ele>389</ele>
        <time>2018-02-15T00:12:15Z</time>
      </trkpt>
      <trkpt lat="45.58136" lon="6.45352">
        <ele>390</ele>
        <time>2018-02-15T00:13:15Z</time>
      </trkpt>
      <trkpt lat="45.5813" lon="6.45368">
        <ele>390</ele>
        <time>2018-02-15T00:14:15Z</time>
      </trkpt>
      <trkpt lat="45.58121" lon="6.4538">
        <ele>391</ele>
        <time>2018-02-15T00:15:15Z</time>
      </trkpt>
      <trkpt lat="45.58112" lon="6.45391">
        <ele>391</ele>
        <time>2018-02-15T00:16:15Z</time>
      </trkpt>
      <trkpt lat="45.58015" lon="6.45438">
        <ele>391</ele>
        <time>2018-02-15T00:17:15Z</time>
      </trkpt>
      <trkpt lat="45.57969" lon="6.4547">
        <ele>391</ele>
        <time>2018-02-15T00:18:15Z</time>
      </trkpt>
      <trkpt lat="45.57924" lon="6.45511">
        <ele>392</ele>
        <time>2018-02-15T00:19:15Z</time>
      </trkpt>
      <trkpt lat="45.5789" lon="6.45551">
        <ele>394</ele>
        <time>2018-02-15T00:20:15Z</time>
      </trkpt>
      <trkpt lat="45.5784" lon="6.45627">
        <ele>395</ele>
        <time>2018-02-15T00:21:15Z</time>
      </trkpt>
      <trkpt lat="45.57767" lon="6.45746">
        <ele>408</ele>
        <time>2018-02-15T00:22:15Z</time>
      </trkpt>
      <trkpt lat="45.57732" lon="6.45795">
        <ele>411</ele>
        <time>2018-02-15T00:23:15Z</time>
      </trkpt>
      <trkpt lat="45.57627" lon="6.45907">
        <ele>403</ele>
        <time>2018-02-15T00:24:15Z</time>
      </trkpt>
      <trkpt lat="45.57571" lon="6.45955">
        <ele>402</ele>
        <time>2018-02-15T00:25:15Z</time>
      </trkpt>
      <trkpt lat="45.57405" lon="6.46066">
        <ele>407</ele>
        <time>2018-02-15T00:26:15Z</time>
      </trkpt>
      <trkpt lat="45.57362" lon="6.46093">
        <ele>406</ele>
        <time>2018-02-15T00:27:15Z</time>
      </trkpt>
      <trkpt lat="45.57349" lon="6.46111">
        <ele>404</ele>
        <time>2018-02-15T00:28:15Z</time>
      </trkpt>
      <trkpt lat="45.57339" lon="6.46143">
        <ele>400</ele>
        <time>2018-02-15T00:29:15Z</time>
      </trkpt>
      <trkpt lat="45.57332" lon="6.46154">
        <ele>399</ele>
        <time>2018-02-15T00:30:15Z</time>
      </trkpt>
      <trkpt lat="45.57228" lon="6.46221">
        <ele>409</ele>
        <time>2018-02-15T00:31:15Z</time>
      </trkpt>
      <trkpt lat="45.57172" lon="6.46242">
        <ele>417</ele>
        <time>2018-02-15T00:32:15Z</time>
      </trkpt>
      <trkpt lat="45.57115" lon="6.46293">
        <ele>429</ele>
        <time>2018-02-15T00:33:15Z</time>
      </trkpt>
      <trkpt lat="45.56979" lon="6.46373">
        <ele>409</ele>
        <time>2018-02-15T00:34:15Z</time>
      </trkpt>
      <trkpt lat="45.56921" lon="6.46425">
        <ele>399</ele>
        <time>2018-02-15T00:35:15Z</time>
      </trkpt>
      <trkpt lat="45.5691" lon="6.46427">
        <ele>399</ele>
        <time>2018-02-15T00:36:15Z</time>
      </trkpt>
      <trkpt lat="45.56904" lon="6.46425">
        <ele>399</ele>
        <time>2018-02-15T00:37:15Z</time>
      </trkpt>
      <trkpt lat="45.56805" lon="6.46379">
        <ele>416</ele>
        <time>2018-02-15T00:38:15Z</time>
      </trkpt>
      <trkpt lat="45.56742" lon="6.46386">
        <ele>415</ele>
        <time>2018-02-15T00:39:15Z</time>
      </trkpt>
      <trkpt lat="45.56651" lon="6.46405">
        <ele>407</ele>
        <time>2018-02-15T00:40:15Z</time>
      </trkpt>
      <trkpt lat="45.56602" lon="6.46382">
        <ele>414</ele>
        <time>2018-02-15T00:41:15Z</time>
      </trkpt>
      <trkpt lat="45.56541" lon="6.4635">
        <ele>421</ele>
        <time>2018-02-15T00:42:15Z</time>
      </trkpt>
      <trkpt lat="45.56519" lon="6.46344">
        <ele>420</ele>
        <time>2018-02-15T00:43:15Z</time>
      </trkpt>
      <trkpt lat="45.56376" lon="6.46368">
        <ele>412</ele>
        <time>2018-02-15T00:44:15Z</time>
      </trkpt>
      <trkpt lat="45.56294" lon="6.46352">
        <ele>416</ele>
        <time>2018-02-15T00:45:15Z</time>
      </trkpt>
      <trkpt lat="45.56264" lon="6.46364">
        <ele>414</ele>
        <time>2018-02-15T00:46:15Z</time>
      </trkpt>
      <trkpt lat="45.56231" lon="6.46402">
        <ele>413</ele>
        <time>2018-02-15T00:47:15Z</time>
      </trkpt>
      <trkpt lat="45.56171" lon="6.46466">
        <ele>415</ele>
        <time>2018-02-15T00:48:15Z</time>
      </trkpt>
      <trkpt lat="45.56131" lon="6.46516">
        <ele>412</ele>
        <time>2018-02-15T00:49:15Z</time>
      </trkpt>
      <trkpt lat="45.5612" lon="6.46525">
        <ele>412</ele>
        <time>2018-02-15T00:50:15Z</time>
      </trkpt>
      <trkpt lat="45.55985" lon="6.46491">
        <ele>421</ele>
        <time>2018-02-15T00:51:15Z</time>
      </trkpt>
      <trkpt lat="45.55925" lon="6.46481">
        <ele>424</ele>
        <time>2018-02-15T00:52:15Z</time>
      </trkpt>
      <trkpt lat="45.55879" lon="6.46487">
        <ele>420</ele>
        <time>2018-02-15T00:53:15Z</time>
      </trkpt>
      <trkpt lat="45.55684" lon="6.46599">
        <ele>405</ele>
        <time>2018-02-15T00:54:15Z</time>
      </trkpt>
      <trkpt lat="45.55555" lon="6.46659">
        <ele>409</ele>
        <time>2018-02-15T00:55:15Z</time>
      </trkpt>
      <trkpt lat="45.55504" lon="6.46678">
        <ele>412</ele>
        <time>2018-02-15T00:56:15Z</time>
      </trkpt>
      <trkpt lat="45.55461" lon="6.46699">
        <ele>413</ele>
        <time>2018-02-15T00:57:15Z</time>
      </trkpt>
      <trkpt lat="45.55251" lon="6.46807">
        <ele>410</ele>
        <time>2018-02-15T00:58:15Z</time>
      </trkpt>
      <trkpt lat="45.55199" lon="6.46832">
        <ele>410</ele>
        <time>2018-02-15T00:59:15Z</time>
      </trkpt>
      <trkpt lat="45.55151" lon="6.46836">
        <ele>411</ele>
        <time>2018-02-15T01:00:15Z</time>
      </trkpt>
      <trkpt lat="45.55126" lon="6.46831">
        <ele>411</ele>
        <time>2018-02-15T01:01:15Z</time>
      </trkpt>
      <trkpt lat="45.55052" lon="6.46804">
        <ele>413</ele>
        <time>2018-02-15T01:02:15Z</time>
      </trkpt>
      <trkpt lat="45.55015" lon="6.4678">
        <ele>414</ele>
        <time>2018-02-15T01:03:15Z</time>
      </trkpt>
      <trkpt lat="45.54943" lon="6.46715">
        <ele>419</ele>
        <time>2018-02-15T01:04:15Z</time>
      </trkpt>
      <trkpt lat="45.54727" lon="6.46527">
        <ele>455</ele>
        <time>2018-02-15T01:05:15Z</time>
      </trkpt>
      <trkpt lat="45.54678" lon="6.46505">
        <ele>458</ele>
        <time>2018-02-15T01:06:15Z</time>
      </trkpt>
      <trkpt lat="45.54555" lon="6.46473">
        <ele>471</ele>
        <time>2018-02-15T01:07:15Z</time>
      </trkpt>
      <trkpt lat="45.54503" lon="6.46475">
        <ele>471</ele>
        <time>2018-02-15T01:08:15Z</time>
      </trkpt>
      <trkpt lat="45.54454" lon="6.46497">
        <ele>470</ele>
        <time>2018-02-15T01:09:15Z</time>
      </trkpt>
      <trkpt lat="45.54445" lon="6.46485">
        <ele>476</ele>
        <time>2018-02-15T01:10:15Z</time>
      </trkpt>
      <trkpt lat="45.54443" lon="6.46469">
        <ele>483</ele>
        <time>2018-02-15T01:11:15Z</time>
      </trkpt>
      <trkpt lat="45.54463" lon="6.46456">
        <ele>484</ele>
        <time>2018-02-15T01:12:15Z</time>
      </trkpt>
      <trkpt lat="45.54525" lon="6.46434">
        <ele>485</ele>
        <time>2018-02-15T01:13:15Z</time>
      </trkpt>
      <trkpt lat="45.54626" lon="6.46423">
        <ele>495</ele>
        <time>2018-02-15T01:14:15Z</time>
      </trkpt>
      <trkpt lat="45.54671" lon="6.46423">
        <ele>497</ele>
        <time>2018-02-15T01:15:15Z</time>
      </trkpt>
      <trkpt lat="45.54701" lon="6.4643">
        <ele>498</ele>
        <time>2018-02-15T01:16:15Z</time>
      </trkpt>
      <trkpt lat="45.54707" lon="6.46418">
        <ele>505</ele>
        <time>2018-02-15T01:17:15Z</time>
      </trkpt>
      <trkpt lat="45.54702" lon="6.46405">
        <ele>511</ele>
        <time>2018-02-15T01:18:15Z</time>
      </trkpt>
      <trkpt lat="45.54684" lon="6.46396">
        <ele>513</ele>
        <time>2018-02-15T01:19:15Z</time>
      </trkpt>
      <trkpt lat="45.54625" lon="6.46384">
        <ele>516</ele>
        <time>2018-02-15T01:20:15Z</time>
      </trkpt>
      <trkpt lat="45.54509" lon="6.46369">
        <ele>518</ele>
        <time>2018-02-15T01:21:15Z</time>
      </trkpt>
      <trkpt lat="45.54468" lon="6.46378">
        <ele>520</ele>
        <time>2018-02-15T01:22:15Z</time>
      </trkpt>
      <trkpt lat="45.54414" lon="6.46397">
        <ele>522</ele>
        <time>2018-02-15T01:23:15Z</time>
      </trkpt>
      <trkpt lat="45.54393" lon="6.46397">
        <ele>526</ele>
        <time>2018-02-15T01:24:15Z</time>
      </trkpt>
      <trkpt lat="45.54384" lon="6.46387">
        <ele>535</ele>
        <time>2018-02-15T01:25:15Z</time>
      </trkpt>
      <trkpt lat="45.54387" lon="6.46377">
        <ele>541</ele>
        <time>2018-02-15T01:26:15Z</time>
      </trkpt>
      <trkpt lat="45.54416" lon="6.46377">
        <ele>534</ele>
        <time>2018-02-15T01:27:15Z</time>
      </trkpt>
      <trkpt lat="45.54459" lon="6.46365">
        <ele>530</ele>
        <time>2018-02-15T01:28:15Z</time>
      </trkpt>
      <trkpt lat="45.54565" lon="6.46344">
        <ele>537</ele>
        <time>2018-02-15T01:29:15Z</time>
      </trkpt>
      <trkpt lat="45.54624" lon="6.46348">
        <ele>537</ele>
        <time>2018-02-15T01:30:15Z</time>
      </trkpt>
      <trkpt lat="45.54729" lon="6.4634">
        <ele>552</ele>
        <time>2018-02-15T01:31:15Z</time>
      </trkpt>
      <trkpt lat="45.54747" lon="6.46351">
        <ele>549</ele>
        <time>2018-02-15T01:32:15Z</time>
      </trkpt>
      <trkpt lat="45.54764" lon="6.4635">
        <ele>551</ele>
        <time>2018-02-15T01:33:15Z</time>
      </trkpt>
      <trkpt lat="45.54762" lon="6.46336">
        <ele>560</ele>
        <time>2018-02-15T01:34:15Z</time>
      </trkpt>
      <trkpt lat="45.54718" lon="6.46327">
        <ele>558</ele>
        <time>2018-02-15T01:35:15Z</time>
      </trkpt>
      <trkpt lat="45.5467" lon="6.463">
        <ele>566</ele>
        <time>2018-02-15T01:36:15Z</time>
      </trkpt>
      <trkpt lat="45.54636" lon="6.46297">
        <ele>566</ele>
        <time>2018-02-15T01:37:15Z</time>
      </trkpt>
      <trkpt lat="45.54507" lon="6.46253">
        <ele>591</ele>
        <time>2018-02-15T01:38:15Z</time>
      </trkpt>
      <trkpt lat="45.54476" lon="6.46264">
        <ele>590</ele>
        <time>2018-02-15T01:39:15Z</time>
      </trkpt>
      <trkpt lat="45.54471" lon="6.46259">
        <ele>594</ele>
        <time>2018-02-15T01:40:15Z</time>
      </trkpt>
      <trkpt lat="45.5448" lon="6.46242">
        <ele>604</ele>
        <time>2018-02-15T01:41:15Z</time>
      </trkpt>
      <trkpt lat="45.54545" lon="6.46231">
        <ele>607</ele>
        <time>2018-02-15T01:42:15Z</time>
      </trkpt>
      <trkpt lat="45.54653" lon="6.46239">
        <ele>602</ele>
        <time>2018-02-15T01:43:15Z</time>
      </trkpt>
      <trkpt lat="45.54713" lon="6.46257">
        <ele>602</ele>
        <time>2018-02-15T01:44:15Z</time>
      </trkpt>
      <trkpt lat="45.54809" lon="6.46213">
        <ele>619</ele>
        <time>2018-02-15T01:45:15Z</time>
      </trkpt>
      <trkpt lat="45.54826" lon="6.46196">
        <ele>620</ele>
        <time>2018-02-15T01:46:15Z</time>
      </trkpt>
      <trkpt lat="45.5483" lon="6.46137">
        <ele>629</ele>
        <time>2018-02-15T01:47:15Z</time>
      </trkpt>
      <trkpt lat="45.54839" lon="6.46119">
        <ele>631</ele>
        <time>2018-02-15T01:48:15Z</time>
      </trkpt>
      <trkpt lat="45.54873" lon="6.461">
        <ele>635</ele>
        <time>2018-02-15T01:49:15Z</time>
      </trkpt>
      <trkpt lat="45.54918" lon="6.46091">
        <ele>636</ele>
        <time>2018-02-15T01:50:15Z</time>
      </trkpt>
      <trkpt lat="45.54958" lon="6.46106">
        <ele>634</ele>
        <time>2018-02-15T01:51:15Z</time>
      </trkpt>
      <trkpt lat="45.54966" lon="6.461">
        <ele>635</ele>
        <time>2018-02-15T01:52:15Z</time>
      </trkpt>
      <trkpt lat="45.54966" lon="6.46089">
        <ele>637</ele>
        <time>2018-02-15T01:53:15Z</time>
      </trkpt>
      <trkpt lat="45.54921" lon="6.46054">
        <ele>645</ele>
        <time>2018-02-15T01:54:15Z</time>
      </trkpt>
      <trkpt lat="45.54859" lon="6.46043">
        <ele>646</ele>
        <time>2018-02-15T01:55:15Z</time>
      </trkpt>
      <trkpt lat="45.54818" lon="6.46019">
        <ele>654</ele>
        <time>2018-02-15T01:56:15Z</time>
      </trkpt>
      <trkpt lat="45.54789" lon="6.46014">
        <ele>662</ele>
        <time>2018-02-15T01:57:15Z</time>
      </trkpt>
      <trkpt lat="45.54761" lon="6.46028">
        <ele>665</ele>
        <time>2018-02-15T01:58:15Z</time>
      </trkpt>
      <trkpt lat="45.54706" lon="6.46064">
        <ele>670</ele>
        <time>2018-02-15T01:59:15Z</time>
      </trkpt>
      <trkpt lat="45.54647" lon="6.46089">
        <ele>679</ele>
        <time>2018-02-15T02:00:15Z</time>
      </trkpt>
      <trkpt lat="45.54634" lon="6.46112">
        <ele>673</ele>
        <time>2018-02-15T02:01:15Z</time>
      </trkpt>
      <trkpt lat="45.54626" lon="6.46104">
        <ele>678</ele>
        <time>2018-02-15T02:02:15Z</time>
      </trkpt>
      <trkpt lat="45.54625" lon="6.46079">
        <ele>689</ele>
        <time>2018-02-15T02:03:15Z</time>
      </trkpt>
      <trkpt lat="45.54631" lon="6.46065">
        <ele>691</ele>
        <time>2018-02-15T02:04:15Z</time>
      </trkpt>
      <trkpt lat="45.54642" lon="6.46055">
        <ele>690</ele>
        <time>2018-02-15T02:05:15Z</time>
      </trkpt>
      <trkpt lat="45.5467" lon="6.46047">
        <ele>684</ele>
        <time>2018-02-15T02:06:15Z</time>
      </trkpt>
      <trkpt lat="45.54699" lon="6.46016">
        <ele>684</ele>
        <time>2018-02-15T02:07:15Z</time>
      </trkpt>
      <trkpt lat="45.54713" lon="6.4599">
        <ele>686</ele>
        <time>2018-02-15T02:08:15Z</time>
      </trkpt>
      <trkpt lat="45.54721" lon="6.45947">
        <ele>693</ele>
        <time>2018-02-15T02:09:15Z</time>
      </trkpt>
      <trkpt lat="45.54717" lon="6.45937">
        <ele>696</ele>
        <time>2018-02-15T02:10:15Z</time>
      </trkpt>
      <trkpt lat="45.5471" lon="6.45939">
        <ele>697</ele>
        <time>2018-02-15T02:11:15Z</time>
      </trkpt>
      <trkpt lat="45.54693" lon="6.45991">
        <ele>691</ele>
        <time>2018-02-15T02:12:15Z</time>
      </trkpt>
      <trkpt lat="45.54673" lon="6.46009">
        <ele>693</ele>
        <time>2018-02-15T02:13:15Z</time>
      </trkpt>
      <trkpt lat="45.54637" lon="6.46015">
        <ele>702</ele>
        <time>2018-02-15T02:14:15Z</time>
      </trkpt>
      <trkpt lat="45.54608" lon="6.46026">
        <ele>708</ele>
        <time>2018-02-15T02:15:15Z</time>
      </trkpt>
      <trkpt lat="45.5458" lon="6.46071">
        <ele>704</ele>
        <time>2018-02-15T02:16:15Z</time>
      </trkpt>
      <trkpt lat="45.54542" lon="6.46082">
        <ele>709</ele>
        <time>2018-02-15T02:17:15Z</time>
      </trkpt>
      <trkpt lat="45.54516" lon="6.46093">
        <ele>707</ele>
        <time>2018-02-15T02:18:15Z</time>
      </trkpt>
      <trkpt lat="45.5448" lon="6.46097">
        <ele>711</ele>
        <time>2018-02-15T02:19:15Z</time>
      </trkpt>
      <trkpt lat="45.54444" lon="6.46113">
        <ele>707</ele>
        <time>2018-02-15T02:20:15Z</time>
      </trkpt>
      <trkpt lat="45.54383" lon="6.46111">
        <ele>712</ele>
        <time>2018-02-15T02:21:15Z</time>
      </trkpt>
      <trkpt lat="45.54166" lon="6.46001">
        <ele>744</ele>
        <time>2018-02-15T02:22:15Z</time>
      </trkpt>
      <trkpt lat="45.54138" lon="6.45995">
        <ele>748</ele>
        <time>2018-02-15T02:23:15Z</time>
      </trkpt>
      <trkpt lat="45.54119" lon="6.46014">
        <ele>741</ele>
        <time>2018-02-15T02:24:15Z</time>
      </trkpt>
      <trkpt lat="45.54079" lon="6.46009">
        <ele>745</ele>
        <time>2018-02-15T02:25:15Z</time>
      </trkpt>
      <trkpt lat="45.54054" lon="6.4599">
        <ele>752</ele>
        <time>2018-02-15T02:26:15Z</time>
      </trkpt>
      <trkpt lat="45.53995" lon="6.45974">
        <ele>756</ele>
        <time>2018-02-15T02:27:15Z</time>
      </trkpt>
      <trkpt lat="45.53889" lon="6.4597">
        <ele>761</ele>
        <time>2018-02-15T02:28:15Z</time>
      </trkpt>
      <trkpt lat="45.53862" lon="6.45985">
        <ele>757</ele>
        <time>2018-02-15T02:29:15Z</time>
      </trkpt>
      <trkpt lat="45.53767" lon="6.45969">
        <ele>779</ele>
        <time>2018-02-15T02:30:15Z</time>
      </trkpt>
      <trkpt lat="45.53697" lon="6.45994">
        <ele>790</ele>
        <time>2018-02-15T02:31:15Z</time>
      </trkpt>
      <trkpt lat="45.53649" lon="6.46081">
        <ele>781</ele>
        <time>2018-02-15T02:32:15Z</time>
      </trkpt>
      <trkpt lat="45.53553" lon="6.46159">
        <ele>798</ele>
        <time>2018-02-15T02:33:15Z</time>
      </trkpt>
      <trkpt lat="45.53493" lon="6.46202">
        <ele>803</ele>
        <time>2018-02-15T02:34:15Z</time>
      </trkpt>
      <trkpt lat="45.53385" lon="6.46216">
        <ele>817</ele>
        <time>2018-02-15T02:35:15Z</time>
      </trkpt>
      <trkpt lat="45.53368" lon="6.46235">
        <ele>816</ele>
        <time>2018-02-15T02:36:15Z</time>
      </trkpt>
      <trkpt lat="45.53361" lon="6.46278">
        <ele>803</ele>
        <time>2018-02-15T02:37:15Z</time>
      </trkpt>
      <trkpt lat="45.53343" lon="6.4629">
        <ele>804</ele>
        <time>2018-02-15T02:38:15Z</time>
      </trkpt>
      <trkpt lat="45.53262" lon="6.46293">
        <ele>827</ele>
        <time>2018-02-15T02:39:15Z</time>
      </trkpt>
      <trkpt lat="45.53189" lon="6.46317">
        <ele>831</ele>
        <time>2018-02-15T02:40:15Z</time>
      </trkpt>
      <trkpt lat="45.53063" lon="6.46379">
        <ele>827</ele>
        <time>2018-02-15T02:41:15Z</time>
      </trkpt>
      <trkpt lat="45.53049" lon="6.4638">
        <ele>828</ele>
        <time>2018-02-15T02:42:15Z</time>
      </trkpt>
      <trkpt lat="45.53022" lon="6.46367">
        <ele>835</ele>
        <time>2018-02-15T02:43:15Z</time>
      </trkpt>
      <trkpt lat="45.52986" lon="6.46385">
        <ele>828</ele>
        <time>2018-02-15T02:44:15Z</time>
      </trkpt>
      <trkpt lat="45.52971" lon="6.46375">
        <ele>830</ele>
        <time>2018-02-15T02:45:15Z</time>
      </trkpt>
      <trkpt lat="45.52923" lon="6.46334">
        <ele>839</ele>
        <time>2018-02-15T02:46:15Z</time>
      </trkpt>
      <trkpt lat="45.52875" lon="6.46311">
        <ele>835</ele>
        <time>2018-02-15T02:47:15Z</time>
      </trkpt>
      <trkpt lat="45.52817" lon="6.46241">
        <ele>844</ele>
        <time>2018-02-15T02:48:15Z</time>
      </trkpt>
      <trkpt lat="45.52769" lon="6.46161">
        <ele>854</ele>
        <time>2018-02-15T02:49:15Z</time>
      </trkpt>
      <trkpt lat="45.52746" lon="6.46119">
        <ele>859</ele>
        <time>2018-02-15T02:50:15Z</time>
      </trkpt>
      <trkpt lat="45.52715" lon="6.46092">
        <ele>865</ele>
        <time>2018-02-15T02:51:15Z</time>
      </trkpt>
      <trkpt lat="45.52567" lon="6.46069">
        <ele>870</ele>
        <time>2018-02-15T02:52:15Z</time>
      </trkpt>
      <trkpt lat="45.52519" lon="6.46079">
        <ele>863</ele>
        <time>2018-02-15T02:53:15Z</time>
      </trkpt>
      <trkpt lat="45.52436" lon="6.4607">
        <ele>862</ele>
        <time>2018-02-15T02:54:15Z</time>
      </trkpt>
      <trkpt lat="45.52405" lon="6.46052">
        <ele>864</ele>
        <time>2018-02-15T02:55:15Z</time>
      </trkpt>
      <trkpt lat="45.52381" lon="6.46029">
        <ele>866</ele>
        <time>2018-02-15T02:56:15Z</time>
      </trkpt>
      <trkpt lat="45.52352" lon="6.45972">
        <ele>880</ele>
        <time>2018-02-15T02:57:15Z</time>
      </trkpt>
      <trkpt lat="45.52334" lon="6.45953">
        <ele>884</ele>
        <time>2018-02-15T02:58:15Z</time>
      </trkpt>
      <trkpt lat="45.52249" lon="6.45884">
        <ele>892</ele>
        <time>2018-02-15T02:59:15Z</time>
      </trkpt>
      <trkpt lat="45.52212" lon="6.45842">
        <ele>897</ele>
        <time>2018-02-15T03:00:15Z</time>
      </trkpt>
      <trkpt lat="45.52182" lon="6.45821">
        <ele>894</ele>
        <time>2018-02-15T03:01:15Z</time>
      </trkpt>
      <trkpt lat="45.52157" lon="6.45788">
        <ele>898</ele>
        <time>2018-02-15T03:02:15Z</time>
      </trkpt>
      <trkpt lat="45.52102" lon="6.45722">
        <ele>905</ele>
        <time>2018-02-15T03:03:15Z</time>
      </trkpt>
      <trkpt lat="45.52059" lon="6.45695">
        <ele>900</ele>
        <time>2018-02-15T03:04:15Z</time>
      </trkpt>
      <trkpt lat="45.52029" lon="6.45686">
        <ele>893</ele>
        <time>2018-02-15T03:05:15Z</time>
      </trkpt>
      <trkpt lat="45.52024" lon="6.45676">
        <ele>895</ele>
        <time>2018-02-15T03:06:15Z</time>
      </trkpt>
      <trkpt lat="45.52028" lon="6.45664">
        <ele>900</ele>
        <time>2018-02-15T03:07:15Z</time>
      </trkpt>
      <trkpt lat="45.5204" lon="6.45666">
        <ele>903</ele>
        <time>2018-02-15T03:08:15Z</time>
      </trkpt>
      <trkpt lat="45.52066" lon="6.45685">
        <ele>906</ele>
        <time>2018-02-15T03:09:15Z</time>
      </trkpt>
      <trkpt lat="45.52106" lon="6.45697">
        <ele>915</ele>
        <time>2018-02-15T03:10:15Z</time>
      </trkpt>
      <trkpt lat="45.52164" lon="6.45735">
        <ele>919</ele>
        <time>2018-02-15T03:11:15Z</time>
      </trkpt>
      <trkpt lat="45.52201" lon="6.45766">
        <ele>920</ele>
        <time>2018-02-15T03:12:15Z</time>
      </trkpt>
      <trkpt lat="45.5223" lon="6.45783">
        <ele>924</ele>
        <time>2018-02-15T03:13:15Z</time>
      </trkpt>
      <trkpt lat="45.52243" lon="6.45798">
        <ele>924</ele>
        <time>2018-02-15T03:14:15Z</time>
      </trkpt>
      <trkpt lat="45.52267" lon="6.45835">
        <ele>919</ele>
        <time>2018-02-15T03:15:15Z</time>
      </trkpt>
      <trkpt lat="45.52277" lon="6.4584">
        <ele>919</ele>
        <time>2018-02-15T03:16:15Z</time>
      </trkpt>
      <trkpt lat="45.52279" lon="6.4584">
        <ele>920</ele>
        <time>2018-02-15T03:17:15Z</time>
      </trkpt>
      <trkpt lat="45.52281" lon="6.45835">
        <ele>923</ele>
        <time>2018-02-15T03:18:15Z</time>
      </trkpt>
      <trkpt lat="45.52281" lon="6.45831">
        <ele>924</ele>
        <time>2018-02-15T03:19:15Z</time>
      </trkpt>
      <trkpt lat="45.52264" lon="6.45812">
        <ele>926</ele>
        <time>2018-02-15T03:20:15Z</time>
      </trkpt>
      <trkpt lat="45.52242" lon="6.45774">
        <ele>931</ele>
        <time>2018-02-15T03:21:15Z</time>
      </trkpt>
      <trkpt lat="45.52097" lon="6.45601">
        <ele>952</ele>
        <time>2018-02-15T03:22:15Z</time>
      </trkpt>
      <trkpt lat="45.52059" lon="6.45571">
        <ele>948</ele>
        <time>2018-02-15T03:23:15Z</time>
      </trkpt>
      <trkpt lat="45.52047" lon="6.45553">
        <ele>947</ele>
        <time>2018-02-15T03:24:15Z</time>
      </trkpt>
      <trkpt lat="45.52019" lon="6.45536">
        <ele>941</ele>
        <time>2018-02-15T03:25:15Z</time>
      </trkpt>
      <trkpt lat="45.51984" lon="6.45451">
        <ele>952</ele>
        <time>2018-02-15T03:26:15Z</time>
      </trkpt>
      <trkpt lat="45.51964" lon="6.45376">
        <ele>971</ele>
        <time>2018-02-15T03:27:15Z</time>
      </trkpt>
      <trkpt lat="45.51957" lon="6.45311">
        <ele>990</ele>
        <time>2018-02-15T03:28:15Z</time>
      </trkpt>
      <trkpt lat="45.5195" lon="6.45289">
        <ele>997</ele>
        <time>2018-02-15T03:29:15Z</time>
      </trkpt>
      <trkpt lat="45.51938" lon="6.45282">
        <ele>998</ele>
        <time>2018-02-15T03:30:15Z</time>
      </trkpt>
      <trkpt lat="45.51932" lon="6.45284">
        <ele>997</ele>
        <time>2018-02-15T03:31:15Z</time>
      </trkpt>
      <trkpt lat="45.51925" lon="6.45291">
        <ele>993</ele>
        <time>2018-02-15T03:32:15Z</time>
      </trkpt>
      <trkpt lat="45.5192" lon="6.45305">
        <ele>986</ele>
        <time>2018-02-15T03:33:15Z</time>
      </trkpt>
      <trkpt lat="45.51916" lon="6.45338">
        <ele>971</ele>
        <time>2018-02-15T03:34:15Z</time>
      </trkpt>
      <trkpt lat="45.51911" lon="6.45364">
        <ele>966</ele>
        <time>2018-02-15T03:35:15Z</time>
      </trkpt>
      <trkpt lat="45.51907" lon="6.45373">
        <ele>964</ele>
        <time>2018-02-15T03:36:15Z</time>
      </trkpt>
      <trkpt lat="45.519" lon="6.45378">
        <ele>964</ele>
        <time>2018-02-15T03:37:15Z</time>
      </trkpt>
      <trkpt lat="45.51881" lon="6.45386">
        <ele>964</ele>
        <time>2018-02-15T03:38:15Z</time>
      </trkpt>
      <trkpt lat="45.51839" lon="6.45423">
        <ele>959</ele>
        <time>2018-02-15T03:39:15Z</time>
      </trkpt>
      <trkpt lat="45.51828" lon="6.45421">
        <ele>959</ele>
        <time>2018-02-15T03:40:15Z</time>
      </trkpt>
      <trkpt lat="45.51817" lon="6.45415">
        <ele>958</ele>
        <time>2018-02-15T03:41:15Z</time>
      </trkpt>
      <trkpt lat="45.51792" lon="6.45391">
        <ele>957</ele>
        <time>2018-02-15T03:42:15Z</time>
      </trkpt>
      <trkpt lat="45.51764" lon="6.45344">
        <ele>962</ele>
        <time>2018-02-15T03:43:15Z</time>
      </trkpt>
      <trkpt lat="45.51749" lon="6.45285">
        <ele>970</ele>
        <time>2018-02-15T03:44:15Z</time>
      </trkpt>
      <trkpt lat="45.51716" lon="6.45274">
        <ele>965</ele>
        <time>2018-02-15T03:45:15Z</time>
      </trkpt>
      <trkpt lat="45.51682" lon="6.4524">
        <ele>969</ele>
        <time>2018-02-15T03:46:15Z</time>
      </trkpt>
      <trkpt lat="45.51604" lon="6.45189">
        <ele>969</ele>
        <time>2018-02-15T03:47:15Z</time>
      </trkpt>
      <trkpt lat="45.51546" lon="6.45135">
        <ele>972</ele>
        <time>2018-02-15T03:48:15Z</time>
      </trkpt>
      <trkpt lat="45.51476" lon="6.45065">
        <ele>973</ele>
        <time>2018-02-15T03:49:15Z</time>
      </trkpt>
      <trkpt lat="45.51319" lon="6.44881">
        <ele>968</ele>
        <time>2018-02-15T03:50:15Z</time>
      </trkpt>
      <trkpt lat="45.51304" lon="6.44851">
        <ele>964</ele>
        <time>2018-02-15T03:51:15Z</time>
      </trkpt>
      <trkpt lat="45.51333" lon="6.44746">
        <ele>1002</ele>
        <time>2018-02-15T03:52:15Z</time>
      </trkpt>
      <trkpt lat="45.51335" lon="6.44719">
        <ele>1003</ele>
        <time>2018-02-15T03:53:15Z</time>
      </trkpt>
      <trkpt lat="45.51347" lon="6.4466">
        <ele>1013</ele>
        <time>2018-02-15T03:54:15Z</time>
      </trkpt>
      <trkpt lat="45.51351" lon="6.44621">
        <ele>1019</ele>
        <time>2018-02-15T03:55:15Z</time>
      </trkpt>
      <trkpt lat="45.51342" lon="6.44597">
        <ele>1014</ele>
        <time>2018-02-15T03:56:15Z</time>
      </trkpt>
      <trkpt lat="45.5134" lon="6.44558">
        <ele>1016</ele>
        <time>2018-02-15T03:57:15Z</time>
      </trkpt>
      <trkpt lat="45.51345" lon="6.44514">
        <ele>1024</ele>
        <time>2018-02-15T03:58:15Z</time>
      </trkpt>
      <trkpt lat="45.51353" lon="6.44486">
        <ele>1033</ele>
        <time>2018-02-15T03:59:15Z</time>
      </trkpt>
      <trkpt lat="45.51334" lon="6.44467">
        <ele>1026</ele>
        <time>2018-02-15T04:00:15Z</time>
      </trkpt>
      <trkpt lat="45.51318" lon="6.44468">
        <ele>1027</ele>
        <time>2018-02-15T04:01:15Z</time>
      </trkpt>
      <trkpt lat="45.51262" lon="6.44497">
        <ele>1022</ele>
        <time>2018-02-15T04:02:15Z</time>
      </trkpt>
      <trkpt lat="45.51224" lon="6.44529">
        <ele>1019</ele>
        <time>2018-02-15T04:03:15Z</time>
      </trkpt>
      <trkpt lat="45.51196" lon="6.44548">
        <ele>1021</ele>
        <time>2018-02-15T04:04:15Z</time>
      </trkpt>
      <trkpt lat="45.51173" lon="6.44582">
        <ele>1012</ele>
        <time>2018-02-15T04:05:15Z</time>
      </trkpt>
      <trkpt lat="45.51156" lon="6.44598">
        <ele>1012</ele>
        <time>2018-02-15T04:06:15Z</time>
      </trkpt>
      <trkpt lat="45.51133" lon="6.4461">
        <ele>1016</ele>
        <time>2018-02-15T04:07:15Z</time>
      </trkpt>
      <trkpt lat="45.51044" lon="6.4467">
        <ele>1012</ele>
        <time>2018-02-15T04:08:15Z</time>
      </trkpt>
      <trkpt lat="45.51019" lon="6.44683">
        <ele>1011</ele>
        <time>2018-02-15T04:09:15Z</time>
      </trkpt>
      <trkpt lat="45.50997" lon="6.44691">
        <ele>1010</ele>
        <time>2018-02-15T04:10:15Z</time>
      </trkpt>
      <trkpt lat="45.50975" lon="6.44688">
        <ele>1008</ele>
        <time>2018-02-15T04:11:15Z</time>
      </trkpt>
      <trkpt lat="45.50958" lon="6.44681">
        <ele>1008</ele>
        <time>2018-02-15T04:12:15Z</time>
      </trkpt>
      <trkpt lat="45.50887" lon="6.4463">
        <ele>1018</ele>
        <time>2018-02-15T04:13:15Z</time>
      </trkpt>
      <trkpt lat="45.5088" lon="6.44619">
        <ele>1020</ele>
        <time>2018-02-15T04:14:15Z</time>
      </trkpt>
      <trkpt lat="45.50872" lon="6.4461">
        <ele>1022</ele>
        <time>2018-02-15T04:15:15Z</time>
      </trkpt>
      <trkpt lat="45.5081" lon="6.44581">
        <ele>1013</ele>
        <time>2018-02-15T04:16:15Z</time>
      </trkpt>
      <trkpt lat="45.50788" lon="6.44564">
        <ele>1015</ele>
        <time>2018-02-15T04:17:15Z</time>
      </trkpt>
      <trkpt lat="45.50754" lon="6.4452">
        <ele>1022</ele>
        <time>2018-02-15T04:18:15Z</time>
      </trkpt>
      <trkpt lat="45.50736" lon="6.44511">
        <ele>1022</ele>
        <time>2018-02-15T04:19:15Z</time>
      </trkpt>
      <trkpt lat="45.50705" lon="6.44505">
        <ele>1019</ele>
        <time>2018-02-15T04:20:15Z</time>
      </trkpt>
      <trkpt lat="45.50678" lon="6.44488">
        <ele>1022</ele>
        <time>2018-02-15T04:21:15Z</time>
      </trkpt>
      <trkpt lat="45.50623" lon="6.44486">
        <ele>1011</ele>
        <time>2018-02-15T04:22:15Z</time>
      </trkpt>
      <trkpt lat="45.50586" lon="6.44475">
        <ele>1007</ele>
        <time>2018-02-15T04:23:15Z</time>
      </trkpt>
      <trkpt lat="45.50557" lon="6.44456">
        <ele>1003</ele>
        <time>2018-02-15T04:24:15Z</time>
      </trkpt>
      <trkpt lat="45.50537" lon="6.44433">
        <ele>1004</ele>
        <time>2018-02-15T04:25:15Z</time>
      </trkpt>
      <trkpt lat="45.50518" lon="6.44397">
        <ele>1010</ele>
        <time>2018-02-15T04:26:15Z</time>
      </trkpt>
      <trkpt lat="45.50475" lon="6.44352">
        <ele>1009</ele>
        <time>2018-02-15T04:27:15Z</time>
      </trkpt>
      <trkpt lat="45.50455" lon="6.44319">
        <ele>1014</ele>
        <time>2018-02-15T04:28:15Z</time>
      </trkpt>
      <trkpt lat="45.50426" lon="6.44296">
        <ele>1010</ele>
        <time>2018-02-15T04:29:15Z</time>
      </trkpt>
      <trkpt lat="45.50423" lon="6.44273">
        <ele>1018</ele>
        <time>2018-02-15T04:30:15Z</time>
      </trkpt>
      <trkpt lat="45.50422" lon="6.44241">
        <ele>1031</ele>
        <time>2018-02-15T04:31:15Z</time>
      </trkpt>
      <trkpt lat="45.50414" lon="6.44232">
        <ele>1032</ele>
        <time>2018-02-15T04:32:15Z</time>
      </trkpt>
      <trkpt lat="45.50407" lon="6.44229">
        <ele>1030</ele>
        <time>2018-02-15T04:33:15Z</time>
      </trkpt>
      <trkpt lat="45.50359" lon="6.44232">
        <ele>1010</ele>
        <time>2018-02-15T04:34:15Z</time>
      </trkpt>
      <trkpt lat="45.50335" lon="6.44209">
        <ele>1013</ele>
        <time>2018-02-15T04:35:15Z</time>
      </trkpt>
      <trkpt lat="45.50292" lon="6.44172">
        <ele>1013</ele>
        <time>2018-02-15T04:36:15Z</time>
      </trkpt>
      <trkpt lat="45.50249" lon="6.44109">
        <ele>1025</ele>
        <time>2018-02-15T04:37:15Z</time>
      </trkpt>
      <trkpt lat="45.5023" lon="6.44089">
        <ele>1027</ele>
        <time>2018-02-15T04:38:15Z</time>
      </trkpt>
      <trkpt lat="45.50197" lon="6.44078">
        <ele>1017</ele>
        <time>2018-02-15T04:39:15Z</time>
      </trkpt>
      <trkpt lat="45.50124" lon="6.43998">
        <ele>1024</ele>
        <time>2018-02-15T04:40:15Z</time>
      </trkpt>
      <trkpt lat="45.50069" lon="6.43953">
        <ele>1016</ele>
        <time>2018-02-15T04:41:15Z</time>
      </trkpt>
      <trkpt lat="45.50026" lon="6.43892">
        <ele>1024</ele>
        <time>2018-02-15T04:42:15Z</time>
      </trkpt>
      <trkpt lat="45.49993" lon="6.4388">
        <ele>1011</ele>
        <time>2018-02-15T04:43:15Z</time>
      </trkpt>
      <trkpt lat="45.49979" lon="6.43849">
        <ele>1016</ele>
        <time>2018-02-15T04:44:15Z</time>
      </trkpt>
      <trkpt lat="45.4995" lon="6.43822">
        <ele>1012</ele>
        <time>2018-02-15T04:45:15Z</time>
      </trkpt>
      <trkpt lat="45.49882" lon="6.43738">
        <ele>1010</ele>
        <time>2018-02-15T04:46:15Z</time>
      </trkpt>
      <trkpt lat="45.49871" lon="6.43706">
        <ele>1018</ele>
        <time>2018-02-15T04:47:15Z</time>
      </trkpt>
      <trkpt lat="45.49834" lon="6.43669">
        <ele>1010</ele>
        <time>2018-02-15T04:48:15Z</time>
      </trkpt>
      <trkpt lat="45.49762" lon="6.43562">
        <ele>1015</ele>
        <time>2018-02-15T04:49:15Z</time>
      </trkpt>
      <trkpt lat="45.49746" lon="6.43534">
        <ele>1021</ele>
        <time>2018-02-15T04:50:15Z</time>
      </trkpt>
      <trkpt lat="45.4973" lon="6.43514">
        <ele>1024</ele>
        <time>2018-02-15T04:51:15Z</time>
      </trkpt>
      <trkpt lat="45.49695" lon="6.43489">
        <ele>1022</ele>
        <time>2018-02-15T04:52:15Z</time>
      </trkpt>
      <trkpt lat="45.49675" lon="6.43468">
        <ele>1023</ele>
        <time>2018-02-15T04:53:15Z</time>
      </trkpt>
      <trkpt lat="45.49654" lon="6.43454">
        <ele>1021</ele>
        <time>2018-02-15T04:54:15Z</time>
      </trkpt>
      <trkpt lat="45.49633" lon="6.43453">
        <ele>1013</ele>
        <time>2018-02-15T04:55:15Z</time>
      </trkpt>
      <trkpt lat="45.49613" lon="6.43444">
        <ele>1008</ele>
        <time>2018-02-15T04:56:15Z</time>
      </trkpt>
      <trkpt lat="45.49599" lon="6.43416">
        <ele>1011</ele>
        <time>2018-02-15T04:57:15Z</time>
      </trkpt>
      <trkpt lat="45.49589" lon="6.43382">
        <ele>1013</ele>
        <time>2018-02-15T04:58:15Z</time>
      </trkpt>
      <trkpt lat="45.49583" lon="6.43349">
        <ele>1017</ele>
        <time>2018-02-15T04:59:15Z</time>
      </trkpt>
      <trkpt lat="45.49584" lon="6.43316">
        <ele>1023</ele>
        <time>2018-02-15T05:00:15Z</time>
      </trkpt>
      <trkpt lat="45.4958" lon="6.4326">
        <ele>1030</ele>
        <time>2018-02-15T05:01:15Z</time>
      </trkpt>
      <trkpt lat="45.49576" lon="6.43246">
        <ele>1031</ele>
        <time>2018-02-15T05:02:15Z</time>
      </trkpt>
      <trkpt lat="45.49571" lon="6.43235">
        <ele>1032</ele>
        <time>2018-02-15T05:03:15Z</time>
      </trkpt>
      <trkpt lat="45.49564" lon="6.43227">
        <ele>1031</ele>
        <time>2018-02-15T05:04:15Z</time>
      </trkpt>
      <trkpt lat="45.49554" lon="6.43221">
        <ele>1030</ele>
        <time>2018-02-15T05:05:15Z</time>
      </trkpt>
      <trkpt lat="45.49539" lon="6.43218">
        <ele>1028</ele>
        <time>2018-02-15T05:06:15Z</time>
      </trkpt>
      <trkpt lat="45.49521" lon="6.43227">
        <ele>1021</ele>
        <time>2018-02-15T05:07:15Z</time>
      </trkpt>
      <trkpt lat="45.49509" lon="6.43224">
        <ele>1019</ele>
        <time>2018-02-15T05:08:15Z</time>
      </trkpt>
      <trkpt lat="45.49482" lon="6.43208">
        <ele>1022</ele>
        <time>2018-02-15T05:09:15Z</time>
      </trkpt>
      <trkpt lat="45.49466" lon="6.43203">
        <ele>1023</ele>
        <time>2018-02-15T05:10:15Z</time>
      </trkpt>
      <trkpt lat="45.49448" lon="6.43207">
        <ele>1020</ele>
        <time>2018-02-15T05:11:15Z</time>
      </trkpt>
      <trkpt lat="45.49423" lon="6.43199">
        <ele>1022</ele>
        <time>2018-02-15T05:12:15Z</time>
      </trkpt>
      <trkpt lat="45.494" lon="6.43195">
        <ele>1020</ele>
        <time>2018-02-15T05:13:15Z</time>
      </trkpt>
      <trkpt lat="45.49313" lon="6.43125">
        <ele>1039</ele>
        <time>2018-02-15T05:14:15Z</time>
      </trkpt>
      <trkpt lat="45.49275" lon="6.43105">
        <ele>1043</ele>
        <time>2018-02-15T05:15:15Z</time>
      </trkpt>
      <trkpt lat="45.49263" lon="6.43092">
        <ele>1048</ele>
        <time>2018-02-15T05:16:15Z</time>
      </trkpt>
      <trkpt lat="45.49254" lon="6.43074">
        <ele>1055</ele>
        <time>2018-02-15T05:17:15Z</time>
      </trkpt>
      <trkpt lat="45.49243" lon="6.43073">
        <ele>1054</ele>
        <time>2018-02-15T05:18:15Z</time>
      </trkpt>
      <trkpt lat="45.49225" lon="6.4308">
        <ele>1049</ele>
        <time>2018-02-15T05:19:15Z</time>
      </trkpt>
      <trkpt lat="45.4921" lon="6.43089">
        <ele>1042</ele>
        <time>2018-02-15T05:20:15Z</time>
      </trkpt>
      <trkpt lat="45.4919" lon="6.43097">
        <ele>1036</ele>
        <time>2018-02-15T05:21:15Z</time>
      </trkpt>
      <trkpt lat="45.49181" lon="6.43088">
        <ele>1040</ele>
        <time>2018-02-15T05:22:15Z</time>
      </trkpt>
      <trkpt lat="45.49172" lon="6.43076">
        <ele>1044</ele>
        <time>2018-02-15T05:23:15Z</time>
      </trkpt>
      <trkpt lat="45.49161" lon="6.43069">
        <ele>1044</ele>
        <time>2018-02-15T05:24:15Z</time>
      </trkpt>
      <trkpt lat="45.49143" lon="6.43065">
        <ele>1041</ele>
        <time>2018-02-15T05:25:15Z</time>
      </trkpt>
      <trkpt lat="45.49148" lon="6.43053">
        <ele>1047</ele>
        <time>2018-02-15T05:26:15Z</time>
      </trkpt>
      <trkpt lat="45.49164" lon="6.43051">
        <ele>1052</ele>
        <time>2018-02-15T05:27:15Z</time>
      </trkpt>
      <trkpt lat="45.49177" lon="6.43063">
        <ele>1050</ele>
        <time>2018-02-15T05:28:15Z</time>
      </trkpt>
      <trkpt lat="45.4919" lon="6.43083">
        <ele>1043</ele>
        <time>2018-02-15T05:29:15Z</time>
      </trkpt>
      <trkpt lat="45.49204" lon="6.43081">
        <ele>1045</ele>
        <time>2018-02-15T05:30:15Z</time>
      </trkpt>
      <trkpt lat="45.49233" lon="6.43055">
        <ele>1061</ele>
        <time>2018-02-15T05:31:15Z</time>
      </trkpt>
      <trkpt lat="45.49247" lon="6.43054">
        <ele>1064</ele>
        <time>2018-02-15T05:32:15Z</time>
      </trkpt>
      <trkpt lat="45.4928" lon="6.43077">
        <ele>1059</ele>
        <time>2018-02-15T05:33:15Z</time>
      </trkpt>
      <trkpt lat="45.49302" lon="6.43082">
        <ele>1060</ele>
        <time>2018-02-15T05:34:15Z</time>
      </trkpt>
      <trkpt lat="45.49338" lon="6.43095">
        <ele>1059</ele>
        <time>2018-02-15T05:35:15Z</time>
      </trkpt>
      <trkpt lat="45.49382" lon="6.43114">
        <ele>1056</ele>
        <time>2018-02-15T05:36:15Z</time>
      </trkpt>
      <trkpt lat="45.49405" lon="6.43121">
        <ele>1056</ele>
        <time>2018-02-15T05:37:15Z</time>
      </trkpt>
      <trkpt lat="45.49431" lon="6.43117">
        <ele>1060</ele>
        <time>2018-02-15T05:38:15Z</time>
      </trkpt>
      <trkpt lat="45.49481" lon="6.43105">
        <ele>1063</ele>
        <time>2018-02-15T05:39:15Z</time>
      </trkpt>
      <trkpt lat="45.49496" lon="6.4311">
        <ele>1061</ele>
        <time>2018-02-15T05:40:15Z</time>
      </trkpt>
      <trkpt lat="45.4951" lon="6.4311">
        <ele>1060</ele>
        <time>2018-02-15T05:41:15Z</time>
      </trkpt>
      <trkpt lat="45.49518" lon="6.43105">
        <ele>1062</ele>
        <time>2018-02-15T05:42:15Z</time>
      </trkpt>
      <trkpt lat="45.4952" lon="6.431">
        <ele>1063</ele>
        <time>2018-02-15T05:43:15Z</time>
      </trkpt>
      <trkpt lat="45.49521" lon="6.43093">
        <ele>1066</ele>
        <time>2018-02-15T05:44:15Z</time>
      </trkpt>
      <trkpt lat="45.49517" lon="6.43088">
        <ele>1067</ele>
        <time>2018-02-15T05:45:15Z</time>
      </trkpt>
      <trkpt lat="45.49508" lon="6.43088">
        <ele>1068</ele>
        <time>2018-02-15T05:46:15Z</time>
      </trkpt>
      <trkpt lat="45.4949" lon="6.43096">
        <ele>1066</ele>
        <time>2018-02-15T05:47:15Z</time>
      </trkpt>
      <trkpt lat="45.49473" lon="6.43089">
        <ele>1070</ele>
        <time>2018-02-15T05:48:15Z</time>
      </trkpt>
      <trkpt lat="45.49419" lon="6.43087">
        <ele>1075</ele>
        <time>2018-02-15T05:49:15Z</time>
      </trkpt>
      <trkpt lat="45.49382" lon="6.43074">
        <ele>1077</ele>
        <time>2018-02-15T05:50:15Z</time>
      </trkpt>
      <trkpt lat="45.49337" lon="6.4304">
        <ele>1089</ele>
        <time>2018-02-15T05:51:15Z</time>
      </trkpt>
      <trkpt lat="45.49279" lon="6.43007">
        <ele>1094</ele>
        <time>2018-02-15T05:52:15Z</time>
      </trkpt>
      <trkpt lat="45.49221" lon="6.42971">
        <ele>1098</ele>
        <time>2018-02-15T05:53:15Z</time>
      </trkpt>
      <trkpt lat="45.49187" lon="6.4294">
        <ele>1103</ele>
        <time>2018-02-15T05:54:15Z</time>
      </trkpt>
      <trkpt lat="45.49168" lon="6.42937">
        <ele>1099</ele>
        <time>2018-02-15T05:55:15Z</time>
      </trkpt>
      <trkpt lat="45.49149" lon="6.42937">
        <ele>1094</ele>
        <time>2018-02-15T05:56:15Z</time>
      </trkpt>
      <trkpt lat="45.49131" lon="6.42924">
        <ele>1094</ele>
        <time>2018-02-15T05:57:15Z</time>
      </trkpt>
      <trkpt lat="45.49093" lon="6.42876">
        <ele>1103</ele>
        <time>2018-02-15T05:58:15Z</time>
      </trkpt>
      <trkpt lat="45.49089" lon="6.42844">
        <ele>1116</ele>
        <time>2018-02-15T05:59:15Z</time>
      </trkpt>
      <trkpt lat="45.49082" lon="6.42813">
        <ele>1128</ele>
        <time>2018-02-15T06:00:15Z</time>
      </trkpt>
      <trkpt lat="45.49074" lon="6.42798">
        <ele>1134</ele>
        <time>2018-02-15T06:01:15Z</time>
      </trkpt>
      <trkpt lat="45.49066" lon="6.42796">
        <ele>1133</ele>
        <time>2018-02-15T06:02:15Z</time>
      </trkpt>
      <trkpt lat="45.49056" lon="6.42803">
        <ele>1129</ele>
        <time>2018-02-15T06:03:15Z</time>
      </trkpt>
      <trkpt lat="45.49043" lon="6.42816">
        <ele>1121</ele>
        <time>2018-02-15T06:04:15Z</time>
      </trkpt>
      <trkpt lat="45.49024" lon="6.42817">
        <ele>1118</ele>
        <time>2018-02-15T06:05:15Z</time>
      </trkpt>
      <trkpt lat="45.49016" lon="6.42831">
        <ele>1112</ele>
        <time>2018-02-15T06:06:15Z</time>
      </trkpt>
      <trkpt lat="45.49006" lon="6.42841">
        <ele>1107</ele>
        <time>2018-02-15T06:07:15Z</time>
      </trkpt>
      <trkpt lat="45.48989" lon="6.42838">
        <ele>1106</ele>
        <time>2018-02-15T06:08:15Z</time>
      </trkpt>
      <trkpt lat="45.48963" lon="6.42812">
        <ele>1114</ele>
        <time>2018-02-15T06:09:15Z</time>
      </trkpt>
      <trkpt lat="45.48931" lon="6.42787">
        <ele>1122</ele>
        <time>2018-02-15T06:10:15Z</time>
      </trkpt>
      <trkpt lat="45.48843" lon="6.42732">
        <ele>1148</ele>
        <time>2018-02-15T06:11:15Z</time>
      </trkpt>
      <trkpt lat="45.48832" lon="6.42733">
        <ele>1148</ele>
        <time>2018-02-15T06:12:15Z</time>
      </trkpt>
      <trkpt lat="45.48816" lon="6.42752">
        <ele>1142</ele>
        <time>2018-02-15T06:13:15Z</time>
      </trkpt>
      <trkpt lat="45.48788" lon="6.42812">
        <ele>1129</ele>
        <time>2018-02-15T06:14:15Z</time>
      </trkpt>
      <trkpt lat="45.48776" lon="6.42823">
        <ele>1128</ele>
        <time>2018-02-15T06:15:15Z</time>
      </trkpt>
      <trkpt lat="45.48766" lon="6.42821">
        <ele>1129</ele>
        <time>2018-02-15T06:16:15Z</time>
      </trkpt>
      <trkpt lat="45.48759" lon="6.42811">
        <ele>1132</ele>
        <time>2018-02-15T06:17:15Z</time>
      </trkpt>
      <trkpt lat="45.4875" lon="6.42785">
        <ele>1138</ele>
        <time>2018-02-15T06:18:15Z</time>
      </trkpt>
      <trkpt lat="45.48734" lon="6.42751">
        <ele>1146</ele>
        <time>2018-02-15T06:19:15Z</time>
      </trkpt>
      <trkpt lat="45.48722" lon="6.42737">
        <ele>1152</ele>
        <time>2018-02-15T06:20:15Z</time>
      </trkpt>
      <trkpt lat="45.4871" lon="6.42734">
        <ele>1154</ele>
        <time>2018-02-15T06:21:15Z</time>
      </trkpt>
      <trkpt lat="45.48663" lon="6.4275">
        <ele>1153</ele>
        <time>2018-02-15T06:22:15Z</time>
      </trkpt>
      <trkpt lat="45.48657" lon="6.42749">
        <ele>1152</ele>
        <time>2018-02-15T06:23:15Z</time>
      </trkpt>
      <trkpt lat="45.48652" lon="6.42745">
        <ele>1153</ele>
        <time>2018-02-15T06:24:15Z</time>
      </trkpt>
      <trkpt lat="45.48653" lon="6.42738">
        <ele>1155</ele>
        <time>2018-02-15T06:25:15Z</time>
      </trkpt>
      <trkpt lat="45.48656" lon="6.42735">
        <ele>1157</ele>
        <time>2018-02-15T06:26:15Z</time>
      </trkpt>
      <trkpt lat="45.48681" lon="6.4273">
        <ele>1158</ele>
        <time>2018-02-15T06:27:15Z</time>
      </trkpt>
      <trkpt lat="45.48686" lon="6.42726">
        <ele>1159</ele>
        <time>2018-02-15T06:28:15Z</time>
      </trkpt>
      <trkpt lat="45.48713" lon="6.42687">
        <ele>1169</ele>
        <time>2018-02-15T06:29:15Z</time>
      </trkpt>
      <trkpt lat="45.48725" lon="6.42677">
        <ele>1171</ele>
        <time>2018-02-15T06:30:15Z</time>
      </trkpt>
      <trkpt lat="45.48737" lon="6.42675">
        <ele>1170</ele>
        <time>2018-02-15T06:31:15Z</time>
      </trkpt>
      <trkpt lat="45.48749" lon="6.42678">
        <ele>1168</ele>
        <time>2018-02-15T06:32:15Z</time>
      </trkpt>
      <trkpt lat="45.48757" lon="6.42681">
        <ele>1166</ele>
        <time>2018-02-15T06:33:15Z</time>
      </trkpt>
      <trkpt lat="45.48775" lon="6.42698">
        <ele>1161</ele>
        <time>2018-02-15T06:34:15Z</time>
      </trkpt>
      <trkpt lat="45.48781" lon="6.42699">
        <ele>1160</ele>
        <time>2018-02-15T06:35:15Z</time>
      </trkpt>
      <trkpt lat="45.48786" lon="6.42693">
        <ele>1162</ele>
        <time>2018-02-15T06:36:15Z</time>
      </trkpt>
      <trkpt lat="45.48786" lon="6.42683">
        <ele>1166</ele>
        <time>2018-02-15T06:37:15Z</time>
      </trkpt>
      <trkpt lat="45.48768" lon="6.42652">
        <ele>1176</ele>
        <time>2018-02-15T06:38:15Z</time>
      </trkpt>
      <trkpt lat="45.48755" lon="6.42636">
        <ele>1182</ele>
        <time>2018-02-15T06:39:15Z</time>
      </trkpt>
      <trkpt lat="45.48739" lon="6.42623">
        <ele>1187</ele>
        <time>2018-02-15T06:40:15Z</time>
      </trkpt>
      <trkpt lat="45.48723" lon="6.42618">
        <ele>1189</ele>
        <time>2018-02-15T06:41:15Z</time>
      </trkpt>
      <trkpt lat="45.48699" lon="6.42622">
        <ele>1188</ele>
        <time>2018-02-15T06:42:15Z</time>
      </trkpt>
      <trkpt lat="45.48662" lon="6.42651">
        <ele>1183</ele>
        <time>2018-02-15T06:43:15Z</time>
      </trkpt>
      <trkpt lat="45.48654" lon="6.42651">
        <ele>1182</ele>
        <time>2018-02-15T06:44:15Z</time>
      </trkpt>
      <trkpt lat="45.48647" lon="6.42648">
        <ele>1181</ele>
        <time>2018-02-15T06:45:15Z</time>
      </trkpt>
      <trkpt lat="45.48593" lon="6.426">
        <ele>1189</ele>
        <time>2018-02-15T06:46:15Z</time>
      </trkpt>
      <trkpt lat="45.48584" lon="6.42586">
        <ele>1194</ele>
        <time>2018-02-15T06:47:15Z</time>
      </trkpt>
      <trkpt lat="45.48576" lon="6.42569">
        <ele>1199</ele>
        <time>2018-02-15T06:48:15Z</time>
      </trkpt>
      <trkpt lat="45.4857" lon="6.42547">
        <ele>1206</ele>
        <time>2018-02-15T06:49:15Z</time>
      </trkpt>
      <trkpt lat="45.48557" lon="6.4253">
        <ele>1210</ele>
        <time>2018-02-15T06:50:15Z</time>
      </trkpt>
      <trkpt lat="45.48471" lon="6.42501">
        <ele>1201</ele>
        <time>2018-02-15T06:51:15Z</time>
      </trkpt>
      <trkpt lat="45.48454" lon="6.42486">
        <ele>1204</ele>
        <time>2018-02-15T06:52:15Z</time>
      </trkpt>
      <trkpt lat="45.48431" lon="6.42456">
        <ele>1212</ele>
        <time>2018-02-15T06:53:15Z</time>
      </trkpt>
      <trkpt lat="45.48411" lon="6.42439">
        <ele>1213</ele>
        <time>2018-02-15T06:54:15Z</time>
      </trkpt>
      <trkpt lat="45.48346" lon="6.42398">
        <ele>1218</ele>
        <time>2018-02-15T06:55:15Z</time>
      </trkpt>
      <trkpt lat="45.48312" lon="6.4238">
        <ele>1218</ele>
        <time>2018-02-15T06:56:15Z</time>
      </trkpt>
      <trkpt lat="45.48272" lon="6.42345">
        <ele>1218</ele>
        <time>2018-02-15T06:57:15Z</time>
      </trkpt>
      <trkpt lat="45.48263" lon="6.42329">
        <ele>1220</ele>
        <time>2018-02-15T06:58:15Z</time>
      </trkpt>
      <trkpt lat="45.48255" lon="6.42306">
        <ele>1223</ele>
        <time>2018-02-15T06:59:15Z</time>
      </trkpt>
      <trkpt lat="45.48246" lon="6.42264">
        <ele>1232</ele>
        <time>2018-02-15T07:00:15Z</time>
      </trkpt>
      <trkpt lat="45.48233" lon="6.4218">
        <ele>1251</ele>
        <time>2018-02-15T07:01:15Z</time>
      </trkpt>
      <trkpt lat="45.48229" lon="6.4217">
        <ele>1253</ele>
        <time>2018-02-15T07:02:15Z</time>
      </trkpt>
      <trkpt lat="45.48224" lon="6.42163">
        <ele>1254</ele>
        <time>2018-02-15T07:03:15Z</time>
      </trkpt>
      <trkpt lat="45.48218" lon="6.4216">
        <ele>1254</ele>
        <time>2018-02-15T07:04:15Z</time>
      </trkpt>
      <trkpt lat="45.48203" lon="6.42163">
        <ele>1251</ele>
        <time>2018-02-15T07:05:15Z</time>
      </trkpt>
      <trkpt lat="45.48182" lon="6.42186">
        <ele>1239</ele>
        <time>2018-02-15T07:06:15Z</time>
      </trkpt>
      <trkpt lat="45.48172" lon="6.42187">
        <ele>1237</ele>
        <time>2018-02-15T07:07:15Z</time>
      </trkpt>
      <trkpt lat="45.48162" lon="6.42185">
        <ele>1236</ele>
        <time>2018-02-15T07:08:15Z</time>
      </trkpt>
      <trkpt lat="45.48133" lon="6.4217">
        <ele>1242</ele>
        <time>2018-02-15T07:09:15Z</time>
      </trkpt>
      <trkpt lat="45.48098" lon="6.42157">
        <ele>1249</ele>
        <time>2018-02-15T07:10:15Z</time>
      </trkpt>
      <trkpt lat="45.48025" lon="6.42138">
        <ele>1253</ele>
        <time>2018-02-15T07:11:15Z</time>
      </trkpt>
      <trkpt lat="45.47953" lon="6.42087">
        <ele>1260</ele>
        <time>2018-02-15T07:12:15Z</time>
      </trkpt>
      <trkpt lat="45.47937" lon="6.42078">
        <ele>1261</ele>
        <time>2018-02-15T07:13:15Z</time>
      </trkpt>
      <trkpt lat="45.47887" lon="6.42069">
        <ele>1257</ele>
        <time>2018-02-15T07:14:15Z</time>
      </trkpt>
      <trkpt lat="45.47858" lon="6.42066">
        <ele>1254</ele>
        <time>2018-02-15T07:15:15Z</time>
      </trkpt>
      <trkpt lat="45.47855" lon="6.42064">
        <ele>1254</ele>
        <time>2018-02-15T07:16:15Z</time>
      </trkpt>
      <trkpt lat="45.47853" lon="6.42059">
        <ele>1255</ele>
        <time>2018-02-15T07:17:15Z</time>
      </trkpt>
      <trkpt lat="45.47852" lon="6.42053">
        <ele>1256</ele>
        <time>2018-02-15T07:18:15Z</time>
      </trkpt>
      <trkpt lat="45.47854" lon="6.42048">
        <ele>1258</ele>
        <time>2018-02-15T07:19:15Z</time>
      </trkpt>
      <trkpt lat="45.4789" lon="6.42017">
        <ele>1267</ele>
        <time>2018-02-15T07:20:15Z</time>
      </trkpt>
      <trkpt lat="45.47911" lon="6.42008">
        <ele>1270</ele>
        <time>2018-02-15T07:21:15Z</time>
      </trkpt>
      <trkpt lat="45.47916" lon="6.42008">
        <ele>1271</ele>
        <time>2018-02-15T07:22:15Z</time>
      </trkpt>
      <trkpt lat="45.47936" lon="6.42017">
        <ele>1275</ele>
        <time>2018-02-15T07:23:15Z</time>
      </trkpt>
      <trkpt lat="45.47941" lon="6.42017">
        <ele>1277</ele>
        <time>2018-02-15T07:24:15Z</time>
      </trkpt>
      <trkpt lat="45.47947" lon="6.42007">
        <ele>1281</ele>
        <time>2018-02-15T07:25:15Z</time>
      </trkpt>
      <trkpt lat="45.47946" lon="6.42">
        <ele>1283</ele>
        <time>2018-02-15T07:26:15Z</time>
      </trkpt>
      <trkpt lat="45.47943" lon="6.41996">
        <ele>1283</ele>
        <time>2018-02-15T07:27:15Z</time>
      </trkpt>
      <trkpt lat="45.47935" lon="6.4199">
        <ele>1283</ele>
        <time>2018-02-15T07:28:15Z</time>
      </trkpt>
      <trkpt lat="45.47881" lon="6.41968">
        <ele>1280</ele>
        <time>2018-02-15T07:29:15Z</time>
      </trkpt>
      <trkpt lat="45.47866" lon="6.4196">
        <ele>1281</ele>
        <time>2018-02-15T07:30:15Z</time>
      </trkpt>
      <trkpt lat="45.47849" lon="6.41943">
        <ele>1282</ele>
        <time>2018-02-15T07:31:15Z</time>
      </trkpt>
      <trkpt lat="45.47833" lon="6.41898">
        <ele>1289</ele>
        <time>2018-02-15T07:32:15Z</time>
      </trkpt>
      <trkpt lat="45.47809" lon="6.41873">
        <ele>1291</ele>
        <time>2018-02-15T07:33:15Z</time>
      </trkpt>
      <trkpt lat="45.47801" lon="6.41856">
        <ele>1293</ele>
        <time>2018-02-15T07:34:15Z</time>
      </trkpt>
      <trkpt lat="45.47795" lon="6.41835">
        <ele>1296</ele>
        <time>2018-02-15T07:35:15Z</time>
      </trkpt>
      <trkpt lat="45.47784" lon="6.41813">
        <ele>1299</ele>
        <time>2018-02-15T07:36:15Z</time>
      </trkpt>
      <trkpt lat="45.47767" lon="6.41796">
        <ele>1299</ele>
        <time>2018-02-15T07:37:15Z</time>
      </trkpt>
      <trkpt lat="45.47736" lon="6.41782">
        <ele>1299</ele>
        <time>2018-02-15T07:38:15Z</time>
      </trkpt>
      <trkpt lat="45.47709" lon="6.41767">
        <ele>1301</ele>
        <time>2018-02-15T07:39:15Z</time>
      </trkpt>
      <trkpt lat="45.47691" lon="6.41764">
        <ele>1302</ele>
        <time>2018-02-15T07:40:15Z</time>
      </trkpt>
      <trkpt lat="45.47683" lon="6.41765">
        <ele>1302</ele>
        <time>2018-02-15T07:41:15Z</time>
      </trkpt>
      <trkpt lat="45.47675" lon="6.41769">
        <ele>1302</ele>
        <time>2018-02-15T07:42:15Z</time>
      </trkpt>
      <trkpt lat="45.47666" lon="6.41782">
        <ele>1302</ele>
        <time>2018-02-15T07:43:15Z</time>
      </trkpt>
      <trkpt lat="45.47663" lon="6.41801">
        <ele>1302</ele>
        <time>2018-02-15T07:44:15Z</time>
      </trkpt>
      <trkpt lat="45.47664" lon="6.41822">
        <ele>1302</ele>
        <time>2018-02-15T07:45:15Z</time>
      </trkpt>
      <trkpt lat="45.47662" lon="6.4184">
        <ele>1302</ele>
        <time>2018-02-15T07:46:15Z</time>
      </trkpt>
      <trkpt lat="45.47656" lon="6.41848">
        <ele>1302</ele>
        <time>2018-02-15T07:47:15Z</time>
      </trkpt>
      <trkpt lat="45.47649" lon="6.41853">
        <ele>1303</ele>
        <time>2018-02-15T07:48:15Z</time>
      </trkpt>
      <trkpt lat="45.47614" lon="6.4186">
        <ele>1306</ele>
        <time>2018-02-15T07:49:15Z</time>
      </trkpt>
      <trkpt lat="45.47576" lon="6.41858">
        <ele>1309</ele>
        <time>2018-02-15T07:50:15Z</time>
      </trkpt>
      <trkpt lat="45.4755" lon="6.41831">
        <ele>1313</ele>
        <time>2018-02-15T07:51:15Z</time>
      </trkpt>
      <trkpt lat="45.47521" lon="6.41788">
        <ele>1323</ele>
        <time>2018-02-15T07:52:15Z</time>
      </trkpt>
      <trkpt lat="45.47431" lon="6.41698">
        <ele>1332</ele>
        <time>2018-02-15T07:53:15Z</time>
      </trkpt>
      <trkpt lat="45.47413" lon="6.41672">
        <ele>1336</ele>
        <time>2018-02-15T07:54:15Z</time>
      </trkpt>
      <trkpt lat="45.47384" lon="6.41593">
        <ele>1352</ele>
        <time>2018-02-15T07:55:15Z</time>
      </trkpt>
      <trkpt lat="45.47357" lon="6.41538">
        <ele>1358</ele>
        <time>2018-02-15T07:56:15Z</time>
      </trkpt>
      <trkpt lat="45.47333" lon="6.41496">
        <ele>1359</ele>
        <time>2018-02-15T07:57:15Z</time>
      </trkpt>
      <trkpt lat="45.47331" lon="6.41485">
        <ele>1362</ele>
        <time>2018-02-15T07:58:15Z</time>
      </trkpt>
      <trkpt lat="45.47334" lon="6.41479">
        <ele>1364</ele>
        <time>2018-02-15T07:59:15Z</time>
      </trkpt>
      <trkpt lat="45.47339" lon="6.41476">
        <ele>1366</ele>
        <time>2018-02-15T08:00:15Z</time>
      </trkpt>
      <trkpt lat="45.47346" lon="6.41479">
        <ele>1367</ele>
        <time>2018-02-15T08:01:15Z</time>
      </trkpt>
      <trkpt lat="45.47371" lon="6.41529">
        <ele>1364</ele>
        <time>2018-02-15T08:02:15Z</time>
      </trkpt>
      <trkpt lat="45.47412" lon="6.4158">
        <ele>1361</ele>
        <time>2018-02-15T08:03:15Z</time>
      </trkpt>
      <trkpt lat="45.47451" lon="6.41625">
        <ele>1356</ele>
        <time>2018-02-15T08:04:15Z</time>
      </trkpt>
      <trkpt lat="45.47468" lon="6.41631">
        <ele>1357</ele>
        <time>2018-02-15T08:05:15Z</time>
      </trkpt>
      <trkpt lat="45.47486" lon="6.41628">
        <ele>1362</ele>
        <time>2018-02-15T08:06:15Z</time>
      </trkpt>
      <trkpt lat="45.47491" lon="6.41625">
        <ele>1363</ele>
        <time>2018-02-15T08:07:15Z</time>
      </trkpt>
      <trkpt lat="45.47502" lon="6.41611">
        <ele>1368</ele>
        <time>2018-02-15T08:08:15Z</time>
      </trkpt>
      <trkpt lat="45.47505" lon="6.41601">
        <ele>1369</ele>
        <time>2018-02-15T08:09:15Z</time>
      </trkpt>
      <trkpt lat="45.47536" lon="6.41424">
        <ele>1386</ele>
        <time>2018-02-15T08:10:15Z</time>
      </trkpt>
      <trkpt lat="45.47543" lon="6.414">
        <ele>1387</ele>
        <time>2018-02-15T08:11:15Z</time>
      </trkpt>
      <trkpt lat="45.47556" lon="6.41383">
        <ele>1384</ele>
        <time>2018-02-15T08:12:15Z</time>
      </trkpt>
      <trkpt lat="45.47577" lon="6.41363">
        <ele>1378</ele>
        <time>2018-02-15T08:13:15Z</time>
      </trkpt>
      <trkpt lat="45.47584" lon="6.41353">
        <ele>1378</ele>
        <time>2018-02-15T08:14:15Z</time>
      </trkpt>
      <trkpt lat="45.47583" lon="6.41342">
        <ele>1380</ele>
        <time>2018-02-15T08:15:15Z</time>
      </trkpt>
      <trkpt lat="45.47579" lon="6.41334">
        <ele>1384</ele>
        <time>2018-02-15T08:16:15Z</time>
      </trkpt>
      <trkpt lat="45.47572" lon="6.41333">
        <ele>1387</ele>
        <time>2018-02-15T08:17:15Z</time>
      </trkpt>
      <trkpt lat="45.47561" lon="6.41342">
        <ele>1389</ele>
        <time>2018-02-15T08:18:15Z</time>
      </trkpt>
      <trkpt lat="45.47546" lon="6.4136">
        <ele>1392</ele>
        <time>2018-02-15T08:19:15Z</time>
      </trkpt>
      <trkpt lat="45.47532" lon="6.41382">
        <ele>1395</ele>
        <time>2018-02-15T08:20:15Z</time>
      </trkpt>
      <trkpt lat="45.47512" lon="6.41422">
        <ele>1399</ele>
        <time>2018-02-15T08:21:15Z</time>
      </trkpt>
      <trkpt lat="45.47498" lon="6.41469">
        <ele>1398</ele>
        <time>2018-02-15T08:22:15Z</time>
      </trkpt>
      <trkpt lat="45.47486" lon="6.41491">
        <ele>1394</ele>
        <time>2018-02-15T08:23:15Z</time>
      </trkpt>
      <trkpt lat="45.47471" lon="6.41506">
        <ele>1389</ele>
        <time>2018-02-15T08:24:15Z</time>
      </trkpt>
      <trkpt lat="45.47461" lon="6.41509">
        <ele>1388</ele>
        <time>2018-02-15T08:25:15Z</time>
      </trkpt>
      <trkpt lat="45.47454" lon="6.41505">
        <ele>1388</ele>
        <time>2018-02-15T08:26:15Z</time>
      </trkpt>
      <trkpt lat="45.47443" lon="6.41485">
        <ele>1391</ele>
        <time>2018-02-15T08:27:15Z</time>
      </trkpt>
      <trkpt lat="45.47438" lon="6.41468">
        <ele>1394</ele>
        <time>2018-02-15T08:28:15Z</time>
      </trkpt>
      <trkpt lat="45.47431" lon="6.41451">
        <ele>1397</ele>
        <time>2018-02-15T08:29:15Z</time>
      </trkpt>
      <trkpt lat="45.47426" lon="6.41431">
        <ele>1400</ele>
        <time>2018-02-15T08:30:15Z</time>
      </trkpt>
      <trkpt lat="45.47424" lon="6.41348">
        <ele>1415</ele>
        <time>2018-02-15T08:31:15Z</time>
      </trkpt>
      <trkpt lat="45.47422" lon="6.41323">
        <ele>1420</ele>
        <time>2018-02-15T08:32:15Z</time>
      </trkpt>
      <trkpt lat="45.47417" lon="6.41303">
        <ele>1425</ele>
        <time>2018-02-15T08:33:15Z</time>
      </trkpt>
      <trkpt lat="45.47408" lon="6.41283">
        <ele>1429</ele>
        <time>2018-02-15T08:34:15Z</time>
      </trkpt>
      <trkpt lat="45.47392" lon="6.41257">
        <ele>1432</ele>
        <time>2018-02-15T08:35:15Z</time>
      </trkpt>
      <trkpt lat="45.47382" lon="6.41233">
        <ele>1437</ele>
        <time>2018-02-15T08:36:15Z</time>
      </trkpt>
      <trkpt lat="45.47373" lon="6.41196">
        <ele>1446</ele>
        <time>2018-02-15T08:37:15Z</time>
      </trkpt>
      <trkpt lat="45.47367" lon="6.41183">
        <ele>1448</ele>
        <time>2018-02-15T08:38:15Z</time>
      </trkpt>
      <trkpt lat="45.47363" lon="6.4118">
        <ele>1448</ele>
        <time>2018-02-15T08:39:15Z</time>
      </trkpt>
      <trkpt lat="45.47357" lon="6.41178">
        <ele>1447</ele>
        <time>2018-02-15T08:40:15Z</time>
      </trkpt>
      <trkpt lat="45.47349" lon="6.41181">
        <ele>1445</ele>
        <time>2018-02-15T08:41:15Z</time>
      </trkpt>
      <trkpt lat="45.47319" lon="6.41205">
        <ele>1434</ele>
        <time>2018-02-15T08:42:15Z</time>
      </trkpt>
      <trkpt lat="45.47309" lon="6.41205">
        <ele>1433</ele>
        <time>2018-02-15T08:43:15Z</time>
      </trkpt>
      <trkpt lat="45.47296" lon="6.41198">
        <ele>1434</ele>
        <time>2018-02-15T08:44:15Z</time>
      </trkpt>
      <trkpt lat="45.47282" lon="6.41185">
        <ele>1437</ele>
        <time>2018-02-15T08:45:15Z</time>
      </trkpt>
      <trkpt lat="45.47203" lon="6.41063">
        <ele>1455</ele>
        <time>2018-02-15T08:46:15Z</time>
      </trkpt>
      <trkpt lat="45.47198" lon="6.41049">
        <ele>1457</ele>
        <time>2018-02-15T08:47:15Z</time>
      </trkpt>
      <trkpt lat="45.47192" lon="6.41004">
        <ele>1467</ele>
        <time>2018-02-15T08:48:15Z</time>
      </trkpt>
      <trkpt lat="45.47163" lon="6.40952">
        <ele>1473</ele>
        <time>2018-02-15T08:49:15Z</time>
      </trkpt>
      <trkpt lat="45.47143" lon="6.40935">
        <ele>1471</ele>
        <time>2018-02-15T08:50:15Z</time>
      </trkpt>
      <trkpt lat="45.47128" lon="6.40931">
        <ele>1467</ele>
        <time>2018-02-15T08:51:15Z</time>
      </trkpt>
      <trkpt lat="45.47114" lon="6.40923">
        <ele>1465</ele>
        <time>2018-02-15T08:52:15Z</time>
      </trkpt>
      <trkpt lat="45.47109" lon="6.40917">
        <ele>1465</ele>
        <time>2018-02-15T08:53:15Z</time>
      </trkpt>
      <trkpt lat="45.47106" lon="6.40908">
        <ele>1467</ele>
        <time>2018-02-15T08:54:15Z</time>
      </trkpt>
      <trkpt lat="45.47103" lon="6.40882">
        <ele>1475</ele>
        <time>2018-02-15T08:55:15Z</time>
      </trkpt>
      <trkpt lat="45.47103" lon="6.40855">
        <ele>1485</ele>
        <time>2018-02-15T08:56:15Z</time>
      </trkpt>
      <trkpt lat="45.47098" lon="6.40841">
        <ele>1489</ele>
        <time>2018-02-15T08:57:15Z</time>
      </trkpt>
      <trkpt lat="45.47091" lon="6.40831">
        <ele>1490</ele>
        <time>2018-02-15T08:58:15Z</time>
      </trkpt>
      <trkpt lat="45.47071" lon="6.40823">
        <ele>1488</ele>
        <time>2018-02-15T08:59:15Z</time>
      </trkpt>
      <trkpt lat="45.47043" lon="6.4082">
        <ele>1482</ele>
        <time>2018-02-15T09:00:15Z</time>
      </trkpt>
      <trkpt lat="45.47031" lon="6.40811">
        <ele>1481</ele>
        <time>2018-02-15T09:01:15Z</time>
      </trkpt>
      <trkpt lat="45.47002" lon="6.40778">
        <ele>1482</ele>
        <time>2018-02-15T09:02:15Z</time>
      </trkpt>
      <trkpt lat="45.46982" lon="6.40724">
        <ele>1487</ele>
        <time>2018-02-15T09:03:15Z</time>
      </trkpt>
      <trkpt lat="45.46969" lon="6.40661">
        <ele>1496</ele>
        <time>2018-02-15T09:04:15Z</time>
      </trkpt>
      <trkpt lat="45.46949" lon="6.40594">
        <ele>1503</ele>
        <time>2018-02-15T09:05:15Z</time>
      </trkpt>
      <trkpt lat="45.46944" lon="6.40558">
        <ele>1504</ele>
        <time>2018-02-15T09:06:15Z</time>
      </trkpt>
      <trkpt lat="45.46945" lon="6.40521">
        <ele>1507</ele>
        <time>2018-02-15T09:07:15Z</time>
      </trkpt>
      <trkpt lat="45.46972" lon="6.40425">
        <ele>1524</ele>
        <time>2018-02-15T09:08:15Z</time>
      </trkpt>
      <trkpt lat="45.46979" lon="6.40387">
        <ele>1529</ele>
        <time>2018-02-15T09:09:15Z</time>
      </trkpt>
      <trkpt lat="45.46975" lon="6.40359">
        <ele>1528</ele>
        <time>2018-02-15T09:10:15Z</time>
      </trkpt>
      <trkpt lat="45.46967" lon="6.4034">
        <ele>1524</ele>
        <time>2018-02-15T09:11:15Z</time>
      </trkpt>
      <trkpt lat="45.46966" lon="6.4031">
        <ele>1523</ele>
        <time>2018-02-15T09:12:15Z</time>
      </trkpt>
      <trkpt lat="45.46973" lon="6.40272">
        <ele>1526</ele>
        <time>2018-02-15T09:13:15Z</time>
      </trkpt>
      <trkpt lat="45.46998" lon="6.40204">
        <ele>1536</ele>
        <time>2018-02-15T09:14:15Z</time>
      </trkpt>
      <trkpt lat="45.47014" lon="6.40124">
        <ele>1549</ele>
        <time>2018-02-15T09:15:15Z</time>
      </trkpt>
      <trkpt lat="45.47016" lon="6.40108">
        <ele>1551</ele>
        <time>2018-02-15T09:16:15Z</time>
      </trkpt>
      <trkpt lat="45.47012" lon="6.40087">
        <ele>1552</ele>
        <time>2018-02-15T09:17:15Z</time>
      </trkpt>
      <trkpt lat="45.47006" lon="6.40068">
        <ele>1554</ele>
        <time>2018-02-15T09:18:15Z</time>
      </trkpt>
      <trkpt lat="45.46987" lon="6.40028">
        <ele>1565</ele>
        <time>2018-02-15T09:19:15Z</time>
      </trkpt>
      <trkpt lat="45.46979" lon="6.40022">
        <ele>1567</ele>
        <time>2018-02-15T09:20:15Z</time>
      </trkpt>
      <trkpt lat="45.46972" lon="6.40022">
        <ele>1567</ele>
        <time>2018-02-15T09:21:15Z</time>
      </trkpt>
      <trkpt lat="45.4677" lon="6.40128">
        <ele>1564</ele>
        <time>2018-02-15T09:22:15Z</time>
      </trkpt>
      <trkpt lat="45.46739" lon="6.4013">
        <ele>1572</ele>
        <time>2018-02-15T09:23:15Z</time>
      </trkpt>
      <trkpt lat="45.46711" lon="6.40135">
        <ele>1579</ele>
        <time>2018-02-15T09:24:15Z</time>
      </trkpt>
      <trkpt lat="45.46687" lon="6.40151">
        <ele>1578</ele>
        <time>2018-02-15T09:25:15Z</time>
      </trkpt>
      <trkpt lat="45.4667" lon="6.40178">
        <ele>1571</ele>
        <time>2018-02-15T09:26:15Z</time>
      </trkpt>
      <trkpt lat="45.46649" lon="6.40196">
        <ele>1571</ele>
        <time>2018-02-15T09:27:15Z</time>
      </trkpt>
      <trkpt lat="45.46624" lon="6.40209">
        <ele>1573</ele>
        <time>2018-02-15T09:28:15Z</time>
      </trkpt>
      <trkpt lat="45.46599" lon="6.40226">
        <ele>1573</ele>
        <time>2018-02-15T09:29:15Z</time>
      </trkpt>
      <trkpt lat="45.4658" lon="6.40235">
        <ele>1573</ele>
        <time>2018-02-15T09:30:15Z</time>
      </trkpt>
      <trkpt lat="45.46552" lon="6.40237">
        <ele>1571</ele>
        <time>2018-02-15T09:31:15Z</time>
      </trkpt>
      <trkpt lat="45.46525" lon="6.40234">
        <ele>1571</ele>
        <time>2018-02-15T09:32:15Z</time>
      </trkpt>
      <trkpt lat="45.4647" lon="6.40205">
        <ele>1580</ele>
        <time>2018-02-15T09:33:15Z</time>
      </trkpt>
      <trkpt lat="45.46439" lon="6.4019">
        <ele>1582</ele>
        <time>2018-02-15T09:34:15Z</time>
      </trkpt>
      <trkpt lat="45.46399" lon="6.40185">
        <ele>1579</ele>
        <time>2018-02-15T09:35:15Z</time>
      </trkpt>
      <trkpt lat="45.46359" lon="6.40173">
        <ele>1580</ele>
        <time>2018-02-15T09:36:15Z</time>
      </trkpt>
      <trkpt lat="45.4625" lon="6.40105">
        <ele>1588</ele>
        <time>2018-02-15T09:37:15Z</time>
      </trkpt>
      <trkpt lat="45.46086" lon="6.39982">
        <ele>1596</ele>
        <time>2018-02-15T09:38:15Z</time>
      </trkpt>
      <trkpt lat="45.45919" lon="6.39841">
        <ele>1602</ele>
        <time>2018-02-15T09:39:15Z</time>
      </trkpt>
      <trkpt lat="45.45871" lon="6.39775">
        <ele>1604</ele>
        <time>2018-02-15T09:40:15Z</time>
      </trkpt>
      <trkpt lat="45.45831" lon="6.39702">
        <ele>1602</ele>
        <time>2018-02-15T09:41:15Z</time>
      </trkpt>
      <trkpt lat="45.45816" lon="6.39683">
        <ele>1601</ele>
        <time>2018-02-15T09:42:15Z</time>
      </trkpt>
      <trkpt lat="45.45782" lon="6.39663">
        <ele>1595</ele>
        <time>2018-02-15T09:43:15Z</time>
      </trkpt>
      <trkpt lat="45.45757" lon="6.39643">
        <ele>1590</ele>
        <time>2018-02-15T09:44:15Z</time>
      </trkpt>
      <trkpt lat="45.45747" lon="6.39629">
        <ele>1588</ele>
        <time>2018-02-15T09:45:15Z</time>
      </trkpt>
      <trkpt lat="45.4574" lon="6.39611">
        <ele>1589</ele>
        <time>2018-02-15T09:46:15Z</time>
      </trkpt>
      <trkpt lat="45.45728" lon="6.39555">
        <ele>1594</ele>
        <time>2018-02-15T09:47:15Z</time>
      </trkpt>
      <trkpt lat="45.45722" lon="6.39477">
        <ele>1608</ele>
        <time>2018-02-15T09:48:15Z</time>
      </trkpt>
      <trkpt lat="45.45714" lon="6.39444">
        <ele>1615</ele>
        <time>2018-02-15T09:49:15Z</time>
      </trkpt>
      <trkpt lat="45.45704" lon="6.39424">
        <ele>1620</ele>
        <time>2018-02-15T09:50:15Z</time>
      </trkpt>
      <trkpt lat="45.45686" lon="6.39402">
        <ele>1625</ele>
        <time>2018-02-15T09:51:15Z</time>
      </trkpt>
      <trkpt lat="45.45671" lon="6.39399">
        <ele>1624</ele>
        <time>2018-02-15T09:52:15Z</time>
      </trkpt>
      <trkpt lat="45.4566" lon="6.39403">
        <ele>1625</ele>
        <time>2018-02-15T09:53:15Z</time>
      </trkpt>
      <trkpt lat="45.45646" lon="6.39417">
        <ele>1623</ele>
        <time>2018-02-15T09:54:15Z</time>
      </trkpt>
      <trkpt lat="45.45589" lon="6.39508">
        <ele>1617</ele>
        <time>2018-02-15T09:55:15Z</time>
      </trkpt>
      <trkpt lat="45.45548" lon="6.39568">
        <ele>1615</ele>
        <time>2018-02-15T09:56:15Z</time>
      </trkpt>
      <trkpt lat="45.45503" lon="6.39626">
        <ele>1616</ele>
        <time>2018-02-15T09:57:15Z</time>
      </trkpt>
      <trkpt lat="45.4546" lon="6.39663">
        <ele>1619</ele>
        <time>2018-02-15T09:58:15Z</time>
      </trkpt>
      <trkpt lat="45.45398" lon="6.39712">
        <ele>1620</ele>
        <time>2018-02-15T09:59:15Z</time>
      </trkpt>
      <trkpt lat="45.45363" lon="6.39727">
        <ele>1621</ele>
        <time>2018-02-15T10:00:15Z</time>
      </trkpt>
      <trkpt lat="45.45332" lon="6.39736">
        <ele>1623</ele>
        <time>2018-02-15T10:01:15Z</time>
      </trkpt>
      <trkpt lat="45.45291" lon="6.39738">
        <ele>1625</ele>
        <time>2018-02-15T10:02:15Z</time>
      </trkpt>
      <trkpt lat="45.45199" lon="6.39723">
        <ele>1630</ele>
        <time>2018-02-15T10:03:15Z</time>
      </trkpt>
      <trkpt lat="45.45092" lon="6.3969">
        <ele>1631</ele>
        <time>2018-02-15T10:04:15Z</time>
      </trkpt>
      <trkpt lat="45.4503" lon="6.3966">
        <ele>1635</ele>
        <time>2018-02-15T10:05:15Z</time>
      </trkpt>
      <trkpt lat="45.44999" lon="6.39644">
        <ele>1638</ele>
        <time>2018-02-15T10:06:15Z</time>
      </trkpt>
      <trkpt lat="45.44973" lon="6.39626">
        <ele>1641</ele>
        <time>2018-02-15T10:07:15Z</time>
      </trkpt>
      <trkpt lat="45.44855" lon="6.39526">
        <ele>1657</ele>
        <time>2018-02-15T10:08:15Z</time>
      </trkpt>
      <trkpt lat="45.44791" lon="6.39468">
        <ele>1665</ele>
        <time>2018-02-15T10:09:15Z</time>
      </trkpt>
      <trkpt lat="45.44728" lon="6.394">
        <ele>1670</ele>
        <time>2018-02-15T10:10:15Z</time>
      </trkpt>
      <trkpt lat="45.44607" lon="6.39224">
        <ele>1687</ele>
        <time>2018-02-15T10:11:15Z</time>
      </trkpt>
      <trkpt lat="45.44574" lon="6.39165">
        <ele>1691</ele>
        <time>2018-02-15T10:12:15Z</time>
      </trkpt>
      <trkpt lat="45.44568" lon="6.39145">
        <ele>1693</ele>
        <time>2018-02-15T10:13:15Z</time>
      </trkpt>
      <trkpt lat="45.44554" lon="6.3903">
        <ele>1707</ele>
        <time>2018-02-15T10:14:15Z</time>
      </trkpt>
      <trkpt lat="45.44546" lon="6.38986">
        <ele>1711</ele>
        <time>2018-02-15T10:15:15Z</time>
      </trkpt>
      <trkpt lat="45.44537" lon="6.38961">
        <ele>1712</ele>
        <time>2018-02-15T10:16:15Z</time>
      </trkpt>
      <trkpt lat="45.44487" lon="6.38824">
        <ele>1721</ele>
        <time>2018-02-15T10:17:15Z</time>
      </trkpt>
      <trkpt lat="45.44481" lon="6.38806">
        <ele>1722</ele>
        <time>2018-02-15T10:18:15Z</time>
      </trkpt>
      <trkpt lat="45.44476" lon="6.38785">
        <ele>1724</ele>
        <time>2018-02-15T10:19:15Z</time>
      </trkpt>
      <trkpt lat="45.44459" lon="6.38698">
        <ele>1730</ele>
        <time>2018-02-15T10:20:15Z</time>
      </trkpt>
      <trkpt lat="45.44453" lon="6.38632">
        <ele>1736</ele>
        <time>2018-02-15T10:21:15Z</time>
      </trkpt>
      <trkpt lat="45.4445" lon="6.38448">
        <ele>1749</ele>
        <time>2018-02-15T10:22:15Z</time>
      </trkpt>
      <trkpt lat="45.44443" lon="6.38278">
        <ele>1762</ele>
        <time>2018-02-15T10:23:15Z</time>
      </trkpt>
      <trkpt lat="45.44441" lon="6.3826">
        <ele>1764</ele>
        <time>2018-02-15T10:24:15Z</time>
      </trkpt>
      <trkpt lat="45.44436" lon="6.38237">
        <ele>1765</ele>
        <time>2018-02-15T10:25:15Z</time>
      </trkpt>
      <trkpt lat="45.44426" lon="6.38207">
        <ele>1767</ele>
        <time>2018-02-15T10:26:15Z</time>
      </trkpt>
      <trkpt lat="45.44419" lon="6.38192">
        <ele>1768</ele>
        <time>2018-02-15T10:27:15Z</time>
      </trkpt>
      <trkpt lat="45.4441" lon="6.38176">
        <ele>1770</ele>
        <time>2018-02-15T10:28:15Z</time>
      </trkpt>
      <trkpt lat="45.44393" lon="6.38153">
        <ele>1775</ele>
        <time>2018-02-15T10:29:15Z</time>
      </trkpt>
      <trkpt lat="45.44386" lon="6.38146">
        <ele>1777</ele>
        <time>2018-02-15T10:30:15Z</time>
      </trkpt>
      <trkpt lat="45.44365" lon="6.38136">
        <ele>1779</ele>
        <time>2018-02-15T10:31:15Z</time>
      </trkpt>
      <trkpt lat="45.44328" lon="6.38129">
        <ele>1782</ele>
        <time>2018-02-15T10:32:15Z</time>
      </trkpt>
      <trkpt lat="45.44308" lon="6.3813">
        <ele>1786</ele>
        <time>2018-02-15T10:33:15Z</time>
      </trkpt>
      <trkpt lat="45.44299" lon="6.38133">
        <ele>1787</ele>
        <time>2018-02-15T10:34:15Z</time>
      </trkpt>
      <trkpt lat="45.44255" lon="6.38155">
        <ele>1791</ele>
        <time>2018-02-15T10:35:15Z</time>
      </trkpt>
      <trkpt lat="45.44241" lon="6.38163">
        <ele>1793</ele>
        <time>2018-02-15T10:36:15Z</time>
      </trkpt>
      <trkpt lat="45.44225" lon="6.38179">
        <ele>1794</ele>
        <time>2018-02-15T10:37:15Z</time>
      </trkpt>
      <trkpt lat="45.44213" lon="6.38209">
        <ele>1792</ele>
        <time>2018-02-15T10:38:15Z</time>
      </trkpt>
      <trkpt lat="45.44207" lon="6.38219">
        <ele>1792</ele>
        <time>2018-02-15T10:39:15Z</time>
      </trkpt>
      <trkpt lat="45.44202" lon="6.38222">
        <ele>1793</ele>
        <time>2018-02-15T10:40:15Z</time>
      </trkpt>
      <trkpt lat="45.44196" lon="6.3822">
        <ele>1795</ele>
        <time>2018-02-15T10:41:15Z</time>
      </trkpt>
      <trkpt lat="45.44192" lon="6.38213">
        <ele>1797</ele>
        <time>2018-02-15T10:42:15Z</time>
      </trkpt>
      <trkpt lat="45.44192" lon="6.382">
        <ele>1798</ele>
        <time>2018-02-15T10:43:15Z</time>
      </trkpt>
      <trkpt lat="45.44212" lon="6.38133">
        <ele>1804</ele>
        <time>2018-02-15T10:44:15Z</time>
      </trkpt>
      <trkpt lat="45.44227" lon="6.38105">
        <ele>1805</ele>
        <time>2018-02-15T10:45:15Z</time>
      </trkpt>
      <trkpt lat="45.44267" lon="6.38053">
        <ele>1807</ele>
        <time>2018-02-15T10:46:15Z</time>
      </trkpt>
      <trkpt lat="45.44289" lon="6.38018">
        <ele>1811</ele>
        <time>2018-02-15T10:47:15Z</time>
      </trkpt>
      <trkpt lat="45.44296" lon="6.38009">
        <ele>1812</ele>
        <time>2018-02-15T10:48:15Z</time>
      </trkpt>
      <trkpt lat="45.4436" lon="6.37961">
        <ele>1820</ele>
        <time>2018-02-15T10:49:15Z</time>
      </trkpt>
      <trkpt lat="45.44381" lon="6.3795">
        <ele>1824</ele>
        <time>2018-02-15T10:50:15Z</time>
      </trkpt>
      <trkpt lat="45.44442" lon="6.37932">
        <ele>1832</ele>
        <time>2018-02-15T10:51:15Z</time>
      </trkpt>
      <trkpt lat="45.4446" lon="6.37928">
        <ele>1834</ele>
        <time>2018-02-15T10:52:15Z</time>
      </trkpt>
      <trkpt lat="45.4448" lon="6.37928">
        <ele>1836</ele>
        <time>2018-02-15T10:53:15Z</time>
      </trkpt>
      <trkpt lat="45.44503" lon="6.37935">
        <ele>1836</ele>
        <time>2018-02-15T10:54:15Z</time>
      </trkpt>
      <trkpt lat="45.44536" lon="6.3796">
        <ele>1840</ele>
        <time>2018-02-15T10:55:15Z</time>
      </trkpt>
      <trkpt lat="45.44565" lon="6.37996">
        <ele>1841</ele>
        <time>2018-02-15T10:56:15Z</time>
      </trkpt>
      <trkpt lat="45.4461" lon="6.38061">
        <ele>1849</ele>
        <time>2018-02-15T10:57:15Z</time>
      </trkpt>
      <trkpt lat="45.44615" lon="6.38065">
        <ele>1851</ele>
        <time>2018-02-15T10:58:15Z</time>
      </trkpt>
      <trkpt lat="45.44622" lon="6.38065">
        <ele>1854</ele>
        <time>2018-02-15T10:59:15Z</time>
      </trkpt>
      <trkpt lat="45.44628" lon="6.3806">
        <ele>1858</ele>
        <time>2018-02-15T11:00:15Z</time>
      </trkpt>
      <trkpt lat="45.44629" lon="6.38052">
        <ele>1860</ele>
        <time>2018-02-15T11:01:15Z</time>
      </trkpt>
      <trkpt lat="45.44626" lon="6.38039">
        <ele>1861</ele>
        <time>2018-02-15T11:02:15Z</time>
      </trkpt>
      <trkpt lat="45.44601" lon="6.37998">
        <ele>1855</ele>
        <time>2018-02-15T11:03:15Z</time>
      </trkpt>
      <trkpt lat="45.44596" lon="6.37987">
        <ele>1855</ele>
        <time>2018-02-15T11:04:15Z</time>
      </trkpt>
      <trkpt lat="45.44566" lon="6.37901">
        <ele>1863</ele>
        <time>2018-02-15T11:05:15Z</time>
      </trkpt>
      <trkpt lat="45.44559" lon="6.37885">
        <ele>1866</ele>
        <time>2018-02-15T11:06:15Z</time>
      </trkpt>
      <trkpt lat="45.44547" lon="6.37868">
        <ele>1868</ele>
        <time>2018-02-15T11:07:15Z</time>
      </trkpt>
      <trkpt lat="45.44534" lon="6.37858">
        <ele>1870</ele>
        <time>2018-02-15T11:08:15Z</time>
      </trkpt>
      <trkpt lat="45.44524" lon="6.37853">
        <ele>1870</ele>
        <time>2018-02-15T11:09:15Z</time>
      </trkpt>
      <trkpt lat="45.44428" lon="6.37832">
        <ele>1874</ele>
        <time>2018-02-15T11:10:15Z</time>
      </trkpt>
      <trkpt lat="45.44404" lon="6.37818">
        <ele>1881</ele>
        <time>2018-02-15T11:11:15Z</time>
      </trkpt>
      <trkpt lat="45.44357" lon="6.37783">
        <ele>1893</ele>
        <time>2018-02-15T11:12:15Z</time>
      </trkpt>
      <trkpt lat="45.44334" lon="6.3777">
        <ele>1895</ele>
        <time>2018-02-15T11:13:15Z</time>
      </trkpt>
      <trkpt lat="45.44294" lon="6.37759">
        <ele>1903</ele>
        <time>2018-02-15T11:14:15Z</time>
      </trkpt>
      <trkpt lat="45.44277" lon="6.37759">
        <ele>1904</ele>
        <time>2018-02-15T11:15:15Z</time>
      </trkpt>
      <trkpt lat="45.44263" lon="6.37764">
        <ele>1903</ele>
        <time>2018-02-15T11:16:15Z</time>
      </trkpt>
      <trkpt lat="45.44232" lon="6.37785">
        <ele>1901</ele>
        <time>2018-02-15T11:17:15Z</time>
      </trkpt>
      <trkpt lat="45.44212" lon="6.37795">
        <ele>1903</ele>
        <time>2018-02-15T11:18:15Z</time>
      </trkpt>
      <trkpt lat="45.44176" lon="6.37829">
        <ele>1903</ele>
        <time>2018-02-15T11:19:15Z</time>
      </trkpt>
      <trkpt lat="45.44163" lon="6.37839">
        <ele>1904</ele>
        <time>2018-02-15T11:20:15Z</time>
      </trkpt>
      <trkpt lat="45.44139" lon="6.37853">
        <ele>1904</ele>
        <time>2018-02-15T11:21:15Z</time>
      </trkpt>
      <trkpt lat="45.44125" lon="6.37868">
        <ele>1903</ele>
        <time>2018-02-15T11:22:15Z</time>
      </trkpt>
      <trkpt lat="45.44116" lon="6.3787">
        <ele>1904</ele>
        <time>2018-02-15T11:23:15Z</time>
      </trkpt>
      <trkpt lat="45.44114" lon="6.37867">
        <ele>1905</ele>
        <time>2018-02-15T11:24:15Z</time>
      </trkpt>
      <trkpt lat="45.44112" lon="6.3786">
        <ele>1908</ele>
        <time>2018-02-15T11:25:15Z</time>
      </trkpt>
      <trkpt lat="45.44113" lon="6.37851">
        <ele>1911</ele>
        <time>2018-02-15T11:26:15Z</time>
      </trkpt>
      <trkpt lat="45.44115" lon="6.37848">
        <ele>1911</ele>
        <time>2018-02-15T11:27:15Z</time>
      </trkpt>
      <trkpt lat="45.44133" lon="6.37832">
        <ele>1913</ele>
        <time>2018-02-15T11:28:15Z</time>
      </trkpt>
      <trkpt lat="45.44145" lon="6.37819">
        <ele>1913</ele>
        <time>2018-02-15T11:29:15Z</time>
      </trkpt>
      <trkpt lat="45.4418" lon="6.37761">
        <ele>1921</ele>
        <time>2018-02-15T11:30:15Z</time>
      </trkpt>
      <trkpt lat="45.4419" lon="6.37749">
        <ele>1922</ele>
        <time>2018-02-15T11:31:15Z</time>
      </trkpt>
      <trkpt lat="45.44218" lon="6.37731">
        <ele>1922</ele>
        <time>2018-02-15T11:32:15Z</time>
      </trkpt>
      <trkpt lat="45.44221" lon="6.37721">
        <ele>1925</ele>
        <time>2018-02-15T11:33:15Z</time>
      </trkpt>
      <trkpt lat="45.4422" lon="6.37714">
        <ele>1927</ele>
        <time>2018-02-15T11:34:15Z</time>
      </trkpt>
      <trkpt lat="45.44218" lon="6.37708">
        <ele>1929</ele>
        <time>2018-02-15T11:35:15Z</time>
      </trkpt>
      <trkpt lat="45.44212" lon="6.37705">
        <ele>1931</ele>
        <time>2018-02-15T11:36:15Z</time>
      </trkpt>
      <trkpt lat="45.44203" lon="6.37708">
        <ele>1931</ele>
        <time>2018-02-15T11:37:15Z</time>
      </trkpt>
      <trkpt lat="45.44182" lon="6.37725">
        <ele>1929</ele>
        <time>2018-02-15T11:38:15Z</time>
      </trkpt>
      <trkpt lat="45.4414" lon="6.37753">
        <ele>1931</ele>
        <time>2018-02-15T11:39:15Z</time>
      </trkpt>
      <trkpt lat="45.44036" lon="6.37818">
        <ele>1942</ele>
        <time>2018-02-15T11:40:15Z</time>
      </trkpt>
      <trkpt lat="45.44028" lon="6.37827">
        <ele>1943</ele>
        <time>2018-02-15T11:41:15Z</time>
      </trkpt>
      <trkpt lat="45.44009" lon="6.37863">
        <ele>1943</ele>
        <time>2018-02-15T11:42:15Z</time>
      </trkpt>
      <trkpt lat="45.43989" lon="6.37892">
        <ele>1943</ele>
        <time>2018-02-15T11:43:15Z</time>
      </trkpt>
      <trkpt lat="45.43968" lon="6.379">
        <ele>1944</ele>
        <time>2018-02-15T11:44:15Z</time>
      </trkpt>
      <trkpt lat="45.43953" lon="6.37902">
        <ele>1945</ele>
        <time>2018-02-15T11:45:15Z</time>
      </trkpt>
      <trkpt lat="45.43941" lon="6.379">
        <ele>1946</ele>
        <time>2018-02-15T11:46:15Z</time>
      </trkpt>
      <trkpt lat="45.43921" lon="6.37893">
        <ele>1950</ele>
        <time>2018-02-15T11:47:15Z</time>
      </trkpt>
      <trkpt lat="45.43882" lon="6.37863">
        <ele>1957</ele>
        <time>2018-02-15T11:48:15Z</time>
      </trkpt>
      <trkpt lat="45.43861" lon="6.37844">
        <ele>1960</ele>
        <time>2018-02-15T11:49:15Z</time>
      </trkpt>
      <trkpt lat="45.43828" lon="6.37805">
        <ele>1965</ele>
        <time>2018-02-15T11:50:15Z</time>
      </trkpt>
      <trkpt lat="45.43811" lon="6.37773">
        <ele>1968</ele>
        <time>2018-02-15T11:51:15Z</time>
      </trkpt>
      <trkpt lat="45.43807" lon="6.3776">
        <ele>1970</ele>
        <time>2018-02-15T11:52:15Z</time>
      </trkpt>
      <trkpt lat="45.43807" lon="6.37743">
        <ele>1972</ele>
        <time>2018-02-15T11:53:15Z</time>
      </trkpt>
      <trkpt lat="45.43812" lon="6.37736">
        <ele>1974</ele>
        <time>2018-02-15T11:54:15Z</time>
      </trkpt>
      <trkpt lat="45.43819" lon="6.37736">
        <ele>1975</ele>
        <time>2018-02-15T11:55:15Z</time>
      </trkpt>
      <trkpt lat="45.43825" lon="6.37739">
        <ele>1975</ele>
        <time>2018-02-15T11:56:15Z</time>
      </trkpt>
      <trkpt lat="45.43884" lon="6.3781">
        <ele>1966</ele>
        <time>2018-02-15T11:57:15Z</time>
      </trkpt>
      <trkpt lat="45.43894" lon="6.37817">
        <ele>1965</ele>
        <time>2018-02-15T11:58:15Z</time>
      </trkpt>
      <trkpt lat="45.43901" lon="6.37817">
        <ele>1965</ele>
        <time>2018-02-15T11:59:15Z</time>
      </trkpt>
      <trkpt lat="45.43909" lon="6.37814">
        <ele>1966</ele>
        <time>2018-02-15T12:00:15Z</time>
      </trkpt>
      <trkpt lat="45.43912" lon="6.37806">
        <ele>1968</ele>
        <time>2018-02-15T12:01:15Z</time>
      </trkpt>
      <trkpt lat="45.43911" lon="6.37797">
        <ele>1969</ele>
        <time>2018-02-15T12:02:15Z</time>
      </trkpt>
      <trkpt lat="45.43906" lon="6.37788">
        <ele>1971</ele>
        <time>2018-02-15T12:03:15Z</time>
      </trkpt>
      <trkpt lat="45.43826" lon="6.377">
        <ele>1983</ele>
        <time>2018-02-15T12:04:15Z</time>
      </trkpt>
      <trkpt lat="45.43724" lon="6.37594">
        <ele>1991</ele>
        <time>2018-02-15T12:05:15Z</time>
      </trkpt>
      <trkpt lat="45.43724" lon="6.37594">
        <ele>1991</ele>
        <time>2018-02-15T12:06:15Z</time>
      </trkpt>
      <trkpt lat="45.43704" lon="6.37573">
        <ele>1993</ele>
        <time>2018-02-15T12:07:15Z</time>
      </trkpt>
      <trkpt lat="45.43684" lon="6.37558">
        <ele>1994</ele>
        <time>2018-02-15T12:08:15Z</time>
      </trkpt>
      <trkpt lat="45.43663" lon="6.37547">
        <ele>1995</ele>
        <time>2018-02-15T12:09:15Z</time>
      </trkpt>
      <trkpt lat="45.43646" lon="6.37543">
        <ele>1996</ele>
        <time>2018-02-15T12:10:15Z</time>
      </trkpt>
      <trkpt lat="45.43591" lon="6.37543">
        <ele>1995</ele>
        <time>2018-02-15T12:11:15Z</time>
      </trkpt>
      <trkpt lat="45.43567" lon="6.3755">
        <ele>1994</ele>
        <time>2018-02-15T12:12:15Z</time>
      </trkpt>
      <trkpt lat="45.43553" lon="6.37556">
        <ele>1993</ele>
        <time>2018-02-15T12:13:15Z</time>
      </trkpt>
      <trkpt lat="45.43537" lon="6.37559">
        <ele>1993</ele>
        <time>2018-02-15T12:14:15Z</time>
      </trkpt>
      <trkpt lat="45.43494" lon="6.37557">
        <ele>1991</ele>
        <time>2018-02-15T12:15:15Z</time>
      </trkpt>
      <trkpt lat="45.43423" lon="6.37489">
        <ele>1987</ele>
        <time>2018-02-15T12:16:15Z</time>
      </trkpt>
      <trkpt lat="45.43366" lon="6.3743">
        <ele>1979</ele>
        <time>2018-02-15T12:17:15Z</time>
      </trkpt>
      <trkpt lat="45.43354" lon="6.37399">
        <ele>1977</ele>
        <time>2018-02-15T12:18:15Z</time>
      </trkpt>
      <trkpt lat="45.4334" lon="6.37354">
        <ele>1975</ele>
        <time>2018-02-15T12:19:15Z</time>
      </trkpt>
      <trkpt lat="45.43316" lon="6.37268">
        <ele>1970</ele>
        <time>2018-02-15T12:20:15Z</time>
      </trkpt>
      <trkpt lat="45.43307" lon="6.37247">
        <ele>1969</ele>
        <time>2018-02-15T12:21:15Z</time>
      </trkpt>
      <trkpt lat="45.43287" lon="6.37223">
        <ele>1967</ele>
        <time>2018-02-15T12:22:15Z</time>
      </trkpt>
      <trkpt lat="45.43263" lon="6.3719">
        <ele>1964</ele>
        <time>2018-02-15T12:23:15Z</time>
      </trkpt>
      <trkpt lat="45.43251" lon="6.37165">
        <ele>1963</ele>
        <time>2018-02-15T12:24:15Z</time>
      </trkpt>
      <trkpt lat="45.4324" lon="6.37135">
        <ele>1961</ele>
        <time>2018-02-15T12:25:15Z</time>
      </trkpt>
      <trkpt lat="45.43233" lon="6.37099">
        <ele>1959</ele>
        <time>2018-02-15T12:26:15Z</time>
      </trkpt>
      <trkpt lat="45.43231" lon="6.37062">
        <ele>1957</ele>
        <time>2018-02-15T12:27:15Z</time>
      </trkpt>
      <trkpt lat="45.43238" lon="6.3702">
        <ele>1954</ele>
        <time>2018-02-15T12:28:15Z</time>
      </trkpt>
      <trkpt lat="45.43248" lon="6.36981">
        <ele>1952</ele>
        <time>2018-02-15T12:29:15Z</time>
      </trkpt>
      <trkpt lat="45.43263" lon="6.36951">
        <ele>1950</ele>
        <time>2018-02-15T12:30:15Z</time>
      </trkpt>
      <trkpt lat="45.43294" lon="6.36914">
        <ele>1952</ele>
        <time>2018-02-15T12:31:15Z</time>
      </trkpt>
      <trkpt lat="45.43295" lon="6.369">
        <ele>1952</ele>
        <time>2018-02-15T12:32:15Z</time>
      </trkpt>
      <trkpt lat="45.4329" lon="6.36881">
        <ele>1950</ele>
        <time>2018-02-15T12:33:15Z</time>
      </trkpt>
      <trkpt lat="45.4323" lon="6.36757">
        <ele>1933</ele>
        <time>2018-02-15T12:34:15Z</time>
      </trkpt>
      <trkpt lat="45.43225" lon="6.36729">
        <ele>1931</ele>
        <time>2018-02-15T12:35:15Z</time>
      </trkpt>
      <trkpt lat="45.43226" lon="6.36692">
        <ele>1929</ele>
        <time>2018-02-15T12:36:15Z</time>
      </trkpt>
      <trkpt lat="45.43231" lon="6.36668">
        <ele>1930</ele>
        <time>2018-02-15T12:37:15Z</time>
      </trkpt>
      <trkpt lat="45.43233" lon="6.3664">
        <ele>1930</ele>
        <time>2018-02-15T12:38:15Z</time>
      </trkpt>
      <trkpt lat="45.43214" lon="6.36593">
        <ele>1923</ele>
        <time>2018-02-15T12:39:15Z</time>
      </trkpt>
      <trkpt lat="45.43204" lon="6.36545">
        <ele>1919</ele>
        <time>2018-02-15T12:40:15Z</time>
      </trkpt>
      <trkpt lat="45.43192" lon="6.36478">
        <ele>1914</ele>
        <time>2018-02-15T12:41:15Z</time>
      </trkpt>
      <trkpt lat="45.43181" lon="6.36391">
        <ele>1913</ele>
        <time>2018-02-15T12:42:15Z</time>
      </trkpt>
      <trkpt lat="45.43162" lon="6.36346">
        <ele>1910</ele>
        <time>2018-02-15T12:43:15Z</time>
      </trkpt>
      <trkpt lat="45.43129" lon="6.36312">
        <ele>1905</ele>
        <time>2018-02-15T12:44:15Z</time>
      </trkpt>
      <trkpt lat="45.43106" lon="6.36292">
        <ele>1901</ele>
        <time>2018-02-15T12:45:15Z</time>
      </trkpt>
      <trkpt lat="45.43086" lon="6.36267">
        <ele>1898</ele>
        <time>2018-02-15T12:46:15Z</time>
      </trkpt>
      <trkpt lat="45.43066" lon="6.36225">
        <ele>1896</ele>
        <time>2018-02-15T12:47:15Z</time>
      </trkpt>
      <trkpt lat="45.43059" lon="6.36219">
        <ele>1894</ele>
        <time>2018-02-15T12:48:15Z</time>
      </trkpt>
      <trkpt lat="45.43053" lon="6.36221">
        <ele>1893</ele>
        <time>2018-02-15T12:49:15Z</time>
      </trkpt>
      <trkpt lat="45.43054" lon="6.36242">
        <ele>1891</ele>
        <time>2018-02-15T12:50:15Z</time>
      </trkpt>
      <trkpt lat="45.43105" lon="6.36375">
        <ele>1890</ele>
        <time>2018-02-15T12:51:15Z</time>
      </trkpt>
      <trkpt lat="45.43111" lon="6.36396">
        <ele>1889</ele>
        <time>2018-02-15T12:52:15Z</time>
      </trkpt>
      <trkpt lat="45.4311" lon="6.36417">
        <ele>1886</ele>
        <time>2018-02-15T12:53:15Z</time>
      </trkpt>
      <trkpt lat="45.43089" lon="6.36523">
        <ele>1877</ele>
        <time>2018-02-15T12:54:15Z</time>
      </trkpt>
      <trkpt lat="45.43084" lon="6.36535">
        <ele>1876</ele>
        <time>2018-02-15T12:55:15Z</time>
      </trkpt>
      <trkpt lat="45.42992" lon="6.36614">
        <ele>1863</ele>
        <time>2018-02-15T12:56:15Z</time>
      </trkpt>
      <trkpt lat="45.42917" lon="6.36673">
        <ele>1856</ele>
        <time>2018-02-15T12:57:15Z</time>
      </trkpt>
      <trkpt lat="45.42885" lon="6.36703">
        <ele>1853</ele>
        <time>2018-02-15T12:58:15Z</time>
      </trkpt>
      <trkpt lat="45.42794" lon="6.36778">
        <ele>1841</ele>
        <time>2018-02-15T12:59:15Z</time>
      </trkpt>
      <trkpt lat="45.42759" lon="6.3681">
        <ele>1835</ele>
        <time>2018-02-15T13:00:15Z</time>
      </trkpt>
      <trkpt lat="45.42751" lon="6.36825">
        <ele>1834</ele>
        <time>2018-02-15T13:01:15Z</time>
      </trkpt>
      <trkpt lat="45.4275" lon="6.36846">
        <ele>1836</ele>
        <time>2018-02-15T13:02:15Z</time>
      </trkpt>
      <trkpt lat="45.42747" lon="6.36866">
        <ele>1836</ele>
        <time>2018-02-15T13:03:15Z</time>
      </trkpt>
      <trkpt lat="45.4273" lon="6.3689">
        <ele>1834</ele>
        <time>2018-02-15T13:04:15Z</time>
      </trkpt>
      <trkpt lat="45.42708" lon="6.3691">
        <ele>1830</ele>
        <time>2018-02-15T13:05:15Z</time>
      </trkpt>
      <trkpt lat="45.42682" lon="6.36924">
        <ele>1826</ele>
        <time>2018-02-15T13:06:15Z</time>
      </trkpt>
      <trkpt lat="45.42663" lon="6.36942">
        <ele>1823</ele>
        <time>2018-02-15T13:07:15Z</time>
      </trkpt>
      <trkpt lat="45.42654" lon="6.36958">
        <ele>1821</ele>
        <time>2018-02-15T13:08:15Z</time>
      </trkpt>
      <trkpt lat="45.42627" lon="6.37023">
        <ele>1817</ele>
        <time>2018-02-15T13:09:15Z</time>
      </trkpt>
      <trkpt lat="45.42602" lon="6.37061">
        <ele>1810</ele>
        <time>2018-02-15T13:10:15Z</time>
      </trkpt>
      <trkpt lat="45.42593" lon="6.37091">
        <ele>1807</ele>
        <time>2018-02-15T13:11:15Z</time>
      </trkpt>
      <trkpt lat="45.42594" lon="6.37132">
        <ele>1805</ele>
        <time>2018-02-15T13:12:15Z</time>
      </trkpt>
      <trkpt lat="45.426" lon="6.37162">
        <ele>1805</ele>
        <time>2018-02-15T13:13:15Z</time>
      </trkpt>
      <trkpt lat="45.42617" lon="6.37221">
        <ele>1803</ele>
        <time>2018-02-15T13:14:15Z</time>
      </trkpt>
      <trkpt lat="45.42624" lon="6.37264">
        <ele>1802</ele>
        <time>2018-02-15T13:15:15Z</time>
      </trkpt>
      <trkpt lat="45.42627" lon="6.37298">
        <ele>1802</ele>
        <time>2018-02-15T13:16:15Z</time>
      </trkpt>
      <trkpt lat="45.42627" lon="6.3731">
        <ele>1802</ele>
        <time>2018-02-15T13:17:15Z</time>
      </trkpt>
      <trkpt lat="45.42621" lon="6.37338">
        <ele>1800</ele>
        <time>2018-02-15T13:18:15Z</time>
      </trkpt>
      <trkpt lat="45.42597" lon="6.37402">
        <ele>1796</ele>
        <time>2018-02-15T13:19:15Z</time>
      </trkpt>
      <trkpt lat="45.42586" lon="6.37409">
        <ele>1793</ele>
        <time>2018-02-15T13:20:15Z</time>
      </trkpt>
      <trkpt lat="45.42581" lon="6.37408">
        <ele>1792</ele>
        <time>2018-02-15T13:21:15Z</time>
      </trkpt>
      <trkpt lat="45.42575" lon="6.37405">
        <ele>1791</ele>
        <time>2018-02-15T13:22:15Z</time>
      </trkpt>
      <trkpt lat="45.42568" lon="6.37392">
        <ele>1789</ele>
        <time>2018-02-15T13:23:15Z</time>
      </trkpt>
      <trkpt lat="45.42567" lon="6.37382">
        <ele>1789</ele>
        <time>2018-02-15T13:24:15Z</time>
      </trkpt>
      <trkpt lat="45.42571" lon="6.37366">
        <ele>1789</ele>
        <time>2018-02-15T13:25:15Z</time>
      </trkpt>
      <trkpt lat="45.42587" lon="6.37329">
        <ele>1792</ele>
        <time>2018-02-15T13:26:15Z</time>
      </trkpt>
      <trkpt lat="45.42588" lon="6.37312">
        <ele>1792</ele>
        <time>2018-02-15T13:27:15Z</time>
      </trkpt>
      <trkpt lat="45.4256" lon="6.3726">
        <ele>1786</ele>
        <time>2018-02-15T13:28:15Z</time>
      </trkpt>
      <trkpt lat="45.42548" lon="6.37223">
        <ele>1786</ele>
        <time>2018-02-15T13:29:15Z</time>
      </trkpt>
      <trkpt lat="45.42535" lon="6.37199">
        <ele>1785</ele>
        <time>2018-02-15T13:30:15Z</time>
      </trkpt>
      <trkpt lat="45.4252" lon="6.37166">
        <ele>1783</ele>
        <time>2018-02-15T13:31:15Z</time>
      </trkpt>
      <trkpt lat="45.42495" lon="6.37064">
        <ele>1770</ele>
        <time>2018-02-15T13:32:15Z</time>
      </trkpt>
      <trkpt lat="45.42488" lon="6.37025">
        <ele>1764</ele>
        <time>2018-02-15T13:33:15Z</time>
      </trkpt>
      <trkpt lat="45.42486" lon="6.3699">
        <ele>1762</ele>
        <time>2018-02-15T13:34:15Z</time>
      </trkpt>
      <trkpt lat="45.42487" lon="6.3696">
        <ele>1761</ele>
        <time>2018-02-15T13:35:15Z</time>
      </trkpt>
      <trkpt lat="45.42495" lon="6.3694">
        <ele>1762</ele>
        <time>2018-02-15T13:36:15Z</time>
      </trkpt>
      <trkpt lat="45.42512" lon="6.36919">
        <ele>1768</ele>
        <time>2018-02-15T13:37:15Z</time>
      </trkpt>
      <trkpt lat="45.42519" lon="6.36906">
        <ele>1770</ele>
        <time>2018-02-15T13:38:15Z</time>
      </trkpt>
      <trkpt lat="45.42517" lon="6.3689">
        <ele>1769</ele>
        <time>2018-02-15T13:39:15Z</time>
      </trkpt>
      <trkpt lat="45.42501" lon="6.3686">
        <ele>1764</ele>
        <time>2018-02-15T13:40:15Z</time>
      </trkpt>
      <trkpt lat="45.42464" lon="6.36769">
        <ele>1753</ele>
        <time>2018-02-15T13:41:15Z</time>
      </trkpt>
      <trkpt lat="45.42435" lon="6.36725">
        <ele>1746</ele>
        <time>2018-02-15T13:42:15Z</time>
      </trkpt>
      <trkpt lat="45.42425" lon="6.36701">
        <ele>1743</ele>
        <time>2018-02-15T13:43:15Z</time>
      </trkpt>
      <trkpt lat="45.42413" lon="6.3666">
        <ele>1740</ele>
        <time>2018-02-15T13:44:15Z</time>
      </trkpt>
      <trkpt lat="45.42411" lon="6.36643">
        <ele>1736</ele>
        <time>2018-02-15T13:45:15Z</time>
      </trkpt>
      <trkpt lat="45.42414" lon="6.36626">
        <ele>1735</ele>
        <time>2018-02-15T13:46:15Z</time>
      </trkpt>
      <trkpt lat="45.42421" lon="6.36614">
        <ele>1735</ele>
        <time>2018-02-15T13:47:15Z</time>
      </trkpt>
      <trkpt lat="45.42435" lon="6.36605">
        <ele>1736</ele>
        <time>2018-02-15T13:48:15Z</time>
      </trkpt>
      <trkpt lat="45.42475" lon="6.36602">
        <ele>1741</ele>
        <time>2018-02-15T13:49:15Z</time>
      </trkpt>
      <trkpt lat="45.42482" lon="6.36597">
        <ele>1741</ele>
        <time>2018-02-15T13:50:15Z</time>
      </trkpt>
      <trkpt lat="45.42486" lon="6.36587">
        <ele>1741</ele>
        <time>2018-02-15T13:51:15Z</time>
      </trkpt>
      <trkpt lat="45.42487" lon="6.36575">
        <ele>1739</ele>
        <time>2018-02-15T13:52:15Z</time>
      </trkpt>
      <trkpt lat="45.4248" lon="6.36526">
        <ele>1732</ele>
        <time>2018-02-15T13:53:15Z</time>
      </trkpt>
      <trkpt lat="45.42481" lon="6.36507">
        <ele>1730</ele>
        <time>2018-02-15T13:54:15Z</time>
      </trkpt>
      <trkpt lat="45.42491" lon="6.36489">
        <ele>1729</ele>
        <time>2018-02-15T13:55:15Z</time>
      </trkpt>
      <trkpt lat="45.42503" lon="6.36476">
        <ele>1730</ele>
        <time>2018-02-15T13:56:15Z</time>
      </trkpt>
      <trkpt lat="45.42537" lon="6.36369">
        <ele>1724</ele>
        <time>2018-02-15T13:57:15Z</time>
      </trkpt>
      <trkpt lat="45.42554" lon="6.36296">
        <ele>1724</ele>
        <time>2018-02-15T13:58:15Z</time>
      </trkpt>
      <trkpt lat="45.42551" lon="6.36283">
        <ele>1724</ele>
        <time>2018-02-15T13:59:15Z</time>
      </trkpt>
      <trkpt lat="45.42462" lon="6.36145">
        <ele>1707</ele>
        <time>2018-02-15T14:00:15Z</time>
      </trkpt>
      <trkpt lat="45.42441" lon="6.3612">
        <ele>1705</ele>
        <time>2018-02-15T14:01:15Z</time>
      </trkpt>
      <trkpt lat="45.42403" lon="6.36083">
        <ele>1699</ele>
        <time>2018-02-15T14:02:15Z</time>
      </trkpt>
      <trkpt lat="45.4235" lon="6.3604">
        <ele>1691</ele>
        <time>2018-02-15T14:03:15Z</time>
      </trkpt>
      <trkpt lat="45.42338" lon="6.36021">
        <ele>1691</ele>
        <time>2018-02-15T14:04:15Z</time>
      </trkpt>
      <trkpt lat="45.42332" lon="6.36004">
        <ele>1691</ele>
        <time>2018-02-15T14:05:15Z</time>
      </trkpt>
      <trkpt lat="45.4233" lon="6.35971">
        <ele>1692</ele>
        <time>2018-02-15T14:06:15Z</time>
      </trkpt>
      <trkpt lat="45.42321" lon="6.35954">
        <ele>1690</ele>
        <time>2018-02-15T14:07:15Z</time>
      </trkpt>
      <trkpt lat="45.42313" lon="6.35954">
        <ele>1688</ele>
        <time>2018-02-15T14:08:15Z</time>
      </trkpt>
      <trkpt lat="45.42305" lon="6.35959">
        <ele>1686</ele>
        <time>2018-02-15T14:09:15Z</time>
      </trkpt>
      <trkpt lat="45.42299" lon="6.3597">
        <ele>1685</ele>
        <time>2018-02-15T14:10:15Z</time>
      </trkpt>
      <trkpt lat="45.42298" lon="6.3599">
        <ele>1684</ele>
        <time>2018-02-15T14:11:15Z</time>
      </trkpt>
      <trkpt lat="45.42321" lon="6.36076">
        <ele>1682</ele>
        <time>2018-02-15T14:12:15Z</time>
      </trkpt>
      <trkpt lat="45.42322" lon="6.36096">
        <ele>1680</ele>
        <time>2018-02-15T14:13:15Z</time>
      </trkpt>
      <trkpt lat="45.42318" lon="6.36119">
        <ele>1678</ele>
        <time>2018-02-15T14:14:15Z</time>
      </trkpt>
      <trkpt lat="45.4231" lon="6.36151">
        <ele>1674</ele>
        <time>2018-02-15T14:15:15Z</time>
      </trkpt>
      <trkpt lat="45.42308" lon="6.36169">
        <ele>1672</ele>
        <time>2018-02-15T14:16:15Z</time>
      </trkpt>
      <trkpt lat="45.42312" lon="6.36186">
        <ele>1671</ele>
        <time>2018-02-15T14:17:15Z</time>
      </trkpt>
      <trkpt lat="45.42325" lon="6.36203">
        <ele>1673</ele>
        <time>2018-02-15T14:18:15Z</time>
      </trkpt>
      <trkpt lat="45.42345" lon="6.3622">
        <ele>1675</ele>
        <time>2018-02-15T14:19:15Z</time>
      </trkpt>
      <trkpt lat="45.4235" lon="6.3623">
        <ele>1675</ele>
        <time>2018-02-15T14:20:15Z</time>
      </trkpt>
      <trkpt lat="45.42351" lon="6.36245">
        <ele>1674</ele>
        <time>2018-02-15T14:21:15Z</time>
      </trkpt>
      <trkpt lat="45.42349" lon="6.36255">
        <ele>1674</ele>
        <time>2018-02-15T14:22:15Z</time>
      </trkpt>
      <trkpt lat="45.42339" lon="6.36266">
        <ele>1673</ele>
        <time>2018-02-15T14:23:15Z</time>
      </trkpt>
      <trkpt lat="45.42291" lon="6.36288">
        <ele>1663</ele>
        <time>2018-02-15T14:24:15Z</time>
      </trkpt>
      <trkpt lat="45.42277" lon="6.363">
        <ele>1661</ele>
        <time>2018-02-15T14:25:15Z</time>
      </trkpt>
      <trkpt lat="45.42214" lon="6.36388">
        <ele>1651</ele>
        <time>2018-02-15T14:26:15Z</time>
      </trkpt>
      <trkpt lat="45.42177" lon="6.36446">
        <ele>1642</ele>
        <time>2018-02-15T14:27:15Z</time>
      </trkpt>
      <trkpt lat="45.42172" lon="6.36462">
        <ele>1641</ele>
        <time>2018-02-15T14:28:15Z</time>
      </trkpt>
      <trkpt lat="45.42171" lon="6.36481">
        <ele>1641</ele>
        <time>2018-02-15T14:29:15Z</time>
      </trkpt>
      <trkpt lat="45.42178" lon="6.36538">
        <ele>1645</ele>
        <time>2018-02-15T14:30:15Z</time>
      </trkpt>
      <trkpt lat="45.42177" lon="6.36578">
        <ele>1646</ele>
        <time>2018-02-15T14:31:15Z</time>
      </trkpt>
      <trkpt lat="45.42171" lon="6.36609">
        <ele>1646</ele>
        <time>2018-02-15T14:32:15Z</time>
      </trkpt>
      <trkpt lat="45.42164" lon="6.36616">
        <ele>1645</ele>
        <time>2018-02-15T14:33:15Z</time>
      </trkpt>
      <trkpt lat="45.42153" lon="6.36615">
        <ele>1644</ele>
        <time>2018-02-15T14:34:15Z</time>
      </trkpt>
      <trkpt lat="45.42145" lon="6.36608">
        <ele>1642</ele>
        <time>2018-02-15T14:35:15Z</time>
      </trkpt>
      <trkpt lat="45.42133" lon="6.3659">
        <ele>1638</ele>
        <time>2018-02-15T14:36:15Z</time>
      </trkpt>
      <trkpt lat="45.42122" lon="6.36582">
        <ele>1635</ele>
        <time>2018-02-15T14:37:15Z</time>
      </trkpt>
      <trkpt lat="45.42108" lon="6.36581">
        <ele>1633</ele>
        <time>2018-02-15T14:38:15Z</time>
      </trkpt>
      <trkpt lat="45.42034" lon="6.36603">
        <ele>1631</ele>
        <time>2018-02-15T14:39:15Z</time>
      </trkpt>
      <trkpt lat="45.42016" lon="6.36602">
        <ele>1630</ele>
        <time>2018-02-15T14:40:15Z</time>
      </trkpt>
      <trkpt lat="45.42003" lon="6.36588">
        <ele>1626</ele>
        <time>2018-02-15T14:41:15Z</time>
      </trkpt>
      <trkpt lat="45.41973" lon="6.36532">
        <ele>1619</ele>
        <time>2018-02-15T14:42:15Z</time>
      </trkpt>
      <trkpt lat="45.41963" lon="6.36517">
        <ele>1617</ele>
        <time>2018-02-15T14:43:15Z</time>
      </trkpt>
      <trkpt lat="45.41949" lon="6.36508">
        <ele>1616</ele>
        <time>2018-02-15T14:44:15Z</time>
      </trkpt>
      <trkpt lat="45.41861" lon="6.36498">
        <ele>1611</ele>
        <time>2018-02-15T14:45:15Z</time>
      </trkpt>
      <trkpt lat="45.41849" lon="6.36494">
        <ele>1610</ele>
        <time>2018-02-15T14:46:15Z</time>
      </trkpt>
      <trkpt lat="45.41831" lon="6.36482">
        <ele>1608</ele>
        <time>2018-02-15T14:47:15Z</time>
      </trkpt>
      <trkpt lat="45.4176" lon="6.36416">
        <ele>1599</ele>
        <time>2018-02-15T14:48:15Z</time>
      </trkpt>
      <trkpt lat="45.41749" lon="6.36394">
        <ele>1596</ele>
        <time>2018-02-15T14:49:15Z</time>
      </trkpt>
      <trkpt lat="45.41722" lon="6.36372">
        <ele>1595</ele>
        <time>2018-02-15T14:50:15Z</time>
      </trkpt>
      <trkpt lat="45.41701" lon="6.36346">
        <ele>1592</ele>
        <time>2018-02-15T14:51:15Z</time>
      </trkpt>
      <trkpt lat="45.41681" lon="6.36343">
        <ele>1591</ele>
        <time>2018-02-15T14:52:15Z</time>
      </trkpt>
      <trkpt lat="45.41627" lon="6.36291">
        <ele>1584</ele>
        <time>2018-02-15T14:53:15Z</time>
      </trkpt>
      <trkpt lat="45.41607" lon="6.3628">
        <ele>1582</ele>
        <time>2018-02-15T14:54:15Z</time>
      </trkpt>
      <trkpt lat="45.41601" lon="6.36272">
        <ele>1581</ele>
        <time>2018-02-15T14:55:15Z</time>
      </trkpt>
      <trkpt lat="45.416" lon="6.36261">
        <ele>1579</ele>
        <time>2018-02-15T14:56:15Z</time>
      </trkpt>
      <trkpt lat="45.41606" lon="6.3625">
        <ele>1577</ele>
        <time>2018-02-15T14:57:15Z</time>
      </trkpt>
      <trkpt lat="45.41619" lon="6.36235">
        <ele>1575</ele>
        <time>2018-02-15T14:58:15Z</time>
      </trkpt>
      <trkpt lat="45.41628" lon="6.36231">
        <ele>1574</ele>
        <time>2018-02-15T14:59:15Z</time>
      </trkpt>
      <trkpt lat="45.41656" lon="6.3624">
        <ele>1577</ele>
        <time>2018-02-15T15:00:15Z</time>
      </trkpt>
      <trkpt lat="45.41666" lon="6.36236">
        <ele>1576</ele>
        <time>2018-02-15T15:01:15Z</time>
      </trkpt>
      <trkpt lat="45.41673" lon="6.36228">
        <ele>1576</ele>
        <time>2018-02-15T15:02:15Z</time>
      </trkpt>
      <trkpt lat="45.41677" lon="6.36215">
        <ele>1574</ele>
        <time>2018-02-15T15:03:15Z</time>
      </trkpt>
      <trkpt lat="45.41679" lon="6.36148">
        <ele>1563</ele>
        <time>2018-02-15T15:04:15Z</time>
      </trkpt>
      <trkpt lat="45.41691" lon="6.36112">
        <ele>1559</ele>
        <time>2018-02-15T15:05:15Z</time>
      </trkpt>
      <trkpt lat="45.41702" lon="6.36085">
        <ele>1556</ele>
        <time>2018-02-15T15:06:15Z</time>
      </trkpt>
      <trkpt lat="45.41735" lon="6.36053">
        <ele>1554</ele>
        <time>2018-02-15T15:07:15Z</time>
      </trkpt>
      <trkpt lat="45.41741" lon="6.36039">
        <ele>1552</ele>
        <time>2018-02-15T15:08:15Z</time>
      </trkpt>
      <trkpt lat="45.41742" lon="6.36018">
        <ele>1549</ele>
        <time>2018-02-15T15:09:15Z</time>
      </trkpt>
      <trkpt lat="45.41739" lon="6.36002">
        <ele>1547</ele>
        <time>2018-02-15T15:10:15Z</time>
      </trkpt>
      <trkpt lat="45.41731" lon="6.35989">
        <ele>1544</ele>
        <time>2018-02-15T15:11:15Z</time>
      </trkpt>
      <trkpt lat="45.41721" lon="6.35984">
        <ele>1542</ele>
        <time>2018-02-15T15:12:15Z</time>
      </trkpt>
      <trkpt lat="45.4171" lon="6.35988">
        <ele>1542</ele>
        <time>2018-02-15T15:13:15Z</time>
      </trkpt>
      <trkpt lat="45.41697" lon="6.36001">
        <ele>1544</ele>
        <time>2018-02-15T15:14:15Z</time>
      </trkpt>
      <trkpt lat="45.41681" lon="6.36019">
        <ele>1545</ele>
        <time>2018-02-15T15:15:15Z</time>
      </trkpt>
      <trkpt lat="45.4164" lon="6.36052">
        <ele>1548</ele>
        <time>2018-02-15T15:16:15Z</time>
      </trkpt>
      <trkpt lat="45.41628" lon="6.36074">
        <ele>1550</ele>
        <time>2018-02-15T15:17:15Z</time>
      </trkpt>
      <trkpt lat="45.4162" lon="6.36101">
        <ele>1554</ele>
        <time>2018-02-15T15:18:15Z</time>
      </trkpt>
      <trkpt lat="45.41607" lon="6.36109">
        <ele>1555</ele>
        <time>2018-02-15T15:19:15Z</time>
      </trkpt>
      <trkpt lat="45.41593" lon="6.36094">
        <ele>1552</ele>
        <time>2018-02-15T15:20:15Z</time>
      </trkpt>
      <trkpt lat="45.41589" lon="6.36065">
        <ele>1549</ele>
        <time>2018-02-15T15:21:15Z</time>
      </trkpt>
      <trkpt lat="45.41593" lon="6.36026">
        <ele>1544</ele>
        <time>2018-02-15T15:22:15Z</time>
      </trkpt>
      <trkpt lat="45.41603" lon="6.35992">
        <ele>1540</ele>
        <time>2018-02-15T15:23:15Z</time>
      </trkpt>
      <trkpt lat="45.41609" lon="6.35948">
        <ele>1535</ele>
        <time>2018-02-15T15:24:15Z</time>
      </trkpt>
      <trkpt lat="45.41606" lon="6.35901">
        <ele>1529</ele>
        <time>2018-02-15T15:25:15Z</time>
      </trkpt>
      <trkpt lat="45.41589" lon="6.35846">
        <ele>1524</ele>
        <time>2018-02-15T15:26:15Z</time>
      </trkpt>
      <trkpt lat="45.41572" lon="6.35797">
        <ele>1520</ele>
        <time>2018-02-15T15:27:15Z</time>
      </trkpt>
      <trkpt lat="45.41546" lon="6.35705">
        <ele>1509</ele>
        <time>2018-02-15T15:28:15Z</time>
      </trkpt>
      <trkpt lat="45.41535" lon="6.35679">
        <ele>1505</ele>
        <time>2018-02-15T15:29:15Z</time>
      </trkpt>
      <trkpt lat="45.4152" lon="6.35665">
        <ele>1504</ele>
        <time>2018-02-15T15:30:15Z</time>
      </trkpt>
      <trkpt lat="45.41473" lon="6.35646">
        <ele>1507</ele>
        <time>2018-02-15T15:31:15Z</time>
      </trkpt>
      <trkpt lat="45.41457" lon="6.35621">
        <ele>1506</ele>
        <time>2018-02-15T15:32:15Z</time>
      </trkpt>
      <trkpt lat="45.41443" lon="6.35584">
        <ele>1505</ele>
        <time>2018-02-15T15:33:15Z</time>
      </trkpt>
      <trkpt lat="45.41434" lon="6.35551">
        <ele>1500</ele>
        <time>2018-02-15T15:34:15Z</time>
      </trkpt>
      <trkpt lat="45.41406" lon="6.35497">
        <ele>1497</ele>
        <time>2018-02-15T15:35:15Z</time>
      </trkpt>
      <trkpt lat="45.41378" lon="6.35412">
        <ele>1487</ele>
        <time>2018-02-15T15:36:15Z</time>
      </trkpt>
      <trkpt lat="45.41349" lon="6.35346">
        <ele>1484</ele>
        <time>2018-02-15T15:37:15Z</time>
      </trkpt>
      <trkpt lat="45.4129" lon="6.35157">
        <ele>1469</ele>
        <time>2018-02-15T15:38:15Z</time>
      </trkpt>
      <trkpt lat="45.41278" lon="6.35141">
        <ele>1468</ele>
        <time>2018-02-15T15:39:15Z</time>
      </trkpt>
      <trkpt lat="45.4127" lon="6.35124">
        <ele>1465</ele>
        <time>2018-02-15T15:40:15Z</time>
      </trkpt>
      <trkpt lat="45.41271" lon="6.3511">
        <ele>1461</ele>
        <time>2018-02-15T15:41:15Z</time>
      </trkpt>
      <trkpt lat="45.41279" lon="6.35103">
        <ele>1458</ele>
        <time>2018-02-15T15:42:15Z</time>
      </trkpt>
      <trkpt lat="45.41288" lon="6.35105">
        <ele>1457</ele>
        <time>2018-02-15T15:43:15Z</time>
      </trkpt>
      <trkpt lat="45.41299" lon="6.3512">
        <ele>1459</ele>
        <time>2018-02-15T15:44:15Z</time>
      </trkpt>
      <trkpt lat="45.41314" lon="6.35153">
        <ele>1462</ele>
        <time>2018-02-15T15:45:15Z</time>
      </trkpt>
      <trkpt lat="45.41344" lon="6.3521">
        <ele>1463</ele>
        <time>2018-02-15T15:46:15Z</time>
      </trkpt>
      <trkpt lat="45.4136" lon="6.35234">
        <ele>1462</ele>
        <time>2018-02-15T15:47:15Z</time>
      </trkpt>
      <trkpt lat="45.4138" lon="6.35253">
        <ele>1461</ele>
        <time>2018-02-15T15:48:15Z</time>
      </trkpt>
      <trkpt lat="45.41396" lon="6.35259">
        <ele>1459</ele>
        <time>2018-02-15T15:49:15Z</time>
      </trkpt>
      <trkpt lat="45.41402" lon="6.35258">
        <ele>1458</ele>
        <time>2018-02-15T15:50:15Z</time>
      </trkpt>
      <trkpt lat="45.41406" lon="6.35252">
        <ele>1456</ele>
        <time>2018-02-15T15:51:15Z</time>
      </trkpt>
      <trkpt lat="45.41409" lon="6.35241">
        <ele>1453</ele>
        <time>2018-02-15T15:52:15Z</time>
      </trkpt>
      <trkpt lat="45.41408" lon="6.3523">
        <ele>1451</ele>
        <time>2018-02-15T15:53:15Z</time>
      </trkpt>
      <trkpt lat="45.41402" lon="6.35225">
        <ele>1452</ele>
        <time>2018-02-15T15:54:15Z</time>
      </trkpt>
      <trkpt lat="45.41387" lon="6.35222">
        <ele>1455</ele>
        <time>2018-02-15T15:55:15Z</time>
      </trkpt>
      <trkpt lat="45.41376" lon="6.35209">
        <ele>1455</ele>
        <time>2018-02-15T15:56:15Z</time>
      </trkpt>
      <trkpt lat="45.41362" lon="6.35169">
        <ele>1453</ele>
        <time>2018-02-15T15:57:15Z</time>
      </trkpt>
      <trkpt lat="45.41353" lon="6.35116">
        <ele>1447</ele>
        <time>2018-02-15T15:58:15Z</time>
      </trkpt>
      <trkpt lat="45.41349" lon="6.35078">
        <ele>1442</ele>
        <time>2018-02-15T15:59:15Z</time>
      </trkpt>
      <trkpt lat="45.41341" lon="6.35046">
        <ele>1438</ele>
        <time>2018-02-15T16:00:15Z</time>
      </trkpt>
      <trkpt lat="45.41327" lon="6.35009">
        <ele>1433</ele>
        <time>2018-02-15T16:01:15Z</time>
      </trkpt>
      <trkpt lat="45.41269" lon="6.34969">
        <ele>1431</ele>
        <time>2018-02-15T16:02:15Z</time>
      </trkpt>
      <trkpt lat="45.41254" lon="6.34949">
        <ele>1429</ele>
        <time>2018-02-15T16:03:15Z</time>
      </trkpt>
      <trkpt lat="45.41249" lon="6.34928">
        <ele>1425</ele>
        <time>2018-02-15T16:04:15Z</time>
      </trkpt>
      <trkpt lat="45.41239" lon="6.34904">
        <ele>1420</ele>
        <time>2018-02-15T16:05:15Z</time>
      </trkpt>
      <trkpt lat="45.41143" lon="6.34847">
        <ele>1412</ele>
        <time>2018-02-15T16:06:15Z</time>
      </trkpt>
      <trkpt lat="45.41103" lon="6.34813">
        <ele>1407</ele>
        <time>2018-02-15T16:07:15Z</time>
      </trkpt>
      <trkpt lat="45.41083" lon="6.34792">
        <ele>1405</ele>
        <time>2018-02-15T16:08:15Z</time>
      </trkpt>
      <trkpt lat="45.41076" lon="6.3476">
        <ele>1400</ele>
        <time>2018-02-15T16:09:15Z</time>
      </trkpt>
      <trkpt lat="45.41072" lon="6.34731">
        <ele>1395</ele>
        <time>2018-02-15T16:10:15Z</time>
      </trkpt>
      <trkpt lat="45.4106" lon="6.34713">
        <ele>1393</ele>
        <time>2018-02-15T16:11:15Z</time>
      </trkpt>
      <trkpt lat="45.41051" lon="6.34706">
        <ele>1392</ele>
        <time>2018-02-15T16:12:15Z</time>
      </trkpt>
      <trkpt lat="45.41042" lon="6.34703">
        <ele>1392</ele>
        <time>2018-02-15T16:13:15Z</time>
      </trkpt>
      <trkpt lat="45.41033" lon="6.34704">
        <ele>1393</ele>
        <time>2018-02-15T16:14:15Z</time>
      </trkpt>
      <trkpt lat="45.41011" lon="6.34715">
        <ele>1396</ele>
        <time>2018-02-15T16:15:15Z</time>
      </trkpt>
      <trkpt lat="45.40996" lon="6.34718">
        <ele>1397</ele>
        <time>2018-02-15T16:16:15Z</time>
      </trkpt>
      <trkpt lat="45.40988" lon="6.34715">
        <ele>1397</ele>
        <time>2018-02-15T16:17:15Z</time>
      </trkpt>
      <trkpt lat="45.4095" lon="6.34662">
        <ele>1389</ele>
        <time>2018-02-15T16:18:15Z</time>
      </trkpt>
      <trkpt lat="45.40931" lon="6.34647">
        <ele>1386</ele>
        <time>2018-02-15T16:19:15Z</time>
      </trkpt>
      <trkpt lat="45.40861" lon="6.34604">
        <ele>1379</ele>
        <time>2018-02-15T16:20:15Z</time>
      </trkpt>
      <trkpt lat="45.40836" lon="6.34585">
        <ele>1377</ele>
        <time>2018-02-15T16:21:15Z</time>
      </trkpt>
      <trkpt lat="45.40803" lon="6.3457">
        <ele>1377</ele>
        <time>2018-02-15T16:22:15Z</time>
      </trkpt>
      <trkpt lat="45.40719" lon="6.34571">
        <ele>1378</ele>
        <time>2018-02-15T16:23:15Z</time>
      </trkpt>
      <trkpt lat="45.4069" lon="6.34581">
        <ele>1379</ele>
        <time>2018-02-15T16:24:15Z</time>
      </trkpt>
      <trkpt lat="45.40683" lon="6.34582">
        <ele>1379</ele>
        <time>2018-02-15T16:25:15Z</time>
      </trkpt>
      <trkpt lat="45.40677" lon="6.34578">
        <ele>1378</ele>
        <time>2018-02-15T16:26:15Z</time>
      </trkpt>
      <trkpt lat="45.40676" lon="6.34567">
        <ele>1376</ele>
        <time>2018-02-15T16:27:15Z</time>
      </trkpt>
      <trkpt lat="45.40683" lon="6.34556">
        <ele>1374</ele>
        <time>2018-02-15T16:28:15Z</time>
      </trkpt>
      <trkpt lat="45.40696" lon="6.34549">
        <ele>1373</ele>
        <time>2018-02-15T16:29:15Z</time>
      </trkpt>
      <trkpt lat="45.40815" lon="6.34525">
        <ele>1369</ele>
        <time>2018-02-15T16:30:15Z</time>
      </trkpt>
      <trkpt lat="45.40824" lon="6.34514">
        <ele>1368</ele>
        <time>2018-02-15T16:31:15Z</time>
      </trkpt>
      <trkpt lat="45.40826" lon="6.34499">
        <ele>1366</ele>
        <time>2018-02-15T16:32:15Z</time>
      </trkpt>
      <trkpt lat="45.40825" lon="6.3449">
        <ele>1363</ele>
        <time>2018-02-15T16:33:15Z</time>
      </trkpt>
      <trkpt lat="45.4082" lon="6.3448">
        <ele>1360</ele>
        <time>2018-02-15T16:34:15Z</time>
      </trkpt>
      <trkpt lat="45.40719" lon="6.34454">
        <ele>1353</ele>
        <time>2018-02-15T16:35:15Z</time>
      </trkpt>
      <trkpt lat="45.40694" lon="6.3444">
        <ele>1349</ele>
        <time>2018-02-15T16:36:15Z</time>
      </trkpt>
      <trkpt lat="45.40644" lon="6.34404">
        <ele>1339</ele>
        <time>2018-02-15T16:37:15Z</time>
      </trkpt>
      <trkpt lat="45.40544" lon="6.34344">
        <ele>1327</ele>
        <time>2018-02-15T16:38:15Z</time>
      </trkpt>
      <trkpt lat="45.40489" lon="6.34334">
        <ele>1325</ele>
        <time>2018-02-15T16:39:15Z</time>
      </trkpt>
      <trkpt lat="45.40457" lon="6.34324">
        <ele>1322</ele>
        <time>2018-02-15T16:40:15Z</time>
      </trkpt>
      <trkpt lat="45.40439" lon="6.34306">
        <ele>1319</ele>
        <time>2018-02-15T16:41:15Z</time>
      </trkpt>
      <trkpt lat="45.40425" lon="6.34279">
        <ele>1316</ele>
        <time>2018-02-15T16:42:15Z</time>
      </trkpt>
      <trkpt lat="45.40412" lon="6.34266">
        <ele>1314</ele>
        <time>2018-02-15T16:43:15Z</time>
      </trkpt>
      <trkpt lat="45.40403" lon="6.34263">
        <ele>1312</ele>
        <time>2018-02-15T16:44:15Z</time>
      </trkpt>
      <trkpt lat="45.40395" lon="6.34267">
        <ele>1311</ele>
        <time>2018-02-15T16:45:15Z</time>
      </trkpt>
      <trkpt lat="45.40381" lon="6.34296">
        <ele>1313</ele>
        <time>2018-02-15T16:46:15Z</time>
      </trkpt>
      <trkpt lat="45.40375" lon="6.34306">
        <ele>1313</ele>
        <time>2018-02-15T16:47:15Z</time>
      </trkpt>
      <trkpt lat="45.40365" lon="6.34309">
        <ele>1312</ele>
        <time>2018-02-15T16:48:15Z</time>
      </trkpt>
      <trkpt lat="45.40314" lon="6.34311">
        <ele>1309</ele>
        <time>2018-02-15T16:49:15Z</time>
      </trkpt>
      <trkpt lat="45.40285" lon="6.34307">
        <ele>1309</ele>
        <time>2018-02-15T16:50:15Z</time>
      </trkpt>
      <trkpt lat="45.40273" lon="6.34295">
        <ele>1306</ele>
        <time>2018-02-15T16:51:15Z</time>
      </trkpt>
      <trkpt lat="45.40261" lon="6.34264">
        <ele>1299</ele>
        <time>2018-02-15T16:52:15Z</time>
      </trkpt>
      <trkpt lat="45.40246" lon="6.34242">
        <ele>1296</ele>
        <time>2018-02-15T16:53:15Z</time>
      </trkpt>
      <trkpt lat="45.40223" lon="6.34217">
        <ele>1297</ele>
        <time>2018-02-15T16:54:15Z</time>
      </trkpt>
      <trkpt lat="45.40213" lon="6.34188">
        <ele>1295</ele>
        <time>2018-02-15T16:55:15Z</time>
      </trkpt>
      <trkpt lat="45.40212" lon="6.34158">
        <ele>1292</ele>
        <time>2018-02-15T16:56:15Z</time>
      </trkpt>
      <trkpt lat="45.4021" lon="6.34141">
        <ele>1290</ele>
        <time>2018-02-15T16:57:15Z</time>
      </trkpt>
      <trkpt lat="45.40201" lon="6.34105">
        <ele>1287</ele>
        <time>2018-02-15T16:58:15Z</time>
      </trkpt>
      <trkpt lat="45.402" lon="6.34047">
        <ele>1278</ele>
        <time>2018-02-15T16:59:15Z</time>
      </trkpt>
      <trkpt lat="45.40199" lon="6.34021">
        <ele>1274</ele>
        <time>2018-02-15T17:00:15Z</time>
      </trkpt>
      <trkpt lat="45.40193" lon="6.33998">
        <ele>1270</ele>
        <time>2018-02-15T17:01:15Z</time>
      </trkpt>
      <trkpt lat="45.40184" lon="6.33977">
        <ele>1267</ele>
        <time>2018-02-15T17:02:15Z</time>
      </trkpt>
      <trkpt lat="45.40169" lon="6.33958">
        <ele>1265</ele>
        <time>2018-02-15T17:03:15Z</time>
      </trkpt>
      <trkpt lat="45.40126" lon="6.33947">
        <ele>1264</ele>
        <time>2018-02-15T17:04:15Z</time>
      </trkpt>
      <trkpt lat="45.40099" lon="6.33931">
        <ele>1262</ele>
        <time>2018-02-15T17:05:15Z</time>
      </trkpt>
      <trkpt lat="45.40071" lon="6.33924">
        <ele>1261</ele>
        <time>2018-02-15T17:06:15Z</time>
      </trkpt>
      <trkpt lat="45.40017" lon="6.33934">
        <ele>1259</ele>
        <time>2018-02-15T17:07:15Z</time>
      </trkpt>
      <trkpt lat="45.39989" lon="6.33922">
        <ele>1257</ele>
        <time>2018-02-15T17:08:15Z</time>
      </trkpt>
      <trkpt lat="45.39965" lon="6.33891">
        <ele>1252</ele>
        <time>2018-02-15T17:09:15Z</time>
      </trkpt>
      <trkpt lat="45.3993" lon="6.33834">
        <ele>1245</ele>
        <time>2018-02-15T17:10:15Z</time>
      </trkpt>
      <trkpt lat="45.39905" lon="6.33798">
        <ele>1240</ele>
        <time>2018-02-15T17:11:15Z</time>
      </trkpt>
      <trkpt lat="45.39888" lon="6.3378">
        <ele>1239</ele>
        <time>2018-02-15T17:12:15Z</time>
      </trkpt>
      <trkpt lat="45.39846" lon="6.3376">
        <ele>1240</ele>
        <time>2018-02-15T17:13:15Z</time>
      </trkpt>
      <trkpt lat="45.39843" lon="6.33751">
        <ele>1239</ele>
        <time>2018-02-15T17:14:15Z</time>
      </trkpt>
      <trkpt lat="45.39846" lon="6.33745">
        <ele>1237</ele>
        <time>2018-02-15T17:15:15Z</time>
      </trkpt>
      <trkpt lat="45.39856" lon="6.33741">
        <ele>1235</ele>
        <time>2018-02-15T17:16:15Z</time>
      </trkpt>
      <trkpt lat="45.39868" lon="6.33745">
        <ele>1235</ele>
        <time>2018-02-15T17:17:15Z</time>
      </trkpt>
      <trkpt lat="45.39933" lon="6.33753">
        <ele>1230</ele>
        <time>2018-02-15T17:18:15Z</time>
      </trkpt>
      <trkpt lat="45.39946" lon="6.33759">
        <ele>1231</ele>
        <time>2018-02-15T17:19:15Z</time>
      </trkpt>
      <trkpt lat="45.39954" lon="6.33768">
        <ele>1232</ele>
        <time>2018-02-15T17:20:15Z</time>
      </trkpt>
      <trkpt lat="45.39974" lon="6.33782">
        <ele>1233</ele>
        <time>2018-02-15T17:21:15Z</time>
      </trkpt>
      <trkpt lat="45.39979" lon="6.3378">
        <ele>1232</ele>
        <time>2018-02-15T17:22:15Z</time>
      </trkpt>
      <trkpt lat="45.39982" lon="6.33772">
        <ele>1231</ele>
        <time>2018-02-15T17:23:15Z</time>
      </trkpt>
      <trkpt lat="45.3998" lon="6.33766">
        <ele>1230</ele>
        <time>2018-02-15T17:24:15Z</time>
      </trkpt>
      <trkpt lat="45.39971" lon="6.33761">
        <ele>1230</ele>
        <time>2018-02-15T17:25:15Z</time>
      </trkpt>
      <trkpt lat="45.39923" lon="6.33703">
        <ele>1220</ele>
        <time>2018-02-15T17:26:15Z</time>
      </trkpt>
      <trkpt lat="45.39903" lon="6.33687">
        <ele>1218</ele>
        <time>2018-02-15T17:27:15Z</time>
      </trkpt>
      <trkpt lat="45.39864" lon="6.33673">
        <ele>1219</ele>
        <time>2018-02-15T17:28:15Z</time>
      </trkpt>
      <trkpt lat="45.39845" lon="6.33656">
        <ele>1217</ele>
        <time>2018-02-15T17:29:15Z</time>
      </trkpt>
      <trkpt lat="45.39822" lon="6.33644">
        <ele>1214</ele>
        <time>2018-02-15T17:30:15Z</time>
      </trkpt>
      <trkpt lat="45.39779" lon="6.33629">
        <ele>1208</ele>
        <time>2018-02-15T17:31:15Z</time>
      </trkpt>
      <trkpt lat="45.39729" lon="6.33603">
        <ele>1200</ele>
        <time>2018-02-15T17:32:15Z</time>
      </trkpt>
      <trkpt lat="45.39702" lon="6.33594">
        <ele>1198</ele>
        <time>2018-02-15T17:33:15Z</time>
      </trkpt>
      <trkpt lat="45.39669" lon="6.33594">
        <ele>1196</ele>
        <time>2018-02-15T17:34:15Z</time>
      </trkpt>
      <trkpt lat="45.3965" lon="6.33603">
        <ele>1197</ele>
        <time>2018-02-15T17:35:15Z</time>
      </trkpt>
      <trkpt lat="45.39625" lon="6.33619">
        <ele>1198</ele>
        <time>2018-02-15T17:36:15Z</time>
      </trkpt>
      <trkpt lat="45.39587" lon="6.33621">
        <ele>1196</ele>
        <time>2018-02-15T17:37:15Z</time>
      </trkpt>
      <trkpt lat="45.39562" lon="6.33616">
        <ele>1196</ele>
        <time>2018-02-15T17:38:15Z</time>
      </trkpt>
      <trkpt lat="45.39519" lon="6.33599">
        <ele>1194</ele>
        <time>2018-02-15T17:39:15Z</time>
      </trkpt>
      <trkpt lat="45.3948" lon="6.3358">
        <ele>1189</ele>
        <time>2018-02-15T17:40:15Z</time>
      </trkpt>
      <trkpt lat="45.39437" lon="6.33566">
        <ele>1189</ele>
        <time>2018-02-15T17:41:15Z</time>
      </trkpt>
      <trkpt lat="45.39378" lon="6.33536">
        <ele>1176</ele>
        <time>2018-02-15T17:42:15Z</time>
      </trkpt>
      <trkpt lat="45.39361" lon="6.33533">
        <ele>1174</ele>
        <time>2018-02-15T17:43:15Z</time>
      </trkpt>
      <trkpt lat="45.39344" lon="6.33535">
        <ele>1173</ele>
        <time>2018-02-15T17:44:15Z</time>
      </trkpt>
      <trkpt lat="45.39328" lon="6.33539">
        <ele>1172</ele>
        <time>2018-02-15T17:45:15Z</time>
      </trkpt>
      <trkpt lat="45.39313" lon="6.33539">
        <ele>1167</ele>
        <time>2018-02-15T17:46:15Z</time>
      </trkpt>
      <trkpt lat="45.39306" lon="6.33536">
        <ele>1164</ele>
        <time>2018-02-15T17:47:15Z</time>
      </trkpt>
      <trkpt lat="45.39299" lon="6.3352">
        <ele>1156</ele>
        <time>2018-02-15T17:48:15Z</time>
      </trkpt>
      <trkpt lat="45.393" lon="6.33508">
        <ele>1153</ele>
        <time>2018-02-15T17:49:15Z</time>
      </trkpt>
      <trkpt lat="45.39303" lon="6.33504">
        <ele>1152</ele>
        <time>2018-02-15T17:50:15Z</time>
      </trkpt>
      <trkpt lat="45.39314" lon="6.335">
        <ele>1155</ele>
        <time>2018-02-15T17:51:15Z</time>
      </trkpt>
      <trkpt lat="45.39323" lon="6.33501">
        <ele>1159</ele>
        <time>2018-02-15T17:52:15Z</time>
      </trkpt>
      <trkpt lat="45.39332" lon="6.33502">
        <ele>1162</ele>
        <time>2018-02-15T17:53:15Z</time>
      </trkpt>
      <trkpt lat="45.39353" lon="6.3351">
        <ele>1166</ele>
        <time>2018-02-15T17:54:15Z</time>
      </trkpt>
      <trkpt lat="45.3936" lon="6.33509">
        <ele>1166</ele>
        <time>2018-02-15T17:55:15Z</time>
      </trkpt>
      <trkpt lat="45.39365" lon="6.33507">
        <ele>1166</ele>
        <time>2018-02-15T17:56:15Z</time>
      </trkpt>
      <trkpt lat="45.39369" lon="6.33502">
        <ele>1165</ele>
        <time>2018-02-15T17:57:15Z</time>
      </trkpt>
      <trkpt lat="45.3937" lon="6.3349">
        <ele>1162</ele>
        <time>2018-02-15T17:58:15Z</time>
      </trkpt>
      <trkpt lat="45.39361" lon="6.33482">
        <ele>1159</ele>
        <time>2018-02-15T17:59:15Z</time>
      </trkpt>
      <trkpt lat="45.39347" lon="6.33483">
        <ele>1159</ele>
        <time>2018-02-15T18:00:15Z</time>
      </trkpt>
      <trkpt lat="45.3933" lon="6.33477">
        <ele>1157</ele>
        <time>2018-02-15T18:01:15Z</time>
      </trkpt>
      <trkpt lat="45.39307" lon="6.3346">
        <ele>1147</ele>
        <time>2018-02-15T18:02:15Z</time>
      </trkpt>
      <trkpt lat="45.39287" lon="6.33452">
        <ele>1139</ele>
        <time>2018-02-15T18:03:15Z</time>
      </trkpt>
      <trkpt lat="45.39269" lon="6.33453">
        <ele>1134</ele>
        <time>2018-02-15T18:04:15Z</time>
      </trkpt>
      <trkpt lat="45.39258" lon="6.33469">
        <ele>1132</ele>
        <time>2018-02-15T18:05:15Z</time>
      </trkpt>
      <trkpt lat="45.39259" lon="6.33487">
        <ele>1134</ele>
        <time>2018-02-15T18:06:15Z</time>
      </trkpt>
      <trkpt lat="45.39265" lon="6.33502">
        <ele>1138</ele>
        <time>2018-02-15T18:07:15Z</time>
      </trkpt>
      <trkpt lat="45.39266" lon="6.33513">
        <ele>1143</ele>
        <time>2018-02-15T18:08:15Z</time>
      </trkpt>
      <trkpt lat="45.39263" lon="6.33536">
        <ele>1150</ele>
        <time>2018-02-15T18:09:15Z</time>
      </trkpt>
      <trkpt lat="45.39265" lon="6.33558">
        <ele>1159</ele>
        <time>2018-02-15T18:10:15Z</time>
      </trkpt>
      <trkpt lat="45.39265" lon="6.3357">
        <ele>1164</ele>
        <time>2018-02-15T18:11:15Z</time>
      </trkpt>
      <trkpt lat="45.39257" lon="6.33583">
        <ele>1167</ele>
        <time>2018-02-15T18:12:15Z</time>
      </trkpt>
      <trkpt lat="45.39248" lon="6.33586">
        <ele>1166</ele>
        <time>2018-02-15T18:13:15Z</time>
      </trkpt>
      <trkpt lat="45.39227" lon="6.33583">
        <ele>1157</ele>
        <time>2018-02-15T18:14:15Z</time>
      </trkpt>
      <trkpt lat="45.39203" lon="6.33586">
        <ele>1150</ele>
        <time>2018-02-15T18:15:15Z</time>
      </trkpt>
      <trkpt lat="45.39161" lon="6.33614">
        <ele>1155</ele>
        <time>2018-02-15T18:16:15Z</time>
      </trkpt>
      <trkpt lat="45.39137" lon="6.33624">
        <ele>1152</ele>
        <time>2018-02-15T18:17:15Z</time>
      </trkpt>
      <trkpt lat="45.39121" lon="6.33616">
        <ele>1140</ele>
        <time>2018-02-15T18:18:15Z</time>
      </trkpt>
      <trkpt lat="45.39104" lon="6.33603">
        <ele>1124</ele>
        <time>2018-02-15T18:19:15Z</time>
      </trkpt>
      <trkpt lat="45.39083" lon="6.33607">
        <ele>1118</ele>
        <time>2018-02-15T18:20:15Z</time>
      </trkpt>
      <trkpt lat="45.3907" lon="6.33631">
        <ele>1129</ele>
        <time>2018-02-15T18:21:15Z</time>
      </trkpt>
      <trkpt lat="45.39053" lon="6.3364">
        <ele>1126</ele>
        <time>2018-02-15T18:22:15Z</time>
      </trkpt>
      <trkpt lat="45.39019" lon="6.33673">
        <ele>1128</ele>
        <time>2018-02-15T18:23:15Z</time>
      </trkpt>
      <trkpt lat="45.39002" lon="6.33679">
        <ele>1123</ele>
        <time>2018-02-15T18:24:15Z</time>
      </trkpt>
      <trkpt lat="45.3897" lon="6.33684">
        <ele>1114</ele>
        <time>2018-02-15T18:25:15Z</time>
      </trkpt>
      <trkpt lat="45.3893" lon="6.33705">
        <ele>1112</ele>
        <time>2018-02-15T18:26:15Z</time>
      </trkpt>
      <trkpt lat="45.38903" lon="6.33714">
        <ele>1110</ele>
        <time>2018-02-15T18:27:15Z</time>
      </trkpt>
      <trkpt lat="45.38875" lon="6.33729">
        <ele>1114</ele>
        <time>2018-02-15T18:28:15Z</time>
      </trkpt>
      <trkpt lat="45.38857" lon="6.33729">
        <ele>1112</ele>
        <time>2018-02-15T18:29:15Z</time>
      </trkpt>
      <trkpt lat="45.38835" lon="6.33717">
        <ele>1104</ele>
        <time>2018-02-15T18:30:15Z</time>
      </trkpt>
      <trkpt lat="45.38779" lon="6.3367">
        <ele>1095</ele>
        <time>2018-02-15T18:31:15Z</time>
      </trkpt>
      <trkpt lat="45.38762" lon="6.33641">
        <ele>1092</ele>
        <time>2018-02-15T18:32:15Z</time>
      </trkpt>
      <trkpt lat="45.38749" lon="6.33591">
        <ele>1084</ele>
        <time>2018-02-15T18:33:15Z</time>
      </trkpt>
      <trkpt lat="45.38756" lon="6.33535">
        <ele>1076</ele>
        <time>2018-02-15T18:34:15Z</time>
      </trkpt>
      <trkpt lat="45.38754" lon="6.33505">
        <ele>1074</ele>
        <time>2018-02-15T18:35:15Z</time>
      </trkpt>
      <trkpt lat="45.38743" lon="6.3348">
        <ele>1075</ele>
        <time>2018-02-15T18:36:15Z</time>
      </trkpt>
      <trkpt lat="45.38732" lon="6.33457">
        <ele>1077</ele>
        <time>2018-02-15T18:37:15Z</time>
      </trkpt>
      <trkpt lat="45.38728" lon="6.33439">
        <ele>1077</ele>
        <time>2018-02-15T18:38:15Z</time>
      </trkpt>
      <trkpt lat="45.38736" lon="6.33425">
        <ele>1074</ele>
        <time>2018-02-15T18:39:15Z</time>
      </trkpt>
      <trkpt lat="45.38753" lon="6.33382">
        <ele>1068</ele>
        <time>2018-02-15T18:40:15Z</time>
      </trkpt>
      <trkpt lat="45.38769" lon="6.33334">
        <ele>1061</ele>
        <time>2018-02-15T18:41:15Z</time>
      </trkpt>
      <trkpt lat="45.38771" lon="6.33308">
        <ele>1060</ele>
        <time>2018-02-15T18:42:15Z</time>
      </trkpt>
      <trkpt lat="45.38775" lon="6.33291">
        <ele>1057</ele>
        <time>2018-02-15T18:43:15Z</time>
      </trkpt>
      <trkpt lat="45.38788" lon="6.33259">
        <ele>1049</ele>
        <time>2018-02-15T18:44:15Z</time>
      </trkpt>
      <trkpt lat="45.38784" lon="6.33233">
        <ele>1046</ele>
        <time>2018-02-15T18:45:15Z</time>
      </trkpt>
      <trkpt lat="45.38732" lon="6.33162">
        <ele>1046</ele>
        <time>2018-02-15T18:46:15Z</time>
      </trkpt>
      <trkpt lat="45.38703" lon="6.33148">
        <ele>1049</ele>
        <time>2018-02-15T18:47:15Z</time>
      </trkpt>
      <trkpt lat="45.3866" lon="6.33106">
        <ele>1038</ele>
        <time>2018-02-15T18:48:15Z</time>
      </trkpt>
      <trkpt lat="45.38642" lon="6.33097">
        <ele>1035</ele>
        <time>2018-02-15T18:49:15Z</time>
      </trkpt>
      <trkpt lat="45.38623" lon="6.33091">
        <ele>1035</ele>
        <time>2018-02-15T18:50:15Z</time>
      </trkpt>
      <trkpt lat="45.38573" lon="6.33055">
        <ele>1024</ele>
        <time>2018-02-15T18:51:15Z</time>
      </trkpt>
      <trkpt lat="45.38559" lon="6.33048">
        <ele>1019</ele>
        <time>2018-02-15T18:52:15Z</time>
      </trkpt>
      <trkpt lat="45.38546" lon="6.3305">
        <ele>1017</ele>
        <time>2018-02-15T18:53:15Z</time>
      </trkpt>
      <trkpt lat="45.38529" lon="6.33067">
        <ele>1018</ele>
        <time>2018-02-15T18:54:15Z</time>
      </trkpt>
      <trkpt lat="45.38503" lon="6.33112">
        <ele>1023</ele>
        <time>2018-02-15T18:55:15Z</time>
      </trkpt>
      <trkpt lat="45.38482" lon="6.33158">
        <ele>1023</ele>
        <time>2018-02-15T18:56:15Z</time>
      </trkpt>
      <trkpt lat="45.38472" lon="6.33183">
        <ele>1026</ele>
        <time>2018-02-15T18:57:15Z</time>
      </trkpt>
      <trkpt lat="45.38462" lon="6.33187">
        <ele>1023</ele>
        <time>2018-02-15T18:58:15Z</time>
      </trkpt>
      <trkpt lat="45.38458" lon="6.33184">
        <ele>1020</ele>
        <time>2018-02-15T18:59:15Z</time>
      </trkpt>
      <trkpt lat="45.38455" lon="6.33176">
        <ele>1016</ele>
        <time>2018-02-15T19:00:15Z</time>
      </trkpt>
      <trkpt lat="45.38458" lon="6.33161">
        <ele>1013</ele>
        <time>2018-02-15T19:01:15Z</time>
      </trkpt>
      <trkpt lat="45.38471" lon="6.3314">
        <ele>1015</ele>
        <time>2018-02-15T19:02:15Z</time>
      </trkpt>
      <trkpt lat="45.38477" lon="6.33119">
        <ele>1014</ele>
        <time>2018-02-15T19:03:15Z</time>
      </trkpt>
      <trkpt lat="45.38476" lon="6.33092">
        <ele>1008</ele>
        <time>2018-02-15T19:04:15Z</time>
      </trkpt>
      <trkpt lat="45.38463" lon="6.33067">
        <ele>998</ele>
        <time>2018-02-15T19:05:15Z</time>
      </trkpt>
      <trkpt lat="45.38463" lon="6.33044">
        <ele>993</ele>
        <time>2018-02-15T19:06:15Z</time>
      </trkpt>
      <trkpt lat="45.38475" lon="6.33029">
        <ele>993</ele>
        <time>2018-02-15T19:07:15Z</time>
      </trkpt>
      <trkpt lat="45.38516" lon="6.32997">
        <ele>996</ele>
        <time>2018-02-15T19:08:15Z</time>
      </trkpt>
      <trkpt lat="45.3855" lon="6.32965">
        <ele>992</ele>
        <time>2018-02-15T19:09:15Z</time>
      </trkpt>
      <trkpt lat="45.38552" lon="6.32956">
        <ele>989</ele>
        <time>2018-02-15T19:10:15Z</time>
      </trkpt>
      <trkpt lat="45.38549" lon="6.32946">
        <ele>986</ele>
        <time>2018-02-15T19:11:15Z</time>
      </trkpt>
      <trkpt lat="45.38543" lon="6.32939">
        <ele>984</ele>
        <time>2018-02-15T19:12:15Z</time>
      </trkpt>
      <trkpt lat="45.38535" lon="6.32939">
        <ele>983</ele>
        <time>2018-02-15T19:13:15Z</time>
      </trkpt>
      <trkpt lat="45.38481" lon="6.32973">
        <ele>983</ele>
        <time>2018-02-15T19:14:15Z</time>
      </trkpt>
      <trkpt lat="45.38469" lon="6.32984">
        <ele>981</ele>
        <time>2018-02-15T19:15:15Z</time>
      </trkpt>
      <trkpt lat="45.38443" lon="6.33016">
        <ele>980</ele>
        <time>2018-02-15T19:16:15Z</time>
      </trkpt>
      <trkpt lat="45.38431" lon="6.33034">
        <ele>980</ele>
        <time>2018-02-15T19:17:15Z</time>
      </trkpt>
      <trkpt lat="45.38424" lon="6.33052">
        <ele>980</ele>
        <time>2018-02-15T19:18:15Z</time>
      </trkpt>
      <trkpt lat="45.38415" lon="6.33081">
        <ele>982</ele>
        <time>2018-02-15T19:19:15Z</time>
      </trkpt>
      <trkpt lat="45.38409" lon="6.33091">
        <ele>982</ele>
        <time>2018-02-15T19:20:15Z</time>
      </trkpt>
      <trkpt lat="45.384" lon="6.33099">
        <ele>981</ele>
        <time>2018-02-15T19:21:15Z</time>
      </trkpt>
      <trkpt lat="45.38391" lon="6.33099">
        <ele>979</ele>
        <time>2018-02-15T19:22:15Z</time>
      </trkpt>
      <trkpt lat="45.38386" lon="6.33094">
        <ele>977</ele>
        <time>2018-02-15T19:23:15Z</time>
      </trkpt>
      <trkpt lat="45.38384" lon="6.33088">
        <ele>975</ele>
        <time>2018-02-15T19:24:15Z</time>
      </trkpt>
      <trkpt lat="45.38386" lon="6.33078">
        <ele>974</ele>
        <time>2018-02-15T19:25:15Z</time>
      </trkpt>
      <trkpt lat="45.38403" lon="6.33058">
        <ele>975</ele>
        <time>2018-02-15T19:26:15Z</time>
      </trkpt>
      <trkpt lat="45.3842" lon="6.32982">
        <ele>967</ele>
        <time>2018-02-15T19:27:15Z</time>
      </trkpt>
      <trkpt lat="45.38437" lon="6.32918">
        <ele>961</ele>
        <time>2018-02-15T19:28:15Z</time>
      </trkpt>
      <trkpt lat="45.38452" lon="6.32772">
        <ele>941</ele>
        <time>2018-02-15T19:29:15Z</time>
      </trkpt>
      <trkpt lat="45.38445" lon="6.32759">
        <ele>939</ele>
        <time>2018-02-15T19:30:15Z</time>
      </trkpt>
      <trkpt lat="45.38437" lon="6.32761">
        <ele>939</ele>
        <time>2018-02-15T19:31:15Z</time>
      </trkpt>
      <trkpt lat="45.38433" lon="6.32775">
        <ele>942</ele>
        <time>2018-02-15T19:32:15Z</time>
      </trkpt>
      <trkpt lat="45.38432" lon="6.32802">
        <ele>946</ele>
        <time>2018-02-15T19:33:15Z</time>
      </trkpt>
      <trkpt lat="45.38429" lon="6.32823">
        <ele>950</ele>
        <time>2018-02-15T19:34:15Z</time>
      </trkpt>
      <trkpt lat="45.38419" lon="6.32847">
        <ele>951</ele>
        <time>2018-02-15T19:35:15Z</time>
      </trkpt>
      <trkpt lat="45.38397" lon="6.3289">
        <ele>950</ele>
        <time>2018-02-15T19:36:15Z</time>
      </trkpt>
      <trkpt lat="45.38381" lon="6.32915">
        <ele>949</ele>
        <time>2018-02-15T19:37:15Z</time>
      </trkpt>
      <trkpt lat="45.38367" lon="6.32917">
        <ele>946</ele>
        <time>2018-02-15T19:38:15Z</time>
      </trkpt>
      <trkpt lat="45.38332" lon="6.32915">
        <ele>939</ele>
        <time>2018-02-15T19:39:15Z</time>
      </trkpt>
      <trkpt lat="45.38294" lon="6.32916">
        <ele>934</ele>
        <time>2018-02-15T19:40:15Z</time>
      </trkpt>
      <trkpt lat="45.38233" lon="6.32945">
        <ele>931</ele>
        <time>2018-02-15T19:41:15Z</time>
      </trkpt>
      <trkpt lat="45.38194" lon="6.3296">
        <ele>929</ele>
        <time>2018-02-15T19:42:15Z</time>
      </trkpt>
      <trkpt lat="45.38182" lon="6.32958">
        <ele>927</ele>
        <time>2018-02-15T19:43:15Z</time>
      </trkpt>
      <trkpt lat="45.38136" lon="6.32898">
        <ele>922</ele>
        <time>2018-02-15T19:44:15Z</time>
      </trkpt>
      <trkpt lat="45.38106" lon="6.32867">
        <ele>918</ele>
        <time>2018-02-15T19:45:15Z</time>
      </trkpt>
      <trkpt lat="45.38068" lon="6.32833">
        <ele>914</ele>
        <time>2018-02-15T19:46:15Z</time>
      </trkpt>
      <trkpt lat="45.38023" lon="6.3279">
        <ele>909</ele>
        <time>2018-02-15T19:47:15Z</time>
      </trkpt>
      <trkpt lat="45.37992" lon="6.32771">
        <ele>909</ele>
        <time>2018-02-15T19:48:15Z</time>
      </trkpt>
      <trkpt lat="45.37982" lon="6.32761">
        <ele>909</ele>
        <time>2018-02-15T19:49:15Z</time>
      </trkpt>
      <trkpt lat="45.3794" lon="6.32697">
        <ele>905</ele>
        <time>2018-02-15T19:50:15Z</time>
      </trkpt>
      <trkpt lat="45.37934" lon="6.32686">
        <ele>904</ele>
        <time>2018-02-15T19:51:15Z</time>
      </trkpt>
      <trkpt lat="45.37931" lon="6.32671">
        <ele>901</ele>
        <time>2018-02-15T19:52:15Z</time>
      </trkpt>
      <trkpt lat="45.37922" lon="6.3261">
        <ele>895</ele>
        <time>2018-02-15T19:53:15Z</time>
      </trkpt>
      <trkpt lat="45.37922" lon="6.32586">
        <ele>893</ele>
        <time>2018-02-15T19:54:15Z</time>
      </trkpt>
      <trkpt lat="45.37925" lon="6.32551">
        <ele>887</ele>
        <time>2018-02-15T19:55:15Z</time>
      </trkpt>
      <trkpt lat="45.37923" lon="6.32527">
        <ele>884</ele>
        <time>2018-02-15T19:56:15Z</time>
      </trkpt>
      <trkpt lat="45.37917" lon="6.32511">
        <ele>883</ele>
        <time>2018-02-15T19:57:15Z</time>
      </trkpt>
      <trkpt lat="45.37911" lon="6.32501">
        <ele>882</ele>
        <time>2018-02-15T19:58:15Z</time>
      </trkpt>
      <trkpt lat="45.37903" lon="6.32492">
        <ele>880</ele>
        <time>2018-02-15T19:59:15Z</time>
      </trkpt>
      <trkpt lat="45.37889" lon="6.32485">
        <ele>878</ele>
        <time>2018-02-15T20:00:15Z</time>
      </trkpt>
      <trkpt lat="45.37831" lon="6.32489">
        <ele>884</ele>
        <time>2018-02-15T20:01:15Z</time>
      </trkpt>
      <trkpt lat="45.37822" lon="6.32486">
        <ele>884</ele>
        <time>2018-02-15T20:02:15Z</time>
      </trkpt>
      <trkpt lat="45.3779" lon="6.32457">
        <ele>878</ele>
        <time>2018-02-15T20:03:15Z</time>
      </trkpt>
      <trkpt lat="45.3778" lon="6.32452">
        <ele>877</ele>
        <time>2018-02-15T20:04:15Z</time>
      </trkpt>
      <trkpt lat="45.37763" lon="6.32447">
        <ele>876</ele>
        <time>2018-02-15T20:05:15Z</time>
      </trkpt>
      <trkpt lat="45.3774" lon="6.32444">
        <ele>876</ele>
        <time>2018-02-15T20:06:15Z</time>
      </trkpt>
      <trkpt lat="45.37717" lon="6.32434">
        <ele>873</ele>
        <time>2018-02-15T20:07:15Z</time>
      </trkpt>
      <trkpt lat="45.37673" lon="6.3242">
        <ele>870</ele>
        <time>2018-02-15T20:08:15Z</time>
      </trkpt>
      <trkpt lat="45.37639" lon="6.324">
        <ele>861</ele>
        <time>2018-02-15T20:09:15Z</time>
      </trkpt>
      <trkpt lat="45.37608" lon="6.32396">
        <ele>858</ele>
        <time>2018-02-15T20:10:15Z</time>
      </trkpt>
      <trkpt lat="45.37596" lon="6.32391">
        <ele>856</ele>
        <time>2018-02-15T20:11:15Z</time>
      </trkpt>
      <trkpt lat="45.37549" lon="6.32358">
        <ele>848</ele>
        <time>2018-02-15T20:12:15Z</time>
      </trkpt>
      <trkpt lat="45.37491" lon="6.32328">
        <ele>840</ele>
        <time>2018-02-15T20:13:15Z</time>
      </trkpt>
      <trkpt lat="45.37473" lon="6.32327">
        <ele>836</ele>
        <time>2018-02-15T20:14:15Z</time>
      </trkpt>
      <trkpt lat="45.37437" lon="6.32345">
        <ele>834</ele>
        <time>2018-02-15T20:15:15Z</time>
      </trkpt>
      <trkpt lat="45.37415" lon="6.32359">
        <ele>833</ele>
        <time>2018-02-15T20:16:15Z</time>
      </trkpt>
      <trkpt lat="45.37344" lon="6.32425">
        <ele>833</ele>
        <time>2018-02-15T20:17:15Z</time>
      </trkpt>
      <trkpt lat="45.37338" lon="6.32428">
        <ele>832</ele>
        <time>2018-02-15T20:18:15Z</time>
      </trkpt>
      <trkpt lat="45.37326" lon="6.32427">
        <ele>832</ele>
        <time>2018-02-15T20:19:15Z</time>
      </trkpt>
      <trkpt lat="45.37307" lon="6.32409">
        <ele>827</ele>
        <time>2018-02-15T20:20:15Z</time>
      </trkpt>
      <trkpt lat="45.37292" lon="6.32397">
        <ele>824</ele>
        <time>2018-02-15T20:21:15Z</time>
      </trkpt>
      <trkpt lat="45.37281" lon="6.32392">
        <ele>823</ele>
        <time>2018-02-15T20:22:15Z</time>
      </trkpt>
      <trkpt lat="45.37247" lon="6.32384">
        <ele>821</ele>
        <time>2018-02-15T20:23:15Z</time>
      </trkpt>
      <trkpt lat="45.37205" lon="6.32395">
        <ele>824</ele>
        <time>2018-02-15T20:24:15Z</time>
      </trkpt>
      <trkpt lat="45.37197" lon="6.32388">
        <ele>821</ele>
        <time>2018-02-15T20:25:15Z</time>
      </trkpt>
      <trkpt lat="45.37194" lon="6.32384">
        <ele>820</ele>
        <time>2018-02-15T20:26:15Z</time>
      </trkpt>
      <trkpt lat="45.37195" lon="6.32372">
        <ele>816</ele>
        <time>2018-02-15T20:27:15Z</time>
      </trkpt>
      <trkpt lat="45.372" lon="6.32366">
        <ele>814</ele>
        <time>2018-02-15T20:28:15Z</time>
      </trkpt>
      <trkpt lat="45.37225" lon="6.32358">
        <ele>813</ele>
        <time>2018-02-15T20:29:15Z</time>
      </trkpt>
      <trkpt lat="45.37255" lon="6.32355">
        <ele>812</ele>
        <time>2018-02-15T20:30:15Z</time>
      </trkpt>
      <trkpt lat="45.37281" lon="6.32347">
        <ele>810</ele>
        <time>2018-02-15T20:31:15Z</time>
      </trkpt>
      <trkpt lat="45.37297" lon="6.3234">
        <ele>808</ele>
        <time>2018-02-15T20:32:15Z</time>
      </trkpt>
      <trkpt lat="45.37304" lon="6.32331">
        <ele>806</ele>
        <time>2018-02-15T20:33:15Z</time>
      </trkpt>
      <trkpt lat="45.37331" lon="6.32281">
        <ele>798</ele>
        <time>2018-02-15T20:34:15Z</time>
      </trkpt>
      <trkpt lat="45.37347" lon="6.32245">
        <ele>795</ele>
        <time>2018-02-15T20:35:15Z</time>
      </trkpt>
      <trkpt lat="45.37365" lon="6.32185">
        <ele>784</ele>
        <time>2018-02-15T20:36:15Z</time>
      </trkpt>
      <trkpt lat="45.37373" lon="6.32165">
        <ele>781</ele>
        <time>2018-02-15T20:37:15Z</time>
      </trkpt>
      <trkpt lat="45.37386" lon="6.32148">
        <ele>778</ele>
        <time>2018-02-15T20:38:15Z</time>
      </trkpt>
      <trkpt lat="45.37399" lon="6.32141">
        <ele>778</ele>
        <time>2018-02-15T20:39:15Z</time>
      </trkpt>
      <trkpt lat="45.37407" lon="6.32141">
        <ele>779</ele>
        <time>2018-02-15T20:40:15Z</time>
      </trkpt>
      <trkpt lat="45.3743" lon="6.32147">
        <ele>783</ele>
        <time>2018-02-15T20:41:15Z</time>
      </trkpt>
      <trkpt lat="45.37434" lon="6.32145">
        <ele>782</ele>
        <time>2018-02-15T20:42:15Z</time>
      </trkpt>
      <trkpt lat="45.37438" lon="6.32138">
        <ele>780</ele>
        <time>2018-02-15T20:43:15Z</time>
      </trkpt>
      <trkpt lat="45.37438" lon="6.3213">
        <ele>778</ele>
        <time>2018-02-15T20:44:15Z</time>
      </trkpt>
      <trkpt lat="45.37433" lon="6.32123">
        <ele>776</ele>
        <time>2018-02-15T20:45:15Z</time>
      </trkpt>
      <trkpt lat="45.37428" lon="6.32121">
        <ele>775</ele>
        <time>2018-02-15T20:46:15Z</time>
      </trkpt>
      <trkpt lat="45.37389" lon="6.32111">
        <ele>768</ele>
        <time>2018-02-15T20:47:15Z</time>
      </trkpt>
      <trkpt lat="45.37371" lon="6.3211">
        <ele>766</ele>
        <time>2018-02-15T20:48:15Z</time>
      </trkpt>
      <trkpt lat="45.37352" lon="6.32114">
        <ele>764</ele>
        <time>2018-02-15T20:49:15Z</time>
      </trkpt>
      <trkpt lat="45.37321" lon="6.3214">
        <ele>766</ele>
        <time>2018-02-15T20:50:15Z</time>
      </trkpt>
      <trkpt lat="45.37275" lon="6.32169">
        <ele>764</ele>
        <time>2018-02-15T20:51:15Z</time>
      </trkpt>
      <trkpt lat="45.37216" lon="6.32198">
        <ele>766</ele>
        <time>2018-02-15T20:52:15Z</time>
      </trkpt>
      <trkpt lat="45.37202" lon="6.32198">
        <ele>765</ele>
        <time>2018-02-15T20:53:15Z</time>
      </trkpt>
      <trkpt lat="45.37186" lon="6.32189">
        <ele>762</ele>
        <time>2018-02-15T20:54:15Z</time>
      </trkpt>
      <trkpt lat="45.37123" lon="6.32115">
        <ele>743</ele>
        <time>2018-02-15T20:55:15Z</time>
      </trkpt>
      <trkpt lat="45.37085" lon="6.32086">
        <ele>737</ele>
        <time>2018-02-15T20:56:15Z</time>
      </trkpt>
      <trkpt lat="45.37066" lon="6.32055">
        <ele>732</ele>
        <time>2018-02-15T20:57:15Z</time>
      </trkpt>
      <trkpt lat="45.37052" lon="6.32038">
        <ele>728</ele>
        <time>2018-02-15T20:58:15Z</time>
      </trkpt>
      <trkpt lat="45.37041" lon="6.32029">
        <ele>727</ele>
        <time>2018-02-15T20:59:15Z</time>
      </trkpt>
      <trkpt lat="45.37033" lon="6.32024">
        <ele>726</ele>
        <time>2018-02-15T21:00:15Z</time>
      </trkpt>
      <trkpt lat="45.37002" lon="6.32027">
        <ele>726</ele>
        <time>2018-02-15T21:01:15Z</time>
      </trkpt>
      <trkpt lat="45.36983" lon="6.32041">
        <ele>726</ele>
        <time>2018-02-15T21:02:15Z</time>
      </trkpt>
      <trkpt lat="45.36962" lon="6.32051">
        <ele>725</ele>
        <time>2018-02-15T21:03:15Z</time>
      </trkpt>
      <trkpt lat="45.36939" lon="6.32055">
        <ele>722</ele>
        <time>2018-02-15T21:04:15Z</time>
      </trkpt>
      <trkpt lat="45.36796" lon="6.32034">
        <ele>702</ele>
        <time>2018-02-15T21:05:15Z</time>
      </trkpt>
      <trkpt lat="45.36757" lon="6.32037">
        <ele>698</ele>
        <time>2018-02-15T21:06:15Z</time>
      </trkpt>
      <trkpt lat="45.36729" lon="6.32045">
        <ele>694</ele>
        <time>2018-02-15T21:07:15Z</time>
      </trkpt>
      <trkpt lat="45.36708" lon="6.32056">
        <ele>690</ele>
        <time>2018-02-15T21:08:15Z</time>
      </trkpt>
      <trkpt lat="45.36701" lon="6.32056">
        <ele>688</ele>
        <time>2018-02-15T21:09:15Z</time>
      </trkpt>
      <trkpt lat="45.36697" lon="6.32051">
        <ele>685</ele>
        <time>2018-02-15T21:10:15Z</time>
      </trkpt>
      <trkpt lat="45.36696" lon="6.3204">
        <ele>682</ele>
        <time>2018-02-15T21:11:15Z</time>
      </trkpt>
      <trkpt lat="45.36701" lon="6.32027">
        <ele>680</ele>
        <time>2018-02-15T21:12:15Z</time>
      </trkpt>
      <trkpt lat="45.36758" lon="6.31989">
        <ele>685</ele>
        <time>2018-02-15T21:13:15Z</time>
      </trkpt>
      <trkpt lat="45.36949" lon="6.3184">
        <ele>663</ele>
        <time>2018-02-15T21:14:15Z</time>
      </trkpt>
      <trkpt lat="45.36974" lon="6.31827">
        <ele>662</ele>
        <time>2018-02-15T21:15:15Z</time>
      </trkpt>
      <trkpt lat="45.36977" lon="6.31819">
        <ele>660</ele>
        <time>2018-02-15T21:16:15Z</time>
      </trkpt>
      <trkpt lat="45.36974" lon="6.31811">
        <ele>658</ele>
        <time>2018-02-15T21:17:15Z</time>
      </trkpt>
      <trkpt lat="45.36966" lon="6.31808">
        <ele>657</ele>
        <time>2018-02-15T21:18:15Z</time>
      </trkpt>
      <trkpt lat="45.36898" lon="6.31813">
        <ele>653</ele>
        <time>2018-02-15T21:19:15Z</time>
      </trkpt>
      <trkpt lat="45.36833" lon="6.31821">
        <ele>650</ele>
        <time>2018-02-15T21:20:15Z</time>
      </trkpt>
      <trkpt lat="45.36764" lon="6.31824">
        <ele>645</ele>
        <time>2018-02-15T21:21:15Z</time>
      </trkpt>
      <trkpt lat="45.3676" lon="6.31821">
        <ele>644</ele>
        <time>2018-02-15T21:22:15Z</time>
      </trkpt>
      <trkpt lat="45.36758" lon="6.31815">
        <ele>643</ele>
        <time>2018-02-15T21:23:15Z</time>
      </trkpt>
      <trkpt lat="45.36758" lon="6.31809">
        <ele>642</ele>
        <time>2018-02-15T21:24:15Z</time>
      </trkpt>
      <trkpt lat="45.36762" lon="6.318">
        <ele>640</ele>
        <time>2018-02-15T21:25:15Z</time>
      </trkpt>
      <trkpt lat="45.36789" lon="6.31785">
        <ele>639</ele>
        <time>2018-02-15T21:26:15Z</time>
      </trkpt>
      <trkpt lat="45.36814" lon="6.31767">
        <ele>637</ele>
        <time>2018-02-15T21:27:15Z</time>
      </trkpt>
      <trkpt lat="45.36835" lon="6.3175">
        <ele>635</ele>
        <time>2018-02-15T21:28:15Z</time>
      </trkpt>
      <trkpt lat="45.36877" lon="6.31712">
        <ele>630</ele>
        <time>2018-02-15T21:29:15Z</time>
      </trkpt>
      <trkpt lat="45.36884" lon="6.31708">
        <ele>630</ele>
        <time>2018-02-15T21:30:15Z</time>
      </trkpt>
      <trkpt lat="45.36907" lon="6.317">
        <ele>630</ele>
        <time>2018-02-15T21:31:15Z</time>
      </trkpt>
      <trkpt lat="45.36913" lon="6.31691">
        <ele>629</ele>
        <time>2018-02-15T21:32:15Z</time>
      </trkpt>
      <trkpt lat="45.36913" lon="6.31685">
        <ele>628</ele>
        <time>2018-02-15T21:33:15Z</time>
      </trkpt>
      <trkpt lat="45.36911" lon="6.31679">
        <ele>626</ele>
        <time>2018-02-15T21:34:15Z</time>
      </trkpt>
      <trkpt lat="45.36905" lon="6.31675">
        <ele>625</ele>
        <time>2018-02-15T21:35:15Z</time>
      </trkpt>
      <trkpt lat="45.36869" lon="6.31671">
        <ele>621</ele>
        <time>2018-02-15T21:36:15Z</time>
      </trkpt>
      <trkpt lat="45.36785" lon="6.31641">
        <ele>610</ele>
        <time>2018-02-15T21:37:15Z</time>
      </trkpt>
      <trkpt lat="45.36766" lon="6.31639">
        <ele>609</ele>
        <time>2018-02-15T21:38:15Z</time>
      </trkpt>
      <trkpt lat="45.36742" lon="6.31651">
        <ele>610</ele>
        <time>2018-02-15T21:39:15Z</time>
      </trkpt>
      <trkpt lat="45.36734" lon="6.31652">
        <ele>609</ele>
        <time>2018-02-15T21:40:15Z</time>
      </trkpt>
      <trkpt lat="45.3673" lon="6.31649">
        <ele>608</ele>
        <time>2018-02-15T21:41:15Z</time>
      </trkpt>
      <trkpt lat="45.36727" lon="6.31643">
        <ele>607</ele>
        <time>2018-02-15T21:42:15Z</time>
      </trkpt>
      <trkpt lat="45.36726" lon="6.31633">
        <ele>605</ele>
        <time>2018-02-15T21:43:15Z</time>
      </trkpt>
      <trkpt lat="45.36733" lon="6.31623">
        <ele>604</ele>
        <time>2018-02-15T21:44:15Z</time>
      </trkpt>
      <trkpt lat="45.36787" lon="6.31586">
        <ele>600</ele>
        <time>2018-02-15T21:45:15Z</time>
      </trkpt>
      <trkpt lat="45.36797" lon="6.31573">
        <ele>598</ele>
        <time>2018-02-15T21:46:15Z</time>
      </trkpt>
      <trkpt lat="45.36799" lon="6.31561">
        <ele>595</ele>
        <time>2018-02-15T21:47:15Z</time>
      </trkpt>
      <trkpt lat="45.36794" lon="6.31548">
        <ele>592</ele>
        <time>2018-02-15T21:48:15Z</time>
      </trkpt>
      <trkpt lat="45.36785" lon="6.31545">
        <ele>592</ele>
        <time>2018-02-15T21:49:15Z</time>
      </trkpt>
      <trkpt lat="45.36702" lon="6.31574">
        <ele>592</ele>
        <time>2018-02-15T21:50:15Z</time>
      </trkpt>
      <trkpt lat="45.36631" lon="6.31602">
        <ele>589</ele>
        <time>2018-02-15T21:51:15Z</time>
      </trkpt>
      <trkpt lat="45.36574" lon="6.31613">
        <ele>583</ele>
        <time>2018-02-15T21:52:15Z</time>
      </trkpt>
      <trkpt lat="45.36553" lon="6.31625">
        <ele>582</ele>
        <time>2018-02-15T21:53:15Z</time>
      </trkpt>
      <trkpt lat="45.36516" lon="6.31658">
        <ele>579</ele>
        <time>2018-02-15T21:54:15Z</time>
      </trkpt>
      <trkpt lat="45.36499" lon="6.31669">
        <ele>576</ele>
        <time>2018-02-15T21:55:15Z</time>
      </trkpt>
      <trkpt lat="45.3648" lon="6.31672">
        <ele>576</ele>
        <time>2018-02-15T21:56:15Z</time>
      </trkpt>
      <trkpt lat="45.36463" lon="6.31667">
        <ele>575</ele>
        <time>2018-02-15T21:57:15Z</time>
      </trkpt>
      <trkpt lat="45.36449" lon="6.31658">
        <ele>574</ele>
        <time>2018-02-15T21:58:15Z</time>
      </trkpt>
      <trkpt lat="45.36437" lon="6.3164">
        <ele>572</ele>
        <time>2018-02-15T21:59:15Z</time>
      </trkpt>
      <trkpt lat="45.36433" lon="6.31625">
        <ele>571</ele>
        <time>2018-02-15T22:00:15Z</time>
      </trkpt>
      <trkpt lat="45.36376" lon="6.31617">
        <ele>568</ele>
        <time>2018-02-15T22:01:15Z</time>
      </trkpt>
      <trkpt lat="45.36355" lon="6.31608">
        <ele>567</ele>
        <time>2018-02-15T22:02:15Z</time>
      </trkpt>
      <trkpt lat="45.3632" lon="6.31583">
        <ele>564</ele>
        <time>2018-02-15T22:03:15Z</time>
      </trkpt>
      <trkpt lat="45.36295" lon="6.31586">
        <ele>562</ele>
        <time>2018-02-15T22:04:15Z</time>
      </trkpt>
      <trkpt lat="45.36274" lon="6.31599">
        <ele>561</ele>
        <time>2018-02-15T22:05:15Z</time>
      </trkpt>
      <trkpt lat="45.36251" lon="6.31617">
        <ele>561</ele>
        <time>2018-02-15T22:06:15Z</time>
      </trkpt>
      <trkpt lat="45.36203" lon="6.31663">
        <ele>561</ele>
        <time>2018-02-15T22:07:15Z</time>
      </trkpt>
      <trkpt lat="45.36168" lon="6.31677">
        <ele>561</ele>
        <time>2018-02-15T22:08:15Z</time>
      </trkpt>
      <trkpt lat="45.36136" lon="6.31707">
        <ele>561</ele>
        <time>2018-02-15T22:09:15Z</time>
      </trkpt>
      <trkpt lat="45.36116" lon="6.3171">
        <ele>560</ele>
        <time>2018-02-15T22:10:15Z</time>
      </trkpt>
      <trkpt lat="45.36106" lon="6.31709">
        <ele>560</ele>
        <time>2018-02-15T22:11:15Z</time>
      </trkpt>
      <trkpt lat="45.36074" lon="6.31644">
        <ele>554</ele>
        <time>2018-02-15T22:12:15Z</time>
      </trkpt>
      <trkpt lat="45.36068" lon="6.3162">
        <ele>552</ele>
        <time>2018-02-15T22:13:15Z</time>
      </trkpt>
      <trkpt lat="45.3607" lon="6.31587">
        <ele>550</ele>
        <time>2018-02-15T22:14:15Z</time>
      </trkpt>
      <trkpt lat="45.36059" lon="6.3151">
        <ele>545</ele>
        <time>2018-02-15T22:15:15Z</time>
      </trkpt>
      <trkpt lat="45.36051" lon="6.31487">
        <ele>543</ele>
        <time>2018-02-15T22:16:15Z</time>
      </trkpt>
      <trkpt lat="45.36016" lon="6.31409">
        <ele>536</ele>
        <time>2018-02-15T22:17:15Z</time>
      </trkpt>
      <trkpt lat="45.3601" lon="6.31411">
        <ele>535</ele>
        <time>2018-02-15T22:18:15Z</time>
      </trkpt>
      <trkpt lat="45.35992" lon="6.31404">
        <ele>534</ele>
        <time>2018-02-15T22:19:15Z</time>
      </trkpt>
      <trkpt lat="45.35918" lon="6.31324">
        <ele>527</ele>
        <time>2018-02-15T22:20:15Z</time>
      </trkpt>
      <trkpt lat="45.359" lon="6.31297">
        <ele>524</ele>
        <time>2018-02-15T22:21:15Z</time>
      </trkpt>
      <trkpt lat="45.35795" lon="6.31021">
        <ele>504</ele>
        <time>2018-02-15T22:22:15Z</time>
      </trkpt>
      <trkpt lat="45.35732" lon="6.30888">
        <ele>494</ele>
        <time>2018-02-15T22:23:15Z</time>
      </trkpt>
      <trkpt lat="45.35669" lon="6.30764">
        <ele>487</ele>
        <time>2018-02-15T22:24:15Z</time>
      </trkpt>
      <trkpt lat="45.35606" lon="6.30647">
        <ele>476</ele>
        <time>2018-02-15T22:25:15Z</time>
      </trkpt>
      <trkpt lat="45.35531" lon="6.30526">
        <ele>468</ele>
        <time>2018-02-15T22:26:15Z</time>
      </trkpt>
      <trkpt lat="45.35466" lon="6.30441">
        <ele>462</ele>
        <time>2018-02-15T22:27:15Z</time>
      </trkpt>
      <trkpt lat="45.35367" lon="6.30319">
        <ele>453</ele>
        <time>2018-02-15T22:28:15Z</time>
      </trkpt>
      <trkpt lat="45.35344" lon="6.30286">
        <ele>450</ele>
        <time>2018-02-15T22:29:15Z</time>
      </trkpt>
      <trkpt lat="45.35307" lon="6.30307">
        <ele>449</ele>
        <time>2018-02-15T22:30:15Z</time>
      </trkpt>
      <trkpt lat="45.35278" lon="6.30273">
        <ele>447</ele>
        <time>2018-02-15T22:31:15Z</time>
      </trkpt>
      <trkpt lat="45.35271" lon="6.30288">
        <ele>447</ele>
        <time>2018-02-15T22:32:15Z</time>
      </trkpt>
      <trkpt lat="45.35018" lon="6.30005">
        <ele>450</ele>
        <time>2018-02-15T22:33:15Z</time>
      </trkpt>
      <trkpt lat="45.35009" lon="6.2999">
        <ele>450</ele>
        <time>2018-02-15T22:34:15Z</time>
      </trkpt>
      <trkpt lat="45.35014" lon="6.29984">
        <ele>450</ele>
        <time>2018-02-15T22:35:15Z</time>
      </trkpt>
      <trkpt lat="45.35017" lon="6.29975">
        <ele>450</ele>
        <time>2018-02-15T22:36:15Z</time>
      </trkpt>
      <trkpt lat="45.35016" lon="6.29966">
        <ele>450</ele>
        <time>2018-02-15T22:37:15Z</time>
      </trkpt>
      <trkpt lat="45.35012" lon="6.29959">
        <ele>451</ele>
        <time>2018-02-15T22:38:15Z</time>
      </trkpt>
      <trkpt lat="45.35008" lon="6.29955">
        <ele>451</ele>
        <time>2018-02-15T22:39:15Z</time>
      </trkpt>
      <trkpt lat="45.35003" lon="6.29954">
        <ele>451</ele>
        <time>2018-02-15T22:40:15Z</time>
      </trkpt>
      <trkpt lat="45.34997" lon="6.29956">
        <ele>451</ele>
        <time>2018-02-15T22:41:15Z</time>
      </trkpt>
      <trkpt lat="45.3497" lon="6.29953">
        <ele>451</ele>
        <time>2018-02-15T22:42:15Z</time>
      </trkpt>
      <trkpt lat="45.34892" lon="6.29863">
        <ele>453</ele>
        <time>2018-02-15T22:43:15Z</time>
      </trkpt>
      <trkpt lat="45.3488" lon="6.29838">
        <ele>454</ele>
        <time>2018-02-15T22:44:15Z</time>
      </trkpt>
      <trkpt lat="45.34874" lon="6.29831">
        <ele>454</ele>
        <time>2018-02-15T22:45:15Z</time>
      </trkpt>
      <trkpt lat="45.34851" lon="6.29816">
        <ele>456</ele>
        <time>2018-02-15T22:46:15Z</time>
      </trkpt>
      <trkpt lat="45.3483" lon="6.29795">
        <ele>457</ele>
        <time>2018-02-15T22:47:15Z</time>
      </trkpt>
      <trkpt lat="45.34272" lon="6.29169">
        <ele>484</ele>
        <time>2018-02-15T22:48:15Z</time>
      </trkpt>
      <trkpt lat="45.34241" lon="6.29138">
        <ele>486</ele>
        <time>2018-02-15T22:49:15Z</time>
      </trkpt>
      <trkpt lat="45.34191" lon="6.29103">
        <ele>488</ele>
        <time>2018-02-15T22:50:15Z</time>
      </trkpt>
      <trkpt lat="45.34146" lon="6.29063">
        <ele>491</ele>
        <time>2018-02-15T22:51:15Z</time>
      </trkpt>
      <trkpt lat="45.34091" lon="6.29026">
        <ele>492</ele>
        <time>2018-02-15T22:52:15Z</time>
      </trkpt>
      <trkpt lat="45.3399" lon="6.28981">
        <ele>502</ele>
        <time>2018-02-15T22:53:15Z</time>
      </trkpt>
      <trkpt lat="45.33877" lon="6.2894">
        <ele>505</ele>
        <time>2018-02-15T22:54:15Z</time>
      </trkpt>
      <trkpt lat="45.33462" lon="6.28795">
        <ele>533</ele>
        <time>2018-02-15T22:55:15Z</time>
      </trkpt>
      <trkpt lat="45.33422" lon="6.28792">
        <ele>537</ele>
        <time>2018-02-15T22:56:15Z</time>
      </trkpt>
      <trkpt lat="45.33376" lon="6.28796">
        <ele>540</ele>
        <time>2018-02-15T22:57:15Z</time>
      </trkpt>
      <trkpt lat="45.33366" lon="6.28793">
        <ele>540</ele>
        <time>2018-02-15T22:58:15Z</time>
      </trkpt>
      <trkpt lat="45.33355" lon="6.2878">
        <ele>541</ele>
        <time>2018-02-15T22:59:15Z</time>
      </trkpt>
      <trkpt lat="45.33347" lon="6.28758">
        <ele>543</ele>
        <time>2018-02-15T23:00:15Z</time>
      </trkpt>
      <trkpt lat="45.33336" lon="6.28692">
        <ele>546</ele>
        <time>2018-02-15T23:01:15Z</time>
      </trkpt>
      <trkpt lat="45.33335" lon="6.28668">
        <ele>547</ele>
        <time>2018-02-15T23:02:15Z</time>
      </trkpt>
      <trkpt lat="45.3334" lon="6.28648">
        <ele>549</ele>
        <time>2018-02-15T23:03:15Z</time>
      </trkpt>
      <trkpt lat="45.33362" lon="6.28603">
        <ele>555</ele>
        <time>2018-02-15T23:04:15Z</time>
      </trkpt>
      <trkpt lat="45.33364" lon="6.28596">
        <ele>556</ele>
        <time>2018-02-15T23:05:15Z</time>
      </trkpt>
      <trkpt lat="45.33363" lon="6.28584">
        <ele>558</ele>
        <time>2018-02-15T23:06:15Z</time>
      </trkpt>
      <trkpt lat="45.33359" lon="6.28579">
        <ele>560</ele>
        <time>2018-02-15T23:07:15Z</time>
      </trkpt>
      <trkpt lat="45.33353" lon="6.28575">
        <ele>562</ele>
        <time>2018-02-15T23:08:15Z</time>
      </trkpt>
      <trkpt lat="45.33338" lon="6.28575">
        <ele>562</ele>
        <time>2018-02-15T23:09:15Z</time>
      </trkpt>
      <trkpt lat="45.33301" lon="6.28585">
        <ele>560</ele>
        <time>2018-02-15T23:10:15Z</time>
      </trkpt>
      <trkpt lat="45.33283" lon="6.28587">
        <ele>560</ele>
        <time>2018-02-15T23:11:15Z</time>
      </trkpt>
      <trkpt lat="45.33269" lon="6.28586">
        <ele>561</ele>
        <time>2018-02-15T23:12:15Z</time>
      </trkpt>
      <trkpt lat="45.33118" lon="6.28504">
        <ele>570</ele>
        <time>2018-02-15T23:13:15Z</time>
      </trkpt>
      <trkpt lat="45.331" lon="6.28488">
        <ele>571</ele>
        <time>2018-02-15T23:14:15Z</time>
      </trkpt>
      <trkpt lat="45.33089" lon="6.28472">
        <ele>573</ele>
        <time>2018-02-15T23:15:15Z</time>
      </trkpt>
      <trkpt lat="45.3306" lon="6.28407">
        <ele>579</ele>
        <time>2018-02-15T23:16:15Z</time>
      </trkpt>
      <trkpt lat="45.33026" lon="6.2836">
        <ele>582</ele>
        <time>2018-02-15T23:17:15Z</time>
      </trkpt>
      <trkpt lat="45.33001" lon="6.28299">
        <ele>589</ele>
        <time>2018-02-15T23:18:15Z</time>
      </trkpt>
      <trkpt lat="45.32977" lon="6.2825">
        <ele>597</ele>
        <time>2018-02-15T23:19:15Z</time>
      </trkpt>
      <trkpt lat="45.32908" lon="6.28151">
        <ele>603</ele>
        <time>2018-02-15T23:20:15Z</time>
      </trkpt>
      <trkpt lat="45.32871" lon="6.2811">
        <ele>607</ele>
        <time>2018-02-15T23:21:15Z</time>
      </trkpt>
      <trkpt lat="45.32856" lon="6.28085">
        <ele>610</ele>
        <time>2018-02-15T23:22:15Z</time>
      </trkpt>
      <trkpt lat="45.32842" lon="6.28066">
        <ele>614</ele>
        <time>2018-02-15T23:23:15Z</time>
      </trkpt>
      <trkpt lat="45.32807" lon="6.28038">
        <ele>617</ele>
        <time>2018-02-15T23:24:15Z</time>
      </trkpt>
      <trkpt lat="45.32791" lon="6.28018">
        <ele>619</ele>
        <time>2018-02-15T23:25:15Z</time>
      </trkpt>
      <trkpt lat="45.32735" lon="6.2797">
        <ele>623</ele>
        <time>2018-02-15T23:26:15Z</time>
      </trkpt>
      <trkpt lat="45.32668" lon="6.27898">
        <ele>635</ele>
        <time>2018-02-15T23:27:15Z</time>
      </trkpt>
      <trkpt lat="45.32642" lon="6.27883">
        <ele>638</ele>
        <time>2018-02-15T23:28:15Z</time>
      </trkpt>
      <trkpt lat="45.32613" lon="6.2788">
        <ele>637</ele>
        <time>2018-02-15T23:29:15Z</time>
      </trkpt>
      <trkpt lat="45.32565" lon="6.27882">
        <ele>633</ele>
        <time>2018-02-15T23:30:15Z</time>
      </trkpt>
      <trkpt lat="45.32555" lon="6.27876">
        <ele>635</ele>
        <time>2018-02-15T23:31:15Z</time>
      </trkpt>
      <trkpt lat="45.32548" lon="6.27863">
        <ele>637</ele>
        <time>2018-02-15T23:32:15Z</time>
      </trkpt>
      <trkpt lat="45.32544" lon="6.27843">
        <ele>640</ele>
        <time>2018-02-15T23:33:15Z</time>
      </trkpt>
      <trkpt lat="45.32543" lon="6.27822">
        <ele>643</ele>
        <time>2018-02-15T23:34:15Z</time>
      </trkpt>
      <trkpt lat="45.32545" lon="6.27802">
        <ele>645</ele>
        <time>2018-02-15T23:35:15Z</time>
      </trkpt>
      <trkpt lat="45.32553" lon="6.27777">
        <ele>648</ele>
        <time>2018-02-15T23:36:15Z</time>
      </trkpt>
      <trkpt lat="45.32552" lon="6.2775">
        <ele>650</ele>
        <time>2018-02-15T23:37:15Z</time>
      </trkpt>
      <trkpt lat="45.32544" lon="6.27682">
        <ele>656</ele>
        <time>2018-02-15T23:38:15Z</time>
      </trkpt>
      <trkpt lat="45.32536" lon="6.27652">
        <ele>659</ele>
        <time>2018-02-15T23:39:15Z</time>
      </trkpt>
      <trkpt lat="45.32524" lon="6.27622">
        <ele>663</ele>
        <time>2018-02-15T23:40:15Z</time>
      </trkpt>
      <trkpt lat="45.32512" lon="6.276">
        <ele>665</ele>
        <time>2018-02-15T23:41:15Z</time>
      </trkpt>
      <trkpt lat="45.32492" lon="6.27573">
        <ele>668</ele>
        <time>2018-02-15T23:42:15Z</time>
      </trkpt>
      <trkpt lat="45.32474" lon="6.27556">
        <ele>671</ele>
        <time>2018-02-15T23:43:15Z</time>
      </trkpt>
      <trkpt lat="45.32409" lon="6.27488">
        <ele>666</ele>
        <time>2018-02-15T23:44:15Z</time>
      </trkpt>
      <trkpt lat="45.32377" lon="6.27429">
        <ele>679</ele>
        <time>2018-02-15T23:45:15Z</time>
      </trkpt>
      <trkpt lat="45.32362" lon="6.27409">
        <ele>681</ele>
        <time>2018-02-15T23:46:15Z</time>
      </trkpt>
      <trkpt lat="45.32347" lon="6.27402">
        <ele>680</ele>
        <time>2018-02-15T23:47:15Z</time>
      </trkpt>
      <trkpt lat="45.32323" lon="6.27399">
        <ele>676</ele>
        <time>2018-02-15T23:48:15Z</time>
      </trkpt>
      <trkpt lat="45.32291" lon="6.27397">
        <ele>676</ele>
        <time>2018-02-15T23:49:15Z</time>
      </trkpt>
      <trkpt lat="45.32276" lon="6.27392">
        <ele>676</ele>
        <time>2018-02-15T23:50:15Z</time>
      </trkpt>
      <trkpt lat="45.32207" lon="6.27321">
        <ele>681</ele>
        <time>2018-02-15T23:51:15Z</time>
      </trkpt>
      <trkpt lat="45.32199" lon="6.2731">
        <ele>682</ele>
        <time>2018-02-15T23:52:15Z</time>
      </trkpt>
      <trkpt lat="45.32194" lon="6.27297">
        <ele>683</ele>
        <time>2018-02-15T23:53:15Z</time>
      </trkpt>
      <trkpt lat="45.32187" lon="6.27269">
        <ele>685</ele>
        <time>2018-02-15T23:54:15Z</time>
      </trkpt>
      <trkpt lat="45.32174" lon="6.2723">
        <ele>691</ele>
        <time>2018-02-15T23:55:15Z</time>
      </trkpt>
      <trkpt lat="45.32165" lon="6.27207">
        <ele>695</ele>
        <time>2018-02-15T23:56:15Z</time>
      </trkpt>
      <trkpt lat="45.3216" lon="6.27199">
        <ele>696</ele>
        <time>2018-02-15T23:57:15Z</time>
      </trkpt>
      <trkpt lat="45.32146" lon="6.2719">
        <ele>698</ele>
        <time>2018-02-15T23:58:15Z</time>
      </trkpt>
      <trkpt lat="45.32115" lon="6.27184">
        <ele>698</ele>
        <time>2018-02-15T23:59:15Z</time>
      </trkpt>
      <trkpt lat="45.32067" lon="6.27153">
        <ele>704</ele>
        <time>2018-02-16T00:00:15Z</time>
      </trkpt>
      <trkpt lat="45.3203" lon="6.2714">
        <ele>706</ele>
        <time>2018-02-16T00:01:15Z</time>
      </trkpt>
      <trkpt lat="45.32012" lon="6.27131">
        <ele>707</ele>
        <time>2018-02-16T00:02:15Z</time>
      </trkpt>
      <trkpt lat="45.31996" lon="6.27119">
        <ele>708</ele>
        <time>2018-02-16T00:03:15Z</time>
      </trkpt>
      <trkpt lat="45.3198" lon="6.27104">
        <ele>710</ele>
        <time>2018-02-16T00:04:15Z</time>
      </trkpt>
      <trkpt lat="45.31933" lon="6.27065">
        <ele>712</ele>
        <time>2018-02-16T00:05:15Z</time>
      </trkpt>
      <trkpt lat="45.31921" lon="6.27044">
        <ele>714</ele>
        <time>2018-02-16T00:06:15Z</time>
      </trkpt>
      <trkpt lat="45.31896" lon="6.26993">
        <ele>723</ele>
        <time>2018-02-16T00:07:15Z</time>
      </trkpt>
      <trkpt lat="45.3188" lon="6.26975">
        <ele>726</ele>
        <time>2018-02-16T00:08:15Z</time>
      </trkpt>
      <trkpt lat="45.31861" lon="6.26961">
        <ele>726</ele>
        <time>2018-02-16T00:09:15Z</time>
      </trkpt>
      <trkpt lat="45.31834" lon="6.26948">
        <ele>723</ele>
        <time>2018-02-16T00:10:15Z</time>
      </trkpt>
      <trkpt lat="45.31803" lon="6.26938">
        <ele>724</ele>
        <time>2018-02-16T00:11:15Z</time>
      </trkpt>
      <trkpt lat="45.31794" lon="6.26932">
        <ele>725</ele>
        <time>2018-02-16T00:12:15Z</time>
      </trkpt>
      <trkpt lat="45.31788" lon="6.26922">
        <ele>725</ele>
        <time>2018-02-16T00:13:15Z</time>
      </trkpt>
      <trkpt lat="45.31784" lon="6.26901">
        <ele>730</ele>
        <time>2018-02-16T00:14:15Z</time>
      </trkpt>
      <trkpt lat="45.31776" lon="6.26882">
        <ele>733</ele>
        <time>2018-02-16T00:15:15Z</time>
      </trkpt>
      <trkpt lat="45.31734" lon="6.26827">
        <ele>738</ele>
        <time>2018-02-16T00:16:15Z</time>
      </trkpt>
      <trkpt lat="45.31701" lon="6.26776">
        <ele>749</ele>
        <time>2018-02-16T00:17:15Z</time>
      </trkpt>
      <trkpt lat="45.31687" lon="6.26762">
        <ele>748</ele>
        <time>2018-02-16T00:18:15Z</time>
      </trkpt>
      <trkpt lat="45.31659" lon="6.26742">
        <ele>745</ele>
        <time>2018-02-16T00:19:15Z</time>
      </trkpt>
      <trkpt lat="45.31626" lon="6.26721">
        <ele>749</ele>
        <time>2018-02-16T00:20:15Z</time>
      </trkpt>
      <trkpt lat="45.31582" lon="6.26689">
        <ele>748</ele>
        <time>2018-02-16T00:21:15Z</time>
      </trkpt>
      <trkpt lat="45.31555" lon="6.26675">
        <ele>750</ele>
        <time>2018-02-16T00:22:15Z</time>
      </trkpt>
      <trkpt lat="45.31539" lon="6.26664">
        <ele>750</ele>
        <time>2018-02-16T00:23:15Z</time>
      </trkpt>
      <trkpt lat="45.31525" lon="6.26643">
        <ele>756</ele>
        <time>2018-02-16T00:24:15Z</time>
      </trkpt>
      <trkpt lat="45.31498" lon="6.26598">
        <ele>764</ele>
        <time>2018-02-16T00:25:15Z</time>
      </trkpt>
      <trkpt lat="45.31482" lon="6.26585">
        <ele>765</ele>
        <time>2018-02-16T00:26:15Z</time>
      </trkpt>
      <trkpt lat="45.31461" lon="6.26575">
        <ele>767</ele>
        <time>2018-02-16T00:27:15Z</time>
      </trkpt>
      <trkpt lat="45.31432" lon="6.26547">
        <ele>772</ele>
        <time>2018-02-16T00:28:15Z</time>
      </trkpt>
      <trkpt lat="45.31396" lon="6.26523">
        <ele>776</ele>
        <time>2018-02-16T00:29:15Z</time>
      </trkpt>
      <trkpt lat="45.31374" lon="6.26519">
        <ele>777</ele>
        <time>2018-02-16T00:30:15Z</time>
      </trkpt>
      <trkpt lat="45.3133" lon="6.26518">
        <ele>777</ele>
        <time>2018-02-16T00:31:15Z</time>
      </trkpt>
      <trkpt lat="45.31311" lon="6.26521">
        <ele>778</ele>
        <time>2018-02-16T00:32:15Z</time>
      </trkpt>
      <trkpt lat="45.31296" lon="6.26516">
        <ele>778</ele>
        <time>2018-02-16T00:33:15Z</time>
      </trkpt>
      <trkpt lat="45.31286" lon="6.26509">
        <ele>778</ele>
        <time>2018-02-16T00:34:15Z</time>
      </trkpt>
      <trkpt lat="45.31282" lon="6.26504">
        <ele>777</ele>
        <time>2018-02-16T00:35:15Z</time>
      </trkpt>
      <trkpt lat="45.31282" lon="6.26496">
        <ele>778</ele>
        <time>2018-02-16T00:36:15Z</time>
      </trkpt>
      <trkpt lat="45.31287" lon="6.26492">
        <ele>779</ele>
        <time>2018-02-16T00:37:15Z</time>
      </trkpt>
      <trkpt lat="45.31293" lon="6.26494">
        <ele>779</ele>
        <time>2018-02-16T00:38:15Z</time>
      </trkpt>
      <trkpt lat="45.31303" lon="6.26503">
        <ele>777</ele>
        <time>2018-02-16T00:39:15Z</time>
      </trkpt>
      <trkpt lat="45.31311" lon="6.26507">
        <ele>777</ele>
        <time>2018-02-16T00:40:15Z</time>
      </trkpt>
      <trkpt lat="45.31319" lon="6.26508">
        <ele>777</ele>
        <time>2018-02-16T00:41:15Z</time>
      </trkpt>
      <trkpt lat="45.3133" lon="6.26507">
        <ele>777</ele>
        <time>2018-02-16T00:42:15Z</time>
      </trkpt>
      <trkpt lat="45.31368" lon="6.26492">
        <ele>783</ele>
        <time>2018-02-16T00:43:15Z</time>
      </trkpt>
      <trkpt lat="45.31416" lon="6.26485">
        <ele>791</ele>
        <time>2018-02-16T00:44:15Z</time>
      </trkpt>
      <trkpt lat="45.31452" lon="6.26492">
        <ele>791</ele>
        <time>2018-02-16T00:45:15Z</time>
      </trkpt>
      <trkpt lat="45.31482" lon="6.26493">
        <ele>793</ele>
        <time>2018-02-16T00:46:15Z</time>
      </trkpt>
      <trkpt lat="45.3149" lon="6.26501">
        <ele>791</ele>
        <time>2018-02-16T00:47:15Z</time>
      </trkpt>
      <trkpt lat="45.31499" lon="6.26505">
        <ele>790</ele>
        <time>2018-02-16T00:48:15Z</time>
      </trkpt>
      <trkpt lat="45.31519" lon="6.26505">
        <ele>796</ele>
        <time>2018-02-16T00:49:15Z</time>
      </trkpt>
      <trkpt lat="45.31571" lon="6.26526">
        <ele>803</ele>
        <time>2018-02-16T00:50:15Z</time>
      </trkpt>
      <trkpt lat="45.31583" lon="6.26539">
        <ele>800</ele>
        <time>2018-02-16T00:51:15Z</time>
      </trkpt>
      <trkpt lat="45.3159" lon="6.26542">
        <ele>802</ele>
        <time>2018-02-16T00:52:15Z</time>
      </trkpt>
      <trkpt lat="45.31596" lon="6.26536">
        <ele>807</ele>
        <time>2018-02-16T00:53:15Z</time>
      </trkpt>
      <trkpt lat="45.31597" lon="6.26529">
        <ele>810</ele>
        <time>2018-02-16T00:54:15Z</time>
      </trkpt>
      <trkpt lat="45.31595" lon="6.26524">
        <ele>812</ele>
        <time>2018-02-16T00:55:15Z</time>
      </trkpt>
      <trkpt lat="45.31591" lon="6.2652">
        <ele>812</ele>
        <time>2018-02-16T00:56:15Z</time>
      </trkpt>
      <trkpt lat="45.31541" lon="6.26498">
        <ele>805</ele>
        <time>2018-02-16T00:57:15Z</time>
      </trkpt>
      <trkpt lat="45.3151" lon="6.26458">
        <ele>814</ele>
        <time>2018-02-16T00:58:15Z</time>
      </trkpt>
      <trkpt lat="45.31501" lon="6.26447">
        <ele>816</ele>
        <time>2018-02-16T00:59:15Z</time>
      </trkpt>
      <trkpt lat="45.31494" lon="6.26443">
        <ele>817</ele>
        <time>2018-02-16T01:00:15Z</time>
      </trkpt>
      <trkpt lat="45.31426" lon="6.26428">
        <ele>827</ele>
        <time>2018-02-16T01:01:15Z</time>
      </trkpt>
      <trkpt lat="45.31404" lon="6.26425">
        <ele>827</ele>
        <time>2018-02-16T01:02:15Z</time>
      </trkpt>
      <trkpt lat="45.31379" lon="6.2643">
        <ele>820</ele>
        <time>2018-02-16T01:03:15Z</time>
      </trkpt>
      <trkpt lat="45.31331" lon="6.26422">
        <ele>815</ele>
        <time>2018-02-16T01:04:15Z</time>
      </trkpt>
      <trkpt lat="45.31321" lon="6.26419">
        <ele>813</ele>
        <time>2018-02-16T01:05:15Z</time>
      </trkpt>
      <trkpt lat="45.31314" lon="6.26413">
        <ele>812</ele>
        <time>2018-02-16T01:06:15Z</time>
      </trkpt>
      <trkpt lat="45.31308" lon="6.26405">
        <ele>812</ele>
        <time>2018-02-16T01:07:15Z</time>
      </trkpt>
      <trkpt lat="45.31294" lon="6.26341">
        <ele>825</ele>
        <time>2018-02-16T01:08:15Z</time>
      </trkpt>
      <trkpt lat="45.31299" lon="6.26332">
        <ele>830</ele>
        <time>2018-02-16T01:09:15Z</time>
      </trkpt>
      <trkpt lat="45.31308" lon="6.26327">
        <ele>834</ele>
        <time>2018-02-16T01:10:15Z</time>
      </trkpt>
      <trkpt lat="45.31319" lon="6.26316">
        <ele>840</ele>
        <time>2018-02-16T01:11:15Z</time>
      </trkpt>
      <trkpt lat="45.31323" lon="6.26306">
        <ele>843</ele>
        <time>2018-02-16T01:12:15Z</time>
      </trkpt>
      <trkpt lat="45.31325" lon="6.26291">
        <ele>845</ele>
        <time>2018-02-16T01:13:15Z</time>
      </trkpt>
      <trkpt lat="45.31327" lon="6.26263">
        <ele>850</ele>
        <time>2018-02-16T01:14:15Z</time>
      </trkpt>
      <trkpt lat="45.31323" lon="6.26224">
        <ele>859</ele>
        <time>2018-02-16T01:15:15Z</time>
      </trkpt>
      <trkpt lat="45.31319" lon="6.26215">
        <ele>862</ele>
        <time>2018-02-16T01:16:15Z</time>
      </trkpt>
      <trkpt lat="45.3131" lon="6.26209">
        <ele>864</ele>
        <time>2018-02-16T01:17:15Z</time>
      </trkpt>
      <trkpt lat="45.31298" lon="6.26208">
        <ele>865</ele>
        <time>2018-02-16T01:18:15Z</time>
      </trkpt>
      <trkpt lat="45.31291" lon="6.26214">
        <ele>863</ele>
        <time>2018-02-16T01:19:15Z</time>
      </trkpt>
      <trkpt lat="45.31284" lon="6.26226">
        <ele>859</ele>
        <time>2018-02-16T01:20:15Z</time>
      </trkpt>
      <trkpt lat="45.31278" lon="6.26246">
        <ele>852</ele>
        <time>2018-02-16T01:21:15Z</time>
      </trkpt>
      <trkpt lat="45.31268" lon="6.26255">
        <ele>848</ele>
        <time>2018-02-16T01:22:15Z</time>
      </trkpt>
      <trkpt lat="45.31252" lon="6.26258">
        <ele>845</ele>
        <time>2018-02-16T01:23:15Z</time>
      </trkpt>
      <trkpt lat="45.31234" lon="6.26256">
        <ele>846</ele>
        <time>2018-02-16T01:24:15Z</time>
      </trkpt>
      <trkpt lat="45.31212" lon="6.26246">
        <ele>850</ele>
        <time>2018-02-16T01:25:15Z</time>
      </trkpt>
      <trkpt lat="45.31146" lon="6.26234">
        <ele>850</ele>
        <time>2018-02-16T01:26:15Z</time>
      </trkpt>
      <trkpt lat="45.31138" lon="6.26231">
        <ele>850</ele>
        <time>2018-02-16T01:27:15Z</time>
      </trkpt>
      <trkpt lat="45.3113" lon="6.26224">
        <ele>851</ele>
        <time>2018-02-16T01:28:15Z</time>
      </trkpt>
      <trkpt lat="45.31089" lon="6.2618">
        <ele>858</ele>
        <time>2018-02-16T01:29:15Z</time>
      </trkpt>
      <trkpt lat="45.31066" lon="6.26163">
        <ele>854</ele>
        <time>2018-02-16T01:30:15Z</time>
      </trkpt>
      <trkpt lat="45.31057" lon="6.2615">
        <ele>851</ele>
        <time>2018-02-16T01:31:15Z</time>
      </trkpt>
      <trkpt lat="45.31053" lon="6.26129">
        <ele>851</ele>
        <time>2018-02-16T01:32:15Z</time>
      </trkpt>
      <trkpt lat="45.31062" lon="6.26072">
        <ele>862</ele>
        <time>2018-02-16T01:33:15Z</time>
      </trkpt>
      <trkpt lat="45.3106" lon="6.2604">
        <ele>864</ele>
        <time>2018-02-16T01:34:15Z</time>
      </trkpt>
      <trkpt lat="45.31061" lon="6.26028">
        <ele>866</ele>
        <time>2018-02-16T01:35:15Z</time>
      </trkpt>
      <trkpt lat="45.31076" lon="6.25994">
        <ele>876</ele>
        <time>2018-02-16T01:36:15Z</time>
      </trkpt>
      <trkpt lat="45.31086" lon="6.25924">
        <ele>882</ele>
        <time>2018-02-16T01:37:15Z</time>
      </trkpt>
      <trkpt lat="45.31081" lon="6.25845">
        <ele>884</ele>
        <time>2018-02-16T01:38:15Z</time>
      </trkpt>
      <trkpt lat="45.31085" lon="6.2578">
        <ele>892</ele>
        <time>2018-02-16T01:39:15Z</time>
      </trkpt>
      <trkpt lat="45.31091" lon="6.25729">
        <ele>903</ele>
        <time>2018-02-16T01:40:15Z</time>
      </trkpt>
      <trkpt lat="45.31088" lon="6.2572">
        <ele>904</ele>
        <time>2018-02-16T01:41:15Z</time>
      </trkpt>
      <trkpt lat="45.31079" lon="6.25705">
        <ele>905</ele>
        <time>2018-02-16T01:42:15Z</time>
      </trkpt>
      <trkpt lat="45.31063" lon="6.25697">
        <ele>905</ele>
        <time>2018-02-16T01:43:15Z</time>
      </trkpt>
      <trkpt lat="45.31045" lon="6.25692">
        <ele>905</ele>
        <time>2018-02-16T01:44:15Z</time>
      </trkpt>
      <trkpt lat="45.30991" lon="6.25671">
        <ele>908</ele>
        <time>2018-02-16T01:45:15Z</time>
      </trkpt>
      <trkpt lat="45.30966" lon="6.25667">
        <ele>909</ele>
        <time>2018-02-16T01:46:15Z</time>
      </trkpt>
      <trkpt lat="45.30924" lon="6.25668">
        <ele>909</ele>
        <time>2018-02-16T01:47:15Z</time>
      </trkpt>
      <trkpt lat="45.30877" lon="6.25657">
        <ele>906</ele>
        <time>2018-02-16T01:48:15Z</time>
      </trkpt>
      <trkpt lat="45.3086" lon="6.25656">
        <ele>904</ele>
        <time>2018-02-16T01:49:15Z</time>
      </trkpt>
      <trkpt lat="45.3085" lon="6.25651">
        <ele>904</ele>
        <time>2018-02-16T01:50:15Z</time>
      </trkpt>
      <trkpt lat="45.30828" lon="6.2561">
        <ele>911</ele>
        <time>2018-02-16T01:51:15Z</time>
      </trkpt>
      <trkpt lat="45.3082" lon="6.25587">
        <ele>916</ele>
        <time>2018-02-16T01:52:15Z</time>
      </trkpt>
      <trkpt lat="45.30814" lon="6.2556">
        <ele>925</ele>
        <time>2018-02-16T01:53:15Z</time>
      </trkpt>
      <trkpt lat="45.30806" lon="6.25553">
        <ele>926</ele>
        <time>2018-02-16T01:54:15Z</time>
      </trkpt>
      <trkpt lat="45.30792" lon="6.25549">
        <ele>923</ele>
        <time>2018-02-16T01:55:15Z</time>
      </trkpt>
      <trkpt lat="45.30778" lon="6.25553">
        <ele>917</ele>
        <time>2018-02-16T01:56:15Z</time>
      </trkpt>
      <trkpt lat="45.30769" lon="6.25552">
        <ele>914</ele>
        <time>2018-02-16T01:57:15Z</time>
      </trkpt>
      <trkpt lat="45.30757" lon="6.25531">
        <ele>919</ele>
        <time>2018-02-16T01:58:15Z</time>
      </trkpt>
      <trkpt lat="45.30741" lon="6.25487">
        <ele>933</ele>
        <time>2018-02-16T01:59:15Z</time>
      </trkpt>
      <trkpt lat="45.30729" lon="6.25463">
        <ele>941</ele>
        <time>2018-02-16T02:00:15Z</time>
      </trkpt>
      <trkpt lat="45.30709" lon="6.2544">
        <ele>946</ele>
        <time>2018-02-16T02:01:15Z</time>
      </trkpt>
      <trkpt lat="45.30692" lon="6.25425">
        <ele>949</ele>
        <time>2018-02-16T02:02:15Z</time>
      </trkpt>
      <trkpt lat="45.30677" lon="6.2542">
        <ele>948</ele>
        <time>2018-02-16T02:03:15Z</time>
      </trkpt>
      <trkpt lat="45.30664" lon="6.25425">
        <ele>947</ele>
        <time>2018-02-16T02:04:15Z</time>
      </trkpt>
      <trkpt lat="45.30657" lon="6.25434">
        <ele>946</ele>
        <time>2018-02-16T02:05:15Z</time>
      </trkpt>
      <trkpt lat="45.30637" lon="6.25506">
        <ele>932</ele>
        <time>2018-02-16T02:06:15Z</time>
      </trkpt>
      <trkpt lat="45.3063" lon="6.25515">
        <ele>929</ele>
        <time>2018-02-16T02:07:15Z</time>
      </trkpt>
      <trkpt lat="45.30617" lon="6.25519">
        <ele>929</ele>
        <time>2018-02-16T02:08:15Z</time>
      </trkpt>
      <trkpt lat="45.30599" lon="6.25514">
        <ele>933</ele>
        <time>2018-02-16T02:09:15Z</time>
      </trkpt>
      <trkpt lat="45.30559" lon="6.25481">
        <ele>940</ele>
        <time>2018-02-16T02:10:15Z</time>
      </trkpt>
      <trkpt lat="45.30524" lon="6.25431">
        <ele>947</ele>
        <time>2018-02-16T02:11:15Z</time>
      </trkpt>
      <trkpt lat="45.30512" lon="6.25417">
        <ele>949</ele>
        <time>2018-02-16T02:12:15Z</time>
      </trkpt>
      <trkpt lat="45.30495" lon="6.2541">
        <ele>948</ele>
        <time>2018-02-16T02:13:15Z</time>
      </trkpt>
      <trkpt lat="45.30486" lon="6.25401">
        <ele>949</ele>
        <time>2018-02-16T02:14:15Z</time>
      </trkpt>
      <trkpt lat="45.30482" lon="6.25387">
        <ele>954</ele>
        <time>2018-02-16T02:15:15Z</time>
      </trkpt>
      <trkpt lat="45.30473" lon="6.2537">
        <ele>958</ele>
        <time>2018-02-16T02:16:15Z</time>
      </trkpt>
      <trkpt lat="45.30464" lon="6.25358">
        <ele>961</ele>
        <time>2018-02-16T02:17:15Z</time>
      </trkpt>
      <trkpt lat="45.30442" lon="6.25346">
        <ele>959</ele>
        <time>2018-02-16T02:18:15Z</time>
      </trkpt>
      <trkpt lat="45.30437" lon="6.25337">
        <ele>961</ele>
        <time>2018-02-16T02:19:15Z</time>
      </trkpt>
      <trkpt lat="45.30436" lon="6.25327">
        <ele>965</ele>
        <time>2018-02-16T02:20:15Z</time>
      </trkpt>
      <trkpt lat="45.3043" lon="6.25312">
        <ele>969</ele>
        <time>2018-02-16T02:21:15Z</time>
      </trkpt>
      <trkpt lat="45.30424" lon="6.25301">
        <ele>971</ele>
        <time>2018-02-16T02:22:15Z</time>
      </trkpt>
      <trkpt lat="45.30414" lon="6.25293">
        <ele>972</ele>
        <time>2018-02-16T02:23:15Z</time>
      </trkpt>
      <trkpt lat="45.30402" lon="6.25288">
        <ele>971</ele>
        <time>2018-02-16T02:24:15Z</time>
      </trkpt>
      <trkpt lat="45.30384" lon="6.25284">
        <ele>968</ele>
        <time>2018-02-16T02:25:15Z</time>
      </trkpt>
      <trkpt lat="45.30362" lon="6.25285">
        <ele>962</ele>
        <time>2018-02-16T02:26:15Z</time>
      </trkpt>
      <trkpt lat="45.30354" lon="6.25282">
        <ele>961</ele>
        <time>2018-02-16T02:27:15Z</time>
      </trkpt>
      <trkpt lat="45.30351" lon="6.25276">
        <ele>962</ele>
        <time>2018-02-16T02:28:15Z</time>
      </trkpt>
      <trkpt lat="45.30352" lon="6.25223">
        <ele>977</ele>
        <time>2018-02-16T02:29:15Z</time>
      </trkpt>
      <trkpt lat="45.30339" lon="6.25158">
        <ele>990</ele>
        <time>2018-02-16T02:30:15Z</time>
      </trkpt>
      <trkpt lat="45.30333" lon="6.25148">
        <ele>992</ele>
        <time>2018-02-16T02:31:15Z</time>
      </trkpt>
      <trkpt lat="45.30327" lon="6.25144">
        <ele>993</ele>
        <time>2018-02-16T02:32:15Z</time>
      </trkpt>
      <trkpt lat="45.30319" lon="6.25144">
        <ele>992</ele>
        <time>2018-02-16T02:33:15Z</time>
      </trkpt>
      <trkpt lat="45.30287" lon="6.25169">
        <ele>981</ele>
        <time>2018-02-16T02:34:15Z</time>
      </trkpt>
      <trkpt lat="45.30268" lon="6.2519">
        <ele>973</ele>
        <time>2018-02-16T02:35:15Z</time>
      </trkpt>
      <trkpt lat="45.3026" lon="6.25195">
        <ele>971</ele>
        <time>2018-02-16T02:36:15Z</time>
      </trkpt>
      <trkpt lat="45.30254" lon="6.25194">
        <ele>971</ele>
        <time>2018-02-16T02:37:15Z</time>
      </trkpt>
      <trkpt lat="45.30248" lon="6.25187">
        <ele>972</ele>
        <time>2018-02-16T02:38:15Z</time>
      </trkpt>
      <trkpt lat="45.30231" lon="6.25146">
        <ele>979</ele>
        <time>2018-02-16T02:39:15Z</time>
      </trkpt>
      <trkpt lat="45.30225" lon="6.25126">
        <ele>983</ele>
        <time>2018-02-16T02:40:15Z</time>
      </trkpt>
      <trkpt lat="45.3022" lon="6.25086">
        <ele>993</ele>
        <time>2018-02-16T02:41:15Z</time>
      </trkpt>
      <trkpt lat="45.30213" lon="6.25065">
        <ele>993</ele>
        <time>2018-02-16T02:42:15Z</time>
      </trkpt>
      <trkpt lat="45.30188" lon="6.25017">
        <ele>988</ele>
        <time>2018-02-16T02:43:15Z</time>
      </trkpt>
      <trkpt lat="45.30182" lon="6.24993">
        <ele>988</ele>
        <time>2018-02-16T02:44:15Z</time>
      </trkpt>
      <trkpt lat="45.30182" lon="6.24959">
        <ele>994</ele>
        <time>2018-02-16T02:45:15Z</time>
      </trkpt>
      <trkpt lat="45.30193" lon="6.24922">
        <ele>1003</ele>
        <time>2018-02-16T02:46:15Z</time>
      </trkpt>
      <trkpt lat="45.30193" lon="6.24909">
        <ele>1005</ele>
        <time>2018-02-16T02:47:15Z</time>
      </trkpt>
      <trkpt lat="45.3019" lon="6.24897">
        <ele>1006</ele>
        <time>2018-02-16T02:48:15Z</time>
      </trkpt>
      <trkpt lat="45.30175" lon="6.24884">
        <ele>1004</ele>
        <time>2018-02-16T02:49:15Z</time>
      </trkpt>
      <trkpt lat="45.30153" lon="6.24868">
        <ele>999</ele>
        <time>2018-02-16T02:50:15Z</time>
      </trkpt>
      <trkpt lat="45.30146" lon="6.24856">
        <ele>998</ele>
        <time>2018-02-16T02:51:15Z</time>
      </trkpt>
      <trkpt lat="45.30143" lon="6.24837">
        <ele>1000</ele>
        <time>2018-02-16T02:52:15Z</time>
      </trkpt>
      <trkpt lat="45.30146" lon="6.24806">
        <ele>1006</ele>
        <time>2018-02-16T02:53:15Z</time>
      </trkpt>
      <trkpt lat="45.30151" lon="6.24787">
        <ele>1011</ele>
        <time>2018-02-16T02:54:15Z</time>
      </trkpt>
      <trkpt lat="45.30151" lon="6.24771">
        <ele>1013</ele>
        <time>2018-02-16T02:55:15Z</time>
      </trkpt>
      <trkpt lat="45.30148" lon="6.2476">
        <ele>1014</ele>
        <time>2018-02-16T02:56:15Z</time>
      </trkpt>
      <trkpt lat="45.30142" lon="6.24751">
        <ele>1014</ele>
        <time>2018-02-16T02:57:15Z</time>
      </trkpt>
      <trkpt lat="45.30118" lon="6.24747">
        <ele>1008</ele>
        <time>2018-02-16T02:58:15Z</time>
      </trkpt>
      <trkpt lat="45.30109" lon="6.24743">
        <ele>1007</ele>
        <time>2018-02-16T02:59:15Z</time>
      </trkpt>
      <trkpt lat="45.301" lon="6.24734">
        <ele>1006</ele>
        <time>2018-02-16T03:00:15Z</time>
      </trkpt>
      <trkpt lat="45.30094" lon="6.24718">
        <ele>1008</ele>
        <time>2018-02-16T03:01:15Z</time>
      </trkpt>
      <trkpt lat="45.30079" lon="6.24649">
        <ele>1017</ele>
        <time>2018-02-16T03:02:15Z</time>
      </trkpt>
      <trkpt lat="45.30073" lon="6.24629">
        <ele>1019</ele>
        <time>2018-02-16T03:03:15Z</time>
      </trkpt>
      <trkpt lat="45.30067" lon="6.24617">
        <ele>1019</ele>
        <time>2018-02-16T03:04:15Z</time>
      </trkpt>
      <trkpt lat="45.3006" lon="6.24606">
        <ele>1019</ele>
        <time>2018-02-16T03:05:15Z</time>
      </trkpt>
      <trkpt lat="45.30052" lon="6.24598">
        <ele>1018</ele>
        <time>2018-02-16T03:06:15Z</time>
      </trkpt>
      <trkpt lat="45.30016" lon="6.24576">
        <ele>1013</ele>
        <time>2018-02-16T03:07:15Z</time>
      </trkpt>
      <trkpt lat="45.30007" lon="6.24566">
        <ele>1013</ele>
        <time>2018-02-16T03:08:15Z</time>
      </trkpt>
      <trkpt lat="45.30002" lon="6.24556">
        <ele>1013</ele>
        <time>2018-02-16T03:09:15Z</time>
      </trkpt>
      <trkpt lat="45.29999" lon="6.24542">
        <ele>1015</ele>
        <time>2018-02-16T03:10:15Z</time>
      </trkpt>
      <trkpt lat="45.29999" lon="6.24505">
        <ele>1023</ele>
        <time>2018-02-16T03:11:15Z</time>
      </trkpt>
      <trkpt lat="45.29996" lon="6.2448">
        <ele>1026</ele>
        <time>2018-02-16T03:12:15Z</time>
      </trkpt>
      <trkpt lat="45.29988" lon="6.24417">
        <ele>1032</ele>
        <time>2018-02-16T03:13:15Z</time>
      </trkpt>
      <trkpt lat="45.29988" lon="6.24379">
        <ele>1041</ele>
        <time>2018-02-16T03:14:15Z</time>
      </trkpt>
      <trkpt lat="45.29982" lon="6.24308">
        <ele>1057</ele>
        <time>2018-02-16T03:15:15Z</time>
      </trkpt>
      <trkpt lat="45.29978" lon="6.24298">
        <ele>1059</ele>
        <time>2018-02-16T03:16:15Z</time>
      </trkpt>
      <trkpt lat="45.2997" lon="6.24294">
        <ele>1059</ele>
        <time>2018-02-16T03:17:15Z</time>
      </trkpt>
      <trkpt lat="45.29962" lon="6.24296">
        <ele>1058</ele>
        <time>2018-02-16T03:18:15Z</time>
      </trkpt>
      <trkpt lat="45.29952" lon="6.24291">
        <ele>1058</ele>
        <time>2018-02-16T03:19:15Z</time>
      </trkpt>
      <trkpt lat="45.29927" lon="6.24272">
        <ele>1059</ele>
        <time>2018-02-16T03:20:15Z</time>
      </trkpt>
      <trkpt lat="45.29922" lon="6.24272">
        <ele>1059</ele>
        <time>2018-02-16T03:21:15Z</time>
      </trkpt>
      <trkpt lat="45.29913" lon="6.24278">
        <ele>1055</ele>
        <time>2018-02-16T03:22:15Z</time>
      </trkpt>
      <trkpt lat="45.29893" lon="6.24301">
        <ele>1045</ele>
        <time>2018-02-16T03:23:15Z</time>
      </trkpt>
      <trkpt lat="45.29879" lon="6.24296">
        <ele>1043</ele>
        <time>2018-02-16T03:24:15Z</time>
      </trkpt>
      <trkpt lat="45.29859" lon="6.24282">
        <ele>1042</ele>
        <time>2018-02-16T03:25:15Z</time>
      </trkpt>
      <trkpt lat="45.29856" lon="6.24275">
        <ele>1043</ele>
        <time>2018-02-16T03:26:15Z</time>
      </trkpt>
      <trkpt lat="45.29855" lon="6.24265">
        <ele>1045</ele>
        <time>2018-02-16T03:27:15Z</time>
      </trkpt>
      <trkpt lat="45.29863" lon="6.24239">
        <ele>1052</ele>
        <time>2018-02-16T03:28:15Z</time>
      </trkpt>
      <trkpt lat="45.29882" lon="6.24203">
        <ele>1063</ele>
        <time>2018-02-16T03:29:15Z</time>
      </trkpt>
      <trkpt lat="45.29885" lon="6.24192">
        <ele>1066</ele>
        <time>2018-02-16T03:30:15Z</time>
      </trkpt>
      <trkpt lat="45.29887" lon="6.24175">
        <ele>1069</ele>
        <time>2018-02-16T03:31:15Z</time>
      </trkpt>
      <trkpt lat="45.29881" lon="6.24153">
        <ele>1072</ele>
        <time>2018-02-16T03:32:15Z</time>
      </trkpt>
      <trkpt lat="45.29871" lon="6.24067">
        <ele>1088</ele>
        <time>2018-02-16T03:33:15Z</time>
      </trkpt>
      <trkpt lat="45.29867" lon="6.2406">
        <ele>1089</ele>
        <time>2018-02-16T03:34:15Z</time>
      </trkpt>
      <trkpt lat="45.29859" lon="6.24055">
        <ele>1089</ele>
        <time>2018-02-16T03:35:15Z</time>
      </trkpt>
      <trkpt lat="45.29847" lon="6.24057">
        <ele>1087</ele>
        <time>2018-02-16T03:36:15Z</time>
      </trkpt>
      <trkpt lat="45.29817" lon="6.24085">
        <ele>1077</ele>
        <time>2018-02-16T03:37:15Z</time>
      </trkpt>
      <trkpt lat="45.2981" lon="6.24085">
        <ele>1076</ele>
        <time>2018-02-16T03:38:15Z</time>
      </trkpt>
      <trkpt lat="45.29802" lon="6.2408">
        <ele>1077</ele>
        <time>2018-02-16T03:39:15Z</time>
      </trkpt>
      <trkpt lat="45.29794" lon="6.24072">
        <ele>1077</ele>
        <time>2018-02-16T03:40:15Z</time>
      </trkpt>
      <trkpt lat="45.29763" lon="6.2403">
        <ele>1079</ele>
        <time>2018-02-16T03:41:15Z</time>
      </trkpt>
      <trkpt lat="45.29756" lon="6.24018">
        <ele>1079</ele>
        <time>2018-02-16T03:42:15Z</time>
      </trkpt>
      <trkpt lat="45.29749" lon="6.23996">
        <ele>1080</ele>
        <time>2018-02-16T03:43:15Z</time>
      </trkpt>
      <trkpt lat="45.29749" lon="6.2398">
        <ele>1083</ele>
        <time>2018-02-16T03:44:15Z</time>
      </trkpt>
      <trkpt lat="45.29755" lon="6.23938">
        <ele>1090</ele>
        <time>2018-02-16T03:45:15Z</time>
      </trkpt>
      <trkpt lat="45.29753" lon="6.2393">
        <ele>1091</ele>
        <time>2018-02-16T03:46:15Z</time>
      </trkpt>
      <trkpt lat="45.29749" lon="6.23922">
        <ele>1091</ele>
        <time>2018-02-16T03:47:15Z</time>
      </trkpt>
      <trkpt lat="45.29742" lon="6.23914">
        <ele>1090</ele>
        <time>2018-02-16T03:48:15Z</time>
      </trkpt>
      <trkpt lat="45.29734" lon="6.2391">
        <ele>1088</ele>
        <time>2018-02-16T03:49:15Z</time>
      </trkpt>
      <trkpt lat="45.29729" lon="6.23901">
        <ele>1087</ele>
        <time>2018-02-16T03:50:15Z</time>
      </trkpt>
      <trkpt lat="45.29728" lon="6.23889">
        <ele>1088</ele>
        <time>2018-02-16T03:51:15Z</time>
      </trkpt>
      <trkpt lat="45.29738" lon="6.2385">
        <ele>1096</ele>
        <time>2018-02-16T03:52:15Z</time>
      </trkpt>
      <trkpt lat="45.29736" lon="6.2383">
        <ele>1098</ele>
        <time>2018-02-16T03:53:15Z</time>
      </trkpt>
      <trkpt lat="45.29733" lon="6.23825">
        <ele>1097</ele>
        <time>2018-02-16T03:54:15Z</time>
      </trkpt>
      <trkpt lat="45.29714" lon="6.23815">
        <ele>1093</ele>
        <time>2018-02-16T03:55:15Z</time>
      </trkpt>
      <trkpt lat="45.29708" lon="6.23804">
        <ele>1092</ele>
        <time>2018-02-16T03:56:15Z</time>
      </trkpt>
      <trkpt lat="45.29708" lon="6.23788">
        <ele>1093</ele>
        <time>2018-02-16T03:57:15Z</time>
      </trkpt>
      <trkpt lat="45.29719" lon="6.23701">
        <ele>1099</ele>
        <time>2018-02-16T03:58:15Z</time>
      </trkpt>
      <trkpt lat="45.2972" lon="6.23669">
        <ele>1100</ele>
        <time>2018-02-16T03:59:15Z</time>
      </trkpt>
      <trkpt lat="45.29718" lon="6.23657">
        <ele>1100</ele>
        <time>2018-02-16T04:00:15Z</time>
      </trkpt>
      <trkpt lat="45.2971" lon="6.23626">
        <ele>1099</ele>
        <time>2018-02-16T04:01:15Z</time>
      </trkpt>
      <trkpt lat="45.29694" lon="6.23583">
        <ele>1095</ele>
        <time>2018-02-16T04:02:15Z</time>
      </trkpt>
      <trkpt lat="45.29685" lon="6.23549">
        <ele>1095</ele>
        <time>2018-02-16T04:03:15Z</time>
      </trkpt>
      <trkpt lat="45.29681" lon="6.2352">
        <ele>1095</ele>
        <time>2018-02-16T04:04:15Z</time>
      </trkpt>
      <trkpt lat="45.29663" lon="6.23434">
        <ele>1096</ele>
        <time>2018-02-16T04:05:15Z</time>
      </trkpt>
      <trkpt lat="45.29661" lon="6.23413">
        <ele>1096</ele>
        <time>2018-02-16T04:06:15Z</time>
      </trkpt>
      <trkpt lat="45.29662" lon="6.23371">
        <ele>1098</ele>
        <time>2018-02-16T04:07:15Z</time>
      </trkpt>
      <trkpt lat="45.29665" lon="6.23336">
        <ele>1100</ele>
        <time>2018-02-16T04:08:15Z</time>
      </trkpt>
      <trkpt lat="45.2967" lon="6.23242">
        <ele>1101</ele>
        <time>2018-02-16T04:09:15Z</time>
      </trkpt>
      <trkpt lat="45.29664" lon="6.23193">
        <ele>1099</ele>
        <time>2018-02-16T04:10:15Z</time>
      </trkpt>
      <trkpt lat="45.29644" lon="6.23097">
        <ele>1098</ele>
        <time>2018-02-16T04:11:15Z</time>
      </trkpt>
      <trkpt lat="45.29635" lon="6.23068">
        <ele>1098</ele>
        <time>2018-02-16T04:12:15Z</time>
      </trkpt>
      <trkpt lat="45.29614" lon="6.23021">
        <ele>1098</ele>
        <time>2018-02-16T04:13:15Z</time>
      </trkpt>
      <trkpt lat="45.29583" lon="6.22947">
        <ele>1098</ele>
        <time>2018-02-16T04:14:15Z</time>
      </trkpt>
      <trkpt lat="45.29551" lon="6.22879">
        <ele>1097</ele>
        <time>2018-02-16T04:15:15Z</time>
      </trkpt>
      <trkpt lat="45.29541" lon="6.22865">
        <ele>1097</ele>
        <time>2018-02-16T04:16:15Z</time>
      </trkpt>
      <trkpt lat="45.29518" lon="6.22845">
        <ele>1095</ele>
        <time>2018-02-16T04:17:15Z</time>
      </trkpt>
      <trkpt lat="45.29493" lon="6.22816">
        <ele>1095</ele>
        <time>2018-02-16T04:18:15Z</time>
      </trkpt>
      <trkpt lat="45.29474" lon="6.22792">
        <ele>1095</ele>
        <time>2018-02-16T04:19:15Z</time>
      </trkpt>
      <trkpt lat="45.29394" lon="6.22635">
        <ele>1104</ele>
        <time>2018-02-16T04:20:15Z</time>
      </trkpt>
      <trkpt lat="45.29369" lon="6.22591">
        <ele>1106</ele>
        <time>2018-02-16T04:21:15Z</time>
      </trkpt>
      <trkpt lat="45.29339" lon="6.22529">
        <ele>1107</ele>
        <time>2018-02-16T04:22:15Z</time>
      </trkpt>
      <trkpt lat="45.29331" lon="6.22497">
        <ele>1108</ele>
        <time>2018-02-16T04:23:15Z</time>
      </trkpt>
      <trkpt lat="45.29326" lon="6.22425">
        <ele>1109</ele>
        <time>2018-02-16T04:24:15Z</time>
      </trkpt>
      <trkpt lat="45.29319" lon="6.22392">
        <ele>1109</ele>
        <time>2018-02-16T04:25:15Z</time>
      </trkpt>
      <trkpt lat="45.29312" lon="6.22381">
        <ele>1108</ele>
        <time>2018-02-16T04:26:15Z</time>
      </trkpt>
      <trkpt lat="45.29285" lon="6.22305">
        <ele>1108</ele>
        <time>2018-02-16T04:27:15Z</time>
      </trkpt>
      <trkpt lat="45.29257" lon="6.22221">
        <ele>1110</ele>
        <time>2018-02-16T04:28:15Z</time>
      </trkpt>
      <trkpt lat="45.29234" lon="6.22178">
        <ele>1113</ele>
        <time>2018-02-16T04:29:15Z</time>
      </trkpt>
      <trkpt lat="45.29212" lon="6.22151">
        <ele>1112</ele>
        <time>2018-02-16T04:30:15Z</time>
      </trkpt>
      <trkpt lat="45.2919" lon="6.2209">
        <ele>1115</ele>
        <time>2018-02-16T04:31:15Z</time>
      </trkpt>
      <trkpt lat="45.29182" lon="6.22074">
        <ele>1115</ele>
        <time>2018-02-16T04:32:15Z</time>
      </trkpt>
      <trkpt lat="45.29174" lon="6.22065">
        <ele>1114</ele>
        <time>2018-02-16T04:33:15Z</time>
      </trkpt>
      <trkpt lat="45.29162" lon="6.22054">
        <ele>1114</ele>
        <time>2018-02-16T04:34:15Z</time>
      </trkpt>
      <trkpt lat="45.29148" lon="6.22036">
        <ele>1116</ele>
        <time>2018-02-16T04:35:15Z</time>
      </trkpt>
      <trkpt lat="45.29128" lon="6.22002">
        <ele>1119</ele>
        <time>2018-02-16T04:36:15Z</time>
      </trkpt>
      <trkpt lat="45.29122" lon="6.21996">
        <ele>1119</ele>
        <time>2018-02-16T04:37:15Z</time>
      </trkpt>
      <trkpt lat="45.29114" lon="6.21992">
        <ele>1119</ele>
        <time>2018-02-16T04:38:15Z</time>
      </trkpt>
      <trkpt lat="45.29104" lon="6.21992">
        <ele>1117</ele>
        <time>2018-02-16T04:39:15Z</time>
      </trkpt>
      <trkpt lat="45.29094" lon="6.21999">
        <ele>1115</ele>
        <time>2018-02-16T04:40:15Z</time>
      </trkpt>
      <trkpt lat="45.29057" lon="6.22045">
        <ele>1114</ele>
        <time>2018-02-16T04:41:15Z</time>
      </trkpt>
      <trkpt lat="45.29028" lon="6.22085">
        <ele>1117</ele>
        <time>2018-02-16T04:42:15Z</time>
      </trkpt>
      <trkpt lat="45.29006" lon="6.22106">
        <ele>1121</ele>
        <time>2018-02-16T04:43:15Z</time>
      </trkpt>
      <trkpt lat="45.28994" lon="6.22112">
        <ele>1122</ele>
        <time>2018-02-16T04:44:15Z</time>
      </trkpt>
      <trkpt lat="45.28979" lon="6.22113">
        <ele>1124</ele>
        <time>2018-02-16T04:45:15Z</time>
      </trkpt>
      <trkpt lat="45.28904" lon="6.22086">
        <ele>1132</ele>
        <time>2018-02-16T04:46:15Z</time>
      </trkpt>
      <trkpt lat="45.28892" lon="6.22077">
        <ele>1135</ele>
        <time>2018-02-16T04:47:15Z</time>
      </trkpt>
      <trkpt lat="45.28885" lon="6.22066">
        <ele>1137</ele>
        <time>2018-02-16T04:48:15Z</time>
      </trkpt>
      <trkpt lat="45.28866" lon="6.22027">
        <ele>1141</ele>
        <time>2018-02-16T04:49:15Z</time>
      </trkpt>
      <trkpt lat="45.28852" lon="6.21992">
        <ele>1142</ele>
        <time>2018-02-16T04:50:15Z</time>
      </trkpt>
      <trkpt lat="45.28844" lon="6.21966">
        <ele>1141</ele>
        <time>2018-02-16T04:51:15Z</time>
      </trkpt>
      <trkpt lat="45.28823" lon="6.21918">
        <ele>1142</ele>
        <time>2018-02-16T04:52:15Z</time>
      </trkpt>
      <trkpt lat="45.28788" lon="6.21859">
        <ele>1143</ele>
        <time>2018-02-16T04:53:15Z</time>
      </trkpt>
      <trkpt lat="45.28761" lon="6.2181">
        <ele>1142</ele>
        <time>2018-02-16T04:54:15Z</time>
      </trkpt>
      <trkpt lat="45.28754" lon="6.21791">
        <ele>1141</ele>
        <time>2018-02-16T04:55:15Z</time>
      </trkpt>
      <trkpt lat="45.28753" lon="6.21775">
        <ele>1140</ele>
        <time>2018-02-16T04:56:15Z</time>
      </trkpt>
      <trkpt lat="45.28754" lon="6.21752">
        <ele>1139</ele>
        <time>2018-02-16T04:57:15Z</time>
      </trkpt>
      <trkpt lat="45.28753" lon="6.21737">
        <ele>1139</ele>
        <time>2018-02-16T04:58:15Z</time>
      </trkpt>
      <trkpt lat="45.28749" lon="6.21724">
        <ele>1140</ele>
        <time>2018-02-16T04:59:15Z</time>
      </trkpt>
      <trkpt lat="45.28705" lon="6.21656">
        <ele>1145</ele>
        <time>2018-02-16T05:00:15Z</time>
      </trkpt>
      <trkpt lat="45.28693" lon="6.21647">
        <ele>1146</ele>
        <time>2018-02-16T05:01:15Z</time>
      </trkpt>
      <trkpt lat="45.2868" lon="6.21645">
        <ele>1147</ele>
        <time>2018-02-16T05:02:15Z</time>
      </trkpt>
      <trkpt lat="45.28648" lon="6.21651">
        <ele>1155</ele>
        <time>2018-02-16T05:03:15Z</time>
      </trkpt>
      <trkpt lat="45.28635" lon="6.21649">
        <ele>1159</ele>
        <time>2018-02-16T05:04:15Z</time>
      </trkpt>
      <trkpt lat="45.28622" lon="6.21641">
        <ele>1163</ele>
        <time>2018-02-16T05:05:15Z</time>
      </trkpt>
      <trkpt lat="45.286" lon="6.21622">
        <ele>1166</ele>
        <time>2018-02-16T05:06:15Z</time>
      </trkpt>
      <trkpt lat="45.28539" lon="6.2158">
        <ele>1175</ele>
        <time>2018-02-16T05:07:15Z</time>
      </trkpt>
      <trkpt lat="45.28401" lon="6.21499">
        <ele>1191</ele>
        <time>2018-02-16T05:08:15Z</time>
      </trkpt>
      <trkpt lat="45.28383" lon="6.21482">
        <ele>1190</ele>
        <time>2018-02-16T05:09:15Z</time>
      </trkpt>
      <trkpt lat="45.28348" lon="6.21434">
        <ele>1183</ele>
        <time>2018-02-16T05:10:15Z</time>
      </trkpt>
      <trkpt lat="45.28335" lon="6.21421">
        <ele>1181</ele>
        <time>2018-02-16T05:11:15Z</time>
      </trkpt>
      <trkpt lat="45.28319" lon="6.21412">
        <ele>1184</ele>
        <time>2018-02-16T05:12:15Z</time>
      </trkpt>
      <trkpt lat="45.28279" lon="6.21404">
        <ele>1194</ele>
        <time>2018-02-16T05:13:15Z</time>
      </trkpt>
      <trkpt lat="45.28261" lon="6.21392">
        <ele>1197</ele>
        <time>2018-02-16T05:14:15Z</time>
      </trkpt>
      <trkpt lat="45.28236" lon="6.21371">
        <ele>1200</ele>
        <time>2018-02-16T05:15:15Z</time>
      </trkpt>
      <trkpt lat="45.2821" lon="6.21344">
        <ele>1201</ele>
        <time>2018-02-16T05:16:15Z</time>
      </trkpt>
      <trkpt lat="45.28189" lon="6.21326">
        <ele>1203</ele>
        <time>2018-02-16T05:17:15Z</time>
      </trkpt>
      <trkpt lat="45.28164" lon="6.21319">
        <ele>1208</ele>
        <time>2018-02-16T05:18:15Z</time>
      </trkpt>
      <trkpt lat="45.28121" lon="6.21317">
        <ele>1219</ele>
        <time>2018-02-16T05:19:15Z</time>
      </trkpt>
      <trkpt lat="45.28108" lon="6.2131">
        <ele>1221</ele>
        <time>2018-02-16T05:20:15Z</time>
      </trkpt>
      <trkpt lat="45.28098" lon="6.21293">
        <ele>1219</ele>
        <time>2018-02-16T05:21:15Z</time>
      </trkpt>
      <trkpt lat="45.28091" lon="6.2127">
        <ele>1215</ele>
        <time>2018-02-16T05:22:15Z</time>
      </trkpt>
      <trkpt lat="45.2808" lon="6.2122">
        <ele>1209</ele>
        <time>2018-02-16T05:23:15Z</time>
      </trkpt>
      <trkpt lat="45.28071" lon="6.21203">
        <ele>1208</ele>
        <time>2018-02-16T05:24:15Z</time>
      </trkpt>
      <trkpt lat="45.28051" lon="6.2117">
        <ele>1207</ele>
        <time>2018-02-16T05:25:15Z</time>
      </trkpt>
      <trkpt lat="45.27998" lon="6.21096">
        <ele>1212</ele>
        <time>2018-02-16T05:26:15Z</time>
      </trkpt>
      <trkpt lat="45.27975" lon="6.21058">
        <ele>1222</ele>
        <time>2018-02-16T05:27:15Z</time>
      </trkpt>
      <trkpt lat="45.27957" lon="6.21041">
        <ele>1227</ele>
        <time>2018-02-16T05:28:15Z</time>
      </trkpt>
      <trkpt lat="45.27889" lon="6.21014">
        <ele>1227</ele>
        <time>2018-02-16T05:29:15Z</time>
      </trkpt>
      <trkpt lat="45.27858" lon="6.20991">
        <ele>1230</ele>
        <time>2018-02-16T05:30:15Z</time>
      </trkpt>
      <trkpt lat="45.27838" lon="6.20973">
        <ele>1234</ele>
        <time>2018-02-16T05:31:15Z</time>
      </trkpt>
      <trkpt lat="45.27817" lon="6.20954">
        <ele>1239</ele>
        <time>2018-02-16T05:32:15Z</time>
      </trkpt>
      <trkpt lat="45.27791" lon="6.20919">
        <ele>1243</ele>
        <time>2018-02-16T05:33:15Z</time>
      </trkpt>
      <trkpt lat="45.27765" lon="6.2089">
        <ele>1246</ele>
        <time>2018-02-16T05:34:15Z</time>
      </trkpt>
      <trkpt lat="45.27676" lon="6.20798">
        <ele>1254</ele>
        <time>2018-02-16T05:35:15Z</time>
      </trkpt>
      <trkpt lat="45.27651" lon="6.20766">
        <ele>1259</ele>
        <time>2018-02-16T05:36:15Z</time>
      </trkpt>
      <trkpt lat="45.27607" lon="6.20723">
        <ele>1264</ele>
        <time>2018-02-16T05:37:15Z</time>
      </trkpt>
      <trkpt lat="45.27598" lon="6.20704">
        <ele>1265</ele>
        <time>2018-02-16T05:38:15Z</time>
      </trkpt>
      <trkpt lat="45.2759" lon="6.2068">
        <ele>1265</ele>
        <time>2018-02-16T05:39:15Z</time>
      </trkpt>
      <trkpt lat="45.27587" lon="6.2066">
        <ele>1266</ele>
        <time>2018-02-16T05:40:15Z</time>
      </trkpt>
      <trkpt lat="45.27584" lon="6.20598">
        <ele>1272</ele>
        <time>2018-02-16T05:41:15Z</time>
      </trkpt>
      <trkpt lat="45.27581" lon="6.20573">
        <ele>1276</ele>
        <time>2018-02-16T05:42:15Z</time>
      </trkpt>
      <trkpt lat="45.27573" lon="6.20544">
        <ele>1283</ele>
        <time>2018-02-16T05:43:15Z</time>
      </trkpt>
      <trkpt lat="45.27562" lon="6.20516">
        <ele>1288</ele>
        <time>2018-02-16T05:44:15Z</time>
      </trkpt>
      <trkpt lat="45.27454" lon="6.20306">
        <ele>1305</ele>
        <time>2018-02-16T05:45:15Z</time>
      </trkpt>
      <trkpt lat="45.27438" lon="6.20284">
        <ele>1305</ele>
        <time>2018-02-16T05:46:15Z</time>
      </trkpt>
      <trkpt lat="45.27427" lon="6.20274">
        <ele>1303</ele>
        <time>2018-02-16T05:47:15Z</time>
      </trkpt>
      <trkpt lat="45.27351" lon="6.2018">
        <ele>1316</ele>
        <time>2018-02-16T05:48:15Z</time>
      </trkpt>
      <trkpt lat="45.27337" lon="6.20177">
        <ele>1314</ele>
        <time>2018-02-16T05:49:15Z</time>
      </trkpt>
      <trkpt lat="45.27311" lon="6.20188">
        <ele>1311</ele>
        <time>2018-02-16T05:50:15Z</time>
      </trkpt>
      <trkpt lat="45.27296" lon="6.20185">
        <ele>1311</ele>
        <time>2018-02-16T05:51:15Z</time>
      </trkpt>
      <trkpt lat="45.27279" lon="6.20177">
        <ele>1311</ele>
        <time>2018-02-16T05:52:15Z</time>
      </trkpt>
      <trkpt lat="45.27269" lon="6.20165">
        <ele>1312</ele>
        <time>2018-02-16T05:53:15Z</time>
      </trkpt>
      <trkpt lat="45.27224" lon="6.20064">
        <ele>1325</ele>
        <time>2018-02-16T05:54:15Z</time>
      </trkpt>
      <trkpt lat="45.27213" lon="6.20046">
        <ele>1328</ele>
        <time>2018-02-16T05:55:15Z</time>
      </trkpt>
      <trkpt lat="45.27196" lon="6.20037">
        <ele>1330</ele>
        <time>2018-02-16T05:56:15Z</time>
      </trkpt>
      <trkpt lat="45.27182" lon="6.20032">
        <ele>1330</ele>
        <time>2018-02-16T05:57:15Z</time>
      </trkpt>
      <trkpt lat="45.27169" lon="6.20034">
        <ele>1330</ele>
        <time>2018-02-16T05:58:15Z</time>
      </trkpt>
      <trkpt lat="45.27157" lon="6.20043">
        <ele>1330</ele>
        <time>2018-02-16T05:59:15Z</time>
      </trkpt>
      <trkpt lat="45.27134" lon="6.2008">
        <ele>1328</ele>
        <time>2018-02-16T06:00:15Z</time>
      </trkpt>
      <trkpt lat="45.27125" lon="6.20087">
        <ele>1328</ele>
        <time>2018-02-16T06:01:15Z</time>
      </trkpt>
      <trkpt lat="45.27117" lon="6.20085">
        <ele>1329</ele>
        <time>2018-02-16T06:02:15Z</time>
      </trkpt>
      <trkpt lat="45.27108" lon="6.20077">
        <ele>1330</ele>
        <time>2018-02-16T06:03:15Z</time>
      </trkpt>
      <trkpt lat="45.27072" lon="6.20036">
        <ele>1336</ele>
        <time>2018-02-16T06:04:15Z</time>
      </trkpt>
      <trkpt lat="45.27055" lon="6.20022">
        <ele>1338</ele>
        <time>2018-02-16T06:05:15Z</time>
      </trkpt>
      <trkpt lat="45.27038" lon="6.20014">
        <ele>1341</ele>
        <time>2018-02-16T06:06:15Z</time>
      </trkpt>
      <trkpt lat="45.26967" lon="6.2">
        <ele>1348</ele>
        <time>2018-02-16T06:07:15Z</time>
      </trkpt>
      <trkpt lat="45.26956" lon="6.19996">
        <ele>1349</ele>
        <time>2018-02-16T06:08:15Z</time>
      </trkpt>
      <trkpt lat="45.26952" lon="6.19986">
        <ele>1350</ele>
        <time>2018-02-16T06:09:15Z</time>
      </trkpt>
      <trkpt lat="45.26955" lon="6.19974">
        <ele>1351</ele>
        <time>2018-02-16T06:10:15Z</time>
      </trkpt>
      <trkpt lat="45.2697" lon="6.1995">
        <ele>1352</ele>
        <time>2018-02-16T06:11:15Z</time>
      </trkpt>
      <trkpt lat="45.26972" lon="6.19937">
        <ele>1353</ele>
        <time>2018-02-16T06:12:15Z</time>
      </trkpt>
      <trkpt lat="45.2697" lon="6.19925">
        <ele>1354</ele>
        <time>2018-02-16T06:13:15Z</time>
      </trkpt>
      <trkpt lat="45.26954" lon="6.19897">
        <ele>1357</ele>
        <time>2018-02-16T06:14:15Z</time>
      </trkpt>
      <trkpt lat="45.26949" lon="6.19883">
        <ele>1359</ele>
        <time>2018-02-16T06:15:15Z</time>
      </trkpt>
      <trkpt lat="45.26948" lon="6.1986">
        <ele>1360</ele>
        <time>2018-02-16T06:16:15Z</time>
      </trkpt>
      <trkpt lat="45.2694" lon="6.19842">
        <ele>1362</ele>
        <time>2018-02-16T06:17:15Z</time>
      </trkpt>
      <trkpt lat="45.2693" lon="6.1983">
        <ele>1364</ele>
        <time>2018-02-16T06:18:15Z</time>
      </trkpt>
      <trkpt lat="45.26925" lon="6.19819">
        <ele>1368</ele>
        <time>2018-02-16T06:19:15Z</time>
      </trkpt>
      <trkpt lat="45.26925" lon="6.19803">
        <ele>1372</ele>
        <time>2018-02-16T06:20:15Z</time>
      </trkpt>
      <trkpt lat="45.26921" lon="6.19792">
        <ele>1375</ele>
        <time>2018-02-16T06:21:15Z</time>
      </trkpt>
      <trkpt lat="45.26914" lon="6.19786">
        <ele>1376</ele>
        <time>2018-02-16T06:22:15Z</time>
      </trkpt>
      <trkpt lat="45.2687" lon="6.19787">
        <ele>1377</ele>
        <time>2018-02-16T06:23:15Z</time>
      </trkpt>
      <trkpt lat="45.26822" lon="6.19799">
        <ele>1377</ele>
        <time>2018-02-16T06:24:15Z</time>
      </trkpt>
      <trkpt lat="45.26803" lon="6.19799">
        <ele>1379</ele>
        <time>2018-02-16T06:25:15Z</time>
      </trkpt>
      <trkpt lat="45.26793" lon="6.19792">
        <ele>1381</ele>
        <time>2018-02-16T06:26:15Z</time>
      </trkpt>
      <trkpt lat="45.26788" lon="6.19782">
        <ele>1382</ele>
        <time>2018-02-16T06:27:15Z</time>
      </trkpt>
      <trkpt lat="45.26791" lon="6.19747">
        <ele>1385</ele>
        <time>2018-02-16T06:28:15Z</time>
      </trkpt>
      <trkpt lat="45.26789" lon="6.19733">
        <ele>1389</ele>
        <time>2018-02-16T06:29:15Z</time>
      </trkpt>
      <trkpt lat="45.26783" lon="6.19724">
        <ele>1392</ele>
        <time>2018-02-16T06:30:15Z</time>
      </trkpt>
      <trkpt lat="45.26774" lon="6.19718">
        <ele>1393</ele>
        <time>2018-02-16T06:31:15Z</time>
      </trkpt>
      <trkpt lat="45.26723" lon="6.19715">
        <ele>1395</ele>
        <time>2018-02-16T06:32:15Z</time>
      </trkpt>
      <trkpt lat="45.2671" lon="6.19712">
        <ele>1396</ele>
        <time>2018-02-16T06:33:15Z</time>
      </trkpt>
      <trkpt lat="45.26697" lon="6.19706">
        <ele>1397</ele>
        <time>2018-02-16T06:34:15Z</time>
      </trkpt>
      <trkpt lat="45.26686" lon="6.19698">
        <ele>1399</ele>
        <time>2018-02-16T06:35:15Z</time>
      </trkpt>
      <trkpt lat="45.26681" lon="6.19686">
        <ele>1400</ele>
        <time>2018-02-16T06:36:15Z</time>
      </trkpt>
      <trkpt lat="45.26689" lon="6.1966">
        <ele>1404</ele>
        <time>2018-02-16T06:37:15Z</time>
      </trkpt>
      <trkpt lat="45.26687" lon="6.19653">
        <ele>1407</ele>
        <time>2018-02-16T06:38:15Z</time>
      </trkpt>
      <trkpt lat="45.26682" lon="6.19647">
        <ele>1409</ele>
        <time>2018-02-16T06:39:15Z</time>
      </trkpt>
      <trkpt lat="45.26673" lon="6.19642">
        <ele>1410</ele>
        <time>2018-02-16T06:40:15Z</time>
      </trkpt>
      <trkpt lat="45.2665" lon="6.19633">
        <ele>1413</ele>
        <time>2018-02-16T06:41:15Z</time>
      </trkpt>
      <trkpt lat="45.26595" lon="6.19616">
        <ele>1417</ele>
        <time>2018-02-16T06:42:15Z</time>
      </trkpt>
      <trkpt lat="45.26584" lon="6.19608">
        <ele>1418</ele>
        <time>2018-02-16T06:43:15Z</time>
      </trkpt>
      <trkpt lat="45.26568" lon="6.196">
        <ele>1420</ele>
        <time>2018-02-16T06:44:15Z</time>
      </trkpt>
      <trkpt lat="45.26558" lon="6.196">
        <ele>1420</ele>
        <time>2018-02-16T06:45:15Z</time>
      </trkpt>
      <trkpt lat="45.26551" lon="6.19607">
        <ele>1420</ele>
        <time>2018-02-16T06:46:15Z</time>
      </trkpt>
      <trkpt lat="45.26531" lon="6.19645">
        <ele>1418</ele>
        <time>2018-02-16T06:47:15Z</time>
      </trkpt>
      <trkpt lat="45.26519" lon="6.19675">
        <ele>1418</ele>
        <time>2018-02-16T06:48:15Z</time>
      </trkpt>
      <trkpt lat="45.2652" lon="6.19686">
        <ele>1418</ele>
        <time>2018-02-16T06:49:15Z</time>
      </trkpt>
      <trkpt lat="45.26526" lon="6.19696">
        <ele>1417</ele>
        <time>2018-02-16T06:50:15Z</time>
      </trkpt>
      <trkpt lat="45.26538" lon="6.19705">
        <ele>1415</ele>
        <time>2018-02-16T06:51:15Z</time>
      </trkpt>
      <trkpt lat="45.26546" lon="6.19718">
        <ele>1414</ele>
        <time>2018-02-16T06:52:15Z</time>
      </trkpt>
      <trkpt lat="45.26548" lon="6.19725">
        <ele>1414</ele>
        <time>2018-02-16T06:53:15Z</time>
      </trkpt>
      <trkpt lat="45.26548" lon="6.19733">
        <ele>1414</ele>
        <time>2018-02-16T06:54:15Z</time>
      </trkpt>
      <trkpt lat="45.26545" lon="6.19736">
        <ele>1414</ele>
        <time>2018-02-16T06:55:15Z</time>
      </trkpt>
      <trkpt lat="45.26539" lon="6.19735">
        <ele>1415</ele>
        <time>2018-02-16T06:56:15Z</time>
      </trkpt>
      <trkpt lat="45.2653" lon="6.19724">
        <ele>1417</ele>
        <time>2018-02-16T06:57:15Z</time>
      </trkpt>
      <trkpt lat="45.26519" lon="6.19713">
        <ele>1418</ele>
        <time>2018-02-16T06:58:15Z</time>
      </trkpt>
      <trkpt lat="45.26408" lon="6.19639">
        <ele>1438</ele>
        <time>2018-02-16T06:59:15Z</time>
      </trkpt>
      <trkpt lat="45.26382" lon="6.19618">
        <ele>1441</ele>
        <time>2018-02-16T07:00:15Z</time>
      </trkpt>
      <trkpt lat="45.26355" lon="6.19604">
        <ele>1445</ele>
        <time>2018-02-16T07:01:15Z</time>
      </trkpt>
      <trkpt lat="45.26318" lon="6.19591">
        <ele>1450</ele>
        <time>2018-02-16T07:02:15Z</time>
      </trkpt>
      <trkpt lat="45.26307" lon="6.19585">
        <ele>1452</ele>
        <time>2018-02-16T07:03:15Z</time>
      </trkpt>
      <trkpt lat="45.263" lon="6.19573">
        <ele>1453</ele>
        <time>2018-02-16T07:04:15Z</time>
      </trkpt>
      <trkpt lat="45.26293" lon="6.19567">
        <ele>1454</ele>
        <time>2018-02-16T07:05:15Z</time>
      </trkpt>
      <trkpt lat="45.26286" lon="6.19567">
        <ele>1455</ele>
        <time>2018-02-16T07:06:15Z</time>
      </trkpt>
      <trkpt lat="45.26273" lon="6.19601">
        <ele>1457</ele>
        <time>2018-02-16T07:07:15Z</time>
      </trkpt>
      <trkpt lat="45.26263" lon="6.19614">
        <ele>1459</ele>
        <time>2018-02-16T07:08:15Z</time>
      </trkpt>
      <trkpt lat="45.26255" lon="6.1962">
        <ele>1461</ele>
        <time>2018-02-16T07:09:15Z</time>
      </trkpt>
      <trkpt lat="45.26226" lon="6.19635">
        <ele>1464</ele>
        <time>2018-02-16T07:10:15Z</time>
      </trkpt>
      <trkpt lat="45.26219" lon="6.19647">
        <ele>1465</ele>
        <time>2018-02-16T07:11:15Z</time>
      </trkpt>
      <trkpt lat="45.26211" lon="6.19651">
        <ele>1466</ele>
        <time>2018-02-16T07:12:15Z</time>
      </trkpt>
      <trkpt lat="45.26202" lon="6.19652">
        <ele>1467</ele>
        <time>2018-02-16T07:13:15Z</time>
      </trkpt>
      <trkpt lat="45.2619" lon="6.19649">
        <ele>1468</ele>
        <time>2018-02-16T07:14:15Z</time>
      </trkpt>
      <trkpt lat="45.26181" lon="6.19637">
        <ele>1469</ele>
        <time>2018-02-16T07:15:15Z</time>
      </trkpt>
      <trkpt lat="45.26161" lon="6.19582">
        <ele>1472</ele>
        <time>2018-02-16T07:16:15Z</time>
      </trkpt>
      <trkpt lat="45.26146" lon="6.19556">
        <ele>1474</ele>
        <time>2018-02-16T07:17:15Z</time>
      </trkpt>
      <trkpt lat="45.26131" lon="6.19535">
        <ele>1476</ele>
        <time>2018-02-16T07:18:15Z</time>
      </trkpt>
      <trkpt lat="45.26122" lon="6.19517">
        <ele>1478</ele>
        <time>2018-02-16T07:19:15Z</time>
      </trkpt>
      <trkpt lat="45.26106" lon="6.19444">
        <ele>1484</ele>
        <time>2018-02-16T07:20:15Z</time>
      </trkpt>
      <trkpt lat="45.26103" lon="6.19435">
        <ele>1486</ele>
        <time>2018-02-16T07:21:15Z</time>
      </trkpt>
      <trkpt lat="45.26099" lon="6.19432">
        <ele>1486</ele>
        <time>2018-02-16T07:22:15Z</time>
      </trkpt>
      <trkpt lat="45.26093" lon="6.19431">
        <ele>1487</ele>
        <time>2018-02-16T07:23:15Z</time>
      </trkpt>
      <trkpt lat="45.26084" lon="6.19438">
        <ele>1488</ele>
        <time>2018-02-16T07:24:15Z</time>
      </trkpt>
      <trkpt lat="45.25969" lon="6.1953">
        <ele>1504</ele>
        <time>2018-02-16T07:25:15Z</time>
      </trkpt>
      <trkpt lat="45.25962" lon="6.19531">
        <ele>1505</ele>
        <time>2018-02-16T07:26:15Z</time>
      </trkpt>
      <trkpt lat="45.25956" lon="6.19528">
        <ele>1506</ele>
        <time>2018-02-16T07:27:15Z</time>
      </trkpt>
      <trkpt lat="45.25953" lon="6.19518">
        <ele>1506</ele>
        <time>2018-02-16T07:28:15Z</time>
      </trkpt>
      <trkpt lat="45.25946" lon="6.19462">
        <ele>1507</ele>
        <time>2018-02-16T07:29:15Z</time>
      </trkpt>
      <trkpt lat="45.25933" lon="6.19381">
        <ele>1513</ele>
        <time>2018-02-16T07:30:15Z</time>
      </trkpt>
      <trkpt lat="45.25928" lon="6.19362">
        <ele>1515</ele>
        <time>2018-02-16T07:31:15Z</time>
      </trkpt>
      <trkpt lat="45.25922" lon="6.19346">
        <ele>1516</ele>
        <time>2018-02-16T07:32:15Z</time>
      </trkpt>
      <trkpt lat="45.25906" lon="6.19323">
        <ele>1520</ele>
        <time>2018-02-16T07:33:15Z</time>
      </trkpt>
      <trkpt lat="45.25903" lon="6.19314">
        <ele>1520</ele>
        <time>2018-02-16T07:34:15Z</time>
      </trkpt>
      <trkpt lat="45.25903" lon="6.19277">
        <ele>1520</ele>
        <time>2018-02-16T07:35:15Z</time>
      </trkpt>
      <trkpt lat="45.25898" lon="6.1924">
        <ele>1521</ele>
        <time>2018-02-16T07:36:15Z</time>
      </trkpt>
      <trkpt lat="45.25876" lon="6.19194">
        <ele>1525</ele>
        <time>2018-02-16T07:37:15Z</time>
      </trkpt>
      <trkpt lat="45.25866" lon="6.19182">
        <ele>1527</ele>
        <time>2018-02-16T07:38:15Z</time>
      </trkpt>
      <trkpt lat="45.25844" lon="6.19169">
        <ele>1531</ele>
        <time>2018-02-16T07:39:15Z</time>
      </trkpt>
      <trkpt lat="45.25826" lon="6.19153">
        <ele>1532</ele>
        <time>2018-02-16T07:40:15Z</time>
      </trkpt>
      <trkpt lat="45.25795" lon="6.19105">
        <ele>1532</ele>
        <time>2018-02-16T07:41:15Z</time>
      </trkpt>
      <trkpt lat="45.25775" lon="6.1908">
        <ele>1533</ele>
        <time>2018-02-16T07:42:15Z</time>
      </trkpt>
      <trkpt lat="45.25741" lon="6.1906">
        <ele>1536</ele>
        <time>2018-02-16T07:43:15Z</time>
      </trkpt>
      <trkpt lat="45.25622" lon="6.19031">
        <ele>1550</ele>
        <time>2018-02-16T07:44:15Z</time>
      </trkpt>
      <trkpt lat="45.25593" lon="6.1901">
        <ele>1552</ele>
        <time>2018-02-16T07:45:15Z</time>
      </trkpt>
      <trkpt lat="45.25566" lon="6.18978">
        <ele>1554</ele>
        <time>2018-02-16T07:46:15Z</time>
      </trkpt>
      <trkpt lat="45.25548" lon="6.18966">
        <ele>1556</ele>
        <time>2018-02-16T07:47:15Z</time>
      </trkpt>
      <trkpt lat="45.25531" lon="6.18951">
        <ele>1559</ele>
        <time>2018-02-16T07:48:15Z</time>
      </trkpt>
      <trkpt lat="45.25477" lon="6.18869">
        <ele>1566</ele>
        <time>2018-02-16T07:49:15Z</time>
      </trkpt>
      <trkpt lat="45.25417" lon="6.18801">
        <ele>1578</ele>
        <time>2018-02-16T07:50:15Z</time>
      </trkpt>
      <trkpt lat="45.25409" lon="6.18788">
        <ele>1579</ele>
        <time>2018-02-16T07:51:15Z</time>
      </trkpt>
      <trkpt lat="45.25404" lon="6.18773">
        <ele>1579</ele>
        <time>2018-02-16T07:52:15Z</time>
      </trkpt>
      <trkpt lat="45.25393" lon="6.18719">
        <ele>1575</ele>
        <time>2018-02-16T07:53:15Z</time>
      </trkpt>
      <trkpt lat="45.25387" lon="6.18706">
        <ele>1575</ele>
        <time>2018-02-16T07:54:15Z</time>
      </trkpt>
      <trkpt lat="45.25375" lon="6.18699">
        <ele>1577</ele>
        <time>2018-02-16T07:55:15Z</time>
      </trkpt>
      <trkpt lat="45.25367" lon="6.18697">
        <ele>1580</ele>
        <time>2018-02-16T07:56:15Z</time>
      </trkpt>
      <trkpt lat="45.2536" lon="6.1869">
        <ele>1581</ele>
        <time>2018-02-16T07:57:15Z</time>
      </trkpt>
      <trkpt lat="45.25354" lon="6.1865">
        <ele>1577</ele>
        <time>2018-02-16T07:58:15Z</time>
      </trkpt>
      <trkpt lat="45.25354" lon="6.18633">
        <ele>1575</ele>
        <time>2018-02-16T07:59:15Z</time>
      </trkpt>
      <trkpt lat="45.25347" lon="6.18622">
        <ele>1576</ele>
        <time>2018-02-16T08:00:15Z</time>
      </trkpt>
      <trkpt lat="45.25337" lon="6.18612">
        <ele>1577</ele>
        <time>2018-02-16T08:01:15Z</time>
      </trkpt>
      <trkpt lat="45.25282" lon="6.18573">
        <ele>1593</ele>
        <time>2018-02-16T08:02:15Z</time>
      </trkpt>
      <trkpt lat="45.25251" lon="6.18537">
        <ele>1598</ele>
        <time>2018-02-16T08:03:15Z</time>
      </trkpt>
      <trkpt lat="45.25245" lon="6.18524">
        <ele>1598</ele>
        <time>2018-02-16T08:04:15Z</time>
      </trkpt>
      <trkpt lat="45.25243" lon="6.18513">
        <ele>1596</ele>
        <time>2018-02-16T08:05:15Z</time>
      </trkpt>
      <trkpt lat="45.25244" lon="6.18486">
        <ele>1591</ele>
        <time>2018-02-16T08:06:15Z</time>
      </trkpt>
      <trkpt lat="45.2523" lon="6.18415">
        <ele>1588</ele>
        <time>2018-02-16T08:07:15Z</time>
      </trkpt>
      <trkpt lat="45.25219" lon="6.1833">
        <ele>1589</ele>
        <time>2018-02-16T08:08:15Z</time>
      </trkpt>
      <trkpt lat="45.25213" lon="6.18312">
        <ele>1591</ele>
        <time>2018-02-16T08:09:15Z</time>
      </trkpt>
      <trkpt lat="45.25194" lon="6.18278">
        <ele>1597</ele>
        <time>2018-02-16T08:10:15Z</time>
      </trkpt>
      <trkpt lat="45.25178" lon="6.18227">
        <ele>1598</ele>
        <time>2018-02-16T08:11:15Z</time>
      </trkpt>
      <trkpt lat="45.25167" lon="6.18218">
        <ele>1600</ele>
        <time>2018-02-16T08:12:15Z</time>
      </trkpt>
      <trkpt lat="45.25152" lon="6.18209">
        <ele>1602</ele>
        <time>2018-02-16T08:13:15Z</time>
      </trkpt>
      <trkpt lat="45.25115" lon="6.18177">
        <ele>1605</ele>
        <time>2018-02-16T08:14:15Z</time>
      </trkpt>
      <trkpt lat="45.2508" lon="6.18161">
        <ele>1611</ele>
        <time>2018-02-16T08:15:15Z</time>
      </trkpt>
      <trkpt lat="45.25071" lon="6.18149">
        <ele>1613</ele>
        <time>2018-02-16T08:16:15Z</time>
      </trkpt>
      <trkpt lat="45.25062" lon="6.1812">
        <ele>1612</ele>
        <time>2018-02-16T08:17:15Z</time>
      </trkpt>
      <trkpt lat="45.2505" lon="6.18098">
        <ele>1614</ele>
        <time>2018-02-16T08:18:15Z</time>
      </trkpt>
      <trkpt lat="45.25015" lon="6.18046">
        <ele>1620</ele>
        <time>2018-02-16T08:19:15Z</time>
      </trkpt>
      <trkpt lat="45.24985" lon="6.1801">
        <ele>1622</ele>
        <time>2018-02-16T08:20:15Z</time>
      </trkpt>
      <trkpt lat="45.24965" lon="6.17974">
        <ele>1624</ele>
        <time>2018-02-16T08:21:15Z</time>
      </trkpt>
      <trkpt lat="45.24956" lon="6.17952">
        <ele>1623</ele>
        <time>2018-02-16T08:22:15Z</time>
      </trkpt>
      <trkpt lat="45.24933" lon="6.17875">
        <ele>1619</ele>
        <time>2018-02-16T08:23:15Z</time>
      </trkpt>
      <trkpt lat="45.24924" lon="6.17865">
        <ele>1620</ele>
        <time>2018-02-16T08:24:15Z</time>
      </trkpt>
      <trkpt lat="45.24891" lon="6.17835">
        <ele>1624</ele>
        <time>2018-02-16T08:25:15Z</time>
      </trkpt>
      <trkpt lat="45.24849" lon="6.17806">
        <ele>1632</ele>
        <time>2018-02-16T08:26:15Z</time>
      </trkpt>
      <trkpt lat="45.24831" lon="6.17787">
        <ele>1635</ele>
        <time>2018-02-16T08:27:15Z</time>
      </trkpt>
      <trkpt lat="45.24799" lon="6.17711">
        <ele>1637</ele>
        <time>2018-02-16T08:28:15Z</time>
      </trkpt>
      <trkpt lat="45.24779" lon="6.1767">
        <ele>1640</ele>
        <time>2018-02-16T08:29:15Z</time>
      </trkpt>
      <trkpt lat="45.24709" lon="6.17579">
        <ele>1652</ele>
        <time>2018-02-16T08:30:15Z</time>
      </trkpt>
      <trkpt lat="45.24701" lon="6.17573">
        <ele>1653</ele>
        <time>2018-02-16T08:31:15Z</time>
      </trkpt>
      <trkpt lat="45.24682" lon="6.17573">
        <ele>1658</ele>
        <time>2018-02-16T08:32:15Z</time>
      </trkpt>
      <trkpt lat="45.24669" lon="6.17568">
        <ele>1660</ele>
        <time>2018-02-16T08:33:15Z</time>
      </trkpt>
      <trkpt lat="45.24649" lon="6.17552">
        <ele>1663</ele>
        <time>2018-02-16T08:34:15Z</time>
      </trkpt>
      <trkpt lat="45.24643" lon="6.17548">
        <ele>1664</ele>
        <time>2018-02-16T08:35:15Z</time>
      </trkpt>
      <trkpt lat="45.24636" lon="6.17549">
        <ele>1665</ele>
        <time>2018-02-16T08:36:15Z</time>
      </trkpt>
      <trkpt lat="45.24633" lon="6.17554">
        <ele>1667</ele>
        <time>2018-02-16T08:37:15Z</time>
      </trkpt>
      <trkpt lat="45.24633" lon="6.17562">
        <ele>1668</ele>
        <time>2018-02-16T08:38:15Z</time>
      </trkpt>
      <trkpt lat="45.24637" lon="6.17569">
        <ele>1668</ele>
        <time>2018-02-16T08:39:15Z</time>
      </trkpt>
      <trkpt lat="45.2465" lon="6.17587">
        <ele>1668</ele>
        <time>2018-02-16T08:40:15Z</time>
      </trkpt>
      <trkpt lat="45.24671" lon="6.17667">
        <ele>1676</ele>
        <time>2018-02-16T08:41:15Z</time>
      </trkpt>
      <trkpt lat="45.24688" lon="6.17716">
        <ele>1677</ele>
        <time>2018-02-16T08:42:15Z</time>
      </trkpt>
      <trkpt lat="45.24688" lon="6.17723">
        <ele>1678</ele>
        <time>2018-02-16T08:43:15Z</time>
      </trkpt>
      <trkpt lat="45.24682" lon="6.17731">
        <ele>1681</ele>
        <time>2018-02-16T08:44:15Z</time>
      </trkpt>
      <trkpt lat="45.24677" lon="6.17728">
        <ele>1683</ele>
        <time>2018-02-16T08:45:15Z</time>
      </trkpt>
      <trkpt lat="45.24666" lon="6.17706">
        <ele>1683</ele>
        <time>2018-02-16T08:46:15Z</time>
      </trkpt>
      <trkpt lat="45.2461" lon="6.17668">
        <ele>1692</ele>
        <time>2018-02-16T08:47:15Z</time>
      </trkpt>
      <trkpt lat="45.24573" lon="6.17645">
        <ele>1698</ele>
        <time>2018-02-16T08:48:15Z</time>
      </trkpt>
      <trkpt lat="45.24558" lon="6.17624">
        <ele>1700</ele>
        <time>2018-02-16T08:49:15Z</time>
      </trkpt>
      <trkpt lat="45.24549" lon="6.17618">
        <ele>1703</ele>
        <time>2018-02-16T08:50:15Z</time>
      </trkpt>
      <trkpt lat="45.24537" lon="6.17613">
        <ele>1706</ele>
        <time>2018-02-16T08:51:15Z</time>
      </trkpt>
      <trkpt lat="45.2453" lon="6.17607">
        <ele>1708</ele>
        <time>2018-02-16T08:52:15Z</time>
      </trkpt>
      <trkpt lat="45.24519" lon="6.17582">
        <ele>1706</ele>
        <time>2018-02-16T08:53:15Z</time>
      </trkpt>
      <trkpt lat="45.24492" lon="6.1757">
        <ele>1714</ele>
        <time>2018-02-16T08:54:15Z</time>
      </trkpt>
      <trkpt lat="45.24486" lon="6.17561">
        <ele>1714</ele>
        <time>2018-02-16T08:55:15Z</time>
      </trkpt>
      <trkpt lat="45.24479" lon="6.17539">
        <ele>1712</ele>
        <time>2018-02-16T08:56:15Z</time>
      </trkpt>
      <trkpt lat="45.24459" lon="6.17509">
        <ele>1715</ele>
        <time>2018-02-16T08:57:15Z</time>
      </trkpt>
      <trkpt lat="45.24416" lon="6.17474">
        <ele>1730</ele>
        <time>2018-02-16T08:58:15Z</time>
      </trkpt>
      <trkpt lat="45.24403" lon="6.17458">
        <ele>1732</ele>
        <time>2018-02-16T08:59:15Z</time>
      </trkpt>
      <trkpt lat="45.24375" lon="6.17397">
        <ele>1731</ele>
        <time>2018-02-16T09:00:15Z</time>
      </trkpt>
      <trkpt lat="45.24362" lon="6.17379">
        <ele>1734</ele>
        <time>2018-02-16T09:01:15Z</time>
      </trkpt>
      <trkpt lat="45.24331" lon="6.17351">
        <ele>1742</ele>
        <time>2018-02-16T09:02:15Z</time>
      </trkpt>
      <trkpt lat="45.24317" lon="6.17327">
        <ele>1745</ele>
        <time>2018-02-16T09:03:15Z</time>
      </trkpt>
      <trkpt lat="45.24301" lon="6.17292">
        <ele>1750</ele>
        <time>2018-02-16T09:04:15Z</time>
      </trkpt>
      <trkpt lat="45.24287" lon="6.17258">
        <ele>1753</ele>
        <time>2018-02-16T09:05:15Z</time>
      </trkpt>
      <trkpt lat="45.24279" lon="6.17226">
        <ele>1755</ele>
        <time>2018-02-16T09:06:15Z</time>
      </trkpt>
      <trkpt lat="45.24261" lon="6.17139">
        <ele>1761</ele>
        <time>2018-02-16T09:07:15Z</time>
      </trkpt>
      <trkpt lat="45.24257" lon="6.17102">
        <ele>1765</ele>
        <time>2018-02-16T09:08:15Z</time>
      </trkpt>
      <trkpt lat="45.24256" lon="6.17073">
        <ele>1767</ele>
        <time>2018-02-16T09:09:15Z</time>
      </trkpt>
      <trkpt lat="45.2426" lon="6.17037">
        <ele>1769</ele>
        <time>2018-02-16T09:10:15Z</time>
      </trkpt>
      <trkpt lat="45.2426" lon="6.17027">
        <ele>1770</ele>
        <time>2018-02-16T09:11:15Z</time>
      </trkpt>
      <trkpt lat="45.24257" lon="6.17024">
        <ele>1771</ele>
        <time>2018-02-16T09:12:15Z</time>
      </trkpt>
      <trkpt lat="45.24254" lon="6.17023">
        <ele>1772</ele>
        <time>2018-02-16T09:13:15Z</time>
      </trkpt>
      <trkpt lat="45.24251" lon="6.17027">
        <ele>1772</ele>
        <time>2018-02-16T09:14:15Z</time>
      </trkpt>
      <trkpt lat="45.24244" lon="6.17054">
        <ele>1774</ele>
        <time>2018-02-16T09:15:15Z</time>
      </trkpt>
      <trkpt lat="45.24236" lon="6.17095">
        <ele>1777</ele>
        <time>2018-02-16T09:16:15Z</time>
      </trkpt>
      <trkpt lat="45.24232" lon="6.17182">
        <ele>1777</ele>
        <time>2018-02-16T09:17:15Z</time>
      </trkpt>
      <trkpt lat="45.24233" lon="6.1722">
        <ele>1779</ele>
        <time>2018-02-16T09:18:15Z</time>
      </trkpt>
      <trkpt lat="45.2423" lon="6.17233">
        <ele>1782</ele>
        <time>2018-02-16T09:19:15Z</time>
      </trkpt>
      <trkpt lat="45.24221" lon="6.17247">
        <ele>1789</ele>
        <time>2018-02-16T09:20:15Z</time>
      </trkpt>
      <trkpt lat="45.24218" lon="6.1727">
        <ele>1794</ele>
        <time>2018-02-16T09:21:15Z</time>
      </trkpt>
      <trkpt lat="45.24239" lon="6.17361">
        <ele>1796</ele>
        <time>2018-02-16T09:22:15Z</time>
      </trkpt>
      <trkpt lat="45.24242" lon="6.17378">
        <ele>1799</ele>
        <time>2018-02-16T09:23:15Z</time>
      </trkpt>
      <trkpt lat="45.24241" lon="6.17397">
        <ele>1804</ele>
        <time>2018-02-16T09:24:15Z</time>
      </trkpt>
      <trkpt lat="45.24244" lon="6.17413">
        <ele>1806</ele>
        <time>2018-02-16T09:25:15Z</time>
      </trkpt>
      <trkpt lat="45.2425" lon="6.17422">
        <ele>1806</ele>
        <time>2018-02-16T09:26:15Z</time>
      </trkpt>
      <trkpt lat="45.24258" lon="6.17428">
        <ele>1803</ele>
        <time>2018-02-16T09:27:15Z</time>
      </trkpt>
      <trkpt lat="45.24273" lon="6.17447">
        <ele>1799</ele>
        <time>2018-02-16T09:28:15Z</time>
      </trkpt>
      <trkpt lat="45.24282" lon="6.17465">
        <ele>1799</ele>
        <time>2018-02-16T09:29:15Z</time>
      </trkpt>
      <trkpt lat="45.24286" lon="6.17482">
        <ele>1802</ele>
        <time>2018-02-16T09:30:15Z</time>
      </trkpt>
      <trkpt lat="45.24289" lon="6.17525">
        <ele>1812</ele>
        <time>2018-02-16T09:31:15Z</time>
      </trkpt>
      <trkpt lat="45.24297" lon="6.17547">
        <ele>1815</ele>
        <time>2018-02-16T09:32:15Z</time>
      </trkpt>
      <trkpt lat="45.24297" lon="6.17552">
        <ele>1816</ele>
        <time>2018-02-16T09:33:15Z</time>
      </trkpt>
      <trkpt lat="45.24295" lon="6.17558">
        <ele>1819</ele>
        <time>2018-02-16T09:34:15Z</time>
      </trkpt>
      <trkpt lat="45.24293" lon="6.1756">
        <ele>1820</ele>
        <time>2018-02-16T09:35:15Z</time>
      </trkpt>
      <trkpt lat="45.24286" lon="6.17557">
        <ele>1823</ele>
        <time>2018-02-16T09:36:15Z</time>
      </trkpt>
      <trkpt lat="45.24274" lon="6.17507">
        <ele>1816</ele>
        <time>2018-02-16T09:37:15Z</time>
      </trkpt>
      <trkpt lat="45.24268" lon="6.17493">
        <ele>1816</ele>
        <time>2018-02-16T09:38:15Z</time>
      </trkpt>
      <trkpt lat="45.24258" lon="6.17478">
        <ele>1817</ele>
        <time>2018-02-16T09:39:15Z</time>
      </trkpt>
      <trkpt lat="45.24248" lon="6.1747">
        <ele>1820</ele>
        <time>2018-02-16T09:40:15Z</time>
      </trkpt>
      <trkpt lat="45.24207" lon="6.17454">
        <ele>1834</ele>
        <time>2018-02-16T09:41:15Z</time>
      </trkpt>
      <trkpt lat="45.24193" lon="6.17444">
        <ele>1839</ele>
        <time>2018-02-16T09:42:15Z</time>
      </trkpt>
      <trkpt lat="45.24184" lon="6.17433">
        <ele>1841</ele>
        <time>2018-02-16T09:43:15Z</time>
      </trkpt>
      <trkpt lat="45.24179" lon="6.17419">
        <ele>1842</ele>
        <time>2018-02-16T09:44:15Z</time>
      </trkpt>
      <trkpt lat="45.24173" lon="6.17386">
        <ele>1840</ele>
        <time>2018-02-16T09:45:15Z</time>
      </trkpt>
      <trkpt lat="45.24168" lon="6.17374">
        <ele>1842</ele>
        <time>2018-02-16T09:46:15Z</time>
      </trkpt>
      <trkpt lat="45.24163" lon="6.17368">
        <ele>1843</ele>
        <time>2018-02-16T09:47:15Z</time>
      </trkpt>
      <trkpt lat="45.24157" lon="6.17368">
        <ele>1845</ele>
        <time>2018-02-16T09:48:15Z</time>
      </trkpt>
      <trkpt lat="45.24152" lon="6.17373">
        <ele>1848</ele>
        <time>2018-02-16T09:49:15Z</time>
      </trkpt>
      <trkpt lat="45.24148" lon="6.17385">
        <ele>1851</ele>
        <time>2018-02-16T09:50:15Z</time>
      </trkpt>
      <trkpt lat="45.24149" lon="6.17406">
        <ele>1853</ele>
        <time>2018-02-16T09:51:15Z</time>
      </trkpt>
      <trkpt lat="45.24154" lon="6.1745">
        <ele>1856</ele>
        <time>2018-02-16T09:52:15Z</time>
      </trkpt>
      <trkpt lat="45.24162" lon="6.17466">
        <ele>1856</ele>
        <time>2018-02-16T09:53:15Z</time>
      </trkpt>
      <trkpt lat="45.24171" lon="6.17478">
        <ele>1854</ele>
        <time>2018-02-16T09:54:15Z</time>
      </trkpt>
      <trkpt lat="45.24178" lon="6.17497">
        <ele>1853</ele>
        <time>2018-02-16T09:55:15Z</time>
      </trkpt>
      <trkpt lat="45.24186" lon="6.17549">
        <ele>1860</ele>
        <time>2018-02-16T09:56:15Z</time>
      </trkpt>
      <trkpt lat="45.24192" lon="6.17567">
        <ele>1861</ele>
        <time>2018-02-16T09:57:15Z</time>
      </trkpt>
      <trkpt lat="45.24218" lon="6.17608">
        <ele>1862</ele>
        <time>2018-02-16T09:58:15Z</time>
      </trkpt>
      <trkpt lat="45.24223" lon="6.17625">
        <ele>1865</ele>
        <time>2018-02-16T09:59:15Z</time>
      </trkpt>
      <trkpt lat="45.24231" lon="6.17694">
        <ele>1878</ele>
        <time>2018-02-16T10:00:15Z</time>
      </trkpt>
      <trkpt lat="45.24239" lon="6.17712">
        <ele>1880</ele>
        <time>2018-02-16T10:01:15Z</time>
      </trkpt>
      <trkpt lat="45.2425" lon="6.17723">
        <ele>1880</ele>
        <time>2018-02-16T10:02:15Z</time>
      </trkpt>
      <trkpt lat="45.2426" lon="6.17736">
        <ele>1879</ele>
        <time>2018-02-16T10:03:15Z</time>
      </trkpt>
      <trkpt lat="45.24267" lon="6.17752">
        <ele>1880</ele>
        <time>2018-02-16T10:04:15Z</time>
      </trkpt>
      <trkpt lat="45.2427" lon="6.17773">
        <ele>1884</ele>
        <time>2018-02-16T10:05:15Z</time>
      </trkpt>
      <trkpt lat="45.24284" lon="6.178">
        <ele>1885</ele>
        <time>2018-02-16T10:06:15Z</time>
      </trkpt>
      <trkpt lat="45.24284" lon="6.17809">
        <ele>1887</ele>
        <time>2018-02-16T10:07:15Z</time>
      </trkpt>
      <trkpt lat="45.24279" lon="6.17816">
        <ele>1890</ele>
        <time>2018-02-16T10:08:15Z</time>
      </trkpt>
      <trkpt lat="45.24275" lon="6.17816">
        <ele>1892</ele>
        <time>2018-02-16T10:09:15Z</time>
      </trkpt>
      <trkpt lat="45.24269" lon="6.1781">
        <ele>1892</ele>
        <time>2018-02-16T10:10:15Z</time>
      </trkpt>
      <trkpt lat="45.24255" lon="6.17777">
        <ele>1890</ele>
        <time>2018-02-16T10:11:15Z</time>
      </trkpt>
      <trkpt lat="45.24245" lon="6.17766">
        <ele>1891</ele>
        <time>2018-02-16T10:12:15Z</time>
      </trkpt>
      <trkpt lat="45.24229" lon="6.17757">
        <ele>1893</ele>
        <time>2018-02-16T10:13:15Z</time>
      </trkpt>
      <trkpt lat="45.24216" lon="6.17746">
        <ele>1894</ele>
        <time>2018-02-16T10:14:15Z</time>
      </trkpt>
      <trkpt lat="45.24194" lon="6.17721">
        <ele>1895</ele>
        <time>2018-02-16T10:15:15Z</time>
      </trkpt>
      <trkpt lat="45.24159" lon="6.17675">
        <ele>1897</ele>
        <time>2018-02-16T10:16:15Z</time>
      </trkpt>
      <trkpt lat="45.24151" lon="6.17669">
        <ele>1899</ele>
        <time>2018-02-16T10:17:15Z</time>
      </trkpt>
      <trkpt lat="45.24111" lon="6.1765">
        <ele>1911</ele>
        <time>2018-02-16T10:18:15Z</time>
      </trkpt>
      <trkpt lat="45.24077" lon="6.17613">
        <ele>1913</ele>
        <time>2018-02-16T10:19:15Z</time>
      </trkpt>
      <trkpt lat="45.24054" lon="6.17597">
        <ele>1913</ele>
        <time>2018-02-16T10:20:15Z</time>
      </trkpt>
      <trkpt lat="45.24039" lon="6.17582">
        <ele>1911</ele>
        <time>2018-02-16T10:21:15Z</time>
      </trkpt>
      <trkpt lat="45.24025" lon="6.17572">
        <ele>1913</ele>
        <time>2018-02-16T10:22:15Z</time>
      </trkpt>
      <trkpt lat="45.24014" lon="6.17566">
        <ele>1914</ele>
        <time>2018-02-16T10:23:15Z</time>
      </trkpt>
      <trkpt lat="45.2396" lon="6.17553">
        <ele>1918</ele>
        <time>2018-02-16T10:24:15Z</time>
      </trkpt>
      <trkpt lat="45.23953" lon="6.17555">
        <ele>1918</ele>
        <time>2018-02-16T10:25:15Z</time>
      </trkpt>
      <trkpt lat="45.23941" lon="6.17564">
        <ele>1918</ele>
        <time>2018-02-16T10:26:15Z</time>
      </trkpt>
      <trkpt lat="45.23935" lon="6.17606">
        <ele>1919</ele>
        <time>2018-02-16T10:27:15Z</time>
      </trkpt>
      <trkpt lat="45.23928" lon="6.17621">
        <ele>1920</ele>
        <time>2018-02-16T10:28:15Z</time>
      </trkpt>
      <trkpt lat="45.239" lon="6.17661">
        <ele>1915</ele>
        <time>2018-02-16T10:29:15Z</time>
      </trkpt>
      <trkpt lat="45.23896" lon="6.17677">
        <ele>1914</ele>
        <time>2018-02-16T10:30:15Z</time>
      </trkpt>
      <trkpt lat="45.23898" lon="6.17718">
        <ele>1919</ele>
        <time>2018-02-16T10:31:15Z</time>
      </trkpt>
      <trkpt lat="45.23886" lon="6.1777">
        <ele>1916</ele>
        <time>2018-02-16T10:32:15Z</time>
      </trkpt>
      <trkpt lat="45.2388" lon="6.17784">
        <ele>1912</ele>
        <time>2018-02-16T10:33:15Z</time>
      </trkpt>
      <trkpt lat="45.23874" lon="6.17793">
        <ele>1909</ele>
        <time>2018-02-16T10:34:15Z</time>
      </trkpt>
      <trkpt lat="45.2388" lon="6.17845">
        <ele>1911</ele>
        <time>2018-02-16T10:35:15Z</time>
      </trkpt>
      <trkpt lat="45.23893" lon="6.179">
        <ele>1917</ele>
        <time>2018-02-16T10:36:15Z</time>
      </trkpt>
      <trkpt lat="45.23897" lon="6.17936">
        <ele>1919</ele>
        <time>2018-02-16T10:37:15Z</time>
      </trkpt>
      <trkpt lat="45.23898" lon="6.18011">
        <ele>1919</ele>
        <time>2018-02-16T10:38:15Z</time>
      </trkpt>
      <trkpt lat="45.23908" lon="6.18071">
        <ele>1926</ele>
        <time>2018-02-16T10:39:15Z</time>
      </trkpt>
      <trkpt lat="45.23908" lon="6.18089">
        <ele>1927</ele>
        <time>2018-02-16T10:40:15Z</time>
      </trkpt>
      <trkpt lat="45.23907" lon="6.18118">
        <ele>1928</ele>
        <time>2018-02-16T10:41:15Z</time>
      </trkpt>
      <trkpt lat="45.23908" lon="6.18154">
        <ele>1931</ele>
        <time>2018-02-16T10:42:15Z</time>
      </trkpt>
      <trkpt lat="45.23895" lon="6.18207">
        <ele>1928</ele>
        <time>2018-02-16T10:43:15Z</time>
      </trkpt>
      <trkpt lat="45.23891" lon="6.18237">
        <ele>1928</ele>
        <time>2018-02-16T10:44:15Z</time>
      </trkpt>
      <trkpt lat="45.23891" lon="6.1827">
        <ele>1930</ele>
        <time>2018-02-16T10:45:15Z</time>
      </trkpt>
      <trkpt lat="45.23894" lon="6.18361">
        <ele>1936</ele>
        <time>2018-02-16T10:46:15Z</time>
      </trkpt>
      <trkpt lat="45.23885" lon="6.18428">
        <ele>1936</ele>
        <time>2018-02-16T10:47:15Z</time>
      </trkpt>
      <trkpt lat="45.23886" lon="6.18442">
        <ele>1937</ele>
        <time>2018-02-16T10:48:15Z</time>
      </trkpt>
      <trkpt lat="45.23892" lon="6.18463">
        <ele>1939</ele>
        <time>2018-02-16T10:49:15Z</time>
      </trkpt>
      <trkpt lat="45.23918" lon="6.18505">
        <ele>1948</ele>
        <time>2018-02-16T10:50:15Z</time>
      </trkpt>
      <trkpt lat="45.23923" lon="6.18519">
        <ele>1951</ele>
        <time>2018-02-16T10:51:15Z</time>
      </trkpt>
      <trkpt lat="45.23923" lon="6.18534">
        <ele>1953</ele>
        <time>2018-02-16T10:52:15Z</time>
      </trkpt>
      <trkpt lat="45.23919" lon="6.18554">
        <ele>1954</ele>
        <time>2018-02-16T10:53:15Z</time>
      </trkpt>
      <trkpt lat="45.23913" lon="6.18563">
        <ele>1953</ele>
        <time>2018-02-16T10:54:15Z</time>
      </trkpt>
      <trkpt lat="45.23903" lon="6.18568">
        <ele>1952</ele>
        <time>2018-02-16T10:55:15Z</time>
      </trkpt>
      <trkpt lat="45.23885" lon="6.18572">
        <ele>1950</ele>
        <time>2018-02-16T10:56:15Z</time>
      </trkpt>
      <trkpt lat="45.23873" lon="6.18579">
        <ele>1949</ele>
        <time>2018-02-16T10:57:15Z</time>
      </trkpt>
      <trkpt lat="45.23861" lon="6.1859">
        <ele>1949</ele>
        <time>2018-02-16T10:58:15Z</time>
      </trkpt>
      <trkpt lat="45.23848" lon="6.18606">
        <ele>1950</ele>
        <time>2018-02-16T10:59:15Z</time>
      </trkpt>
      <trkpt lat="45.2384" lon="6.18621">
        <ele>1952</ele>
        <time>2018-02-16T11:00:15Z</time>
      </trkpt>
      <trkpt lat="45.23786" lon="6.18756">
        <ele>1958</ele>
        <time>2018-02-16T11:01:15Z</time>
      </trkpt>
      <trkpt lat="45.23769" lon="6.18787">
        <ele>1958</ele>
        <time>2018-02-16T11:02:15Z</time>
      </trkpt>
      <trkpt lat="45.23763" lon="6.18801">
        <ele>1959</ele>
        <time>2018-02-16T11:03:15Z</time>
      </trkpt>
      <trkpt lat="45.23758" lon="6.18815">
        <ele>1961</ele>
        <time>2018-02-16T11:04:15Z</time>
      </trkpt>
      <trkpt lat="45.23752" lon="6.18857">
        <ele>1968</ele>
        <time>2018-02-16T11:05:15Z</time>
      </trkpt>
      <trkpt lat="45.23744" lon="6.18885">
        <ele>1971</ele>
        <time>2018-02-16T11:06:15Z</time>
      </trkpt>
      <trkpt lat="45.23733" lon="6.18916">
        <ele>1973</ele>
        <time>2018-02-16T11:07:15Z</time>
      </trkpt>
      <trkpt lat="45.2372" lon="6.18958">
        <ele>1974</ele>
        <time>2018-02-16T11:08:15Z</time>
      </trkpt>
      <trkpt lat="45.2369" lon="6.19077">
        <ele>1982</ele>
        <time>2018-02-16T11:09:15Z</time>
      </trkpt>
      <trkpt lat="45.23643" lon="6.19153">
        <ele>1984</ele>
        <time>2018-02-16T11:10:15Z</time>
      </trkpt>
      <trkpt lat="45.23622" lon="6.19178">
        <ele>1984</ele>
        <time>2018-02-16T11:11:15Z</time>
      </trkpt>
      <trkpt lat="45.23567" lon="6.19262">
        <ele>1997</ele>
        <time>2018-02-16T11:12:15Z</time>
      </trkpt>
      <trkpt lat="45.23554" lon="6.19277">
        <ele>1999</ele>
        <time>2018-02-16T11:13:15Z</time>
      </trkpt>
      <trkpt lat="45.23539" lon="6.19287">
        <ele>1998</ele>
        <time>2018-02-16T11:14:15Z</time>
      </trkpt>
      <trkpt lat="45.23515" lon="6.19295">
        <ele>1994</ele>
        <time>2018-02-16T11:15:15Z</time>
      </trkpt>
      <trkpt lat="45.23479" lon="6.19317">
        <ele>1997</ele>
        <time>2018-02-16T11:16:15Z</time>
      </trkpt>
      <trkpt lat="45.23422" lon="6.19326">
        <ele>1992</ele>
        <time>2018-02-16T11:17:15Z</time>
      </trkpt>
      <trkpt lat="45.23418" lon="6.19329">
        <ele>1993</ele>
        <time>2018-02-16T11:18:15Z</time>
      </trkpt>
      <trkpt lat="45.23407" lon="6.19351">
        <ele>1995</ele>
        <time>2018-02-16T11:19:15Z</time>
      </trkpt>
      <trkpt lat="45.23382" lon="6.19423">
        <ele>2000</ele>
        <time>2018-02-16T11:20:15Z</time>
      </trkpt>
      <trkpt lat="45.23369" lon="6.19457">
        <ele>2001</ele>
        <time>2018-02-16T11:21:15Z</time>
      </trkpt>
      <trkpt lat="45.23344" lon="6.19501">
        <ele>2002</ele>
        <time>2018-02-16T11:22:15Z</time>
      </trkpt>
      <trkpt lat="45.23338" lon="6.19519">
        <ele>2003</ele>
        <time>2018-02-16T11:23:15Z</time>
      </trkpt>
      <trkpt lat="45.23328" lon="6.19566">
        <ele>2007</ele>
        <time>2018-02-16T11:24:15Z</time>
      </trkpt>
      <trkpt lat="45.23325" lon="6.19605">
        <ele>2013</ele>
        <time>2018-02-16T11:25:15Z</time>
      </trkpt>
      <trkpt lat="45.23322" lon="6.19622">
        <ele>2015</ele>
        <time>2018-02-16T11:26:15Z</time>
      </trkpt>
      <trkpt lat="45.23312" lon="6.19648">
        <ele>2017</ele>
        <time>2018-02-16T11:27:15Z</time>
      </trkpt>
      <trkpt lat="45.23266" lon="6.19734">
        <ele>2025</ele>
        <time>2018-02-16T11:28:15Z</time>
      </trkpt>
      <trkpt lat="45.23244" lon="6.19752">
        <ele>2022</ele>
        <time>2018-02-16T11:29:15Z</time>
      </trkpt>
      <trkpt lat="45.23231" lon="6.19765">
        <ele>2021</ele>
        <time>2018-02-16T11:30:15Z</time>
      </trkpt>
      <trkpt lat="45.23174" lon="6.1984">
        <ele>2023</ele>
        <time>2018-02-16T11:31:15Z</time>
      </trkpt>
      <trkpt lat="45.23159" lon="6.19871">
        <ele>2028</ele>
        <time>2018-02-16T11:32:15Z</time>
      </trkpt>
      <trkpt lat="45.23115" lon="6.19974">
        <ele>2041</ele>
        <time>2018-02-16T11:33:15Z</time>
      </trkpt>
      <trkpt lat="45.23091" lon="6.20018">
        <ele>2039</ele>
        <time>2018-02-16T11:34:15Z</time>
      </trkpt>
      <trkpt lat="45.23048" lon="6.20091">
        <ele>2048</ele>
        <time>2018-02-16T11:35:15Z</time>
      </trkpt>
      <trkpt lat="45.22969" lon="6.20202">
        <ele>2062</ele>
        <time>2018-02-16T11:36:15Z</time>
      </trkpt>
      <trkpt lat="45.2296" lon="6.20213">
        <ele>2064</ele>
        <time>2018-02-16T11:37:15Z</time>
      </trkpt>
      <trkpt lat="45.22942" lon="6.20223">
        <ele>2065</ele>
        <time>2018-02-16T11:38:15Z</time>
      </trkpt>
      <trkpt lat="45.22916" lon="6.20224">
        <ele>2061</ele>
        <time>2018-02-16T11:39:15Z</time>
      </trkpt>
      <trkpt lat="45.22877" lon="6.20232">
        <ele>2061</ele>
        <time>2018-02-16T11:40:15Z</time>
      </trkpt>
      <trkpt lat="45.22827" lon="6.20248">
        <ele>2061</ele>
        <time>2018-02-16T11:41:15Z</time>
      </trkpt>
      <trkpt lat="45.22786" lon="6.20266">
        <ele>2063</ele>
        <time>2018-02-16T11:42:15Z</time>
      </trkpt>
      <trkpt lat="45.22765" lon="6.20283">
        <ele>2064</ele>
        <time>2018-02-16T11:43:15Z</time>
      </trkpt>
      <trkpt lat="45.22755" lon="6.20303">
        <ele>2065</ele>
        <time>2018-02-16T11:44:15Z</time>
      </trkpt>
      <trkpt lat="45.2275" lon="6.20316">
        <ele>2066</ele>
        <time>2018-02-16T11:45:15Z</time>
      </trkpt>
      <trkpt lat="45.22747" lon="6.20361">
        <ele>2064</ele>
        <time>2018-02-16T11:46:15Z</time>
      </trkpt>
      <trkpt lat="45.22748" lon="6.20388">
        <ele>2061</ele>
        <time>2018-02-16T11:47:15Z</time>
      </trkpt>
      <trkpt lat="45.22752" lon="6.20415">
        <ele>2060</ele>
        <time>2018-02-16T11:48:15Z</time>
      </trkpt>
      <trkpt lat="45.22758" lon="6.20431">
        <ele>2055</ele>
        <time>2018-02-16T11:49:15Z</time>
      </trkpt>
      <trkpt lat="45.2277" lon="6.20445">
        <ele>2052</ele>
        <time>2018-02-16T11:50:15Z</time>
      </trkpt>
      <trkpt lat="45.22786" lon="6.20452">
        <ele>2053</ele>
        <time>2018-02-16T11:51:15Z</time>
      </trkpt>
      <trkpt lat="45.22812" lon="6.20456">
        <ele>2057</ele>
        <time>2018-02-16T11:52:15Z</time>
      </trkpt>
      <trkpt lat="45.22826" lon="6.2046">
        <ele>2059</ele>
        <time>2018-02-16T11:53:15Z</time>
      </trkpt>
      <trkpt lat="45.22837" lon="6.20467">
        <ele>2059</ele>
        <time>2018-02-16T11:54:15Z</time>
      </trkpt>
      <trkpt lat="45.22848" lon="6.20484">
        <ele>2057</ele>
        <time>2018-02-16T11:55:15Z</time>
      </trkpt>
      <trkpt lat="45.22877" lon="6.20535">
        <ele>2050</ele>
        <time>2018-02-16T11:56:15Z</time>
      </trkpt>
      <trkpt lat="45.22903" lon="6.20584">
        <ele>2049</ele>
        <time>2018-02-16T11:57:15Z</time>
      </trkpt>
      <trkpt lat="45.22921" lon="6.20626">
        <ele>2046</ele>
        <time>2018-02-16T11:58:15Z</time>
      </trkpt>
      <trkpt lat="45.22932" lon="6.20658">
        <ele>2041</ele>
        <time>2018-02-16T11:59:15Z</time>
      </trkpt>
      <trkpt lat="45.22952" lon="6.207">
        <ele>2037</ele>
        <time>2018-02-16T12:00:15Z</time>
      </trkpt>
      <trkpt lat="45.23044" lon="6.20878">
        <ele>2031</ele>
        <time>2018-02-16T12:01:15Z</time>
      </trkpt>
      <trkpt lat="45.2306" lon="6.20912">
        <ele>2029</ele>
        <time>2018-02-16T12:02:15Z</time>
      </trkpt>
      <trkpt lat="45.23068" lon="6.20949">
        <ele>2025</ele>
        <time>2018-02-16T12:03:15Z</time>
      </trkpt>
      <trkpt lat="45.23073" lon="6.21048">
        <ele>2014</ele>
        <time>2018-02-16T12:04:15Z</time>
      </trkpt>
      <trkpt lat="45.23073" lon="6.2106">
        <ele>2013</ele>
        <time>2018-02-16T12:05:15Z</time>
      </trkpt>
      <trkpt lat="45.2307" lon="6.21065">
        <ele>2012</ele>
        <time>2018-02-16T12:06:15Z</time>
      </trkpt>
      <trkpt lat="45.23067" lon="6.21067">
        <ele>2012</ele>
        <time>2018-02-16T12:07:15Z</time>
      </trkpt>
      <trkpt lat="45.23062" lon="6.21066">
        <ele>2010</ele>
        <time>2018-02-16T12:08:15Z</time>
      </trkpt>
      <trkpt lat="45.23058" lon="6.21062">
        <ele>2010</ele>
        <time>2018-02-16T12:09:15Z</time>
      </trkpt>
      <trkpt lat="45.23057" lon="6.21057">
        <ele>2010</ele>
        <time>2018-02-16T12:10:15Z</time>
      </trkpt>
      <trkpt lat="45.23058" lon="6.21019">
        <ele>2012</ele>
        <time>2018-02-16T12:11:15Z</time>
      </trkpt>
      <trkpt lat="45.23055" lon="6.20997">
        <ele>2013</ele>
        <time>2018-02-16T12:12:15Z</time>
      </trkpt>
      <trkpt lat="45.23045" lon="6.20968">
        <ele>2014</ele>
        <time>2018-02-16T12:13:15Z</time>
      </trkpt>
      <trkpt lat="45.2304" lon="6.2096">
        <ele>2014</ele>
        <time>2018-02-16T12:14:15Z</time>
      </trkpt>
      <trkpt lat="45.2303" lon="6.2095">
        <ele>2012</ele>
        <time>2018-02-16T12:15:15Z</time>
      </trkpt>
      <trkpt lat="45.23" lon="6.20935">
        <ele>2002</ele>
        <time>2018-02-16T12:16:15Z</time>
      </trkpt>
      <trkpt lat="45.23" lon="6.20935">
        <ele>2002</ele>
        <time>2018-02-16T12:17:15Z</time>
      </trkpt>
      <trkpt lat="45.22919" lon="6.20886">
        <ele>1992</ele>
        <time>2018-02-16T12:18:15Z</time>
      </trkpt>
      <trkpt lat="45.22905" lon="6.20874">
        <ele>1990</ele>
        <time>2018-02-16T12:19:15Z</time>
      </trkpt>
      <trkpt lat="45.22898" lon="6.20874">
        <ele>1988</ele>
        <time>2018-02-16T12:20:15Z</time>
      </trkpt>
      <trkpt lat="45.22895" lon="6.20882">
        <ele>1987</ele>
        <time>2018-02-16T12:21:15Z</time>
      </trkpt>
      <trkpt lat="45.22899" lon="6.20931">
        <ele>1984</ele>
        <time>2018-02-16T12:22:15Z</time>
      </trkpt>
      <trkpt lat="45.22899" lon="6.20984">
        <ele>1980</ele>
        <time>2018-02-16T12:23:15Z</time>
      </trkpt>
      <trkpt lat="45.22895" lon="6.21048">
        <ele>1974</ele>
        <time>2018-02-16T12:24:15Z</time>
      </trkpt>
      <trkpt lat="45.22885" lon="6.21096">
        <ele>1966</ele>
        <time>2018-02-16T12:25:15Z</time>
      </trkpt>
      <trkpt lat="45.22884" lon="6.2111">
        <ele>1965</ele>
        <time>2018-02-16T12:26:15Z</time>
      </trkpt>
      <trkpt lat="45.22894" lon="6.21161">
        <ele>1965</ele>
        <time>2018-02-16T12:27:15Z</time>
      </trkpt>
      <trkpt lat="45.22896" lon="6.21215">
        <ele>1963</ele>
        <time>2018-02-16T12:28:15Z</time>
      </trkpt>
      <trkpt lat="45.22893" lon="6.2124">
        <ele>1960</ele>
        <time>2018-02-16T12:29:15Z</time>
      </trkpt>
      <trkpt lat="45.22888" lon="6.21258">
        <ele>1958</ele>
        <time>2018-02-16T12:30:15Z</time>
      </trkpt>
      <trkpt lat="45.22863" lon="6.21305">
        <ele>1948</ele>
        <time>2018-02-16T12:31:15Z</time>
      </trkpt>
      <trkpt lat="45.22856" lon="6.21322">
        <ele>1945</ele>
        <time>2018-02-16T12:32:15Z</time>
      </trkpt>
      <trkpt lat="45.22854" lon="6.21333">
        <ele>1945</ele>
        <time>2018-02-16T12:33:15Z</time>
      </trkpt>
      <trkpt lat="45.22854" lon="6.21345">
        <ele>1943</ele>
        <time>2018-02-16T12:34:15Z</time>
      </trkpt>
      <trkpt lat="45.22861" lon="6.21358">
        <ele>1943</ele>
        <time>2018-02-16T12:35:15Z</time>
      </trkpt>
      <trkpt lat="45.22895" lon="6.21383">
        <ele>1949</ele>
        <time>2018-02-16T12:36:15Z</time>
      </trkpt>
      <trkpt lat="45.22907" lon="6.21395">
        <ele>1951</ele>
        <time>2018-02-16T12:37:15Z</time>
      </trkpt>
      <trkpt lat="45.22915" lon="6.21422">
        <ele>1949</ele>
        <time>2018-02-16T12:38:15Z</time>
      </trkpt>
      <trkpt lat="45.22918" lon="6.21469">
        <ele>1939</ele>
        <time>2018-02-16T12:39:15Z</time>
      </trkpt>
      <trkpt lat="45.22922" lon="6.21481">
        <ele>1936</ele>
        <time>2018-02-16T12:40:15Z</time>
      </trkpt>
      <trkpt lat="45.22929" lon="6.2149">
        <ele>1935</ele>
        <time>2018-02-16T12:41:15Z</time>
      </trkpt>
      <trkpt lat="45.22943" lon="6.21499">
        <ele>1935</ele>
        <time>2018-02-16T12:42:15Z</time>
      </trkpt>
      <trkpt lat="45.22964" lon="6.21507">
        <ele>1935</ele>
        <time>2018-02-16T12:43:15Z</time>
      </trkpt>
      <trkpt lat="45.23003" lon="6.21516">
        <ele>1938</ele>
        <time>2018-02-16T12:44:15Z</time>
      </trkpt>
      <trkpt lat="45.23016" lon="6.21524">
        <ele>1937</ele>
        <time>2018-02-16T12:45:15Z</time>
      </trkpt>
      <trkpt lat="45.23032" lon="6.21534">
        <ele>1937</ele>
        <time>2018-02-16T12:46:15Z</time>
      </trkpt>
      <trkpt lat="45.23046" lon="6.21546">
        <ele>1936</ele>
        <time>2018-02-16T12:47:15Z</time>
      </trkpt>
      <trkpt lat="45.23063" lon="6.21567">
        <ele>1934</ele>
        <time>2018-02-16T12:48:15Z</time>
      </trkpt>
      <trkpt lat="45.23109" lon="6.21657">
        <ele>1928</ele>
        <time>2018-02-16T12:49:15Z</time>
      </trkpt>
      <trkpt lat="45.23111" lon="6.21665">
        <ele>1927</ele>
        <time>2018-02-16T12:50:15Z</time>
      </trkpt>
      <trkpt lat="45.2311" lon="6.21674">
        <ele>1926</ele>
        <time>2018-02-16T12:51:15Z</time>
      </trkpt>
      <trkpt lat="45.23105" lon="6.21678">
        <ele>1923</ele>
        <time>2018-02-16T12:52:15Z</time>
      </trkpt>
      <trkpt lat="45.23099" lon="6.21676">
        <ele>1922</ele>
        <time>2018-02-16T12:53:15Z</time>
      </trkpt>
      <trkpt lat="45.23076" lon="6.21634">
        <ele>1923</ele>
        <time>2018-02-16T12:54:15Z</time>
      </trkpt>
      <trkpt lat="45.23069" lon="6.21624">
        <ele>1924</ele>
        <time>2018-02-16T12:55:15Z</time>
      </trkpt>
      <trkpt lat="45.23056" lon="6.21614">
        <ele>1924</ele>
        <time>2018-02-16T12:56:15Z</time>
      </trkpt>
      <trkpt lat="45.2304" lon="6.21609">
        <ele>1922</ele>
        <time>2018-02-16T12:57:15Z</time>
      </trkpt>
      <trkpt lat="45.23021" lon="6.21607">
        <ele>1919</ele>
        <time>2018-02-16T12:58:15Z</time>
      </trkpt>
      <trkpt lat="45.22945" lon="6.21601">
        <ele>1906</ele>
        <time>2018-02-16T12:59:15Z</time>
      </trkpt>
      <trkpt lat="45.22928" lon="6.21593">
        <ele>1905</ele>
        <time>2018-02-16T13:00:15Z</time>
      </trkpt>
      <trkpt lat="45.22912" lon="6.21581">
        <ele>1905</ele>
        <time>2018-02-16T13:01:15Z</time>
      </trkpt>
      <trkpt lat="45.22886" lon="6.21549">
        <ele>1905</ele>
        <time>2018-02-16T13:02:15Z</time>
      </trkpt>
      <trkpt lat="45.22874" lon="6.21539">
        <ele>1903</ele>
        <time>2018-02-16T13:03:15Z</time>
      </trkpt>
      <trkpt lat="45.22813" lon="6.21508">
        <ele>1888</ele>
        <time>2018-02-16T13:04:15Z</time>
      </trkpt>
      <trkpt lat="45.22798" lon="6.21498">
        <ele>1883</ele>
        <time>2018-02-16T13:05:15Z</time>
      </trkpt>
      <trkpt lat="45.22781" lon="6.21482">
        <ele>1879</ele>
        <time>2018-02-16T13:06:15Z</time>
      </trkpt>
      <trkpt lat="45.22767" lon="6.21461">
        <ele>1877</ele>
        <time>2018-02-16T13:07:15Z</time>
      </trkpt>
      <trkpt lat="45.22736" lon="6.2137">
        <ele>1885</ele>
        <time>2018-02-16T13:08:15Z</time>
      </trkpt>
      <trkpt lat="45.22731" lon="6.21358">
        <ele>1886</ele>
        <time>2018-02-16T13:09:15Z</time>
      </trkpt>
      <trkpt lat="45.22716" lon="6.21337">
        <ele>1885</ele>
        <time>2018-02-16T13:10:15Z</time>
      </trkpt>
      <trkpt lat="45.22703" lon="6.21324">
        <ele>1882</ele>
        <time>2018-02-16T13:11:15Z</time>
      </trkpt>
      <trkpt lat="45.22687" lon="6.21315">
        <ele>1878</ele>
        <time>2018-02-16T13:12:15Z</time>
      </trkpt>
      <trkpt lat="45.2264" lon="6.21292">
        <ele>1868</ele>
        <time>2018-02-16T13:13:15Z</time>
      </trkpt>
      <trkpt lat="45.22625" lon="6.21282">
        <ele>1866</ele>
        <time>2018-02-16T13:14:15Z</time>
      </trkpt>
      <trkpt lat="45.22609" lon="6.21267">
        <ele>1866</ele>
        <time>2018-02-16T13:15:15Z</time>
      </trkpt>
      <trkpt lat="45.22596" lon="6.2125">
        <ele>1867</ele>
        <time>2018-02-16T13:16:15Z</time>
      </trkpt>
      <trkpt lat="45.2259" lon="6.21246">
        <ele>1866</ele>
        <time>2018-02-16T13:17:15Z</time>
      </trkpt>
      <trkpt lat="45.22583" lon="6.21247">
        <ele>1863</ele>
        <time>2018-02-16T13:18:15Z</time>
      </trkpt>
      <trkpt lat="45.22581" lon="6.21252">
        <ele>1860</ele>
        <time>2018-02-16T13:19:15Z</time>
      </trkpt>
      <trkpt lat="45.22583" lon="6.21261">
        <ele>1858</ele>
        <time>2018-02-16T13:20:15Z</time>
      </trkpt>
      <trkpt lat="45.22601" lon="6.21278">
        <ele>1859</ele>
        <time>2018-02-16T13:21:15Z</time>
      </trkpt>
      <trkpt lat="45.22652" lon="6.21343">
        <ele>1855</ele>
        <time>2018-02-16T13:22:15Z</time>
      </trkpt>
      <trkpt lat="45.22667" lon="6.21358">
        <ele>1856</ele>
        <time>2018-02-16T13:23:15Z</time>
      </trkpt>
      <trkpt lat="45.22678" lon="6.21378">
        <ele>1855</ele>
        <time>2018-02-16T13:24:15Z</time>
      </trkpt>
      <trkpt lat="45.22746" lon="6.21518">
        <ele>1849</ele>
        <time>2018-02-16T13:25:15Z</time>
      </trkpt>
      <trkpt lat="45.22764" lon="6.21565">
        <ele>1844</ele>
        <time>2018-02-16T13:26:15Z</time>
      </trkpt>
      <trkpt lat="45.22796" lon="6.21663">
        <ele>1835</ele>
        <time>2018-02-16T13:27:15Z</time>
      </trkpt>
      <trkpt lat="45.22797" lon="6.21676">
        <ele>1833</ele>
        <time>2018-02-16T13:28:15Z</time>
      </trkpt>
      <trkpt lat="45.22793" lon="6.21682">
        <ele>1829</ele>
        <time>2018-02-16T13:29:15Z</time>
      </trkpt>
      <trkpt lat="45.22787" lon="6.21683">
        <ele>1827</ele>
        <time>2018-02-16T13:30:15Z</time>
      </trkpt>
      <trkpt lat="45.22783" lon="6.21677">
        <ele>1826</ele>
        <time>2018-02-16T13:31:15Z</time>
      </trkpt>
      <trkpt lat="45.22763" lon="6.2161">
        <ele>1832</ele>
        <time>2018-02-16T13:32:15Z</time>
      </trkpt>
      <trkpt lat="45.2275" lon="6.2158">
        <ele>1832</ele>
        <time>2018-02-16T13:33:15Z</time>
      </trkpt>
      <trkpt lat="45.22719" lon="6.21531">
        <ele>1829</ele>
        <time>2018-02-16T13:34:15Z</time>
      </trkpt>
      <trkpt lat="45.22652" lon="6.21457">
        <ele>1818</ele>
        <time>2018-02-16T13:35:15Z</time>
      </trkpt>
      <trkpt lat="45.22608" lon="6.21426">
        <ele>1814</ele>
        <time>2018-02-16T13:36:15Z</time>
      </trkpt>
      <trkpt lat="45.22588" lon="6.21407">
        <ele>1814</ele>
        <time>2018-02-16T13:37:15Z</time>
      </trkpt>
      <trkpt lat="45.22568" lon="6.21394">
        <ele>1810</ele>
        <time>2018-02-16T13:38:15Z</time>
      </trkpt>
      <trkpt lat="45.22535" lon="6.21377">
        <ele>1803</ele>
        <time>2018-02-16T13:39:15Z</time>
      </trkpt>
      <trkpt lat="45.22514" lon="6.21364">
        <ele>1800</ele>
        <time>2018-02-16T13:40:15Z</time>
      </trkpt>
      <trkpt lat="45.22478" lon="6.21329">
        <ele>1798</ele>
        <time>2018-02-16T13:41:15Z</time>
      </trkpt>
      <trkpt lat="45.22451" lon="6.21307">
        <ele>1794</ele>
        <time>2018-02-16T13:42:15Z</time>
      </trkpt>
      <trkpt lat="45.22444" lon="6.21299">
        <ele>1794</ele>
        <time>2018-02-16T13:43:15Z</time>
      </trkpt>
      <trkpt lat="45.22417" lon="6.21259">
        <ele>1791</ele>
        <time>2018-02-16T13:44:15Z</time>
      </trkpt>
      <trkpt lat="45.22401" lon="6.21232">
        <ele>1790</ele>
        <time>2018-02-16T13:45:15Z</time>
      </trkpt>
      <trkpt lat="45.22372" lon="6.212">
        <ele>1787</ele>
        <time>2018-02-16T13:46:15Z</time>
      </trkpt>
      <trkpt lat="45.22352" lon="6.21184">
        <ele>1784</ele>
        <time>2018-02-16T13:47:15Z</time>
      </trkpt>
      <trkpt lat="45.22322" lon="6.21173">
        <ele>1779</ele>
        <time>2018-02-16T13:48:15Z</time>
      </trkpt>
      <trkpt lat="45.2229" lon="6.21164">
        <ele>1777</ele>
        <time>2018-02-16T13:49:15Z</time>
      </trkpt>
      <trkpt lat="45.22277" lon="6.21164">
        <ele>1776</ele>
        <time>2018-02-16T13:50:15Z</time>
      </trkpt>
      <trkpt lat="45.22211" lon="6.21176">
        <ele>1771</ele>
        <time>2018-02-16T13:51:15Z</time>
      </trkpt>
      <trkpt lat="45.222" lon="6.2118">
        <ele>1771</ele>
        <time>2018-02-16T13:52:15Z</time>
      </trkpt>
      <trkpt lat="45.22125" lon="6.21231">
        <ele>1766</ele>
        <time>2018-02-16T13:53:15Z</time>
      </trkpt>
      <trkpt lat="45.22123" lon="6.21236">
        <ele>1765</ele>
        <time>2018-02-16T13:54:15Z</time>
      </trkpt>
      <trkpt lat="45.22122" lon="6.21243">
        <ele>1764</ele>
        <time>2018-02-16T13:55:15Z</time>
      </trkpt>
      <trkpt lat="45.22126" lon="6.21249">
        <ele>1762</ele>
        <time>2018-02-16T13:56:15Z</time>
      </trkpt>
      <trkpt lat="45.22131" lon="6.2125">
        <ele>1761</ele>
        <time>2018-02-16T13:57:15Z</time>
      </trkpt>
      <trkpt lat="45.22145" lon="6.21242">
        <ele>1760</ele>
        <time>2018-02-16T13:58:15Z</time>
      </trkpt>
      <trkpt lat="45.22165" lon="6.21235">
        <ele>1759</ele>
        <time>2018-02-16T13:59:15Z</time>
      </trkpt>
      <trkpt lat="45.22186" lon="6.21237">
        <ele>1757</ele>
        <time>2018-02-16T14:00:15Z</time>
      </trkpt>
      <trkpt lat="45.2221" lon="6.21244">
        <ele>1754</ele>
        <time>2018-02-16T14:01:15Z</time>
      </trkpt>
      <trkpt lat="45.22252" lon="6.2127">
        <ele>1747</ele>
        <time>2018-02-16T14:02:15Z</time>
      </trkpt>
      <trkpt lat="45.22275" lon="6.2129">
        <ele>1747</ele>
        <time>2018-02-16T14:03:15Z</time>
      </trkpt>
      <trkpt lat="45.22333" lon="6.21349">
        <ele>1742</ele>
        <time>2018-02-16T14:04:15Z</time>
      </trkpt>
      <trkpt lat="45.22354" lon="6.21375">
        <ele>1743</ele>
        <time>2018-02-16T14:05:15Z</time>
      </trkpt>
      <trkpt lat="45.2238" lon="6.21412">
        <ele>1740</ele>
        <time>2018-02-16T14:06:15Z</time>
      </trkpt>
      <trkpt lat="45.22394" lon="6.21436">
        <ele>1738</ele>
        <time>2018-02-16T14:07:15Z</time>
      </trkpt>
      <trkpt lat="45.22401" lon="6.21457">
        <ele>1735</ele>
        <time>2018-02-16T14:08:15Z</time>
      </trkpt>
      <trkpt lat="45.22405" lon="6.2148">
        <ele>1731</ele>
        <time>2018-02-16T14:09:15Z</time>
      </trkpt>
      <trkpt lat="45.22407" lon="6.21525">
        <ele>1723</ele>
        <time>2018-02-16T14:10:15Z</time>
      </trkpt>
      <trkpt lat="45.22414" lon="6.21543">
        <ele>1722</ele>
        <time>2018-02-16T14:11:15Z</time>
      </trkpt>
      <trkpt lat="45.2244" lon="6.21578">
        <ele>1722</ele>
        <time>2018-02-16T14:12:15Z</time>
      </trkpt>
      <trkpt lat="45.22522" lon="6.21705">
        <ele>1718</ele>
        <time>2018-02-16T14:13:15Z</time>
      </trkpt>
      <trkpt lat="45.22524" lon="6.21717">
        <ele>1718</ele>
        <time>2018-02-16T14:14:15Z</time>
      </trkpt>
      <trkpt lat="45.22523" lon="6.21725">
        <ele>1716</ele>
        <time>2018-02-16T14:15:15Z</time>
      </trkpt>
      <trkpt lat="45.22518" lon="6.21727">
        <ele>1715</ele>
        <time>2018-02-16T14:16:15Z</time>
      </trkpt>
      <trkpt lat="45.22513" lon="6.21725">
        <ele>1714</ele>
        <time>2018-02-16T14:17:15Z</time>
      </trkpt>
      <trkpt lat="45.22496" lon="6.217">
        <ele>1713</ele>
        <time>2018-02-16T14:18:15Z</time>
      </trkpt>
      <trkpt lat="45.22488" lon="6.21692">
        <ele>1712</ele>
        <time>2018-02-16T14:19:15Z</time>
      </trkpt>
      <trkpt lat="45.22402" lon="6.21633">
        <ele>1703</ele>
        <time>2018-02-16T14:20:15Z</time>
      </trkpt>
      <trkpt lat="45.22359" lon="6.21613">
        <ele>1698</ele>
        <time>2018-02-16T14:21:15Z</time>
      </trkpt>
      <trkpt lat="45.22348" lon="6.21609">
        <ele>1696</ele>
        <time>2018-02-16T14:22:15Z</time>
      </trkpt>
      <trkpt lat="45.22325" lon="6.21608">
        <ele>1692</ele>
        <time>2018-02-16T14:23:15Z</time>
      </trkpt>
      <trkpt lat="45.22303" lon="6.21588">
        <ele>1693</ele>
        <time>2018-02-16T14:24:15Z</time>
      </trkpt>
      <trkpt lat="45.22295" lon="6.21586">
        <ele>1692</ele>
        <time>2018-02-16T14:25:15Z</time>
      </trkpt>
      <trkpt lat="45.22274" lon="6.21588">
        <ele>1689</ele>
        <time>2018-02-16T14:26:15Z</time>
      </trkpt>
      <trkpt lat="45.22254" lon="6.21599">
        <ele>1685</ele>
        <time>2018-02-16T14:27:15Z</time>
      </trkpt>
      <trkpt lat="45.222" lon="6.21645">
        <ele>1675</ele>
        <time>2018-02-16T14:28:15Z</time>
      </trkpt>
      <trkpt lat="45.22129" lon="6.21684">
        <ele>1667</ele>
        <time>2018-02-16T14:29:15Z</time>
      </trkpt>
      <trkpt lat="45.22116" lon="6.21699">
        <ele>1664</ele>
        <time>2018-02-16T14:30:15Z</time>
      </trkpt>
      <trkpt lat="45.22102" lon="6.21723">
        <ele>1658</ele>
        <time>2018-02-16T14:31:15Z</time>
      </trkpt>
      <trkpt lat="45.22095" lon="6.21728">
        <ele>1657</ele>
        <time>2018-02-16T14:32:15Z</time>
      </trkpt>
      <trkpt lat="45.22072" lon="6.21733">
        <ele>1655</ele>
        <time>2018-02-16T14:33:15Z</time>
      </trkpt>
      <trkpt lat="45.22059" lon="6.2173">
        <ele>1655</ele>
        <time>2018-02-16T14:34:15Z</time>
      </trkpt>
      <trkpt lat="45.22044" lon="6.21719">
        <ele>1657</ele>
        <time>2018-02-16T14:35:15Z</time>
      </trkpt>
      <trkpt lat="45.22034" lon="6.21715">
        <ele>1657</ele>
        <time>2018-02-16T14:36:15Z</time>
      </trkpt>
      <trkpt lat="45.21991" lon="6.21708">
        <ele>1656</ele>
        <time>2018-02-16T14:37:15Z</time>
      </trkpt>
      <trkpt lat="45.2198" lon="6.2171">
        <ele>1655</ele>
        <time>2018-02-16T14:38:15Z</time>
      </trkpt>
      <trkpt lat="45.21977" lon="6.21718">
        <ele>1653</ele>
        <time>2018-02-16T14:39:15Z</time>
      </trkpt>
      <trkpt lat="45.21979" lon="6.21725">
        <ele>1652</ele>
        <time>2018-02-16T14:40:15Z</time>
      </trkpt>
      <trkpt lat="45.21984" lon="6.2173">
        <ele>1651</ele>
        <time>2018-02-16T14:41:15Z</time>
      </trkpt>
      <trkpt lat="45.21994" lon="6.21733">
        <ele>1651</ele>
        <time>2018-02-16T14:42:15Z</time>
      </trkpt>
      <trkpt lat="45.22006" lon="6.21734">
        <ele>1651</ele>
        <time>2018-02-16T14:43:15Z</time>
      </trkpt>
      <trkpt lat="45.22022" lon="6.21748">
        <ele>1649</ele>
        <time>2018-02-16T14:44:15Z</time>
      </trkpt>
      <trkpt lat="45.22032" lon="6.21767">
        <ele>1647</ele>
        <time>2018-02-16T14:45:15Z</time>
      </trkpt>
      <trkpt lat="45.22077" lon="6.21953">
        <ele>1627</ele>
        <time>2018-02-16T14:46:15Z</time>
      </trkpt>
      <trkpt lat="45.22083" lon="6.21983">
        <ele>1625</ele>
        <time>2018-02-16T14:47:15Z</time>
      </trkpt>
      <trkpt lat="45.2209" lon="6.21997">
        <ele>1623</ele>
        <time>2018-02-16T14:48:15Z</time>
      </trkpt>
      <trkpt lat="45.22104" lon="6.22014">
        <ele>1621</ele>
        <time>2018-02-16T14:49:15Z</time>
      </trkpt>
      <trkpt lat="45.22134" lon="6.22032">
        <ele>1619</ele>
        <time>2018-02-16T14:50:15Z</time>
      </trkpt>
      <trkpt lat="45.22142" lon="6.2204">
        <ele>1619</ele>
        <time>2018-02-16T14:51:15Z</time>
      </trkpt>
      <trkpt lat="45.22145" lon="6.22056">
        <ele>1617</ele>
        <time>2018-02-16T14:52:15Z</time>
      </trkpt>
      <trkpt lat="45.22143" lon="6.221">
        <ele>1613</ele>
        <time>2018-02-16T14:53:15Z</time>
      </trkpt>
      <trkpt lat="45.2215" lon="6.22124">
        <ele>1611</ele>
        <time>2018-02-16T14:54:15Z</time>
      </trkpt>
      <trkpt lat="45.2214" lon="6.22129">
        <ele>1610</ele>
        <time>2018-02-16T14:55:15Z</time>
      </trkpt>
      <trkpt lat="45.22115" lon="6.22129">
        <ele>1610</ele>
        <time>2018-02-16T14:56:15Z</time>
      </trkpt>
      <trkpt lat="45.22108" lon="6.2213">
        <ele>1610</ele>
        <time>2018-02-16T14:57:15Z</time>
      </trkpt>
      <trkpt lat="45.22098" lon="6.22145">
        <ele>1608</ele>
        <time>2018-02-16T14:58:15Z</time>
      </trkpt>
      <trkpt lat="45.22094" lon="6.22161">
        <ele>1606</ele>
        <time>2018-02-16T14:59:15Z</time>
      </trkpt>
      <trkpt lat="45.22088" lon="6.22191">
        <ele>1601</ele>
        <time>2018-02-16T15:00:15Z</time>
      </trkpt>
      <trkpt lat="45.2208" lon="6.222">
        <ele>1600</ele>
        <time>2018-02-16T15:01:15Z</time>
      </trkpt>
      <trkpt lat="45.22074" lon="6.22214">
        <ele>1597</ele>
        <time>2018-02-16T15:02:15Z</time>
      </trkpt>
      <trkpt lat="45.22064" lon="6.22255">
        <ele>1590</ele>
        <time>2018-02-16T15:03:15Z</time>
      </trkpt>
      <trkpt lat="45.22066" lon="6.22263">
        <ele>1589</ele>
        <time>2018-02-16T15:04:15Z</time>
      </trkpt>
      <trkpt lat="45.22069" lon="6.2227">
        <ele>1588</ele>
        <time>2018-02-16T15:05:15Z</time>
      </trkpt>
      <trkpt lat="45.22113" lon="6.22285">
        <ele>1588</ele>
        <time>2018-02-16T15:06:15Z</time>
      </trkpt>
      <trkpt lat="45.22117" lon="6.22295">
        <ele>1587</ele>
        <time>2018-02-16T15:07:15Z</time>
      </trkpt>
      <trkpt lat="45.22072" lon="6.22326">
        <ele>1577</ele>
        <time>2018-02-16T15:08:15Z</time>
      </trkpt>
      <trkpt lat="45.2206" lon="6.22331">
        <ele>1577</ele>
        <time>2018-02-16T15:09:15Z</time>
      </trkpt>
      <trkpt lat="45.22035" lon="6.22331">
        <ele>1577</ele>
        <time>2018-02-16T15:10:15Z</time>
      </trkpt>
      <trkpt lat="45.2203" lon="6.22338">
        <ele>1576</ele>
        <time>2018-02-16T15:11:15Z</time>
      </trkpt>
      <trkpt lat="45.22029" lon="6.22343">
        <ele>1575</ele>
        <time>2018-02-16T15:12:15Z</time>
      </trkpt>
      <trkpt lat="45.22029" lon="6.22348">
        <ele>1575</ele>
        <time>2018-02-16T15:13:15Z</time>
      </trkpt>
      <trkpt lat="45.22032" lon="6.22355">
        <ele>1573</ele>
        <time>2018-02-16T15:14:15Z</time>
      </trkpt>
      <trkpt lat="45.22039" lon="6.22363">
        <ele>1572</ele>
        <time>2018-02-16T15:15:15Z</time>
      </trkpt>
      <trkpt lat="45.22102" lon="6.22403">
        <ele>1569</ele>
        <time>2018-02-16T15:16:15Z</time>
      </trkpt>
      <trkpt lat="45.22111" lon="6.22411">
        <ele>1570</ele>
        <time>2018-02-16T15:17:15Z</time>
      </trkpt>
      <trkpt lat="45.22117" lon="6.22423">
        <ele>1570</ele>
        <time>2018-02-16T15:18:15Z</time>
      </trkpt>
      <trkpt lat="45.22118" lon="6.2244">
        <ele>1568</ele>
        <time>2018-02-16T15:19:15Z</time>
      </trkpt>
      <trkpt lat="45.22107" lon="6.225">
        <ele>1561</ele>
        <time>2018-02-16T15:20:15Z</time>
      </trkpt>
      <trkpt lat="45.22103" lon="6.22531">
        <ele>1557</ele>
        <time>2018-02-16T15:21:15Z</time>
      </trkpt>
      <trkpt lat="45.22105" lon="6.22629">
        <ele>1547</ele>
        <time>2018-02-16T15:22:15Z</time>
      </trkpt>
      <trkpt lat="45.22108" lon="6.22648">
        <ele>1544</ele>
        <time>2018-02-16T15:23:15Z</time>
      </trkpt>
      <trkpt lat="45.22117" lon="6.22664">
        <ele>1543</ele>
        <time>2018-02-16T15:24:15Z</time>
      </trkpt>
      <trkpt lat="45.22131" lon="6.22684">
        <ele>1543</ele>
        <time>2018-02-16T15:25:15Z</time>
      </trkpt>
      <trkpt lat="45.22135" lon="6.22698">
        <ele>1542</ele>
        <time>2018-02-16T15:26:15Z</time>
      </trkpt>
      <trkpt lat="45.22139" lon="6.22725">
        <ele>1540</ele>
        <time>2018-02-16T15:27:15Z</time>
      </trkpt>
      <trkpt lat="45.22144" lon="6.22882">
        <ele>1531</ele>
        <time>2018-02-16T15:28:15Z</time>
      </trkpt>
      <trkpt lat="45.22143" lon="6.23048">
        <ele>1522</ele>
        <time>2018-02-16T15:29:15Z</time>
      </trkpt>
      <trkpt lat="45.2214" lon="6.2311">
        <ele>1518</ele>
        <time>2018-02-16T15:30:15Z</time>
      </trkpt>
      <trkpt lat="45.2214" lon="6.23169">
        <ele>1515</ele>
        <time>2018-02-16T15:31:15Z</time>
      </trkpt>
      <trkpt lat="45.22153" lon="6.23256">
        <ele>1514</ele>
        <time>2018-02-16T15:32:15Z</time>
      </trkpt>
      <trkpt lat="45.22152" lon="6.23272">
        <ele>1514</ele>
        <time>2018-02-16T15:33:15Z</time>
      </trkpt>
      <trkpt lat="45.22148" lon="6.23285">
        <ele>1514</ele>
        <time>2018-02-16T15:34:15Z</time>
      </trkpt>
      <trkpt lat="45.22121" lon="6.2339">
        <ele>1512</ele>
        <time>2018-02-16T15:35:15Z</time>
      </trkpt>
      <trkpt lat="45.22109" lon="6.23448">
        <ele>1511</ele>
        <time>2018-02-16T15:36:15Z</time>
      </trkpt>
      <trkpt lat="45.22104" lon="6.23508">
        <ele>1511</ele>
        <time>2018-02-16T15:37:15Z</time>
      </trkpt>
      <trkpt lat="45.221" lon="6.23568">
        <ele>1511</ele>
        <time>2018-02-16T15:38:15Z</time>
      </trkpt>
      <trkpt lat="45.22076" lon="6.23699">
        <ele>1509</ele>
        <time>2018-02-16T15:39:15Z</time>
      </trkpt>
      <trkpt lat="45.22072" lon="6.23713">
        <ele>1509</ele>
        <time>2018-02-16T15:40:15Z</time>
      </trkpt>
      <trkpt lat="45.22047" lon="6.23754">
        <ele>1506</ele>
        <time>2018-02-16T15:41:15Z</time>
      </trkpt>
      <trkpt lat="45.22029" lon="6.2378">
        <ele>1504</ele>
        <time>2018-02-16T15:42:15Z</time>
      </trkpt>
      <trkpt lat="45.22024" lon="6.23777">
        <ele>1503</ele>
        <time>2018-02-16T15:43:15Z</time>
      </trkpt>
      <trkpt lat="45.22022" lon="6.23777">
        <ele>1503</ele>
        <time>2018-02-16T15:44:15Z</time>
      </trkpt>
      <trkpt lat="45.22018" lon="6.23783">
        <ele>1502</ele>
        <time>2018-02-16T15:45:15Z</time>
      </trkpt>
      <trkpt lat="45.22019" lon="6.23791">
        <ele>1502</ele>
        <time>2018-02-16T15:46:15Z</time>
      </trkpt>
      <trkpt lat="45.22025" lon="6.23794">
        <ele>1503</ele>
        <time>2018-02-16T15:47:15Z</time>
      </trkpt>
      <trkpt lat="45.22025" lon="6.23801">
        <ele>1503</ele>
        <time>2018-02-16T15:48:15Z</time>
      </trkpt>
      <trkpt lat="45.22011" lon="6.23943">
        <ele>1501</ele>
        <time>2018-02-16T15:49:15Z</time>
      </trkpt>
      <trkpt lat="45.22002" lon="6.23978">
        <ele>1499</ele>
        <time>2018-02-16T15:50:15Z</time>
      </trkpt>
      <trkpt lat="45.21971" lon="6.24045">
        <ele>1495</ele>
        <time>2018-02-16T15:51:15Z</time>
      </trkpt>
      <trkpt lat="45.2195" lon="6.24104">
        <ele>1495</ele>
        <time>2018-02-16T15:52:15Z</time>
      </trkpt>
      <trkpt lat="45.21933" lon="6.24129">
        <ele>1494</ele>
        <time>2018-02-16T15:53:15Z</time>
      </trkpt>
      <trkpt lat="45.21906" lon="6.24161">
        <ele>1491</ele>
        <time>2018-02-16T15:54:15Z</time>
      </trkpt>
      <trkpt lat="45.21845" lon="6.24321">
        <ele>1490</ele>
        <time>2018-02-16T15:55:15Z</time>
      </trkpt>
      <trkpt lat="45.21836" lon="6.2434">
        <ele>1490</ele>
        <time>2018-02-16T15:56:15Z</time>
      </trkpt>
      <trkpt lat="45.21792" lon="6.24398">
        <ele>1488</ele>
        <time>2018-02-16T15:57:15Z</time>
      </trkpt>
      <trkpt lat="45.21769" lon="6.2444">
        <ele>1485</ele>
        <time>2018-02-16T15:58:15Z</time>
      </trkpt>
      <trkpt lat="45.21763" lon="6.24457">
        <ele>1484</ele>
        <time>2018-02-16T15:59:15Z</time>
      </trkpt>
      <trkpt lat="45.21762" lon="6.24471">
        <ele>1484</ele>
        <time>2018-02-16T16:00:15Z</time>
      </trkpt>
      <trkpt lat="45.21763" lon="6.2453">
        <ele>1485</ele>
        <time>2018-02-16T16:01:15Z</time>
      </trkpt>
      <trkpt lat="45.21759" lon="6.2458">
        <ele>1483</ele>
        <time>2018-02-16T16:02:15Z</time>
      </trkpt>
      <trkpt lat="45.21753" lon="6.24599">
        <ele>1481</ele>
        <time>2018-02-16T16:03:15Z</time>
      </trkpt>
      <trkpt lat="45.21653" lon="6.24791">
        <ele>1474</ele>
        <time>2018-02-16T16:04:15Z</time>
      </trkpt>
      <trkpt lat="45.21642" lon="6.24807">
        <ele>1474</ele>
        <time>2018-02-16T16:05:15Z</time>
      </trkpt>
      <trkpt lat="45.21555" lon="6.24868">
        <ele>1466</ele>
        <time>2018-02-16T16:06:15Z</time>
      </trkpt>
      <trkpt lat="45.21544" lon="6.2488">
        <ele>1466</ele>
        <time>2018-02-16T16:07:15Z</time>
      </trkpt>
      <trkpt lat="45.21518" lon="6.24921">
        <ele>1467</ele>
        <time>2018-02-16T16:08:15Z</time>
      </trkpt>
      <trkpt lat="45.21508" lon="6.24944">
        <ele>1466</ele>
        <time>2018-02-16T16:09:15Z</time>
      </trkpt>
      <trkpt lat="45.21502" lon="6.24974">
        <ele>1466</ele>
        <time>2018-02-16T16:10:15Z</time>
      </trkpt>
      <trkpt lat="45.21499" lon="6.24997">
        <ele>1467</ele>
        <time>2018-02-16T16:11:15Z</time>
      </trkpt>
      <trkpt lat="45.21493" lon="6.25158">
        <ele>1457</ele>
        <time>2018-02-16T16:12:15Z</time>
      </trkpt>
      <trkpt lat="45.21491" lon="6.25174">
        <ele>1458</ele>
        <time>2018-02-16T16:13:15Z</time>
      </trkpt>
      <trkpt lat="45.21486" lon="6.25189">
        <ele>1460</ele>
        <time>2018-02-16T16:14:15Z</time>
      </trkpt>
      <trkpt lat="45.21481" lon="6.25199">
        <ele>1461</ele>
        <time>2018-02-16T16:15:15Z</time>
      </trkpt>
      <trkpt lat="45.2147" lon="6.25208">
        <ele>1460</ele>
        <time>2018-02-16T16:16:15Z</time>
      </trkpt>
      <trkpt lat="45.21331" lon="6.2525">
        <ele>1444</ele>
        <time>2018-02-16T16:17:15Z</time>
      </trkpt>
      <trkpt lat="45.21311" lon="6.2526">
        <ele>1444</ele>
        <time>2018-02-16T16:18:15Z</time>
      </trkpt>
      <trkpt lat="45.213" lon="6.25268">
        <ele>1444</ele>
        <time>2018-02-16T16:19:15Z</time>
      </trkpt>
      <trkpt lat="45.21261" lon="6.25333">
        <ele>1443</ele>
        <time>2018-02-16T16:20:15Z</time>
      </trkpt>
      <trkpt lat="45.21251" lon="6.25355">
        <ele>1441</ele>
        <time>2018-02-16T16:21:15Z</time>
      </trkpt>
      <trkpt lat="45.21236" lon="6.25424">
        <ele>1446</ele>
        <time>2018-02-16T16:22:15Z</time>
      </trkpt>
      <trkpt lat="45.21229" lon="6.25443">
        <ele>1447</ele>
        <time>2018-02-16T16:23:15Z</time>
      </trkpt>
      <trkpt lat="45.21114" lon="6.2571">
        <ele>1431</ele>
        <time>2018-02-16T16:24:15Z</time>
      </trkpt>
      <trkpt lat="45.21101" lon="6.25733">
        <ele>1430</ele>
        <time>2018-02-16T16:25:15Z</time>
      </trkpt>
      <trkpt lat="45.21085" lon="6.25751">
        <ele>1427</ele>
        <time>2018-02-16T16:26:15Z</time>
      </trkpt>
      <trkpt lat="45.21015" lon="6.25796">
        <ele>1426</ele>
        <time>2018-02-16T16:27:15Z</time>
      </trkpt>
      <trkpt lat="45.21002" lon="6.25813">
        <ele>1425</ele>
        <time>2018-02-16T16:28:15Z</time>
      </trkpt>
      <trkpt lat="45.2098" lon="6.25847">
        <ele>1427</ele>
        <time>2018-02-16T16:29:15Z</time>
      </trkpt>
      <trkpt lat="45.20955" lon="6.25894">
        <ele>1428</ele>
        <time>2018-02-16T16:30:15Z</time>
      </trkpt>
      <trkpt lat="45.20913" lon="6.26003">
        <ele>1422</ele>
        <time>2018-02-16T16:31:15Z</time>
      </trkpt>
      <trkpt lat="45.20896" lon="6.26052">
        <ele>1422</ele>
        <time>2018-02-16T16:32:15Z</time>
      </trkpt>
      <trkpt lat="45.20866" lon="6.26162">
        <ele>1418</ele>
        <time>2018-02-16T16:33:15Z</time>
      </trkpt>
      <trkpt lat="45.20858" lon="6.26182">
        <ele>1419</ele>
        <time>2018-02-16T16:34:15Z</time>
      </trkpt>
      <trkpt lat="45.20819" lon="6.26231">
        <ele>1417</ele>
        <time>2018-02-16T16:35:15Z</time>
      </trkpt>
      <trkpt lat="45.20805" lon="6.26245">
        <ele>1416</ele>
        <time>2018-02-16T16:36:15Z</time>
      </trkpt>
      <trkpt lat="45.20793" lon="6.26255">
        <ele>1416</ele>
        <time>2018-02-16T16:37:15Z</time>
      </trkpt>
      <trkpt lat="45.20674" lon="6.2631">
        <ele>1411</ele>
        <time>2018-02-16T16:38:15Z</time>
      </trkpt>
      <trkpt lat="45.20661" lon="6.26324">
        <ele>1410</ele>
        <time>2018-02-16T16:39:15Z</time>
      </trkpt>
      <trkpt lat="45.20611" lon="6.26391">
        <ele>1409</ele>
        <time>2018-02-16T16:40:15Z</time>
      </trkpt>
      <trkpt lat="45.20603" lon="6.26409">
        <ele>1408</ele>
        <time>2018-02-16T16:41:15Z</time>
      </trkpt>
      <trkpt lat="45.20599" lon="6.2643">
        <ele>1408</ele>
        <time>2018-02-16T16:42:15Z</time>
      </trkpt>
      <trkpt lat="45.20589" lon="6.26447">
        <ele>1407</ele>
        <time>2018-02-16T16:43:15Z</time>
      </trkpt>
      <trkpt lat="45.20578" lon="6.26456">
        <ele>1406</ele>
        <time>2018-02-16T16:44:15Z</time>
      </trkpt>
      <trkpt lat="45.20497" lon="6.2653">
        <ele>1402</ele>
        <time>2018-02-16T16:45:15Z</time>
      </trkpt>
      <trkpt lat="45.20479" lon="6.26551">
        <ele>1402</ele>
        <time>2018-02-16T16:46:15Z</time>
      </trkpt>
      <trkpt lat="45.20459" lon="6.26565">
        <ele>1400</ele>
        <time>2018-02-16T16:47:15Z</time>
      </trkpt>
      <trkpt lat="45.20438" lon="6.26573">
        <ele>1397</ele>
        <time>2018-02-16T16:48:15Z</time>
      </trkpt>
      <trkpt lat="45.20412" lon="6.2658">
        <ele>1393</ele>
        <time>2018-02-16T16:49:15Z</time>
      </trkpt>
      <trkpt lat="45.20398" lon="6.26587">
        <ele>1392</ele>
        <time>2018-02-16T16:50:15Z</time>
      </trkpt>
      <trkpt lat="45.20377" lon="6.26602">
        <ele>1392</ele>
        <time>2018-02-16T16:51:15Z</time>
      </trkpt>
      <trkpt lat="45.20365" lon="6.26615">
        <ele>1391</ele>
        <time>2018-02-16T16:52:15Z</time>
      </trkpt>
      <trkpt lat="45.20352" lon="6.26635">
        <ele>1390</ele>
        <time>2018-02-16T16:53:15Z</time>
      </trkpt>
      <trkpt lat="45.20341" lon="6.26661">
        <ele>1390</ele>
        <time>2018-02-16T16:54:15Z</time>
      </trkpt>
      <trkpt lat="45.20326" lon="6.26709">
        <ele>1390</ele>
        <time>2018-02-16T16:55:15Z</time>
      </trkpt>
      <trkpt lat="45.20315" lon="6.26735">
        <ele>1389</ele>
        <time>2018-02-16T16:56:15Z</time>
      </trkpt>
      <trkpt lat="45.20287" lon="6.26784">
        <ele>1388</ele>
        <time>2018-02-16T16:57:15Z</time>
      </trkpt>
      <trkpt lat="45.20272" lon="6.26801">
        <ele>1386</ele>
        <time>2018-02-16T16:58:15Z</time>
      </trkpt>
      <trkpt lat="45.20254" lon="6.26814">
        <ele>1382</ele>
        <time>2018-02-16T16:59:15Z</time>
      </trkpt>
      <trkpt lat="45.2024" lon="6.2683">
        <ele>1380</ele>
        <time>2018-02-16T17:00:15Z</time>
      </trkpt>
      <trkpt lat="45.20213" lon="6.2688">
        <ele>1381</ele>
        <time>2018-02-16T17:01:15Z</time>
      </trkpt>
      <trkpt lat="45.20176" lon="6.2692">
        <ele>1373</ele>
        <time>2018-02-16T17:02:15Z</time>
      </trkpt>
      <trkpt lat="45.20169" lon="6.26934">
        <ele>1372</ele>
        <time>2018-02-16T17:03:15Z</time>
      </trkpt>
      <trkpt lat="45.20161" lon="6.26956">
        <ele>1372</ele>
        <time>2018-02-16T17:04:15Z</time>
      </trkpt>
      <trkpt lat="45.20136" lon="6.27053">
        <ele>1372</ele>
        <time>2018-02-16T17:05:15Z</time>
      </trkpt>
      <trkpt lat="45.2012" lon="6.27135">
        <ele>1370</ele>
        <time>2018-02-16T17:06:15Z</time>
      </trkpt>
      <trkpt lat="45.20114" lon="6.27197">
        <ele>1368</ele>
        <time>2018-02-16T17:07:15Z</time>
      </trkpt>
      <trkpt lat="45.20108" lon="6.27222">
        <ele>1367</ele>
        <time>2018-02-16T17:08:15Z</time>
      </trkpt>
      <trkpt lat="45.20082" lon="6.27275">
        <ele>1357</ele>
        <time>2018-02-16T17:09:15Z</time>
      </trkpt>
      <trkpt lat="45.20073" lon="6.27297">
        <ele>1358</ele>
        <time>2018-02-16T17:10:15Z</time>
      </trkpt>
      <trkpt lat="45.20074" lon="6.27315">
        <ele>1357</ele>
        <time>2018-02-16T17:11:15Z</time>
      </trkpt>
      <trkpt lat="45.20079" lon="6.27329">
        <ele>1356</ele>
        <time>2018-02-16T17:12:15Z</time>
      </trkpt>
      <trkpt lat="45.20102" lon="6.2736">
        <ele>1361</ele>
        <time>2018-02-16T17:13:15Z</time>
      </trkpt>
      <trkpt lat="45.20113" lon="6.27382">
        <ele>1362</ele>
        <time>2018-02-16T17:14:15Z</time>
      </trkpt>
      <trkpt lat="45.20117" lon="6.27399">
        <ele>1362</ele>
        <time>2018-02-16T17:15:15Z</time>
      </trkpt>
      <trkpt lat="45.20116" lon="6.27425">
        <ele>1361</ele>
        <time>2018-02-16T17:16:15Z</time>
      </trkpt>
      <trkpt lat="45.20107" lon="6.27449">
        <ele>1361</ele>
        <time>2018-02-16T17:17:15Z</time>
      </trkpt>
      <trkpt lat="45.20098" lon="6.27467">
        <ele>1361</ele>
        <time>2018-02-16T17:18:15Z</time>
      </trkpt>
      <trkpt lat="45.20058" lon="6.27521">
        <ele>1360</ele>
        <time>2018-02-16T17:19:15Z</time>
      </trkpt>
      <trkpt lat="45.20046" lon="6.27551">
        <ele>1362</ele>
        <time>2018-02-16T17:20:15Z</time>
      </trkpt>
      <trkpt lat="45.20033" lon="6.27571">
        <ele>1361</ele>
        <time>2018-02-16T17:21:15Z</time>
      </trkpt>
      <trkpt lat="45.20007" lon="6.27589">
        <ele>1356</ele>
        <time>2018-02-16T17:22:15Z</time>
      </trkpt>
      <trkpt lat="45.19984" lon="6.27621">
        <ele>1356</ele>
        <time>2018-02-16T17:23:15Z</time>
      </trkpt>
      <trkpt lat="45.19957" lon="6.27666">
        <ele>1355</ele>
        <time>2018-02-16T17:24:15Z</time>
      </trkpt>
      <trkpt lat="45.19937" lon="6.27681">
        <ele>1352</ele>
        <time>2018-02-16T17:25:15Z</time>
      </trkpt>
      <trkpt lat="45.19928" lon="6.27691">
        <ele>1350</ele>
        <time>2018-02-16T17:26:15Z</time>
      </trkpt>
      <trkpt lat="45.19901" lon="6.27761">
        <ele>1349</ele>
        <time>2018-02-16T17:27:15Z</time>
      </trkpt>
      <trkpt lat="45.19891" lon="6.27775">
        <ele>1348</ele>
        <time>2018-02-16T17:28:15Z</time>
      </trkpt>
      <trkpt lat="45.19833" lon="6.27835">
        <ele>1336</ele>
        <time>2018-02-16T17:29:15Z</time>
      </trkpt>
      <trkpt lat="45.19825" lon="6.27848">
        <ele>1337</ele>
        <time>2018-02-16T17:30:15Z</time>
      </trkpt>
      <trkpt lat="45.19817" lon="6.27864">
        <ele>1338</ele>
        <time>2018-02-16T17:31:15Z</time>
      </trkpt>
      <trkpt lat="45.19805" lon="6.27911">
        <ele>1339</ele>
        <time>2018-02-16T17:32:15Z</time>
      </trkpt>
      <trkpt lat="45.19788" lon="6.27943">
        <ele>1339</ele>
        <time>2018-02-16T17:33:15Z</time>
      </trkpt>
      <trkpt lat="45.19764" lon="6.2797">
        <ele>1334</ele>
        <time>2018-02-16T17:34:15Z</time>
      </trkpt>
      <trkpt lat="45.19729" lon="6.27989">
        <ele>1329</ele>
        <time>2018-02-16T17:35:15Z</time>
      </trkpt>
      <trkpt lat="45.19715" lon="6.28006">
        <ele>1328</ele>
        <time>2018-02-16T17:36:15Z</time>
      </trkpt>
      <trkpt lat="45.19704" lon="6.28031">
        <ele>1327</ele>
        <time>2018-02-16T17:37:15Z</time>
      </trkpt>
      <trkpt lat="45.19688" lon="6.28093">
        <ele>1324</ele>
        <time>2018-02-16T17:38:15Z</time>
      </trkpt>
      <trkpt lat="45.19676" lon="6.28131">
        <ele>1323</ele>
        <time>2018-02-16T17:39:15Z</time>
      </trkpt>
      <trkpt lat="45.19651" lon="6.2818">
        <ele>1321</ele>
        <time>2018-02-16T17:40:15Z</time>
      </trkpt>
      <trkpt lat="45.19645" lon="6.28188">
        <ele>1320</ele>
        <time>2018-02-16T17:41:15Z</time>
      </trkpt>
      <trkpt lat="45.1963" lon="6.28196">
        <ele>1319</ele>
        <time>2018-02-16T17:42:15Z</time>
      </trkpt>
      <trkpt lat="45.19626" lon="6.28195">
        <ele>1318</ele>
        <time>2018-02-16T17:43:15Z</time>
      </trkpt>
      <trkpt lat="45.19611" lon="6.28171">
        <ele>1317</ele>
        <time>2018-02-16T17:44:15Z</time>
      </trkpt>
      <trkpt lat="45.19601" lon="6.28165">
        <ele>1316</ele>
        <time>2018-02-16T17:45:15Z</time>
      </trkpt>
      <trkpt lat="45.19596" lon="6.28166">
        <ele>1316</ele>
        <time>2018-02-16T17:46:15Z</time>
      </trkpt>
      <trkpt lat="45.19497" lon="6.28342">
        <ele>1305</ele>
        <time>2018-02-16T17:47:15Z</time>
      </trkpt>
      <trkpt lat="45.1947" lon="6.28379">
        <ele>1304</ele>
        <time>2018-02-16T17:48:15Z</time>
      </trkpt>
      <trkpt lat="45.19448" lon="6.28398">
        <ele>1303</ele>
        <time>2018-02-16T17:49:15Z</time>
      </trkpt>
      <trkpt lat="45.194" lon="6.2843">
        <ele>1301</ele>
        <time>2018-02-16T17:50:15Z</time>
      </trkpt>
      <trkpt lat="45.19355" lon="6.28456">
        <ele>1301</ele>
        <time>2018-02-16T17:51:15Z</time>
      </trkpt>
      <trkpt lat="45.19306" lon="6.28511">
        <ele>1296</ele>
        <time>2018-02-16T17:52:15Z</time>
      </trkpt>
      <trkpt lat="45.19264" lon="6.28567">
        <ele>1292</ele>
        <time>2018-02-16T17:53:15Z</time>
      </trkpt>
      <trkpt lat="45.19253" lon="6.28585">
        <ele>1288</ele>
        <time>2018-02-16T17:54:15Z</time>
      </trkpt>
      <trkpt lat="45.19246" lon="6.28603">
        <ele>1287</ele>
        <time>2018-02-16T17:55:15Z</time>
      </trkpt>
      <trkpt lat="45.19246" lon="6.28608">
        <ele>1286</ele>
        <time>2018-02-16T17:56:15Z</time>
      </trkpt>
      <trkpt lat="45.19249" lon="6.28614">
        <ele>1286</ele>
        <time>2018-02-16T17:57:15Z</time>
      </trkpt>
      <trkpt lat="45.19267" lon="6.28647">
        <ele>1288</ele>
        <time>2018-02-16T17:58:15Z</time>
      </trkpt>
      <trkpt lat="45.19273" lon="6.28674">
        <ele>1290</ele>
        <time>2018-02-16T17:59:15Z</time>
      </trkpt>
      <trkpt lat="45.19274" lon="6.28689">
        <ele>1290</ele>
        <time>2018-02-16T18:00:15Z</time>
      </trkpt>
      <trkpt lat="45.1927" lon="6.28713">
        <ele>1290</ele>
        <time>2018-02-16T18:01:15Z</time>
      </trkpt>
      <trkpt lat="45.1926" lon="6.28736">
        <ele>1287</ele>
        <time>2018-02-16T18:02:15Z</time>
      </trkpt>
      <trkpt lat="45.19239" lon="6.28768">
        <ele>1285</ele>
        <time>2018-02-16T18:03:15Z</time>
      </trkpt>
      <trkpt lat="45.19229" lon="6.28788">
        <ele>1285</ele>
        <time>2018-02-16T18:04:15Z</time>
      </trkpt>
      <trkpt lat="45.19224" lon="6.28804">
        <ele>1286</ele>
        <time>2018-02-16T18:05:15Z</time>
      </trkpt>
      <trkpt lat="45.19222" lon="6.28819">
        <ele>1286</ele>
        <time>2018-02-16T18:06:15Z</time>
      </trkpt>
      <trkpt lat="45.19223" lon="6.28884">
        <ele>1282</ele>
        <time>2018-02-16T18:07:15Z</time>
      </trkpt>
      <trkpt lat="45.1922" lon="6.28928">
        <ele>1278</ele>
        <time>2018-02-16T18:08:15Z</time>
      </trkpt>
      <trkpt lat="45.19222" lon="6.28939">
        <ele>1277</ele>
        <time>2018-02-16T18:09:15Z</time>
      </trkpt>
      <trkpt lat="45.19225" lon="6.28948">
        <ele>1276</ele>
        <time>2018-02-16T18:10:15Z</time>
      </trkpt>
      <trkpt lat="45.19233" lon="6.28959">
        <ele>1275</ele>
        <time>2018-02-16T18:11:15Z</time>
      </trkpt>
      <trkpt lat="45.19266" lon="6.28997">
        <ele>1275</ele>
        <time>2018-02-16T18:12:15Z</time>
      </trkpt>
      <trkpt lat="45.19284" lon="6.29031">
        <ele>1280</ele>
        <time>2018-02-16T18:13:15Z</time>
      </trkpt>
      <trkpt lat="45.19288" lon="6.29051">
        <ele>1282</ele>
        <time>2018-02-16T18:14:15Z</time>
      </trkpt>
      <trkpt lat="45.19287" lon="6.29068">
        <ele>1282</ele>
        <time>2018-02-16T18:15:15Z</time>
      </trkpt>
      <trkpt lat="45.19281" lon="6.29086">
        <ele>1280</ele>
        <time>2018-02-16T18:16:15Z</time>
      </trkpt>
      <trkpt lat="45.19257" lon="6.29132">
        <ele>1273</ele>
        <time>2018-02-16T18:17:15Z</time>
      </trkpt>
      <trkpt lat="45.19247" lon="6.29159">
        <ele>1271</ele>
        <time>2018-02-16T18:18:15Z</time>
      </trkpt>
      <trkpt lat="45.1924" lon="6.29194">
        <ele>1270</ele>
        <time>2018-02-16T18:19:15Z</time>
      </trkpt>
      <trkpt lat="45.19233" lon="6.29232">
        <ele>1267</ele>
        <time>2018-02-16T18:20:15Z</time>
      </trkpt>
      <trkpt lat="45.19231" lon="6.29266">
        <ele>1264</ele>
        <time>2018-02-16T18:21:15Z</time>
      </trkpt>
      <trkpt lat="45.19234" lon="6.2928">
        <ele>1262</ele>
        <time>2018-02-16T18:22:15Z</time>
      </trkpt>
      <trkpt lat="45.19241" lon="6.29294">
        <ele>1260</ele>
        <time>2018-02-16T18:23:15Z</time>
      </trkpt>
      <trkpt lat="45.19265" lon="6.2932">
        <ele>1258</ele>
        <time>2018-02-16T18:24:15Z</time>
      </trkpt>
      <trkpt lat="45.19273" lon="6.29334">
        <ele>1257</ele>
        <time>2018-02-16T18:25:15Z</time>
      </trkpt>
      <trkpt lat="45.19282" lon="6.29353">
        <ele>1258</ele>
        <time>2018-02-16T18:26:15Z</time>
      </trkpt>
      <trkpt lat="45.19338" lon="6.29511">
        <ele>1256</ele>
        <time>2018-02-16T18:27:15Z</time>
      </trkpt>
      <trkpt lat="45.19343" lon="6.29543">
        <ele>1256</ele>
        <time>2018-02-16T18:28:15Z</time>
      </trkpt>
      <trkpt lat="45.19345" lon="6.29605">
        <ele>1251</ele>
        <time>2018-02-16T18:29:15Z</time>
      </trkpt>
      <trkpt lat="45.1936" lon="6.29658">
        <ele>1249</ele>
        <time>2018-02-16T18:30:15Z</time>
      </trkpt>
      <trkpt lat="45.19366" lon="6.2969">
        <ele>1249</ele>
        <time>2018-02-16T18:31:15Z</time>
      </trkpt>
      <trkpt lat="45.1937" lon="6.29702">
        <ele>1248</ele>
        <time>2018-02-16T18:32:15Z</time>
      </trkpt>
      <trkpt lat="45.19404" lon="6.29754">
        <ele>1243</ele>
        <time>2018-02-16T18:33:15Z</time>
      </trkpt>
      <trkpt lat="45.19415" lon="6.29767">
        <ele>1241</ele>
        <time>2018-02-16T18:34:15Z</time>
      </trkpt>
      <trkpt lat="45.19458" lon="6.29799">
        <ele>1244</ele>
        <time>2018-02-16T18:35:15Z</time>
      </trkpt>
      <trkpt lat="45.19573" lon="6.29857">
        <ele>1257</ele>
        <time>2018-02-16T18:36:15Z</time>
      </trkpt>
      <trkpt lat="45.19585" lon="6.29869">
        <ele>1256</ele>
        <time>2018-02-16T18:37:15Z</time>
      </trkpt>
      <trkpt lat="45.19592" lon="6.29883">
        <ele>1257</ele>
        <time>2018-02-16T18:38:15Z</time>
      </trkpt>
      <trkpt lat="45.19597" lon="6.29939">
        <ele>1250</ele>
        <time>2018-02-16T18:39:15Z</time>
      </trkpt>
      <trkpt lat="45.19601" lon="6.29964">
        <ele>1250</ele>
        <time>2018-02-16T18:40:15Z</time>
      </trkpt>
      <trkpt lat="45.1962" lon="6.30034">
        <ele>1252</ele>
        <time>2018-02-16T18:41:15Z</time>
      </trkpt>
      <trkpt lat="45.19625" lon="6.30041">
        <ele>1252</ele>
        <time>2018-02-16T18:42:15Z</time>
      </trkpt>
      <trkpt lat="45.19629" lon="6.30045">
        <ele>1252</ele>
        <time>2018-02-16T18:43:15Z</time>
      </trkpt>
      <trkpt lat="45.19639" lon="6.30048">
        <ele>1251</ele>
        <time>2018-02-16T18:44:15Z</time>
      </trkpt>
      <trkpt lat="45.19645" lon="6.30053">
        <ele>1250</ele>
        <time>2018-02-16T18:45:15Z</time>
      </trkpt>
      <trkpt lat="45.19691" lon="6.30114">
        <ele>1243</ele>
        <time>2018-02-16T18:46:15Z</time>
      </trkpt>
      <trkpt lat="45.19687" lon="6.30124">
        <ele>1242</ele>
        <time>2018-02-16T18:47:15Z</time>
      </trkpt>
      <trkpt lat="45.19687" lon="6.30124">
        <ele>1242</ele>
        <time>2018-02-16T18:48:15Z</time>
      </trkpt>
      <trkpt lat="45.19681" lon="6.30142">
        <ele>1241</ele>
        <time>2018-02-16T18:49:15Z</time>
      </trkpt>
      <trkpt lat="45.19681" lon="6.3016">
        <ele>1240</ele>
        <time>2018-02-16T18:50:15Z</time>
      </trkpt>
      <trkpt lat="45.19682" lon="6.30168">
        <ele>1240</ele>
        <time>2018-02-16T18:51:15Z</time>
      </trkpt>
      <trkpt lat="45.19695" lon="6.30199">
        <ele>1239</ele>
        <time>2018-02-16T18:52:15Z</time>
      </trkpt>
      <trkpt lat="45.19706" lon="6.30286">
        <ele>1235</ele>
        <time>2018-02-16T18:53:15Z</time>
      </trkpt>
      <trkpt lat="45.19706" lon="6.30297">
        <ele>1234</ele>
        <time>2018-02-16T18:54:15Z</time>
      </trkpt>
      <trkpt lat="45.19703" lon="6.30304">
        <ele>1234</ele>
        <time>2018-02-16T18:55:15Z</time>
      </trkpt>
      <trkpt lat="45.19699" lon="6.30306">
        <ele>1235</ele>
        <time>2018-02-16T18:56:15Z</time>
      </trkpt>
      <trkpt lat="45.19666" lon="6.30306">
        <ele>1241</ele>
        <time>2018-02-16T18:57:15Z</time>
      </trkpt>
      <trkpt lat="45.1966" lon="6.30312">
        <ele>1241</ele>
        <time>2018-02-16T18:58:15Z</time>
      </trkpt>
      <trkpt lat="45.19658" lon="6.30319">
        <ele>1241</ele>
        <time>2018-02-16T18:59:15Z</time>
      </trkpt>
      <trkpt lat="45.19652" lon="6.30347">
        <ele>1244</ele>
        <time>2018-02-16T19:00:15Z</time>
      </trkpt>
      <trkpt lat="45.19672" lon="6.30413">
        <ele>1252</ele>
        <time>2018-02-16T19:01:15Z</time>
      </trkpt>
      <trkpt lat="45.19681" lon="6.30426">
        <ele>1253</ele>
        <time>2018-02-16T19:02:15Z</time>
      </trkpt>
      <trkpt lat="45.19718" lon="6.30458">
        <ele>1252</ele>
        <time>2018-02-16T19:03:15Z</time>
      </trkpt>
      <trkpt lat="45.19733" lon="6.30475">
        <ele>1253</ele>
        <time>2018-02-16T19:04:15Z</time>
      </trkpt>
      <trkpt lat="45.19768" lon="6.30531">
        <ele>1260</ele>
        <time>2018-02-16T19:05:15Z</time>
      </trkpt>
      <trkpt lat="45.19827" lon="6.30596">
        <ele>1265</ele>
        <time>2018-02-16T19:06:15Z</time>
      </trkpt>
      <trkpt lat="45.19867" lon="6.30647">
        <ele>1272</ele>
        <time>2018-02-16T19:07:15Z</time>
      </trkpt>
      <trkpt lat="45.19912" lon="6.30669">
        <ele>1266</ele>
        <time>2018-02-16T19:08:15Z</time>
      </trkpt>
      <trkpt lat="45.19924" lon="6.30682">
        <ele>1265</ele>
        <time>2018-02-16T19:09:15Z</time>
      </trkpt>
      <trkpt lat="45.19931" lon="6.30698">
        <ele>1266</ele>
        <time>2018-02-16T19:10:15Z</time>
      </trkpt>
      <trkpt lat="45.19934" lon="6.30721">
        <ele>1269</ele>
        <time>2018-02-16T19:11:15Z</time>
      </trkpt>
      <trkpt lat="45.19931" lon="6.30746">
        <ele>1275</ele>
        <time>2018-02-16T19:12:15Z</time>
      </trkpt>
      <trkpt lat="45.19925" lon="6.30771">
        <ele>1279</ele>
        <time>2018-02-16T19:13:15Z</time>
      </trkpt>
      <trkpt lat="45.19903" lon="6.3082">
        <ele>1290</ele>
        <time>2018-02-16T19:14:15Z</time>
      </trkpt>
      <trkpt lat="45.199" lon="6.30842">
        <ele>1294</ele>
        <time>2018-02-16T19:15:15Z</time>
      </trkpt>
      <trkpt lat="45.19898" lon="6.30874">
        <ele>1299</ele>
        <time>2018-02-16T19:16:15Z</time>
      </trkpt>
      <trkpt lat="45.19901" lon="6.30897">
        <ele>1302</ele>
        <time>2018-02-16T19:17:15Z</time>
      </trkpt>
      <trkpt lat="45.19909" lon="6.30915">
        <ele>1302</ele>
        <time>2018-02-16T19:18:15Z</time>
      </trkpt>
      <trkpt lat="45.19924" lon="6.30928">
        <ele>1302</ele>
        <time>2018-02-16T19:19:15Z</time>
      </trkpt>
      <trkpt lat="45.19968" lon="6.30954">
        <ele>1299</ele>
        <time>2018-02-16T19:20:15Z</time>
      </trkpt>
      <trkpt lat="45.20014" lon="6.31016">
        <ele>1313</ele>
        <time>2018-02-16T19:21:15Z</time>
      </trkpt>
      <trkpt lat="45.20052" lon="6.31038">
        <ele>1309</ele>
        <time>2018-02-16T19:22:15Z</time>
      </trkpt>
      <trkpt lat="45.20066" lon="6.31052">
        <ele>1311</ele>
        <time>2018-02-16T19:23:15Z</time>
      </trkpt>
      <trkpt lat="45.20106" lon="6.31105">
        <ele>1317</ele>
        <time>2018-02-16T19:24:15Z</time>
      </trkpt>
      <trkpt lat="45.20145" lon="6.3114">
        <ele>1311</ele>
        <time>2018-02-16T19:25:15Z</time>
      </trkpt>
      <trkpt lat="45.20149" lon="6.31151">
        <ele>1311</ele>
        <time>2018-02-16T19:26:15Z</time>
      </trkpt>
      <trkpt lat="45.20148" lon="6.31155">
        <ele>1313</ele>
        <time>2018-02-16T19:27:15Z</time>
      </trkpt>
      <trkpt lat="45.20136" lon="6.31168">
        <ele>1320</ele>
        <time>2018-02-16T19:28:15Z</time>
      </trkpt>
      <trkpt lat="45.20112" lon="6.3121">
        <ele>1338</ele>
        <time>2018-02-16T19:29:15Z</time>
      </trkpt>
      <trkpt lat="45.2011" lon="6.31221">
        <ele>1340</ele>
        <time>2018-02-16T19:30:15Z</time>
      </trkpt>
      <trkpt lat="45.2011" lon="6.31233">
        <ele>1342</ele>
        <time>2018-02-16T19:31:15Z</time>
      </trkpt>
      <trkpt lat="45.20117" lon="6.31244">
        <ele>1341</ele>
        <time>2018-02-16T19:32:15Z</time>
      </trkpt>
      <trkpt lat="45.20145" lon="6.31274">
        <ele>1334</ele>
        <time>2018-02-16T19:33:15Z</time>
      </trkpt>
      <trkpt lat="45.20151" lon="6.31287">
        <ele>1333</ele>
        <time>2018-02-16T19:34:15Z</time>
      </trkpt>
      <trkpt lat="45.20154" lon="6.31302">
        <ele>1334</ele>
        <time>2018-02-16T19:35:15Z</time>
      </trkpt>
      <trkpt lat="45.2015" lon="6.31407">
        <ele>1347</ele>
        <time>2018-02-16T19:36:15Z</time>
      </trkpt>
      <trkpt lat="45.20151" lon="6.31427">
        <ele>1349</ele>
        <time>2018-02-16T19:37:15Z</time>
      </trkpt>
      <trkpt lat="45.20181" lon="6.31491">
        <ele>1346</ele>
        <time>2018-02-16T19:38:15Z</time>
      </trkpt>
      <trkpt lat="45.2019" lon="6.3152">
        <ele>1347</ele>
        <time>2018-02-16T19:39:15Z</time>
      </trkpt>
      <trkpt lat="45.20197" lon="6.31618">
        <ele>1359</ele>
        <time>2018-02-16T19:40:15Z</time>
      </trkpt>
      <trkpt lat="45.20209" lon="6.3168">
        <ele>1359</ele>
        <time>2018-02-16T19:41:15Z</time>
      </trkpt>
      <trkpt lat="45.20207" lon="6.31704">
        <ele>1360</ele>
        <time>2018-02-16T19:42:15Z</time>
      </trkpt>
      <trkpt lat="45.20199" lon="6.3172">
        <ele>1366</ele>
        <time>2018-02-16T19:43:15Z</time>
      </trkpt>
      <trkpt lat="45.20186" lon="6.31736">
        <ele>1374</ele>
        <time>2018-02-16T19:44:15Z</time>
      </trkpt>
      <trkpt lat="45.20182" lon="6.31761">
        <ele>1377</ele>
        <time>2018-02-16T19:45:15Z</time>
      </trkpt>
      <trkpt lat="45.20178" lon="6.31808">
        <ele>1377</ele>
        <time>2018-02-16T19:46:15Z</time>
      </trkpt>
      <trkpt lat="45.20179" lon="6.31856">
        <ele>1374</ele>
        <time>2018-02-16T19:47:15Z</time>
      </trkpt>
      <trkpt lat="45.20172" lon="6.31913">
        <ele>1374</ele>
        <time>2018-02-16T19:48:15Z</time>
      </trkpt>
      <trkpt lat="45.20166" lon="6.31934">
        <ele>1374</ele>
        <time>2018-02-16T19:49:15Z</time>
      </trkpt>
      <trkpt lat="45.20153" lon="6.31955">
        <ele>1372</ele>
        <time>2018-02-16T19:50:15Z</time>
      </trkpt>
      <trkpt lat="45.20136" lon="6.31968">
        <ele>1373</ele>
        <time>2018-02-16T19:51:15Z</time>
      </trkpt>
      <trkpt lat="45.20121" lon="6.31971">
        <ele>1375</ele>
        <time>2018-02-16T19:52:15Z</time>
      </trkpt>
      <trkpt lat="45.201" lon="6.31963">
        <ele>1382</ele>
        <time>2018-02-16T19:53:15Z</time>
      </trkpt>
      <trkpt lat="45.20062" lon="6.31941">
        <ele>1401</ele>
        <time>2018-02-16T19:54:15Z</time>
      </trkpt>
      <trkpt lat="45.20045" lon="6.31939">
        <ele>1409</ele>
        <time>2018-02-16T19:55:15Z</time>
      </trkpt>
      <trkpt lat="45.20033" lon="6.31951">
        <ele>1410</ele>
        <time>2018-02-16T19:56:15Z</time>
      </trkpt>
      <trkpt lat="45.20013" lon="6.31984">
        <ele>1406</ele>
        <time>2018-02-16T19:57:15Z</time>
      </trkpt>
      <trkpt lat="45.20004" lon="6.32011">
        <ele>1402</ele>
        <time>2018-02-16T19:58:15Z</time>
      </trkpt>
      <trkpt lat="45.19985" lon="6.32043">
        <ele>1401</ele>
        <time>2018-02-16T19:59:15Z</time>
      </trkpt>
      <trkpt lat="45.19964" lon="6.32061">
        <ele>1402</ele>
        <time>2018-02-16T20:00:15Z</time>
      </trkpt>
      <trkpt lat="45.19941" lon="6.32089">
        <ele>1400</ele>
        <time>2018-02-16T20:01:15Z</time>
      </trkpt>
      <trkpt lat="45.1989" lon="6.32113">
        <ele>1413</ele>
        <time>2018-02-16T20:02:15Z</time>
      </trkpt>
      <trkpt lat="45.19879" lon="6.32126">
        <ele>1414</ele>
        <time>2018-02-16T20:03:15Z</time>
      </trkpt>
      <trkpt lat="45.19868" lon="6.32148">
        <ele>1413</ele>
        <time>2018-02-16T20:04:15Z</time>
      </trkpt>
      <trkpt lat="45.19862" lon="6.32165">
        <ele>1410</ele>
        <time>2018-02-16T20:05:15Z</time>
      </trkpt>
      <trkpt lat="45.19862" lon="6.32196">
        <ele>1406</ele>
        <time>2018-02-16T20:06:15Z</time>
      </trkpt>
      <trkpt lat="45.19858" lon="6.32212">
        <ele>1405</ele>
        <time>2018-02-16T20:07:15Z</time>
      </trkpt>
      <trkpt lat="45.19852" lon="6.32224">
        <ele>1405</ele>
        <time>2018-02-16T20:08:15Z</time>
      </trkpt>
      <trkpt lat="45.1982" lon="6.32257">
        <ele>1410</ele>
        <time>2018-02-16T20:09:15Z</time>
      </trkpt>
      <trkpt lat="45.19794" lon="6.32293">
        <ele>1412</ele>
        <time>2018-02-16T20:10:15Z</time>
      </trkpt>
      <trkpt lat="45.19773" lon="6.32327">
        <ele>1413</ele>
        <time>2018-02-16T20:11:15Z</time>
      </trkpt>
      <trkpt lat="45.19764" lon="6.32356">
        <ele>1413</ele>
        <time>2018-02-16T20:12:15Z</time>
      </trkpt>
      <trkpt lat="45.19749" lon="6.32425">
        <ele>1416</ele>
        <time>2018-02-16T20:13:15Z</time>
      </trkpt>
      <trkpt lat="45.1974" lon="6.32452">
        <ele>1416</ele>
        <time>2018-02-16T20:14:15Z</time>
      </trkpt>
      <trkpt lat="45.19727" lon="6.32482">
        <ele>1418</ele>
        <time>2018-02-16T20:15:15Z</time>
      </trkpt>
      <trkpt lat="45.19708" lon="6.3251">
        <ele>1421</ele>
        <time>2018-02-16T20:16:15Z</time>
      </trkpt>
      <trkpt lat="45.19648" lon="6.3258">
        <ele>1431</ele>
        <time>2018-02-16T20:17:15Z</time>
      </trkpt>
      <trkpt lat="45.19628" lon="6.32607">
        <ele>1437</ele>
        <time>2018-02-16T20:18:15Z</time>
      </trkpt>
      <trkpt lat="45.1961" lon="6.32642">
        <ele>1440</ele>
        <time>2018-02-16T20:19:15Z</time>
      </trkpt>
      <trkpt lat="45.19586" lon="6.32699">
        <ele>1446</ele>
        <time>2018-02-16T20:20:15Z</time>
      </trkpt>
      <trkpt lat="45.19582" lon="6.32716">
        <ele>1447</ele>
        <time>2018-02-16T20:21:15Z</time>
      </trkpt>
      <trkpt lat="45.19583" lon="6.32739">
        <ele>1447</ele>
        <time>2018-02-16T20:22:15Z</time>
      </trkpt>
      <trkpt lat="45.19604" lon="6.32856">
        <ele>1446</ele>
        <time>2018-02-16T20:23:15Z</time>
      </trkpt>
      <trkpt lat="45.19589" lon="6.32928">
        <ele>1451</ele>
        <time>2018-02-16T20:24:15Z</time>
      </trkpt>
      <trkpt lat="45.19597" lon="6.32955">
        <ele>1449</ele>
        <time>2018-02-16T20:25:15Z</time>
      </trkpt>
      <trkpt lat="45.19598" lon="6.32976">
        <ele>1449</ele>
        <time>2018-02-16T20:26:15Z</time>
      </trkpt>
      <trkpt lat="45.19582" lon="6.33033">
        <ele>1452</ele>
        <time>2018-02-16T20:27:15Z</time>
      </trkpt>
      <trkpt lat="45.19579" lon="6.3308">
        <ele>1452</ele>
        <time>2018-02-16T20:28:15Z</time>
      </trkpt>
      <trkpt lat="45.19584" lon="6.33111">
        <ele>1450</ele>
        <time>2018-02-16T20:29:15Z</time>
      </trkpt>
      <trkpt lat="45.19594" lon="6.33128">
        <ele>1448</ele>
        <time>2018-02-16T20:30:15Z</time>
      </trkpt>
      <trkpt lat="45.19618" lon="6.33178">
        <ele>1446</ele>
        <time>2018-02-16T20:31:15Z</time>
      </trkpt>
      <trkpt lat="45.1963" lon="6.33196">
        <ele>1445</ele>
        <time>2018-02-16T20:32:15Z</time>
      </trkpt>
      <trkpt lat="45.19658" lon="6.33226">
        <ele>1445</ele>
        <time>2018-02-16T20:33:15Z</time>
      </trkpt>
      <trkpt lat="45.19712" lon="6.33266">
        <ele>1447</ele>
        <time>2018-02-16T20:34:15Z</time>
      </trkpt>
      <trkpt lat="45.19732" lon="6.33284">
        <ele>1448</ele>
        <time>2018-02-16T20:35:15Z</time>
      </trkpt>
      <trkpt lat="45.19756" lon="6.33315">
        <ele>1452</ele>
        <time>2018-02-16T20:36:15Z</time>
      </trkpt>
      <trkpt lat="45.19771" lon="6.33327">
        <ele>1455</ele>
        <time>2018-02-16T20:37:15Z</time>
      </trkpt>
      <trkpt lat="45.19789" lon="6.33332">
        <ele>1456</ele>
        <time>2018-02-16T20:38:15Z</time>
      </trkpt>
      <trkpt lat="45.19808" lon="6.33329">
        <ele>1456</ele>
        <time>2018-02-16T20:39:15Z</time>
      </trkpt>
      <trkpt lat="45.19843" lon="6.33312">
        <ele>1454</ele>
        <time>2018-02-16T20:40:15Z</time>
      </trkpt>
      <trkpt lat="45.19886" lon="6.33315">
        <ele>1456</ele>
        <time>2018-02-16T20:41:15Z</time>
      </trkpt>
      <trkpt lat="45.1991" lon="6.33326">
        <ele>1459</ele>
        <time>2018-02-16T20:42:15Z</time>
      </trkpt>
      <trkpt lat="45.1993" lon="6.33342">
        <ele>1461</ele>
        <time>2018-02-16T20:43:15Z</time>
      </trkpt>
      <trkpt lat="45.19952" lon="6.33382">
        <ele>1466</ele>
        <time>2018-02-16T20:44:15Z</time>
      </trkpt>
      <trkpt lat="45.1998" lon="6.33417">
        <ele>1471</ele>
        <time>2018-02-16T20:45:15Z</time>
      </trkpt>
      <trkpt lat="45.20005" lon="6.33424">
        <ele>1472</ele>
        <time>2018-02-16T20:46:15Z</time>
      </trkpt>
      <trkpt lat="45.20034" lon="6.33419">
        <ele>1476</ele>
        <time>2018-02-16T20:47:15Z</time>
      </trkpt>
      <trkpt lat="45.20051" lon="6.33406">
        <ele>1476</ele>
        <time>2018-02-16T20:48:15Z</time>
      </trkpt>
      <trkpt lat="45.20082" lon="6.33375">
        <ele>1473</ele>
        <time>2018-02-16T20:49:15Z</time>
      </trkpt>
      <trkpt lat="45.20091" lon="6.33372">
        <ele>1474</ele>
        <time>2018-02-16T20:50:15Z</time>
      </trkpt>
      <trkpt lat="45.20096" lon="6.33374">
        <ele>1475</ele>
        <time>2018-02-16T20:51:15Z</time>
      </trkpt>
      <trkpt lat="45.20099" lon="6.33378">
        <ele>1476</ele>
        <time>2018-02-16T20:52:15Z</time>
      </trkpt>
      <trkpt lat="45.201" lon="6.33387">
        <ele>1478</ele>
        <time>2018-02-16T20:53:15Z</time>
      </trkpt>
      <trkpt lat="45.20094" lon="6.33398">
        <ele>1480</ele>
        <time>2018-02-16T20:54:15Z</time>
      </trkpt>
      <trkpt lat="45.20079" lon="6.33407">
        <ele>1480</ele>
        <time>2018-02-16T20:55:15Z</time>
      </trkpt>
      <trkpt lat="45.20067" lon="6.33422">
        <ele>1481</ele>
        <time>2018-02-16T20:56:15Z</time>
      </trkpt>
      <trkpt lat="45.2003" lon="6.33503">
        <ele>1486</ele>
        <time>2018-02-16T20:57:15Z</time>
      </trkpt>
      <trkpt lat="45.20025" lon="6.33532">
        <ele>1488</ele>
        <time>2018-02-16T20:58:15Z</time>
      </trkpt>
      <trkpt lat="45.20024" lon="6.33549">
        <ele>1489</ele>
        <time>2018-02-16T20:59:15Z</time>
      </trkpt>
      <trkpt lat="45.20027" lon="6.33561">
        <ele>1491</ele>
        <time>2018-02-16T21:00:15Z</time>
      </trkpt>
      <trkpt lat="45.20035" lon="6.33564">
        <ele>1493</ele>
        <time>2018-02-16T21:01:15Z</time>
      </trkpt>
      <trkpt lat="45.20042" lon="6.33554">
        <ele>1494</ele>
        <time>2018-02-16T21:02:15Z</time>
      </trkpt>
      <trkpt lat="45.20049" lon="6.33509">
        <ele>1491</ele>
        <time>2018-02-16T21:03:15Z</time>
      </trkpt>
      <trkpt lat="45.20054" lon="6.33497">
        <ele>1490</ele>
        <time>2018-02-16T21:04:15Z</time>
      </trkpt>
      <trkpt lat="45.20075" lon="6.33484">
        <ele>1493</ele>
        <time>2018-02-16T21:05:15Z</time>
      </trkpt>
      <trkpt lat="45.20088" lon="6.33479">
        <ele>1494</ele>
        <time>2018-02-16T21:06:15Z</time>
      </trkpt>
      <trkpt lat="45.20104" lon="6.33477">
        <ele>1495</ele>
        <time>2018-02-16T21:07:15Z</time>
      </trkpt>
      <trkpt lat="45.20122" lon="6.3348">
        <ele>1497</ele>
        <time>2018-02-16T21:08:15Z</time>
      </trkpt>
      <trkpt lat="45.20174" lon="6.33494">
        <ele>1504</ele>
        <time>2018-02-16T21:09:15Z</time>
      </trkpt>
      <trkpt lat="45.20203" lon="6.33527">
        <ele>1511</ele>
        <time>2018-02-16T21:10:15Z</time>
      </trkpt>
      <trkpt lat="45.20207" lon="6.33534">
        <ele>1513</ele>
        <time>2018-02-16T21:11:15Z</time>
      </trkpt>
      <trkpt lat="45.20224" lon="6.33545">
        <ele>1516</ele>
        <time>2018-02-16T21:12:15Z</time>
      </trkpt>
      <trkpt lat="45.20235" lon="6.33544">
        <ele>1516</ele>
        <time>2018-02-16T21:13:15Z</time>
      </trkpt>
      <trkpt lat="45.2025" lon="6.33528">
        <ele>1514</ele>
        <time>2018-02-16T21:14:15Z</time>
      </trkpt>
      <trkpt lat="45.20257" lon="6.33516">
        <ele>1513</ele>
        <time>2018-02-16T21:15:15Z</time>
      </trkpt>
      <trkpt lat="45.20276" lon="6.33457">
        <ele>1506</ele>
        <time>2018-02-16T21:16:15Z</time>
      </trkpt>
      <trkpt lat="45.20285" lon="6.33448">
        <ele>1506</ele>
        <time>2018-02-16T21:17:15Z</time>
      </trkpt>
      <trkpt lat="45.20293" lon="6.33443">
        <ele>1506</ele>
        <time>2018-02-16T21:18:15Z</time>
      </trkpt>
      <trkpt lat="45.20305" lon="6.33448">
        <ele>1508</ele>
        <time>2018-02-16T21:19:15Z</time>
      </trkpt>
      <trkpt lat="45.2032" lon="6.33476">
        <ele>1514</ele>
        <time>2018-02-16T21:20:15Z</time>
      </trkpt>
      <trkpt lat="45.20334" lon="6.33492">
        <ele>1519</ele>
        <time>2018-02-16T21:21:15Z</time>
      </trkpt>
      <trkpt lat="45.20349" lon="6.33499">
        <ele>1522</ele>
        <time>2018-02-16T21:22:15Z</time>
      </trkpt>
      <trkpt lat="45.2036" lon="6.33498">
        <ele>1523</ele>
        <time>2018-02-16T21:23:15Z</time>
      </trkpt>
      <trkpt lat="45.20381" lon="6.33488">
        <ele>1523</ele>
        <time>2018-02-16T21:24:15Z</time>
      </trkpt>
      <trkpt lat="45.20404" lon="6.33474">
        <ele>1523</ele>
        <time>2018-02-16T21:25:15Z</time>
      </trkpt>
      <trkpt lat="45.20412" lon="6.33466">
        <ele>1523</ele>
        <time>2018-02-16T21:26:15Z</time>
      </trkpt>
      <trkpt lat="45.2042" lon="6.33452">
        <ele>1522</ele>
        <time>2018-02-16T21:27:15Z</time>
      </trkpt>
      <trkpt lat="45.20428" lon="6.3345">
        <ele>1525</ele>
        <time>2018-02-16T21:28:15Z</time>
      </trkpt>
      <trkpt lat="45.20432" lon="6.33454">
        <ele>1527</ele>
        <time>2018-02-16T21:29:15Z</time>
      </trkpt>
      <trkpt lat="45.20432" lon="6.3346">
        <ele>1527</ele>
        <time>2018-02-16T21:30:15Z</time>
      </trkpt>
      <trkpt lat="45.20429" lon="6.33468">
        <ele>1527</ele>
        <time>2018-02-16T21:31:15Z</time>
      </trkpt>
      <trkpt lat="45.20393" lon="6.33547">
        <ele>1534</ele>
        <time>2018-02-16T21:32:15Z</time>
      </trkpt>
      <trkpt lat="45.20384" lon="6.33562">
        <ele>1536</ele>
        <time>2018-02-16T21:33:15Z</time>
      </trkpt>
      <trkpt lat="45.20345" lon="6.33598">
        <ele>1539</ele>
        <time>2018-02-16T21:34:15Z</time>
      </trkpt>
      <trkpt lat="45.20321" lon="6.33613">
        <ele>1539</ele>
        <time>2018-02-16T21:35:15Z</time>
      </trkpt>
      <trkpt lat="45.20282" lon="6.33619">
        <ele>1535</ele>
        <time>2018-02-16T21:36:15Z</time>
      </trkpt>
      <trkpt lat="45.20278" lon="6.33626">
        <ele>1536</ele>
        <time>2018-02-16T21:37:15Z</time>
      </trkpt>
      <trkpt lat="45.20278" lon="6.33634">
        <ele>1538</ele>
        <time>2018-02-16T21:38:15Z</time>
      </trkpt>
      <trkpt lat="45.20281" lon="6.3364">
        <ele>1539</ele>
        <time>2018-02-16T21:39:15Z</time>
      </trkpt>
      <trkpt lat="45.20304" lon="6.3364">
        <ele>1542</ele>
        <time>2018-02-16T21:40:15Z</time>
      </trkpt>
      <trkpt lat="45.20344" lon="6.33662">
        <ele>1551</ele>
        <time>2018-02-16T21:41:15Z</time>
      </trkpt>
      <trkpt lat="45.20395" lon="6.33664">
        <ele>1554</ele>
        <time>2018-02-16T21:42:15Z</time>
      </trkpt>
      <trkpt lat="45.20405" lon="6.33668">
        <ele>1556</ele>
        <time>2018-02-16T21:43:15Z</time>
      </trkpt>
      <trkpt lat="45.20414" lon="6.33676">
        <ele>1557</ele>
        <time>2018-02-16T21:44:15Z</time>
      </trkpt>
      <trkpt lat="45.20434" lon="6.33702">
        <ele>1564</ele>
        <time>2018-02-16T21:45:15Z</time>
      </trkpt>
      <trkpt lat="45.20448" lon="6.33712">
        <ele>1567</ele>
        <time>2018-02-16T21:46:15Z</time>
      </trkpt>
      <trkpt lat="45.20462" lon="6.33717">
        <ele>1569</ele>
        <time>2018-02-16T21:47:15Z</time>
      </trkpt>
      <trkpt lat="45.20476" lon="6.33717">
        <ele>1570</ele>
        <time>2018-02-16T21:48:15Z</time>
      </trkpt>
      <trkpt lat="45.20495" lon="6.33713">
        <ele>1572</ele>
        <time>2018-02-16T21:49:15Z</time>
      </trkpt>
      <trkpt lat="45.20508" lon="6.33716">
        <ele>1574</ele>
        <time>2018-02-16T21:50:15Z</time>
      </trkpt>
      <trkpt lat="45.20532" lon="6.33745">
        <ele>1580</ele>
        <time>2018-02-16T21:51:15Z</time>
      </trkpt>
      <trkpt lat="45.2054" lon="6.33748">
        <ele>1582</ele>
        <time>2018-02-16T21:52:15Z</time>
      </trkpt>
      <trkpt lat="45.20548" lon="6.33748">
        <ele>1583</ele>
        <time>2018-02-16T21:53:15Z</time>
      </trkpt>
      <trkpt lat="45.20555" lon="6.33743">
        <ele>1583</ele>
        <time>2018-02-16T21:54:15Z</time>
      </trkpt>
      <trkpt lat="45.20562" lon="6.3373">
        <ele>1584</ele>
        <time>2018-02-16T21:55:15Z</time>
      </trkpt>
      <trkpt lat="45.20567" lon="6.33712">
        <ele>1584</ele>
        <time>2018-02-16T21:56:15Z</time>
      </trkpt>
      <trkpt lat="45.20571" lon="6.33689">
        <ele>1584</ele>
        <time>2018-02-16T21:57:15Z</time>
      </trkpt>
      <trkpt lat="45.20571" lon="6.33642">
        <ele>1584</ele>
        <time>2018-02-16T21:58:15Z</time>
      </trkpt>
      <trkpt lat="45.20574" lon="6.3361">
        <ele>1584</ele>
        <time>2018-02-16T21:59:15Z</time>
      </trkpt>
      <trkpt lat="45.2058" lon="6.33593">
        <ele>1586</ele>
        <time>2018-02-16T22:00:15Z</time>
      </trkpt>
      <trkpt lat="45.20596" lon="6.33561">
        <ele>1589</ele>
        <time>2018-02-16T22:01:15Z</time>
      </trkpt>
      <trkpt lat="45.20605" lon="6.33514">
        <ele>1589</ele>
        <time>2018-02-16T22:02:15Z</time>
      </trkpt>
      <trkpt lat="45.20609" lon="6.33506">
        <ele>1589</ele>
        <time>2018-02-16T22:03:15Z</time>
      </trkpt>
      <trkpt lat="45.20615" lon="6.33503">
        <ele>1591</ele>
        <time>2018-02-16T22:04:15Z</time>
      </trkpt>
      <trkpt lat="45.20626" lon="6.33502">
        <ele>1593</ele>
        <time>2018-02-16T22:05:15Z</time>
      </trkpt>
      <trkpt lat="45.20656" lon="6.33506">
        <ele>1601</ele>
        <time>2018-02-16T22:06:15Z</time>
      </trkpt>
      <trkpt lat="45.2067" lon="6.335">
        <ele>1603</ele>
        <time>2018-02-16T22:07:15Z</time>
      </trkpt>
      <trkpt lat="45.20685" lon="6.3348">
        <ele>1606</ele>
        <time>2018-02-16T22:08:15Z</time>
      </trkpt>
      <trkpt lat="45.20687" lon="6.33467">
        <ele>1606</ele>
        <time>2018-02-16T22:09:15Z</time>
      </trkpt>
      <trkpt lat="45.20684" lon="6.3344">
        <ele>1606</ele>
        <time>2018-02-16T22:10:15Z</time>
      </trkpt>
      <trkpt lat="45.20686" lon="6.33429">
        <ele>1606</ele>
        <time>2018-02-16T22:11:15Z</time>
      </trkpt>
      <trkpt lat="45.20689" lon="6.33423">
        <ele>1607</ele>
        <time>2018-02-16T22:12:15Z</time>
      </trkpt>
      <trkpt lat="45.20696" lon="6.33421">
        <ele>1608</ele>
        <time>2018-02-16T22:13:15Z</time>
      </trkpt>
      <trkpt lat="45.20703" lon="6.33425">
        <ele>1609</ele>
        <time>2018-02-16T22:14:15Z</time>
      </trkpt>
      <trkpt lat="45.20817" lon="6.33512">
        <ele>1624</ele>
        <time>2018-02-16T22:15:15Z</time>
      </trkpt>
      <trkpt lat="45.20846" lon="6.33543">
        <ele>1627</ele>
        <time>2018-02-16T22:16:15Z</time>
      </trkpt>
      <trkpt lat="45.20945" lon="6.33676">
        <ele>1632</ele>
        <time>2018-02-16T22:17:15Z</time>
      </trkpt>
      <trkpt lat="45.20955" lon="6.33682">
        <ele>1633</ele>
        <time>2018-02-16T22:18:15Z</time>
      </trkpt>
      <trkpt lat="45.21052" lon="6.33715">
        <ele>1632</ele>
        <time>2018-02-16T22:19:15Z</time>
      </trkpt>
      <trkpt lat="45.21085" lon="6.33732">
        <ele>1631</ele>
        <time>2018-02-16T22:20:15Z</time>
      </trkpt>
      <trkpt lat="45.21097" lon="6.3374">
        <ele>1628</ele>
        <time>2018-02-16T22:21:15Z</time>
      </trkpt>
      <trkpt lat="45.2117" lon="6.33814">
        <ele>1623</ele>
        <time>2018-02-16T22:22:15Z</time>
      </trkpt>
      <trkpt lat="45.21193" lon="6.33839">
        <ele>1619</ele>
        <time>2018-02-16T22:23:15Z</time>
      </trkpt>
      <trkpt lat="45.21225" lon="6.33891">
        <ele>1615</ele>
        <time>2018-02-16T22:24:15Z</time>
      </trkpt>
      <trkpt lat="45.21245" lon="6.33918">
        <ele>1612</ele>
        <time>2018-02-16T22:25:15Z</time>
      </trkpt>
      <trkpt lat="45.213" lon="6.33981">
        <ele>1606</ele>
        <time>2018-02-16T22:26:15Z</time>
      </trkpt>
      <trkpt lat="45.21323" lon="6.34017">
        <ele>1602</ele>
        <time>2018-02-16T22:27:15Z</time>
      </trkpt>
      <trkpt lat="45.21388" lon="6.34142">
        <ele>1592</ele>
        <time>2018-02-16T22:28:15Z</time>
      </trkpt>
      <trkpt lat="45.21405" lon="6.34188">
        <ele>1591</ele>
        <time>2018-02-16T22:29:15Z</time>
      </trkpt>
      <trkpt lat="45.21414" lon="6.34206">
        <ele>1590</ele>
        <time>2018-02-16T22:30:15Z</time>
      </trkpt>
      <trkpt lat="45.21435" lon="6.34236">
        <ele>1588</ele>
        <time>2018-02-16T22:31:15Z</time>
      </trkpt>
      <trkpt lat="45.21452" lon="6.34268">
        <ele>1587</ele>
        <time>2018-02-16T22:32:15Z</time>
      </trkpt>
      <trkpt lat="45.21466" lon="6.34275">
        <ele>1585</ele>
        <time>2018-02-16T22:33:15Z</time>
      </trkpt>
      <trkpt lat="45.21483" lon="6.34277">
        <ele>1582</ele>
        <time>2018-02-16T22:34:15Z</time>
      </trkpt>
      <trkpt lat="45.21516" lon="6.34261">
        <ele>1574</ele>
        <time>2018-02-16T22:35:15Z</time>
      </trkpt>
      <trkpt lat="45.21532" lon="6.34265">
        <ele>1571</ele>
        <time>2018-02-16T22:36:15Z</time>
      </trkpt>
      <trkpt lat="45.21541" lon="6.34274">
        <ele>1570</ele>
        <time>2018-02-16T22:37:15Z</time>
      </trkpt>
      <trkpt lat="45.21549" lon="6.34289">
        <ele>1569</ele>
        <time>2018-02-16T22:38:15Z</time>
      </trkpt>
      <trkpt lat="45.21569" lon="6.34339">
        <ele>1569</ele>
        <time>2018-02-16T22:39:15Z</time>
      </trkpt>
      <trkpt lat="45.21584" lon="6.34369">
        <ele>1568</ele>
        <time>2018-02-16T22:40:15Z</time>
      </trkpt>
      <trkpt lat="45.21603" lon="6.34396">
        <ele>1565</ele>
        <time>2018-02-16T22:41:15Z</time>
      </trkpt>
      <trkpt lat="45.21619" lon="6.34413">
        <ele>1563</ele>
        <time>2018-02-16T22:42:15Z</time>
      </trkpt>
      <trkpt lat="45.21626" lon="6.34414">
        <ele>1562</ele>
        <time>2018-02-16T22:43:15Z</time>
      </trkpt>
      <trkpt lat="45.21631" lon="6.34411">
        <ele>1560</ele>
        <time>2018-02-16T22:44:15Z</time>
      </trkpt>
      <trkpt lat="45.21632" lon="6.34392">
        <ele>1559</ele>
        <time>2018-02-16T22:45:15Z</time>
      </trkpt>
      <trkpt lat="45.21617" lon="6.34281">
        <ele>1554</ele>
        <time>2018-02-16T22:46:15Z</time>
      </trkpt>
      <trkpt lat="45.21601" lon="6.34212">
        <ele>1551</ele>
        <time>2018-02-16T22:47:15Z</time>
      </trkpt>
      <trkpt lat="45.21619" lon="6.34104">
        <ele>1540</ele>
        <time>2018-02-16T22:48:15Z</time>
      </trkpt>
      <trkpt lat="45.21636" lon="6.34126">
        <ele>1539</ele>
        <time>2018-02-16T22:49:15Z</time>
      </trkpt>
      <trkpt lat="45.21704" lon="6.34145">
        <ele>1531</ele>
        <time>2018-02-16T22:50:15Z</time>
      </trkpt>
      <trkpt lat="45.21713" lon="6.34146">
        <ele>1530</ele>
        <time>2018-02-16T22:51:15Z</time>
      </trkpt>
      <trkpt lat="45.21731" lon="6.34142">
        <ele>1528</ele>
        <time>2018-02-16T22:52:15Z</time>
      </trkpt>
      <trkpt lat="45.2176" lon="6.34125">
        <ele>1525</ele>
        <time>2018-02-16T22:53:15Z</time>
      </trkpt>
      <trkpt lat="45.21812" lon="6.34086">
        <ele>1521</ele>
        <time>2018-02-16T22:54:15Z</time>
      </trkpt>
      <trkpt lat="45.21834" lon="6.34082">
        <ele>1520</ele>
        <time>2018-02-16T22:55:15Z</time>
      </trkpt>
      <trkpt lat="45.21841" lon="6.34069">
        <ele>1520</ele>
        <time>2018-02-16T22:56:15Z</time>
      </trkpt>
      <trkpt lat="45.21848" lon="6.34049">
        <ele>1519</ele>
        <time>2018-02-16T22:57:15Z</time>
      </trkpt>
      <trkpt lat="45.21844" lon="6.34025">
        <ele>1518</ele>
        <time>2018-02-16T22:58:15Z</time>
      </trkpt>
      <trkpt lat="45.21888" lon="6.33957">
        <ele>1513</ele>
        <time>2018-02-16T22:59:15Z</time>
      </trkpt>
      <trkpt lat="45.21895" lon="6.3392">
        <ele>1511</ele>
        <time>2018-02-16T23:00:15Z</time>
      </trkpt>
      <trkpt lat="45.21911" lon="6.33652">
        <ele>1502</ele>
        <time>2018-02-16T23:01:15Z</time>
      </trkpt>
      <trkpt lat="45.21915" lon="6.33637">
        <ele>1501</ele>
        <time>2018-02-16T23:02:15Z</time>
      </trkpt>
      <trkpt lat="45.21926" lon="6.33607">
        <ele>1500</ele>
        <time>2018-02-16T23:03:15Z</time>
      </trkpt>
      <trkpt lat="45.2193" lon="6.3359">
        <ele>1500</ele>
        <time>2018-02-16T23:04:15Z</time>
      </trkpt>
      <trkpt lat="45.2194" lon="6.33476">
        <ele>1493</ele>
        <time>2018-02-16T23:05:15Z</time>
      </trkpt>
      <trkpt lat="45.21945" lon="6.33436">
        <ele>1490</ele>
        <time>2018-02-16T23:06:15Z</time>
      </trkpt>
      <trkpt lat="45.2198" lon="6.3334">
        <ele>1482</ele>
        <time>2018-02-16T23:07:15Z</time>
      </trkpt>
      <trkpt lat="45.22002" lon="6.33275">
        <ele>1478</ele>
        <time>2018-02-16T23:08:15Z</time>
      </trkpt>
      <trkpt lat="45.22013" lon="6.33249">
        <ele>1476</ele>
        <time>2018-02-16T23:09:15Z</time>
      </trkpt>
      <trkpt lat="45.22039" lon="6.33215">
        <ele>1476</ele>
        <time>2018-02-16T23:10:15Z</time>
      </trkpt>
      <trkpt lat="45.2212" lon="6.33158">
        <ele>1473</ele>
        <time>2018-02-16T23:11:15Z</time>
      </trkpt>
      <trkpt lat="45.2213" lon="6.33147">
        <ele>1472</ele>
        <time>2018-02-16T23:12:15Z</time>
      </trkpt>
      <trkpt lat="45.22134" lon="6.33128">
        <ele>1471</ele>
        <time>2018-02-16T23:13:15Z</time>
      </trkpt>
      <trkpt lat="45.22136" lon="6.33055">
        <ele>1466</ele>
        <time>2018-02-16T23:14:15Z</time>
      </trkpt>
      <trkpt lat="45.22141" lon="6.33025">
        <ele>1465</ele>
        <time>2018-02-16T23:15:15Z</time>
      </trkpt>
      <trkpt lat="45.22177" lon="6.32934">
        <ele>1462</ele>
        <time>2018-02-16T23:16:15Z</time>
      </trkpt>
      <trkpt lat="45.22205" lon="6.32841">
        <ele>1448</ele>
        <time>2018-02-16T23:17:15Z</time>
      </trkpt>
      <trkpt lat="45.22214" lon="6.32822">
        <ele>1447</ele>
        <time>2018-02-16T23:18:15Z</time>
      </trkpt>
      <trkpt lat="45.22224" lon="6.32823">
        <ele>1449</ele>
        <time>2018-02-16T23:19:15Z</time>
      </trkpt>
      <trkpt lat="45.2223" lon="6.32827">
        <ele>1451</ele>
        <time>2018-02-16T23:20:15Z</time>
      </trkpt>
      <trkpt lat="45.22232" lon="6.32844">
        <ele>1454</ele>
        <time>2018-02-16T23:21:15Z</time>
      </trkpt>
      <trkpt lat="45.22226" lon="6.32881">
        <ele>1455</ele>
        <time>2018-02-16T23:22:15Z</time>
      </trkpt>
      <trkpt lat="45.22224" lon="6.32938">
        <ele>1459</ele>
        <time>2018-02-16T23:23:15Z</time>
      </trkpt>
      <trkpt lat="45.22225" lon="6.3297">
        <ele>1459</ele>
        <time>2018-02-16T23:24:15Z</time>
      </trkpt>
      <trkpt lat="45.22231" lon="6.33004">
        <ele>1458</ele>
        <time>2018-02-16T23:25:15Z</time>
      </trkpt>
      <trkpt lat="45.2224" lon="6.33026">
        <ele>1456</ele>
        <time>2018-02-16T23:26:15Z</time>
      </trkpt>
      <trkpt lat="45.22257" lon="6.33059">
        <ele>1448</ele>
        <time>2018-02-16T23:27:15Z</time>
      </trkpt>
      <trkpt lat="45.22259" lon="6.33069">
        <ele>1447</ele>
        <time>2018-02-16T23:28:15Z</time>
      </trkpt>
      <trkpt lat="45.22259" lon="6.33101">
        <ele>1449</ele>
        <time>2018-02-16T23:29:15Z</time>
      </trkpt>
      <trkpt lat="45.22262" lon="6.3312">
        <ele>1450</ele>
        <time>2018-02-16T23:30:15Z</time>
      </trkpt>
      <trkpt lat="45.22285" lon="6.33166">
        <ele>1444</ele>
        <time>2018-02-16T23:31:15Z</time>
      </trkpt>
      <trkpt lat="45.22308" lon="6.33248">
        <ele>1445</ele>
        <time>2018-02-16T23:32:15Z</time>
      </trkpt>
      <trkpt lat="45.22335" lon="6.33316">
        <ele>1446</ele>
        <time>2018-02-16T23:33:15Z</time>
      </trkpt>
      <trkpt lat="45.22383" lon="6.33402">
        <ele>1440</ele>
        <time>2018-02-16T23:34:15Z</time>
      </trkpt>
      <trkpt lat="45.22414" lon="6.33449">
        <ele>1438</ele>
        <time>2018-02-16T23:35:15Z</time>
      </trkpt>
      <trkpt lat="45.22435" lon="6.33474">
        <ele>1437</ele>
        <time>2018-02-16T23:36:15Z</time>
      </trkpt>
      <trkpt lat="45.22473" lon="6.33485">
        <ele>1421</ele>
        <time>2018-02-16T23:37:15Z</time>
      </trkpt>
      <trkpt lat="45.22505" lon="6.33541">
        <ele>1430</ele>
        <time>2018-02-16T23:38:15Z</time>
      </trkpt>
      <trkpt lat="45.22539" lon="6.33544">
        <ele>1422</ele>
        <time>2018-02-16T23:39:15Z</time>
      </trkpt>
      <trkpt lat="45.2257" lon="6.33578">
        <ele>1428</ele>
        <time>2018-02-16T23:40:15Z</time>
      </trkpt>
      <trkpt lat="45.22584" lon="6.33574">
        <ele>1423</ele>
        <time>2018-02-16T23:41:15Z</time>
      </trkpt>
      <trkpt lat="45.22616" lon="6.33549">
        <ele>1409</ele>
        <time>2018-02-16T23:42:15Z</time>
      </trkpt>
      <trkpt lat="45.22638" lon="6.33547">
        <ele>1407</ele>
        <time>2018-02-16T23:43:15Z</time>
      </trkpt>
      <trkpt lat="45.22676" lon="6.33505">
        <ele>1385</ele>
        <time>2018-02-16T23:44:15Z</time>
      </trkpt>
      <trkpt lat="45.22724" lon="6.33498">
        <ele>1389</ele>
        <time>2018-02-16T23:45:15Z</time>
      </trkpt>
      <trkpt lat="45.22764" lon="6.33501">
        <ele>1392</ele>
        <time>2018-02-16T23:46:15Z</time>
      </trkpt>
      <trkpt lat="45.22797" lon="6.33486">
        <ele>1378</ele>
        <time>2018-02-16T23:47:15Z</time>
      </trkpt>
      <trkpt lat="45.22811" lon="6.33495">
        <ele>1381</ele>
        <time>2018-02-16T23:48:15Z</time>
      </trkpt>
      <trkpt lat="45.22831" lon="6.33523">
        <ele>1388</ele>
        <time>2018-02-16T23:49:15Z</time>
      </trkpt>
      <trkpt lat="45.22864" lon="6.3354">
        <ele>1384</ele>
        <time>2018-02-16T23:50:15Z</time>
      </trkpt>
      <trkpt lat="45.22894" lon="6.33544">
        <ele>1376</ele>
        <time>2018-02-16T23:51:15Z</time>
      </trkpt>
      <trkpt lat="45.22934" lon="6.33525">
        <ele>1363</ele>
        <time>2018-02-16T23:52:15Z</time>
      </trkpt>
      <trkpt lat="45.22958" lon="6.33522">
        <ele>1362</ele>
        <time>2018-02-16T23:53:15Z</time>
      </trkpt>
      <trkpt lat="45.22966" lon="6.33514">
        <ele>1360</ele>
        <time>2018-02-16T23:54:15Z</time>
      </trkpt>
      <trkpt lat="45.22965" lon="6.33504">
        <ele>1359</ele>
        <time>2018-02-16T23:55:15Z</time>
      </trkpt>
      <trkpt lat="45.22958" lon="6.33497">
        <ele>1358</ele>
        <time>2018-02-16T23:56:15Z</time>
      </trkpt>
      <trkpt lat="45.22947" lon="6.33498">
        <ele>1357</ele>
        <time>2018-02-16T23:57:15Z</time>
      </trkpt>
      <trkpt lat="45.22898" lon="6.3352">
        <ele>1368</ele>
        <time>2018-02-16T23:58:15Z</time>
      </trkpt>
      <trkpt lat="45.22885" lon="6.33516">
        <ele>1371</ele>
        <time>2018-02-16T23:59:15Z</time>
      </trkpt>
      <trkpt lat="45.22855" lon="6.33496">
        <ele>1372</ele>
        <time>2018-02-17T00:00:15Z</time>
      </trkpt>
      <trkpt lat="45.22832" lon="6.33466">
        <ele>1363</ele>
        <time>2018-02-17T00:01:15Z</time>
      </trkpt>
      <trkpt lat="45.22801" lon="6.33443">
        <ele>1355</ele>
        <time>2018-02-17T00:02:15Z</time>
      </trkpt>
      <trkpt lat="45.22767" lon="6.33448">
        <ele>1361</ele>
        <time>2018-02-17T00:03:15Z</time>
      </trkpt>
      <trkpt lat="45.22679" lon="6.33426">
        <ele>1348</ele>
        <time>2018-02-17T00:04:15Z</time>
      </trkpt>
      <trkpt lat="45.22606" lon="6.3345">
        <ele>1365</ele>
        <time>2018-02-17T00:05:15Z</time>
      </trkpt>
      <trkpt lat="45.22586" lon="6.33446">
        <ele>1366</ele>
        <time>2018-02-17T00:06:15Z</time>
      </trkpt>
      <trkpt lat="45.22572" lon="6.3341">
        <ele>1354</ele>
        <time>2018-02-17T00:07:15Z</time>
      </trkpt>
      <trkpt lat="45.22548" lon="6.33403">
        <ele>1359</ele>
        <time>2018-02-17T00:08:15Z</time>
      </trkpt>
      <trkpt lat="45.22526" lon="6.3335">
        <ele>1344</ele>
        <time>2018-02-17T00:09:15Z</time>
      </trkpt>
      <trkpt lat="45.22512" lon="6.33334">
        <ele>1343</ele>
        <time>2018-02-17T00:10:15Z</time>
      </trkpt>
      <trkpt lat="45.22497" lon="6.33332">
        <ele>1348</ele>
        <time>2018-02-17T00:11:15Z</time>
      </trkpt>
      <trkpt lat="45.22484" lon="6.33327">
        <ele>1353</ele>
        <time>2018-02-17T00:12:15Z</time>
      </trkpt>
      <trkpt lat="45.22466" lon="6.33288">
        <ele>1350</ele>
        <time>2018-02-17T00:13:15Z</time>
      </trkpt>
      <trkpt lat="45.22457" lon="6.33247">
        <ele>1343</ele>
        <time>2018-02-17T00:14:15Z</time>
      </trkpt>
      <trkpt lat="45.22468" lon="6.33215">
        <ele>1330</ele>
        <time>2018-02-17T00:15:15Z</time>
      </trkpt>
      <trkpt lat="45.22466" lon="6.33164">
        <ele>1325</ele>
        <time>2018-02-17T00:16:15Z</time>
      </trkpt>
      <trkpt lat="45.22475" lon="6.33104">
        <ele>1317</ele>
        <time>2018-02-17T00:17:15Z</time>
      </trkpt>
      <trkpt lat="45.22477" lon="6.33038">
        <ele>1313</ele>
        <time>2018-02-17T00:18:15Z</time>
      </trkpt>
      <trkpt lat="45.22457" lon="6.33006">
        <ele>1323</ele>
        <time>2018-02-17T00:19:15Z</time>
      </trkpt>
      <trkpt lat="45.22451" lon="6.3299">
        <ele>1326</ele>
        <time>2018-02-17T00:20:15Z</time>
      </trkpt>
      <trkpt lat="45.22452" lon="6.32977">
        <ele>1325</ele>
        <time>2018-02-17T00:21:15Z</time>
      </trkpt>
      <trkpt lat="45.22466" lon="6.32942">
        <ele>1315</ele>
        <time>2018-02-17T00:22:15Z</time>
      </trkpt>
      <trkpt lat="45.22464" lon="6.3293">
        <ele>1316</ele>
        <time>2018-02-17T00:23:15Z</time>
      </trkpt>
      <trkpt lat="45.22455" lon="6.32903">
        <ele>1323</ele>
        <time>2018-02-17T00:24:15Z</time>
      </trkpt>
      <trkpt lat="45.22459" lon="6.32886">
        <ele>1320</ele>
        <time>2018-02-17T00:25:15Z</time>
      </trkpt>
      <trkpt lat="45.22493" lon="6.32792">
        <ele>1301</ele>
        <time>2018-02-17T00:26:15Z</time>
      </trkpt>
      <trkpt lat="45.22498" lon="6.32758">
        <ele>1301</ele>
        <time>2018-02-17T00:27:15Z</time>
      </trkpt>
      <trkpt lat="45.2251" lon="6.3272">
        <ele>1296</ele>
        <time>2018-02-17T00:28:15Z</time>
      </trkpt>
      <trkpt lat="45.22511" lon="6.32692">
        <ele>1297</ele>
        <time>2018-02-17T00:29:15Z</time>
      </trkpt>
      <trkpt lat="45.22517" lon="6.32669">
        <ele>1296</ele>
        <time>2018-02-17T00:30:15Z</time>
      </trkpt>
      <trkpt lat="45.22525" lon="6.32653">
        <ele>1292</ele>
        <time>2018-02-17T00:31:15Z</time>
      </trkpt>
      <trkpt lat="45.22526" lon="6.32621">
        <ele>1292</ele>
        <time>2018-02-17T00:32:15Z</time>
      </trkpt>
      <trkpt lat="45.2251" lon="6.32505">
        <ele>1281</ele>
        <time>2018-02-17T00:33:15Z</time>
      </trkpt>
      <trkpt lat="45.22499" lon="6.32483">
        <ele>1279</ele>
        <time>2018-02-17T00:34:15Z</time>
      </trkpt>
      <trkpt lat="45.22454" lon="6.32422">
        <ele>1279</ele>
        <time>2018-02-17T00:35:15Z</time>
      </trkpt>
      <trkpt lat="45.22419" lon="6.32371">
        <ele>1277</ele>
        <time>2018-02-17T00:36:15Z</time>
      </trkpt>
      <trkpt lat="45.2236" lon="6.32276">
        <ele>1261</ele>
        <time>2018-02-17T00:37:15Z</time>
      </trkpt>
      <trkpt lat="45.22334" lon="6.32252">
        <ele>1259</ele>
        <time>2018-02-17T00:38:15Z</time>
      </trkpt>
      <trkpt lat="45.22289" lon="6.3224">
        <ele>1250</ele>
        <time>2018-02-17T00:39:15Z</time>
      </trkpt>
      <trkpt lat="45.22211" lon="6.32237">
        <ele>1244</ele>
        <time>2018-02-17T00:40:15Z</time>
      </trkpt>
      <trkpt lat="45.22186" lon="6.32234">
        <ele>1242</ele>
        <time>2018-02-17T00:41:15Z</time>
      </trkpt>
      <trkpt lat="45.22162" lon="6.32224">
        <ele>1238</ele>
        <time>2018-02-17T00:42:15Z</time>
      </trkpt>
      <trkpt lat="45.22119" lon="6.32188">
        <ele>1228</ele>
        <time>2018-02-17T00:43:15Z</time>
      </trkpt>
      <trkpt lat="45.22079" lon="6.32184">
        <ele>1225</ele>
        <time>2018-02-17T00:44:15Z</time>
      </trkpt>
      <trkpt lat="45.22039" lon="6.32189">
        <ele>1222</ele>
        <time>2018-02-17T00:45:15Z</time>
      </trkpt>
      <trkpt lat="45.2201" lon="6.32195">
        <ele>1220</ele>
        <time>2018-02-17T00:46:15Z</time>
      </trkpt>
      <trkpt lat="45.21966" lon="6.3218">
        <ele>1210</ele>
        <time>2018-02-17T00:47:15Z</time>
      </trkpt>
      <trkpt lat="45.21945" lon="6.32182">
        <ele>1208</ele>
        <time>2018-02-17T00:48:15Z</time>
      </trkpt>
      <trkpt lat="45.21893" lon="6.32217">
        <ele>1212</ele>
        <time>2018-02-17T00:49:15Z</time>
      </trkpt>
      <trkpt lat="45.21869" lon="6.32229">
        <ele>1212</ele>
        <time>2018-02-17T00:50:15Z</time>
      </trkpt>
      <trkpt lat="45.21847" lon="6.32229">
        <ele>1210</ele>
        <time>2018-02-17T00:51:15Z</time>
      </trkpt>
      <trkpt lat="45.21834" lon="6.32222">
        <ele>1207</ele>
        <time>2018-02-17T00:52:15Z</time>
      </trkpt>
      <trkpt lat="45.21798" lon="6.32223">
        <ele>1204</ele>
        <time>2018-02-17T00:53:15Z</time>
      </trkpt>
      <trkpt lat="45.21789" lon="6.32217">
        <ele>1202</ele>
        <time>2018-02-17T00:54:15Z</time>
      </trkpt>
      <trkpt lat="45.21786" lon="6.32206">
        <ele>1200</ele>
        <time>2018-02-17T00:55:15Z</time>
      </trkpt>
      <trkpt lat="45.21794" lon="6.32198">
        <ele>1199</ele>
        <time>2018-02-17T00:56:15Z</time>
      </trkpt>
      <trkpt lat="45.21812" lon="6.32198">
        <ele>1200</ele>
        <time>2018-02-17T00:57:15Z</time>
      </trkpt>
      <trkpt lat="45.2186" lon="6.32194">
        <ele>1203</ele>
        <time>2018-02-17T00:58:15Z</time>
      </trkpt>
      <trkpt lat="45.21887" lon="6.3217">
        <ele>1199</ele>
        <time>2018-02-17T00:59:15Z</time>
      </trkpt>
      <trkpt lat="45.21957" lon="6.32077">
        <ele>1181</ele>
        <time>2018-02-17T01:00:15Z</time>
      </trkpt>
      <trkpt lat="45.21968" lon="6.32068">
        <ele>1180</ele>
        <time>2018-02-17T01:01:15Z</time>
      </trkpt>
      <trkpt lat="45.2199" lon="6.32061">
        <ele>1181</ele>
        <time>2018-02-17T01:02:15Z</time>
      </trkpt>
      <trkpt lat="45.22016" lon="6.32065">
        <ele>1186</ele>
        <time>2018-02-17T01:03:15Z</time>
      </trkpt>
      <trkpt lat="45.22042" lon="6.3206">
        <ele>1189</ele>
        <time>2018-02-17T01:04:15Z</time>
      </trkpt>
      <trkpt lat="45.22057" lon="6.3205">
        <ele>1189</ele>
        <time>2018-02-17T01:05:15Z</time>
      </trkpt>
      <trkpt lat="45.2206" lon="6.32044">
        <ele>1188</ele>
        <time>2018-02-17T01:06:15Z</time>
      </trkpt>
      <trkpt lat="45.2206" lon="6.32037">
        <ele>1187</ele>
        <time>2018-02-17T01:07:15Z</time>
      </trkpt>
      <trkpt lat="45.22057" lon="6.32032">
        <ele>1185</ele>
        <time>2018-02-17T01:08:15Z</time>
      </trkpt>
      <trkpt lat="45.22052" lon="6.32031">
        <ele>1184</ele>
        <time>2018-02-17T01:09:15Z</time>
      </trkpt>
      <trkpt lat="45.22025" lon="6.32038">
        <ele>1180</ele>
        <time>2018-02-17T01:10:15Z</time>
      </trkpt>
      <trkpt lat="45.22014" lon="6.32037">
        <ele>1178</ele>
        <time>2018-02-17T01:11:15Z</time>
      </trkpt>
      <trkpt lat="45.21973" lon="6.3202">
        <ele>1167</ele>
        <time>2018-02-17T01:12:15Z</time>
      </trkpt>
      <trkpt lat="45.21956" lon="6.32019">
        <ele>1165</ele>
        <time>2018-02-17T01:13:15Z</time>
      </trkpt>
      <trkpt lat="45.21891" lon="6.32044">
        <ele>1166</ele>
        <time>2018-02-17T01:14:15Z</time>
      </trkpt>
      <trkpt lat="45.21874" lon="6.32047">
        <ele>1166</ele>
        <time>2018-02-17T01:15:15Z</time>
      </trkpt>
      <trkpt lat="45.21858" lon="6.32041">
        <ele>1165</ele>
        <time>2018-02-17T01:16:15Z</time>
      </trkpt>
      <trkpt lat="45.21846" lon="6.32028">
        <ele>1162</ele>
        <time>2018-02-17T01:17:15Z</time>
      </trkpt>
      <trkpt lat="45.21835" lon="6.32011">
        <ele>1159</ele>
        <time>2018-02-17T01:18:15Z</time>
      </trkpt>
      <trkpt lat="45.21832" lon="6.31996">
        <ele>1156</ele>
        <time>2018-02-17T01:19:15Z</time>
      </trkpt>
      <trkpt lat="45.21832" lon="6.31996">
        <ele>1156</ele>
        <time>2018-02-17T01:20:15Z</time>
      </trkpt>
      <trkpt lat="45.21825" lon="6.31939">
        <ele>1147</ele>
        <time>2018-02-17T01:21:15Z</time>
      </trkpt>
      <trkpt lat="45.21814" lon="6.31919">
        <ele>1143</ele>
        <time>2018-02-17T01:22:15Z</time>
      </trkpt>
      <trkpt lat="45.21792" lon="6.31904">
        <ele>1139</ele>
        <time>2018-02-17T01:23:15Z</time>
      </trkpt>
      <trkpt lat="45.21787" lon="6.31897">
        <ele>1138</ele>
        <time>2018-02-17T01:24:15Z</time>
      </trkpt>
      <trkpt lat="45.21787" lon="6.31889">
        <ele>1137</ele>
        <time>2018-02-17T01:25:15Z</time>
      </trkpt>
      <trkpt lat="45.2179" lon="6.31885">
        <ele>1137</ele>
        <time>2018-02-17T01:26:15Z</time>
      </trkpt>
      <trkpt lat="45.21797" lon="6.31885">
        <ele>1138</ele>
        <time>2018-02-17T01:27:15Z</time>
      </trkpt>
      <trkpt lat="45.21813" lon="6.31894">
        <ele>1141</ele>
        <time>2018-02-17T01:28:15Z</time>
      </trkpt>
      <trkpt lat="45.21851" lon="6.31899">
        <ele>1142</ele>
        <time>2018-02-17T01:29:15Z</time>
      </trkpt>
      <trkpt lat="45.21887" lon="6.3192">
        <ele>1141</ele>
        <time>2018-02-17T01:30:15Z</time>
      </trkpt>
      <trkpt lat="45.21909" lon="6.31929">
        <ele>1141</ele>
        <time>2018-02-17T01:31:15Z</time>
      </trkpt>
      <trkpt lat="45.2193" lon="6.31932">
        <ele>1141</ele>
        <time>2018-02-17T01:32:15Z</time>
      </trkpt>
      <trkpt lat="45.21951" lon="6.31928">
        <ele>1139</ele>
        <time>2018-02-17T01:33:15Z</time>
      </trkpt>
      <trkpt lat="45.21997" lon="6.31907">
        <ele>1133</ele>
        <time>2018-02-17T01:34:15Z</time>
      </trkpt>
      <trkpt lat="45.2205" lon="6.31866">
        <ele>1131</ele>
        <time>2018-02-17T01:35:15Z</time>
      </trkpt>
      <trkpt lat="45.22081" lon="6.31849">
        <ele>1127</ele>
        <time>2018-02-17T01:36:15Z</time>
      </trkpt>
      <trkpt lat="45.22125" lon="6.31842">
        <ele>1126</ele>
        <time>2018-02-17T01:37:15Z</time>
      </trkpt>
      <trkpt lat="45.22144" lon="6.31836">
        <ele>1125</ele>
        <time>2018-02-17T01:38:15Z</time>
      </trkpt>
      <trkpt lat="45.22182" lon="6.31811">
        <ele>1119</ele>
        <time>2018-02-17T01:39:15Z</time>
      </trkpt>
      <trkpt lat="45.22232" lon="6.31811">
        <ele>1117</ele>
        <time>2018-02-17T01:40:15Z</time>
      </trkpt>
      <trkpt lat="45.22264" lon="6.31799">
        <ele>1109</ele>
        <time>2018-02-17T01:41:15Z</time>
      </trkpt>
      <trkpt lat="45.22276" lon="6.31799">
        <ele>1106</ele>
        <time>2018-02-17T01:42:15Z</time>
      </trkpt>
      <trkpt lat="45.22296" lon="6.31809">
        <ele>1106</ele>
        <time>2018-02-17T01:43:15Z</time>
      </trkpt>
      <trkpt lat="45.22349" lon="6.31849">
        <ele>1106</ele>
        <time>2018-02-17T01:44:15Z</time>
      </trkpt>
      <trkpt lat="45.22357" lon="6.31862">
        <ele>1106</ele>
        <time>2018-02-17T01:45:15Z</time>
      </trkpt>
      <trkpt lat="45.22361" lon="6.31877">
        <ele>1109</ele>
        <time>2018-02-17T01:46:15Z</time>
      </trkpt>
      <trkpt lat="45.2236" lon="6.31912">
        <ele>1120</ele>
        <time>2018-02-17T01:47:15Z</time>
      </trkpt>
      <trkpt lat="45.22364" lon="6.31924">
        <ele>1122</ele>
        <time>2018-02-17T01:48:15Z</time>
      </trkpt>
      <trkpt lat="45.22373" lon="6.31928">
        <ele>1121</ele>
        <time>2018-02-17T01:49:15Z</time>
      </trkpt>
      <trkpt lat="45.22409" lon="6.31917">
        <ele>1106</ele>
        <time>2018-02-17T01:50:15Z</time>
      </trkpt>
      <trkpt lat="45.22449" lon="6.31917">
        <ele>1098</ele>
        <time>2018-02-17T01:51:15Z</time>
      </trkpt>
      <trkpt lat="45.22523" lon="6.31893">
        <ele>1079</ele>
        <time>2018-02-17T01:52:15Z</time>
      </trkpt>
      <trkpt lat="45.22564" lon="6.3191">
        <ele>1081</ele>
        <time>2018-02-17T01:53:15Z</time>
      </trkpt>
      <trkpt lat="45.22572" lon="6.31915">
        <ele>1082</ele>
        <time>2018-02-17T01:54:15Z</time>
      </trkpt>
      <trkpt lat="45.22593" lon="6.31945">
        <ele>1080</ele>
        <time>2018-02-17T01:55:15Z</time>
      </trkpt>
      <trkpt lat="45.22605" lon="6.31949">
        <ele>1075</ele>
        <time>2018-02-17T01:56:15Z</time>
      </trkpt>
      <trkpt lat="45.22611" lon="6.31947">
        <ele>1073</ele>
        <time>2018-02-17T01:57:15Z</time>
      </trkpt>
      <trkpt lat="45.22613" lon="6.31941">
        <ele>1071</ele>
        <time>2018-02-17T01:58:15Z</time>
      </trkpt>
      <trkpt lat="45.22614" lon="6.31936">
        <ele>1069</ele>
        <time>2018-02-17T01:59:15Z</time>
      </trkpt>
      <trkpt lat="45.22588" lon="6.31904">
        <ele>1075</ele>
        <time>2018-02-17T02:00:15Z</time>
      </trkpt>
      <trkpt lat="45.22566" lon="6.31881">
        <ele>1071</ele>
        <time>2018-02-17T02:01:15Z</time>
      </trkpt>
      <trkpt lat="45.22546" lon="6.31864">
        <ele>1066</ele>
        <time>2018-02-17T02:02:15Z</time>
      </trkpt>
      <trkpt lat="45.22526" lon="6.31858">
        <ele>1065</ele>
        <time>2018-02-17T02:03:15Z</time>
      </trkpt>
      <trkpt lat="45.22499" lon="6.3186">
        <ele>1068</ele>
        <time>2018-02-17T02:04:15Z</time>
      </trkpt>
      <trkpt lat="45.22475" lon="6.31864">
        <ele>1074</ele>
        <time>2018-02-17T02:05:15Z</time>
      </trkpt>
      <trkpt lat="45.22443" lon="6.3186">
        <ele>1078</ele>
        <time>2018-02-17T02:06:15Z</time>
      </trkpt>
      <trkpt lat="45.22431" lon="6.31853">
        <ele>1077</ele>
        <time>2018-02-17T02:07:15Z</time>
      </trkpt>
      <trkpt lat="45.22431" lon="6.31839">
        <ele>1072</ele>
        <time>2018-02-17T02:08:15Z</time>
      </trkpt>
      <trkpt lat="45.22439" lon="6.31832">
        <ele>1068</ele>
        <time>2018-02-17T02:09:15Z</time>
      </trkpt>
      <trkpt lat="45.22468" lon="6.31845">
        <ele>1068</ele>
        <time>2018-02-17T02:10:15Z</time>
      </trkpt>
      <trkpt lat="45.22498" lon="6.3184">
        <ele>1060</ele>
        <time>2018-02-17T02:11:15Z</time>
      </trkpt>
      <trkpt lat="45.22525" lon="6.31821">
        <ele>1048</ele>
        <time>2018-02-17T02:12:15Z</time>
      </trkpt>
      <trkpt lat="45.22542" lon="6.31815">
        <ele>1043</ele>
        <time>2018-02-17T02:13:15Z</time>
      </trkpt>
      <trkpt lat="45.2258" lon="6.31838">
        <ele>1055</ele>
        <time>2018-02-17T02:14:15Z</time>
      </trkpt>
      <trkpt lat="45.22611" lon="6.31852">
        <ele>1047</ele>
        <time>2018-02-17T02:15:15Z</time>
      </trkpt>
      <trkpt lat="45.22647" lon="6.31882">
        <ele>1039</ele>
        <time>2018-02-17T02:16:15Z</time>
      </trkpt>
      <trkpt lat="45.2269" lon="6.319">
        <ele>1025</ele>
        <time>2018-02-17T02:17:15Z</time>
      </trkpt>
      <trkpt lat="45.22696" lon="6.31907">
        <ele>1024</ele>
        <time>2018-02-17T02:18:15Z</time>
      </trkpt>
      <trkpt lat="45.22711" lon="6.31935">
        <ele>1022</ele>
        <time>2018-02-17T02:19:15Z</time>
      </trkpt>
      <trkpt lat="45.22716" lon="6.31936">
        <ele>1020</ele>
        <time>2018-02-17T02:20:15Z</time>
      </trkpt>
      <trkpt lat="45.22722" lon="6.31931">
        <ele>1016</ele>
        <time>2018-02-17T02:21:15Z</time>
      </trkpt>
      <trkpt lat="45.22723" lon="6.31924">
        <ele>1014</ele>
        <time>2018-02-17T02:22:15Z</time>
      </trkpt>
      <trkpt lat="45.22711" lon="6.31901">
        <ele>1015</ele>
        <time>2018-02-17T02:23:15Z</time>
      </trkpt>
      <trkpt lat="45.22691" lon="6.31881">
        <ele>1019</ele>
        <time>2018-02-17T02:24:15Z</time>
      </trkpt>
      <trkpt lat="45.22661" lon="6.31859">
        <ele>1026</ele>
        <time>2018-02-17T02:25:15Z</time>
      </trkpt>
      <trkpt lat="45.22631" lon="6.31815">
        <ele>1022</ele>
        <time>2018-02-17T02:26:15Z</time>
      </trkpt>
      <trkpt lat="45.22619" lon="6.31803">
        <ele>1020</ele>
        <time>2018-02-17T02:27:15Z</time>
      </trkpt>
      <trkpt lat="45.22588" lon="6.31784">
        <ele>1020</ele>
        <time>2018-02-17T02:28:15Z</time>
      </trkpt>
      <trkpt lat="45.22557" lon="6.31757">
        <ele>1005</ele>
        <time>2018-02-17T02:29:15Z</time>
      </trkpt>
      <trkpt lat="45.22542" lon="6.31748">
        <ele>1000</ele>
        <time>2018-02-17T02:30:15Z</time>
      </trkpt>
      <trkpt lat="45.22508" lon="6.31743">
        <ele>999</ele>
        <time>2018-02-17T02:31:15Z</time>
      </trkpt>
      <trkpt lat="45.22505" lon="6.31738">
        <ele>996</ele>
        <time>2018-02-17T02:32:15Z</time>
      </trkpt>
      <trkpt lat="45.22506" lon="6.31733">
        <ele>994</ele>
        <time>2018-02-17T02:33:15Z</time>
      </trkpt>
      <trkpt lat="45.2251" lon="6.3173">
        <ele>992</ele>
        <time>2018-02-17T02:34:15Z</time>
      </trkpt>
      <trkpt lat="45.22537" lon="6.31732">
        <ele>991</ele>
        <time>2018-02-17T02:35:15Z</time>
      </trkpt>
      <trkpt lat="45.22571" lon="6.31747">
        <ele>998</ele>
        <time>2018-02-17T02:36:15Z</time>
      </trkpt>
      <trkpt lat="45.2259" lon="6.31762">
        <ele>1005</ele>
        <time>2018-02-17T02:37:15Z</time>
      </trkpt>
      <trkpt lat="45.22632" lon="6.31771">
        <ele>1000</ele>
        <time>2018-02-17T02:38:15Z</time>
      </trkpt>
      <trkpt lat="45.22659" lon="6.31782">
        <ele>997</ele>
        <time>2018-02-17T02:39:15Z</time>
      </trkpt>
      <trkpt lat="45.22687" lon="6.31809">
        <ele>998</ele>
        <time>2018-02-17T02:40:15Z</time>
      </trkpt>
      <trkpt lat="45.2272" lon="6.31823">
        <ele>990</ele>
        <time>2018-02-17T02:41:15Z</time>
      </trkpt>
      <trkpt lat="45.22752" lon="6.31843">
        <ele>983</ele>
        <time>2018-02-17T02:42:15Z</time>
      </trkpt>
      <trkpt lat="45.22774" lon="6.31846">
        <ele>974</ele>
        <time>2018-02-17T02:43:15Z</time>
      </trkpt>
      <trkpt lat="45.22781" lon="6.31852">
        <ele>972</ele>
        <time>2018-02-17T02:44:15Z</time>
      </trkpt>
      <trkpt lat="45.22785" lon="6.31857">
        <ele>971</ele>
        <time>2018-02-17T02:45:15Z</time>
      </trkpt>
      <trkpt lat="45.22787" lon="6.31864">
        <ele>970</ele>
        <time>2018-02-17T02:46:15Z</time>
      </trkpt>
      <trkpt lat="45.22787" lon="6.31874">
        <ele>971</ele>
        <time>2018-02-17T02:47:15Z</time>
      </trkpt>
      <trkpt lat="45.22789" lon="6.31886">
        <ele>971</ele>
        <time>2018-02-17T02:48:15Z</time>
      </trkpt>
      <trkpt lat="45.228" lon="6.31906">
        <ele>967</ele>
        <time>2018-02-17T02:49:15Z</time>
      </trkpt>
      <trkpt lat="45.22803" lon="6.3192">
        <ele>965</ele>
        <time>2018-02-17T02:50:15Z</time>
      </trkpt>
      <trkpt lat="45.228" lon="6.31933">
        <ele>968</ele>
        <time>2018-02-17T02:51:15Z</time>
      </trkpt>
      <trkpt lat="45.22791" lon="6.31961">
        <ele>975</ele>
        <time>2018-02-17T02:52:15Z</time>
      </trkpt>
      <trkpt lat="45.22791" lon="6.31971">
        <ele>975</ele>
        <time>2018-02-17T02:53:15Z</time>
      </trkpt>
      <trkpt lat="45.22814" lon="6.32001">
        <ele>958</ele>
        <time>2018-02-17T02:54:15Z</time>
      </trkpt>
      <trkpt lat="45.22822" lon="6.32033">
        <ele>962</ele>
        <time>2018-02-17T02:55:15Z</time>
      </trkpt>
      <trkpt lat="45.22828" lon="6.32047">
        <ele>962</ele>
        <time>2018-02-17T02:56:15Z</time>
      </trkpt>
      <trkpt lat="45.22838" lon="6.32062">
        <ele>960</ele>
        <time>2018-02-17T02:57:15Z</time>
      </trkpt>
      <trkpt lat="45.22877" lon="6.32097">
        <ele>946</ele>
        <time>2018-02-17T02:58:15Z</time>
      </trkpt>
      <trkpt lat="45.22888" lon="6.32113">
        <ele>942</ele>
        <time>2018-02-17T02:59:15Z</time>
      </trkpt>
      <trkpt lat="45.22896" lon="6.32134">
        <ele>940</ele>
        <time>2018-02-17T03:00:15Z</time>
      </trkpt>
      <trkpt lat="45.22901" lon="6.32142">
        <ele>938</ele>
        <time>2018-02-17T03:01:15Z</time>
      </trkpt>
      <trkpt lat="45.22907" lon="6.32143">
        <ele>933</ele>
        <time>2018-02-17T03:02:15Z</time>
      </trkpt>
      <trkpt lat="45.22912" lon="6.32139">
        <ele>929</ele>
        <time>2018-02-17T03:03:15Z</time>
      </trkpt>
      <trkpt lat="45.22915" lon="6.32131">
        <ele>925</ele>
        <time>2018-02-17T03:04:15Z</time>
      </trkpt>
      <trkpt lat="45.22914" lon="6.32117">
        <ele>924</ele>
        <time>2018-02-17T03:05:15Z</time>
      </trkpt>
      <trkpt lat="45.22874" lon="6.3207">
        <ele>940</ele>
        <time>2018-02-17T03:06:15Z</time>
      </trkpt>
      <trkpt lat="45.22863" lon="6.32048">
        <ele>941</ele>
        <time>2018-02-17T03:07:15Z</time>
      </trkpt>
      <trkpt lat="45.22853" lon="6.3202">
        <ele>938</ele>
        <time>2018-02-17T03:08:15Z</time>
      </trkpt>
      <trkpt lat="45.22851" lon="6.31992">
        <ele>933</ele>
        <time>2018-02-17T03:09:15Z</time>
      </trkpt>
      <trkpt lat="45.22844" lon="6.31959">
        <ele>938</ele>
        <time>2018-02-17T03:10:15Z</time>
      </trkpt>
      <trkpt lat="45.22849" lon="6.31936">
        <ele>935</ele>
        <time>2018-02-17T03:11:15Z</time>
      </trkpt>
      <trkpt lat="45.22866" lon="6.31903">
        <ele>924</ele>
        <time>2018-02-17T03:12:15Z</time>
      </trkpt>
      <trkpt lat="45.22872" lon="6.31887">
        <ele>920</ele>
        <time>2018-02-17T03:13:15Z</time>
      </trkpt>
      <trkpt lat="45.22873" lon="6.3187">
        <ele>920</ele>
        <time>2018-02-17T03:14:15Z</time>
      </trkpt>
      <trkpt lat="45.22871" lon="6.31858">
        <ele>921</ele>
        <time>2018-02-17T03:15:15Z</time>
      </trkpt>
      <trkpt lat="45.22884" lon="6.31806">
        <ele>908</ele>
        <time>2018-02-17T03:16:15Z</time>
      </trkpt>
      <trkpt lat="45.22882" lon="6.31779">
        <ele>906</ele>
        <time>2018-02-17T03:17:15Z</time>
      </trkpt>
      <trkpt lat="45.22871" lon="6.3171">
        <ele>899</ele>
        <time>2018-02-17T03:18:15Z</time>
      </trkpt>
      <trkpt lat="45.22846" lon="6.31662">
        <ele>896</ele>
        <time>2018-02-17T03:19:15Z</time>
      </trkpt>
      <trkpt lat="45.22842" lon="6.3165">
        <ele>894</ele>
        <time>2018-02-17T03:20:15Z</time>
      </trkpt>
      <trkpt lat="45.22844" lon="6.3164">
        <ele>891</ele>
        <time>2018-02-17T03:21:15Z</time>
      </trkpt>
      <trkpt lat="45.22848" lon="6.31639">
        <ele>889</ele>
        <time>2018-02-17T03:22:15Z</time>
      </trkpt>
      <trkpt lat="45.22853" lon="6.31645">
        <ele>890</ele>
        <time>2018-02-17T03:23:15Z</time>
      </trkpt>
      <trkpt lat="45.2286" lon="6.31668">
        <ele>893</ele>
        <time>2018-02-17T03:24:15Z</time>
      </trkpt>
      <trkpt lat="45.22886" lon="6.3172">
        <ele>894</ele>
        <time>2018-02-17T03:25:15Z</time>
      </trkpt>
      <trkpt lat="45.22899" lon="6.31756">
        <ele>892</ele>
        <time>2018-02-17T03:26:15Z</time>
      </trkpt>
      <trkpt lat="45.22915" lon="6.31787">
        <ele>885</ele>
        <time>2018-02-17T03:27:15Z</time>
      </trkpt>
      <trkpt lat="45.22916" lon="6.318">
        <ele>885</ele>
        <time>2018-02-17T03:28:15Z</time>
      </trkpt>
      <trkpt lat="45.22916" lon="6.31814">
        <ele>886</ele>
        <time>2018-02-17T03:29:15Z</time>
      </trkpt>
      <trkpt lat="45.22912" lon="6.31832">
        <ele>890</ele>
        <time>2018-02-17T03:30:15Z</time>
      </trkpt>
      <trkpt lat="45.22905" lon="6.31903">
        <ele>898</ele>
        <time>2018-02-17T03:31:15Z</time>
      </trkpt>
      <trkpt lat="45.22907" lon="6.31925">
        <ele>898</ele>
        <time>2018-02-17T03:32:15Z</time>
      </trkpt>
      <trkpt lat="45.22912" lon="6.31942">
        <ele>896</ele>
        <time>2018-02-17T03:33:15Z</time>
      </trkpt>
      <trkpt lat="45.22921" lon="6.31955">
        <ele>896</ele>
        <time>2018-02-17T03:34:15Z</time>
      </trkpt>
      <trkpt lat="45.22929" lon="6.31957">
        <ele>897</ele>
        <time>2018-02-17T03:35:15Z</time>
      </trkpt>
      <trkpt lat="45.22953" lon="6.31959">
        <ele>903</ele>
        <time>2018-02-17T03:36:15Z</time>
      </trkpt>
      <trkpt lat="45.22962" lon="6.31947">
        <ele>902</ele>
        <time>2018-02-17T03:37:15Z</time>
      </trkpt>
      <trkpt lat="45.22972" lon="6.31907">
        <ele>896</ele>
        <time>2018-02-17T03:38:15Z</time>
      </trkpt>
      <trkpt lat="45.22987" lon="6.3186">
        <ele>885</ele>
        <time>2018-02-17T03:39:15Z</time>
      </trkpt>
      <trkpt lat="45.2299" lon="6.31846">
        <ele>881</ele>
        <time>2018-02-17T03:40:15Z</time>
      </trkpt>
      <trkpt lat="45.22999" lon="6.31824">
        <ele>875</ele>
        <time>2018-02-17T03:41:15Z</time>
      </trkpt>
      <trkpt lat="45.23003" lon="6.31818">
        <ele>875</ele>
        <time>2018-02-17T03:42:15Z</time>
      </trkpt>
      <trkpt lat="45.23016" lon="6.31793">
        <ele>873</ele>
        <time>2018-02-17T03:43:15Z</time>
      </trkpt>
      <trkpt lat="45.23035" lon="6.31741">
        <ele>865</ele>
        <time>2018-02-17T03:44:15Z</time>
      </trkpt>
      <trkpt lat="45.23042" lon="6.3171">
        <ele>860</ele>
        <time>2018-02-17T03:45:15Z</time>
      </trkpt>
      <trkpt lat="45.23047" lon="6.31673">
        <ele>853</ele>
        <time>2018-02-17T03:46:15Z</time>
      </trkpt>
      <trkpt lat="45.23048" lon="6.31643">
        <ele>848</ele>
        <time>2018-02-17T03:47:15Z</time>
      </trkpt>
      <trkpt lat="45.23054" lon="6.31575">
        <ele>836</ele>
        <time>2018-02-17T03:48:15Z</time>
      </trkpt>
      <trkpt lat="45.23058" lon="6.31552">
        <ele>831</ele>
        <time>2018-02-17T03:49:15Z</time>
      </trkpt>
      <trkpt lat="45.23063" lon="6.31536">
        <ele>827</ele>
        <time>2018-02-17T03:50:15Z</time>
      </trkpt>
      <trkpt lat="45.2307" lon="6.31526">
        <ele>825</ele>
        <time>2018-02-17T03:51:15Z</time>
      </trkpt>
      <trkpt lat="45.23083" lon="6.31522">
        <ele>825</ele>
        <time>2018-02-17T03:52:15Z</time>
      </trkpt>
      <trkpt lat="45.23098" lon="6.31527">
        <ele>825</ele>
        <time>2018-02-17T03:53:15Z</time>
      </trkpt>
      <trkpt lat="45.23115" lon="6.3154">
        <ele>827</ele>
        <time>2018-02-17T03:54:15Z</time>
      </trkpt>
      <trkpt lat="45.23137" lon="6.31561">
        <ele>830</ele>
        <time>2018-02-17T03:55:15Z</time>
      </trkpt>
      <trkpt lat="45.23153" lon="6.31592">
        <ele>837</ele>
        <time>2018-02-17T03:56:15Z</time>
      </trkpt>
      <trkpt lat="45.23162" lon="6.31602">
        <ele>839</ele>
        <time>2018-02-17T03:57:15Z</time>
      </trkpt>
      <trkpt lat="45.23174" lon="6.31608">
        <ele>839</ele>
        <time>2018-02-17T03:58:15Z</time>
      </trkpt>
      <trkpt lat="45.23187" lon="6.31608">
        <ele>836</ele>
        <time>2018-02-17T03:59:15Z</time>
      </trkpt>
      <trkpt lat="45.23216" lon="6.31599">
        <ele>826</ele>
        <time>2018-02-17T04:00:15Z</time>
      </trkpt>
      <trkpt lat="45.23226" lon="6.316">
        <ele>824</ele>
        <time>2018-02-17T04:01:15Z</time>
      </trkpt>
      <trkpt lat="45.23242" lon="6.31617">
        <ele>826</ele>
        <time>2018-02-17T04:02:15Z</time>
      </trkpt>
      <trkpt lat="45.23249" lon="6.3162">
        <ele>826</ele>
        <time>2018-02-17T04:03:15Z</time>
      </trkpt>
      <trkpt lat="45.23256" lon="6.31616">
        <ele>823</ele>
        <time>2018-02-17T04:04:15Z</time>
      </trkpt>
      <trkpt lat="45.23261" lon="6.31609">
        <ele>819</ele>
        <time>2018-02-17T04:05:15Z</time>
      </trkpt>
      <trkpt lat="45.2326" lon="6.31602">
        <ele>817</ele>
        <time>2018-02-17T04:06:15Z</time>
      </trkpt>
      <trkpt lat="45.23256" lon="6.31593">
        <ele>815</ele>
        <time>2018-02-17T04:07:15Z</time>
      </trkpt>
      <trkpt lat="45.23239" lon="6.31581">
        <ele>815</ele>
        <time>2018-02-17T04:08:15Z</time>
      </trkpt>
      <trkpt lat="45.23206" lon="6.31583">
        <ele>824</ele>
        <time>2018-02-17T04:09:15Z</time>
      </trkpt>
      <trkpt lat="45.23199" lon="6.31587">
        <ele>827</ele>
        <time>2018-02-17T04:10:15Z</time>
      </trkpt>
      <trkpt lat="45.23191" lon="6.31585">
        <ele>828</ele>
        <time>2018-02-17T04:11:15Z</time>
      </trkpt>
      <trkpt lat="45.23183" lon="6.3158">
        <ele>829</ele>
        <time>2018-02-17T04:12:15Z</time>
      </trkpt>
      <trkpt lat="45.2317" lon="6.31558">
        <ele>826</ele>
        <time>2018-02-17T04:13:15Z</time>
      </trkpt>
      <trkpt lat="45.23142" lon="6.31522">
        <ele>820</ele>
        <time>2018-02-17T04:14:15Z</time>
      </trkpt>
      <trkpt lat="45.23129" lon="6.31502">
        <ele>816</ele>
        <time>2018-02-17T04:15:15Z</time>
      </trkpt>
      <trkpt lat="45.23117" lon="6.31467">
        <ele>808</ele>
        <time>2018-02-17T04:16:15Z</time>
      </trkpt>
      <trkpt lat="45.23133" lon="6.31461">
        <ele>805</ele>
        <time>2018-02-17T04:17:15Z</time>
      </trkpt>
      <trkpt lat="45.23162" lon="6.31466">
        <ele>804</ele>
        <time>2018-02-17T04:18:15Z</time>
      </trkpt>
      <trkpt lat="45.23181" lon="6.31466">
        <ele>800</ele>
        <time>2018-02-17T04:19:15Z</time>
      </trkpt>
      <trkpt lat="45.23186" lon="6.31483">
        <ele>803</ele>
        <time>2018-02-17T04:20:15Z</time>
      </trkpt>
      <trkpt lat="45.23295" lon="6.31566">
        <ele>798</ele>
        <time>2018-02-17T04:21:15Z</time>
      </trkpt>
      <trkpt lat="45.23333" lon="6.31565">
        <ele>788</ele>
        <time>2018-02-17T04:22:15Z</time>
      </trkpt>
      <trkpt lat="45.2336" lon="6.31583">
        <ele>786</ele>
        <time>2018-02-17T04:23:15Z</time>
      </trkpt>
      <trkpt lat="45.23372" lon="6.31585">
        <ele>784</ele>
        <time>2018-02-17T04:24:15Z</time>
      </trkpt>
      <trkpt lat="45.23379" lon="6.31584">
        <ele>782</ele>
        <time>2018-02-17T04:25:15Z</time>
      </trkpt>
      <trkpt lat="45.23382" lon="6.31575">
        <ele>780</ele>
        <time>2018-02-17T04:26:15Z</time>
      </trkpt>
      <trkpt lat="45.23381" lon="6.31568">
        <ele>778</ele>
        <time>2018-02-17T04:27:15Z</time>
      </trkpt>
      <trkpt lat="45.23372" lon="6.31553">
        <ele>777</ele>
        <time>2018-02-17T04:28:15Z</time>
      </trkpt>
      <trkpt lat="45.23357" lon="6.31539">
        <ele>777</ele>
        <time>2018-02-17T04:29:15Z</time>
      </trkpt>
      <trkpt lat="45.23346" lon="6.3149">
        <ele>770</ele>
        <time>2018-02-17T04:30:15Z</time>
      </trkpt>
      <trkpt lat="45.23302" lon="6.31424">
        <ele>768</ele>
        <time>2018-02-17T04:31:15Z</time>
      </trkpt>
      <trkpt lat="45.233" lon="6.31417">
        <ele>767</ele>
        <time>2018-02-17T04:32:15Z</time>
      </trkpt>
      <trkpt lat="45.23306" lon="6.31407">
        <ele>766</ele>
        <time>2018-02-17T04:33:15Z</time>
      </trkpt>
      <trkpt lat="45.23311" lon="6.31407">
        <ele>765</ele>
        <time>2018-02-17T04:34:15Z</time>
      </trkpt>
      <trkpt lat="45.23331" lon="6.31425">
        <ele>762</ele>
        <time>2018-02-17T04:35:15Z</time>
      </trkpt>
      <trkpt lat="45.23346" lon="6.31426">
        <ele>761</ele>
        <time>2018-02-17T04:36:15Z</time>
      </trkpt>
      <trkpt lat="45.23385" lon="6.314">
        <ele>760</ele>
        <time>2018-02-17T04:37:15Z</time>
      </trkpt>
      <trkpt lat="45.2341" lon="6.31397">
        <ele>760</ele>
        <time>2018-02-17T04:38:15Z</time>
      </trkpt>
      <trkpt lat="45.23462" lon="6.31405">
        <ele>758</ele>
        <time>2018-02-17T04:39:15Z</time>
      </trkpt>
      <trkpt lat="45.23498" lon="6.31417">
        <ele>755</ele>
        <time>2018-02-17T04:40:15Z</time>
      </trkpt>
      <trkpt lat="45.23559" lon="6.31445">
        <ele>747</ele>
        <time>2018-02-17T04:41:15Z</time>
      </trkpt>
      <trkpt lat="45.23724" lon="6.31498">
        <ele>740</ele>
        <time>2018-02-17T04:42:15Z</time>
      </trkpt>
      <trkpt lat="45.23758" lon="6.31514">
        <ele>740</ele>
        <time>2018-02-17T04:43:15Z</time>
      </trkpt>
      <trkpt lat="45.2377" lon="6.31541">
        <ele>740</ele>
        <time>2018-02-17T04:44:15Z</time>
      </trkpt>
      <trkpt lat="45.23823" lon="6.31713">
        <ele>733</ele>
        <time>2018-02-17T04:45:15Z</time>
      </trkpt>
      <trkpt lat="45.23834" lon="6.31735">
        <ele>731</ele>
        <time>2018-02-17T04:46:15Z</time>
      </trkpt>
      <trkpt lat="45.23943" lon="6.31831">
        <ele>727</ele>
        <time>2018-02-17T04:47:15Z</time>
      </trkpt>
      <trkpt lat="45.23966" lon="6.31854">
        <ele>728</ele>
        <time>2018-02-17T04:48:15Z</time>
      </trkpt>
      <trkpt lat="45.23993" lon="6.31872">
        <ele>728</ele>
        <time>2018-02-17T04:49:15Z</time>
      </trkpt>
      <trkpt lat="45.24046" lon="6.31889">
        <ele>730</ele>
        <time>2018-02-17T04:50:15Z</time>
      </trkpt>
      <trkpt lat="45.24111" lon="6.31913">
        <ele>728</ele>
        <time>2018-02-17T04:51:15Z</time>
      </trkpt>
      <trkpt lat="45.24154" lon="6.31942">
        <ele>726</ele>
        <time>2018-02-17T04:52:15Z</time>
      </trkpt>
      <trkpt lat="45.24213" lon="6.3199">
        <ele>713</ele>
        <time>2018-02-17T04:53:15Z</time>
      </trkpt>
      <trkpt lat="45.24326" lon="6.32037">
        <ele>708</ele>
        <time>2018-02-17T04:54:15Z</time>
      </trkpt>
      <trkpt lat="45.24383" lon="6.32047">
        <ele>706</ele>
        <time>2018-02-17T04:55:15Z</time>
      </trkpt>
      <trkpt lat="45.2443" lon="6.32069">
        <ele>701</ele>
        <time>2018-02-17T04:56:15Z</time>
      </trkpt>
      <trkpt lat="45.2447" lon="6.321">
        <ele>699</ele>
        <time>2018-02-17T04:57:15Z</time>
      </trkpt>
      <trkpt lat="45.24521" lon="6.32149">
        <ele>693</ele>
        <time>2018-02-17T04:58:15Z</time>
      </trkpt>
      <trkpt lat="45.24579" lon="6.32159">
        <ele>687</ele>
        <time>2018-02-17T04:59:15Z</time>
      </trkpt>
      <trkpt lat="45.2483" lon="6.3219">
        <ele>679</ele>
        <time>2018-02-17T05:00:15Z</time>
      </trkpt>
      <trkpt lat="45.24943" lon="6.32202">
        <ele>677</ele>
        <time>2018-02-17T05:01:15Z</time>
      </trkpt>
      <trkpt lat="45.24972" lon="6.32203">
        <ele>676</ele>
        <time>2018-02-17T05:02:15Z</time>
      </trkpt>
      <trkpt lat="45.25" lon="6.322">
        <ele>675</ele>
        <time>2018-02-17T05:03:15Z</time>
      </trkpt>
      <trkpt lat="45.25122" lon="6.32166">
        <ele>668</ele>
        <time>2018-02-17T05:04:15Z</time>
      </trkpt>
      <trkpt lat="45.25138" lon="6.32166">
        <ele>667</ele>
        <time>2018-02-17T05:05:15Z</time>
      </trkpt>
      <trkpt lat="45.25152" lon="6.32172">
        <ele>667</ele>
        <time>2018-02-17T05:06:15Z</time>
      </trkpt>
      <trkpt lat="45.25236" lon="6.32263">
        <ele>660</ele>
        <time>2018-02-17T05:07:15Z</time>
      </trkpt>
      <trkpt lat="45.25264" lon="6.32288">
        <ele>659</ele>
        <time>2018-02-17T05:08:15Z</time>
      </trkpt>
      <trkpt lat="45.25354" lon="6.32322">
        <ele>656</ele>
        <time>2018-02-17T05:09:15Z</time>
      </trkpt>
      <trkpt lat="45.25369" lon="6.32323">
        <ele>656</ele>
        <time>2018-02-17T05:10:15Z</time>
      </trkpt>
      <trkpt lat="45.25392" lon="6.32332">
        <ele>655</ele>
        <time>2018-02-17T05:11:15Z</time>
      </trkpt>
      <trkpt lat="45.25398" lon="6.32338">
        <ele>654</ele>
        <time>2018-02-17T05:12:15Z</time>
      </trkpt>
      <trkpt lat="45.25417" lon="6.3238">
        <ele>653</ele>
        <time>2018-02-17T05:13:15Z</time>
      </trkpt>
      <trkpt lat="45.25424" lon="6.32387">
        <ele>653</ele>
        <time>2018-02-17T05:14:15Z</time>
      </trkpt>
      <trkpt lat="45.25606" lon="6.3253">
        <ele>641</ele>
        <time>2018-02-17T05:15:15Z</time>
      </trkpt>
      <trkpt lat="45.25743" lon="6.32604">
        <ele>639</ele>
        <time>2018-02-17T05:16:15Z</time>
      </trkpt>
      <trkpt lat="45.25783" lon="6.32639">
        <ele>640</ele>
        <time>2018-02-17T05:17:15Z</time>
      </trkpt>
      <trkpt lat="45.25833" lon="6.32711">
        <ele>629</ele>
        <time>2018-02-17T05:18:15Z</time>
      </trkpt>
      <trkpt lat="45.25964" lon="6.32873">
        <ele>628</ele>
        <time>2018-02-17T05:19:15Z</time>
      </trkpt>
      <trkpt lat="45.26091" lon="6.33017">
        <ele>616</ele>
        <time>2018-02-17T05:20:15Z</time>
      </trkpt>
      <trkpt lat="45.26338" lon="6.33311">
        <ele>598</ele>
        <time>2018-02-17T05:21:15Z</time>
      </trkpt>
      <trkpt lat="45.26415" lon="6.33376">
        <ele>595</ele>
        <time>2018-02-17T05:22:15Z</time>
      </trkpt>
      <trkpt lat="45.26446" lon="6.33417">
        <ele>594</ele>
        <time>2018-02-17T05:23:15Z</time>
      </trkpt>
      <trkpt lat="45.26476" lon="6.33466">
        <ele>592</ele>
        <time>2018-02-17T05:24:15Z</time>
      </trkpt>
      <trkpt lat="45.26541" lon="6.33613">
        <ele>593</ele>
        <time>2018-02-17T05:25:15Z</time>
      </trkpt>
      <trkpt lat="45.26582" lon="6.33689">
        <ele>594</ele>
        <time>2018-02-17T05:26:15Z</time>
      </trkpt>
      <trkpt lat="45.2661" lon="6.33728">
        <ele>597</ele>
        <time>2018-02-17T05:27:15Z</time>
      </trkpt>
      <trkpt lat="45.26642" lon="6.33761">
        <ele>598</ele>
        <time>2018-02-17T05:28:15Z</time>
      </trkpt>
      <trkpt lat="45.26682" lon="6.33796">
        <ele>599</ele>
        <time>2018-02-17T05:29:15Z</time>
      </trkpt>
      <trkpt lat="45.26713" lon="6.33832">
        <ele>599</ele>
        <time>2018-02-17T05:30:15Z</time>
      </trkpt>
      <trkpt lat="45.26746" lon="6.33875">
        <ele>599</ele>
        <time>2018-02-17T05:31:15Z</time>
      </trkpt>
      <trkpt lat="45.26779" lon="6.33934">
        <ele>597</ele>
        <time>2018-02-17T05:32:15Z</time>
      </trkpt>
      <trkpt lat="45.26805" lon="6.33966">
        <ele>599</ele>
        <time>2018-02-17T05:33:15Z</time>
      </trkpt>
      <trkpt lat="45.26837" lon="6.33992">
        <ele>602</ele>
        <time>2018-02-17T05:34:15Z</time>
      </trkpt>
      <trkpt lat="45.26883" lon="6.3402">
        <ele>606</ele>
        <time>2018-02-17T05:35:15Z</time>
      </trkpt>
      <trkpt lat="45.269" lon="6.3404">
        <ele>608</ele>
        <time>2018-02-17T05:36:15Z</time>
      </trkpt>
      <trkpt lat="45.26958" lon="6.34134">
        <ele>608</ele>
        <time>2018-02-17T05:37:15Z</time>
      </trkpt>
      <trkpt lat="45.2701" lon="6.34193">
        <ele>607</ele>
        <time>2018-02-17T05:38:15Z</time>
      </trkpt>
      <trkpt lat="45.27059" lon="6.3423">
        <ele>606</ele>
        <time>2018-02-17T05:39:15Z</time>
      </trkpt>
      <trkpt lat="45.2709" lon="6.3425">
        <ele>606</ele>
        <time>2018-02-17T05:40:15Z</time>
      </trkpt>
      <trkpt lat="45.27114" lon="6.34291">
        <ele>603</ele>
        <time>2018-02-17T05:41:15Z</time>
      </trkpt>
      <trkpt lat="45.27116" lon="6.34299">
        <ele>603</ele>
        <time>2018-02-17T05:42:15Z</time>
      </trkpt>
      <trkpt lat="45.27119" lon="6.34302">
        <ele>602</ele>
        <time>2018-02-17T05:43:15Z</time>
      </trkpt>
      <trkpt lat="45.27125" lon="6.34298">
        <ele>603</ele>
        <time>2018-02-17T05:44:15Z</time>
      </trkpt>
      <trkpt lat="45.27156" lon="6.34325">
        <ele>601</ele>
        <time>2018-02-17T05:45:15Z</time>
      </trkpt>
      <trkpt lat="45.27208" lon="6.34379">
        <ele>597</ele>
        <time>2018-02-17T05:46:15Z</time>
      </trkpt>
      <trkpt lat="45.27209" lon="6.34383">
        <ele>596</ele>
        <time>2018-02-17T05:47:15Z</time>
      </trkpt>
      <trkpt lat="45.27214" lon="6.34391">
        <ele>596</ele>
        <time>2018-02-17T05:48:15Z</time>
      </trkpt>
      <trkpt lat="45.27221" lon="6.34391">
        <ele>595</ele>
        <time>2018-02-17T05:49:15Z</time>
      </trkpt>
      <trkpt lat="45.27233" lon="6.34419">
        <ele>594</ele>
        <time>2018-02-17T05:50:15Z</time>
      </trkpt>
      <trkpt lat="45.27276" lon="6.34487">
        <ele>589</ele>
        <time>2018-02-17T05:51:15Z</time>
      </trkpt>
      <trkpt lat="45.27281" lon="6.34492">
        <ele>589</ele>
        <time>2018-02-17T05:52:15Z</time>
      </trkpt>
      <trkpt lat="45.27279" lon="6.34496">
        <ele>589</ele>
        <time>2018-02-17T05:53:15Z</time>
      </trkpt>
      <trkpt lat="45.27278" lon="6.34507">
        <ele>588</ele>
        <time>2018-02-17T05:54:15Z</time>
      </trkpt>
      <trkpt lat="45.2728" lon="6.34513">
        <ele>588</ele>
        <time>2018-02-17T05:55:15Z</time>
      </trkpt>
      <trkpt lat="45.27277" lon="6.34522">
        <ele>587</ele>
        <time>2018-02-17T05:56:15Z</time>
      </trkpt>
      <trkpt lat="45.27258" lon="6.34571">
        <ele>585</ele>
        <time>2018-02-17T05:57:15Z</time>
      </trkpt>
      <trkpt lat="45.27239" lon="6.34608">
        <ele>583</ele>
        <time>2018-02-17T05:58:15Z</time>
      </trkpt>
      <trkpt lat="45.2722" lon="6.34636">
        <ele>582</ele>
        <time>2018-02-17T05:59:15Z</time>
      </trkpt>
      <trkpt lat="45.27178" lon="6.34687">
        <ele>579</ele>
        <time>2018-02-17T06:00:15Z</time>
      </trkpt>
      <trkpt lat="45.27161" lon="6.3471">
        <ele>578</ele>
        <time>2018-02-17T06:01:15Z</time>
      </trkpt>
      <trkpt lat="45.27159" lon="6.34728">
        <ele>577</ele>
        <time>2018-02-17T06:02:15Z</time>
      </trkpt>
      <trkpt lat="45.27159" lon="6.34777">
        <ele>574</ele>
        <time>2018-02-17T06:03:15Z</time>
      </trkpt>
      <trkpt lat="45.27164" lon="6.34883">
        <ele>569</ele>
        <time>2018-02-17T06:04:15Z</time>
      </trkpt>
      <trkpt lat="45.27174" lon="6.34943">
        <ele>565</ele>
        <time>2018-02-17T06:05:15Z</time>
      </trkpt>
      <trkpt lat="45.27202" lon="6.35053">
        <ele>557</ele>
        <time>2018-02-17T06:06:15Z</time>
      </trkpt>
      <trkpt lat="45.27211" lon="6.35075">
        <ele>555</ele>
        <time>2018-02-17T06:07:15Z</time>
      </trkpt>
      <trkpt lat="45.27198" lon="6.35092">
        <ele>554</ele>
        <time>2018-02-17T06:08:15Z</time>
      </trkpt>
      <trkpt lat="45.27172" lon="6.3513">
        <ele>552</ele>
        <time>2018-02-17T06:09:15Z</time>
      </trkpt>
      <trkpt lat="45.27101" lon="6.35265">
        <ele>550</ele>
        <time>2018-02-17T06:10:15Z</time>
      </trkpt>
      <trkpt lat="45.27059" lon="6.35508">
        <ele>549</ele>
        <time>2018-02-17T06:11:15Z</time>
      </trkpt>
      <trkpt lat="45.27059" lon="6.35508">
        <ele>549</ele>
        <time>2018-02-17T06:12:15Z</time>
      </trkpt>
      <trkpt lat="45.27056" lon="6.35537">
        <ele>549</ele>
        <time>2018-02-17T06:13:15Z</time>
      </trkpt>
      <trkpt lat="45.27052" lon="6.35582">
        <ele>548</ele>
        <time>2018-02-17T06:14:15Z</time>
      </trkpt>
      <trkpt lat="45.27051" lon="6.35629">
        <ele>548</ele>
        <time>2018-02-17T06:15:15Z</time>
      </trkpt>
      <trkpt lat="45.27055" lon="6.35713">
        <ele>547</ele>
        <time>2018-02-17T06:16:15Z</time>
      </trkpt>
      <trkpt lat="45.27053" lon="6.3575">
        <ele>547</ele>
        <time>2018-02-17T06:17:15Z</time>
      </trkpt>
      <trkpt lat="45.27048" lon="6.35786">
        <ele>546</ele>
        <time>2018-02-17T06:18:15Z</time>
      </trkpt>
      <trkpt lat="45.2701" lon="6.35972">
        <ele>545</ele>
        <time>2018-02-17T06:19:15Z</time>
      </trkpt>
      <trkpt lat="45.26978" lon="6.36143">
        <ele>543</ele>
        <time>2018-02-17T06:20:15Z</time>
      </trkpt>
      <trkpt lat="45.26931" lon="6.36328">
        <ele>541</ele>
        <time>2018-02-17T06:21:15Z</time>
      </trkpt>
      <trkpt lat="45.26834" lon="6.36696">
        <ele>543</ele>
        <time>2018-02-17T06:22:15Z</time>
      </trkpt>
      <trkpt lat="45.26831" lon="6.36716">
        <ele>542</ele>
        <time>2018-02-17T06:23:15Z</time>
      </trkpt>
      <trkpt lat="45.26831" lon="6.36729">
        <ele>542</ele>
        <time>2018-02-17T06:24:15Z</time>
      </trkpt>
      <trkpt lat="45.26838" lon="6.36753">
        <ele>542</ele>
        <time>2018-02-17T06:25:15Z</time>
      </trkpt>
      <trkpt lat="45.26832" lon="6.3676">
        <ele>542</ele>
        <time>2018-02-17T06:26:15Z</time>
      </trkpt>
      <trkpt lat="45.26829" lon="6.36771">
        <ele>542</ele>
        <time>2018-02-17T06:27:15Z</time>
      </trkpt>
      <trkpt lat="45.26829" lon="6.36781">
        <ele>542</ele>
        <time>2018-02-17T06:28:15Z</time>
      </trkpt>
      <trkpt lat="45.26832" lon="6.36789">
        <ele>542</ele>
        <time>2018-02-17T06:29:15Z</time>
      </trkpt>
      <trkpt lat="45.26805" lon="6.36895">
        <ele>542</ele>
        <time>2018-02-17T06:30:15Z</time>
      </trkpt>
      <trkpt lat="45.268" lon="6.36897">
        <ele>542</ele>
        <time>2018-02-17T06:31:15Z</time>
      </trkpt>
      <trkpt lat="45.26793" lon="6.36908">
        <ele>542</ele>
        <time>2018-02-17T06:32:15Z</time>
      </trkpt>
      <trkpt lat="45.26791" lon="6.36916">
        <ele>542</ele>
        <time>2018-02-17T06:33:15Z</time>
      </trkpt>
      <trkpt lat="45.26793" lon="6.36929">
        <ele>542</ele>
        <time>2018-02-17T06:34:15Z</time>
      </trkpt>
      <trkpt lat="45.26723" lon="6.37182">
        <ele>544</ele>
        <time>2018-02-17T06:35:15Z</time>
      </trkpt>
      <trkpt lat="45.26713" lon="6.37226">
        <ele>545</ele>
        <time>2018-02-17T06:36:15Z</time>
      </trkpt>
      <trkpt lat="45.2666" lon="6.37534">
        <ele>549</ele>
        <time>2018-02-17T06:37:15Z</time>
      </trkpt>
      <trkpt lat="45.26652" lon="6.37589">
        <ele>548</ele>
        <time>2018-02-17T06:38:15Z</time>
      </trkpt>
      <trkpt lat="45.26648" lon="6.37663">
        <ele>549</ele>
        <time>2018-02-17T06:39:15Z</time>
      </trkpt>
      <trkpt lat="45.26645" lon="6.37777">
        <ele>552</ele>
        <time>2018-02-17T06:40:15Z</time>
      </trkpt>
      <trkpt lat="45.26644" lon="6.37866">
        <ele>553</ele>
        <time>2018-02-17T06:41:15Z</time>
      </trkpt>
      <trkpt lat="45.2664" lon="6.38082">
        <ele>559</ele>
        <time>2018-02-17T06:42:15Z</time>
      </trkpt>
      <trkpt lat="45.26642" lon="6.38106">
        <ele>559</ele>
        <time>2018-02-17T06:43:15Z</time>
      </trkpt>
      <trkpt lat="45.26654" lon="6.38129">
        <ele>559</ele>
        <time>2018-02-17T06:44:15Z</time>
      </trkpt>
      <trkpt lat="45.26647" lon="6.38153">
        <ele>558</ele>
        <time>2018-02-17T06:45:15Z</time>
      </trkpt>
      <trkpt lat="45.26639" lon="6.38216">
        <ele>558</ele>
        <time>2018-02-17T06:46:15Z</time>
      </trkpt>
      <trkpt lat="45.26636" lon="6.38347">
        <ele>564</ele>
        <time>2018-02-17T06:47:15Z</time>
      </trkpt>
      <trkpt lat="45.26627" lon="6.38383">
        <ele>568</ele>
        <time>2018-02-17T06:48:15Z</time>
      </trkpt>
      <trkpt lat="45.26611" lon="6.38417">
        <ele>570</ele>
        <time>2018-02-17T06:49:15Z</time>
      </trkpt>
      <trkpt lat="45.26596" lon="6.38437">
        <ele>570</ele>
        <time>2018-02-17T06:50:15Z</time>
      </trkpt>
      <trkpt lat="45.26576" lon="6.38453">
        <ele>569</ele>
        <time>2018-02-17T06:51:15Z</time>
      </trkpt>
      <trkpt lat="45.26543" lon="6.38475">
        <ele>568</ele>
        <time>2018-02-17T06:52:15Z</time>
      </trkpt>
      <trkpt lat="45.26362" lon="6.38583">
        <ele>573</ele>
        <time>2018-02-17T06:53:15Z</time>
      </trkpt>
      <trkpt lat="45.26293" lon="6.38615">
        <ele>576</ele>
        <time>2018-02-17T06:54:15Z</time>
      </trkpt>
      <trkpt lat="45.26264" lon="6.38626">
        <ele>577</ele>
        <time>2018-02-17T06:55:15Z</time>
      </trkpt>
      <trkpt lat="45.26224" lon="6.38638">
        <ele>578</ele>
        <time>2018-02-17T06:56:15Z</time>
      </trkpt>
      <trkpt lat="45.26176" lon="6.38646">
        <ele>577</ele>
        <time>2018-02-17T06:57:15Z</time>
      </trkpt>
      <trkpt lat="45.26056" lon="6.38653">
        <ele>582</ele>
        <time>2018-02-17T06:58:15Z</time>
      </trkpt>
      <trkpt lat="45.2603" lon="6.38656">
        <ele>583</ele>
        <time>2018-02-17T06:59:15Z</time>
      </trkpt>
      <trkpt lat="45.26003" lon="6.38661">
        <ele>585</ele>
        <time>2018-02-17T07:00:15Z</time>
      </trkpt>
      <trkpt lat="45.25978" lon="6.38668">
        <ele>585</ele>
        <time>2018-02-17T07:01:15Z</time>
      </trkpt>
      <trkpt lat="45.25946" lon="6.38682">
        <ele>584</ele>
        <time>2018-02-17T07:02:15Z</time>
      </trkpt>
      <trkpt lat="45.25903" lon="6.38706">
        <ele>584</ele>
        <time>2018-02-17T07:03:15Z</time>
      </trkpt>
      <trkpt lat="45.25863" lon="6.38736">
        <ele>586</ele>
        <time>2018-02-17T07:04:15Z</time>
      </trkpt>
      <trkpt lat="45.25829" lon="6.38767">
        <ele>588</ele>
        <time>2018-02-17T07:05:15Z</time>
      </trkpt>
      <trkpt lat="45.25565" lon="6.39037">
        <ele>597</ele>
        <time>2018-02-17T07:06:15Z</time>
      </trkpt>
      <trkpt lat="45.25532" lon="6.39079">
        <ele>599</ele>
        <time>2018-02-17T07:07:15Z</time>
      </trkpt>
      <trkpt lat="45.2551" lon="6.39118">
        <ele>600</ele>
        <time>2018-02-17T07:08:15Z</time>
      </trkpt>
      <trkpt lat="45.25493" lon="6.39155">
        <ele>602</ele>
        <time>2018-02-17T07:09:15Z</time>
      </trkpt>
      <trkpt lat="45.25473" lon="6.39214">
        <ele>603</ele>
        <time>2018-02-17T07:10:15Z</time>
      </trkpt>
      <trkpt lat="45.25429" lon="6.39426">
        <ele>617</ele>
        <time>2018-02-17T07:11:15Z</time>
      </trkpt>
      <trkpt lat="45.25421" lon="6.39425">
        <ele>616</ele>
        <time>2018-02-17T07:12:15Z</time>
      </trkpt>
      <trkpt lat="45.25415" lon="6.39427">
        <ele>616</ele>
        <time>2018-02-17T07:13:15Z</time>
      </trkpt>
      <trkpt lat="45.25409" lon="6.39433">
        <ele>615</ele>
        <time>2018-02-17T07:14:15Z</time>
      </trkpt>
      <trkpt lat="45.25407" lon="6.39439">
        <ele>615</ele>
        <time>2018-02-17T07:15:15Z</time>
      </trkpt>
      <trkpt lat="45.25405" lon="6.39448">
        <ele>616</ele>
        <time>2018-02-17T07:16:15Z</time>
      </trkpt>
      <trkpt lat="45.25406" lon="6.39461">
        <ele>617</ele>
        <time>2018-02-17T07:17:15Z</time>
      </trkpt>
      <trkpt lat="45.25411" lon="6.3947">
        <ele>619</ele>
        <time>2018-02-17T07:18:15Z</time>
      </trkpt>
      <trkpt lat="45.25403" lon="6.39524">
        <ele>622</ele>
        <time>2018-02-17T07:19:15Z</time>
      </trkpt>
      <trkpt lat="45.25303" lon="6.39873">
        <ele>630</ele>
        <time>2018-02-17T07:20:15Z</time>
      </trkpt>
      <trkpt lat="45.25283" lon="6.39965">
        <ele>633</ele>
        <time>2018-02-17T07:21:15Z</time>
      </trkpt>
      <trkpt lat="45.25273" lon="6.40018">
        <ele>634</ele>
        <time>2018-02-17T07:22:15Z</time>
      </trkpt>
      <trkpt lat="45.25266" lon="6.40064">
        <ele>635</ele>
        <time>2018-02-17T07:23:15Z</time>
      </trkpt>
      <trkpt lat="45.25258" lon="6.40156">
        <ele>634</ele>
        <time>2018-02-17T07:24:15Z</time>
      </trkpt>
      <trkpt lat="45.25255" lon="6.40291">
        <ele>634</ele>
        <time>2018-02-17T07:25:15Z</time>
      </trkpt>
      <trkpt lat="45.25257" lon="6.40642">
        <ele>636</ele>
        <time>2018-02-17T07:26:15Z</time>
      </trkpt>
      <trkpt lat="45.25247" lon="6.40803">
        <ele>641</ele>
        <time>2018-02-17T07:27:15Z</time>
      </trkpt>
      <trkpt lat="45.2524" lon="6.40868">
        <ele>645</ele>
        <time>2018-02-17T07:28:15Z</time>
      </trkpt>
      <trkpt lat="45.25229" lon="6.40928">
        <ele>648</ele>
        <time>2018-02-17T07:29:15Z</time>
      </trkpt>
      <trkpt lat="45.25202" lon="6.41031">
        <ele>654</ele>
        <time>2018-02-17T07:30:15Z</time>
      </trkpt>
      <trkpt lat="45.25184" lon="6.41079">
        <ele>656</ele>
        <time>2018-02-17T07:31:15Z</time>
      </trkpt>
      <trkpt lat="45.25167" lon="6.41119">
        <ele>657</ele>
        <time>2018-02-17T07:32:15Z</time>
      </trkpt>
      <trkpt lat="45.25137" lon="6.41181">
        <ele>660</ele>
        <time>2018-02-17T07:33:15Z</time>
      </trkpt>
      <trkpt lat="45.25114" lon="6.41207">
        <ele>661</ele>
        <time>2018-02-17T07:34:15Z</time>
      </trkpt>
      <trkpt lat="45.25101" lon="6.41232">
        <ele>662</ele>
        <time>2018-02-17T07:35:15Z</time>
      </trkpt>
      <trkpt lat="45.25093" lon="6.41253">
        <ele>663</ele>
        <time>2018-02-17T07:36:15Z</time>
      </trkpt>
      <trkpt lat="45.25062" lon="6.41315">
        <ele>665</ele>
        <time>2018-02-17T07:37:15Z</time>
      </trkpt>
      <trkpt lat="45.25042" lon="6.41377">
        <ele>668</ele>
        <time>2018-02-17T07:38:15Z</time>
      </trkpt>
      <trkpt lat="45.25001" lon="6.41473">
        <ele>671</ele>
        <time>2018-02-17T07:39:15Z</time>
      </trkpt>
      <trkpt lat="45.2491" lon="6.41659">
        <ele>669</ele>
        <time>2018-02-17T07:40:15Z</time>
      </trkpt>
      <trkpt lat="45.24869" lon="6.41752">
        <ele>674</ele>
        <time>2018-02-17T07:41:15Z</time>
      </trkpt>
      <trkpt lat="45.24839" lon="6.41829">
        <ele>675</ele>
        <time>2018-02-17T07:42:15Z</time>
      </trkpt>
      <trkpt lat="45.24789" lon="6.41997">
        <ele>679</ele>
        <time>2018-02-17T07:43:15Z</time>
      </trkpt>
      <trkpt lat="45.24553" lon="6.4281">
        <ele>675</ele>
        <time>2018-02-17T07:44:15Z</time>
      </trkpt>
      <trkpt lat="45.2452" lon="6.42912">
        <ele>677</ele>
        <time>2018-02-17T07:45:15Z</time>
      </trkpt>
      <trkpt lat="45.24492" lon="6.42982">
        <ele>677</ele>
        <time>2018-02-17T07:46:15Z</time>
      </trkpt>
      <trkpt lat="45.24458" lon="6.43057">
        <ele>677</ele>
        <time>2018-02-17T07:47:15Z</time>
      </trkpt>
      <trkpt lat="45.24404" lon="6.43142">
        <ele>675</ele>
        <time>2018-02-17T07:48:15Z</time>
      </trkpt>
      <trkpt lat="45.24319" lon="6.43242">
        <ele>678</ele>
        <time>2018-02-17T07:49:15Z</time>
      </trkpt>
      <trkpt lat="45.24229" lon="6.43327">
        <ele>676</ele>
        <time>2018-02-17T07:50:15Z</time>
      </trkpt>
      <trkpt lat="45.23968" lon="6.43564">
        <ele>685</ele>
        <time>2018-02-17T07:51:15Z</time>
      </trkpt>
      <trkpt lat="45.23939" lon="6.43589">
        <ele>686</ele>
        <time>2018-02-17T07:52:15Z</time>
      </trkpt>
      <trkpt lat="45.23905" lon="6.4361">
        <ele>687</ele>
        <time>2018-02-17T07:53:15Z</time>
      </trkpt>
      <trkpt lat="45.23823" lon="6.43643">
        <ele>685</ele>
        <time>2018-02-17T07:54:15Z</time>
      </trkpt>
      <trkpt lat="45.23783" lon="6.43663">
        <ele>683</ele>
        <time>2018-02-17T07:55:15Z</time>
      </trkpt>
      <trkpt lat="45.2376" lon="6.43681">
        <ele>684</ele>
        <time>2018-02-17T07:56:15Z</time>
      </trkpt>
      <trkpt lat="45.23732" lon="6.43711">
        <ele>686</ele>
        <time>2018-02-17T07:57:15Z</time>
      </trkpt>
      <trkpt lat="45.23704" lon="6.43753">
        <ele>687</ele>
        <time>2018-02-17T07:58:15Z</time>
      </trkpt>
      <trkpt lat="45.23696" lon="6.43769">
        <ele>687</ele>
        <time>2018-02-17T07:59:15Z</time>
      </trkpt>
      <trkpt lat="45.2368" lon="6.43813">
        <ele>687</ele>
        <time>2018-02-17T08:00:15Z</time>
      </trkpt>
      <trkpt lat="45.23673" lon="6.43837">
        <ele>688</ele>
        <time>2018-02-17T08:01:15Z</time>
      </trkpt>
      <trkpt lat="45.23664" lon="6.43875">
        <ele>687</ele>
        <time>2018-02-17T08:02:15Z</time>
      </trkpt>
      <trkpt lat="45.23658" lon="6.43911">
        <ele>686</ele>
        <time>2018-02-17T08:03:15Z</time>
      </trkpt>
      <trkpt lat="45.23636" lon="6.44064">
        <ele>683</ele>
        <time>2018-02-17T08:04:15Z</time>
      </trkpt>
      <trkpt lat="45.23624" lon="6.44118">
        <ele>685</ele>
        <time>2018-02-17T08:05:15Z</time>
      </trkpt>
      <trkpt lat="45.23608" lon="6.44166">
        <ele>686</ele>
        <time>2018-02-17T08:06:15Z</time>
      </trkpt>
      <trkpt lat="45.23587" lon="6.44211">
        <ele>685</ele>
        <time>2018-02-17T08:07:15Z</time>
      </trkpt>
      <trkpt lat="45.23574" lon="6.44236">
        <ele>686</ele>
        <time>2018-02-17T08:08:15Z</time>
      </trkpt>
      <trkpt lat="45.23558" lon="6.4426">
        <ele>687</ele>
        <time>2018-02-17T08:09:15Z</time>
      </trkpt>
      <trkpt lat="45.23535" lon="6.44289">
        <ele>688</ele>
        <time>2018-02-17T08:10:15Z</time>
      </trkpt>
      <trkpt lat="45.23494" lon="6.44331">
        <ele>687</ele>
        <time>2018-02-17T08:11:15Z</time>
      </trkpt>
      <trkpt lat="45.23381" lon="6.44432">
        <ele>691</ele>
        <time>2018-02-17T08:12:15Z</time>
      </trkpt>
      <trkpt lat="45.23264" lon="6.44547">
        <ele>690</ele>
        <time>2018-02-17T08:13:15Z</time>
      </trkpt>
      <trkpt lat="45.2324" lon="6.44574">
        <ele>687</ele>
        <time>2018-02-17T08:14:15Z</time>
      </trkpt>
      <trkpt lat="45.23207" lon="6.44615">
        <ele>687</ele>
        <time>2018-02-17T08:15:15Z</time>
      </trkpt>
      <trkpt lat="45.23179" lon="6.44657">
        <ele>687</ele>
        <time>2018-02-17T08:16:15Z</time>
      </trkpt>
      <trkpt lat="45.23075" lon="6.44826">
        <ele>689</ele>
        <time>2018-02-17T08:17:15Z</time>
      </trkpt>
      <trkpt lat="45.23025" lon="6.44883">
        <ele>689</ele>
        <time>2018-02-17T08:18:15Z</time>
      </trkpt>
      <trkpt lat="45.22986" lon="6.44912">
        <ele>688</ele>
        <time>2018-02-17T08:19:15Z</time>
      </trkpt>
      <trkpt lat="45.22924" lon="6.44954">
        <ele>688</ele>
        <time>2018-02-17T08:20:15Z</time>
      </trkpt>
      <trkpt lat="45.22876" lon="6.44979">
        <ele>688</ele>
        <time>2018-02-17T08:21:15Z</time>
      </trkpt>
      <trkpt lat="45.22825" lon="6.45">
        <ele>687</ele>
        <time>2018-02-17T08:22:15Z</time>
      </trkpt>
      <trkpt lat="45.22769" lon="6.45017">
        <ele>690</ele>
        <time>2018-02-17T08:23:15Z</time>
      </trkpt>
      <trkpt lat="45.22742" lon="6.45022">
        <ele>690</ele>
        <time>2018-02-17T08:24:15Z</time>
      </trkpt>
      <trkpt lat="45.22463" lon="6.45049">
        <ele>695</ele>
        <time>2018-02-17T08:25:15Z</time>
      </trkpt>
      <trkpt lat="45.22432" lon="6.45055">
        <ele>694</ele>
        <time>2018-02-17T08:26:15Z</time>
      </trkpt>
      <trkpt lat="45.22389" lon="6.4507">
        <ele>692</ele>
        <time>2018-02-17T08:27:15Z</time>
      </trkpt>
      <trkpt lat="45.22338" lon="6.45095">
        <ele>692</ele>
        <time>2018-02-17T08:28:15Z</time>
      </trkpt>
      <trkpt lat="45.22315" lon="6.45111">
        <ele>696</ele>
        <time>2018-02-17T08:29:15Z</time>
      </trkpt>
      <trkpt lat="45.22296" lon="6.45134">
        <ele>700</ele>
        <time>2018-02-17T08:30:15Z</time>
      </trkpt>
      <trkpt lat="45.22282" lon="6.45161">
        <ele>702</ele>
        <time>2018-02-17T08:31:15Z</time>
      </trkpt>
      <trkpt lat="45.22255" lon="6.45239">
        <ele>705</ele>
        <time>2018-02-17T08:32:15Z</time>
      </trkpt>
      <trkpt lat="45.22232" lon="6.45288">
        <ele>702</ele>
        <time>2018-02-17T08:33:15Z</time>
      </trkpt>
      <trkpt lat="45.22151" lon="6.45423">
        <ele>698</ele>
        <time>2018-02-17T08:34:15Z</time>
      </trkpt>
      <trkpt lat="45.22139" lon="6.45443">
        <ele>707</ele>
        <time>2018-02-17T08:35:15Z</time>
      </trkpt>
      <trkpt lat="45.22116" lon="6.45493">
        <ele>719</ele>
        <time>2018-02-17T08:36:15Z</time>
      </trkpt>
      <trkpt lat="45.22096" lon="6.45552">
        <ele>716</ele>
        <time>2018-02-17T08:37:15Z</time>
      </trkpt>
      <trkpt lat="45.22088" lon="6.45589">
        <ele>713</ele>
        <time>2018-02-17T08:38:15Z</time>
      </trkpt>
      <trkpt lat="45.2208" lon="6.4564">
        <ele>703</ele>
        <time>2018-02-17T08:39:15Z</time>
      </trkpt>
      <trkpt lat="45.22046" lon="6.45985">
        <ele>699</ele>
        <time>2018-02-17T08:40:15Z</time>
      </trkpt>
      <trkpt lat="45.22048" lon="6.46044">
        <ele>699</ele>
        <time>2018-02-17T08:41:15Z</time>
      </trkpt>
      <trkpt lat="45.22042" lon="6.46048">
        <ele>699</ele>
        <time>2018-02-17T08:42:15Z</time>
      </trkpt>
      <trkpt lat="45.22038" lon="6.46056">
        <ele>699</ele>
        <time>2018-02-17T08:43:15Z</time>
      </trkpt>
      <trkpt lat="45.22038" lon="6.46065">
        <ele>699</ele>
        <time>2018-02-17T08:44:15Z</time>
      </trkpt>
      <trkpt lat="45.22043" lon="6.46075">
        <ele>699</ele>
        <time>2018-02-17T08:45:15Z</time>
      </trkpt>
      <trkpt lat="45.22032" lon="6.46104">
        <ele>699</ele>
        <time>2018-02-17T08:46:15Z</time>
      </trkpt>
      <trkpt lat="45.22008" lon="6.46244">
        <ele>702</ele>
        <time>2018-02-17T08:47:15Z</time>
      </trkpt>
      <trkpt lat="45.21987" lon="6.46469">
        <ele>705</ele>
        <time>2018-02-17T08:48:15Z</time>
      </trkpt>
      <trkpt lat="45.21978" lon="6.4647">
        <ele>705</ele>
        <time>2018-02-17T08:49:15Z</time>
      </trkpt>
      <trkpt lat="45.21971" lon="6.46482">
        <ele>705</ele>
        <time>2018-02-17T08:50:15Z</time>
      </trkpt>
      <trkpt lat="45.21971" lon="6.46493">
        <ele>705</ele>
        <time>2018-02-17T08:51:15Z</time>
      </trkpt>
      <trkpt lat="45.21975" lon="6.46501">
        <ele>705</ele>
        <time>2018-02-17T08:52:15Z</time>
      </trkpt>
      <trkpt lat="45.21982" lon="6.46506">
        <ele>706</ele>
        <time>2018-02-17T08:53:15Z</time>
      </trkpt>
      <trkpt lat="45.21974" lon="6.46561">
        <ele>705</ele>
        <time>2018-02-17T08:54:15Z</time>
      </trkpt>
      <trkpt lat="45.21951" lon="6.46793">
        <ele>706</ele>
        <time>2018-02-17T08:55:15Z</time>
      </trkpt>
      <trkpt lat="45.2194" lon="6.46893">
        <ele>710</ele>
        <time>2018-02-17T08:56:15Z</time>
      </trkpt>
      <trkpt lat="45.21935" lon="6.46908">
        <ele>710</ele>
        <time>2018-02-17T08:57:15Z</time>
      </trkpt>
      <trkpt lat="45.21913" lon="6.46943">
        <ele>709</ele>
        <time>2018-02-17T08:58:15Z</time>
      </trkpt>
      <trkpt lat="45.21795" lon="6.47116">
        <ele>711</ele>
        <time>2018-02-17T08:59:15Z</time>
      </trkpt>
      <trkpt lat="45.21777" lon="6.47134">
        <ele>711</ele>
        <time>2018-02-17T09:00:15Z</time>
      </trkpt>
      <trkpt lat="45.21771" lon="6.47147">
        <ele>711</ele>
        <time>2018-02-17T09:01:15Z</time>
      </trkpt>
      <trkpt lat="45.21708" lon="6.47243">
        <ele>713</ele>
        <time>2018-02-17T09:02:15Z</time>
      </trkpt>
      <trkpt lat="45.21643" lon="6.47352">
        <ele>714</ele>
        <time>2018-02-17T09:03:15Z</time>
      </trkpt>
      <trkpt lat="45.21567" lon="6.47494">
        <ele>718</ele>
        <time>2018-02-17T09:04:15Z</time>
      </trkpt>
      <trkpt lat="45.21536" lon="6.47461">
        <ele>716</ele>
        <time>2018-02-17T09:05:15Z</time>
      </trkpt>
      <trkpt lat="45.2149" lon="6.47385">
        <ele>715</ele>
        <time>2018-02-17T09:06:15Z</time>
      </trkpt>
      <trkpt lat="45.21463" lon="6.47348">
        <ele>719</ele>
        <time>2018-02-17T09:07:15Z</time>
      </trkpt>
      <trkpt lat="45.21443" lon="6.47317">
        <ele>723</ele>
        <time>2018-02-17T09:08:15Z</time>
      </trkpt>
      <trkpt lat="45.21421" lon="6.47292">
        <ele>726</ele>
        <time>2018-02-17T09:09:15Z</time>
      </trkpt>
      <trkpt lat="45.21391" lon="6.47263">
        <ele>732</ele>
        <time>2018-02-17T09:10:15Z</time>
      </trkpt>
      <trkpt lat="45.21382" lon="6.4725">
        <ele>733</ele>
        <time>2018-02-17T09:11:15Z</time>
      </trkpt>
      <trkpt lat="45.21359" lon="6.47187">
        <ele>733</ele>
        <time>2018-02-17T09:12:15Z</time>
      </trkpt>
      <trkpt lat="45.21353" lon="6.47167">
        <ele>733</ele>
        <time>2018-02-17T09:13:15Z</time>
      </trkpt>
      <trkpt lat="45.21331" lon="6.47084">
        <ele>735</ele>
        <time>2018-02-17T09:14:15Z</time>
      </trkpt>
      <trkpt lat="45.21329" lon="6.47058">
        <ele>739</ele>
        <time>2018-02-17T09:15:15Z</time>
      </trkpt>
      <trkpt lat="45.21325" lon="6.47054">
        <ele>740</ele>
        <time>2018-02-17T09:16:15Z</time>
      </trkpt>
      <trkpt lat="45.2132" lon="6.47044">
        <ele>741</ele>
        <time>2018-02-17T09:17:15Z</time>
      </trkpt>
      <trkpt lat="45.21313" lon="6.47027">
        <ele>744</ele>
        <time>2018-02-17T09:18:15Z</time>
      </trkpt>
      <trkpt lat="45.21308" lon="6.47007">
        <ele>746</ele>
        <time>2018-02-17T09:19:15Z</time>
      </trkpt>
      <trkpt lat="45.21305" lon="6.4698">
        <ele>749</ele>
        <time>2018-02-17T09:20:15Z</time>
      </trkpt>
      <trkpt lat="45.21304" lon="6.46955">
        <ele>752</ele>
        <time>2018-02-17T09:21:15Z</time>
      </trkpt>
      <trkpt lat="45.21307" lon="6.46908">
        <ele>756</ele>
        <time>2018-02-17T09:22:15Z</time>
      </trkpt>
      <trkpt lat="45.21304" lon="6.46867">
        <ele>761</ele>
        <time>2018-02-17T09:23:15Z</time>
      </trkpt>
      <trkpt lat="45.213" lon="6.46845">
        <ele>763</ele>
        <time>2018-02-17T09:24:15Z</time>
      </trkpt>
      <trkpt lat="45.21288" lon="6.46801">
        <ele>765</ele>
        <time>2018-02-17T09:25:15Z</time>
      </trkpt>
      <trkpt lat="45.21283" lon="6.46789">
        <ele>766</ele>
        <time>2018-02-17T09:26:15Z</time>
      </trkpt>
      <trkpt lat="45.21272" lon="6.4678">
        <ele>767</ele>
        <time>2018-02-17T09:27:15Z</time>
      </trkpt>
      <trkpt lat="45.21242" lon="6.46777">
        <ele>772</ele>
        <time>2018-02-17T09:28:15Z</time>
      </trkpt>
      <trkpt lat="45.21227" lon="6.4677">
        <ele>776</ele>
        <time>2018-02-17T09:29:15Z</time>
      </trkpt>
      <trkpt lat="45.21216" lon="6.46774">
        <ele>779</ele>
        <time>2018-02-17T09:30:15Z</time>
      </trkpt>
      <trkpt lat="45.21205" lon="6.46785">
        <ele>782</ele>
        <time>2018-02-17T09:31:15Z</time>
      </trkpt>
      <trkpt lat="45.21201" lon="6.46752">
        <ele>784</ele>
        <time>2018-02-17T09:32:15Z</time>
      </trkpt>
      <trkpt lat="45.21196" lon="6.46748">
        <ele>785</ele>
        <time>2018-02-17T09:33:15Z</time>
      </trkpt>
      <trkpt lat="45.21191" lon="6.46749">
        <ele>787</ele>
        <time>2018-02-17T09:34:15Z</time>
      </trkpt>
      <trkpt lat="45.21193" lon="6.46759">
        <ele>786</ele>
        <time>2018-02-17T09:35:15Z</time>
      </trkpt>
      <trkpt lat="45.21192" lon="6.46767">
        <ele>786</ele>
        <time>2018-02-17T09:36:15Z</time>
      </trkpt>
      <trkpt lat="45.21176" lon="6.468">
        <ele>790</ele>
        <time>2018-02-17T09:37:15Z</time>
      </trkpt>
      <trkpt lat="45.2115" lon="6.46836">
        <ele>795</ele>
        <time>2018-02-17T09:38:15Z</time>
      </trkpt>
      <trkpt lat="45.21127" lon="6.46862">
        <ele>797</ele>
        <time>2018-02-17T09:39:15Z</time>
      </trkpt>
      <trkpt lat="45.21106" lon="6.46881">
        <ele>800</ele>
        <time>2018-02-17T09:40:15Z</time>
      </trkpt>
      <trkpt lat="45.21029" lon="6.46927">
        <ele>812</ele>
        <time>2018-02-17T09:41:15Z</time>
      </trkpt>
      <trkpt lat="45.21019" lon="6.46936">
        <ele>812</ele>
        <time>2018-02-17T09:42:15Z</time>
      </trkpt>
      <trkpt lat="45.21005" lon="6.46956">
        <ele>811</ele>
        <time>2018-02-17T09:43:15Z</time>
      </trkpt>
      <trkpt lat="45.20997" lon="6.4696">
        <ele>811</ele>
        <time>2018-02-17T09:44:15Z</time>
      </trkpt>
      <trkpt lat="45.20991" lon="6.46957">
        <ele>814</ele>
        <time>2018-02-17T09:45:15Z</time>
      </trkpt>
      <trkpt lat="45.20988" lon="6.46952">
        <ele>816</ele>
        <time>2018-02-17T09:46:15Z</time>
      </trkpt>
      <trkpt lat="45.20987" lon="6.46936">
        <ele>819</ele>
        <time>2018-02-17T09:47:15Z</time>
      </trkpt>
      <trkpt lat="45.20994" lon="6.46918">
        <ele>821</ele>
        <time>2018-02-17T09:48:15Z</time>
      </trkpt>
      <trkpt lat="45.21004" lon="6.46882">
        <ele>824</ele>
        <time>2018-02-17T09:49:15Z</time>
      </trkpt>
      <trkpt lat="45.21019" lon="6.46817">
        <ele>829</ele>
        <time>2018-02-17T09:50:15Z</time>
      </trkpt>
      <trkpt lat="45.21021" lon="6.4678">
        <ele>832</ele>
        <time>2018-02-17T09:51:15Z</time>
      </trkpt>
      <trkpt lat="45.21018" lon="6.46746">
        <ele>835</ele>
        <time>2018-02-17T09:52:15Z</time>
      </trkpt>
      <trkpt lat="45.2102" lon="6.46727">
        <ele>835</ele>
        <time>2018-02-17T09:53:15Z</time>
      </trkpt>
      <trkpt lat="45.21025" lon="6.46701">
        <ele>834</ele>
        <time>2018-02-17T09:54:15Z</time>
      </trkpt>
      <trkpt lat="45.21023" lon="6.4669">
        <ele>835</ele>
        <time>2018-02-17T09:55:15Z</time>
      </trkpt>
      <trkpt lat="45.21015" lon="6.46682">
        <ele>838</ele>
        <time>2018-02-17T09:56:15Z</time>
      </trkpt>
      <trkpt lat="45.2101" lon="6.46682">
        <ele>840</ele>
        <time>2018-02-17T09:57:15Z</time>
      </trkpt>
      <trkpt lat="45.21005" lon="6.46685">
        <ele>842</ele>
        <time>2018-02-17T09:58:15Z</time>
      </trkpt>
      <trkpt lat="45.21002" lon="6.46691">
        <ele>842</ele>
        <time>2018-02-17T09:59:15Z</time>
      </trkpt>
      <trkpt lat="45.21001" lon="6.46713">
        <ele>842</ele>
        <time>2018-02-17T10:00:15Z</time>
      </trkpt>
      <trkpt lat="45.20995" lon="6.46742">
        <ele>843</ele>
        <time>2018-02-17T10:01:15Z</time>
      </trkpt>
      <trkpt lat="45.20988" lon="6.46779">
        <ele>842</ele>
        <time>2018-02-17T10:02:15Z</time>
      </trkpt>
      <trkpt lat="45.20981" lon="6.46801">
        <ele>842</ele>
        <time>2018-02-17T10:03:15Z</time>
      </trkpt>
      <trkpt lat="45.20969" lon="6.46823">
        <ele>843</ele>
        <time>2018-02-17T10:04:15Z</time>
      </trkpt>
      <trkpt lat="45.2095" lon="6.46846">
        <ele>846</ele>
        <time>2018-02-17T10:05:15Z</time>
      </trkpt>
      <trkpt lat="45.20926" lon="6.46862">
        <ele>850</ele>
        <time>2018-02-17T10:06:15Z</time>
      </trkpt>
      <trkpt lat="45.20863" lon="6.46887">
        <ele>860</ele>
        <time>2018-02-17T10:07:15Z</time>
      </trkpt>
      <trkpt lat="45.20826" lon="6.4691">
        <ele>863</ele>
        <time>2018-02-17T10:08:15Z</time>
      </trkpt>
      <trkpt lat="45.20799" lon="6.46936">
        <ele>864</ele>
        <time>2018-02-17T10:09:15Z</time>
      </trkpt>
      <trkpt lat="45.2079" lon="6.4694">
        <ele>865</ele>
        <time>2018-02-17T10:10:15Z</time>
      </trkpt>
      <trkpt lat="45.20784" lon="6.46939">
        <ele>867</ele>
        <time>2018-02-17T10:11:15Z</time>
      </trkpt>
      <trkpt lat="45.20778" lon="6.46933">
        <ele>870</ele>
        <time>2018-02-17T10:12:15Z</time>
      </trkpt>
      <trkpt lat="45.20776" lon="6.46924">
        <ele>873</ele>
        <time>2018-02-17T10:13:15Z</time>
      </trkpt>
      <trkpt lat="45.20777" lon="6.46912">
        <ele>875</ele>
        <time>2018-02-17T10:14:15Z</time>
      </trkpt>
      <trkpt lat="45.20786" lon="6.46899">
        <ele>876</ele>
        <time>2018-02-17T10:15:15Z</time>
      </trkpt>
      <trkpt lat="45.20825" lon="6.4686">
        <ele>875</ele>
        <time>2018-02-17T10:16:15Z</time>
      </trkpt>
      <trkpt lat="45.20855" lon="6.46825">
        <ele>875</ele>
        <time>2018-02-17T10:17:15Z</time>
      </trkpt>
      <trkpt lat="45.2086" lon="6.46812">
        <ele>876</ele>
        <time>2018-02-17T10:18:15Z</time>
      </trkpt>
      <trkpt lat="45.20865" lon="6.4679">
        <ele>879</ele>
        <time>2018-02-17T10:19:15Z</time>
      </trkpt>
      <trkpt lat="45.20874" lon="6.4677">
        <ele>880</ele>
        <time>2018-02-17T10:20:15Z</time>
      </trkpt>
      <trkpt lat="45.20886" lon="6.46745">
        <ele>880</ele>
        <time>2018-02-17T10:21:15Z</time>
      </trkpt>
      <trkpt lat="45.20892" lon="6.46729">
        <ele>880</ele>
        <time>2018-02-17T10:22:15Z</time>
      </trkpt>
      <trkpt lat="45.20892" lon="6.46718">
        <ele>881</ele>
        <time>2018-02-17T10:23:15Z</time>
      </trkpt>
      <trkpt lat="45.20888" lon="6.46694">
        <ele>885</ele>
        <time>2018-02-17T10:24:15Z</time>
      </trkpt>
      <trkpt lat="45.20881" lon="6.46672">
        <ele>890</ele>
        <time>2018-02-17T10:25:15Z</time>
      </trkpt>
      <trkpt lat="45.20877" lon="6.4665">
        <ele>894</ele>
        <time>2018-02-17T10:26:15Z</time>
      </trkpt>
      <trkpt lat="45.20876" lon="6.46625">
        <ele>895</ele>
        <time>2018-02-17T10:27:15Z</time>
      </trkpt>
      <trkpt lat="45.20878" lon="6.46576">
        <ele>896</ele>
        <time>2018-02-17T10:28:15Z</time>
      </trkpt>
      <trkpt lat="45.20869" lon="6.46516">
        <ele>899</ele>
        <time>2018-02-17T10:29:15Z</time>
      </trkpt>
      <trkpt lat="45.20869" lon="6.46447">
        <ele>900</ele>
        <time>2018-02-17T10:30:15Z</time>
      </trkpt>
      <trkpt lat="45.20866" lon="6.46432">
        <ele>901</ele>
        <time>2018-02-17T10:31:15Z</time>
      </trkpt>
      <trkpt lat="45.20861" lon="6.46423">
        <ele>902</ele>
        <time>2018-02-17T10:32:15Z</time>
      </trkpt>
      <trkpt lat="45.2085" lon="6.4641">
        <ele>904</ele>
        <time>2018-02-17T10:33:15Z</time>
      </trkpt>
      <trkpt lat="45.20813" lon="6.46396">
        <ele>914</ele>
        <time>2018-02-17T10:34:15Z</time>
      </trkpt>
      <trkpt lat="45.20795" lon="6.46386">
        <ele>921</ele>
        <time>2018-02-17T10:35:15Z</time>
      </trkpt>
      <trkpt lat="45.20789" lon="6.46378">
        <ele>924</ele>
        <time>2018-02-17T10:36:15Z</time>
      </trkpt>
      <trkpt lat="45.20787" lon="6.46371">
        <ele>925</ele>
        <time>2018-02-17T10:37:15Z</time>
      </trkpt>
      <trkpt lat="45.20786" lon="6.4636">
        <ele>926</ele>
        <time>2018-02-17T10:38:15Z</time>
      </trkpt>
      <trkpt lat="45.20787" lon="6.46349">
        <ele>926</ele>
        <time>2018-02-17T10:39:15Z</time>
      </trkpt>
      <trkpt lat="45.20792" lon="6.46334">
        <ele>924</ele>
        <time>2018-02-17T10:40:15Z</time>
      </trkpt>
      <trkpt lat="45.20801" lon="6.46289">
        <ele>924</ele>
        <time>2018-02-17T10:41:15Z</time>
      </trkpt>
      <trkpt lat="45.20804" lon="6.46259">
        <ele>925</ele>
        <time>2018-02-17T10:42:15Z</time>
      </trkpt>
      <trkpt lat="45.20802" lon="6.46218">
        <ele>925</ele>
        <time>2018-02-17T10:43:15Z</time>
      </trkpt>
      <trkpt lat="45.20796" lon="6.46196">
        <ele>928</ele>
        <time>2018-02-17T10:44:15Z</time>
      </trkpt>
      <trkpt lat="45.20785" lon="6.46173">
        <ele>934</ele>
        <time>2018-02-17T10:45:15Z</time>
      </trkpt>
      <trkpt lat="45.20777" lon="6.46151">
        <ele>938</ele>
        <time>2018-02-17T10:46:15Z</time>
      </trkpt>
      <trkpt lat="45.20773" lon="6.46121">
        <ele>938</ele>
        <time>2018-02-17T10:47:15Z</time>
      </trkpt>
      <trkpt lat="45.20761" lon="6.46075">
        <ele>940</ele>
        <time>2018-02-17T10:48:15Z</time>
      </trkpt>
      <trkpt lat="45.20753" lon="6.46036">
        <ele>941</ele>
        <time>2018-02-17T10:49:15Z</time>
      </trkpt>
      <trkpt lat="45.20748" lon="6.46023">
        <ele>942</ele>
        <time>2018-02-17T10:50:15Z</time>
      </trkpt>
      <trkpt lat="45.20742" lon="6.46012">
        <ele>944</ele>
        <time>2018-02-17T10:51:15Z</time>
      </trkpt>
      <trkpt lat="45.20722" lon="6.45985">
        <ele>954</ele>
        <time>2018-02-17T10:52:15Z</time>
      </trkpt>
      <trkpt lat="45.20715" lon="6.45968">
        <ele>958</ele>
        <time>2018-02-17T10:53:15Z</time>
      </trkpt>
      <trkpt lat="45.20714" lon="6.45959">
        <ele>958</ele>
        <time>2018-02-17T10:54:15Z</time>
      </trkpt>
      <trkpt lat="45.20716" lon="6.45944">
        <ele>958</ele>
        <time>2018-02-17T10:55:15Z</time>
      </trkpt>
      <trkpt lat="45.20768" lon="6.45811">
        <ele>960</ele>
        <time>2018-02-17T10:56:15Z</time>
      </trkpt>
      <trkpt lat="45.20775" lon="6.45801">
        <ele>961</ele>
        <time>2018-02-17T10:57:15Z</time>
      </trkpt>
      <trkpt lat="45.20782" lon="6.45796">
        <ele>962</ele>
        <time>2018-02-17T10:58:15Z</time>
      </trkpt>
      <trkpt lat="45.20788" lon="6.45795">
        <ele>961</ele>
        <time>2018-02-17T10:59:15Z</time>
      </trkpt>
      <trkpt lat="45.20835" lon="6.45795">
        <ele>957</ele>
        <time>2018-02-17T11:00:15Z</time>
      </trkpt>
      <trkpt lat="45.20869" lon="6.45782">
        <ele>962</ele>
        <time>2018-02-17T11:01:15Z</time>
      </trkpt>
      <trkpt lat="45.20917" lon="6.45789">
        <ele>962</ele>
        <time>2018-02-17T11:02:15Z</time>
      </trkpt>
      <trkpt lat="45.20927" lon="6.45785">
        <ele>963</ele>
        <time>2018-02-17T11:03:15Z</time>
      </trkpt>
      <trkpt lat="45.20936" lon="6.4578">
        <ele>965</ele>
        <time>2018-02-17T11:04:15Z</time>
      </trkpt>
      <trkpt lat="45.20963" lon="6.45756">
        <ele>973</ele>
        <time>2018-02-17T11:05:15Z</time>
      </trkpt>
      <trkpt lat="45.20974" lon="6.45748">
        <ele>976</ele>
        <time>2018-02-17T11:06:15Z</time>
      </trkpt>
      <trkpt lat="45.20987" lon="6.45745">
        <ele>977</ele>
        <time>2018-02-17T11:07:15Z</time>
      </trkpt>
      <trkpt lat="45.21028" lon="6.45747">
        <ele>975</ele>
        <time>2018-02-17T11:08:15Z</time>
      </trkpt>
      <trkpt lat="45.21036" lon="6.4575">
        <ele>974</ele>
        <time>2018-02-17T11:09:15Z</time>
      </trkpt>
      <trkpt lat="45.21062" lon="6.45768">
        <ele>969</ele>
        <time>2018-02-17T11:10:15Z</time>
      </trkpt>
      <trkpt lat="45.21065" lon="6.45769">
        <ele>969</ele>
        <time>2018-02-17T11:11:15Z</time>
      </trkpt>
      <trkpt lat="45.21072" lon="6.45765">
        <ele>970</ele>
        <time>2018-02-17T11:12:15Z</time>
      </trkpt>
      <trkpt lat="45.21074" lon="6.45759">
        <ele>970</ele>
        <time>2018-02-17T11:13:15Z</time>
      </trkpt>
      <trkpt lat="45.21072" lon="6.45747">
        <ele>972</ele>
        <time>2018-02-17T11:14:15Z</time>
      </trkpt>
      <trkpt lat="45.21041" lon="6.457">
        <ele>978</ele>
        <time>2018-02-17T11:15:15Z</time>
      </trkpt>
      <trkpt lat="45.21013" lon="6.45641">
        <ele>990</ele>
        <time>2018-02-17T11:16:15Z</time>
      </trkpt>
      <trkpt lat="45.21007" lon="6.4562">
        <ele>993</ele>
        <time>2018-02-17T11:17:15Z</time>
      </trkpt>
      <trkpt lat="45.21004" lon="6.4559">
        <ele>996</ele>
        <time>2018-02-17T11:18:15Z</time>
      </trkpt>
      <trkpt lat="45.21004" lon="6.45569">
        <ele>998</ele>
        <time>2018-02-17T11:19:15Z</time>
      </trkpt>
      <trkpt lat="45.21007" lon="6.45547">
        <ele>1000</ele>
        <time>2018-02-17T11:20:15Z</time>
      </trkpt>
      <trkpt lat="45.21039" lon="6.45474">
        <ele>1005</ele>
        <time>2018-02-17T11:21:15Z</time>
      </trkpt>
      <trkpt lat="45.21042" lon="6.45465">
        <ele>1007</ele>
        <time>2018-02-17T11:22:15Z</time>
      </trkpt>
      <trkpt lat="45.21042" lon="6.45455">
        <ele>1010</ele>
        <time>2018-02-17T11:23:15Z</time>
      </trkpt>
      <trkpt lat="45.21039" lon="6.45449">
        <ele>1012</ele>
        <time>2018-02-17T11:24:15Z</time>
      </trkpt>
      <trkpt lat="45.21032" lon="6.45445">
        <ele>1014</ele>
        <time>2018-02-17T11:25:15Z</time>
      </trkpt>
      <trkpt lat="45.21026" lon="6.45446">
        <ele>1015</ele>
        <time>2018-02-17T11:26:15Z</time>
      </trkpt>
      <trkpt lat="45.21019" lon="6.45453">
        <ele>1015</ele>
        <time>2018-02-17T11:27:15Z</time>
      </trkpt>
      <trkpt lat="45.21006" lon="6.4548">
        <ele>1010</ele>
        <time>2018-02-17T11:28:15Z</time>
      </trkpt>
      <trkpt lat="45.20975" lon="6.45509">
        <ele>1012</ele>
        <time>2018-02-17T11:29:15Z</time>
      </trkpt>
      <trkpt lat="45.20966" lon="6.45524">
        <ele>1013</ele>
        <time>2018-02-17T11:30:15Z</time>
      </trkpt>
      <trkpt lat="45.20958" lon="6.45545">
        <ele>1012</ele>
        <time>2018-02-17T11:31:15Z</time>
      </trkpt>
      <trkpt lat="45.2095" lon="6.45586">
        <ele>1009</ele>
        <time>2018-02-17T11:32:15Z</time>
      </trkpt>
      <trkpt lat="45.20944" lon="6.45601">
        <ele>1008</ele>
        <time>2018-02-17T11:33:15Z</time>
      </trkpt>
      <trkpt lat="45.20938" lon="6.45609">
        <ele>1008</ele>
        <time>2018-02-17T11:34:15Z</time>
      </trkpt>
      <trkpt lat="45.20929" lon="6.45612">
        <ele>1009</ele>
        <time>2018-02-17T11:35:15Z</time>
      </trkpt>
      <trkpt lat="45.20917" lon="6.45611">
        <ele>1011</ele>
        <time>2018-02-17T11:36:15Z</time>
      </trkpt>
      <trkpt lat="45.20907" lon="6.45607">
        <ele>1011</ele>
        <time>2018-02-17T11:37:15Z</time>
      </trkpt>
      <trkpt lat="45.20897" lon="6.456">
        <ele>1010</ele>
        <time>2018-02-17T11:38:15Z</time>
      </trkpt>
      <trkpt lat="45.2089" lon="6.45587">
        <ele>1012</ele>
        <time>2018-02-17T11:39:15Z</time>
      </trkpt>
      <trkpt lat="45.20882" lon="6.45566">
        <ele>1014</ele>
        <time>2018-02-17T11:40:15Z</time>
      </trkpt>
      <trkpt lat="45.20878" lon="6.45544">
        <ele>1017</ele>
        <time>2018-02-17T11:41:15Z</time>
      </trkpt>
      <trkpt lat="45.20868" lon="6.4552">
        <ele>1021</ele>
        <time>2018-02-17T11:42:15Z</time>
      </trkpt>
      <trkpt lat="45.20811" lon="6.45408">
        <ele>1040</ele>
        <time>2018-02-17T11:43:15Z</time>
      </trkpt>
      <trkpt lat="45.20798" lon="6.45376">
        <ele>1048</ele>
        <time>2018-02-17T11:44:15Z</time>
      </trkpt>
      <trkpt lat="45.20785" lon="6.45357">
        <ele>1051</ele>
        <time>2018-02-17T11:45:15Z</time>
      </trkpt>
      <trkpt lat="45.20775" lon="6.45347">
        <ele>1052</ele>
        <time>2018-02-17T11:46:15Z</time>
      </trkpt>
      <trkpt lat="45.20761" lon="6.45339">
        <ele>1052</ele>
        <time>2018-02-17T11:47:15Z</time>
      </trkpt>
      <trkpt lat="45.20748" lon="6.45335">
        <ele>1051</ele>
        <time>2018-02-17T11:48:15Z</time>
      </trkpt>
      <trkpt lat="45.20654" lon="6.4534">
        <ele>1056</ele>
        <time>2018-02-17T11:49:15Z</time>
      </trkpt>
      <trkpt lat="45.20636" lon="6.45337">
        <ele>1058</ele>
        <time>2018-02-17T11:50:15Z</time>
      </trkpt>
      <trkpt lat="45.20591" lon="6.45325">
        <ele>1063</ele>
        <time>2018-02-17T11:51:15Z</time>
      </trkpt>
      <trkpt lat="45.20556" lon="6.45319">
        <ele>1069</ele>
        <time>2018-02-17T11:52:15Z</time>
      </trkpt>
      <trkpt lat="45.20402" lon="6.45319">
        <ele>1094</ele>
        <time>2018-02-17T11:53:15Z</time>
      </trkpt>
      <trkpt lat="45.20383" lon="6.45332">
        <ele>1096</ele>
        <time>2018-02-17T11:54:15Z</time>
      </trkpt>
      <trkpt lat="45.20371" lon="6.45355">
        <ele>1096</ele>
        <time>2018-02-17T11:55:15Z</time>
      </trkpt>
      <trkpt lat="45.20366" lon="6.45383">
        <ele>1094</ele>
        <time>2018-02-17T11:56:15Z</time>
      </trkpt>
      <trkpt lat="45.2035" lon="6.45442">
        <ele>1091</ele>
        <time>2018-02-17T11:57:15Z</time>
      </trkpt>
      <trkpt lat="45.20328" lon="6.45483">
        <ele>1091</ele>
        <time>2018-02-17T11:58:15Z</time>
      </trkpt>
      <trkpt lat="45.20282" lon="6.45518">
        <ele>1099</ele>
        <time>2018-02-17T11:59:15Z</time>
      </trkpt>
      <trkpt lat="45.20271" lon="6.4553">
        <ele>1101</ele>
        <time>2018-02-17T12:00:15Z</time>
      </trkpt>
      <trkpt lat="45.20253" lon="6.45551">
        <ele>1104</ele>
        <time>2018-02-17T12:01:15Z</time>
      </trkpt>
      <trkpt lat="45.20235" lon="6.4555">
        <ele>1112</ele>
        <time>2018-02-17T12:02:15Z</time>
      </trkpt>
      <trkpt lat="45.20231" lon="6.45546">
        <ele>1114</ele>
        <time>2018-02-17T12:03:15Z</time>
      </trkpt>
      <trkpt lat="45.2023" lon="6.45538">
        <ele>1115</ele>
        <time>2018-02-17T12:04:15Z</time>
      </trkpt>
      <trkpt lat="45.20231" lon="6.45529">
        <ele>1115</ele>
        <time>2018-02-17T12:05:15Z</time>
      </trkpt>
      <trkpt lat="45.20238" lon="6.45515">
        <ele>1112</ele>
        <time>2018-02-17T12:06:15Z</time>
      </trkpt>
      <trkpt lat="45.2027" lon="6.45472">
        <ele>1107</ele>
        <time>2018-02-17T12:07:15Z</time>
      </trkpt>
      <trkpt lat="45.20302" lon="6.45436">
        <ele>1103</ele>
        <time>2018-02-17T12:08:15Z</time>
      </trkpt>
      <trkpt lat="45.20307" lon="6.45427">
        <ele>1103</ele>
        <time>2018-02-17T12:09:15Z</time>
      </trkpt>
      <trkpt lat="45.20309" lon="6.45419">
        <ele>1104</ele>
        <time>2018-02-17T12:10:15Z</time>
      </trkpt>
      <trkpt lat="45.20309" lon="6.45411">
        <ele>1105</ele>
        <time>2018-02-17T12:11:15Z</time>
      </trkpt>
      <trkpt lat="45.20306" lon="6.45406">
        <ele>1107</ele>
        <time>2018-02-17T12:12:15Z</time>
      </trkpt>
      <trkpt lat="45.20302" lon="6.45402">
        <ele>1108</ele>
        <time>2018-02-17T12:13:15Z</time>
      </trkpt>
      <trkpt lat="45.20294" lon="6.45401">
        <ele>1110</ele>
        <time>2018-02-17T12:14:15Z</time>
      </trkpt>
      <trkpt lat="45.20286" lon="6.45406">
        <ele>1112</ele>
        <time>2018-02-17T12:15:15Z</time>
      </trkpt>
      <trkpt lat="45.20267" lon="6.45433">
        <ele>1113</ele>
        <time>2018-02-17T12:16:15Z</time>
      </trkpt>
      <trkpt lat="45.20247" lon="6.45457">
        <ele>1115</ele>
        <time>2018-02-17T12:17:15Z</time>
      </trkpt>
      <trkpt lat="45.20234" lon="6.45465">
        <ele>1119</ele>
        <time>2018-02-17T12:18:15Z</time>
      </trkpt>
      <trkpt lat="45.20198" lon="6.4548">
        <ele>1131</ele>
        <time>2018-02-17T12:19:15Z</time>
      </trkpt>
      <trkpt lat="45.20186" lon="6.45489">
        <ele>1135</ele>
        <time>2018-02-17T12:20:15Z</time>
      </trkpt>
      <trkpt lat="45.2018" lon="6.45504">
        <ele>1137</ele>
        <time>2018-02-17T12:21:15Z</time>
      </trkpt>
      <trkpt lat="45.20179" lon="6.45527">
        <ele>1138</ele>
        <time>2018-02-17T12:22:15Z</time>
      </trkpt>
      <trkpt lat="45.20185" lon="6.45559">
        <ele>1135</ele>
        <time>2018-02-17T12:23:15Z</time>
      </trkpt>
      <trkpt lat="45.20192" lon="6.45581">
        <ele>1132</ele>
        <time>2018-02-17T12:24:15Z</time>
      </trkpt>
      <trkpt lat="45.20202" lon="6.45603">
        <ele>1126</ele>
        <time>2018-02-17T12:25:15Z</time>
      </trkpt>
      <trkpt lat="45.20202" lon="6.45617">
        <ele>1126</ele>
        <time>2018-02-17T12:26:15Z</time>
      </trkpt>
      <trkpt lat="45.20197" lon="6.4563">
        <ele>1128</ele>
        <time>2018-02-17T12:27:15Z</time>
      </trkpt>
      <trkpt lat="45.20189" lon="6.45636">
        <ele>1130</ele>
        <time>2018-02-17T12:28:15Z</time>
      </trkpt>
      <trkpt lat="45.20166" lon="6.4564">
        <ele>1139</ele>
        <time>2018-02-17T12:29:15Z</time>
      </trkpt>
      <trkpt lat="45.20138" lon="6.45639">
        <ele>1154</ele>
        <time>2018-02-17T12:30:15Z</time>
      </trkpt>
      <trkpt lat="45.20127" lon="6.45644">
        <ele>1159</ele>
        <time>2018-02-17T12:31:15Z</time>
      </trkpt>
      <trkpt lat="45.20122" lon="6.45654">
        <ele>1160</ele>
        <time>2018-02-17T12:32:15Z</time>
      </trkpt>
      <trkpt lat="45.2012" lon="6.45665">
        <ele>1159</ele>
        <time>2018-02-17T12:33:15Z</time>
      </trkpt>
      <trkpt lat="45.20125" lon="6.45682">
        <ele>1161</ele>
        <time>2018-02-17T12:34:15Z</time>
      </trkpt>
      <trkpt lat="45.20133" lon="6.45697">
        <ele>1161</ele>
        <time>2018-02-17T12:35:15Z</time>
      </trkpt>
      <trkpt lat="45.20158" lon="6.45727">
        <ele>1157</ele>
        <time>2018-02-17T12:36:15Z</time>
      </trkpt>
      <trkpt lat="45.20204" lon="6.45771">
        <ele>1151</ele>
        <time>2018-02-17T12:37:15Z</time>
      </trkpt>
      <trkpt lat="45.20227" lon="6.45803">
        <ele>1152</ele>
        <time>2018-02-17T12:38:15Z</time>
      </trkpt>
      <trkpt lat="45.20261" lon="6.45877">
        <ele>1159</ele>
        <time>2018-02-17T12:39:15Z</time>
      </trkpt>
      <trkpt lat="45.20289" lon="6.45924">
        <ele>1161</ele>
        <time>2018-02-17T12:40:15Z</time>
      </trkpt>
      <trkpt lat="45.20301" lon="6.45946">
        <ele>1159</ele>
        <time>2018-02-17T12:41:15Z</time>
      </trkpt>
      <trkpt lat="45.20313" lon="6.45976">
        <ele>1160</ele>
        <time>2018-02-17T12:42:15Z</time>
      </trkpt>
      <trkpt lat="45.20319" lon="6.46015">
        <ele>1165</ele>
        <time>2018-02-17T12:43:15Z</time>
      </trkpt>
      <trkpt lat="45.2032" lon="6.46047">
        <ele>1171</ele>
        <time>2018-02-17T12:44:15Z</time>
      </trkpt>
      <trkpt lat="45.20328" lon="6.4608">
        <ele>1174</ele>
        <time>2018-02-17T12:45:15Z</time>
      </trkpt>
      <trkpt lat="45.20345" lon="6.46131">
        <ele>1175</ele>
        <time>2018-02-17T12:46:15Z</time>
      </trkpt>
      <trkpt lat="45.20348" lon="6.46164">
        <ele>1178</ele>
        <time>2018-02-17T12:47:15Z</time>
      </trkpt>
      <trkpt lat="45.20355" lon="6.46271">
        <ele>1176</ele>
        <time>2018-02-17T12:48:15Z</time>
      </trkpt>
      <trkpt lat="45.20354" lon="6.46294">
        <ele>1173</ele>
        <time>2018-02-17T12:49:15Z</time>
      </trkpt>
      <trkpt lat="45.2035" lon="6.46306">
        <ele>1173</ele>
        <time>2018-02-17T12:50:15Z</time>
      </trkpt>
      <trkpt lat="45.20335" lon="6.46322">
        <ele>1180</ele>
        <time>2018-02-17T12:51:15Z</time>
      </trkpt>
      <trkpt lat="45.20312" lon="6.46333">
        <ele>1188</ele>
        <time>2018-02-17T12:52:15Z</time>
      </trkpt>
      <trkpt lat="45.20291" lon="6.46348">
        <ele>1192</ele>
        <time>2018-02-17T12:53:15Z</time>
      </trkpt>
      <trkpt lat="45.20277" lon="6.46361">
        <ele>1194</ele>
        <time>2018-02-17T12:54:15Z</time>
      </trkpt>
      <trkpt lat="45.20257" lon="6.46392">
        <ele>1193</ele>
        <time>2018-02-17T12:55:15Z</time>
      </trkpt>
      <trkpt lat="45.202" lon="6.46499">
        <ele>1203</ele>
        <time>2018-02-17T12:56:15Z</time>
      </trkpt>
      <trkpt lat="45.20189" lon="6.46532">
        <ele>1206</ele>
        <time>2018-02-17T12:57:15Z</time>
      </trkpt>
      <trkpt lat="45.20182" lon="6.4656">
        <ele>1208</ele>
        <time>2018-02-17T12:58:15Z</time>
      </trkpt>
      <trkpt lat="45.20172" lon="6.46622">
        <ele>1207</ele>
        <time>2018-02-17T12:59:15Z</time>
      </trkpt>
      <trkpt lat="45.20164" lon="6.46647">
        <ele>1208</ele>
        <time>2018-02-17T13:00:15Z</time>
      </trkpt>
      <trkpt lat="45.20154" lon="6.46667">
        <ele>1210</ele>
        <time>2018-02-17T13:01:15Z</time>
      </trkpt>
      <trkpt lat="45.20123" lon="6.46711">
        <ele>1209</ele>
        <time>2018-02-17T13:02:15Z</time>
      </trkpt>
      <trkpt lat="45.201" lon="6.46737">
        <ele>1210</ele>
        <time>2018-02-17T13:03:15Z</time>
      </trkpt>
      <trkpt lat="45.20085" lon="6.46747">
        <ele>1212</ele>
        <time>2018-02-17T13:04:15Z</time>
      </trkpt>
      <trkpt lat="45.20064" lon="6.46754">
        <ele>1215</ele>
        <time>2018-02-17T13:05:15Z</time>
      </trkpt>
      <trkpt lat="45.2003" lon="6.46759">
        <ele>1224</ele>
        <time>2018-02-17T13:06:15Z</time>
      </trkpt>
      <trkpt lat="45.19981" lon="6.46778">
        <ele>1229</ele>
        <time>2018-02-17T13:07:15Z</time>
      </trkpt>
      <trkpt lat="45.19953" lon="6.46792">
        <ele>1229</ele>
        <time>2018-02-17T13:08:15Z</time>
      </trkpt>
      <trkpt lat="45.19923" lon="6.46814">
        <ele>1228</ele>
        <time>2018-02-17T13:09:15Z</time>
      </trkpt>
      <trkpt lat="45.19914" lon="6.46818">
        <ele>1229</ele>
        <time>2018-02-17T13:10:15Z</time>
      </trkpt>
      <trkpt lat="45.199" lon="6.46817">
        <ele>1232</ele>
        <time>2018-02-17T13:11:15Z</time>
      </trkpt>
      <trkpt lat="45.19865" lon="6.46804">
        <ele>1243</ele>
        <time>2018-02-17T13:12:15Z</time>
      </trkpt>
      <trkpt lat="45.19855" lon="6.46804">
        <ele>1245</ele>
        <time>2018-02-17T13:13:15Z</time>
      </trkpt>
      <trkpt lat="45.19841" lon="6.46811">
        <ele>1245</ele>
        <time>2018-02-17T13:14:15Z</time>
      </trkpt>
      <trkpt lat="45.1983" lon="6.46825">
        <ele>1244</ele>
        <time>2018-02-17T13:15:15Z</time>
      </trkpt>
      <trkpt lat="45.19801" lon="6.46878">
        <ele>1245</ele>
        <time>2018-02-17T13:16:15Z</time>
      </trkpt>
      <trkpt lat="45.19795" lon="6.46897">
        <ele>1243</ele>
        <time>2018-02-17T13:17:15Z</time>
      </trkpt>
      <trkpt lat="45.19793" lon="6.46911">
        <ele>1241</ele>
        <time>2018-02-17T13:18:15Z</time>
      </trkpt>
      <trkpt lat="45.1979" lon="6.46946">
        <ele>1234</ele>
        <time>2018-02-17T13:19:15Z</time>
      </trkpt>
      <trkpt lat="45.19786" lon="6.46952">
        <ele>1234</ele>
        <time>2018-02-17T13:20:15Z</time>
      </trkpt>
      <trkpt lat="45.19775" lon="6.46956">
        <ele>1236</ele>
        <time>2018-02-17T13:21:15Z</time>
      </trkpt>
      <trkpt lat="45.1977" lon="6.46952">
        <ele>1238</ele>
        <time>2018-02-17T13:22:15Z</time>
      </trkpt>
      <trkpt lat="45.19768" lon="6.46945">
        <ele>1240</ele>
        <time>2018-02-17T13:23:15Z</time>
      </trkpt>
      <trkpt lat="45.19767" lon="6.46936">
        <ele>1243</ele>
        <time>2018-02-17T13:24:15Z</time>
      </trkpt>
      <trkpt lat="45.19774" lon="6.46914">
        <ele>1246</ele>
        <time>2018-02-17T13:25:15Z</time>
      </trkpt>
      <trkpt lat="45.19786" lon="6.46865">
        <ele>1253</ele>
        <time>2018-02-17T13:26:15Z</time>
      </trkpt>
      <trkpt lat="45.19811" lon="6.46803">
        <ele>1257</ele>
        <time>2018-02-17T13:27:15Z</time>
      </trkpt>
      <trkpt lat="45.19824" lon="6.46777">
        <ele>1259</ele>
        <time>2018-02-17T13:28:15Z</time>
      </trkpt>
      <trkpt lat="45.19837" lon="6.46756">
        <ele>1261</ele>
        <time>2018-02-17T13:29:15Z</time>
      </trkpt>
      <trkpt lat="45.19846" lon="6.46746">
        <ele>1263</ele>
        <time>2018-02-17T13:30:15Z</time>
      </trkpt>
      <trkpt lat="45.19854" lon="6.46739">
        <ele>1265</ele>
        <time>2018-02-17T13:31:15Z</time>
      </trkpt>
      <trkpt lat="45.19878" lon="6.4673">
        <ele>1265</ele>
        <time>2018-02-17T13:32:15Z</time>
      </trkpt>
      <trkpt lat="45.19945" lon="6.46715">
        <ele>1260</ele>
        <time>2018-02-17T13:33:15Z</time>
      </trkpt>
      <trkpt lat="45.19951" lon="6.46711">
        <ele>1260</ele>
        <time>2018-02-17T13:34:15Z</time>
      </trkpt>
      <trkpt lat="45.19953" lon="6.46702">
        <ele>1262</ele>
        <time>2018-02-17T13:35:15Z</time>
      </trkpt>
      <trkpt lat="45.1995" lon="6.46691">
        <ele>1266</ele>
        <time>2018-02-17T13:36:15Z</time>
      </trkpt>
      <trkpt lat="45.19946" lon="6.46687">
        <ele>1268</ele>
        <time>2018-02-17T13:37:15Z</time>
      </trkpt>
      <trkpt lat="45.19935" lon="6.46686">
        <ele>1271</ele>
        <time>2018-02-17T13:38:15Z</time>
      </trkpt>
      <trkpt lat="45.19906" lon="6.46699">
        <ele>1272</ele>
        <time>2018-02-17T13:39:15Z</time>
      </trkpt>
      <trkpt lat="45.19892" lon="6.467">
        <ele>1274</ele>
        <time>2018-02-17T13:40:15Z</time>
      </trkpt>
      <trkpt lat="45.19876" lon="6.46697">
        <ele>1277</ele>
        <time>2018-02-17T13:41:15Z</time>
      </trkpt>
      <trkpt lat="45.19859" lon="6.46697">
        <ele>1279</ele>
        <time>2018-02-17T13:42:15Z</time>
      </trkpt>
      <trkpt lat="45.19848" lon="6.46699">
        <ele>1280</ele>
        <time>2018-02-17T13:43:15Z</time>
      </trkpt>
      <trkpt lat="45.19838" lon="6.46704">
        <ele>1279</ele>
        <time>2018-02-17T13:44:15Z</time>
      </trkpt>
      <trkpt lat="45.19816" lon="6.4672">
        <ele>1279</ele>
        <time>2018-02-17T13:45:15Z</time>
      </trkpt>
      <trkpt lat="45.19793" lon="6.46743">
        <ele>1278</ele>
        <time>2018-02-17T13:46:15Z</time>
      </trkpt>
      <trkpt lat="45.19742" lon="6.46815">
        <ele>1279</ele>
        <time>2018-02-17T13:47:15Z</time>
      </trkpt>
      <trkpt lat="45.19736" lon="6.46823">
        <ele>1278</ele>
        <time>2018-02-17T13:48:15Z</time>
      </trkpt>
      <trkpt lat="45.19728" lon="6.46828">
        <ele>1279</ele>
        <time>2018-02-17T13:49:15Z</time>
      </trkpt>
      <trkpt lat="45.19716" lon="6.46833">
        <ele>1281</ele>
        <time>2018-02-17T13:50:15Z</time>
      </trkpt>
      <trkpt lat="45.19672" lon="6.46837">
        <ele>1290</ele>
        <time>2018-02-17T13:51:15Z</time>
      </trkpt>
      <trkpt lat="45.19659" lon="6.46841">
        <ele>1292</ele>
        <time>2018-02-17T13:52:15Z</time>
      </trkpt>
      <trkpt lat="45.1963" lon="6.46856">
        <ele>1297</ele>
        <time>2018-02-17T13:53:15Z</time>
      </trkpt>
      <trkpt lat="45.19608" lon="6.46875">
        <ele>1300</ele>
        <time>2018-02-17T13:54:15Z</time>
      </trkpt>
      <trkpt lat="45.19603" lon="6.46876">
        <ele>1301</ele>
        <time>2018-02-17T13:55:15Z</time>
      </trkpt>
      <trkpt lat="45.19598" lon="6.46873">
        <ele>1303</ele>
        <time>2018-02-17T13:56:15Z</time>
      </trkpt>
      <trkpt lat="45.19592" lon="6.46863">
        <ele>1307</ele>
        <time>2018-02-17T13:57:15Z</time>
      </trkpt>
      <trkpt lat="45.19591" lon="6.46849">
        <ele>1310</ele>
        <time>2018-02-17T13:58:15Z</time>
      </trkpt>
      <trkpt lat="45.19593" lon="6.46843">
        <ele>1310</ele>
        <time>2018-02-17T13:59:15Z</time>
      </trkpt>
      <trkpt lat="45.19597" lon="6.46839">
        <ele>1310</ele>
        <time>2018-02-17T14:00:15Z</time>
      </trkpt>
      <trkpt lat="45.19602" lon="6.46837">
        <ele>1309</ele>
        <time>2018-02-17T14:01:15Z</time>
      </trkpt>
      <trkpt lat="45.19619" lon="6.46839">
        <ele>1304</ele>
        <time>2018-02-17T14:02:15Z</time>
      </trkpt>
      <trkpt lat="45.19629" lon="6.46834">
        <ele>1302</ele>
        <time>2018-02-17T14:03:15Z</time>
      </trkpt>
      <trkpt lat="45.1964" lon="6.46824">
        <ele>1302</ele>
        <time>2018-02-17T14:04:15Z</time>
      </trkpt>
      <trkpt lat="45.19689" lon="6.46767">
        <ele>1305</ele>
        <time>2018-02-17T14:05:15Z</time>
      </trkpt>
      <trkpt lat="45.19711" lon="6.46727">
        <ele>1309</ele>
        <time>2018-02-17T14:06:15Z</time>
      </trkpt>
      <trkpt lat="45.19724" lon="6.46714">
        <ele>1309</ele>
        <time>2018-02-17T14:07:15Z</time>
      </trkpt>
      <trkpt lat="45.19727" lon="6.46707">
        <ele>1310</ele>
        <time>2018-02-17T14:08:15Z</time>
      </trkpt>
      <trkpt lat="45.19728" lon="6.46701">
        <ele>1311</ele>
        <time>2018-02-17T14:09:15Z</time>
      </trkpt>
      <trkpt lat="45.19724" lon="6.46689">
        <ele>1316</ele>
        <time>2018-02-17T14:10:15Z</time>
      </trkpt>
      <trkpt lat="45.19721" lon="6.46686">
        <ele>1318</ele>
        <time>2018-02-17T14:11:15Z</time>
      </trkpt>
      <trkpt lat="45.19715" lon="6.46684">
        <ele>1321</ele>
        <time>2018-02-17T14:12:15Z</time>
      </trkpt>
      <trkpt lat="45.19709" lon="6.46687">
        <ele>1322</ele>
        <time>2018-02-17T14:13:15Z</time>
      </trkpt>
      <trkpt lat="45.19688" lon="6.46725">
        <ele>1317</ele>
        <time>2018-02-17T14:14:15Z</time>
      </trkpt>
      <trkpt lat="45.19674" lon="6.46742">
        <ele>1316</ele>
        <time>2018-02-17T14:15:15Z</time>
      </trkpt>
      <trkpt lat="45.19654" lon="6.46757">
        <ele>1317</ele>
        <time>2018-02-17T14:16:15Z</time>
      </trkpt>
      <trkpt lat="45.19585" lon="6.46798">
        <ele>1325</ele>
        <time>2018-02-17T14:17:15Z</time>
      </trkpt>
      <trkpt lat="45.19575" lon="6.46806">
        <ele>1325</ele>
        <time>2018-02-17T14:18:15Z</time>
      </trkpt>
      <trkpt lat="45.19554" lon="6.46834">
        <ele>1321</ele>
        <time>2018-02-17T14:19:15Z</time>
      </trkpt>
      <trkpt lat="45.19544" lon="6.46843">
        <ele>1321</ele>
        <time>2018-02-17T14:20:15Z</time>
      </trkpt>
      <trkpt lat="45.19506" lon="6.46869">
        <ele>1324</ele>
        <time>2018-02-17T14:21:15Z</time>
      </trkpt>
      <trkpt lat="45.19497" lon="6.46877">
        <ele>1323</ele>
        <time>2018-02-17T14:22:15Z</time>
      </trkpt>
      <trkpt lat="45.19485" lon="6.46893">
        <ele>1319</ele>
        <time>2018-02-17T14:23:15Z</time>
      </trkpt>
      <trkpt lat="45.19478" lon="6.46897">
        <ele>1318</ele>
        <time>2018-02-17T14:24:15Z</time>
      </trkpt>
      <trkpt lat="45.19466" lon="6.46896">
        <ele>1317</ele>
        <time>2018-02-17T14:25:15Z</time>
      </trkpt>
      <trkpt lat="45.19455" lon="6.46889">
        <ele>1319</ele>
        <time>2018-02-17T14:26:15Z</time>
      </trkpt>
      <trkpt lat="45.19418" lon="6.46845">
        <ele>1330</ele>
        <time>2018-02-17T14:27:15Z</time>
      </trkpt>
      <trkpt lat="45.19405" lon="6.46833">
        <ele>1334</ele>
        <time>2018-02-17T14:28:15Z</time>
      </trkpt>
      <trkpt lat="45.19393" lon="6.46826">
        <ele>1336</ele>
        <time>2018-02-17T14:29:15Z</time>
      </trkpt>
      <trkpt lat="45.19368" lon="6.4682">
        <ele>1339</ele>
        <time>2018-02-17T14:30:15Z</time>
      </trkpt>
      <trkpt lat="45.19358" lon="6.46821">
        <ele>1339</ele>
        <time>2018-02-17T14:31:15Z</time>
      </trkpt>
      <trkpt lat="45.19338" lon="6.46829">
        <ele>1337</ele>
        <time>2018-02-17T14:32:15Z</time>
      </trkpt>
      <trkpt lat="45.19334" lon="6.46829">
        <ele>1337</ele>
        <time>2018-02-17T14:33:15Z</time>
      </trkpt>
      <trkpt lat="45.19329" lon="6.46822">
        <ele>1341</ele>
        <time>2018-02-17T14:34:15Z</time>
      </trkpt>
      <trkpt lat="45.19328" lon="6.46812">
        <ele>1345</ele>
        <time>2018-02-17T14:35:15Z</time>
      </trkpt>
      <trkpt lat="45.19333" lon="6.46803">
        <ele>1346</ele>
        <time>2018-02-17T14:36:15Z</time>
      </trkpt>
      <trkpt lat="45.19337" lon="6.46801">
        <ele>1346</ele>
        <time>2018-02-17T14:37:15Z</time>
      </trkpt>
      <trkpt lat="45.19443" lon="6.46795">
        <ele>1343</ele>
        <time>2018-02-17T14:38:15Z</time>
      </trkpt>
      <trkpt lat="45.19452" lon="6.46791">
        <ele>1344</ele>
        <time>2018-02-17T14:39:15Z</time>
      </trkpt>
      <trkpt lat="45.19486" lon="6.46766">
        <ele>1351</ele>
        <time>2018-02-17T14:40:15Z</time>
      </trkpt>
      <trkpt lat="45.19524" lon="6.46753">
        <ele>1350</ele>
        <time>2018-02-17T14:41:15Z</time>
      </trkpt>
      <trkpt lat="45.19531" lon="6.46748">
        <ele>1350</ele>
        <time>2018-02-17T14:42:15Z</time>
      </trkpt>
      <trkpt lat="45.19534" lon="6.46743">
        <ele>1351</ele>
        <time>2018-02-17T14:43:15Z</time>
      </trkpt>
      <trkpt lat="45.19543" lon="6.46712">
        <ele>1358</ele>
        <time>2018-02-17T14:44:15Z</time>
      </trkpt>
      <trkpt lat="45.19548" lon="6.467">
        <ele>1361</ele>
        <time>2018-02-17T14:45:15Z</time>
      </trkpt>
      <trkpt lat="45.19553" lon="6.46691">
        <ele>1362</ele>
        <time>2018-02-17T14:46:15Z</time>
      </trkpt>
      <trkpt lat="45.19565" lon="6.46684">
        <ele>1362</ele>
        <time>2018-02-17T14:47:15Z</time>
      </trkpt>
      <trkpt lat="45.1961" lon="6.46663">
        <ele>1358</ele>
        <time>2018-02-17T14:48:15Z</time>
      </trkpt>
      <trkpt lat="45.19624" lon="6.46653">
        <ele>1357</ele>
        <time>2018-02-17T14:49:15Z</time>
      </trkpt>
      <trkpt lat="45.19646" lon="6.46632">
        <ele>1357</ele>
        <time>2018-02-17T14:50:15Z</time>
      </trkpt>
      <trkpt lat="45.19658" lon="6.46619">
        <ele>1357</ele>
        <time>2018-02-17T14:51:15Z</time>
      </trkpt>
      <trkpt lat="45.1967" lon="6.46594">
        <ele>1360</ele>
        <time>2018-02-17T14:52:15Z</time>
      </trkpt>
      <trkpt lat="45.19678" lon="6.46558">
        <ele>1364</ele>
        <time>2018-02-17T14:53:15Z</time>
      </trkpt>
      <trkpt lat="45.19684" lon="6.46509">
        <ele>1372</ele>
        <time>2018-02-17T14:54:15Z</time>
      </trkpt>
      <trkpt lat="45.1969" lon="6.46481">
        <ele>1378</ele>
        <time>2018-02-17T14:55:15Z</time>
      </trkpt>
      <trkpt lat="45.197" lon="6.46461">
        <ele>1382</ele>
        <time>2018-02-17T14:56:15Z</time>
      </trkpt>
      <trkpt lat="45.19718" lon="6.46446">
        <ele>1383</ele>
        <time>2018-02-17T14:57:15Z</time>
      </trkpt>
      <trkpt lat="45.19761" lon="6.46427">
        <ele>1382</ele>
        <time>2018-02-17T14:58:15Z</time>
      </trkpt>
      <trkpt lat="45.19793" lon="6.46424">
        <ele>1382</ele>
        <time>2018-02-17T14:59:15Z</time>
      </trkpt>
      <trkpt lat="45.1981" lon="6.46426">
        <ele>1380</ele>
        <time>2018-02-17T15:00:15Z</time>
      </trkpt>
      <trkpt lat="45.19824" lon="6.46423">
        <ele>1380</ele>
        <time>2018-02-17T15:01:15Z</time>
      </trkpt>
      <trkpt lat="45.19835" lon="6.46408">
        <ele>1384</ele>
        <time>2018-02-17T15:02:15Z</time>
      </trkpt>
      <trkpt lat="45.19882" lon="6.46271">
        <ele>1402</ele>
        <time>2018-02-17T15:03:15Z</time>
      </trkpt>
      <trkpt lat="45.19897" lon="6.46238">
        <ele>1401</ele>
        <time>2018-02-17T15:04:15Z</time>
      </trkpt>
      <trkpt lat="45.19916" lon="6.46206">
        <ele>1399</ele>
        <time>2018-02-17T15:05:15Z</time>
      </trkpt>
      <trkpt lat="45.19928" lon="6.46194">
        <ele>1396</ele>
        <time>2018-02-17T15:06:15Z</time>
      </trkpt>
      <trkpt lat="45.19935" lon="6.46182">
        <ele>1396</ele>
        <time>2018-02-17T15:07:15Z</time>
      </trkpt>
      <trkpt lat="45.19939" lon="6.46167">
        <ele>1398</ele>
        <time>2018-02-17T15:08:15Z</time>
      </trkpt>
      <trkpt lat="45.19939" lon="6.46155">
        <ele>1398</ele>
        <time>2018-02-17T15:09:15Z</time>
      </trkpt>
      <trkpt lat="45.19913" lon="6.46063">
        <ele>1405</ele>
        <time>2018-02-17T15:10:15Z</time>
      </trkpt>
      <trkpt lat="45.19899" lon="6.46034">
        <ele>1404</ele>
        <time>2018-02-17T15:11:15Z</time>
      </trkpt>
      <trkpt lat="45.19876" lon="6.46005">
        <ele>1409</ele>
        <time>2018-02-17T15:12:15Z</time>
      </trkpt>
      <trkpt lat="45.19824" lon="6.45954">
        <ele>1410</ele>
        <time>2018-02-17T15:13:15Z</time>
      </trkpt>
      <trkpt lat="45.19784" lon="6.4592">
        <ele>1407</ele>
        <time>2018-02-17T15:14:15Z</time>
      </trkpt>
      <trkpt lat="45.19767" lon="6.45909">
        <ele>1407</ele>
        <time>2018-02-17T15:15:15Z</time>
      </trkpt>
      <trkpt lat="45.19679" lon="6.45901">
        <ele>1428</ele>
        <time>2018-02-17T15:16:15Z</time>
      </trkpt>
      <trkpt lat="45.19642" lon="6.4589">
        <ele>1437</ele>
        <time>2018-02-17T15:17:15Z</time>
      </trkpt>
      <trkpt lat="45.19614" lon="6.4587">
        <ele>1439</ele>
        <time>2018-02-17T15:18:15Z</time>
      </trkpt>
      <trkpt lat="45.19593" lon="6.45843">
        <ele>1433</ele>
        <time>2018-02-17T15:19:15Z</time>
      </trkpt>
      <trkpt lat="45.19581" lon="6.45831">
        <ele>1432</ele>
        <time>2018-02-17T15:20:15Z</time>
      </trkpt>
      <trkpt lat="45.19566" lon="6.45825">
        <ele>1436</ele>
        <time>2018-02-17T15:21:15Z</time>
      </trkpt>
      <trkpt lat="45.19549" lon="6.45822">
        <ele>1442</ele>
        <time>2018-02-17T15:22:15Z</time>
      </trkpt>
      <trkpt lat="45.19481" lon="6.45818">
        <ele>1469</ele>
        <time>2018-02-17T15:23:15Z</time>
      </trkpt>
      <trkpt lat="45.19472" lon="6.45812">
        <ele>1473</ele>
        <time>2018-02-17T15:24:15Z</time>
      </trkpt>
      <trkpt lat="45.19467" lon="6.45805">
        <ele>1474</ele>
        <time>2018-02-17T15:25:15Z</time>
      </trkpt>
      <trkpt lat="45.19464" lon="6.45792">
        <ele>1474</ele>
        <time>2018-02-17T15:26:15Z</time>
      </trkpt>
      <trkpt lat="45.19476" lon="6.4574">
        <ele>1458</ele>
        <time>2018-02-17T15:27:15Z</time>
      </trkpt>
      <trkpt lat="45.19478" lon="6.45714">
        <ele>1453</ele>
        <time>2018-02-17T15:28:15Z</time>
      </trkpt>
      <trkpt lat="45.19476" lon="6.45684">
        <ele>1452</ele>
        <time>2018-02-17T15:29:15Z</time>
      </trkpt>
      <trkpt lat="45.19454" lon="6.45621">
        <ele>1465</ele>
        <time>2018-02-17T15:30:15Z</time>
      </trkpt>
      <trkpt lat="45.1945" lon="6.456">
        <ele>1466</ele>
        <time>2018-02-17T15:31:15Z</time>
      </trkpt>
      <trkpt lat="45.19458" lon="6.45544">
        <ele>1461</ele>
        <time>2018-02-17T15:32:15Z</time>
      </trkpt>
      <trkpt lat="45.19457" lon="6.45524">
        <ele>1462</ele>
        <time>2018-02-17T15:33:15Z</time>
      </trkpt>
      <trkpt lat="45.19449" lon="6.45488">
        <ele>1466</ele>
        <time>2018-02-17T15:34:15Z</time>
      </trkpt>
      <trkpt lat="45.19441" lon="6.45459">
        <ele>1466</ele>
        <time>2018-02-17T15:35:15Z</time>
      </trkpt>
      <trkpt lat="45.19428" lon="6.45432">
        <ele>1469</ele>
        <time>2018-02-17T15:36:15Z</time>
      </trkpt>
      <trkpt lat="45.19415" lon="6.45415">
        <ele>1473</ele>
        <time>2018-02-17T15:37:15Z</time>
      </trkpt>
      <trkpt lat="45.19401" lon="6.45392">
        <ele>1477</ele>
        <time>2018-02-17T15:38:15Z</time>
      </trkpt>
      <trkpt lat="45.19392" lon="6.45369">
        <ele>1479</ele>
        <time>2018-02-17T15:39:15Z</time>
      </trkpt>
      <trkpt lat="45.19386" lon="6.45346">
        <ele>1479</ele>
        <time>2018-02-17T15:40:15Z</time>
      </trkpt>
      <trkpt lat="45.1938" lon="6.45328">
        <ele>1480</ele>
        <time>2018-02-17T15:41:15Z</time>
      </trkpt>
      <trkpt lat="45.19361" lon="6.45303">
        <ele>1491</ele>
        <time>2018-02-17T15:42:15Z</time>
      </trkpt>
      <trkpt lat="45.19355" lon="6.45276">
        <ele>1494</ele>
        <time>2018-02-17T15:43:15Z</time>
      </trkpt>
      <trkpt lat="45.19351" lon="6.45254">
        <ele>1495</ele>
        <time>2018-02-17T15:44:15Z</time>
      </trkpt>
      <trkpt lat="45.19352" lon="6.45223">
        <ele>1496</ele>
        <time>2018-02-17T15:45:15Z</time>
      </trkpt>
      <trkpt lat="45.19366" lon="6.45167">
        <ele>1493</ele>
        <time>2018-02-17T15:46:15Z</time>
      </trkpt>
      <trkpt lat="45.1939" lon="6.45118">
        <ele>1488</ele>
        <time>2018-02-17T15:47:15Z</time>
      </trkpt>
      <trkpt lat="45.19487" lon="6.44939">
        <ele>1490</ele>
        <time>2018-02-17T15:48:15Z</time>
      </trkpt>
      <trkpt lat="45.19494" lon="6.44921">
        <ele>1492</ele>
        <time>2018-02-17T15:49:15Z</time>
      </trkpt>
      <trkpt lat="45.19499" lon="6.44902">
        <ele>1494</ele>
        <time>2018-02-17T15:50:15Z</time>
      </trkpt>
      <trkpt lat="45.19503" lon="6.44876">
        <ele>1496</ele>
        <time>2018-02-17T15:51:15Z</time>
      </trkpt>
      <trkpt lat="45.19503" lon="6.44807">
        <ele>1507</ele>
        <time>2018-02-17T15:52:15Z</time>
      </trkpt>
      <trkpt lat="45.1951" lon="6.44782">
        <ele>1510</ele>
        <time>2018-02-17T15:53:15Z</time>
      </trkpt>
      <trkpt lat="45.19523" lon="6.4475">
        <ele>1514</ele>
        <time>2018-02-17T15:54:15Z</time>
      </trkpt>
      <trkpt lat="45.19541" lon="6.44725">
        <ele>1517</ele>
        <time>2018-02-17T15:55:15Z</time>
      </trkpt>
      <trkpt lat="45.19573" lon="6.44701">
        <ele>1516</ele>
        <time>2018-02-17T15:56:15Z</time>
      </trkpt>
      <trkpt lat="45.19591" lon="6.44684">
        <ele>1517</ele>
        <time>2018-02-17T15:57:15Z</time>
      </trkpt>
      <trkpt lat="45.19625" lon="6.44631">
        <ele>1532</ele>
        <time>2018-02-17T15:58:15Z</time>
      </trkpt>
      <trkpt lat="45.19651" lon="6.44608">
        <ele>1536</ele>
        <time>2018-02-17T15:59:15Z</time>
      </trkpt>
      <trkpt lat="45.19689" lon="6.44584">
        <ele>1537</ele>
        <time>2018-02-17T16:00:15Z</time>
      </trkpt>
      <trkpt lat="45.19723" lon="6.44578">
        <ele>1535</ele>
        <time>2018-02-17T16:01:15Z</time>
      </trkpt>
      <trkpt lat="45.19767" lon="6.44578">
        <ele>1530</ele>
        <time>2018-02-17T16:02:15Z</time>
      </trkpt>
      <trkpt lat="45.19797" lon="6.44573">
        <ele>1534</ele>
        <time>2018-02-17T16:03:15Z</time>
      </trkpt>
      <trkpt lat="45.19834" lon="6.4456">
        <ele>1542</ele>
        <time>2018-02-17T16:04:15Z</time>
      </trkpt>
      <trkpt lat="45.19856" lon="6.44555">
        <ele>1548</ele>
        <time>2018-02-17T16:05:15Z</time>
      </trkpt>
      <trkpt lat="45.19867" lon="6.44555">
        <ele>1549</ele>
        <time>2018-02-17T16:06:15Z</time>
      </trkpt>
      <trkpt lat="45.19942" lon="6.44598">
        <ele>1534</ele>
        <time>2018-02-17T16:07:15Z</time>
      </trkpt>
      <trkpt lat="45.1995" lon="6.44598">
        <ele>1534</ele>
        <time>2018-02-17T16:08:15Z</time>
      </trkpt>
      <trkpt lat="45.19956" lon="6.4459">
        <ele>1537</ele>
        <time>2018-02-17T16:09:15Z</time>
      </trkpt>
      <trkpt lat="45.19963" lon="6.44568">
        <ele>1546</ele>
        <time>2018-02-17T16:10:15Z</time>
      </trkpt>
      <trkpt lat="45.19989" lon="6.44516">
        <ele>1569</ele>
        <time>2018-02-17T16:11:15Z</time>
      </trkpt>
      <trkpt lat="45.19995" lon="6.44512">
        <ele>1570</ele>
        <time>2018-02-17T16:12:15Z</time>
      </trkpt>
      <trkpt lat="45.20003" lon="6.4451">
        <ele>1570</ele>
        <time>2018-02-17T16:13:15Z</time>
      </trkpt>
      <trkpt lat="45.20034" lon="6.44517">
        <ele>1567</ele>
        <time>2018-02-17T16:14:15Z</time>
      </trkpt>
      <trkpt lat="45.20062" lon="6.4453">
        <ele>1560</ele>
        <time>2018-02-17T16:15:15Z</time>
      </trkpt>
      <trkpt lat="45.20084" lon="6.4455">
        <ele>1551</ele>
        <time>2018-02-17T16:16:15Z</time>
      </trkpt>
      <trkpt lat="45.201" lon="6.44558">
        <ele>1549</ele>
        <time>2018-02-17T16:17:15Z</time>
      </trkpt>
      <trkpt lat="45.20109" lon="6.44558">
        <ele>1549</ele>
        <time>2018-02-17T16:18:15Z</time>
      </trkpt>
      <trkpt lat="45.20132" lon="6.44534">
        <ele>1559</ele>
        <time>2018-02-17T16:19:15Z</time>
      </trkpt>
      <trkpt lat="45.20142" lon="6.44531">
        <ele>1560</ele>
        <time>2018-02-17T16:20:15Z</time>
      </trkpt>
      <trkpt lat="45.20175" lon="6.44533">
        <ele>1560</ele>
        <time>2018-02-17T16:21:15Z</time>
      </trkpt>
      <trkpt lat="45.20175" lon="6.44533">
        <ele>1560</ele>
        <time>2018-02-17T16:22:15Z</time>
      </trkpt>
      <trkpt lat="45.20194" lon="6.44529">
        <ele>1560</ele>
        <time>2018-02-17T16:23:15Z</time>
      </trkpt>
      <trkpt lat="45.20265" lon="6.44479">
        <ele>1562</ele>
        <time>2018-02-17T16:24:15Z</time>
      </trkpt>
      <trkpt lat="45.20268" lon="6.44472">
        <ele>1563</ele>
        <time>2018-02-17T16:25:15Z</time>
      </trkpt>
      <trkpt lat="45.20269" lon="6.44461">
        <ele>1563</ele>
        <time>2018-02-17T16:26:15Z</time>
      </trkpt>
      <trkpt lat="45.20267" lon="6.44445">
        <ele>1563</ele>
        <time>2018-02-17T16:27:15Z</time>
      </trkpt>
      <trkpt lat="45.20262" lon="6.44438">
        <ele>1563</ele>
        <time>2018-02-17T16:28:15Z</time>
      </trkpt>
      <trkpt lat="45.20236" lon="6.4442">
        <ele>1564</ele>
        <time>2018-02-17T16:29:15Z</time>
      </trkpt>
      <trkpt lat="45.20179" lon="6.444">
        <ele>1562</ele>
        <time>2018-02-17T16:30:15Z</time>
      </trkpt>
      <trkpt lat="45.20149" lon="6.44385">
        <ele>1558</ele>
        <time>2018-02-17T16:31:15Z</time>
      </trkpt>
      <trkpt lat="45.20137" lon="6.44384">
        <ele>1558</ele>
        <time>2018-02-17T16:32:15Z</time>
      </trkpt>
      <trkpt lat="45.20114" lon="6.44396">
        <ele>1565</ele>
        <time>2018-02-17T16:33:15Z</time>
      </trkpt>
      <trkpt lat="45.20102" lon="6.44395">
        <ele>1565</ele>
        <time>2018-02-17T16:34:15Z</time>
      </trkpt>
      <trkpt lat="45.20077" lon="6.44385">
        <ele>1563</ele>
        <time>2018-02-17T16:35:15Z</time>
      </trkpt>
      <trkpt lat="45.19828" lon="6.44266">
        <ele>1566</ele>
        <time>2018-02-17T16:36:15Z</time>
      </trkpt>
      <trkpt lat="45.19803" lon="6.44258">
        <ele>1567</ele>
        <time>2018-02-17T16:37:15Z</time>
      </trkpt>
      <trkpt lat="45.19743" lon="6.44252">
        <ele>1575</ele>
        <time>2018-02-17T16:38:15Z</time>
      </trkpt>
      <trkpt lat="45.19715" lon="6.44244">
        <ele>1571</ele>
        <time>2018-02-17T16:39:15Z</time>
      </trkpt>
      <trkpt lat="45.19686" lon="6.44238">
        <ele>1568</ele>
        <time>2018-02-17T16:40:15Z</time>
      </trkpt>
      <trkpt lat="45.19667" lon="6.44237">
        <ele>1568</ele>
        <time>2018-02-17T16:41:15Z</time>
      </trkpt>
      <trkpt lat="45.19641" lon="6.44241">
        <ele>1575</ele>
        <time>2018-02-17T16:42:15Z</time>
      </trkpt>
      <trkpt lat="45.19625" lon="6.44241">
        <ele>1578</ele>
        <time>2018-02-17T16:43:15Z</time>
      </trkpt>
      <trkpt lat="45.19607" lon="6.44238">
        <ele>1579</ele>
        <time>2018-02-17T16:44:15Z</time>
      </trkpt>
      <trkpt lat="45.19568" lon="6.44225">
        <ele>1577</ele>
        <time>2018-02-17T16:45:15Z</time>
      </trkpt>
      <trkpt lat="45.19528" lon="6.442">
        <ele>1564</ele>
        <time>2018-02-17T16:46:15Z</time>
      </trkpt>
      <trkpt lat="45.19501" lon="6.44188">
        <ele>1557</ele>
        <time>2018-02-17T16:47:15Z</time>
      </trkpt>
      <trkpt lat="45.19488" lon="6.44186">
        <ele>1557</ele>
        <time>2018-02-17T16:48:15Z</time>
      </trkpt>
      <trkpt lat="45.19444" lon="6.44187">
        <ele>1566</ele>
        <time>2018-02-17T16:49:15Z</time>
      </trkpt>
      <trkpt lat="45.1941" lon="6.44183">
        <ele>1569</ele>
        <time>2018-02-17T16:50:15Z</time>
      </trkpt>
      <trkpt lat="45.19387" lon="6.44178">
        <ele>1569</ele>
        <time>2018-02-17T16:51:15Z</time>
      </trkpt>
      <trkpt lat="45.19343" lon="6.44159">
        <ele>1562</ele>
        <time>2018-02-17T16:52:15Z</time>
      </trkpt>
      <trkpt lat="45.19316" lon="6.44145">
        <ele>1562</ele>
        <time>2018-02-17T16:53:15Z</time>
      </trkpt>
      <trkpt lat="45.19238" lon="6.44075">
        <ele>1547</ele>
        <time>2018-02-17T16:54:15Z</time>
      </trkpt>
      <trkpt lat="45.19211" lon="6.44064">
        <ele>1547</ele>
        <time>2018-02-17T16:55:15Z</time>
      </trkpt>
      <trkpt lat="45.19153" lon="6.44056">
        <ele>1553</ele>
        <time>2018-02-17T16:56:15Z</time>
      </trkpt>
      <trkpt lat="45.19097" lon="6.44045">
        <ele>1551</ele>
        <time>2018-02-17T16:57:15Z</time>
      </trkpt>
      <trkpt lat="45.19059" lon="6.44042">
        <ele>1550</ele>
        <time>2018-02-17T16:58:15Z</time>
      </trkpt>
      <trkpt lat="45.18991" lon="6.44052">
        <ele>1559</ele>
        <time>2018-02-17T16:59:15Z</time>
      </trkpt>
      <trkpt lat="45.18967" lon="6.44051">
        <ele>1563</ele>
        <time>2018-02-17T17:00:15Z</time>
      </trkpt>
      <trkpt lat="45.18946" lon="6.44044">
        <ele>1563</ele>
        <time>2018-02-17T17:01:15Z</time>
      </trkpt>
      <trkpt lat="45.18924" lon="6.44032">
        <ele>1560</ele>
        <time>2018-02-17T17:02:15Z</time>
      </trkpt>
      <trkpt lat="45.18906" lon="6.44019">
        <ele>1557</ele>
        <time>2018-02-17T17:03:15Z</time>
      </trkpt>
      <trkpt lat="45.18888" lon="6.44002">
        <ele>1553</ele>
        <time>2018-02-17T17:04:15Z</time>
      </trkpt>
      <trkpt lat="45.1886" lon="6.43988">
        <ele>1552</ele>
        <time>2018-02-17T17:05:15Z</time>
      </trkpt>
      <trkpt lat="45.18739" lon="6.43947">
        <ele>1544</ele>
        <time>2018-02-17T17:06:15Z</time>
      </trkpt>
      <trkpt lat="45.18712" lon="6.4394">
        <ele>1542</ele>
        <time>2018-02-17T17:07:15Z</time>
      </trkpt>
      <trkpt lat="45.18664" lon="6.43937">
        <ele>1543</ele>
        <time>2018-02-17T17:08:15Z</time>
      </trkpt>
      <trkpt lat="45.18648" lon="6.43933">
        <ele>1543</ele>
        <time>2018-02-17T17:09:15Z</time>
      </trkpt>
      <trkpt lat="45.18582" lon="6.43899">
        <ele>1542</ele>
        <time>2018-02-17T17:10:15Z</time>
      </trkpt>
      <trkpt lat="45.18567" lon="6.43889">
        <ele>1541</ele>
        <time>2018-02-17T17:11:15Z</time>
      </trkpt>
      <trkpt lat="45.18533" lon="6.43858">
        <ele>1536</ele>
        <time>2018-02-17T17:12:15Z</time>
      </trkpt>
      <trkpt lat="45.18521" lon="6.4385">
        <ele>1535</ele>
        <time>2018-02-17T17:13:15Z</time>
      </trkpt>
      <trkpt lat="45.18506" lon="6.43844">
        <ele>1535</ele>
        <time>2018-02-17T17:14:15Z</time>
      </trkpt>
      <trkpt lat="45.18464" lon="6.43833">
        <ele>1533</ele>
        <time>2018-02-17T17:15:15Z</time>
      </trkpt>
      <trkpt lat="45.18435" lon="6.43835">
        <ele>1534</ele>
        <time>2018-02-17T17:16:15Z</time>
      </trkpt>
      <trkpt lat="45.18402" lon="6.43841">
        <ele>1533</ele>
        <time>2018-02-17T17:17:15Z</time>
      </trkpt>
      <trkpt lat="45.18381" lon="6.4385">
        <ele>1532</ele>
        <time>2018-02-17T17:18:15Z</time>
      </trkpt>
      <trkpt lat="45.18363" lon="6.43863">
        <ele>1533</ele>
        <time>2018-02-17T17:19:15Z</time>
      </trkpt>
      <trkpt lat="45.18332" lon="6.43889">
        <ele>1535</ele>
        <time>2018-02-17T17:20:15Z</time>
      </trkpt>
      <trkpt lat="45.18312" lon="6.43895">
        <ele>1535</ele>
        <time>2018-02-17T17:21:15Z</time>
      </trkpt>
      <trkpt lat="45.18261" lon="6.43889">
        <ele>1531</ele>
        <time>2018-02-17T17:22:15Z</time>
      </trkpt>
      <trkpt lat="45.18246" lon="6.43891">
        <ele>1531</ele>
        <time>2018-02-17T17:23:15Z</time>
      </trkpt>
      <trkpt lat="45.18208" lon="6.43904">
        <ele>1528</ele>
        <time>2018-02-17T17:24:15Z</time>
      </trkpt>
      <trkpt lat="45.18122" lon="6.43939">
        <ele>1528</ele>
        <time>2018-02-17T17:25:15Z</time>
      </trkpt>
      <trkpt lat="45.181" lon="6.43951">
        <ele>1529</ele>
        <time>2018-02-17T17:26:15Z</time>
      </trkpt>
      <trkpt lat="45.18061" lon="6.43964">
        <ele>1531</ele>
        <time>2018-02-17T17:27:15Z</time>
      </trkpt>
      <trkpt lat="45.18045" lon="6.43961">
        <ele>1530</ele>
        <time>2018-02-17T17:28:15Z</time>
      </trkpt>
      <trkpt lat="45.18032" lon="6.43953">
        <ele>1527</ele>
        <time>2018-02-17T17:29:15Z</time>
      </trkpt>
      <trkpt lat="45.18016" lon="6.43938">
        <ele>1522</ele>
        <time>2018-02-17T17:30:15Z</time>
      </trkpt>
      <trkpt lat="45.18006" lon="6.43933">
        <ele>1520</ele>
        <time>2018-02-17T17:31:15Z</time>
      </trkpt>
      <trkpt lat="45.17937" lon="6.43931">
        <ele>1520</ele>
        <time>2018-02-17T17:32:15Z</time>
      </trkpt>
      <trkpt lat="45.17901" lon="6.43927">
        <ele>1520</ele>
        <time>2018-02-17T17:33:15Z</time>
      </trkpt>
      <trkpt lat="45.17851" lon="6.43915">
        <ele>1516</ele>
        <time>2018-02-17T17:34:15Z</time>
      </trkpt>
      <trkpt lat="45.17835" lon="6.43903">
        <ele>1513</ele>
        <time>2018-02-17T17:35:15Z</time>
      </trkpt>
      <trkpt lat="45.17813" lon="6.4388">
        <ele>1513</ele>
        <time>2018-02-17T17:36:15Z</time>
      </trkpt>
      <trkpt lat="45.17743" lon="6.43785">
        <ele>1511</ele>
        <time>2018-02-17T17:37:15Z</time>
      </trkpt>
      <trkpt lat="45.17715" lon="6.43738">
        <ele>1508</ele>
        <time>2018-02-17T17:38:15Z</time>
      </trkpt>
      <trkpt lat="45.17704" lon="6.43711">
        <ele>1505</ele>
        <time>2018-02-17T17:39:15Z</time>
      </trkpt>
      <trkpt lat="45.17694" lon="6.43668">
        <ele>1498</ele>
        <time>2018-02-17T17:40:15Z</time>
      </trkpt>
      <trkpt lat="45.17685" lon="6.43617">
        <ele>1493</ele>
        <time>2018-02-17T17:41:15Z</time>
      </trkpt>
      <trkpt lat="45.17672" lon="6.43459">
        <ele>1483</ele>
        <time>2018-02-17T17:42:15Z</time>
      </trkpt>
      <trkpt lat="45.17669" lon="6.43435">
        <ele>1481</ele>
        <time>2018-02-17T17:43:15Z</time>
      </trkpt>
      <trkpt lat="45.17663" lon="6.43421">
        <ele>1481</ele>
        <time>2018-02-17T17:44:15Z</time>
      </trkpt>
      <trkpt lat="45.17655" lon="6.43411">
        <ele>1480</ele>
        <time>2018-02-17T17:45:15Z</time>
      </trkpt>
      <trkpt lat="45.17638" lon="6.43401">
        <ele>1479</ele>
        <time>2018-02-17T17:46:15Z</time>
      </trkpt>
      <trkpt lat="45.17615" lon="6.43392">
        <ele>1479</ele>
        <time>2018-02-17T17:47:15Z</time>
      </trkpt>
      <trkpt lat="45.17592" lon="6.43377">
        <ele>1477</ele>
        <time>2018-02-17T17:48:15Z</time>
      </trkpt>
      <trkpt lat="45.17551" lon="6.4333">
        <ele>1469</ele>
        <time>2018-02-17T17:49:15Z</time>
      </trkpt>
      <trkpt lat="45.17535" lon="6.43317">
        <ele>1466</ele>
        <time>2018-02-17T17:50:15Z</time>
      </trkpt>
      <trkpt lat="45.17517" lon="6.43308">
        <ele>1465</ele>
        <time>2018-02-17T17:51:15Z</time>
      </trkpt>
      <trkpt lat="45.1738" lon="6.43275">
        <ele>1458</ele>
        <time>2018-02-17T17:52:15Z</time>
      </trkpt>
      <trkpt lat="45.1736" lon="6.43275">
        <ele>1457</ele>
        <time>2018-02-17T17:53:15Z</time>
      </trkpt>
      <trkpt lat="45.17341" lon="6.43278">
        <ele>1457</ele>
        <time>2018-02-17T17:54:15Z</time>
      </trkpt>
      <trkpt lat="45.17326" lon="6.43284">
        <ele>1456</ele>
        <time>2018-02-17T17:55:15Z</time>
      </trkpt>
      <trkpt lat="45.17295" lon="6.43308">
        <ele>1455</ele>
        <time>2018-02-17T17:56:15Z</time>
      </trkpt>
      <trkpt lat="45.17246" lon="6.43367">
        <ele>1456</ele>
        <time>2018-02-17T17:57:15Z</time>
      </trkpt>
      <trkpt lat="45.17227" lon="6.43378">
        <ele>1456</ele>
        <time>2018-02-17T17:58:15Z</time>
      </trkpt>
      <trkpt lat="45.17212" lon="6.43382">
        <ele>1455</ele>
        <time>2018-02-17T17:59:15Z</time>
      </trkpt>
      <trkpt lat="45.17171" lon="6.43387">
        <ele>1452</ele>
        <time>2018-02-17T18:00:15Z</time>
      </trkpt>
      <trkpt lat="45.17147" lon="6.43393">
        <ele>1450</ele>
        <time>2018-02-17T18:01:15Z</time>
      </trkpt>
      <trkpt lat="45.17108" lon="6.43407">
        <ele>1448</ele>
        <time>2018-02-17T18:02:15Z</time>
      </trkpt>
      <trkpt lat="45.17092" lon="6.4341">
        <ele>1446</ele>
        <time>2018-02-17T18:03:15Z</time>
      </trkpt>
      <trkpt lat="45.17072" lon="6.43405">
        <ele>1443</ele>
        <time>2018-02-17T18:04:15Z</time>
      </trkpt>
      <trkpt lat="45.17053" lon="6.43393">
        <ele>1438</ele>
        <time>2018-02-17T18:05:15Z</time>
      </trkpt>
      <trkpt lat="45.17041" lon="6.43395">
        <ele>1437</ele>
        <time>2018-02-17T18:06:15Z</time>
      </trkpt>
      <trkpt lat="45.17022" lon="6.43419">
        <ele>1438</ele>
        <time>2018-02-17T18:07:15Z</time>
      </trkpt>
      <trkpt lat="45.16971" lon="6.43464">
        <ele>1442</ele>
        <time>2018-02-17T18:08:15Z</time>
      </trkpt>
      <trkpt lat="45.16958" lon="6.43471">
        <ele>1444</ele>
        <time>2018-02-17T18:09:15Z</time>
      </trkpt>
      <trkpt lat="45.16939" lon="6.43472">
        <ele>1444</ele>
        <time>2018-02-17T18:10:15Z</time>
      </trkpt>
      <trkpt lat="45.16924" lon="6.43468">
        <ele>1444</ele>
        <time>2018-02-17T18:11:15Z</time>
      </trkpt>
      <trkpt lat="45.1688" lon="6.43447">
        <ele>1437</ele>
        <time>2018-02-17T18:12:15Z</time>
      </trkpt>
      <trkpt lat="45.16852" lon="6.43438">
        <ele>1434</ele>
        <time>2018-02-17T18:13:15Z</time>
      </trkpt>
      <trkpt lat="45.16822" lon="6.43436">
        <ele>1434</ele>
        <time>2018-02-17T18:14:15Z</time>
      </trkpt>
      <trkpt lat="45.16803" lon="6.43437">
        <ele>1435</ele>
        <time>2018-02-17T18:15:15Z</time>
      </trkpt>
      <trkpt lat="45.16786" lon="6.43434">
        <ele>1435</ele>
        <time>2018-02-17T18:16:15Z</time>
      </trkpt>
      <trkpt lat="45.16768" lon="6.43424">
        <ele>1432</ele>
        <time>2018-02-17T18:17:15Z</time>
      </trkpt>
      <trkpt lat="45.16723" lon="6.43391">
        <ele>1431</ele>
        <time>2018-02-17T18:18:15Z</time>
      </trkpt>
      <trkpt lat="45.16694" lon="6.43357">
        <ele>1430</ele>
        <time>2018-02-17T18:19:15Z</time>
      </trkpt>
      <trkpt lat="45.16668" lon="6.43307">
        <ele>1423</ele>
        <time>2018-02-17T18:20:15Z</time>
      </trkpt>
      <trkpt lat="45.1665" lon="6.43284">
        <ele>1419</ele>
        <time>2018-02-17T18:21:15Z</time>
      </trkpt>
      <trkpt lat="45.16618" lon="6.43261">
        <ele>1416</ele>
        <time>2018-02-17T18:22:15Z</time>
      </trkpt>
      <trkpt lat="45.16554" lon="6.43221">
        <ele>1414</ele>
        <time>2018-02-17T18:23:15Z</time>
      </trkpt>
      <trkpt lat="45.1652" lon="6.43192">
        <ele>1411</ele>
        <time>2018-02-17T18:24:15Z</time>
      </trkpt>
      <trkpt lat="45.16521" lon="6.43187">
        <ele>1411</ele>
        <time>2018-02-17T18:25:15Z</time>
      </trkpt>
      <trkpt lat="45.16521" lon="6.43181">
        <ele>1410</ele>
        <time>2018-02-17T18:26:15Z</time>
      </trkpt>
      <trkpt lat="45.16517" lon="6.43174">
        <ele>1409</ele>
        <time>2018-02-17T18:27:15Z</time>
      </trkpt>
      <trkpt lat="45.16542" lon="6.43058">
        <ele>1406</ele>
        <time>2018-02-17T18:28:15Z</time>
      </trkpt>
      <trkpt lat="45.16547" lon="6.4302">
        <ele>1406</ele>
        <time>2018-02-17T18:29:15Z</time>
      </trkpt>
      <trkpt lat="45.16548" lon="6.42998">
        <ele>1406</ele>
        <time>2018-02-17T18:30:15Z</time>
      </trkpt>
      <trkpt lat="45.16557" lon="6.42956">
        <ele>1406</ele>
        <time>2018-02-17T18:31:15Z</time>
      </trkpt>
      <trkpt lat="45.16559" lon="6.4294">
        <ele>1406</ele>
        <time>2018-02-17T18:32:15Z</time>
      </trkpt>
      <trkpt lat="45.16558" lon="6.42927">
        <ele>1407</ele>
        <time>2018-02-17T18:33:15Z</time>
      </trkpt>
      <trkpt lat="45.16553" lon="6.4289">
        <ele>1408</ele>
        <time>2018-02-17T18:34:15Z</time>
      </trkpt>
      <trkpt lat="45.16553" lon="6.42863">
        <ele>1408</ele>
        <time>2018-02-17T18:35:15Z</time>
      </trkpt>
      <trkpt lat="45.16554" lon="6.4285">
        <ele>1409</ele>
        <time>2018-02-17T18:36:15Z</time>
      </trkpt>
      <trkpt lat="45.16577" lon="6.42754">
        <ele>1412</ele>
        <time>2018-02-17T18:37:15Z</time>
      </trkpt>
      <trkpt lat="45.16578" lon="6.42741">
        <ele>1412</ele>
        <time>2018-02-17T18:38:15Z</time>
      </trkpt>
      <trkpt lat="45.16576" lon="6.42725">
        <ele>1412</ele>
        <time>2018-02-17T18:39:15Z</time>
      </trkpt>
      <trkpt lat="45.1656" lon="6.42696">
        <ele>1413</ele>
        <time>2018-02-17T18:40:15Z</time>
      </trkpt>
      <trkpt lat="45.165" lon="6.42607">
        <ele>1419</ele>
        <time>2018-02-17T18:41:15Z</time>
      </trkpt>
      <trkpt lat="45.16481" lon="6.42563">
        <ele>1420</ele>
        <time>2018-02-17T18:42:15Z</time>
      </trkpt>
      <trkpt lat="45.16456" lon="6.42494">
        <ele>1425</ele>
        <time>2018-02-17T18:43:15Z</time>
      </trkpt>
      <trkpt lat="45.16422" lon="6.42461">
        <ele>1429</ele>
        <time>2018-02-17T18:44:15Z</time>
      </trkpt>
      <trkpt lat="45.16422" lon="6.42458">
        <ele>1429</ele>
        <time>2018-02-17T18:45:15Z</time>
      </trkpt>
      <trkpt lat="45.16417" lon="6.4245">
        <ele>1430</ele>
        <time>2018-02-17T18:46:15Z</time>
      </trkpt>
      <trkpt lat="45.1641" lon="6.42451">
        <ele>1432</ele>
        <time>2018-02-17T18:47:15Z</time>
      </trkpt>
      <trkpt lat="45.16404" lon="6.42441">
        <ele>1434</ele>
        <time>2018-02-17T18:48:15Z</time>
      </trkpt>
      <trkpt lat="45.16383" lon="6.42413">
        <ele>1441</ele>
        <time>2018-02-17T18:49:15Z</time>
      </trkpt>
      <trkpt lat="45.16379" lon="6.42398">
        <ele>1442</ele>
        <time>2018-02-17T18:50:15Z</time>
      </trkpt>
      <trkpt lat="45.16397" lon="6.42334">
        <ele>1439</ele>
        <time>2018-02-17T18:51:15Z</time>
      </trkpt>
      <trkpt lat="45.16398" lon="6.4232">
        <ele>1440</ele>
        <time>2018-02-17T18:52:15Z</time>
      </trkpt>
      <trkpt lat="45.16397" lon="6.42305">
        <ele>1441</ele>
        <time>2018-02-17T18:53:15Z</time>
      </trkpt>
      <trkpt lat="45.16394" lon="6.42293">
        <ele>1441</ele>
        <time>2018-02-17T18:54:15Z</time>
      </trkpt>
      <trkpt lat="45.16389" lon="6.42282">
        <ele>1442</ele>
        <time>2018-02-17T18:55:15Z</time>
      </trkpt>
      <trkpt lat="45.16381" lon="6.42273">
        <ele>1443</ele>
        <time>2018-02-17T18:56:15Z</time>
      </trkpt>
      <trkpt lat="45.16363" lon="6.42263">
        <ele>1443</ele>
        <time>2018-02-17T18:57:15Z</time>
      </trkpt>
      <trkpt lat="45.16327" lon="6.4225">
        <ele>1442</ele>
        <time>2018-02-17T18:58:15Z</time>
      </trkpt>
      <trkpt lat="45.16322" lon="6.42245">
        <ele>1444</ele>
        <time>2018-02-17T18:59:15Z</time>
      </trkpt>
      <trkpt lat="45.16307" lon="6.42238">
        <ele>1446</ele>
        <time>2018-02-17T19:00:15Z</time>
      </trkpt>
      <trkpt lat="45.16255" lon="6.42217">
        <ele>1456</ele>
        <time>2018-02-17T19:01:15Z</time>
      </trkpt>
      <trkpt lat="45.16243" lon="6.42216">
        <ele>1457</ele>
        <time>2018-02-17T19:02:15Z</time>
      </trkpt>
      <trkpt lat="45.16194" lon="6.42196">
        <ele>1462</ele>
        <time>2018-02-17T19:03:15Z</time>
      </trkpt>
      <trkpt lat="45.16181" lon="6.42193">
        <ele>1462</ele>
        <time>2018-02-17T19:04:15Z</time>
      </trkpt>
      <trkpt lat="45.16106" lon="6.42183">
        <ele>1463</ele>
        <time>2018-02-17T19:05:15Z</time>
      </trkpt>
      <trkpt lat="45.16042" lon="6.42172">
        <ele>1463</ele>
        <time>2018-02-17T19:06:15Z</time>
      </trkpt>
      <trkpt lat="45.16027" lon="6.42167">
        <ele>1462</ele>
        <time>2018-02-17T19:07:15Z</time>
      </trkpt>
      <trkpt lat="45.16018" lon="6.42162">
        <ele>1462</ele>
        <time>2018-02-17T19:08:15Z</time>
      </trkpt>
      <trkpt lat="45.1602" lon="6.42153">
        <ele>1463</ele>
        <time>2018-02-17T19:09:15Z</time>
      </trkpt>
      <trkpt lat="45.1602" lon="6.42148">
        <ele>1463</ele>
        <time>2018-02-17T19:10:15Z</time>
      </trkpt>
      <trkpt lat="45.16018" lon="6.42144">
        <ele>1463</ele>
        <time>2018-02-17T19:11:15Z</time>
      </trkpt>
      <trkpt lat="45.16012" lon="6.42142">
        <ele>1463</ele>
        <time>2018-02-17T19:12:15Z</time>
      </trkpt>
      <trkpt lat="45.16009" lon="6.42143">
        <ele>1463</ele>
        <time>2018-02-17T19:13:15Z</time>
      </trkpt>
      <trkpt lat="45.16004" lon="6.4215">
        <ele>1463</ele>
        <time>2018-02-17T19:14:15Z</time>
      </trkpt>
      <trkpt lat="45.16004" lon="6.42153">
        <ele>1463</ele>
        <time>2018-02-17T19:15:15Z</time>
      </trkpt>
      <trkpt lat="45.15999" lon="6.4215">
        <ele>1463</ele>
        <time>2018-02-17T19:16:15Z</time>
      </trkpt>
      <trkpt lat="45.1597" lon="6.42152">
        <ele>1464</ele>
        <time>2018-02-17T19:17:15Z</time>
      </trkpt>
      <trkpt lat="45.15928" lon="6.42143">
        <ele>1468</ele>
        <time>2018-02-17T19:18:15Z</time>
      </trkpt>
      <trkpt lat="45.15912" lon="6.42135">
        <ele>1470</ele>
        <time>2018-02-17T19:19:15Z</time>
      </trkpt>
      <trkpt lat="45.15853" lon="6.42127">
        <ele>1476</ele>
        <time>2018-02-17T19:20:15Z</time>
      </trkpt>
      <trkpt lat="45.15602" lon="6.42069">
        <ele>1500</ele>
        <time>2018-02-17T19:21:15Z</time>
      </trkpt>
      <trkpt lat="45.15573" lon="6.42066">
        <ele>1503</ele>
        <time>2018-02-17T19:22:15Z</time>
      </trkpt>
      <trkpt lat="45.1553" lon="6.42068">
        <ele>1506</ele>
        <time>2018-02-17T19:23:15Z</time>
      </trkpt>
      <trkpt lat="45.15433" lon="6.42082">
        <ele>1514</ele>
        <time>2018-02-17T19:24:15Z</time>
      </trkpt>
      <trkpt lat="45.15352" lon="6.42071">
        <ele>1523</ele>
        <time>2018-02-17T19:25:15Z</time>
      </trkpt>
      <trkpt lat="45.15313" lon="6.42071">
        <ele>1527</ele>
        <time>2018-02-17T19:26:15Z</time>
      </trkpt>
      <trkpt lat="45.1527" lon="6.42077">
        <ele>1532</ele>
        <time>2018-02-17T19:27:15Z</time>
      </trkpt>
      <trkpt lat="45.15246" lon="6.42069">
        <ele>1535</ele>
        <time>2018-02-17T19:28:15Z</time>
      </trkpt>
      <trkpt lat="45.15172" lon="6.42026">
        <ele>1540</ele>
        <time>2018-02-17T19:29:15Z</time>
      </trkpt>
      <trkpt lat="45.15157" lon="6.42021">
        <ele>1542</ele>
        <time>2018-02-17T19:30:15Z</time>
      </trkpt>
      <trkpt lat="45.1514" lon="6.42019">
        <ele>1543</ele>
        <time>2018-02-17T19:31:15Z</time>
      </trkpt>
      <trkpt lat="45.15122" lon="6.42022">
        <ele>1544</ele>
        <time>2018-02-17T19:32:15Z</time>
      </trkpt>
      <trkpt lat="45.15084" lon="6.42045">
        <ele>1546</ele>
        <time>2018-02-17T19:33:15Z</time>
      </trkpt>
      <trkpt lat="45.15064" lon="6.4205">
        <ele>1547</ele>
        <time>2018-02-17T19:34:15Z</time>
      </trkpt>
      <trkpt lat="45.15035" lon="6.42044">
        <ele>1550</ele>
        <time>2018-02-17T19:35:15Z</time>
      </trkpt>
      <trkpt lat="45.15003" lon="6.42041">
        <ele>1552</ele>
        <time>2018-02-17T19:36:15Z</time>
      </trkpt>
      <trkpt lat="45.14964" lon="6.42051">
        <ele>1555</ele>
        <time>2018-02-17T19:37:15Z</time>
      </trkpt>
      <trkpt lat="45.14939" lon="6.42053">
        <ele>1556</ele>
        <time>2018-02-17T19:38:15Z</time>
      </trkpt>
      <trkpt lat="45.14913" lon="6.42049">
        <ele>1558</ele>
        <time>2018-02-17T19:39:15Z</time>
      </trkpt>
      <trkpt lat="45.14888" lon="6.4205">
        <ele>1558</ele>
        <time>2018-02-17T19:40:15Z</time>
      </trkpt>
      <trkpt lat="45.14858" lon="6.42055">
        <ele>1559</ele>
        <time>2018-02-17T19:41:15Z</time>
      </trkpt>
      <trkpt lat="45.14834" lon="6.42054">
        <ele>1560</ele>
        <time>2018-02-17T19:42:15Z</time>
      </trkpt>
      <trkpt lat="45.14803" lon="6.42038">
        <ele>1561</ele>
        <time>2018-02-17T19:43:15Z</time>
      </trkpt>
      <trkpt lat="45.14759" lon="6.42025">
        <ele>1563</ele>
        <time>2018-02-17T19:44:15Z</time>
      </trkpt>
      <trkpt lat="45.1474" lon="6.42024">
        <ele>1563</ele>
        <time>2018-02-17T19:45:15Z</time>
      </trkpt>
      <trkpt lat="45.1471" lon="6.42027">
        <ele>1564</ele>
        <time>2018-02-17T19:46:15Z</time>
      </trkpt>
      <trkpt lat="45.1468" lon="6.42027">
        <ele>1565</ele>
        <time>2018-02-17T19:47:15Z</time>
      </trkpt>
      <trkpt lat="45.14637" lon="6.42018">
        <ele>1564</ele>
        <time>2018-02-17T19:48:15Z</time>
      </trkpt>
      <trkpt lat="45.14606" lon="6.42007">
        <ele>1562</ele>
        <time>2018-02-17T19:49:15Z</time>
      </trkpt>
      <trkpt lat="45.14529" lon="6.41991">
        <ele>1563</ele>
        <time>2018-02-17T19:50:15Z</time>
      </trkpt>
      <trkpt lat="45.14452" lon="6.4198">
        <ele>1564</ele>
        <time>2018-02-17T19:51:15Z</time>
      </trkpt>
      <trkpt lat="45.142" lon="6.41973">
        <ele>1571</ele>
        <time>2018-02-17T19:52:15Z</time>
      </trkpt>
      <trkpt lat="45.13967" lon="6.41986">
        <ele>1582</ele>
        <time>2018-02-17T19:53:15Z</time>
      </trkpt>
      <trkpt lat="45.13873" lon="6.41989">
        <ele>1584</ele>
        <time>2018-02-17T19:54:15Z</time>
      </trkpt>
      <trkpt lat="45.1385" lon="6.41985">
        <ele>1585</ele>
        <time>2018-02-17T19:55:15Z</time>
      </trkpt>
      <trkpt lat="45.13768" lon="6.41957">
        <ele>1590</ele>
        <time>2018-02-17T19:56:15Z</time>
      </trkpt>
      <trkpt lat="45.13744" lon="6.41946">
        <ele>1592</ele>
        <time>2018-02-17T19:57:15Z</time>
      </trkpt>
      <trkpt lat="45.13733" lon="6.41944">
        <ele>1592</ele>
        <time>2018-02-17T19:58:15Z</time>
      </trkpt>
      <trkpt lat="45.13725" lon="6.41944">
        <ele>1592</ele>
        <time>2018-02-17T19:59:15Z</time>
      </trkpt>
      <trkpt lat="45.13717" lon="6.41949">
        <ele>1592</ele>
        <time>2018-02-17T20:00:15Z</time>
      </trkpt>
      <trkpt lat="45.13697" lon="6.41975">
        <ele>1594</ele>
        <time>2018-02-17T20:01:15Z</time>
      </trkpt>
      <trkpt lat="45.13687" lon="6.41982">
        <ele>1596</ele>
        <time>2018-02-17T20:02:15Z</time>
      </trkpt>
      <trkpt lat="45.13672" lon="6.41983">
        <ele>1597</ele>
        <time>2018-02-17T20:03:15Z</time>
      </trkpt>
      <trkpt lat="45.13599" lon="6.41977">
        <ele>1598</ele>
        <time>2018-02-17T20:04:15Z</time>
      </trkpt>
      <trkpt lat="45.13405" lon="6.4192">
        <ele>1594</ele>
        <time>2018-02-17T20:05:15Z</time>
      </trkpt>
      <trkpt lat="45.13224" lon="6.41869">
        <ele>1599</ele>
        <time>2018-02-17T20:06:15Z</time>
      </trkpt>
      <trkpt lat="45.13149" lon="6.41852">
        <ele>1602</ele>
        <time>2018-02-17T20:07:15Z</time>
      </trkpt>
      <trkpt lat="45.13067" lon="6.41837">
        <ele>1604</ele>
        <time>2018-02-17T20:08:15Z</time>
      </trkpt>
      <trkpt lat="45.13021" lon="6.41832">
        <ele>1604</ele>
        <time>2018-02-17T20:09:15Z</time>
      </trkpt>
      <trkpt lat="45.12866" lon="6.41836">
        <ele>1611</ele>
        <time>2018-02-17T20:10:15Z</time>
      </trkpt>
      <trkpt lat="45.12697" lon="6.4186">
        <ele>1630</ele>
        <time>2018-02-17T20:11:15Z</time>
      </trkpt>
      <trkpt lat="45.12529" lon="6.41865">
        <ele>1646</ele>
        <time>2018-02-17T20:12:15Z</time>
      </trkpt>
      <trkpt lat="45.12505" lon="6.41863">
        <ele>1645</ele>
        <time>2018-02-17T20:13:15Z</time>
      </trkpt>
      <trkpt lat="45.12487" lon="6.41853">
        <ele>1645</ele>
        <time>2018-02-17T20:14:15Z</time>
      </trkpt>
      <trkpt lat="45.12454" lon="6.41811">
        <ele>1647</ele>
        <time>2018-02-17T20:15:15Z</time>
      </trkpt>
      <trkpt lat="45.12384" lon="6.41756">
        <ele>1648</ele>
        <time>2018-02-17T20:16:15Z</time>
      </trkpt>
      <trkpt lat="45.12375" lon="6.41759">
        <ele>1649</ele>
        <time>2018-02-17T20:17:15Z</time>
      </trkpt>
      <trkpt lat="45.12371" lon="6.41772">
        <ele>1651</ele>
        <time>2018-02-17T20:18:15Z</time>
      </trkpt>
      <trkpt lat="45.12372" lon="6.41779">
        <ele>1651</ele>
        <time>2018-02-17T20:19:15Z</time>
      </trkpt>
      <trkpt lat="45.12392" lon="6.41846">
        <ele>1655</ele>
        <time>2018-02-17T20:20:15Z</time>
      </trkpt>
      <trkpt lat="45.12404" lon="6.41874">
        <ele>1657</ele>
        <time>2018-02-17T20:21:15Z</time>
      </trkpt>
      <trkpt lat="45.12404" lon="6.41884">
        <ele>1659</ele>
        <time>2018-02-17T20:22:15Z</time>
      </trkpt>
      <trkpt lat="45.12398" lon="6.41892">
        <ele>1660</ele>
        <time>2018-02-17T20:23:15Z</time>
      </trkpt>
      <trkpt lat="45.12393" lon="6.41893">
        <ele>1661</ele>
        <time>2018-02-17T20:24:15Z</time>
      </trkpt>
      <trkpt lat="45.12319" lon="6.4184">
        <ele>1664</ele>
        <time>2018-02-17T20:25:15Z</time>
      </trkpt>
      <trkpt lat="45.12228" lon="6.41785">
        <ele>1668</ele>
        <time>2018-02-17T20:26:15Z</time>
      </trkpt>
      <trkpt lat="45.12192" lon="6.41781">
        <ele>1671</ele>
        <time>2018-02-17T20:27:15Z</time>
      </trkpt>
      <trkpt lat="45.12077" lon="6.41789">
        <ele>1681</ele>
        <time>2018-02-17T20:28:15Z</time>
      </trkpt>
      <trkpt lat="45.11908" lon="6.41796">
        <ele>1698</ele>
        <time>2018-02-17T20:29:15Z</time>
      </trkpt>
      <trkpt lat="45.11893" lon="6.41803">
        <ele>1700</ele>
        <time>2018-02-17T20:30:15Z</time>
      </trkpt>
      <trkpt lat="45.11874" lon="6.41822">
        <ele>1702</ele>
        <time>2018-02-17T20:31:15Z</time>
      </trkpt>
      <trkpt lat="45.11809" lon="6.41931">
        <ele>1712</ele>
        <time>2018-02-17T20:32:15Z</time>
      </trkpt>
      <trkpt lat="45.11779" lon="6.41972">
        <ele>1717</ele>
        <time>2018-02-17T20:33:15Z</time>
      </trkpt>
      <trkpt lat="45.11725" lon="6.42032">
        <ele>1723</ele>
        <time>2018-02-17T20:34:15Z</time>
      </trkpt>
      <trkpt lat="45.11661" lon="6.42097">
        <ele>1725</ele>
        <time>2018-02-17T20:35:15Z</time>
      </trkpt>
      <trkpt lat="45.11614" lon="6.42129">
        <ele>1728</ele>
        <time>2018-02-17T20:36:15Z</time>
      </trkpt>
      <trkpt lat="45.11579" lon="6.42157">
        <ele>1728</ele>
        <time>2018-02-17T20:37:15Z</time>
      </trkpt>
      <trkpt lat="45.11557" lon="6.42188">
        <ele>1731</ele>
        <time>2018-02-17T20:38:15Z</time>
      </trkpt>
      <trkpt lat="45.11541" lon="6.42221">
        <ele>1734</ele>
        <time>2018-02-17T20:39:15Z</time>
      </trkpt>
      <trkpt lat="45.1152" lon="6.42278">
        <ele>1740</ele>
        <time>2018-02-17T20:40:15Z</time>
      </trkpt>
      <trkpt lat="45.11494" lon="6.42328">
        <ele>1744</ele>
        <time>2018-02-17T20:41:15Z</time>
      </trkpt>
      <trkpt lat="45.11483" lon="6.42343">
        <ele>1746</ele>
        <time>2018-02-17T20:42:15Z</time>
      </trkpt>
      <trkpt lat="45.11466" lon="6.42354">
        <ele>1749</ele>
        <time>2018-02-17T20:43:15Z</time>
      </trkpt>
      <trkpt lat="45.11445" lon="6.42359">
        <ele>1751</ele>
        <time>2018-02-17T20:44:15Z</time>
      </trkpt>
      <trkpt lat="45.11397" lon="6.42362">
        <ele>1754</ele>
        <time>2018-02-17T20:45:15Z</time>
      </trkpt>
      <trkpt lat="45.11361" lon="6.42362">
        <ele>1755</ele>
        <time>2018-02-17T20:46:15Z</time>
      </trkpt>
      <trkpt lat="45.11303" lon="6.42374">
        <ele>1758</ele>
        <time>2018-02-17T20:47:15Z</time>
      </trkpt>
      <trkpt lat="45.11283" lon="6.4239">
        <ele>1761</ele>
        <time>2018-02-17T20:48:15Z</time>
      </trkpt>
      <trkpt lat="45.11268" lon="6.4241">
        <ele>1764</ele>
        <time>2018-02-17T20:49:15Z</time>
      </trkpt>
      <trkpt lat="45.11255" lon="6.42424">
        <ele>1767</ele>
        <time>2018-02-17T20:50:15Z</time>
      </trkpt>
      <trkpt lat="45.11245" lon="6.42429">
        <ele>1769</ele>
        <time>2018-02-17T20:51:15Z</time>
      </trkpt>
      <trkpt lat="45.11231" lon="6.42432">
        <ele>1770</ele>
        <time>2018-02-17T20:52:15Z</time>
      </trkpt>
      <trkpt lat="45.11142" lon="6.42434">
        <ele>1771</ele>
        <time>2018-02-17T20:53:15Z</time>
      </trkpt>
      <trkpt lat="45.11125" lon="6.42438">
        <ele>1771</ele>
        <time>2018-02-17T20:54:15Z</time>
      </trkpt>
      <trkpt lat="45.11108" lon="6.42445">
        <ele>1773</ele>
        <time>2018-02-17T20:55:15Z</time>
      </trkpt>
      <trkpt lat="45.1101" lon="6.42511">
        <ele>1786</ele>
        <time>2018-02-17T20:56:15Z</time>
      </trkpt>
      <trkpt lat="45.10989" lon="6.42527">
        <ele>1788</ele>
        <time>2018-02-17T20:57:15Z</time>
      </trkpt>
      <trkpt lat="45.10977" lon="6.42542">
        <ele>1790</ele>
        <time>2018-02-17T20:58:15Z</time>
      </trkpt>
      <trkpt lat="45.10956" lon="6.42575">
        <ele>1797</ele>
        <time>2018-02-17T20:59:15Z</time>
      </trkpt>
      <trkpt lat="45.10942" lon="6.4259">
        <ele>1800</ele>
        <time>2018-02-17T21:00:15Z</time>
      </trkpt>
      <trkpt lat="45.1093" lon="6.42599">
        <ele>1802</ele>
        <time>2018-02-17T21:01:15Z</time>
      </trkpt>
      <trkpt lat="45.1092" lon="6.42599">
        <ele>1801</ele>
        <time>2018-02-17T21:02:15Z</time>
      </trkpt>
      <trkpt lat="45.10911" lon="6.42597">
        <ele>1801</ele>
        <time>2018-02-17T21:03:15Z</time>
      </trkpt>
      <trkpt lat="45.10865" lon="6.42579">
        <ele>1801</ele>
        <time>2018-02-17T21:04:15Z</time>
      </trkpt>
      <trkpt lat="45.10818" lon="6.42567">
        <ele>1803</ele>
        <time>2018-02-17T21:05:15Z</time>
      </trkpt>
      <trkpt lat="45.10726" lon="6.4254">
        <ele>1805</ele>
        <time>2018-02-17T21:06:15Z</time>
      </trkpt>
      <trkpt lat="45.10702" lon="6.42535">
        <ele>1807</ele>
        <time>2018-02-17T21:07:15Z</time>
      </trkpt>
      <trkpt lat="45.10685" lon="6.42535">
        <ele>1810</ele>
        <time>2018-02-17T21:08:15Z</time>
      </trkpt>
      <trkpt lat="45.10656" lon="6.42541">
        <ele>1814</ele>
        <time>2018-02-17T21:09:15Z</time>
      </trkpt>
      <trkpt lat="45.10604" lon="6.42557">
        <ele>1819</ele>
        <time>2018-02-17T21:10:15Z</time>
      </trkpt>
      <trkpt lat="45.10554" lon="6.42581">
        <ele>1825</ele>
        <time>2018-02-17T21:11:15Z</time>
      </trkpt>
      <trkpt lat="45.10454" lon="6.42663">
        <ele>1833</ele>
        <time>2018-02-17T21:12:15Z</time>
      </trkpt>
      <trkpt lat="45.10438" lon="6.4268">
        <ele>1834</ele>
        <time>2018-02-17T21:13:15Z</time>
      </trkpt>
      <trkpt lat="45.10429" lon="6.42694">
        <ele>1836</ele>
        <time>2018-02-17T21:14:15Z</time>
      </trkpt>
      <trkpt lat="45.10409" lon="6.42731">
        <ele>1843</ele>
        <time>2018-02-17T21:15:15Z</time>
      </trkpt>
      <trkpt lat="45.10402" lon="6.42739">
        <ele>1845</ele>
        <time>2018-02-17T21:16:15Z</time>
      </trkpt>
      <trkpt lat="45.10389" lon="6.42747">
        <ele>1846</ele>
        <time>2018-02-17T21:17:15Z</time>
      </trkpt>
      <trkpt lat="45.1032" lon="6.42781">
        <ele>1848</ele>
        <time>2018-02-17T21:18:15Z</time>
      </trkpt>
      <trkpt lat="45.10304" lon="6.42793">
        <ele>1849</ele>
        <time>2018-02-17T21:19:15Z</time>
      </trkpt>
      <trkpt lat="45.10293" lon="6.42805">
        <ele>1850</ele>
        <time>2018-02-17T21:20:15Z</time>
      </trkpt>
      <trkpt lat="45.10282" lon="6.4282">
        <ele>1852</ele>
        <time>2018-02-17T21:21:15Z</time>
      </trkpt>
      <trkpt lat="45.10254" lon="6.42871">
        <ele>1859</ele>
        <time>2018-02-17T21:22:15Z</time>
      </trkpt>
      <trkpt lat="45.10241" lon="6.42887">
        <ele>1862</ele>
        <time>2018-02-17T21:23:15Z</time>
      </trkpt>
      <trkpt lat="45.10224" lon="6.42898">
        <ele>1863</ele>
        <time>2018-02-17T21:24:15Z</time>
      </trkpt>
      <trkpt lat="45.10206" lon="6.42902">
        <ele>1863</ele>
        <time>2018-02-17T21:25:15Z</time>
      </trkpt>
      <trkpt lat="45.10192" lon="6.42908">
        <ele>1863</ele>
        <time>2018-02-17T21:26:15Z</time>
      </trkpt>
      <trkpt lat="45.10183" lon="6.42914">
        <ele>1864</ele>
        <time>2018-02-17T21:27:15Z</time>
      </trkpt>
      <trkpt lat="45.10155" lon="6.42942">
        <ele>1875</ele>
        <time>2018-02-17T21:28:15Z</time>
      </trkpt>
      <trkpt lat="45.10116" lon="6.42961">
        <ele>1883</ele>
        <time>2018-02-17T21:29:15Z</time>
      </trkpt>
      <trkpt lat="45.10099" lon="6.42962">
        <ele>1884</ele>
        <time>2018-02-17T21:30:15Z</time>
      </trkpt>
      <trkpt lat="45.10089" lon="6.42958">
        <ele>1884</ele>
        <time>2018-02-17T21:31:15Z</time>
      </trkpt>
      <trkpt lat="45.10078" lon="6.42949">
        <ele>1883</ele>
        <time>2018-02-17T21:32:15Z</time>
      </trkpt>
      <trkpt lat="45.10064" lon="6.42927">
        <ele>1882</ele>
        <time>2018-02-17T21:33:15Z</time>
      </trkpt>
      <trkpt lat="45.10047" lon="6.42908">
        <ele>1881</ele>
        <time>2018-02-17T21:34:15Z</time>
      </trkpt>
      <trkpt lat="45.10027" lon="6.42888">
        <ele>1880</ele>
        <time>2018-02-17T21:35:15Z</time>
      </trkpt>
      <trkpt lat="45.10014" lon="6.42885">
        <ele>1882</ele>
        <time>2018-02-17T21:36:15Z</time>
      </trkpt>
      <trkpt lat="45.09966" lon="6.42891">
        <ele>1888</ele>
        <time>2018-02-17T21:37:15Z</time>
      </trkpt>
      <trkpt lat="45.09933" lon="6.42891">
        <ele>1889</ele>
        <time>2018-02-17T21:38:15Z</time>
      </trkpt>
      <trkpt lat="45.09919" lon="6.42896">
        <ele>1891</ele>
        <time>2018-02-17T21:39:15Z</time>
      </trkpt>
      <trkpt lat="45.09909" lon="6.42904">
        <ele>1892</ele>
        <time>2018-02-17T21:40:15Z</time>
      </trkpt>
      <trkpt lat="45.099" lon="6.42914">
        <ele>1894</ele>
        <time>2018-02-17T21:41:15Z</time>
      </trkpt>
      <trkpt lat="45.09886" lon="6.42939">
        <ele>1899</ele>
        <time>2018-02-17T21:42:15Z</time>
      </trkpt>
      <trkpt lat="45.09869" lon="6.42956">
        <ele>1901</ele>
        <time>2018-02-17T21:43:15Z</time>
      </trkpt>
      <trkpt lat="45.09853" lon="6.42964">
        <ele>1901</ele>
        <time>2018-02-17T21:44:15Z</time>
      </trkpt>
      <trkpt lat="45.09732" lon="6.43003">
        <ele>1911</ele>
        <time>2018-02-17T21:45:15Z</time>
      </trkpt>
      <trkpt lat="45.09711" lon="6.43019">
        <ele>1915</ele>
        <time>2018-02-17T21:46:15Z</time>
      </trkpt>
      <trkpt lat="45.09692" lon="6.43036">
        <ele>1920</ele>
        <time>2018-02-17T21:47:15Z</time>
      </trkpt>
      <trkpt lat="45.09673" lon="6.43049">
        <ele>1924</ele>
        <time>2018-02-17T21:48:15Z</time>
      </trkpt>
      <trkpt lat="45.09645" lon="6.43052">
        <ele>1926</ele>
        <time>2018-02-17T21:49:15Z</time>
      </trkpt>
      <trkpt lat="45.09592" lon="6.43051">
        <ele>1928</ele>
        <time>2018-02-17T21:50:15Z</time>
      </trkpt>
      <trkpt lat="45.09533" lon="6.43053">
        <ele>1932</ele>
        <time>2018-02-17T21:51:15Z</time>
      </trkpt>
      <trkpt lat="45.09513" lon="6.43052">
        <ele>1932</ele>
        <time>2018-02-17T21:52:15Z</time>
      </trkpt>
      <trkpt lat="45.09493" lon="6.43054">
        <ele>1933</ele>
        <time>2018-02-17T21:53:15Z</time>
      </trkpt>
      <trkpt lat="45.09479" lon="6.4306">
        <ele>1933</ele>
        <time>2018-02-17T21:54:15Z</time>
      </trkpt>
      <trkpt lat="45.09447" lon="6.43089">
        <ele>1935</ele>
        <time>2018-02-17T21:55:15Z</time>
      </trkpt>
      <trkpt lat="45.09425" lon="6.43107">
        <ele>1937</ele>
        <time>2018-02-17T21:56:15Z</time>
      </trkpt>
      <trkpt lat="45.09403" lon="6.43121">
        <ele>1940</ele>
        <time>2018-02-17T21:57:15Z</time>
      </trkpt>
      <trkpt lat="45.09364" lon="6.43155">
        <ele>1946</ele>
        <time>2018-02-17T21:58:15Z</time>
      </trkpt>
      <trkpt lat="45.09325" lon="6.4318">
        <ele>1948</ele>
        <time>2018-02-17T21:59:15Z</time>
      </trkpt>
      <trkpt lat="45.09313" lon="6.43191">
        <ele>1951</ele>
        <time>2018-02-17T22:00:15Z</time>
      </trkpt>
      <trkpt lat="45.09287" lon="6.43225">
        <ele>1955</ele>
        <time>2018-02-17T22:01:15Z</time>
      </trkpt>
      <trkpt lat="45.09278" lon="6.43233">
        <ele>1955</ele>
        <time>2018-02-17T22:02:15Z</time>
      </trkpt>
      <trkpt lat="45.09245" lon="6.4325">
        <ele>1950</ele>
        <time>2018-02-17T22:03:15Z</time>
      </trkpt>
      <trkpt lat="45.09225" lon="6.43264">
        <ele>1952</ele>
        <time>2018-02-17T22:04:15Z</time>
      </trkpt>
      <trkpt lat="45.09203" lon="6.43283">
        <ele>1954</ele>
        <time>2018-02-17T22:05:15Z</time>
      </trkpt>
      <trkpt lat="45.09189" lon="6.433">
        <ele>1954</ele>
        <time>2018-02-17T22:06:15Z</time>
      </trkpt>
      <trkpt lat="45.09162" lon="6.43362">
        <ele>1957</ele>
        <time>2018-02-17T22:07:15Z</time>
      </trkpt>
      <trkpt lat="45.09137" lon="6.43411">
        <ele>1961</ele>
        <time>2018-02-17T22:08:15Z</time>
      </trkpt>
      <trkpt lat="45.0913" lon="6.43436">
        <ele>1963</ele>
        <time>2018-02-17T22:09:15Z</time>
      </trkpt>
      <trkpt lat="45.09127" lon="6.43456">
        <ele>1964</ele>
        <time>2018-02-17T22:10:15Z</time>
      </trkpt>
      <trkpt lat="45.09113" lon="6.43492">
        <ele>1965</ele>
        <time>2018-02-17T22:11:15Z</time>
      </trkpt>
      <trkpt lat="45.09102" lon="6.43507">
        <ele>1965</ele>
        <time>2018-02-17T22:12:15Z</time>
      </trkpt>
      <trkpt lat="45.09086" lon="6.43518">
        <ele>1964</ele>
        <time>2018-02-17T22:13:15Z</time>
      </trkpt>
      <trkpt lat="45.09023" lon="6.43535">
        <ele>1965</ele>
        <time>2018-02-17T22:14:15Z</time>
      </trkpt>
      <trkpt lat="45.09013" lon="6.43535">
        <ele>1964</ele>
        <time>2018-02-17T22:15:15Z</time>
      </trkpt>
      <trkpt lat="45.08959" lon="6.43527">
        <ele>1964</ele>
        <time>2018-02-17T22:16:15Z</time>
      </trkpt>
      <trkpt lat="45.08921" lon="6.4353">
        <ele>1965</ele>
        <time>2018-02-17T22:17:15Z</time>
      </trkpt>
      <trkpt lat="45.08847" lon="6.43548">
        <ele>1970</ele>
        <time>2018-02-17T22:18:15Z</time>
      </trkpt>
      <trkpt lat="45.08825" lon="6.43554">
        <ele>1971</ele>
        <time>2018-02-17T22:19:15Z</time>
      </trkpt>
      <trkpt lat="45.08809" lon="6.43561">
        <ele>1973</ele>
        <time>2018-02-17T22:20:15Z</time>
      </trkpt>
      <trkpt lat="45.08775" lon="6.4358">
        <ele>1974</ele>
        <time>2018-02-17T22:21:15Z</time>
      </trkpt>
      <trkpt lat="45.08753" lon="6.43596">
        <ele>1976</ele>
        <time>2018-02-17T22:22:15Z</time>
      </trkpt>
      <trkpt lat="45.08669" lon="6.43686">
        <ele>1985</ele>
        <time>2018-02-17T22:23:15Z</time>
      </trkpt>
      <trkpt lat="45.0862" lon="6.43734">
        <ele>1990</ele>
        <time>2018-02-17T22:24:15Z</time>
      </trkpt>
      <trkpt lat="45.08612" lon="6.43738">
        <ele>1990</ele>
        <time>2018-02-17T22:25:15Z</time>
      </trkpt>
      <trkpt lat="45.08605" lon="6.43739">
        <ele>1990</ele>
        <time>2018-02-17T22:26:15Z</time>
      </trkpt>
      <trkpt lat="45.08598" lon="6.43738">
        <ele>1990</ele>
        <time>2018-02-17T22:27:15Z</time>
      </trkpt>
      <trkpt lat="45.08584" lon="6.43724">
        <ele>1990</ele>
        <time>2018-02-17T22:28:15Z</time>
      </trkpt>
      <trkpt lat="45.08575" lon="6.43711">
        <ele>1992</ele>
        <time>2018-02-17T22:29:15Z</time>
      </trkpt>
      <trkpt lat="45.0857" lon="6.437">
        <ele>1993</ele>
        <time>2018-02-17T22:30:15Z</time>
      </trkpt>
      <trkpt lat="45.08568" lon="6.43685">
        <ele>1994</ele>
        <time>2018-02-17T22:31:15Z</time>
      </trkpt>
      <trkpt lat="45.08571" lon="6.43666">
        <ele>1993</ele>
        <time>2018-02-17T22:32:15Z</time>
      </trkpt>
      <trkpt lat="45.08595" lon="6.4361">
        <ele>1996</ele>
        <time>2018-02-17T22:33:15Z</time>
      </trkpt>
      <trkpt lat="45.08606" lon="6.43574">
        <ele>2000</ele>
        <time>2018-02-17T22:34:15Z</time>
      </trkpt>
      <trkpt lat="45.08618" lon="6.43548">
        <ele>2005</ele>
        <time>2018-02-17T22:35:15Z</time>
      </trkpt>
      <trkpt lat="45.08696" lon="6.4343">
        <ele>2019</ele>
        <time>2018-02-17T22:36:15Z</time>
      </trkpt>
      <trkpt lat="45.08754" lon="6.43377">
        <ele>2018</ele>
        <time>2018-02-17T22:37:15Z</time>
      </trkpt>
      <trkpt lat="45.08785" lon="6.43353">
        <ele>2017</ele>
        <time>2018-02-17T22:38:15Z</time>
      </trkpt>
      <trkpt lat="45.08796" lon="6.4334">
        <ele>2018</ele>
        <time>2018-02-17T22:39:15Z</time>
      </trkpt>
      <trkpt lat="45.0881" lon="6.43313">
        <ele>2023</ele>
        <time>2018-02-17T22:40:15Z</time>
      </trkpt>
      <trkpt lat="45.08815" lon="6.43295">
        <ele>2027</ele>
        <time>2018-02-17T22:41:15Z</time>
      </trkpt>
      <trkpt lat="45.08821" lon="6.43261">
        <ele>2035</ele>
        <time>2018-02-17T22:42:15Z</time>
      </trkpt>
      <trkpt lat="45.08825" lon="6.4325">
        <ele>2037</ele>
        <time>2018-02-17T22:43:15Z</time>
      </trkpt>
      <trkpt lat="45.08831" lon="6.43241">
        <ele>2037</ele>
        <time>2018-02-17T22:44:15Z</time>
      </trkpt>
      <trkpt lat="45.08863" lon="6.43218">
        <ele>2038</ele>
        <time>2018-02-17T22:45:15Z</time>
      </trkpt>
      <trkpt lat="45.08899" lon="6.43181">
        <ele>2045</ele>
        <time>2018-02-17T22:46:15Z</time>
      </trkpt>
      <trkpt lat="45.08962" lon="6.43141">
        <ele>2049</ele>
        <time>2018-02-17T22:47:15Z</time>
      </trkpt>
      <trkpt lat="45.08996" lon="6.43123">
        <ele>2050</ele>
        <time>2018-02-17T22:48:15Z</time>
      </trkpt>
      <trkpt lat="45.08999" lon="6.43114">
        <ele>2053</ele>
        <time>2018-02-17T22:49:15Z</time>
      </trkpt>
      <trkpt lat="45.09" lon="6.43107">
        <ele>2055</ele>
        <time>2018-02-17T22:50:15Z</time>
      </trkpt>
      <trkpt lat="45.08995" lon="6.43102">
        <ele>2057</ele>
        <time>2018-02-17T22:51:15Z</time>
      </trkpt>
      <trkpt lat="45.08988" lon="6.43104">
        <ele>2058</ele>
        <time>2018-02-17T22:52:15Z</time>
      </trkpt>
      <trkpt lat="45.08964" lon="6.4312">
        <ele>2056</ele>
        <time>2018-02-17T22:53:15Z</time>
      </trkpt>
      <trkpt lat="45.08935" lon="6.43134">
        <ele>2055</ele>
        <time>2018-02-17T22:54:15Z</time>
      </trkpt>
      <trkpt lat="45.08923" lon="6.43137">
        <ele>2056</ele>
        <time>2018-02-17T22:55:15Z</time>
      </trkpt>
      <trkpt lat="45.08901" lon="6.43135">
        <ele>2060</ele>
        <time>2018-02-17T22:56:15Z</time>
      </trkpt>
      <trkpt lat="45.08877" lon="6.43139">
        <ele>2063</ele>
        <time>2018-02-17T22:57:15Z</time>
      </trkpt>
      <trkpt lat="45.08869" lon="6.43136">
        <ele>2066</ele>
        <time>2018-02-17T22:58:15Z</time>
      </trkpt>
      <trkpt lat="45.08867" lon="6.43131">
        <ele>2068</ele>
        <time>2018-02-17T22:59:15Z</time>
      </trkpt>
      <trkpt lat="45.08867" lon="6.43125">
        <ele>2070</ele>
        <time>2018-02-17T23:00:15Z</time>
      </trkpt>
      <trkpt lat="45.08871" lon="6.43117">
        <ele>2072</ele>
        <time>2018-02-17T23:01:15Z</time>
      </trkpt>
      <trkpt lat="45.08876" lon="6.43115">
        <ele>2071</ele>
        <time>2018-02-17T23:02:15Z</time>
      </trkpt>
      <trkpt lat="45.08904" lon="6.43118">
        <ele>2066</ele>
        <time>2018-02-17T23:03:15Z</time>
      </trkpt>
      <trkpt lat="45.0892" lon="6.43116">
        <ele>2064</ele>
        <time>2018-02-17T23:04:15Z</time>
      </trkpt>
      <trkpt lat="45.08933" lon="6.43109">
        <ele>2064</ele>
        <time>2018-02-17T23:05:15Z</time>
      </trkpt>
      <trkpt lat="45.08962" lon="6.43084">
        <ele>2068</ele>
        <time>2018-02-17T23:06:15Z</time>
      </trkpt>
      <trkpt lat="45.09004" lon="6.43066">
        <ele>2069</ele>
        <time>2018-02-17T23:07:15Z</time>
      </trkpt>
      <trkpt lat="45.09059" lon="6.43016">
        <ele>2078</ele>
        <time>2018-02-17T23:08:15Z</time>
      </trkpt>
      <trkpt lat="45.09061" lon="6.4301">
        <ele>2080</ele>
        <time>2018-02-17T23:09:15Z</time>
      </trkpt>
      <trkpt lat="45.09062" lon="6.43002">
        <ele>2082</ele>
        <time>2018-02-17T23:10:15Z</time>
      </trkpt>
      <trkpt lat="45.0906" lon="6.42996">
        <ele>2085</ele>
        <time>2018-02-17T23:11:15Z</time>
      </trkpt>
      <trkpt lat="45.09057" lon="6.42994">
        <ele>2086</ele>
        <time>2018-02-17T23:12:15Z</time>
      </trkpt>
      <trkpt lat="45.0905" lon="6.42995">
        <ele>2087</ele>
        <time>2018-02-17T23:13:15Z</time>
      </trkpt>
      <trkpt lat="45.09016" lon="6.43022">
        <ele>2085</ele>
        <time>2018-02-17T23:14:15Z</time>
      </trkpt>
      <trkpt lat="45.09004" lon="6.43027">
        <ele>2085</ele>
        <time>2018-02-17T23:15:15Z</time>
      </trkpt>
      <trkpt lat="45.08952" lon="6.43039">
        <ele>2087</ele>
        <time>2018-02-17T23:16:15Z</time>
      </trkpt>
      <trkpt lat="45.08939" lon="6.43038">
        <ele>2089</ele>
        <time>2018-02-17T23:17:15Z</time>
      </trkpt>
      <trkpt lat="45.08919" lon="6.43028">
        <ele>2095</ele>
        <time>2018-02-17T23:18:15Z</time>
      </trkpt>
      <trkpt lat="45.08877" lon="6.43015">
        <ele>2104</ele>
        <time>2018-02-17T23:19:15Z</time>
      </trkpt>
      <trkpt lat="45.08851" lon="6.43016">
        <ele>2106</ele>
        <time>2018-02-17T23:20:15Z</time>
      </trkpt>
      <trkpt lat="45.08828" lon="6.43023">
        <ele>2107</ele>
        <time>2018-02-17T23:21:15Z</time>
      </trkpt>
      <trkpt lat="45.08814" lon="6.43024">
        <ele>2110</ele>
        <time>2018-02-17T23:22:15Z</time>
      </trkpt>
      <trkpt lat="45.08788" lon="6.43019">
        <ele>2117</ele>
        <time>2018-02-17T23:23:15Z</time>
      </trkpt>
      <trkpt lat="45.08773" lon="6.43022">
        <ele>2119</ele>
        <time>2018-02-17T23:24:15Z</time>
      </trkpt>
      <trkpt lat="45.08751" lon="6.43029">
        <ele>2121</ele>
        <time>2018-02-17T23:25:15Z</time>
      </trkpt>
      <trkpt lat="45.08699" lon="6.43041">
        <ele>2132</ele>
        <time>2018-02-17T23:26:15Z</time>
      </trkpt>
      <trkpt lat="45.08694" lon="6.43045">
        <ele>2132</ele>
        <time>2018-02-17T23:27:15Z</time>
      </trkpt>
      <trkpt lat="45.08689" lon="6.43053">
        <ele>2132</ele>
        <time>2018-02-17T23:28:15Z</time>
      </trkpt>
      <trkpt lat="45.08687" lon="6.43062">
        <ele>2130</ele>
        <time>2018-02-17T23:29:15Z</time>
      </trkpt>
      <trkpt lat="45.0869" lon="6.43106">
        <ele>2122</ele>
        <time>2018-02-17T23:30:15Z</time>
      </trkpt>
      <trkpt lat="45.08688" lon="6.43131">
        <ele>2121</ele>
        <time>2018-02-17T23:31:15Z</time>
      </trkpt>
      <trkpt lat="45.08686" lon="6.43163">
        <ele>2119</ele>
        <time>2018-02-17T23:32:15Z</time>
      </trkpt>
      <trkpt lat="45.0868" lon="6.43183">
        <ele>2118</ele>
        <time>2018-02-17T23:33:15Z</time>
      </trkpt>
      <trkpt lat="45.0867" lon="6.43199">
        <ele>2119</ele>
        <time>2018-02-17T23:34:15Z</time>
      </trkpt>
      <trkpt lat="45.08659" lon="6.43209">
        <ele>2120</ele>
        <time>2018-02-17T23:35:15Z</time>
      </trkpt>
      <trkpt lat="45.08614" lon="6.43245">
        <ele>2127</ele>
        <time>2018-02-17T23:36:15Z</time>
      </trkpt>
      <trkpt lat="45.08603" lon="6.4325">
        <ele>2129</ele>
        <time>2018-02-17T23:37:15Z</time>
      </trkpt>
      <trkpt lat="45.08589" lon="6.43246">
        <ele>2134</ele>
        <time>2018-02-17T23:38:15Z</time>
      </trkpt>
      <trkpt lat="45.08577" lon="6.43229">
        <ele>2138</ele>
        <time>2018-02-17T23:39:15Z</time>
      </trkpt>
      <trkpt lat="45.08572" lon="6.43209">
        <ele>2141</ele>
        <time>2018-02-17T23:40:15Z</time>
      </trkpt>
      <trkpt lat="45.0857" lon="6.43194">
        <ele>2144</ele>
        <time>2018-02-17T23:41:15Z</time>
      </trkpt>
      <trkpt lat="45.08574" lon="6.43128">
        <ele>2150</ele>
        <time>2018-02-17T23:42:15Z</time>
      </trkpt>
      <trkpt lat="45.08576" lon="6.43102">
        <ele>2151</ele>
        <time>2018-02-17T23:43:15Z</time>
      </trkpt>
      <trkpt lat="45.0858" lon="6.43085">
        <ele>2152</ele>
        <time>2018-02-17T23:44:15Z</time>
      </trkpt>
      <trkpt lat="45.08586" lon="6.43069">
        <ele>2154</ele>
        <time>2018-02-17T23:45:15Z</time>
      </trkpt>
      <trkpt lat="45.08623" lon="6.42999">
        <ele>2160</ele>
        <time>2018-02-17T23:46:15Z</time>
      </trkpt>
      <trkpt lat="45.08633" lon="6.42988">
        <ele>2160</ele>
        <time>2018-02-17T23:47:15Z</time>
      </trkpt>
      <trkpt lat="45.08654" lon="6.42973">
        <ele>2159</ele>
        <time>2018-02-17T23:48:15Z</time>
      </trkpt>
      <trkpt lat="45.08664" lon="6.42962">
        <ele>2159</ele>
        <time>2018-02-17T23:49:15Z</time>
      </trkpt>
      <trkpt lat="45.08668" lon="6.42953">
        <ele>2160</ele>
        <time>2018-02-17T23:50:15Z</time>
      </trkpt>
      <trkpt lat="45.08667" lon="6.42942">
        <ele>2163</ele>
        <time>2018-02-17T23:51:15Z</time>
      </trkpt>
      <trkpt lat="45.0866" lon="6.42932">
        <ele>2167</ele>
        <time>2018-02-17T23:52:15Z</time>
      </trkpt>
      <trkpt lat="45.0865" lon="6.42934">
        <ele>2168</ele>
        <time>2018-02-17T23:53:15Z</time>
      </trkpt>
      <trkpt lat="45.08635" lon="6.42954">
        <ele>2166</ele>
        <time>2018-02-17T23:54:15Z</time>
      </trkpt>
      <trkpt lat="45.08611" lon="6.4298">
        <ele>2166</ele>
        <time>2018-02-17T23:55:15Z</time>
      </trkpt>
      <trkpt lat="45.08602" lon="6.42986">
        <ele>2166</ele>
        <time>2018-02-17T23:56:15Z</time>
      </trkpt>
      <trkpt lat="45.08587" lon="6.42991">
        <ele>2169</ele>
        <time>2018-02-17T23:57:15Z</time>
      </trkpt>
      <trkpt lat="45.08548" lon="6.42994">
        <ele>2171</ele>
        <time>2018-02-17T23:58:15Z</time>
      </trkpt>
      <trkpt lat="45.08531" lon="6.42989">
        <ele>2173</ele>
        <time>2018-02-17T23:59:15Z</time>
      </trkpt>
      <trkpt lat="45.08512" lon="6.42977">
        <ele>2176</ele>
        <time>2018-02-18T00:00:15Z</time>
      </trkpt>
      <trkpt lat="45.08506" lon="6.42971">
        <ele>2176</ele>
        <time>2018-02-18T00:01:15Z</time>
      </trkpt>
      <trkpt lat="45.08499" lon="6.4295">
        <ele>2179</ele>
        <time>2018-02-18T00:02:15Z</time>
      </trkpt>
      <trkpt lat="45.08494" lon="6.42931">
        <ele>2180</ele>
        <time>2018-02-18T00:03:15Z</time>
      </trkpt>
      <trkpt lat="45.0849" lon="6.42917">
        <ele>2182</ele>
        <time>2018-02-18T00:04:15Z</time>
      </trkpt>
      <trkpt lat="45.08467" lon="6.42884">
        <ele>2186</ele>
        <time>2018-02-18T00:05:15Z</time>
      </trkpt>
      <trkpt lat="45.08425" lon="6.42802">
        <ele>2198</ele>
        <time>2018-02-18T00:06:15Z</time>
      </trkpt>
      <trkpt lat="45.08417" lon="6.42792">
        <ele>2200</ele>
        <time>2018-02-18T00:07:15Z</time>
      </trkpt>
      <trkpt lat="45.08374" lon="6.42767">
        <ele>2203</ele>
        <time>2018-02-18T00:08:15Z</time>
      </trkpt>
      <trkpt lat="45.08346" lon="6.42731">
        <ele>2209</ele>
        <time>2018-02-18T00:09:15Z</time>
      </trkpt>
      <trkpt lat="45.08338" lon="6.42724">
        <ele>2210</ele>
        <time>2018-02-18T00:10:15Z</time>
      </trkpt>
      <trkpt lat="45.08281" lon="6.42698">
        <ele>2217</ele>
        <time>2018-02-18T00:11:15Z</time>
      </trkpt>
      <trkpt lat="45.08241" lon="6.42682">
        <ele>2221</ele>
        <time>2018-02-18T00:12:15Z</time>
      </trkpt>
      <trkpt lat="45.08106" lon="6.42597">
        <ele>2242</ele>
        <time>2018-02-18T00:13:15Z</time>
      </trkpt>
      <trkpt lat="45.08092" lon="6.42592">
        <ele>2243</ele>
        <time>2018-02-18T00:14:15Z</time>
      </trkpt>
      <trkpt lat="45.08086" lon="6.42592">
        <ele>2242</ele>
        <time>2018-02-18T00:15:15Z</time>
      </trkpt>
      <trkpt lat="45.08072" lon="6.42601">
        <ele>2242</ele>
        <time>2018-02-18T00:16:15Z</time>
      </trkpt>
      <trkpt lat="45.08065" lon="6.42609">
        <ele>2241</ele>
        <time>2018-02-18T00:17:15Z</time>
      </trkpt>
      <trkpt lat="45.08041" lon="6.42645">
        <ele>2238</ele>
        <time>2018-02-18T00:18:15Z</time>
      </trkpt>
      <trkpt lat="45.08027" lon="6.42654">
        <ele>2239</ele>
        <time>2018-02-18T00:19:15Z</time>
      </trkpt>
      <trkpt lat="45.07971" lon="6.42669">
        <ele>2245</ele>
        <time>2018-02-18T00:20:15Z</time>
      </trkpt>
      <trkpt lat="45.0796" lon="6.42668">
        <ele>2247</ele>
        <time>2018-02-18T00:21:15Z</time>
      </trkpt>
      <trkpt lat="45.0795" lon="6.42662">
        <ele>2248</ele>
        <time>2018-02-18T00:22:15Z</time>
      </trkpt>
      <trkpt lat="45.07907" lon="6.42625">
        <ele>2256</ele>
        <time>2018-02-18T00:23:15Z</time>
      </trkpt>
      <trkpt lat="45.07806" lon="6.42531">
        <ele>2271</ele>
        <time>2018-02-18T00:24:15Z</time>
      </trkpt>
      <trkpt lat="45.07794" lon="6.42516">
        <ele>2272</ele>
        <time>2018-02-18T00:25:15Z</time>
      </trkpt>
      <trkpt lat="45.0779" lon="6.42508">
        <ele>2273</ele>
        <time>2018-02-18T00:26:15Z</time>
      </trkpt>
      <trkpt lat="45.07787" lon="6.42496">
        <ele>2274</ele>
        <time>2018-02-18T00:27:15Z</time>
      </trkpt>
      <trkpt lat="45.07787" lon="6.42488">
        <ele>2274</ele>
        <time>2018-02-18T00:28:15Z</time>
      </trkpt>
      <trkpt lat="45.07789" lon="6.42478">
        <ele>2275</ele>
        <time>2018-02-18T00:29:15Z</time>
      </trkpt>
      <trkpt lat="45.07793" lon="6.42472">
        <ele>2275</ele>
        <time>2018-02-18T00:30:15Z</time>
      </trkpt>
      <trkpt lat="45.07803" lon="6.42464">
        <ele>2276</ele>
        <time>2018-02-18T00:31:15Z</time>
      </trkpt>
      <trkpt lat="45.07824" lon="6.42452">
        <ele>2277</ele>
        <time>2018-02-18T00:32:15Z</time>
      </trkpt>
      <trkpt lat="45.07872" lon="6.42385">
        <ele>2286</ele>
        <time>2018-02-18T00:33:15Z</time>
      </trkpt>
      <trkpt lat="45.0788" lon="6.42368">
        <ele>2288</ele>
        <time>2018-02-18T00:34:15Z</time>
      </trkpt>
      <trkpt lat="45.07888" lon="6.42307">
        <ele>2293</ele>
        <time>2018-02-18T00:35:15Z</time>
      </trkpt>
      <trkpt lat="45.07892" lon="6.42285">
        <ele>2294</ele>
        <time>2018-02-18T00:36:15Z</time>
      </trkpt>
      <trkpt lat="45.07901" lon="6.42267">
        <ele>2295</ele>
        <time>2018-02-18T00:37:15Z</time>
      </trkpt>
      <trkpt lat="45.0791" lon="6.42252">
        <ele>2295</ele>
        <time>2018-02-18T00:38:15Z</time>
      </trkpt>
      <trkpt lat="45.07955" lon="6.42192">
        <ele>2301</ele>
        <time>2018-02-18T00:39:15Z</time>
      </trkpt>
      <trkpt lat="45.07962" lon="6.42185">
        <ele>2302</ele>
        <time>2018-02-18T00:40:15Z</time>
      </trkpt>
      <trkpt lat="45.07969" lon="6.42183">
        <ele>2303</ele>
        <time>2018-02-18T00:41:15Z</time>
      </trkpt>
      <trkpt lat="45.0798" lon="6.42187">
        <ele>2304</ele>
        <time>2018-02-18T00:42:15Z</time>
      </trkpt>
      <trkpt lat="45.07988" lon="6.42199">
        <ele>2304</ele>
        <time>2018-02-18T00:43:15Z</time>
      </trkpt>
      <trkpt lat="45.07992" lon="6.42211">
        <ele>2304</ele>
        <time>2018-02-18T00:44:15Z</time>
      </trkpt>
      <trkpt lat="45.07994" lon="6.42223">
        <ele>2304</ele>
        <time>2018-02-18T00:45:15Z</time>
      </trkpt>
      <trkpt lat="45.07994" lon="6.42246">
        <ele>2303</ele>
        <time>2018-02-18T00:46:15Z</time>
      </trkpt>
      <trkpt lat="45.07997" lon="6.42253">
        <ele>2304</ele>
        <time>2018-02-18T00:47:15Z</time>
      </trkpt>
      <trkpt lat="45.08011" lon="6.4227">
        <ele>2308</ele>
        <time>2018-02-18T00:48:15Z</time>
      </trkpt>
      <trkpt lat="45.08019" lon="6.42283">
        <ele>2311</ele>
        <time>2018-02-18T00:49:15Z</time>
      </trkpt>
      <trkpt lat="45.08023" lon="6.42298">
        <ele>2313</ele>
        <time>2018-02-18T00:50:15Z</time>
      </trkpt>
      <trkpt lat="45.08026" lon="6.4232">
        <ele>2314</ele>
        <time>2018-02-18T00:51:15Z</time>
      </trkpt>
      <trkpt lat="45.08015" lon="6.42371">
        <ele>2307</ele>
        <time>2018-02-18T00:52:15Z</time>
      </trkpt>
      <trkpt lat="45.08016" lon="6.42382">
        <ele>2306</ele>
        <time>2018-02-18T00:53:15Z</time>
      </trkpt>
      <trkpt lat="45.08021" lon="6.42388">
        <ele>2307</ele>
        <time>2018-02-18T00:54:15Z</time>
      </trkpt>
      <trkpt lat="45.08029" lon="6.4239">
        <ele>2309</ele>
        <time>2018-02-18T00:55:15Z</time>
      </trkpt>
      <trkpt lat="45.08033" lon="6.42388">
        <ele>2311</ele>
        <time>2018-02-18T00:56:15Z</time>
      </trkpt>
      <trkpt lat="45.08037" lon="6.42381">
        <ele>2313</ele>
        <time>2018-02-18T00:57:15Z</time>
      </trkpt>
      <trkpt lat="45.0804" lon="6.42344">
        <ele>2318</ele>
        <time>2018-02-18T00:58:15Z</time>
      </trkpt>
      <trkpt lat="45.08054" lon="6.42281">
        <ele>2322</ele>
        <time>2018-02-18T00:59:15Z</time>
      </trkpt>
      <trkpt lat="45.08063" lon="6.42248">
        <ele>2322</ele>
        <time>2018-02-18T01:00:15Z</time>
      </trkpt>
      <trkpt lat="45.08083" lon="6.42196">
        <ele>2326</ele>
        <time>2018-02-18T01:01:15Z</time>
      </trkpt>
      <trkpt lat="45.08089" lon="6.42177">
        <ele>2327</ele>
        <time>2018-02-18T01:02:15Z</time>
      </trkpt>
      <trkpt lat="45.08097" lon="6.42124">
        <ele>2330</ele>
        <time>2018-02-18T01:03:15Z</time>
      </trkpt>
      <trkpt lat="45.08105" lon="6.42085">
        <ele>2333</ele>
        <time>2018-02-18T01:04:15Z</time>
      </trkpt>
      <trkpt lat="45.08106" lon="6.42069">
        <ele>2334</ele>
        <time>2018-02-18T01:05:15Z</time>
      </trkpt>
      <trkpt lat="45.08104" lon="6.4205">
        <ele>2335</ele>
        <time>2018-02-18T01:06:15Z</time>
      </trkpt>
      <trkpt lat="45.08083" lon="6.41937">
        <ele>2338</ele>
        <time>2018-02-18T01:07:15Z</time>
      </trkpt>
      <trkpt lat="45.0808" lon="6.41908">
        <ele>2340</ele>
        <time>2018-02-18T01:08:15Z</time>
      </trkpt>
      <trkpt lat="45.08076" lon="6.41774">
        <ele>2351</ele>
        <time>2018-02-18T01:09:15Z</time>
      </trkpt>
      <trkpt lat="45.08074" lon="6.41744">
        <ele>2355</ele>
        <time>2018-02-18T01:10:15Z</time>
      </trkpt>
      <trkpt lat="45.08067" lon="6.41721">
        <ele>2357</ele>
        <time>2018-02-18T01:11:15Z</time>
      </trkpt>
      <trkpt lat="45.08059" lon="6.41701">
        <ele>2359</ele>
        <time>2018-02-18T01:12:15Z</time>
      </trkpt>
      <trkpt lat="45.08047" lon="6.41681">
        <ele>2360</ele>
        <time>2018-02-18T01:13:15Z</time>
      </trkpt>
      <trkpt lat="45.08037" lon="6.41668">
        <ele>2360</ele>
        <time>2018-02-18T01:14:15Z</time>
      </trkpt>
      <trkpt lat="45.07972" lon="6.41623">
        <ele>2359</ele>
        <time>2018-02-18T01:15:15Z</time>
      </trkpt>
      <trkpt lat="45.0796" lon="6.41613">
        <ele>2359</ele>
        <time>2018-02-18T01:16:15Z</time>
      </trkpt>
      <trkpt lat="45.07954" lon="6.41604">
        <ele>2360</ele>
        <time>2018-02-18T01:17:15Z</time>
      </trkpt>
      <trkpt lat="45.07928" lon="6.41554">
        <ele>2365</ele>
        <time>2018-02-18T01:18:15Z</time>
      </trkpt>
      <trkpt lat="45.07922" lon="6.41535">
        <ele>2367</ele>
        <time>2018-02-18T01:19:15Z</time>
      </trkpt>
      <trkpt lat="45.07916" lon="6.41496">
        <ele>2373</ele>
        <time>2018-02-18T01:20:15Z</time>
      </trkpt>
      <trkpt lat="45.07912" lon="6.41479">
        <ele>2376</ele>
        <time>2018-02-18T01:21:15Z</time>
      </trkpt>
      <trkpt lat="45.07885" lon="6.41428">
        <ele>2382</ele>
        <time>2018-02-18T01:22:15Z</time>
      </trkpt>
      <trkpt lat="45.07873" lon="6.4141">
        <ele>2384</ele>
        <time>2018-02-18T01:23:15Z</time>
      </trkpt>
      <trkpt lat="45.07755" lon="6.4131">
        <ele>2389</ele>
        <time>2018-02-18T01:24:15Z</time>
      </trkpt>
      <trkpt lat="45.07721" lon="6.41268">
        <ele>2395</ele>
        <time>2018-02-18T01:25:15Z</time>
      </trkpt>
      <trkpt lat="45.07659" lon="6.41212">
        <ele>2400</ele>
        <time>2018-02-18T01:26:15Z</time>
      </trkpt>
      <trkpt lat="45.07627" lon="6.41191">
        <ele>2403</ele>
        <time>2018-02-18T01:27:15Z</time>
      </trkpt>
      <trkpt lat="45.07615" lon="6.41188">
        <ele>2403</ele>
        <time>2018-02-18T01:28:15Z</time>
      </trkpt>
      <trkpt lat="45.07609" lon="6.4119">
        <ele>2403</ele>
        <time>2018-02-18T01:29:15Z</time>
      </trkpt>
      <trkpt lat="45.07601" lon="6.41198">
        <ele>2402</ele>
        <time>2018-02-18T01:30:15Z</time>
      </trkpt>
      <trkpt lat="45.07595" lon="6.41212">
        <ele>2401</ele>
        <time>2018-02-18T01:31:15Z</time>
      </trkpt>
      <trkpt lat="45.07594" lon="6.41238">
        <ele>2399</ele>
        <time>2018-02-18T01:32:15Z</time>
      </trkpt>
      <trkpt lat="45.07592" lon="6.41246">
        <ele>2399</ele>
        <time>2018-02-18T01:33:15Z</time>
      </trkpt>
      <trkpt lat="45.07585" lon="6.41258">
        <ele>2399</ele>
        <time>2018-02-18T01:34:15Z</time>
      </trkpt>
      <trkpt lat="45.07571" lon="6.41271">
        <ele>2402</ele>
        <time>2018-02-18T01:35:15Z</time>
      </trkpt>
      <trkpt lat="45.07511" lon="6.41317">
        <ele>2412</ele>
        <time>2018-02-18T01:36:15Z</time>
      </trkpt>
      <trkpt lat="45.07502" lon="6.41322">
        <ele>2414</ele>
        <time>2018-02-18T01:37:15Z</time>
      </trkpt>
      <trkpt lat="45.07487" lon="6.41326">
        <ele>2415</ele>
        <time>2018-02-18T01:38:15Z</time>
      </trkpt>
      <trkpt lat="45.07418" lon="6.41334">
        <ele>2423</ele>
        <time>2018-02-18T01:39:15Z</time>
      </trkpt>
      <trkpt lat="45.0741" lon="6.41329">
        <ele>2424</ele>
        <time>2018-02-18T01:40:15Z</time>
      </trkpt>
      <trkpt lat="45.07403" lon="6.41322">
        <ele>2424</ele>
        <time>2018-02-18T01:41:15Z</time>
      </trkpt>
      <trkpt lat="45.07389" lon="6.41297">
        <ele>2427</ele>
        <time>2018-02-18T01:42:15Z</time>
      </trkpt>
      <trkpt lat="45.0738" lon="6.41284">
        <ele>2428</ele>
        <time>2018-02-18T01:43:15Z</time>
      </trkpt>
      <trkpt lat="45.07368" lon="6.41278">
        <ele>2429</ele>
        <time>2018-02-18T01:44:15Z</time>
      </trkpt>
      <trkpt lat="45.0736" lon="6.41277">
        <ele>2430</ele>
        <time>2018-02-18T01:45:15Z</time>
      </trkpt>
      <trkpt lat="45.07345" lon="6.41279">
        <ele>2431</ele>
        <time>2018-02-18T01:46:15Z</time>
      </trkpt>
      <trkpt lat="45.07322" lon="6.41285">
        <ele>2433</ele>
        <time>2018-02-18T01:47:15Z</time>
      </trkpt>
      <trkpt lat="45.07289" lon="6.41285">
        <ele>2437</ele>
        <time>2018-02-18T01:48:15Z</time>
      </trkpt>
      <trkpt lat="45.07236" lon="6.41301">
        <ele>2442</ele>
        <time>2018-02-18T01:49:15Z</time>
      </trkpt>
      <trkpt lat="45.07223" lon="6.41302">
        <ele>2443</ele>
        <time>2018-02-18T01:50:15Z</time>
      </trkpt>
      <trkpt lat="45.07217" lon="6.41298">
        <ele>2444</ele>
        <time>2018-02-18T01:51:15Z</time>
      </trkpt>
      <trkpt lat="45.07213" lon="6.41292">
        <ele>2445</ele>
        <time>2018-02-18T01:52:15Z</time>
      </trkpt>
      <trkpt lat="45.07209" lon="6.41281">
        <ele>2446</ele>
        <time>2018-02-18T01:53:15Z</time>
      </trkpt>
      <trkpt lat="45.07207" lon="6.41272">
        <ele>2447</ele>
        <time>2018-02-18T01:54:15Z</time>
      </trkpt>
      <trkpt lat="45.07207" lon="6.41258">
        <ele>2448</ele>
        <time>2018-02-18T01:55:15Z</time>
      </trkpt>
      <trkpt lat="45.07213" lon="6.41197">
        <ele>2448</ele>
        <time>2018-02-18T01:56:15Z</time>
      </trkpt>
      <trkpt lat="45.07212" lon="6.41186">
        <ele>2448</ele>
        <time>2018-02-18T01:57:15Z</time>
      </trkpt>
      <trkpt lat="45.07207" lon="6.41176">
        <ele>2449</ele>
        <time>2018-02-18T01:58:15Z</time>
      </trkpt>
      <trkpt lat="45.07195" lon="6.41165">
        <ele>2451</ele>
        <time>2018-02-18T01:59:15Z</time>
      </trkpt>
      <trkpt lat="45.07181" lon="6.4116">
        <ele>2453</ele>
        <time>2018-02-18T02:00:15Z</time>
      </trkpt>
      <trkpt lat="45.07101" lon="6.41147">
        <ele>2458</ele>
        <time>2018-02-18T02:01:15Z</time>
      </trkpt>
      <trkpt lat="45.07026" lon="6.41094">
        <ele>2463</ele>
        <time>2018-02-18T02:02:15Z</time>
      </trkpt>
      <trkpt lat="45.07015" lon="6.41089">
        <ele>2466</ele>
        <time>2018-02-18T02:03:15Z</time>
      </trkpt>
      <trkpt lat="45.06987" lon="6.41084">
        <ele>2469</ele>
        <time>2018-02-18T02:04:15Z</time>
      </trkpt>
      <trkpt lat="45.06959" lon="6.41077">
        <ele>2468</ele>
        <time>2018-02-18T02:05:15Z</time>
      </trkpt>
      <trkpt lat="45.06924" lon="6.41057">
        <ele>2470</ele>
        <time>2018-02-18T02:06:15Z</time>
      </trkpt>
      <trkpt lat="45.0692" lon="6.41047">
        <ele>2471</ele>
        <time>2018-02-18T02:07:15Z</time>
      </trkpt>
      <trkpt lat="45.06919" lon="6.41039">
        <ele>2472</ele>
        <time>2018-02-18T02:08:15Z</time>
      </trkpt>
      <trkpt lat="45.0692" lon="6.41028">
        <ele>2473</ele>
        <time>2018-02-18T02:09:15Z</time>
      </trkpt>
      <trkpt lat="45.06928" lon="6.40999">
        <ele>2473</ele>
        <time>2018-02-18T02:10:15Z</time>
      </trkpt>
      <trkpt lat="45.06927" lon="6.40989">
        <ele>2474</ele>
        <time>2018-02-18T02:11:15Z</time>
      </trkpt>
      <trkpt lat="45.06925" lon="6.40981">
        <ele>2474</ele>
        <time>2018-02-18T02:12:15Z</time>
      </trkpt>
      <trkpt lat="45.0692" lon="6.40976">
        <ele>2476</ele>
        <time>2018-02-18T02:13:15Z</time>
      </trkpt>
      <trkpt lat="45.06915" lon="6.40974">
        <ele>2478</ele>
        <time>2018-02-18T02:14:15Z</time>
      </trkpt>
      <trkpt lat="45.0691" lon="6.40977">
        <ele>2478</ele>
        <time>2018-02-18T02:15:15Z</time>
      </trkpt>
      <trkpt lat="45.0689" lon="6.40994">
        <ele>2481</ele>
        <time>2018-02-18T02:16:15Z</time>
      </trkpt>
      <trkpt lat="45.06854" lon="6.41001">
        <ele>2487</ele>
        <time>2018-02-18T02:17:15Z</time>
      </trkpt>
      <trkpt lat="45.0684" lon="6.4101">
        <ele>2489</ele>
        <time>2018-02-18T02:18:15Z</time>
      </trkpt>
      <trkpt lat="45.06823" lon="6.41031">
        <ele>2494</ele>
        <time>2018-02-18T02:19:15Z</time>
      </trkpt>
      <trkpt lat="45.06819" lon="6.41043">
        <ele>2496</ele>
        <time>2018-02-18T02:20:15Z</time>
      </trkpt>
      <trkpt lat="45.06819" lon="6.41081">
        <ele>2495</ele>
        <time>2018-02-18T02:21:15Z</time>
      </trkpt>
      <trkpt lat="45.06817" lon="6.41089">
        <ele>2496</ele>
        <time>2018-02-18T02:22:15Z</time>
      </trkpt>
      <trkpt lat="45.06815" lon="6.41093">
        <ele>2497</ele>
        <time>2018-02-18T02:23:15Z</time>
      </trkpt>
      <trkpt lat="45.06806" lon="6.41093">
        <ele>2501</ele>
        <time>2018-02-18T02:24:15Z</time>
      </trkpt>
      <trkpt lat="45.06798" lon="6.41087">
        <ele>2505</ele>
        <time>2018-02-18T02:25:15Z</time>
      </trkpt>
      <trkpt lat="45.06796" lon="6.41078">
        <ele>2505</ele>
        <time>2018-02-18T02:26:15Z</time>
      </trkpt>
      <trkpt lat="45.06795" lon="6.41066">
        <ele>2506</ele>
        <time>2018-02-18T02:27:15Z</time>
      </trkpt>
      <trkpt lat="45.06798" lon="6.41054">
        <ele>2505</ele>
        <time>2018-02-18T02:28:15Z</time>
      </trkpt>
      <trkpt lat="45.068" lon="6.41034">
        <ele>2504</ele>
        <time>2018-02-18T02:29:15Z</time>
      </trkpt>
      <trkpt lat="45.06804" lon="6.40958">
        <ele>2506</ele>
        <time>2018-02-18T02:30:15Z</time>
      </trkpt>
      <trkpt lat="45.06806" lon="6.40948">
        <ele>2507</ele>
        <time>2018-02-18T02:31:15Z</time>
      </trkpt>
      <trkpt lat="45.06812" lon="6.40938">
        <ele>2506</ele>
        <time>2018-02-18T02:32:15Z</time>
      </trkpt>
      <trkpt lat="45.06821" lon="6.40931">
        <ele>2503</ele>
        <time>2018-02-18T02:33:15Z</time>
      </trkpt>
      <trkpt lat="45.06843" lon="6.40925">
        <ele>2498</ele>
        <time>2018-02-18T02:34:15Z</time>
      </trkpt>
      <trkpt lat="45.06849" lon="6.40922">
        <ele>2496</ele>
        <time>2018-02-18T02:35:15Z</time>
      </trkpt>
      <trkpt lat="45.06855" lon="6.40914">
        <ele>2495</ele>
        <time>2018-02-18T02:36:15Z</time>
      </trkpt>
      <trkpt lat="45.06858" lon="6.40905">
        <ele>2494</ele>
        <time>2018-02-18T02:37:15Z</time>
      </trkpt>
      <trkpt lat="45.06858" lon="6.40895">
        <ele>2493</ele>
        <time>2018-02-18T02:38:15Z</time>
      </trkpt>
      <trkpt lat="45.06856" lon="6.40884">
        <ele>2493</ele>
        <time>2018-02-18T02:39:15Z</time>
      </trkpt>
      <trkpt lat="45.06847" lon="6.4087">
        <ele>2495</ele>
        <time>2018-02-18T02:40:15Z</time>
      </trkpt>
      <trkpt lat="45.06835" lon="6.40864">
        <ele>2499</ele>
        <time>2018-02-18T02:41:15Z</time>
      </trkpt>
      <trkpt lat="45.0682" lon="6.40866">
        <ele>2504</ele>
        <time>2018-02-18T02:42:15Z</time>
      </trkpt>
      <trkpt lat="45.06807" lon="6.40871">
        <ele>2508</ele>
        <time>2018-02-18T02:43:15Z</time>
      </trkpt>
      <trkpt lat="45.06761" lon="6.40897">
        <ele>2523</ele>
        <time>2018-02-18T02:44:15Z</time>
      </trkpt>
      <trkpt lat="45.06754" lon="6.40905">
        <ele>2526</ele>
        <time>2018-02-18T02:45:15Z</time>
      </trkpt>
      <trkpt lat="45.06746" lon="6.4093">
        <ele>2528</ele>
        <time>2018-02-18T02:46:15Z</time>
      </trkpt>
      <trkpt lat="45.06737" lon="6.40974">
        <ele>2530</ele>
        <time>2018-02-18T02:47:15Z</time>
      </trkpt>
      <trkpt lat="45.06731" lon="6.41023">
        <ele>2533</ele>
        <time>2018-02-18T02:48:15Z</time>
      </trkpt>
      <trkpt lat="45.0673" lon="6.4106">
        <ele>2536</ele>
        <time>2018-02-18T02:49:15Z</time>
      </trkpt>
      <trkpt lat="45.06729" lon="6.41066">
        <ele>2537</ele>
        <time>2018-02-18T02:50:15Z</time>
      </trkpt>
      <trkpt lat="45.06725" lon="6.41072">
        <ele>2539</ele>
        <time>2018-02-18T02:51:15Z</time>
      </trkpt>
      <trkpt lat="45.06716" lon="6.41076">
        <ele>2544</ele>
        <time>2018-02-18T02:52:15Z</time>
      </trkpt>
      <trkpt lat="45.06711" lon="6.41073">
        <ele>2546</ele>
        <time>2018-02-18T02:53:15Z</time>
      </trkpt>
      <trkpt lat="45.06707" lon="6.41067">
        <ele>2548</ele>
        <time>2018-02-18T02:54:15Z</time>
      </trkpt>
      <trkpt lat="45.06706" lon="6.41061">
        <ele>2547</ele>
        <time>2018-02-18T02:55:15Z</time>
      </trkpt>
      <trkpt lat="45.06703" lon="6.41024">
        <ele>2545</ele>
        <time>2018-02-18T02:56:15Z</time>
      </trkpt>
      <trkpt lat="45.06697" lon="6.40998">
        <ele>2545</ele>
        <time>2018-02-18T02:57:15Z</time>
      </trkpt>
      <trkpt lat="45.06693" lon="6.40966">
        <ele>2545</ele>
        <time>2018-02-18T02:58:15Z</time>
      </trkpt>
      <trkpt lat="45.06693" lon="6.40926">
        <ele>2544</ele>
        <time>2018-02-18T02:59:15Z</time>
      </trkpt>
      <trkpt lat="45.0669" lon="6.40911">
        <ele>2544</ele>
        <time>2018-02-18T03:00:15Z</time>
      </trkpt>
      <trkpt lat="45.06686" lon="6.40899">
        <ele>2545</ele>
        <time>2018-02-18T03:01:15Z</time>
      </trkpt>
      <trkpt lat="45.0668" lon="6.40892">
        <ele>2546</ele>
        <time>2018-02-18T03:02:15Z</time>
      </trkpt>
      <trkpt lat="45.06599" lon="6.40852">
        <ele>2566</ele>
        <time>2018-02-18T03:03:15Z</time>
      </trkpt>
      <trkpt lat="45.06233" lon="6.40657">
        <ele>2549</ele>
        <time>2018-02-18T03:04:15Z</time>
      </trkpt>
      <trkpt lat="45.06225" lon="6.40648">
        <ele>2547</ele>
        <time>2018-02-18T03:05:15Z</time>
      </trkpt>
      <trkpt lat="45.06189" lon="6.40583">
        <ele>2545</ele>
        <time>2018-02-18T03:06:15Z</time>
      </trkpt>
      <trkpt lat="45.0618" lon="6.40575">
        <ele>2544</ele>
        <time>2018-02-18T03:07:15Z</time>
      </trkpt>
      <trkpt lat="45.06171" lon="6.40573">
        <ele>2543</ele>
        <time>2018-02-18T03:08:15Z</time>
      </trkpt>
      <trkpt lat="45.06161" lon="6.40574">
        <ele>2541</ele>
        <time>2018-02-18T03:09:15Z</time>
      </trkpt>
      <trkpt lat="45.06151" lon="6.40585">
        <ele>2538</ele>
        <time>2018-02-18T03:10:15Z</time>
      </trkpt>
      <trkpt lat="45.06147" lon="6.40594">
        <ele>2536</ele>
        <time>2018-02-18T03:11:15Z</time>
      </trkpt>
      <trkpt lat="45.06144" lon="6.40607">
        <ele>2534</ele>
        <time>2018-02-18T03:12:15Z</time>
      </trkpt>
      <trkpt lat="45.06146" lon="6.40623">
        <ele>2533</ele>
        <time>2018-02-18T03:13:15Z</time>
      </trkpt>
      <trkpt lat="45.06155" lon="6.40641">
        <ele>2532</ele>
        <time>2018-02-18T03:14:15Z</time>
      </trkpt>
      <trkpt lat="45.06163" lon="6.40653">
        <ele>2533</ele>
        <time>2018-02-18T03:15:15Z</time>
      </trkpt>
      <trkpt lat="45.06192" lon="6.40687">
        <ele>2536</ele>
        <time>2018-02-18T03:16:15Z</time>
      </trkpt>
      <trkpt lat="45.06235" lon="6.40713">
        <ele>2544</ele>
        <time>2018-02-18T03:17:15Z</time>
      </trkpt>
      <trkpt lat="45.06245" lon="6.40726">
        <ele>2546</ele>
        <time>2018-02-18T03:18:15Z</time>
      </trkpt>
      <trkpt lat="45.06249" lon="6.40739">
        <ele>2546</ele>
        <time>2018-02-18T03:19:15Z</time>
      </trkpt>
      <trkpt lat="45.06251" lon="6.40757">
        <ele>2547</ele>
        <time>2018-02-18T03:20:15Z</time>
      </trkpt>
      <trkpt lat="45.06247" lon="6.40773">
        <ele>2547</ele>
        <time>2018-02-18T03:21:15Z</time>
      </trkpt>
      <trkpt lat="45.0624" lon="6.40787">
        <ele>2547</ele>
        <time>2018-02-18T03:22:15Z</time>
      </trkpt>
      <trkpt lat="45.06228" lon="6.40799">
        <ele>2544</ele>
        <time>2018-02-18T03:23:15Z</time>
      </trkpt>
      <trkpt lat="45.06173" lon="6.40833">
        <ele>2526</ele>
        <time>2018-02-18T03:24:15Z</time>
      </trkpt>
      <trkpt lat="45.06162" lon="6.40847">
        <ele>2523</ele>
        <time>2018-02-18T03:25:15Z</time>
      </trkpt>
      <trkpt lat="45.06153" lon="6.40866">
        <ele>2521</ele>
        <time>2018-02-18T03:26:15Z</time>
      </trkpt>
      <trkpt lat="45.06148" lon="6.40885">
        <ele>2521</ele>
        <time>2018-02-18T03:27:15Z</time>
      </trkpt>
      <trkpt lat="45.06149" lon="6.4094">
        <ele>2530</ele>
        <time>2018-02-18T03:28:15Z</time>
      </trkpt>
      <trkpt lat="45.06148" lon="6.40956">
        <ele>2532</ele>
        <time>2018-02-18T03:29:15Z</time>
      </trkpt>
      <trkpt lat="45.06143" lon="6.40967">
        <ele>2532</ele>
        <time>2018-02-18T03:30:15Z</time>
      </trkpt>
      <trkpt lat="45.06085" lon="6.41063">
        <ele>2519</ele>
        <time>2018-02-18T03:31:15Z</time>
      </trkpt>
      <trkpt lat="45.06078" lon="6.41078">
        <ele>2519</ele>
        <time>2018-02-18T03:32:15Z</time>
      </trkpt>
      <trkpt lat="45.06072" lon="6.41096">
        <ele>2519</ele>
        <time>2018-02-18T03:33:15Z</time>
      </trkpt>
      <trkpt lat="45.06063" lon="6.41145">
        <ele>2523</ele>
        <time>2018-02-18T03:34:15Z</time>
      </trkpt>
      <trkpt lat="45.06057" lon="6.41158">
        <ele>2522</ele>
        <time>2018-02-18T03:35:15Z</time>
      </trkpt>
      <trkpt lat="45.06049" lon="6.41163">
        <ele>2519</ele>
        <time>2018-02-18T03:36:15Z</time>
      </trkpt>
      <trkpt lat="45.06043" lon="6.41164">
        <ele>2517</ele>
        <time>2018-02-18T03:37:15Z</time>
      </trkpt>
      <trkpt lat="45.06034" lon="6.41157">
        <ele>2512</ele>
        <time>2018-02-18T03:38:15Z</time>
      </trkpt>
      <trkpt lat="45.06029" lon="6.41145">
        <ele>2509</ele>
        <time>2018-02-18T03:39:15Z</time>
      </trkpt>
      <trkpt lat="45.06029" lon="6.41131">
        <ele>2507</ele>
        <time>2018-02-18T03:40:15Z</time>
      </trkpt>
      <trkpt lat="45.06036" lon="6.41113">
        <ele>2507</ele>
        <time>2018-02-18T03:41:15Z</time>
      </trkpt>
      <trkpt lat="45.06072" lon="6.41042">
        <ele>2511</ele>
        <time>2018-02-18T03:42:15Z</time>
      </trkpt>
      <trkpt lat="45.06086" lon="6.41009">
        <ele>2511</ele>
        <time>2018-02-18T03:43:15Z</time>
      </trkpt>
      <trkpt lat="45.06092" lon="6.40983">
        <ele>2510</ele>
        <time>2018-02-18T03:44:15Z</time>
      </trkpt>
      <trkpt lat="45.06094" lon="6.4096">
        <ele>2508</ele>
        <time>2018-02-18T03:45:15Z</time>
      </trkpt>
      <trkpt lat="45.06093" lon="6.40888">
        <ele>2499</ele>
        <time>2018-02-18T03:46:15Z</time>
      </trkpt>
      <trkpt lat="45.06093" lon="6.40857">
        <ele>2496</ele>
        <time>2018-02-18T03:47:15Z</time>
      </trkpt>
      <trkpt lat="45.06102" lon="6.40784">
        <ele>2500</ele>
        <time>2018-02-18T03:48:15Z</time>
      </trkpt>
      <trkpt lat="45.06102" lon="6.40762">
        <ele>2501</ele>
        <time>2018-02-18T03:49:15Z</time>
      </trkpt>
      <trkpt lat="45.06096" lon="6.40741">
        <ele>2501</ele>
        <time>2018-02-18T03:50:15Z</time>
      </trkpt>
      <trkpt lat="45.06084" lon="6.4072">
        <ele>2502</ele>
        <time>2018-02-18T03:51:15Z</time>
      </trkpt>
      <trkpt lat="45.06071" lon="6.40708">
        <ele>2501</ele>
        <time>2018-02-18T03:52:15Z</time>
      </trkpt>
      <trkpt lat="45.06012" lon="6.40689">
        <ele>2494</ele>
        <time>2018-02-18T03:53:15Z</time>
      </trkpt>
      <trkpt lat="45.05992" lon="6.40688">
        <ele>2492</ele>
        <time>2018-02-18T03:54:15Z</time>
      </trkpt>
      <trkpt lat="45.05959" lon="6.40695">
        <ele>2493</ele>
        <time>2018-02-18T03:55:15Z</time>
      </trkpt>
      <trkpt lat="45.05928" lon="6.40706">
        <ele>2490</ele>
        <time>2018-02-18T03:56:15Z</time>
      </trkpt>
      <trkpt lat="45.05911" lon="6.40716">
        <ele>2487</ele>
        <time>2018-02-18T03:57:15Z</time>
      </trkpt>
      <trkpt lat="45.05892" lon="6.40724">
        <ele>2486</ele>
        <time>2018-02-18T03:58:15Z</time>
      </trkpt>
      <trkpt lat="45.05846" lon="6.40737">
        <ele>2485</ele>
        <time>2018-02-18T03:59:15Z</time>
      </trkpt>
      <trkpt lat="45.05768" lon="6.40779">
        <ele>2477</ele>
        <time>2018-02-18T04:00:15Z</time>
      </trkpt>
      <trkpt lat="45.0574" lon="6.40787">
        <ele>2477</ele>
        <time>2018-02-18T04:01:15Z</time>
      </trkpt>
      <trkpt lat="45.05721" lon="6.40798">
        <ele>2473</ele>
        <time>2018-02-18T04:02:15Z</time>
      </trkpt>
      <trkpt lat="45.05708" lon="6.40816">
        <ele>2467</ele>
        <time>2018-02-18T04:03:15Z</time>
      </trkpt>
      <trkpt lat="45.05693" lon="6.40855">
        <ele>2453</ele>
        <time>2018-02-18T04:04:15Z</time>
      </trkpt>
      <trkpt lat="45.05683" lon="6.40864">
        <ele>2451</ele>
        <time>2018-02-18T04:05:15Z</time>
      </trkpt>
      <trkpt lat="45.05671" lon="6.40867">
        <ele>2452</ele>
        <time>2018-02-18T04:06:15Z</time>
      </trkpt>
      <trkpt lat="45.05658" lon="6.40866">
        <ele>2453</ele>
        <time>2018-02-18T04:07:15Z</time>
      </trkpt>
      <trkpt lat="45.05616" lon="6.40858">
        <ele>2452</ele>
        <time>2018-02-18T04:08:15Z</time>
      </trkpt>
      <trkpt lat="45.05588" lon="6.40861">
        <ele>2448</ele>
        <time>2018-02-18T04:09:15Z</time>
      </trkpt>
      <trkpt lat="45.05577" lon="6.4086">
        <ele>2447</ele>
        <time>2018-02-18T04:10:15Z</time>
      </trkpt>
      <trkpt lat="45.05565" lon="6.40853">
        <ele>2446</ele>
        <time>2018-02-18T04:11:15Z</time>
      </trkpt>
      <trkpt lat="45.05547" lon="6.40831">
        <ele>2445</ele>
        <time>2018-02-18T04:12:15Z</time>
      </trkpt>
      <trkpt lat="45.05539" lon="6.40812">
        <ele>2444</ele>
        <time>2018-02-18T04:13:15Z</time>
      </trkpt>
      <trkpt lat="45.05525" lon="6.40759">
        <ele>2444</ele>
        <time>2018-02-18T04:14:15Z</time>
      </trkpt>
      <trkpt lat="45.05511" lon="6.40715">
        <ele>2445</ele>
        <time>2018-02-18T04:15:15Z</time>
      </trkpt>
      <trkpt lat="45.05496" lon="6.40676">
        <ele>2444</ele>
        <time>2018-02-18T04:16:15Z</time>
      </trkpt>
      <trkpt lat="45.0548" lon="6.4064">
        <ele>2444</ele>
        <time>2018-02-18T04:17:15Z</time>
      </trkpt>
      <trkpt lat="45.05444" lon="6.40579">
        <ele>2438</ele>
        <time>2018-02-18T04:18:15Z</time>
      </trkpt>
      <trkpt lat="45.0543" lon="6.4055">
        <ele>2435</ele>
        <time>2018-02-18T04:19:15Z</time>
      </trkpt>
      <trkpt lat="45.05384" lon="6.4042">
        <ele>2431</ele>
        <time>2018-02-18T04:20:15Z</time>
      </trkpt>
      <trkpt lat="45.0538" lon="6.40402">
        <ele>2429</ele>
        <time>2018-02-18T04:21:15Z</time>
      </trkpt>
      <trkpt lat="45.05381" lon="6.40366">
        <ele>2428</ele>
        <time>2018-02-18T04:22:15Z</time>
      </trkpt>
      <trkpt lat="45.05393" lon="6.40313">
        <ele>2432</ele>
        <time>2018-02-18T04:23:15Z</time>
      </trkpt>
      <trkpt lat="45.05392" lon="6.40291">
        <ele>2432</ele>
        <time>2018-02-18T04:24:15Z</time>
      </trkpt>
      <trkpt lat="45.05388" lon="6.40274">
        <ele>2431</ele>
        <time>2018-02-18T04:25:15Z</time>
      </trkpt>
      <trkpt lat="45.05382" lon="6.4026">
        <ele>2430</ele>
        <time>2018-02-18T04:26:15Z</time>
      </trkpt>
      <trkpt lat="45.05372" lon="6.40253">
        <ele>2427</ele>
        <time>2018-02-18T04:27:15Z</time>
      </trkpt>
      <trkpt lat="45.05363" lon="6.40253">
        <ele>2425</ele>
        <time>2018-02-18T04:28:15Z</time>
      </trkpt>
      <trkpt lat="45.05334" lon="6.40261">
        <ele>2416</ele>
        <time>2018-02-18T04:29:15Z</time>
      </trkpt>
      <trkpt lat="45.05326" lon="6.4026">
        <ele>2413</ele>
        <time>2018-02-18T04:30:15Z</time>
      </trkpt>
      <trkpt lat="45.05321" lon="6.40256">
        <ele>2412</ele>
        <time>2018-02-18T04:31:15Z</time>
      </trkpt>
      <trkpt lat="45.05314" lon="6.40244">
        <ele>2410</ele>
        <time>2018-02-18T04:32:15Z</time>
      </trkpt>
      <trkpt lat="45.0531" lon="6.40231">
        <ele>2409</ele>
        <time>2018-02-18T04:33:15Z</time>
      </trkpt>
      <trkpt lat="45.05308" lon="6.40211">
        <ele>2408</ele>
        <time>2018-02-18T04:34:15Z</time>
      </trkpt>
      <trkpt lat="45.05309" lon="6.40177">
        <ele>2410</ele>
        <time>2018-02-18T04:35:15Z</time>
      </trkpt>
      <trkpt lat="45.05308" lon="6.40161">
        <ele>2409</ele>
        <time>2018-02-18T04:36:15Z</time>
      </trkpt>
      <trkpt lat="45.05305" lon="6.40141">
        <ele>2408</ele>
        <time>2018-02-18T04:37:15Z</time>
      </trkpt>
      <trkpt lat="45.05286" lon="6.4006">
        <ele>2394</ele>
        <time>2018-02-18T04:38:15Z</time>
      </trkpt>
      <trkpt lat="45.05286" lon="6.40045">
        <ele>2393</ele>
        <time>2018-02-18T04:39:15Z</time>
      </trkpt>
      <trkpt lat="45.05295" lon="6.3999">
        <ele>2393</ele>
        <time>2018-02-18T04:40:15Z</time>
      </trkpt>
      <trkpt lat="45.05312" lon="6.39932">
        <ele>2397</ele>
        <time>2018-02-18T04:41:15Z</time>
      </trkpt>
      <trkpt lat="45.0532" lon="6.39896">
        <ele>2397</ele>
        <time>2018-02-18T04:42:15Z</time>
      </trkpt>
      <trkpt lat="45.05323" lon="6.39867">
        <ele>2393</ele>
        <time>2018-02-18T04:43:15Z</time>
      </trkpt>
      <trkpt lat="45.05332" lon="6.39725">
        <ele>2381</ele>
        <time>2018-02-18T04:44:15Z</time>
      </trkpt>
      <trkpt lat="45.05332" lon="6.39648">
        <ele>2379</ele>
        <time>2018-02-18T04:45:15Z</time>
      </trkpt>
      <trkpt lat="45.05329" lon="6.39593">
        <ele>2379</ele>
        <time>2018-02-18T04:46:15Z</time>
      </trkpt>
      <trkpt lat="45.05323" lon="6.39555">
        <ele>2378</ele>
        <time>2018-02-18T04:47:15Z</time>
      </trkpt>
      <trkpt lat="45.05296" lon="6.39448">
        <ele>2376</ele>
        <time>2018-02-18T04:48:15Z</time>
      </trkpt>
      <trkpt lat="45.0529" lon="6.39437">
        <ele>2374</ele>
        <time>2018-02-18T04:49:15Z</time>
      </trkpt>
      <trkpt lat="45.05281" lon="6.39428">
        <ele>2372</ele>
        <time>2018-02-18T04:50:15Z</time>
      </trkpt>
      <trkpt lat="45.05262" lon="6.39413">
        <ele>2367</ele>
        <time>2018-02-18T04:51:15Z</time>
      </trkpt>
      <trkpt lat="45.05245" lon="6.39396">
        <ele>2363</ele>
        <time>2018-02-18T04:52:15Z</time>
      </trkpt>
      <trkpt lat="45.05239" lon="6.39384">
        <ele>2363</ele>
        <time>2018-02-18T04:53:15Z</time>
      </trkpt>
      <trkpt lat="45.05229" lon="6.39329">
        <ele>2362</ele>
        <time>2018-02-18T04:54:15Z</time>
      </trkpt>
      <trkpt lat="45.05224" lon="6.39313">
        <ele>2361</ele>
        <time>2018-02-18T04:55:15Z</time>
      </trkpt>
      <trkpt lat="45.05218" lon="6.39301">
        <ele>2360</ele>
        <time>2018-02-18T04:56:15Z</time>
      </trkpt>
      <trkpt lat="45.0521" lon="6.3929">
        <ele>2358</ele>
        <time>2018-02-18T04:57:15Z</time>
      </trkpt>
      <trkpt lat="45.05173" lon="6.39258">
        <ele>2348</ele>
        <time>2018-02-18T04:58:15Z</time>
      </trkpt>
      <trkpt lat="45.05168" lon="6.3925">
        <ele>2346</ele>
        <time>2018-02-18T04:59:15Z</time>
      </trkpt>
      <trkpt lat="45.05165" lon="6.39241">
        <ele>2345</ele>
        <time>2018-02-18T05:00:15Z</time>
      </trkpt>
      <trkpt lat="45.05163" lon="6.39231">
        <ele>2343</ele>
        <time>2018-02-18T05:01:15Z</time>
      </trkpt>
      <trkpt lat="45.05166" lon="6.392">
        <ele>2342</ele>
        <time>2018-02-18T05:02:15Z</time>
      </trkpt>
      <trkpt lat="45.05191" lon="6.39111">
        <ele>2346</ele>
        <time>2018-02-18T05:03:15Z</time>
      </trkpt>
      <trkpt lat="45.05201" lon="6.39079">
        <ele>2347</ele>
        <time>2018-02-18T05:04:15Z</time>
      </trkpt>
      <trkpt lat="45.05212" lon="6.3906">
        <ele>2350</ele>
        <time>2018-02-18T05:05:15Z</time>
      </trkpt>
      <trkpt lat="45.05232" lon="6.39031">
        <ele>2353</ele>
        <time>2018-02-18T05:06:15Z</time>
      </trkpt>
      <trkpt lat="45.05237" lon="6.39021">
        <ele>2352</ele>
        <time>2018-02-18T05:07:15Z</time>
      </trkpt>
      <trkpt lat="45.05239" lon="6.3901">
        <ele>2351</ele>
        <time>2018-02-18T05:08:15Z</time>
      </trkpt>
      <trkpt lat="45.0524" lon="6.39">
        <ele>2350</ele>
        <time>2018-02-18T05:09:15Z</time>
      </trkpt>
      <trkpt lat="45.05236" lon="6.38981">
        <ele>2349</ele>
        <time>2018-02-18T05:10:15Z</time>
      </trkpt>
      <trkpt lat="45.05231" lon="6.38972">
        <ele>2349</ele>
        <time>2018-02-18T05:11:15Z</time>
      </trkpt>
      <trkpt lat="45.05214" lon="6.38954">
        <ele>2349</ele>
        <time>2018-02-18T05:12:15Z</time>
      </trkpt>
      <trkpt lat="45.05206" lon="6.3895">
        <ele>2349</ele>
        <time>2018-02-18T05:13:15Z</time>
      </trkpt>
      <trkpt lat="45.05198" lon="6.38948">
        <ele>2349</ele>
        <time>2018-02-18T05:14:15Z</time>
      </trkpt>
      <trkpt lat="45.05186" lon="6.38951">
        <ele>2349</ele>
        <time>2018-02-18T05:15:15Z</time>
      </trkpt>
      <trkpt lat="45.05176" lon="6.38963">
        <ele>2348</ele>
        <time>2018-02-18T05:16:15Z</time>
      </trkpt>
      <trkpt lat="45.05116" lon="6.3908">
        <ele>2339</ele>
        <time>2018-02-18T05:17:15Z</time>
      </trkpt>
      <trkpt lat="45.05102" lon="6.39101">
        <ele>2336</ele>
        <time>2018-02-18T05:18:15Z</time>
      </trkpt>
      <trkpt lat="45.05094" lon="6.39112">
        <ele>2335</ele>
        <time>2018-02-18T05:19:15Z</time>
      </trkpt>
      <trkpt lat="45.05034" lon="6.39177">
        <ele>2330</ele>
        <time>2018-02-18T05:20:15Z</time>
      </trkpt>
      <trkpt lat="45.05015" lon="6.39201">
        <ele>2329</ele>
        <time>2018-02-18T05:21:15Z</time>
      </trkpt>
      <trkpt lat="45.05009" lon="6.39216">
        <ele>2327</ele>
        <time>2018-02-18T05:22:15Z</time>
      </trkpt>
      <trkpt lat="45.05006" lon="6.3923">
        <ele>2326</ele>
        <time>2018-02-18T05:23:15Z</time>
      </trkpt>
      <trkpt lat="45.05006" lon="6.39249">
        <ele>2322</ele>
        <time>2018-02-18T05:24:15Z</time>
      </trkpt>
      <trkpt lat="45.0501" lon="6.39296">
        <ele>2315</ele>
        <time>2018-02-18T05:25:15Z</time>
      </trkpt>
      <trkpt lat="45.05011" lon="6.39325">
        <ele>2310</ele>
        <time>2018-02-18T05:26:15Z</time>
      </trkpt>
      <trkpt lat="45.05008" lon="6.39338">
        <ele>2308</ele>
        <time>2018-02-18T05:27:15Z</time>
      </trkpt>
      <trkpt lat="45.05002" lon="6.39348">
        <ele>2305</ele>
        <time>2018-02-18T05:28:15Z</time>
      </trkpt>
      <trkpt lat="45.04994" lon="6.39354">
        <ele>2305</ele>
        <time>2018-02-18T05:29:15Z</time>
      </trkpt>
      <trkpt lat="45.04948" lon="6.3938">
        <ele>2309</ele>
        <time>2018-02-18T05:30:15Z</time>
      </trkpt>
      <trkpt lat="45.04927" lon="6.39394">
        <ele>2308</ele>
        <time>2018-02-18T05:31:15Z</time>
      </trkpt>
      <trkpt lat="45.04916" lon="6.39406">
        <ele>2306</ele>
        <time>2018-02-18T05:32:15Z</time>
      </trkpt>
      <trkpt lat="45.04882" lon="6.39458">
        <ele>2306</ele>
        <time>2018-02-18T05:33:15Z</time>
      </trkpt>
      <trkpt lat="45.04874" lon="6.39475">
        <ele>2305</ele>
        <time>2018-02-18T05:34:15Z</time>
      </trkpt>
      <trkpt lat="45.0487" lon="6.39491">
        <ele>2303</ele>
        <time>2018-02-18T05:35:15Z</time>
      </trkpt>
      <trkpt lat="45.04868" lon="6.39543">
        <ele>2296</ele>
        <time>2018-02-18T05:36:15Z</time>
      </trkpt>
      <trkpt lat="45.04862" lon="6.39587">
        <ele>2292</ele>
        <time>2018-02-18T05:37:15Z</time>
      </trkpt>
      <trkpt lat="45.04853" lon="6.39621">
        <ele>2286</ele>
        <time>2018-02-18T05:38:15Z</time>
      </trkpt>
      <trkpt lat="45.0484" lon="6.39646">
        <ele>2285</ele>
        <time>2018-02-18T05:39:15Z</time>
      </trkpt>
      <trkpt lat="45.04791" lon="6.39712">
        <ele>2286</ele>
        <time>2018-02-18T05:40:15Z</time>
      </trkpt>
      <trkpt lat="45.04764" lon="6.39752">
        <ele>2283</ele>
        <time>2018-02-18T05:41:15Z</time>
      </trkpt>
      <trkpt lat="45.04733" lon="6.39806">
        <ele>2278</ele>
        <time>2018-02-18T05:42:15Z</time>
      </trkpt>
      <trkpt lat="45.04714" lon="6.39835">
        <ele>2277</ele>
        <time>2018-02-18T05:43:15Z</time>
      </trkpt>
      <trkpt lat="45.04663" lon="6.39906">
        <ele>2271</ele>
        <time>2018-02-18T05:44:15Z</time>
      </trkpt>
      <trkpt lat="45.04645" lon="6.39929">
        <ele>2268</ele>
        <time>2018-02-18T05:45:15Z</time>
      </trkpt>
      <trkpt lat="45.04574" lon="6.40005">
        <ele>2263</ele>
        <time>2018-02-18T05:46:15Z</time>
      </trkpt>
      <trkpt lat="45.04496" lon="6.40082">
        <ele>2246</ele>
        <time>2018-02-18T05:47:15Z</time>
      </trkpt>
      <trkpt lat="45.04485" lon="6.40088">
        <ele>2246</ele>
        <time>2018-02-18T05:48:15Z</time>
      </trkpt>
      <trkpt lat="45.04446" lon="6.40092">
        <ele>2252</ele>
        <time>2018-02-18T05:49:15Z</time>
      </trkpt>
      <trkpt lat="45.04437" lon="6.40095">
        <ele>2253</ele>
        <time>2018-02-18T05:50:15Z</time>
      </trkpt>
      <trkpt lat="45.0443" lon="6.40101">
        <ele>2252</ele>
        <time>2018-02-18T05:51:15Z</time>
      </trkpt>
      <trkpt lat="45.04419" lon="6.40116">
        <ele>2250</ele>
        <time>2018-02-18T05:52:15Z</time>
      </trkpt>
      <trkpt lat="45.04391" lon="6.40174">
        <ele>2233</ele>
        <time>2018-02-18T05:53:15Z</time>
      </trkpt>
      <trkpt lat="45.04378" lon="6.40187">
        <ele>2229</ele>
        <time>2018-02-18T05:54:15Z</time>
      </trkpt>
      <trkpt lat="45.04371" lon="6.40189">
        <ele>2228</ele>
        <time>2018-02-18T05:55:15Z</time>
      </trkpt>
      <trkpt lat="45.04358" lon="6.40187">
        <ele>2227</ele>
        <time>2018-02-18T05:56:15Z</time>
      </trkpt>
      <trkpt lat="45.04351" lon="6.40183">
        <ele>2227</ele>
        <time>2018-02-18T05:57:15Z</time>
      </trkpt>
      <trkpt lat="45.04344" lon="6.40176">
        <ele>2228</ele>
        <time>2018-02-18T05:58:15Z</time>
      </trkpt>
      <trkpt lat="45.04338" lon="6.40165">
        <ele>2229</ele>
        <time>2018-02-18T05:59:15Z</time>
      </trkpt>
      <trkpt lat="45.043" lon="6.40079">
        <ele>2235</ele>
        <time>2018-02-18T06:00:15Z</time>
      </trkpt>
      <trkpt lat="45.04286" lon="6.40052">
        <ele>2236</ele>
        <time>2018-02-18T06:01:15Z</time>
      </trkpt>
      <trkpt lat="45.04242" lon="6.39981">
        <ele>2232</ele>
        <time>2018-02-18T06:02:15Z</time>
      </trkpt>
      <trkpt lat="45.04194" lon="6.39917">
        <ele>2228</ele>
        <time>2018-02-18T06:03:15Z</time>
      </trkpt>
      <trkpt lat="45.04177" lon="6.39903">
        <ele>2224</ele>
        <time>2018-02-18T06:04:15Z</time>
      </trkpt>
      <trkpt lat="45.04132" lon="6.39878">
        <ele>2214</ele>
        <time>2018-02-18T06:05:15Z</time>
      </trkpt>
      <trkpt lat="45.04119" lon="6.39868">
        <ele>2212</ele>
        <time>2018-02-18T06:06:15Z</time>
      </trkpt>
      <trkpt lat="45.03989" lon="6.3975">
        <ele>2200</ele>
        <time>2018-02-18T06:07:15Z</time>
      </trkpt>
      <trkpt lat="45.03973" lon="6.39731">
        <ele>2197</ele>
        <time>2018-02-18T06:08:15Z</time>
      </trkpt>
      <trkpt lat="45.03855" lon="6.39538">
        <ele>2186</ele>
        <time>2018-02-18T06:09:15Z</time>
      </trkpt>
      <trkpt lat="45.03848" lon="6.39525">
        <ele>2183</ele>
        <time>2018-02-18T06:10:15Z</time>
      </trkpt>
      <trkpt lat="45.03843" lon="6.39511">
        <ele>2182</ele>
        <time>2018-02-18T06:11:15Z</time>
      </trkpt>
      <trkpt lat="45.03838" lon="6.39486">
        <ele>2181</ele>
        <time>2018-02-18T06:12:15Z</time>
      </trkpt>
      <trkpt lat="45.03826" lon="6.39377">
        <ele>2177</ele>
        <time>2018-02-18T06:13:15Z</time>
      </trkpt>
      <trkpt lat="45.03826" lon="6.39347">
        <ele>2177</ele>
        <time>2018-02-18T06:14:15Z</time>
      </trkpt>
      <trkpt lat="45.0383" lon="6.39309">
        <ele>2178</ele>
        <time>2018-02-18T06:15:15Z</time>
      </trkpt>
      <trkpt lat="45.03829" lon="6.39299">
        <ele>2177</ele>
        <time>2018-02-18T06:16:15Z</time>
      </trkpt>
      <trkpt lat="45.03826" lon="6.39291">
        <ele>2175</ele>
        <time>2018-02-18T06:17:15Z</time>
      </trkpt>
      <trkpt lat="45.03821" lon="6.39287">
        <ele>2172</ele>
        <time>2018-02-18T06:18:15Z</time>
      </trkpt>
      <trkpt lat="45.0381" lon="6.39287">
        <ele>2166</ele>
        <time>2018-02-18T06:19:15Z</time>
      </trkpt>
      <trkpt lat="45.03804" lon="6.39292">
        <ele>2163</ele>
        <time>2018-02-18T06:20:15Z</time>
      </trkpt>
      <trkpt lat="45.03801" lon="6.39298">
        <ele>2162</ele>
        <time>2018-02-18T06:21:15Z</time>
      </trkpt>
      <trkpt lat="45.03799" lon="6.39308">
        <ele>2161</ele>
        <time>2018-02-18T06:22:15Z</time>
      </trkpt>
      <trkpt lat="45.03799" lon="6.3932">
        <ele>2161</ele>
        <time>2018-02-18T06:23:15Z</time>
      </trkpt>
      <trkpt lat="45.03805" lon="6.39356">
        <ele>2165</ele>
        <time>2018-02-18T06:24:15Z</time>
      </trkpt>
      <trkpt lat="45.03805" lon="6.39369">
        <ele>2166</ele>
        <time>2018-02-18T06:25:15Z</time>
      </trkpt>
      <trkpt lat="45.03798" lon="6.39459">
        <ele>2163</ele>
        <time>2018-02-18T06:26:15Z</time>
      </trkpt>
      <trkpt lat="45.03794" lon="6.39478">
        <ele>2161</ele>
        <time>2018-02-18T06:27:15Z</time>
      </trkpt>
      <trkpt lat="45.03788" lon="6.39495">
        <ele>2158</ele>
        <time>2018-02-18T06:28:15Z</time>
      </trkpt>
      <trkpt lat="45.03752" lon="6.39579">
        <ele>2150</ele>
        <time>2018-02-18T06:29:15Z</time>
      </trkpt>
      <trkpt lat="45.03746" lon="6.39598">
        <ele>2148</ele>
        <time>2018-02-18T06:30:15Z</time>
      </trkpt>
      <trkpt lat="45.0374" lon="6.39621">
        <ele>2145</ele>
        <time>2018-02-18T06:31:15Z</time>
      </trkpt>
      <trkpt lat="45.03732" lon="6.39669">
        <ele>2141</ele>
        <time>2018-02-18T06:32:15Z</time>
      </trkpt>
      <trkpt lat="45.03729" lon="6.39698">
        <ele>2138</ele>
        <time>2018-02-18T06:33:15Z</time>
      </trkpt>
      <trkpt lat="45.03728" lon="6.39755">
        <ele>2135</ele>
        <time>2018-02-18T06:34:15Z</time>
      </trkpt>
      <trkpt lat="45.0373" lon="6.3979">
        <ele>2131</ele>
        <time>2018-02-18T06:35:15Z</time>
      </trkpt>
      <trkpt lat="45.03734" lon="6.39803">
        <ele>2131</ele>
        <time>2018-02-18T06:36:15Z</time>
      </trkpt>
      <trkpt lat="45.03744" lon="6.39822">
        <ele>2131</ele>
        <time>2018-02-18T06:37:15Z</time>
      </trkpt>
      <trkpt lat="45.03751" lon="6.39829">
        <ele>2132</ele>
        <time>2018-02-18T06:38:15Z</time>
      </trkpt>
      <trkpt lat="45.03761" lon="6.39833">
        <ele>2131</ele>
        <time>2018-02-18T06:39:15Z</time>
      </trkpt>
      <trkpt lat="45.03777" lon="6.39836">
        <ele>2131</ele>
        <time>2018-02-18T06:40:15Z</time>
      </trkpt>
      <trkpt lat="45.0381" lon="6.39834">
        <ele>2132</ele>
        <time>2018-02-18T06:41:15Z</time>
      </trkpt>
      <trkpt lat="45.03826" lon="6.39838">
        <ele>2132</ele>
        <time>2018-02-18T06:42:15Z</time>
      </trkpt>
      <trkpt lat="45.03834" lon="6.39843">
        <ele>2131</ele>
        <time>2018-02-18T06:43:15Z</time>
      </trkpt>
      <trkpt lat="45.03847" lon="6.39855">
        <ele>2131</ele>
        <time>2018-02-18T06:44:15Z</time>
      </trkpt>
      <trkpt lat="45.04033" lon="6.40097">
        <ele>2110</ele>
        <time>2018-02-18T06:45:15Z</time>
      </trkpt>
      <trkpt lat="45.04044" lon="6.40104">
        <ele>2111</ele>
        <time>2018-02-18T06:46:15Z</time>
      </trkpt>
      <trkpt lat="45.04068" lon="6.40114">
        <ele>2115</ele>
        <time>2018-02-18T06:47:15Z</time>
      </trkpt>
      <trkpt lat="45.04079" lon="6.40122">
        <ele>2115</ele>
        <time>2018-02-18T06:48:15Z</time>
      </trkpt>
      <trkpt lat="45.04084" lon="6.40128">
        <ele>2115</ele>
        <time>2018-02-18T06:49:15Z</time>
      </trkpt>
      <trkpt lat="45.04086" lon="6.40137">
        <ele>2113</ele>
        <time>2018-02-18T06:50:15Z</time>
      </trkpt>
      <trkpt lat="45.04087" lon="6.40146">
        <ele>2111</ele>
        <time>2018-02-18T06:51:15Z</time>
      </trkpt>
      <trkpt lat="45.04083" lon="6.40162">
        <ele>2105</ele>
        <time>2018-02-18T06:52:15Z</time>
      </trkpt>
      <trkpt lat="45.04079" lon="6.40168">
        <ele>2103</ele>
        <time>2018-02-18T06:53:15Z</time>
      </trkpt>
      <trkpt lat="45.04075" lon="6.40171">
        <ele>2101</ele>
        <time>2018-02-18T06:54:15Z</time>
      </trkpt>
      <trkpt lat="45.0407" lon="6.40172">
        <ele>2099</ele>
        <time>2018-02-18T06:55:15Z</time>
      </trkpt>
      <trkpt lat="45.04064" lon="6.4017">
        <ele>2098</ele>
        <time>2018-02-18T06:56:15Z</time>
      </trkpt>
      <trkpt lat="45.04059" lon="6.40167">
        <ele>2098</ele>
        <time>2018-02-18T06:57:15Z</time>
      </trkpt>
      <trkpt lat="45.04039" lon="6.40142">
        <ele>2100</ele>
        <time>2018-02-18T06:58:15Z</time>
      </trkpt>
      <trkpt lat="45.04018" lon="6.40121">
        <ele>2100</ele>
        <time>2018-02-18T06:59:15Z</time>
      </trkpt>
      <trkpt lat="45.03925" lon="6.40071">
        <ele>2093</ele>
        <time>2018-02-18T07:00:15Z</time>
      </trkpt>
      <trkpt lat="45.03913" lon="6.40068">
        <ele>2092</ele>
        <time>2018-02-18T07:01:15Z</time>
      </trkpt>
      <trkpt lat="45.03902" lon="6.40068">
        <ele>2092</ele>
        <time>2018-02-18T07:02:15Z</time>
      </trkpt>
      <trkpt lat="45.03892" lon="6.40071">
        <ele>2091</ele>
        <time>2018-02-18T07:03:15Z</time>
      </trkpt>
      <trkpt lat="45.0388" lon="6.40078">
        <ele>2090</ele>
        <time>2018-02-18T07:04:15Z</time>
      </trkpt>
      <trkpt lat="45.03871" lon="6.40088">
        <ele>2088</ele>
        <time>2018-02-18T07:05:15Z</time>
      </trkpt>
      <trkpt lat="45.0386" lon="6.40108">
        <ele>2085</ele>
        <time>2018-02-18T07:06:15Z</time>
      </trkpt>
      <trkpt lat="45.03817" lon="6.40268">
        <ele>2068</ele>
        <time>2018-02-18T07:07:15Z</time>
      </trkpt>
      <trkpt lat="45.03811" lon="6.40279">
        <ele>2066</ele>
        <time>2018-02-18T07:08:15Z</time>
      </trkpt>
      <trkpt lat="45.03801" lon="6.40284">
        <ele>2067</ele>
        <time>2018-02-18T07:09:15Z</time>
      </trkpt>
      <trkpt lat="45.03791" lon="6.40285">
        <ele>2067</ele>
        <time>2018-02-18T07:10:15Z</time>
      </trkpt>
      <trkpt lat="45.03768" lon="6.40278">
        <ele>2071</ele>
        <time>2018-02-18T07:11:15Z</time>
      </trkpt>
      <trkpt lat="45.03752" lon="6.40277">
        <ele>2073</ele>
        <time>2018-02-18T07:12:15Z</time>
      </trkpt>
      <trkpt lat="45.03741" lon="6.40282">
        <ele>2073</ele>
        <time>2018-02-18T07:13:15Z</time>
      </trkpt>
      <trkpt lat="45.0373" lon="6.40292">
        <ele>2073</ele>
        <time>2018-02-18T07:14:15Z</time>
      </trkpt>
      <trkpt lat="45.03724" lon="6.40303">
        <ele>2071</ele>
        <time>2018-02-18T07:15:15Z</time>
      </trkpt>
      <trkpt lat="45.03705" lon="6.40355">
        <ele>2064</ele>
        <time>2018-02-18T07:16:15Z</time>
      </trkpt>
      <trkpt lat="45.03674" lon="6.40408">
        <ele>2061</ele>
        <time>2018-02-18T07:17:15Z</time>
      </trkpt>
      <trkpt lat="45.03654" lon="6.40428">
        <ele>2060</ele>
        <time>2018-02-18T07:18:15Z</time>
      </trkpt>
      <trkpt lat="45.0361" lon="6.40457">
        <ele>2060</ele>
        <time>2018-02-18T07:19:15Z</time>
      </trkpt>
      <trkpt lat="45.03555" lon="6.40498">
        <ele>2059</ele>
        <time>2018-02-18T07:20:15Z</time>
      </trkpt>
      <trkpt lat="45.03543" lon="6.40515">
        <ele>2060</ele>
        <time>2018-02-18T07:21:15Z</time>
      </trkpt>
      <trkpt lat="45.03541" lon="6.4052">
        <ele>2060</ele>
        <time>2018-02-18T07:22:15Z</time>
      </trkpt>
      <trkpt lat="45.03551" lon="6.40527">
        <ele>2059</ele>
        <time>2018-02-18T07:23:15Z</time>
      </trkpt>
      <trkpt lat="45.03562" lon="6.40537">
        <ele>2059</ele>
        <time>2018-02-18T07:24:15Z</time>
      </trkpt>
      <trkpt lat="45.03592" lon="6.4058">
        <ele>2057</ele>
        <time>2018-02-18T07:25:15Z</time>
      </trkpt>
      <trkpt lat="45.03606" lon="6.40593">
        <ele>2055</ele>
        <time>2018-02-18T07:26:15Z</time>
      </trkpt>
      <trkpt lat="45.03621" lon="6.40605">
        <ele>2052</ele>
        <time>2018-02-18T07:27:15Z</time>
      </trkpt>
      <trkpt lat="45.03637" lon="6.40609">
        <ele>2050</ele>
        <time>2018-02-18T07:28:15Z</time>
      </trkpt>
      <trkpt lat="45.03652" lon="6.40609">
        <ele>2047</ele>
        <time>2018-02-18T07:29:15Z</time>
      </trkpt>
      <trkpt lat="45.03665" lon="6.40605">
        <ele>2046</ele>
        <time>2018-02-18T07:30:15Z</time>
      </trkpt>
      <trkpt lat="45.03677" lon="6.40599">
        <ele>2044</ele>
        <time>2018-02-18T07:31:15Z</time>
      </trkpt>
      <trkpt lat="45.03689" lon="6.40588">
        <ele>2042</ele>
        <time>2018-02-18T07:32:15Z</time>
      </trkpt>
      <trkpt lat="45.03698" lon="6.40576">
        <ele>2041</ele>
        <time>2018-02-18T07:33:15Z</time>
      </trkpt>
      <trkpt lat="45.03706" lon="6.40559">
        <ele>2041</ele>
        <time>2018-02-18T07:34:15Z</time>
      </trkpt>
      <trkpt lat="45.03723" lon="6.40504">
        <ele>2041</ele>
        <time>2018-02-18T07:35:15Z</time>
      </trkpt>
      <trkpt lat="45.0373" lon="6.40488">
        <ele>2042</ele>
        <time>2018-02-18T07:36:15Z</time>
      </trkpt>
      <trkpt lat="45.03738" lon="6.40472">
        <ele>2042</ele>
        <time>2018-02-18T07:37:15Z</time>
      </trkpt>
      <trkpt lat="45.03754" lon="6.40455">
        <ele>2042</ele>
        <time>2018-02-18T07:38:15Z</time>
      </trkpt>
      <trkpt lat="45.03754" lon="6.40455">
        <ele>2042</ele>
        <time>2018-02-18T07:39:15Z</time>
      </trkpt>
      <trkpt lat="45.0377" lon="6.40442">
        <ele>2042</ele>
        <time>2018-02-18T07:40:15Z</time>
      </trkpt>
      <trkpt lat="45.0379" lon="6.40433">
        <ele>2041</ele>
        <time>2018-02-18T07:41:15Z</time>
      </trkpt>
      <trkpt lat="45.03802" lon="6.40431">
        <ele>2041</ele>
        <time>2018-02-18T07:42:15Z</time>
      </trkpt>
      <trkpt lat="45.03826" lon="6.40435">
        <ele>2038</ele>
        <time>2018-02-18T07:43:15Z</time>
      </trkpt>
      <trkpt lat="45.03838" lon="6.4044">
        <ele>2037</ele>
        <time>2018-02-18T07:44:15Z</time>
      </trkpt>
      <trkpt lat="45.03863" lon="6.40458">
        <ele>2033</ele>
        <time>2018-02-18T07:45:15Z</time>
      </trkpt>
      <trkpt lat="45.03925" lon="6.4051">
        <ele>2029</ele>
        <time>2018-02-18T07:46:15Z</time>
      </trkpt>
      <trkpt lat="45.03938" lon="6.40526">
        <ele>2029</ele>
        <time>2018-02-18T07:47:15Z</time>
      </trkpt>
      <trkpt lat="45.03947" lon="6.40542">
        <ele>2029</ele>
        <time>2018-02-18T07:48:15Z</time>
      </trkpt>
      <trkpt lat="45.03956" lon="6.40569">
        <ele>2029</ele>
        <time>2018-02-18T07:49:15Z</time>
      </trkpt>
      <trkpt lat="45.03961" lon="6.40609">
        <ele>2029</ele>
        <time>2018-02-18T07:50:15Z</time>
      </trkpt>
      <trkpt lat="45.0396" lon="6.40625">
        <ele>2028</ele>
        <time>2018-02-18T07:51:15Z</time>
      </trkpt>
      <trkpt lat="45.03954" lon="6.40659">
        <ele>2026</ele>
        <time>2018-02-18T07:52:15Z</time>
      </trkpt>
      <trkpt lat="45.03946" lon="6.40686">
        <ele>2025</ele>
        <time>2018-02-18T07:53:15Z</time>
      </trkpt>
      <trkpt lat="45.03861" lon="6.40896">
        <ele>2017</ele>
        <time>2018-02-18T07:54:15Z</time>
      </trkpt>
      <trkpt lat="45.03853" lon="6.40925">
        <ele>2015</ele>
        <time>2018-02-18T07:55:15Z</time>
      </trkpt>
      <trkpt lat="45.03849" lon="6.40961">
        <ele>2012</ele>
        <time>2018-02-18T07:56:15Z</time>
      </trkpt>
      <trkpt lat="45.03851" lon="6.40997">
        <ele>2010</ele>
        <time>2018-02-18T07:57:15Z</time>
      </trkpt>
      <trkpt lat="45.0386" lon="6.41044">
        <ele>2007</ele>
        <time>2018-02-18T07:58:15Z</time>
      </trkpt>
      <trkpt lat="45.03875" lon="6.41089">
        <ele>2006</ele>
        <time>2018-02-18T07:59:15Z</time>
      </trkpt>
      <trkpt lat="45.03895" lon="6.41134">
        <ele>2005</ele>
        <time>2018-02-18T08:00:15Z</time>
      </trkpt>
      <trkpt lat="45.03916" lon="6.41176">
        <ele>2004</ele>
        <time>2018-02-18T08:01:15Z</time>
      </trkpt>
      <trkpt lat="45.03939" lon="6.41217">
        <ele>2002</ele>
        <time>2018-02-18T08:02:15Z</time>
      </trkpt>
      <trkpt lat="45.03988" lon="6.4129">
        <ele>2002</ele>
        <time>2018-02-18T08:03:15Z</time>
      </trkpt>
      <trkpt lat="45.04017" lon="6.41326">
        <ele>2001</ele>
        <time>2018-02-18T08:04:15Z</time>
      </trkpt>
      <trkpt lat="45.04048" lon="6.41357">
        <ele>1999</ele>
        <time>2018-02-18T08:05:15Z</time>
      </trkpt>
      <trkpt lat="45.04121" lon="6.41408">
        <ele>1994</ele>
        <time>2018-02-18T08:06:15Z</time>
      </trkpt>
      <trkpt lat="45.04148" lon="6.41432">
        <ele>1991</ele>
        <time>2018-02-18T08:07:15Z</time>
      </trkpt>
      <trkpt lat="45.04182" lon="6.41468">
        <ele>1987</ele>
        <time>2018-02-18T08:08:15Z</time>
      </trkpt>
      <trkpt lat="45.04216" lon="6.41515">
        <ele>1980</ele>
        <time>2018-02-18T08:09:15Z</time>
      </trkpt>
      <trkpt lat="45.04246" lon="6.41566">
        <ele>1973</ele>
        <time>2018-02-18T08:10:15Z</time>
      </trkpt>
      <trkpt lat="45.04255" lon="6.41586">
        <ele>1971</ele>
        <time>2018-02-18T08:11:15Z</time>
      </trkpt>
      <trkpt lat="45.04278" lon="6.41654">
        <ele>1974</ele>
        <time>2018-02-18T08:12:15Z</time>
      </trkpt>
      <trkpt lat="45.04283" lon="6.41679">
        <ele>1975</ele>
        <time>2018-02-18T08:13:15Z</time>
      </trkpt>
      <trkpt lat="45.04281" lon="6.41697">
        <ele>1976</ele>
        <time>2018-02-18T08:14:15Z</time>
      </trkpt>
      <trkpt lat="45.04276" lon="6.41715">
        <ele>1975</ele>
        <time>2018-02-18T08:15:15Z</time>
      </trkpt>
      <trkpt lat="45.04266" lon="6.4173">
        <ele>1974</ele>
        <time>2018-02-18T08:16:15Z</time>
      </trkpt>
      <trkpt lat="45.04242" lon="6.41758">
        <ele>1971</ele>
        <time>2018-02-18T08:17:15Z</time>
      </trkpt>
      <trkpt lat="45.04192" lon="6.41809">
        <ele>1966</ele>
        <time>2018-02-18T08:18:15Z</time>
      </trkpt>
      <trkpt lat="45.04181" lon="6.41826">
        <ele>1966</ele>
        <time>2018-02-18T08:19:15Z</time>
      </trkpt>
      <trkpt lat="45.04173" lon="6.41843">
        <ele>1966</ele>
        <time>2018-02-18T08:20:15Z</time>
      </trkpt>
      <trkpt lat="45.0416" lon="6.41877">
        <ele>1966</ele>
        <time>2018-02-18T08:21:15Z</time>
      </trkpt>
      <trkpt lat="45.04154" lon="6.41911">
        <ele>1968</ele>
        <time>2018-02-18T08:22:15Z</time>
      </trkpt>
      <trkpt lat="45.0415" lon="6.41948">
        <ele>1966</ele>
        <time>2018-02-18T08:23:15Z</time>
      </trkpt>
      <trkpt lat="45.04148" lon="6.41984">
        <ele>1964</ele>
        <time>2018-02-18T08:24:15Z</time>
      </trkpt>
      <trkpt lat="45.04148" lon="6.42047">
        <ele>1960</ele>
        <time>2018-02-18T08:25:15Z</time>
      </trkpt>
      <trkpt lat="45.04151" lon="6.42097">
        <ele>1956</ele>
        <time>2018-02-18T08:26:15Z</time>
      </trkpt>
      <trkpt lat="45.04163" lon="6.42151">
        <ele>1950</ele>
        <time>2018-02-18T08:27:15Z</time>
      </trkpt>
      <trkpt lat="45.04171" lon="6.42175">
        <ele>1947</ele>
        <time>2018-02-18T08:28:15Z</time>
      </trkpt>
      <trkpt lat="45.04179" lon="6.42191">
        <ele>1944</ele>
        <time>2018-02-18T08:29:15Z</time>
      </trkpt>
      <trkpt lat="45.04186" lon="6.42198">
        <ele>1943</ele>
        <time>2018-02-18T08:30:15Z</time>
      </trkpt>
      <trkpt lat="45.04194" lon="6.42202">
        <ele>1942</ele>
        <time>2018-02-18T08:31:15Z</time>
      </trkpt>
      <trkpt lat="45.0421" lon="6.42201">
        <ele>1943</ele>
        <time>2018-02-18T08:32:15Z</time>
      </trkpt>
      <trkpt lat="45.04217" lon="6.42196">
        <ele>1944</ele>
        <time>2018-02-18T08:33:15Z</time>
      </trkpt>
      <trkpt lat="45.04257" lon="6.4216">
        <ele>1954</ele>
        <time>2018-02-18T08:34:15Z</time>
      </trkpt>
      <trkpt lat="45.04271" lon="6.42154">
        <ele>1957</ele>
        <time>2018-02-18T08:35:15Z</time>
      </trkpt>
      <trkpt lat="45.0428" lon="6.42154">
        <ele>1958</ele>
        <time>2018-02-18T08:36:15Z</time>
      </trkpt>
      <trkpt lat="45.04295" lon="6.42161">
        <ele>1959</ele>
        <time>2018-02-18T08:37:15Z</time>
      </trkpt>
      <trkpt lat="45.04304" lon="6.42178">
        <ele>1958</ele>
        <time>2018-02-18T08:38:15Z</time>
      </trkpt>
      <trkpt lat="45.04308" lon="6.42193">
        <ele>1956</ele>
        <time>2018-02-18T08:39:15Z</time>
      </trkpt>
      <trkpt lat="45.0431" lon="6.42207">
        <ele>1955</ele>
        <time>2018-02-18T08:40:15Z</time>
      </trkpt>
      <trkpt lat="45.04308" lon="6.42278">
        <ele>1946</ele>
        <time>2018-02-18T08:41:15Z</time>
      </trkpt>
      <trkpt lat="45.04307" lon="6.4238">
        <ele>1938</ele>
        <time>2018-02-18T08:42:15Z</time>
      </trkpt>
      <trkpt lat="45.04293" lon="6.42447">
        <ele>1931</ele>
        <time>2018-02-18T08:43:15Z</time>
      </trkpt>
      <trkpt lat="45.04286" lon="6.42512">
        <ele>1930</ele>
        <time>2018-02-18T08:44:15Z</time>
      </trkpt>
      <trkpt lat="45.04277" lon="6.42551">
        <ele>1929</ele>
        <time>2018-02-18T08:45:15Z</time>
      </trkpt>
      <trkpt lat="45.04267" lon="6.42608">
        <ele>1930</ele>
        <time>2018-02-18T08:46:15Z</time>
      </trkpt>
      <trkpt lat="45.04255" lon="6.42635">
        <ele>1928</ele>
        <time>2018-02-18T08:47:15Z</time>
      </trkpt>
      <trkpt lat="45.04226" lon="6.42667">
        <ele>1923</ele>
        <time>2018-02-18T08:48:15Z</time>
      </trkpt>
      <trkpt lat="45.04197" lon="6.42692">
        <ele>1922</ele>
        <time>2018-02-18T08:49:15Z</time>
      </trkpt>
      <trkpt lat="45.04185" lon="6.42705">
        <ele>1922</ele>
        <time>2018-02-18T08:50:15Z</time>
      </trkpt>
      <trkpt lat="45.04162" lon="6.42722">
        <ele>1921</ele>
        <time>2018-02-18T08:51:15Z</time>
      </trkpt>
      <trkpt lat="45.04142" lon="6.4273">
        <ele>1917</ele>
        <time>2018-02-18T08:52:15Z</time>
      </trkpt>
      <trkpt lat="45.04116" lon="6.42749">
        <ele>1913</ele>
        <time>2018-02-18T08:53:15Z</time>
      </trkpt>
      <trkpt lat="45.04095" lon="6.42768">
        <ele>1911</ele>
        <time>2018-02-18T08:54:15Z</time>
      </trkpt>
      <trkpt lat="45.04066" lon="6.428">
        <ele>1907</ele>
        <time>2018-02-18T08:55:15Z</time>
      </trkpt>
      <trkpt lat="45.04054" lon="6.42816">
        <ele>1906</ele>
        <time>2018-02-18T08:56:15Z</time>
      </trkpt>
      <trkpt lat="45.04024" lon="6.42876">
        <ele>1904</ele>
        <time>2018-02-18T08:57:15Z</time>
      </trkpt>
      <trkpt lat="45.04003" lon="6.42933">
        <ele>1903</ele>
        <time>2018-02-18T08:58:15Z</time>
      </trkpt>
      <trkpt lat="45.03987" lon="6.42995">
        <ele>1901</ele>
        <time>2018-02-18T08:59:15Z</time>
      </trkpt>
      <trkpt lat="45.0397" lon="6.43089">
        <ele>1902</ele>
        <time>2018-02-18T09:00:15Z</time>
      </trkpt>
      <trkpt lat="45.03962" lon="6.43127">
        <ele>1902</ele>
        <time>2018-02-18T09:01:15Z</time>
      </trkpt>
      <trkpt lat="45.03939" lon="6.43193">
        <ele>1898</ele>
        <time>2018-02-18T09:02:15Z</time>
      </trkpt>
      <trkpt lat="45.03925" lon="6.43221">
        <ele>1896</ele>
        <time>2018-02-18T09:03:15Z</time>
      </trkpt>
      <trkpt lat="45.03909" lon="6.43245">
        <ele>1893</ele>
        <time>2018-02-18T09:04:15Z</time>
      </trkpt>
      <trkpt lat="45.03862" lon="6.433">
        <ele>1889</ele>
        <time>2018-02-18T09:05:15Z</time>
      </trkpt>
      <trkpt lat="45.038" lon="6.43364">
        <ele>1882</ele>
        <time>2018-02-18T09:06:15Z</time>
      </trkpt>
      <trkpt lat="45.03763" lon="6.43416">
        <ele>1878</ele>
        <time>2018-02-18T09:07:15Z</time>
      </trkpt>
      <trkpt lat="45.03708" lon="6.43471">
        <ele>1874</ele>
        <time>2018-02-18T09:08:15Z</time>
      </trkpt>
      <trkpt lat="45.03672" lon="6.43519">
        <ele>1872</ele>
        <time>2018-02-18T09:09:15Z</time>
      </trkpt>
      <trkpt lat="45.0365" lon="6.43552">
        <ele>1871</ele>
        <time>2018-02-18T09:10:15Z</time>
      </trkpt>
      <trkpt lat="45.03605" lon="6.43638">
        <ele>1868</ele>
        <time>2018-02-18T09:11:15Z</time>
      </trkpt>
      <trkpt lat="45.03581" lon="6.43678">
        <ele>1867</ele>
        <time>2018-02-18T09:12:15Z</time>
      </trkpt>
      <trkpt lat="45.03551" lon="6.43715">
        <ele>1866</ele>
        <time>2018-02-18T09:13:15Z</time>
      </trkpt>
      <trkpt lat="45.03413" lon="6.4384">
        <ele>1852</ele>
        <time>2018-02-18T09:14:15Z</time>
      </trkpt>
      <trkpt lat="45.03357" lon="6.43897">
        <ele>1848</ele>
        <time>2018-02-18T09:15:15Z</time>
      </trkpt>
      <trkpt lat="45.03301" lon="6.43959">
        <ele>1845</ele>
        <time>2018-02-18T09:16:15Z</time>
      </trkpt>
      <trkpt lat="45.03182" lon="6.441">
        <ele>1841</ele>
        <time>2018-02-18T09:17:15Z</time>
      </trkpt>
      <trkpt lat="45.03141" lon="6.44163">
        <ele>1838</ele>
        <time>2018-02-18T09:18:15Z</time>
      </trkpt>
      <trkpt lat="45.0311" lon="6.44219">
        <ele>1833</ele>
        <time>2018-02-18T09:19:15Z</time>
      </trkpt>
      <trkpt lat="45.03084" lon="6.44276">
        <ele>1828</ele>
        <time>2018-02-18T09:20:15Z</time>
      </trkpt>
      <trkpt lat="45.03025" lon="6.4443">
        <ele>1824</ele>
        <time>2018-02-18T09:21:15Z</time>
      </trkpt>
      <trkpt lat="45.03007" lon="6.44458">
        <ele>1820</ele>
        <time>2018-02-18T09:22:15Z</time>
      </trkpt>
      <trkpt lat="45.02955" lon="6.44528">
        <ele>1814</ele>
        <time>2018-02-18T09:23:15Z</time>
      </trkpt>
      <trkpt lat="45.0292" lon="6.44581">
        <ele>1812</ele>
        <time>2018-02-18T09:24:15Z</time>
      </trkpt>
      <trkpt lat="45.02871" lon="6.44696">
        <ele>1811</ele>
        <time>2018-02-18T09:25:15Z</time>
      </trkpt>
      <trkpt lat="45.02833" lon="6.4474">
        <ele>1804</ele>
        <time>2018-02-18T09:26:15Z</time>
      </trkpt>
      <trkpt lat="45.02784" lon="6.44782">
        <ele>1798</ele>
        <time>2018-02-18T09:27:15Z</time>
      </trkpt>
      <trkpt lat="45.02756" lon="6.44811">
        <ele>1795</ele>
        <time>2018-02-18T09:28:15Z</time>
      </trkpt>
      <trkpt lat="45.02648" lon="6.44961">
        <ele>1789</ele>
        <time>2018-02-18T09:29:15Z</time>
      </trkpt>
      <trkpt lat="45.02596" lon="6.45046">
        <ele>1784</ele>
        <time>2018-02-18T09:30:15Z</time>
      </trkpt>
      <trkpt lat="45.02536" lon="6.45163">
        <ele>1780</ele>
        <time>2018-02-18T09:31:15Z</time>
      </trkpt>
      <trkpt lat="45.02512" lon="6.45225">
        <ele>1778</ele>
        <time>2018-02-18T09:32:15Z</time>
      </trkpt>
      <trkpt lat="45.02495" lon="6.45284">
        <ele>1777</ele>
        <time>2018-02-18T09:33:15Z</time>
      </trkpt>
      <trkpt lat="45.02481" lon="6.45322">
        <ele>1775</ele>
        <time>2018-02-18T09:34:15Z</time>
      </trkpt>
      <trkpt lat="45.02448" lon="6.45391">
        <ele>1771</ele>
        <time>2018-02-18T09:35:15Z</time>
      </trkpt>
      <trkpt lat="45.02428" lon="6.4544">
        <ele>1772</ele>
        <time>2018-02-18T09:36:15Z</time>
      </trkpt>
      <trkpt lat="45.02334" lon="6.45579">
        <ele>1758</ele>
        <time>2018-02-18T09:37:15Z</time>
      </trkpt>
      <trkpt lat="45.02316" lon="6.45609">
        <ele>1760</ele>
        <time>2018-02-18T09:38:15Z</time>
      </trkpt>
      <trkpt lat="45.02296" lon="6.4563">
        <ele>1759</ele>
        <time>2018-02-18T09:39:15Z</time>
      </trkpt>
      <trkpt lat="45.02271" lon="6.45651">
        <ele>1755</ele>
        <time>2018-02-18T09:40:15Z</time>
      </trkpt>
      <trkpt lat="45.02229" lon="6.45702">
        <ele>1752</ele>
        <time>2018-02-18T09:41:15Z</time>
      </trkpt>
      <trkpt lat="45.0221" lon="6.45734">
        <ele>1751</ele>
        <time>2018-02-18T09:42:15Z</time>
      </trkpt>
      <trkpt lat="45.02163" lon="6.4584">
        <ele>1746</ele>
        <time>2018-02-18T09:43:15Z</time>
      </trkpt>
      <trkpt lat="45.02133" lon="6.45898">
        <ele>1743</ele>
        <time>2018-02-18T09:44:15Z</time>
      </trkpt>
      <trkpt lat="45.02104" lon="6.45949">
        <ele>1740</ele>
        <time>2018-02-18T09:45:15Z</time>
      </trkpt>
      <trkpt lat="45.02045" lon="6.46112">
        <ele>1738</ele>
        <time>2018-02-18T09:46:15Z</time>
      </trkpt>
      <trkpt lat="45.02025" lon="6.46201">
        <ele>1735</ele>
        <time>2018-02-18T09:47:15Z</time>
      </trkpt>
      <trkpt lat="45.02016" lon="6.46226">
        <ele>1733</ele>
        <time>2018-02-18T09:48:15Z</time>
      </trkpt>
      <trkpt lat="45.01994" lon="6.46278">
        <ele>1729</ele>
        <time>2018-02-18T09:49:15Z</time>
      </trkpt>
      <trkpt lat="45.01983" lon="6.463">
        <ele>1728</ele>
        <time>2018-02-18T09:50:15Z</time>
      </trkpt>
      <trkpt lat="45.01969" lon="6.4632">
        <ele>1726</ele>
        <time>2018-02-18T09:51:15Z</time>
      </trkpt>
      <trkpt lat="45.01913" lon="6.46377">
        <ele>1719</ele>
        <time>2018-02-18T09:52:15Z</time>
      </trkpt>
      <trkpt lat="45.01895" lon="6.464">
        <ele>1718</ele>
        <time>2018-02-18T09:53:15Z</time>
      </trkpt>
      <trkpt lat="45.01875" lon="6.46435">
        <ele>1716</ele>
        <time>2018-02-18T09:54:15Z</time>
      </trkpt>
      <trkpt lat="45.01864" lon="6.46466">
        <ele>1715</ele>
        <time>2018-02-18T09:55:15Z</time>
      </trkpt>
      <trkpt lat="45.01859" lon="6.46528">
        <ele>1718</ele>
        <time>2018-02-18T09:56:15Z</time>
      </trkpt>
      <trkpt lat="45.01854" lon="6.46549">
        <ele>1717</ele>
        <time>2018-02-18T09:57:15Z</time>
      </trkpt>
      <trkpt lat="45.01837" lon="6.46575">
        <ele>1713</ele>
        <time>2018-02-18T09:58:15Z</time>
      </trkpt>
      <trkpt lat="45.018" lon="6.46607">
        <ele>1714</ele>
        <time>2018-02-18T09:59:15Z</time>
      </trkpt>
      <trkpt lat="45.01793" lon="6.46609">
        <ele>1715</ele>
        <time>2018-02-18T10:00:15Z</time>
      </trkpt>
      <trkpt lat="45.01783" lon="6.46608">
        <ele>1714</ele>
        <time>2018-02-18T10:01:15Z</time>
      </trkpt>
      <trkpt lat="45.01748" lon="6.46587">
        <ele>1707</ele>
        <time>2018-02-18T10:02:15Z</time>
      </trkpt>
      <trkpt lat="45.01663" lon="6.46542">
        <ele>1700</ele>
        <time>2018-02-18T10:03:15Z</time>
      </trkpt>
      <trkpt lat="45.01632" lon="6.46529">
        <ele>1695</ele>
        <time>2018-02-18T10:04:15Z</time>
      </trkpt>
      <trkpt lat="45.01622" lon="6.46527">
        <ele>1693</ele>
        <time>2018-02-18T10:05:15Z</time>
      </trkpt>
      <trkpt lat="45.01606" lon="6.46529">
        <ele>1692</ele>
        <time>2018-02-18T10:06:15Z</time>
      </trkpt>
      <trkpt lat="45.0159" lon="6.46534">
        <ele>1692</ele>
        <time>2018-02-18T10:07:15Z</time>
      </trkpt>
      <trkpt lat="45.01563" lon="6.46554">
        <ele>1692</ele>
        <time>2018-02-18T10:08:15Z</time>
      </trkpt>
      <trkpt lat="45.01542" lon="6.46578">
        <ele>1692</ele>
        <time>2018-02-18T10:09:15Z</time>
      </trkpt>
      <trkpt lat="45.01483" lon="6.46671">
        <ele>1690</ele>
        <time>2018-02-18T10:10:15Z</time>
      </trkpt>
      <trkpt lat="45.01468" lon="6.46696">
        <ele>1692</ele>
        <time>2018-02-18T10:11:15Z</time>
      </trkpt>
      <trkpt lat="45.01432" lon="6.46726">
        <ele>1689</ele>
        <time>2018-02-18T10:12:15Z</time>
      </trkpt>
      <trkpt lat="45.01414" lon="6.46735">
        <ele>1686</ele>
        <time>2018-02-18T10:13:15Z</time>
      </trkpt>
      <trkpt lat="45.01422" lon="6.46717">
        <ele>1685</ele>
        <time>2018-02-18T10:14:15Z</time>
      </trkpt>
      <trkpt lat="45.01446" lon="6.46685">
        <ele>1685</ele>
        <time>2018-02-18T10:15:15Z</time>
      </trkpt>
      <trkpt lat="45.01457" lon="6.46659">
        <ele>1683</ele>
        <time>2018-02-18T10:16:15Z</time>
      </trkpt>
      <trkpt lat="45.01456" lon="6.46635">
        <ele>1680</ele>
        <time>2018-02-18T10:17:15Z</time>
      </trkpt>
      <trkpt lat="45.01445" lon="6.4659">
        <ele>1674</ele>
        <time>2018-02-18T10:18:15Z</time>
      </trkpt>
      <trkpt lat="45.0145" lon="6.46534">
        <ele>1668</ele>
        <time>2018-02-18T10:19:15Z</time>
      </trkpt>
      <trkpt lat="45.01459" lon="6.46527">
        <ele>1668</ele>
        <time>2018-02-18T10:20:15Z</time>
      </trkpt>
      <trkpt lat="45.01476" lon="6.46521">
        <ele>1669</ele>
        <time>2018-02-18T10:21:15Z</time>
      </trkpt>
      <trkpt lat="45.01482" lon="6.46511">
        <ele>1668</ele>
        <time>2018-02-18T10:22:15Z</time>
      </trkpt>
      <trkpt lat="45.0149" lon="6.46485">
        <ele>1666</ele>
        <time>2018-02-18T10:23:15Z</time>
      </trkpt>
      <trkpt lat="45.01502" lon="6.46458">
        <ele>1666</ele>
        <time>2018-02-18T10:24:15Z</time>
      </trkpt>
      <trkpt lat="45.01509" lon="6.46412">
        <ele>1665</ele>
        <time>2018-02-18T10:25:15Z</time>
      </trkpt>
      <trkpt lat="45.01509" lon="6.46382">
        <ele>1664</ele>
        <time>2018-02-18T10:26:15Z</time>
      </trkpt>
      <trkpt lat="45.01486" lon="6.46385">
        <ele>1662</ele>
        <time>2018-02-18T10:27:15Z</time>
      </trkpt>
      <trkpt lat="45.01466" lon="6.46383">
        <ele>1660</ele>
        <time>2018-02-18T10:28:15Z</time>
      </trkpt>
      <trkpt lat="45.01444" lon="6.46376">
        <ele>1657</ele>
        <time>2018-02-18T10:29:15Z</time>
      </trkpt>
      <trkpt lat="45.01441" lon="6.46356">
        <ele>1656</ele>
        <time>2018-02-18T10:30:15Z</time>
      </trkpt>
      <trkpt lat="45.01436" lon="6.46349">
        <ele>1656</ele>
        <time>2018-02-18T10:31:15Z</time>
      </trkpt>
      <trkpt lat="45.01419" lon="6.4635">
        <ele>1654</ele>
        <time>2018-02-18T10:32:15Z</time>
      </trkpt>
      <trkpt lat="45.01371" lon="6.46361">
        <ele>1650</ele>
        <time>2018-02-18T10:33:15Z</time>
      </trkpt>
      <trkpt lat="45.01333" lon="6.46386">
        <ele>1646</ele>
        <time>2018-02-18T10:34:15Z</time>
      </trkpt>
      <trkpt lat="45.01295" lon="6.46437">
        <ele>1643</ele>
        <time>2018-02-18T10:35:15Z</time>
      </trkpt>
      <trkpt lat="45.0126" lon="6.46477">
        <ele>1640</ele>
        <time>2018-02-18T10:36:15Z</time>
      </trkpt>
      <trkpt lat="45.01201" lon="6.46551">
        <ele>1638</ele>
        <time>2018-02-18T10:37:15Z</time>
      </trkpt>
      <trkpt lat="45.01174" lon="6.46571">
        <ele>1636</ele>
        <time>2018-02-18T10:38:15Z</time>
      </trkpt>
      <trkpt lat="45.01145" lon="6.46587">
        <ele>1635</ele>
        <time>2018-02-18T10:39:15Z</time>
      </trkpt>
      <trkpt lat="45.01133" lon="6.46599">
        <ele>1635</ele>
        <time>2018-02-18T10:40:15Z</time>
      </trkpt>
      <trkpt lat="45.01119" lon="6.46624">
        <ele>1634</ele>
        <time>2018-02-18T10:41:15Z</time>
      </trkpt>
      <trkpt lat="45.0111" lon="6.46648">
        <ele>1633</ele>
        <time>2018-02-18T10:42:15Z</time>
      </trkpt>
      <trkpt lat="45.01102" lon="6.46687">
        <ele>1632</ele>
        <time>2018-02-18T10:43:15Z</time>
      </trkpt>
      <trkpt lat="45.01094" lon="6.46759">
        <ele>1631</ele>
        <time>2018-02-18T10:44:15Z</time>
      </trkpt>
      <trkpt lat="45.0108" lon="6.46825">
        <ele>1631</ele>
        <time>2018-02-18T10:45:15Z</time>
      </trkpt>
      <trkpt lat="45.01044" lon="6.469">
        <ele>1634</ele>
        <time>2018-02-18T10:46:15Z</time>
      </trkpt>
      <trkpt lat="45.01026" lon="6.46922">
        <ele>1633</ele>
        <time>2018-02-18T10:47:15Z</time>
      </trkpt>
      <trkpt lat="45.01004" lon="6.46943">
        <ele>1632</ele>
        <time>2018-02-18T10:48:15Z</time>
      </trkpt>
      <trkpt lat="45.00973" lon="6.46966">
        <ele>1633</ele>
        <time>2018-02-18T10:49:15Z</time>
      </trkpt>
      <trkpt lat="45.0095" lon="6.46974">
        <ele>1631</ele>
        <time>2018-02-18T10:50:15Z</time>
      </trkpt>
      <trkpt lat="45.00917" lon="6.46982">
        <ele>1628</ele>
        <time>2018-02-18T10:51:15Z</time>
      </trkpt>
      <trkpt lat="45.0087" lon="6.47002">
        <ele>1622</ele>
        <time>2018-02-18T10:52:15Z</time>
      </trkpt>
      <trkpt lat="45.00842" lon="6.47021">
        <ele>1620</ele>
        <time>2018-02-18T10:53:15Z</time>
      </trkpt>
      <trkpt lat="45.00793" lon="6.4707">
        <ele>1620</ele>
        <time>2018-02-18T10:54:15Z</time>
      </trkpt>
      <trkpt lat="45.00785" lon="6.47074">
        <ele>1619</ele>
        <time>2018-02-18T10:55:15Z</time>
      </trkpt>
      <trkpt lat="45.00717" lon="6.47089">
        <ele>1613</ele>
        <time>2018-02-18T10:56:15Z</time>
      </trkpt>
      <trkpt lat="45.00592" lon="6.47103">
        <ele>1610</ele>
        <time>2018-02-18T10:57:15Z</time>
      </trkpt>
      <trkpt lat="45.00561" lon="6.47112">
        <ele>1610</ele>
        <time>2018-02-18T10:58:15Z</time>
      </trkpt>
      <trkpt lat="45.00534" lon="6.47125">
        <ele>1611</ele>
        <time>2018-02-18T10:59:15Z</time>
      </trkpt>
      <trkpt lat="45.00507" lon="6.47134">
        <ele>1612</ele>
        <time>2018-02-18T11:00:15Z</time>
      </trkpt>
      <trkpt lat="45.00477" lon="6.47147">
        <ele>1611</ele>
        <time>2018-02-18T11:01:15Z</time>
      </trkpt>
      <trkpt lat="45.00456" lon="6.47162">
        <ele>1609</ele>
        <time>2018-02-18T11:02:15Z</time>
      </trkpt>
      <trkpt lat="45.00433" lon="6.47185">
        <ele>1608</ele>
        <time>2018-02-18T11:03:15Z</time>
      </trkpt>
      <trkpt lat="45.00397" lon="6.4721">
        <ele>1605</ele>
        <time>2018-02-18T11:04:15Z</time>
      </trkpt>
      <trkpt lat="45.00383" lon="6.47224">
        <ele>1603</ele>
        <time>2018-02-18T11:05:15Z</time>
      </trkpt>
      <trkpt lat="45.00346" lon="6.47252">
        <ele>1598</ele>
        <time>2018-02-18T11:06:15Z</time>
      </trkpt>
      <trkpt lat="45.00317" lon="6.47281">
        <ele>1595</ele>
        <time>2018-02-18T11:07:15Z</time>
      </trkpt>
      <trkpt lat="45.00287" lon="6.47309">
        <ele>1591</ele>
        <time>2018-02-18T11:08:15Z</time>
      </trkpt>
      <trkpt lat="45.00266" lon="6.47341">
        <ele>1589</ele>
        <time>2018-02-18T11:09:15Z</time>
      </trkpt>
      <trkpt lat="45.00215" lon="6.47402">
        <ele>1583</ele>
        <time>2018-02-18T11:10:15Z</time>
      </trkpt>
      <trkpt lat="45.00139" lon="6.47489">
        <ele>1575</ele>
        <time>2018-02-18T11:11:15Z</time>
      </trkpt>
      <trkpt lat="45.00073" lon="6.47514">
        <ele>1571</ele>
        <time>2018-02-18T11:12:15Z</time>
      </trkpt>
      <trkpt lat="45.0004" lon="6.47534">
        <ele>1571</ele>
        <time>2018-02-18T11:13:15Z</time>
      </trkpt>
      <trkpt lat="45.00007" lon="6.47547">
        <ele>1569</ele>
        <time>2018-02-18T11:14:15Z</time>
      </trkpt>
      <trkpt lat="44.99972" lon="6.47567">
        <ele>1568</ele>
        <time>2018-02-18T11:15:15Z</time>
      </trkpt>
      <trkpt lat="44.99942" lon="6.47596">
        <ele>1568</ele>
        <time>2018-02-18T11:16:15Z</time>
      </trkpt>
      <trkpt lat="44.99907" lon="6.47625">
        <ele>1568</ele>
        <time>2018-02-18T11:17:15Z</time>
      </trkpt>
      <trkpt lat="44.99891" lon="6.47648">
        <ele>1568</ele>
        <time>2018-02-18T11:18:15Z</time>
      </trkpt>
      <trkpt lat="44.99853" lon="6.47692">
        <ele>1569</ele>
        <time>2018-02-18T11:19:15Z</time>
      </trkpt>
      <trkpt lat="44.99822" lon="6.47716">
        <ele>1569</ele>
        <time>2018-02-18T11:20:15Z</time>
      </trkpt>
      <trkpt lat="44.99811" lon="6.47716">
        <ele>1568</ele>
        <time>2018-02-18T11:21:15Z</time>
      </trkpt>
      <trkpt lat="44.99789" lon="6.47709">
        <ele>1565</ele>
        <time>2018-02-18T11:22:15Z</time>
      </trkpt>
      <trkpt lat="44.99768" lon="6.47719">
        <ele>1565</ele>
        <time>2018-02-18T11:23:15Z</time>
      </trkpt>
      <trkpt lat="44.99735" lon="6.47744">
        <ele>1563</ele>
        <time>2018-02-18T11:24:15Z</time>
      </trkpt>
      <trkpt lat="44.99713" lon="6.47748">
        <ele>1561</ele>
        <time>2018-02-18T11:25:15Z</time>
      </trkpt>
      <trkpt lat="44.99701" lon="6.47738">
        <ele>1560</ele>
        <time>2018-02-18T11:26:15Z</time>
      </trkpt>
      <trkpt lat="44.99661" lon="6.47721">
        <ele>1556</ele>
        <time>2018-02-18T11:27:15Z</time>
      </trkpt>
      <trkpt lat="44.99599" lon="6.47703">
        <ele>1553</ele>
        <time>2018-02-18T11:28:15Z</time>
      </trkpt>
      <trkpt lat="44.99587" lon="6.47704">
        <ele>1552</ele>
        <time>2018-02-18T11:29:15Z</time>
      </trkpt>
      <trkpt lat="44.99547" lon="6.47718">
        <ele>1550</ele>
        <time>2018-02-18T11:30:15Z</time>
      </trkpt>
      <trkpt lat="44.99498" lon="6.47725">
        <ele>1547</ele>
        <time>2018-02-18T11:31:15Z</time>
      </trkpt>
      <trkpt lat="44.99484" lon="6.47732">
        <ele>1547</ele>
        <time>2018-02-18T11:32:15Z</time>
      </trkpt>
      <trkpt lat="44.99471" lon="6.47741">
        <ele>1546</ele>
        <time>2018-02-18T11:33:15Z</time>
      </trkpt>
      <trkpt lat="44.99417" lon="6.47816">
        <ele>1539</ele>
        <time>2018-02-18T11:34:15Z</time>
      </trkpt>
      <trkpt lat="44.99335" lon="6.47891">
        <ele>1535</ele>
        <time>2018-02-18T11:35:15Z</time>
      </trkpt>
      <trkpt lat="44.9925" lon="6.47941">
        <ele>1534</ele>
        <time>2018-02-18T11:36:15Z</time>
      </trkpt>
      <trkpt lat="44.99204" lon="6.47961">
        <ele>1534</ele>
        <time>2018-02-18T11:37:15Z</time>
      </trkpt>
      <trkpt lat="44.99101" lon="6.47997">
        <ele>1532</ele>
        <time>2018-02-18T11:38:15Z</time>
      </trkpt>
      <trkpt lat="44.99058" lon="6.48018">
        <ele>1530</ele>
        <time>2018-02-18T11:39:15Z</time>
      </trkpt>
      <trkpt lat="44.99013" lon="6.4803">
        <ele>1528</ele>
        <time>2018-02-18T11:40:15Z</time>
      </trkpt>
      <trkpt lat="44.98966" lon="6.48051">
        <ele>1528</ele>
        <time>2018-02-18T11:41:15Z</time>
      </trkpt>
      <trkpt lat="44.98952" lon="6.48054">
        <ele>1528</ele>
        <time>2018-02-18T11:42:15Z</time>
      </trkpt>
      <trkpt lat="44.98908" lon="6.48057">
        <ele>1529</ele>
        <time>2018-02-18T11:43:15Z</time>
      </trkpt>
      <trkpt lat="44.9887" lon="6.48051">
        <ele>1528</ele>
        <time>2018-02-18T11:44:15Z</time>
      </trkpt>
      <trkpt lat="44.9885" lon="6.48046">
        <ele>1527</ele>
        <time>2018-02-18T11:45:15Z</time>
      </trkpt>
      <trkpt lat="44.98839" lon="6.48049">
        <ele>1527</ele>
        <time>2018-02-18T11:46:15Z</time>
      </trkpt>
      <trkpt lat="44.98814" lon="6.48071">
        <ele>1526</ele>
        <time>2018-02-18T11:47:15Z</time>
      </trkpt>
      <trkpt lat="44.98805" lon="6.48084">
        <ele>1525</ele>
        <time>2018-02-18T11:48:15Z</time>
      </trkpt>
      <trkpt lat="44.98786" lon="6.48122">
        <ele>1525</ele>
        <time>2018-02-18T11:49:15Z</time>
      </trkpt>
      <trkpt lat="44.98776" lon="6.48146">
        <ele>1525</ele>
        <time>2018-02-18T11:50:15Z</time>
      </trkpt>
      <trkpt lat="44.98771" lon="6.48152">
        <ele>1525</ele>
        <time>2018-02-18T11:51:15Z</time>
      </trkpt>
      <trkpt lat="44.98756" lon="6.48159">
        <ele>1525</ele>
        <time>2018-02-18T11:52:15Z</time>
      </trkpt>
      <trkpt lat="44.98738" lon="6.48161">
        <ele>1524</ele>
        <time>2018-02-18T11:53:15Z</time>
      </trkpt>
      <trkpt lat="44.98727" lon="6.4819">
        <ele>1524</ele>
        <time>2018-02-18T11:54:15Z</time>
      </trkpt>
      <trkpt lat="44.98714" lon="6.48203">
        <ele>1523</ele>
        <time>2018-02-18T11:55:15Z</time>
      </trkpt>
      <trkpt lat="44.98692" lon="6.48214">
        <ele>1521</ele>
        <time>2018-02-18T11:56:15Z</time>
      </trkpt>
      <trkpt lat="44.98675" lon="6.48229">
        <ele>1520</ele>
        <time>2018-02-18T11:57:15Z</time>
      </trkpt>
      <trkpt lat="44.98657" lon="6.48262">
        <ele>1519</ele>
        <time>2018-02-18T11:58:15Z</time>
      </trkpt>
      <trkpt lat="44.98643" lon="6.48292">
        <ele>1518</ele>
        <time>2018-02-18T11:59:15Z</time>
      </trkpt>
      <trkpt lat="44.98626" lon="6.48312">
        <ele>1517</ele>
        <time>2018-02-18T12:00:15Z</time>
      </trkpt>
      <trkpt lat="44.9862" lon="6.48315">
        <ele>1516</ele>
        <time>2018-02-18T12:01:15Z</time>
      </trkpt>
      <trkpt lat="44.98595" lon="6.48315">
        <ele>1514</ele>
        <time>2018-02-18T12:02:15Z</time>
      </trkpt>
      <trkpt lat="44.98585" lon="6.4832">
        <ele>1514</ele>
        <time>2018-02-18T12:03:15Z</time>
      </trkpt>
      <trkpt lat="44.98575" lon="6.48329">
        <ele>1513</ele>
        <time>2018-02-18T12:04:15Z</time>
      </trkpt>
      <trkpt lat="44.98567" lon="6.48344">
        <ele>1513</ele>
        <time>2018-02-18T12:05:15Z</time>
      </trkpt>
      <trkpt lat="44.98556" lon="6.48377">
        <ele>1512</ele>
        <time>2018-02-18T12:06:15Z</time>
      </trkpt>
      <trkpt lat="44.98547" lon="6.48396">
        <ele>1511</ele>
        <time>2018-02-18T12:07:15Z</time>
      </trkpt>
      <trkpt lat="44.98542" lon="6.48403">
        <ele>1511</ele>
        <time>2018-02-18T12:08:15Z</time>
      </trkpt>
      <trkpt lat="44.98534" lon="6.4841">
        <ele>1511</ele>
        <time>2018-02-18T12:09:15Z</time>
      </trkpt>
      <trkpt lat="44.98523" lon="6.48418">
        <ele>1511</ele>
        <time>2018-02-18T12:10:15Z</time>
      </trkpt>
      <trkpt lat="44.98515" lon="6.48422">
        <ele>1510</ele>
        <time>2018-02-18T12:11:15Z</time>
      </trkpt>
      <trkpt lat="44.9851" lon="6.48428">
        <ele>1510</ele>
        <time>2018-02-18T12:12:15Z</time>
      </trkpt>
      <trkpt lat="44.98513" lon="6.48452">
        <ele>1510</ele>
        <time>2018-02-18T12:13:15Z</time>
      </trkpt>
      <trkpt lat="44.98431" lon="6.48621">
        <ele>1506</ele>
        <time>2018-02-18T12:14:15Z</time>
      </trkpt>
      <trkpt lat="44.98414" lon="6.48661">
        <ele>1504</ele>
        <time>2018-02-18T12:15:15Z</time>
      </trkpt>
      <trkpt lat="44.98402" lon="6.48703">
        <ele>1503</ele>
        <time>2018-02-18T12:16:15Z</time>
      </trkpt>
      <trkpt lat="44.98378" lon="6.48812">
        <ele>1503</ele>
        <time>2018-02-18T12:17:15Z</time>
      </trkpt>
      <trkpt lat="44.98265" lon="6.49349">
        <ele>1492</ele>
        <time>2018-02-18T12:18:15Z</time>
      </trkpt>
      <trkpt lat="44.98253" lon="6.49417">
        <ele>1492</ele>
        <time>2018-02-18T12:19:15Z</time>
      </trkpt>
      <trkpt lat="44.98221" lon="6.49557">
        <ele>1493</ele>
        <time>2018-02-18T12:20:15Z</time>
      </trkpt>
      <trkpt lat="44.98179" lon="6.49719">
        <ele>1499</ele>
        <time>2018-02-18T12:21:15Z</time>
      </trkpt>
      <trkpt lat="44.9814" lon="6.49851">
        <ele>1507</ele>
        <time>2018-02-18T12:22:15Z</time>
      </trkpt>
      <trkpt lat="44.98127" lon="6.49871">
        <ele>1509</ele>
        <time>2018-02-18T12:23:15Z</time>
      </trkpt>
      <trkpt lat="44.981" lon="6.49894">
        <ele>1511</ele>
        <time>2018-02-18T12:24:15Z</time>
      </trkpt>
      <trkpt lat="44.9808" lon="6.49916">
        <ele>1513</ele>
        <time>2018-02-18T12:25:15Z</time>
      </trkpt>
      <trkpt lat="44.98059" lon="6.49908">
        <ele>1511</ele>
        <time>2018-02-18T12:26:15Z</time>
      </trkpt>
      <trkpt lat="44.98032" lon="6.49904">
        <ele>1509</ele>
        <time>2018-02-18T12:27:15Z</time>
      </trkpt>
      <trkpt lat="44.98005" lon="6.49918">
        <ele>1508</ele>
        <time>2018-02-18T12:28:15Z</time>
      </trkpt>
      <trkpt lat="44.9799" lon="6.49929">
        <ele>1508</ele>
        <time>2018-02-18T12:29:15Z</time>
      </trkpt>
      <trkpt lat="44.97975" lon="6.49942">
        <ele>1508</ele>
        <time>2018-02-18T12:30:15Z</time>
      </trkpt>
      <trkpt lat="44.97905" lon="6.50036">
        <ele>1510</ele>
        <time>2018-02-18T12:31:15Z</time>
      </trkpt>
      <trkpt lat="44.97883" lon="6.50081">
        <ele>1509</ele>
        <time>2018-02-18T12:32:15Z</time>
      </trkpt>
      <trkpt lat="44.97864" lon="6.50132">
        <ele>1507</ele>
        <time>2018-02-18T12:33:15Z</time>
      </trkpt>
      <trkpt lat="44.97819" lon="6.50299">
        <ele>1505</ele>
        <time>2018-02-18T12:34:15Z</time>
      </trkpt>
      <trkpt lat="44.97803" lon="6.50352">
        <ele>1503</ele>
        <time>2018-02-18T12:35:15Z</time>
      </trkpt>
      <trkpt lat="44.97786" lon="6.50392">
        <ele>1501</ele>
        <time>2018-02-18T12:36:15Z</time>
      </trkpt>
      <trkpt lat="44.97754" lon="6.50458">
        <ele>1498</ele>
        <time>2018-02-18T12:37:15Z</time>
      </trkpt>
      <trkpt lat="44.97722" lon="6.50449">
        <ele>1495</ele>
        <time>2018-02-18T12:38:15Z</time>
      </trkpt>
      <trkpt lat="44.9769" lon="6.50435">
        <ele>1491</ele>
        <time>2018-02-18T12:39:15Z</time>
      </trkpt>
      <trkpt lat="44.9766" lon="6.50413">
        <ele>1487</ele>
        <time>2018-02-18T12:40:15Z</time>
      </trkpt>
      <trkpt lat="44.97654" lon="6.5041">
        <ele>1487</ele>
        <time>2018-02-18T12:41:15Z</time>
      </trkpt>
      <trkpt lat="44.97627" lon="6.50406">
        <ele>1485</ele>
        <time>2018-02-18T12:42:15Z</time>
      </trkpt>
      <trkpt lat="44.97611" lon="6.50407">
        <ele>1483</ele>
        <time>2018-02-18T12:43:15Z</time>
      </trkpt>
      <trkpt lat="44.97573" lon="6.50421">
        <ele>1481</ele>
        <time>2018-02-18T12:44:15Z</time>
      </trkpt>
      <trkpt lat="44.97534" lon="6.50429">
        <ele>1478</ele>
        <time>2018-02-18T12:45:15Z</time>
      </trkpt>
      <trkpt lat="44.97513" lon="6.50423">
        <ele>1477</ele>
        <time>2018-02-18T12:46:15Z</time>
      </trkpt>
      <trkpt lat="44.97486" lon="6.50408">
        <ele>1475</ele>
        <time>2018-02-18T12:47:15Z</time>
      </trkpt>
      <trkpt lat="44.97423" lon="6.50364">
        <ele>1473</ele>
        <time>2018-02-18T12:48:15Z</time>
      </trkpt>
      <trkpt lat="44.97391" lon="6.50461">
        <ele>1471</ele>
        <time>2018-02-18T12:49:15Z</time>
      </trkpt>
      <trkpt lat="44.97375" lon="6.50518">
        <ele>1470</ele>
        <time>2018-02-18T12:50:15Z</time>
      </trkpt>
      <trkpt lat="44.97372" lon="6.50561">
        <ele>1469</ele>
        <time>2018-02-18T12:51:15Z</time>
      </trkpt>
      <trkpt lat="44.97344" lon="6.50728">
        <ele>1466</ele>
        <time>2018-02-18T12:52:15Z</time>
      </trkpt>
      <trkpt lat="44.97334" lon="6.50768">
        <ele>1466</ele>
        <time>2018-02-18T12:53:15Z</time>
      </trkpt>
      <trkpt lat="44.9732" lon="6.50796">
        <ele>1465</ele>
        <time>2018-02-18T12:54:15Z</time>
      </trkpt>
      <trkpt lat="44.97313" lon="6.50805">
        <ele>1465</ele>
        <time>2018-02-18T12:55:15Z</time>
      </trkpt>
      <trkpt lat="44.97303" lon="6.5081">
        <ele>1465</ele>
        <time>2018-02-18T12:56:15Z</time>
      </trkpt>
      <trkpt lat="44.97274" lon="6.50819">
        <ele>1465</ele>
        <time>2018-02-18T12:57:15Z</time>
      </trkpt>
      <trkpt lat="44.97266" lon="6.50823">
        <ele>1465</ele>
        <time>2018-02-18T12:58:15Z</time>
      </trkpt>
      <trkpt lat="44.97188" lon="6.50927">
        <ele>1464</ele>
        <time>2018-02-18T12:59:15Z</time>
      </trkpt>
      <trkpt lat="44.97159" lon="6.50974">
        <ele>1463</ele>
        <time>2018-02-18T13:00:15Z</time>
      </trkpt>
      <trkpt lat="44.97126" lon="6.5107">
        <ele>1462</ele>
        <time>2018-02-18T13:01:15Z</time>
      </trkpt>
      <trkpt lat="44.97116" lon="6.51124">
        <ele>1462</ele>
        <time>2018-02-18T13:02:15Z</time>
      </trkpt>
      <trkpt lat="44.97095" lon="6.51199">
        <ele>1461</ele>
        <time>2018-02-18T13:03:15Z</time>
      </trkpt>
      <trkpt lat="44.9708" lon="6.51268">
        <ele>1460</ele>
        <time>2018-02-18T13:04:15Z</time>
      </trkpt>
      <trkpt lat="44.97076" lon="6.51277">
        <ele>1460</ele>
        <time>2018-02-18T13:05:15Z</time>
      </trkpt>
      <trkpt lat="44.97023" lon="6.51339">
        <ele>1463</ele>
        <time>2018-02-18T13:06:15Z</time>
      </trkpt>
      <trkpt lat="44.96971" lon="6.51446">
        <ele>1462</ele>
        <time>2018-02-18T13:07:15Z</time>
      </trkpt>
      <trkpt lat="44.96962" lon="6.51464">
        <ele>1461</ele>
        <time>2018-02-18T13:08:15Z</time>
      </trkpt>
      <trkpt lat="44.96942" lon="6.51492">
        <ele>1461</ele>
        <time>2018-02-18T13:09:15Z</time>
      </trkpt>
      <trkpt lat="44.96936" lon="6.51504">
        <ele>1461</ele>
        <time>2018-02-18T13:10:15Z</time>
      </trkpt>
      <trkpt lat="44.96907" lon="6.5158">
        <ele>1460</ele>
        <time>2018-02-18T13:11:15Z</time>
      </trkpt>
      <trkpt lat="44.96899" lon="6.51597">
        <ele>1459</ele>
        <time>2018-02-18T13:12:15Z</time>
      </trkpt>
      <trkpt lat="44.96859" lon="6.51652">
        <ele>1458</ele>
        <time>2018-02-18T13:13:15Z</time>
      </trkpt>
      <trkpt lat="44.96797" lon="6.51767">
        <ele>1456</ele>
        <time>2018-02-18T13:14:15Z</time>
      </trkpt>
      <trkpt lat="44.9677" lon="6.51847">
        <ele>1459</ele>
        <time>2018-02-18T13:15:15Z</time>
      </trkpt>
      <trkpt lat="44.96751" lon="6.51957">
        <ele>1460</ele>
        <time>2018-02-18T13:16:15Z</time>
      </trkpt>
      <trkpt lat="44.96754" lon="6.52042">
        <ele>1460</ele>
        <time>2018-02-18T13:17:15Z</time>
      </trkpt>
      <trkpt lat="44.96725" lon="6.52201">
        <ele>1463</ele>
        <time>2018-02-18T13:18:15Z</time>
      </trkpt>
      <trkpt lat="44.96717" lon="6.52272">
        <ele>1463</ele>
        <time>2018-02-18T13:19:15Z</time>
      </trkpt>
      <trkpt lat="44.96708" lon="6.52313">
        <ele>1462</ele>
        <time>2018-02-18T13:20:15Z</time>
      </trkpt>
      <trkpt lat="44.96715" lon="6.52378">
        <ele>1458</ele>
        <time>2018-02-18T13:21:15Z</time>
      </trkpt>
      <trkpt lat="44.96714" lon="6.52394">
        <ele>1458</ele>
        <time>2018-02-18T13:22:15Z</time>
      </trkpt>
      <trkpt lat="44.96711" lon="6.52408">
        <ele>1457</ele>
        <time>2018-02-18T13:23:15Z</time>
      </trkpt>
      <trkpt lat="44.9665" lon="6.52611">
        <ele>1455</ele>
        <time>2018-02-18T13:24:15Z</time>
      </trkpt>
      <trkpt lat="44.96634" lon="6.52659">
        <ele>1452</ele>
        <time>2018-02-18T13:25:15Z</time>
      </trkpt>
      <trkpt lat="44.96613" lon="6.52742">
        <ele>1448</ele>
        <time>2018-02-18T13:26:15Z</time>
      </trkpt>
      <trkpt lat="44.96604" lon="6.52788">
        <ele>1446</ele>
        <time>2018-02-18T13:27:15Z</time>
      </trkpt>
      <trkpt lat="44.96559" lon="6.52888">
        <ele>1444</ele>
        <time>2018-02-18T13:28:15Z</time>
      </trkpt>
      <trkpt lat="44.96523" lon="6.52919">
        <ele>1445</ele>
        <time>2018-02-18T13:29:15Z</time>
      </trkpt>
      <trkpt lat="44.96543" lon="6.5295">
        <ele>1443</ele>
        <time>2018-02-18T13:30:15Z</time>
      </trkpt>
      <trkpt lat="44.96563" lon="6.52965">
        <ele>1441</ele>
        <time>2018-02-18T13:31:15Z</time>
      </trkpt>
      <trkpt lat="44.96578" lon="6.53004">
        <ele>1438</ele>
        <time>2018-02-18T13:32:15Z</time>
      </trkpt>
      <trkpt lat="44.96587" lon="6.53033">
        <ele>1435</ele>
        <time>2018-02-18T13:33:15Z</time>
      </trkpt>
      <trkpt lat="44.96595" lon="6.53067">
        <ele>1433</ele>
        <time>2018-02-18T13:34:15Z</time>
      </trkpt>
      <trkpt lat="44.96592" lon="6.53088">
        <ele>1431</ele>
        <time>2018-02-18T13:35:15Z</time>
      </trkpt>
      <trkpt lat="44.96579" lon="6.53109">
        <ele>1431</ele>
        <time>2018-02-18T13:36:15Z</time>
      </trkpt>
      <trkpt lat="44.96573" lon="6.53122">
        <ele>1430</ele>
        <time>2018-02-18T13:37:15Z</time>
      </trkpt>
      <trkpt lat="44.9657" lon="6.53152">
        <ele>1428</ele>
        <time>2018-02-18T13:38:15Z</time>
      </trkpt>
      <trkpt lat="44.96578" lon="6.53173">
        <ele>1427</ele>
        <time>2018-02-18T13:39:15Z</time>
      </trkpt>
      <trkpt lat="44.96537" lon="6.53221">
        <ele>1426</ele>
        <time>2018-02-18T13:40:15Z</time>
      </trkpt>
      <trkpt lat="44.96529" lon="6.53246">
        <ele>1425</ele>
        <time>2018-02-18T13:41:15Z</time>
      </trkpt>
      <trkpt lat="44.9652" lon="6.53268">
        <ele>1425</ele>
        <time>2018-02-18T13:42:15Z</time>
      </trkpt>
      <trkpt lat="44.96488" lon="6.53285">
        <ele>1424</ele>
        <time>2018-02-18T13:43:15Z</time>
      </trkpt>
      <trkpt lat="44.96473" lon="6.5331">
        <ele>1424</ele>
        <time>2018-02-18T13:44:15Z</time>
      </trkpt>
      <trkpt lat="44.96458" lon="6.53352">
        <ele>1423</ele>
        <time>2018-02-18T13:45:15Z</time>
      </trkpt>
      <trkpt lat="44.96446" lon="6.53372">
        <ele>1422</ele>
        <time>2018-02-18T13:46:15Z</time>
      </trkpt>
      <trkpt lat="44.96378" lon="6.5343">
        <ele>1422</ele>
        <time>2018-02-18T13:47:15Z</time>
      </trkpt>
      <trkpt lat="44.96333" lon="6.53454">
        <ele>1423</ele>
        <time>2018-02-18T13:48:15Z</time>
      </trkpt>
      <trkpt lat="44.96298" lon="6.53468">
        <ele>1423</ele>
        <time>2018-02-18T13:49:15Z</time>
      </trkpt>
      <trkpt lat="44.96274" lon="6.53505">
        <ele>1422</ele>
        <time>2018-02-18T13:50:15Z</time>
      </trkpt>
      <trkpt lat="44.96271" lon="6.53524">
        <ele>1421</ele>
        <time>2018-02-18T13:51:15Z</time>
      </trkpt>
      <trkpt lat="44.96284" lon="6.53563">
        <ele>1420</ele>
        <time>2018-02-18T13:52:15Z</time>
      </trkpt>
      <trkpt lat="44.96294" lon="6.53619">
        <ele>1420</ele>
        <time>2018-02-18T13:53:15Z</time>
      </trkpt>
      <trkpt lat="44.96301" lon="6.53638">
        <ele>1420</ele>
        <time>2018-02-18T13:54:15Z</time>
      </trkpt>
      <trkpt lat="44.96308" lon="6.53652">
        <ele>1421</ele>
        <time>2018-02-18T13:55:15Z</time>
      </trkpt>
      <trkpt lat="44.96335" lon="6.53663">
        <ele>1422</ele>
        <time>2018-02-18T13:56:15Z</time>
      </trkpt>
      <trkpt lat="44.96341" lon="6.53676">
        <ele>1423</ele>
        <time>2018-02-18T13:57:15Z</time>
      </trkpt>
      <trkpt lat="44.96355" lon="6.53665">
        <ele>1423</ele>
        <time>2018-02-18T13:58:15Z</time>
      </trkpt>
      <trkpt lat="44.96345" lon="6.53701">
        <ele>1425</ele>
        <time>2018-02-18T13:59:15Z</time>
      </trkpt>
      <trkpt lat="44.96351" lon="6.53747">
        <ele>1428</ele>
        <time>2018-02-18T14:00:15Z</time>
      </trkpt>
      <trkpt lat="44.96358" lon="6.53779">
        <ele>1430</ele>
        <time>2018-02-18T14:01:15Z</time>
      </trkpt>
      <trkpt lat="44.96363" lon="6.53788">
        <ele>1430</ele>
        <time>2018-02-18T14:02:15Z</time>
      </trkpt>
      <trkpt lat="44.96366" lon="6.53791">
        <ele>1431</ele>
        <time>2018-02-18T14:03:15Z</time>
      </trkpt>
      <trkpt lat="44.96272" lon="6.53933">
        <ele>1431</ele>
        <time>2018-02-18T14:04:15Z</time>
      </trkpt>
      <trkpt lat="44.96239" lon="6.53993">
        <ele>1431</ele>
        <time>2018-02-18T14:05:15Z</time>
      </trkpt>
      <trkpt lat="44.96178" lon="6.54097">
        <ele>1432</ele>
        <time>2018-02-18T14:06:15Z</time>
      </trkpt>
      <trkpt lat="44.96108" lon="6.54193">
        <ele>1430</ele>
        <time>2018-02-18T14:07:15Z</time>
      </trkpt>
      <trkpt lat="44.96104" lon="6.54207">
        <ele>1430</ele>
        <time>2018-02-18T14:08:15Z</time>
      </trkpt>
      <trkpt lat="44.96103" lon="6.54225">
        <ele>1431</ele>
        <time>2018-02-18T14:09:15Z</time>
      </trkpt>
      <trkpt lat="44.96104" lon="6.54243">
        <ele>1432</ele>
        <time>2018-02-18T14:10:15Z</time>
      </trkpt>
      <trkpt lat="44.96093" lon="6.5433">
        <ele>1435</ele>
        <time>2018-02-18T14:11:15Z</time>
      </trkpt>
      <trkpt lat="44.96109" lon="6.54384">
        <ele>1439</ele>
        <time>2018-02-18T14:12:15Z</time>
      </trkpt>
      <trkpt lat="44.96112" lon="6.54412">
        <ele>1440</ele>
        <time>2018-02-18T14:13:15Z</time>
      </trkpt>
      <trkpt lat="44.96108" lon="6.5445">
        <ele>1440</ele>
        <time>2018-02-18T14:14:15Z</time>
      </trkpt>
      <trkpt lat="44.96093" lon="6.54486">
        <ele>1438</ele>
        <time>2018-02-18T14:15:15Z</time>
      </trkpt>
      <trkpt lat="44.96073" lon="6.54517">
        <ele>1438</ele>
        <time>2018-02-18T14:16:15Z</time>
      </trkpt>
      <trkpt lat="44.96052" lon="6.54534">
        <ele>1439</ele>
        <time>2018-02-18T14:17:15Z</time>
      </trkpt>
      <trkpt lat="44.96022" lon="6.5454">
        <ele>1439</ele>
        <time>2018-02-18T14:18:15Z</time>
      </trkpt>
      <trkpt lat="44.96008" lon="6.54546">
        <ele>1439</ele>
        <time>2018-02-18T14:19:15Z</time>
      </trkpt>
      <trkpt lat="44.95993" lon="6.54548">
        <ele>1438</ele>
        <time>2018-02-18T14:20:15Z</time>
      </trkpt>
      <trkpt lat="44.95989" lon="6.54556">
        <ele>1439</ele>
        <time>2018-02-18T14:21:15Z</time>
      </trkpt>
      <trkpt lat="44.95963" lon="6.54581">
        <ele>1442</ele>
        <time>2018-02-18T14:22:15Z</time>
      </trkpt>
      <trkpt lat="44.95965" lon="6.54606">
        <ele>1443</ele>
        <time>2018-02-18T14:23:15Z</time>
      </trkpt>
      <trkpt lat="44.95963" lon="6.54615">
        <ele>1443</ele>
        <time>2018-02-18T14:24:15Z</time>
      </trkpt>
      <trkpt lat="44.95958" lon="6.54627">
        <ele>1444</ele>
        <time>2018-02-18T14:25:15Z</time>
      </trkpt>
      <trkpt lat="44.95934" lon="6.54655">
        <ele>1444</ele>
        <time>2018-02-18T14:26:15Z</time>
      </trkpt>
      <trkpt lat="44.95926" lon="6.54661">
        <ele>1444</ele>
        <time>2018-02-18T14:27:15Z</time>
      </trkpt>
      <trkpt lat="44.95901" lon="6.54664">
        <ele>1443</ele>
        <time>2018-02-18T14:28:15Z</time>
      </trkpt>
      <trkpt lat="44.95894" lon="6.54656">
        <ele>1442</ele>
        <time>2018-02-18T14:29:15Z</time>
      </trkpt>
      <trkpt lat="44.95889" lon="6.54654">
        <ele>1441</ele>
        <time>2018-02-18T14:30:15Z</time>
      </trkpt>
      <trkpt lat="44.95876" lon="6.54664">
        <ele>1440</ele>
        <time>2018-02-18T14:31:15Z</time>
      </trkpt>
      <trkpt lat="44.95871" lon="6.54672">
        <ele>1440</ele>
        <time>2018-02-18T14:32:15Z</time>
      </trkpt>
      <trkpt lat="44.95866" lon="6.5469">
        <ele>1439</ele>
        <time>2018-02-18T14:33:15Z</time>
      </trkpt>
      <trkpt lat="44.95875" lon="6.54752">
        <ele>1440</ele>
        <time>2018-02-18T14:34:15Z</time>
      </trkpt>
      <trkpt lat="44.95875" lon="6.54772">
        <ele>1440</ele>
        <time>2018-02-18T14:35:15Z</time>
      </trkpt>
      <trkpt lat="44.95868" lon="6.548">
        <ele>1438</ele>
        <time>2018-02-18T14:36:15Z</time>
      </trkpt>
      <trkpt lat="44.95857" lon="6.54829">
        <ele>1435</ele>
        <time>2018-02-18T14:37:15Z</time>
      </trkpt>
      <trkpt lat="44.9583" lon="6.54856">
        <ele>1431</ele>
        <time>2018-02-18T14:38:15Z</time>
      </trkpt>
      <trkpt lat="44.95809" lon="6.54854">
        <ele>1427</ele>
        <time>2018-02-18T14:39:15Z</time>
      </trkpt>
      <trkpt lat="44.9578" lon="6.54839">
        <ele>1421</ele>
        <time>2018-02-18T14:40:15Z</time>
      </trkpt>
      <trkpt lat="44.9576" lon="6.54846">
        <ele>1417</ele>
        <time>2018-02-18T14:41:15Z</time>
      </trkpt>
      <trkpt lat="44.95724" lon="6.54869">
        <ele>1413</ele>
        <time>2018-02-18T14:42:15Z</time>
      </trkpt>
      <trkpt lat="44.957" lon="6.54881">
        <ele>1410</ele>
        <time>2018-02-18T14:43:15Z</time>
      </trkpt>
      <trkpt lat="44.9568" lon="6.54876">
        <ele>1408</ele>
        <time>2018-02-18T14:44:15Z</time>
      </trkpt>
      <trkpt lat="44.95601" lon="6.54832">
        <ele>1401</ele>
        <time>2018-02-18T14:45:15Z</time>
      </trkpt>
      <trkpt lat="44.95586" lon="6.54838">
        <ele>1400</ele>
        <time>2018-02-18T14:46:15Z</time>
      </trkpt>
      <trkpt lat="44.95551" lon="6.54872">
        <ele>1399</ele>
        <time>2018-02-18T14:47:15Z</time>
      </trkpt>
      <trkpt lat="44.95429" lon="6.54976">
        <ele>1398</ele>
        <time>2018-02-18T14:48:15Z</time>
      </trkpt>
      <trkpt lat="44.95394" lon="6.55022">
        <ele>1399</ele>
        <time>2018-02-18T14:49:15Z</time>
      </trkpt>
      <trkpt lat="44.95347" lon="6.55099">
        <ele>1398</ele>
        <time>2018-02-18T14:50:15Z</time>
      </trkpt>
      <trkpt lat="44.95257" lon="6.55229">
        <ele>1396</ele>
        <time>2018-02-18T14:51:15Z</time>
      </trkpt>
      <trkpt lat="44.95168" lon="6.55351">
        <ele>1397</ele>
        <time>2018-02-18T14:52:15Z</time>
      </trkpt>
      <trkpt lat="44.95136" lon="6.55397">
        <ele>1397</ele>
        <time>2018-02-18T14:53:15Z</time>
      </trkpt>
      <trkpt lat="44.94993" lon="6.55592">
        <ele>1395</ele>
        <time>2018-02-18T14:54:15Z</time>
      </trkpt>
      <trkpt lat="44.94911" lon="6.55711">
        <ele>1394</ele>
        <time>2018-02-18T14:55:15Z</time>
      </trkpt>
      <trkpt lat="44.94895" lon="6.55737">
        <ele>1393</ele>
        <time>2018-02-18T14:56:15Z</time>
      </trkpt>
      <trkpt lat="44.94825" lon="6.55824">
        <ele>1390</ele>
        <time>2018-02-18T14:57:15Z</time>
      </trkpt>
      <trkpt lat="44.94803" lon="6.5585">
        <ele>1390</ele>
        <time>2018-02-18T14:58:15Z</time>
      </trkpt>
      <trkpt lat="44.94777" lon="6.55874">
        <ele>1390</ele>
        <time>2018-02-18T14:59:15Z</time>
      </trkpt>
      <trkpt lat="44.94734" lon="6.55903">
        <ele>1389</ele>
        <time>2018-02-18T15:00:15Z</time>
      </trkpt>
      <trkpt lat="44.94665" lon="6.5594">
        <ele>1386</ele>
        <time>2018-02-18T15:01:15Z</time>
      </trkpt>
      <trkpt lat="44.94634" lon="6.55972">
        <ele>1386</ele>
        <time>2018-02-18T15:02:15Z</time>
      </trkpt>
      <trkpt lat="44.94594" lon="6.56027">
        <ele>1386</ele>
        <time>2018-02-18T15:03:15Z</time>
      </trkpt>
      <trkpt lat="44.94562" lon="6.56057">
        <ele>1387</ele>
        <time>2018-02-18T15:04:15Z</time>
      </trkpt>
      <trkpt lat="44.94553" lon="6.56054">
        <ele>1387</ele>
        <time>2018-02-18T15:05:15Z</time>
      </trkpt>
      <trkpt lat="44.94544" lon="6.56057">
        <ele>1388</ele>
        <time>2018-02-18T15:06:15Z</time>
      </trkpt>
      <trkpt lat="44.94536" lon="6.56065">
        <ele>1388</ele>
        <time>2018-02-18T15:07:15Z</time>
      </trkpt>
      <trkpt lat="44.94533" lon="6.56075">
        <ele>1388</ele>
        <time>2018-02-18T15:08:15Z</time>
      </trkpt>
      <trkpt lat="44.94532" lon="6.56085">
        <ele>1388</ele>
        <time>2018-02-18T15:09:15Z</time>
      </trkpt>
      <trkpt lat="44.94536" lon="6.561">
        <ele>1388</ele>
        <time>2018-02-18T15:10:15Z</time>
      </trkpt>
      <trkpt lat="44.94512" lon="6.56173">
        <ele>1387</ele>
        <time>2018-02-18T15:11:15Z</time>
      </trkpt>
      <trkpt lat="44.94494" lon="6.56222">
        <ele>1386</ele>
        <time>2018-02-18T15:12:15Z</time>
      </trkpt>
      <trkpt lat="44.9448" lon="6.56273">
        <ele>1385</ele>
        <time>2018-02-18T15:13:15Z</time>
      </trkpt>
      <trkpt lat="44.94465" lon="6.56318">
        <ele>1386</ele>
        <time>2018-02-18T15:14:15Z</time>
      </trkpt>
      <trkpt lat="44.94402" lon="6.56445">
        <ele>1386</ele>
        <time>2018-02-18T15:15:15Z</time>
      </trkpt>
      <trkpt lat="44.94371" lon="6.56527">
        <ele>1387</ele>
        <time>2018-02-18T15:16:15Z</time>
      </trkpt>
      <trkpt lat="44.94309" lon="6.56709">
        <ele>1383</ele>
        <time>2018-02-18T15:17:15Z</time>
      </trkpt>
      <trkpt lat="44.94266" lon="6.56803">
        <ele>1381</ele>
        <time>2018-02-18T15:18:15Z</time>
      </trkpt>
      <trkpt lat="44.9424" lon="6.56842">
        <ele>1379</ele>
        <time>2018-02-18T15:19:15Z</time>
      </trkpt>
      <trkpt lat="44.94214" lon="6.56875">
        <ele>1380</ele>
        <time>2018-02-18T15:20:15Z</time>
      </trkpt>
      <trkpt lat="44.94171" lon="6.56921">
        <ele>1378</ele>
        <time>2018-02-18T15:21:15Z</time>
      </trkpt>
      <trkpt lat="44.9411" lon="6.56982">
        <ele>1379</ele>
        <time>2018-02-18T15:22:15Z</time>
      </trkpt>
      <trkpt lat="44.9407" lon="6.5703">
        <ele>1379</ele>
        <time>2018-02-18T15:23:15Z</time>
      </trkpt>
      <trkpt lat="44.94021" lon="6.571">
        <ele>1378</ele>
        <time>2018-02-18T15:24:15Z</time>
      </trkpt>
      <trkpt lat="44.93976" lon="6.57193">
        <ele>1378</ele>
        <time>2018-02-18T15:25:15Z</time>
      </trkpt>
      <trkpt lat="44.93949" lon="6.57265">
        <ele>1378</ele>
        <time>2018-02-18T15:26:15Z</time>
      </trkpt>
      <trkpt lat="44.93919" lon="6.57388">
        <ele>1379</ele>
        <time>2018-02-18T15:27:15Z</time>
      </trkpt>
      <trkpt lat="44.93858" lon="6.57619">
        <ele>1375</ele>
        <time>2018-02-18T15:28:15Z</time>
      </trkpt>
      <trkpt lat="44.93807" lon="6.57781">
        <ele>1370</ele>
        <time>2018-02-18T15:29:15Z</time>
      </trkpt>
      <trkpt lat="44.93703" lon="6.58169">
        <ele>1358</ele>
        <time>2018-02-18T15:30:15Z</time>
      </trkpt>
      <trkpt lat="44.93679" lon="6.58252">
        <ele>1359</ele>
        <time>2018-02-18T15:31:15Z</time>
      </trkpt>
      <trkpt lat="44.93661" lon="6.58305">
        <ele>1358</ele>
        <time>2018-02-18T15:32:15Z</time>
      </trkpt>
      <trkpt lat="44.93643" lon="6.58352">
        <ele>1358</ele>
        <time>2018-02-18T15:33:15Z</time>
      </trkpt>
      <trkpt lat="44.93616" lon="6.58409">
        <ele>1358</ele>
        <time>2018-02-18T15:34:15Z</time>
      </trkpt>
      <trkpt lat="44.93577" lon="6.58485">
        <ele>1359</ele>
        <time>2018-02-18T15:35:15Z</time>
      </trkpt>
      <trkpt lat="44.93519" lon="6.58589">
        <ele>1362</ele>
        <time>2018-02-18T15:36:15Z</time>
      </trkpt>
      <trkpt lat="44.93468" lon="6.58689">
        <ele>1366</ele>
        <time>2018-02-18T15:37:15Z</time>
      </trkpt>
      <trkpt lat="44.93428" lon="6.58756">
        <ele>1368</ele>
        <time>2018-02-18T15:38:15Z</time>
      </trkpt>
      <trkpt lat="44.93376" lon="6.58838">
        <ele>1369</ele>
        <time>2018-02-18T15:39:15Z</time>
      </trkpt>
      <trkpt lat="44.93311" lon="6.58929">
        <ele>1369</ele>
        <time>2018-02-18T15:40:15Z</time>
      </trkpt>
      <trkpt lat="44.93239" lon="6.59041">
        <ele>1369</ele>
        <time>2018-02-18T15:41:15Z</time>
      </trkpt>
      <trkpt lat="44.93194" lon="6.59118">
        <ele>1368</ele>
        <time>2018-02-18T15:42:15Z</time>
      </trkpt>
      <trkpt lat="44.93066" lon="6.59325">
        <ele>1358</ele>
        <time>2018-02-18T15:43:15Z</time>
      </trkpt>
      <trkpt lat="44.93063" lon="6.59322">
        <ele>1358</ele>
        <time>2018-02-18T15:44:15Z</time>
      </trkpt>
      <trkpt lat="44.93055" lon="6.59319">
        <ele>1357</ele>
        <time>2018-02-18T15:45:15Z</time>
      </trkpt>
      <trkpt lat="44.93046" lon="6.59325">
        <ele>1356</ele>
        <time>2018-02-18T15:46:15Z</time>
      </trkpt>
      <trkpt lat="44.93043" lon="6.59332">
        <ele>1356</ele>
        <time>2018-02-18T15:47:15Z</time>
      </trkpt>
      <trkpt lat="44.93042" lon="6.59339">
        <ele>1356</ele>
        <time>2018-02-18T15:48:15Z</time>
      </trkpt>
      <trkpt lat="44.93045" lon="6.59351">
        <ele>1356</ele>
        <time>2018-02-18T15:49:15Z</time>
      </trkpt>
      <trkpt lat="44.93051" lon="6.59357">
        <ele>1357</ele>
        <time>2018-02-18T15:50:15Z</time>
      </trkpt>
      <trkpt lat="44.93058" lon="6.59359">
        <ele>1358</ele>
        <time>2018-02-18T15:51:15Z</time>
      </trkpt>
      <trkpt lat="44.93062" lon="6.59363">
        <ele>1359</ele>
        <time>2018-02-18T15:52:15Z</time>
      </trkpt>
      <trkpt lat="44.93065" lon="6.59375">
        <ele>1359</ele>
        <time>2018-02-18T15:53:15Z</time>
      </trkpt>
      <trkpt lat="44.93028" lon="6.59639">
        <ele>1366</ele>
        <time>2018-02-18T15:54:15Z</time>
      </trkpt>
      <trkpt lat="44.93021" lon="6.59667">
        <ele>1367</ele>
        <time>2018-02-18T15:55:15Z</time>
      </trkpt>
      <trkpt lat="44.93008" lon="6.59696">
        <ele>1367</ele>
        <time>2018-02-18T15:56:15Z</time>
      </trkpt>
      <trkpt lat="44.9298" lon="6.59746">
        <ele>1366</ele>
        <time>2018-02-18T15:57:15Z</time>
      </trkpt>
      <trkpt lat="44.92915" lon="6.59855">
        <ele>1366</ele>
        <time>2018-02-18T15:58:15Z</time>
      </trkpt>
      <trkpt lat="44.92905" lon="6.59879">
        <ele>1365</ele>
        <time>2018-02-18T15:59:15Z</time>
      </trkpt>
      <trkpt lat="44.92891" lon="6.5993">
        <ele>1366</ele>
        <time>2018-02-18T16:00:15Z</time>
      </trkpt>
      <trkpt lat="44.92866" lon="6.60031">
        <ele>1365</ele>
        <time>2018-02-18T16:01:15Z</time>
      </trkpt>
      <trkpt lat="44.92803" lon="6.60254">
        <ele>1361</ele>
        <time>2018-02-18T16:02:15Z</time>
      </trkpt>
      <trkpt lat="44.92795" lon="6.60288">
        <ele>1359</ele>
        <time>2018-02-18T16:03:15Z</time>
      </trkpt>
      <trkpt lat="44.92784" lon="6.60347">
        <ele>1356</ele>
        <time>2018-02-18T16:04:15Z</time>
      </trkpt>
      <trkpt lat="44.92782" lon="6.60477">
        <ele>1355</ele>
        <time>2018-02-18T16:05:15Z</time>
      </trkpt>
      <trkpt lat="44.92779" lon="6.60537">
        <ele>1357</ele>
        <time>2018-02-18T16:06:15Z</time>
      </trkpt>
      <trkpt lat="44.92776" lon="6.60563">
        <ele>1358</ele>
        <time>2018-02-18T16:07:15Z</time>
      </trkpt>
      <trkpt lat="44.9277" lon="6.60587">
        <ele>1359</ele>
        <time>2018-02-18T16:08:15Z</time>
      </trkpt>
      <trkpt lat="44.92756" lon="6.60616">
        <ele>1360</ele>
        <time>2018-02-18T16:09:15Z</time>
      </trkpt>
      <trkpt lat="44.92736" lon="6.60641">
        <ele>1360</ele>
        <time>2018-02-18T16:10:15Z</time>
      </trkpt>
      <trkpt lat="44.92678" lon="6.60687">
        <ele>1356</ele>
        <time>2018-02-18T16:11:15Z</time>
      </trkpt>
      <trkpt lat="44.92625" lon="6.60726">
        <ele>1356</ele>
        <time>2018-02-18T16:12:15Z</time>
      </trkpt>
      <trkpt lat="44.92518" lon="6.60792">
        <ele>1351</ele>
        <time>2018-02-18T16:13:15Z</time>
      </trkpt>
      <trkpt lat="44.92493" lon="6.60822">
        <ele>1350</ele>
        <time>2018-02-18T16:14:15Z</time>
      </trkpt>
      <trkpt lat="44.92426" lon="6.60931">
        <ele>1348</ele>
        <time>2018-02-18T16:15:15Z</time>
      </trkpt>
      <trkpt lat="44.9235" lon="6.61042">
        <ele>1341</ele>
        <time>2018-02-18T16:16:15Z</time>
      </trkpt>
      <trkpt lat="44.92297" lon="6.61135">
        <ele>1339</ele>
        <time>2018-02-18T16:17:15Z</time>
      </trkpt>
      <trkpt lat="44.92278" lon="6.61179">
        <ele>1338</ele>
        <time>2018-02-18T16:18:15Z</time>
      </trkpt>
      <trkpt lat="44.92275" lon="6.61199">
        <ele>1338</ele>
        <time>2018-02-18T16:19:15Z</time>
      </trkpt>
      <trkpt lat="44.92273" lon="6.61203">
        <ele>1338</ele>
        <time>2018-02-18T16:20:15Z</time>
      </trkpt>
      <trkpt lat="44.9226" lon="6.61209">
        <ele>1336</ele>
        <time>2018-02-18T16:21:15Z</time>
      </trkpt>
      <trkpt lat="44.92256" lon="6.61202">
        <ele>1336</ele>
        <time>2018-02-18T16:22:15Z</time>
      </trkpt>
      <trkpt lat="44.92249" lon="6.61197">
        <ele>1335</ele>
        <time>2018-02-18T16:23:15Z</time>
      </trkpt>
      <trkpt lat="44.9224" lon="6.61197">
        <ele>1333</ele>
        <time>2018-02-18T16:24:15Z</time>
      </trkpt>
      <trkpt lat="44.92234" lon="6.61202">
        <ele>1332</ele>
        <time>2018-02-18T16:25:15Z</time>
      </trkpt>
      <trkpt lat="44.92228" lon="6.61211">
        <ele>1332</ele>
        <time>2018-02-18T16:26:15Z</time>
      </trkpt>
      <trkpt lat="44.92226" lon="6.61226">
        <ele>1332</ele>
        <time>2018-02-18T16:27:15Z</time>
      </trkpt>
      <trkpt lat="44.92228" lon="6.61235">
        <ele>1332</ele>
        <time>2018-02-18T16:28:15Z</time>
      </trkpt>
      <trkpt lat="44.9224" lon="6.61254">
        <ele>1334</ele>
        <time>2018-02-18T16:29:15Z</time>
      </trkpt>
      <trkpt lat="44.92242" lon="6.61262">
        <ele>1334</ele>
        <time>2018-02-18T16:30:15Z</time>
      </trkpt>
      <trkpt lat="44.9224" lon="6.61291">
        <ele>1333</ele>
        <time>2018-02-18T16:31:15Z</time>
      </trkpt>
      <trkpt lat="44.92242" lon="6.61348">
        <ele>1332</ele>
        <time>2018-02-18T16:32:15Z</time>
      </trkpt>
      <trkpt lat="44.92237" lon="6.61388">
        <ele>1332</ele>
        <time>2018-02-18T16:33:15Z</time>
      </trkpt>
      <trkpt lat="44.92228" lon="6.61436">
        <ele>1333</ele>
        <time>2018-02-18T16:34:15Z</time>
      </trkpt>
      <trkpt lat="44.92217" lon="6.61472">
        <ele>1333</ele>
        <time>2018-02-18T16:35:15Z</time>
      </trkpt>
      <trkpt lat="44.92198" lon="6.61517">
        <ele>1334</ele>
        <time>2018-02-18T16:36:15Z</time>
      </trkpt>
      <trkpt lat="44.92129" lon="6.6162">
        <ele>1336</ele>
        <time>2018-02-18T16:37:15Z</time>
      </trkpt>
      <trkpt lat="44.9199" lon="6.61813">
        <ele>1343</ele>
        <time>2018-02-18T16:38:15Z</time>
      </trkpt>
      <trkpt lat="44.91941" lon="6.61874">
        <ele>1342</ele>
        <time>2018-02-18T16:39:15Z</time>
      </trkpt>
      <trkpt lat="44.91888" lon="6.61945">
        <ele>1339</ele>
        <time>2018-02-18T16:40:15Z</time>
      </trkpt>
      <trkpt lat="44.91777" lon="6.62138">
        <ele>1337</ele>
        <time>2018-02-18T16:41:15Z</time>
      </trkpt>
      <trkpt lat="44.91752" lon="6.62175">
        <ele>1338</ele>
        <time>2018-02-18T16:42:15Z</time>
      </trkpt>
      <trkpt lat="44.91716" lon="6.62207">
        <ele>1338</ele>
        <time>2018-02-18T16:43:15Z</time>
      </trkpt>
      <trkpt lat="44.91686" lon="6.62226">
        <ele>1336</ele>
        <time>2018-02-18T16:44:15Z</time>
      </trkpt>
      <trkpt lat="44.91661" lon="6.62238">
        <ele>1334</ele>
        <time>2018-02-18T16:45:15Z</time>
      </trkpt>
      <trkpt lat="44.91661" lon="6.62243">
        <ele>1335</ele>
        <time>2018-02-18T16:46:15Z</time>
      </trkpt>
      <trkpt lat="44.91659" lon="6.62251">
        <ele>1336</ele>
        <time>2018-02-18T16:47:15Z</time>
      </trkpt>
      <trkpt lat="44.91581" lon="6.62314">
        <ele>1337</ele>
        <time>2018-02-18T16:48:15Z</time>
      </trkpt>
      <trkpt lat="44.9155" lon="6.62355">
        <ele>1339</ele>
        <time>2018-02-18T16:49:15Z</time>
      </trkpt>
      <trkpt lat="44.91524" lon="6.6241">
        <ele>1342</ele>
        <time>2018-02-18T16:50:15Z</time>
      </trkpt>
      <trkpt lat="44.91503" lon="6.62475">
        <ele>1344</ele>
        <time>2018-02-18T16:51:15Z</time>
      </trkpt>
      <trkpt lat="44.9149" lon="6.62505">
        <ele>1346</ele>
        <time>2018-02-18T16:52:15Z</time>
      </trkpt>
      <trkpt lat="44.9147" lon="6.62537">
        <ele>1348</ele>
        <time>2018-02-18T16:53:15Z</time>
      </trkpt>
      <trkpt lat="44.91453" lon="6.62558">
        <ele>1350</ele>
        <time>2018-02-18T16:54:15Z</time>
      </trkpt>
      <trkpt lat="44.91413" lon="6.62573">
        <ele>1351</ele>
        <time>2018-02-18T16:55:15Z</time>
      </trkpt>
      <trkpt lat="44.91382" lon="6.62588">
        <ele>1348</ele>
        <time>2018-02-18T16:56:15Z</time>
      </trkpt>
      <trkpt lat="44.91355" lon="6.62614">
        <ele>1347</ele>
        <time>2018-02-18T16:57:15Z</time>
      </trkpt>
      <trkpt lat="44.91287" lon="6.62727">
        <ele>1350</ele>
        <time>2018-02-18T16:58:15Z</time>
      </trkpt>
      <trkpt lat="44.9125" lon="6.62771">
        <ele>1350</ele>
        <time>2018-02-18T16:59:15Z</time>
      </trkpt>
      <trkpt lat="44.91199" lon="6.62828">
        <ele>1349</ele>
        <time>2018-02-18T17:00:15Z</time>
      </trkpt>
      <trkpt lat="44.91135" lon="6.62894">
        <ele>1349</ele>
        <time>2018-02-18T17:01:15Z</time>
      </trkpt>
      <trkpt lat="44.91111" lon="6.62921">
        <ele>1348</ele>
        <time>2018-02-18T17:02:15Z</time>
      </trkpt>
      <trkpt lat="44.91039" lon="6.63022">
        <ele>1345</ele>
        <time>2018-02-18T17:03:15Z</time>
      </trkpt>
      <trkpt lat="44.91015" lon="6.6305">
        <ele>1345</ele>
        <time>2018-02-18T17:04:15Z</time>
      </trkpt>
      <trkpt lat="44.90943" lon="6.63102">
        <ele>1346</ele>
        <time>2018-02-18T17:05:15Z</time>
      </trkpt>
      <trkpt lat="44.90916" lon="6.63125">
        <ele>1347</ele>
        <time>2018-02-18T17:06:15Z</time>
      </trkpt>
      <trkpt lat="44.9083" lon="6.6317">
        <ele>1341</ele>
        <time>2018-02-18T17:07:15Z</time>
      </trkpt>
      <trkpt lat="44.90791" lon="6.63187">
        <ele>1335</ele>
        <time>2018-02-18T17:08:15Z</time>
      </trkpt>
      <trkpt lat="44.9078" lon="6.63198">
        <ele>1334</ele>
        <time>2018-02-18T17:09:15Z</time>
      </trkpt>
      <trkpt lat="44.90761" lon="6.63235">
        <ele>1335</ele>
        <time>2018-02-18T17:10:15Z</time>
      </trkpt>
      <trkpt lat="44.90734" lon="6.63304">
        <ele>1336</ele>
        <time>2018-02-18T17:11:15Z</time>
      </trkpt>
      <trkpt lat="44.90727" lon="6.63317">
        <ele>1336</ele>
        <time>2018-02-18T17:12:15Z</time>
      </trkpt>
      <trkpt lat="44.90662" lon="6.634">
        <ele>1331</ele>
        <time>2018-02-18T17:13:15Z</time>
      </trkpt>
      <trkpt lat="44.90638" lon="6.63436">
        <ele>1332</ele>
        <time>2018-02-18T17:14:15Z</time>
      </trkpt>
      <trkpt lat="44.90607" lon="6.63467">
        <ele>1329</ele>
        <time>2018-02-18T17:15:15Z</time>
      </trkpt>
      <trkpt lat="44.906" lon="6.63487">
        <ele>1330</ele>
        <time>2018-02-18T17:16:15Z</time>
      </trkpt>
      <trkpt lat="44.90594" lon="6.63503">
        <ele>1331</ele>
        <time>2018-02-18T17:17:15Z</time>
      </trkpt>
      <trkpt lat="44.90569" lon="6.63524">
        <ele>1329</ele>
        <time>2018-02-18T17:18:15Z</time>
      </trkpt>
      <trkpt lat="44.90542" lon="6.63558">
        <ele>1330</ele>
        <time>2018-02-18T17:19:15Z</time>
      </trkpt>
      <trkpt lat="44.90501" lon="6.63622">
        <ele>1336</ele>
        <time>2018-02-18T17:20:15Z</time>
      </trkpt>
      <trkpt lat="44.90491" lon="6.6363">
        <ele>1337</ele>
        <time>2018-02-18T17:21:15Z</time>
      </trkpt>
      <trkpt lat="44.90471" lon="6.63628">
        <ele>1332</ele>
        <time>2018-02-18T17:22:15Z</time>
      </trkpt>
      <trkpt lat="44.90447" lon="6.63637">
        <ele>1330</ele>
        <time>2018-02-18T17:23:15Z</time>
      </trkpt>
      <trkpt lat="44.90407" lon="6.63666">
        <ele>1329</ele>
        <time>2018-02-18T17:24:15Z</time>
      </trkpt>
      <trkpt lat="44.90394" lon="6.6369">
        <ele>1327</ele>
        <time>2018-02-18T17:25:15Z</time>
      </trkpt>
      <trkpt lat="44.90388" lon="6.63711">
        <ele>1327</ele>
        <time>2018-02-18T17:26:15Z</time>
      </trkpt>
      <trkpt lat="44.90389" lon="6.63753">
        <ele>1331</ele>
        <time>2018-02-18T17:27:15Z</time>
      </trkpt>
      <trkpt lat="44.90403" lon="6.63807">
        <ele>1342</ele>
        <time>2018-02-18T17:28:15Z</time>
      </trkpt>
      <trkpt lat="44.90399" lon="6.63829">
        <ele>1343</ele>
        <time>2018-02-18T17:29:15Z</time>
      </trkpt>
      <trkpt lat="44.9037" lon="6.63841">
        <ele>1337</ele>
        <time>2018-02-18T17:30:15Z</time>
      </trkpt>
      <trkpt lat="44.9035" lon="6.63857">
        <ele>1334</ele>
        <time>2018-02-18T17:31:15Z</time>
      </trkpt>
      <trkpt lat="44.9033" lon="6.63884">
        <ele>1333</ele>
        <time>2018-02-18T17:32:15Z</time>
      </trkpt>
      <trkpt lat="44.90301" lon="6.63955">
        <ele>1336</ele>
        <time>2018-02-18T17:33:15Z</time>
      </trkpt>
      <trkpt lat="44.90264" lon="6.64075">
        <ele>1332</ele>
        <time>2018-02-18T17:34:15Z</time>
      </trkpt>
      <trkpt lat="44.90185" lon="6.6427">
        <ele>1330</ele>
        <time>2018-02-18T17:35:15Z</time>
      </trkpt>
      <trkpt lat="44.90168" lon="6.6431">
        <ele>1329</ele>
        <time>2018-02-18T17:36:15Z</time>
      </trkpt>
      <trkpt lat="44.90153" lon="6.64368">
        <ele>1332</ele>
        <time>2018-02-18T17:37:15Z</time>
      </trkpt>
      <trkpt lat="44.90149" lon="6.64364">
        <ele>1332</ele>
        <time>2018-02-18T17:38:15Z</time>
      </trkpt>
      <trkpt lat="44.90144" lon="6.64363">
        <ele>1332</ele>
        <time>2018-02-18T17:39:15Z</time>
      </trkpt>
      <trkpt lat="44.90139" lon="6.64366">
        <ele>1332</ele>
        <time>2018-02-18T17:40:15Z</time>
      </trkpt>
      <trkpt lat="44.90135" lon="6.64375">
        <ele>1332</ele>
        <time>2018-02-18T17:41:15Z</time>
      </trkpt>
      <trkpt lat="44.90135" lon="6.64381">
        <ele>1333</ele>
        <time>2018-02-18T17:42:15Z</time>
      </trkpt>
      <trkpt lat="44.9014" lon="6.6439">
        <ele>1333</ele>
        <time>2018-02-18T17:43:15Z</time>
      </trkpt>
      <trkpt lat="44.90149" lon="6.64389">
        <ele>1333</ele>
        <time>2018-02-18T17:44:15Z</time>
      </trkpt>
      <trkpt lat="44.90151" lon="6.64395">
        <ele>1334</ele>
        <time>2018-02-18T17:45:15Z</time>
      </trkpt>
      <trkpt lat="44.90154" lon="6.64493">
        <ele>1336</ele>
        <time>2018-02-18T17:46:15Z</time>
      </trkpt>
      <trkpt lat="44.9016" lon="6.64538">
        <ele>1335</ele>
        <time>2018-02-18T17:47:15Z</time>
      </trkpt>
      <trkpt lat="44.90176" lon="6.64588">
        <ele>1336</ele>
        <time>2018-02-18T17:48:15Z</time>
      </trkpt>
      <trkpt lat="44.90185" lon="6.64606">
        <ele>1336</ele>
        <time>2018-02-18T17:49:15Z</time>
      </trkpt>
      <trkpt lat="44.90162" lon="6.64626">
        <ele>1333</ele>
        <time>2018-02-18T17:50:15Z</time>
      </trkpt>
      <trkpt lat="44.90159" lon="6.64633">
        <ele>1333</ele>
        <time>2018-02-18T17:51:15Z</time>
      </trkpt>
      <trkpt lat="44.90159" lon="6.64645">
        <ele>1333</ele>
        <time>2018-02-18T17:52:15Z</time>
      </trkpt>
      <trkpt lat="44.90191" lon="6.64768">
        <ele>1326</ele>
        <time>2018-02-18T17:53:15Z</time>
      </trkpt>
      <trkpt lat="44.90198" lon="6.64782">
        <ele>1324</ele>
        <time>2018-02-18T17:54:15Z</time>
      </trkpt>
      <trkpt lat="44.90216" lon="6.64811">
        <ele>1323</ele>
        <time>2018-02-18T17:55:15Z</time>
      </trkpt>
      <trkpt lat="44.90255" lon="6.64856">
        <ele>1326</ele>
        <time>2018-02-18T17:56:15Z</time>
      </trkpt>
      <trkpt lat="44.9026" lon="6.64875">
        <ele>1324</ele>
        <time>2018-02-18T17:57:15Z</time>
      </trkpt>
      <trkpt lat="44.90265" lon="6.64916">
        <ele>1320</ele>
        <time>2018-02-18T17:58:15Z</time>
      </trkpt>
      <trkpt lat="44.90261" lon="6.64946">
        <ele>1318</ele>
        <time>2018-02-18T17:59:15Z</time>
      </trkpt>
      <trkpt lat="44.90244" lon="6.64972">
        <ele>1310</ele>
        <time>2018-02-18T18:00:15Z</time>
      </trkpt>
      <trkpt lat="44.90239" lon="6.64982">
        <ele>1307</ele>
        <time>2018-02-18T18:01:15Z</time>
      </trkpt>
      <trkpt lat="44.90241" lon="6.65043">
        <ele>1304</ele>
        <time>2018-02-18T18:02:15Z</time>
      </trkpt>
      <trkpt lat="44.90264" lon="6.65091">
        <ele>1314</ele>
        <time>2018-02-18T18:03:15Z</time>
      </trkpt>
      <trkpt lat="44.90276" lon="6.65131">
        <ele>1313</ele>
        <time>2018-02-18T18:04:15Z</time>
      </trkpt>
      <trkpt lat="44.90292" lon="6.65254">
        <ele>1295</ele>
        <time>2018-02-18T18:05:15Z</time>
      </trkpt>
      <trkpt lat="44.90308" lon="6.65313">
        <ele>1295</ele>
        <time>2018-02-18T18:06:15Z</time>
      </trkpt>
      <trkpt lat="44.90307" lon="6.65353">
        <ele>1290</ele>
        <time>2018-02-18T18:07:15Z</time>
      </trkpt>
      <trkpt lat="44.90313" lon="6.65411">
        <ele>1287</ele>
        <time>2018-02-18T18:08:15Z</time>
      </trkpt>
      <trkpt lat="44.90315" lon="6.65487">
        <ele>1283</ele>
        <time>2018-02-18T18:09:15Z</time>
      </trkpt>
      <trkpt lat="44.90304" lon="6.65517">
        <ele>1278</ele>
        <time>2018-02-18T18:10:15Z</time>
      </trkpt>
      <trkpt lat="44.90307" lon="6.65557">
        <ele>1278</ele>
        <time>2018-02-18T18:11:15Z</time>
      </trkpt>
      <trkpt lat="44.90308" lon="6.65588">
        <ele>1277</ele>
        <time>2018-02-18T18:12:15Z</time>
      </trkpt>
      <trkpt lat="44.90313" lon="6.65662">
        <ele>1273</ele>
        <time>2018-02-18T18:13:15Z</time>
      </trkpt>
      <trkpt lat="44.90325" lon="6.65735">
        <ele>1270</ele>
        <time>2018-02-18T18:14:15Z</time>
      </trkpt>
      <trkpt lat="44.90342" lon="6.65785">
        <ele>1271</ele>
        <time>2018-02-18T18:15:15Z</time>
      </trkpt>
      <trkpt lat="44.90354" lon="6.65837">
        <ele>1271</ele>
        <time>2018-02-18T18:16:15Z</time>
      </trkpt>
      <trkpt lat="44.90358" lon="6.65842">
        <ele>1272</ele>
        <time>2018-02-18T18:17:15Z</time>
      </trkpt>
      <trkpt lat="44.90377" lon="6.6585">
        <ele>1274</ele>
        <time>2018-02-18T18:18:15Z</time>
      </trkpt>
      <trkpt lat="44.90397" lon="6.65855">
        <ele>1275</ele>
        <time>2018-02-18T18:19:15Z</time>
      </trkpt>
      <trkpt lat="44.90414" lon="6.65863">
        <ele>1276</ele>
        <time>2018-02-18T18:20:15Z</time>
      </trkpt>
      <trkpt lat="44.90454" lon="6.65898">
        <ele>1284</ele>
        <time>2018-02-18T18:21:15Z</time>
      </trkpt>
      <trkpt lat="44.90479" lon="6.65913">
        <ele>1287</ele>
        <time>2018-02-18T18:22:15Z</time>
      </trkpt>
      <trkpt lat="44.9051" lon="6.65948">
        <ele>1290</ele>
        <time>2018-02-18T18:23:15Z</time>
      </trkpt>
      <trkpt lat="44.90535" lon="6.65965">
        <ele>1294</ele>
        <time>2018-02-18T18:24:15Z</time>
      </trkpt>
      <trkpt lat="44.90551" lon="6.65986">
        <ele>1292</ele>
        <time>2018-02-18T18:25:15Z</time>
      </trkpt>
      <trkpt lat="44.90585" lon="6.66057">
        <ele>1291</ele>
        <time>2018-02-18T18:26:15Z</time>
      </trkpt>
      <trkpt lat="44.90598" lon="6.66076">
        <ele>1292</ele>
        <time>2018-02-18T18:27:15Z</time>
      </trkpt>
      <trkpt lat="44.90606" lon="6.66085">
        <ele>1293</ele>
        <time>2018-02-18T18:28:15Z</time>
      </trkpt>
      <trkpt lat="44.90629" lon="6.66131">
        <ele>1296</ele>
        <time>2018-02-18T18:29:15Z</time>
      </trkpt>
      <trkpt lat="44.90666" lon="6.66194">
        <ele>1299</ele>
        <time>2018-02-18T18:30:15Z</time>
      </trkpt>
      <trkpt lat="44.90681" lon="6.66213">
        <ele>1301</ele>
        <time>2018-02-18T18:31:15Z</time>
      </trkpt>
      <trkpt lat="44.90689" lon="6.66216">
        <ele>1303</ele>
        <time>2018-02-18T18:32:15Z</time>
      </trkpt>
      <trkpt lat="44.90709" lon="6.66215">
        <ele>1308</ele>
        <time>2018-02-18T18:33:15Z</time>
      </trkpt>
      <trkpt lat="44.9072" lon="6.66218">
        <ele>1311</ele>
        <time>2018-02-18T18:34:15Z</time>
      </trkpt>
      <trkpt lat="44.90734" lon="6.66232">
        <ele>1310</ele>
        <time>2018-02-18T18:35:15Z</time>
      </trkpt>
      <trkpt lat="44.9078" lon="6.6625">
        <ele>1316</ele>
        <time>2018-02-18T18:36:15Z</time>
      </trkpt>
      <trkpt lat="44.90811" lon="6.66251">
        <ele>1324</ele>
        <time>2018-02-18T18:37:15Z</time>
      </trkpt>
      <trkpt lat="44.90826" lon="6.66254">
        <ele>1328</ele>
        <time>2018-02-18T18:38:15Z</time>
      </trkpt>
      <trkpt lat="44.90862" lon="6.66272">
        <ele>1331</ele>
        <time>2018-02-18T18:39:15Z</time>
      </trkpt>
      <trkpt lat="44.90892" lon="6.663">
        <ele>1332</ele>
        <time>2018-02-18T18:40:15Z</time>
      </trkpt>
      <trkpt lat="44.9092" lon="6.66321">
        <ele>1333</ele>
        <time>2018-02-18T18:41:15Z</time>
      </trkpt>
      <trkpt lat="44.9094" lon="6.66357">
        <ele>1334</ele>
        <time>2018-02-18T18:42:15Z</time>
      </trkpt>
      <trkpt lat="44.9096" lon="6.66377">
        <ele>1338</ele>
        <time>2018-02-18T18:43:15Z</time>
      </trkpt>
      <trkpt lat="44.90971" lon="6.66382">
        <ele>1340</ele>
        <time>2018-02-18T18:44:15Z</time>
      </trkpt>
      <trkpt lat="44.90975" lon="6.66406">
        <ele>1340</ele>
        <time>2018-02-18T18:45:15Z</time>
      </trkpt>
      <trkpt lat="44.90976" lon="6.66434">
        <ele>1341</ele>
        <time>2018-02-18T18:46:15Z</time>
      </trkpt>
      <trkpt lat="44.90975" lon="6.66541">
        <ele>1345</ele>
        <time>2018-02-18T18:47:15Z</time>
      </trkpt>
      <trkpt lat="44.90977" lon="6.66574">
        <ele>1347</ele>
        <time>2018-02-18T18:48:15Z</time>
      </trkpt>
      <trkpt lat="44.90994" lon="6.66649">
        <ele>1347</ele>
        <time>2018-02-18T18:49:15Z</time>
      </trkpt>
      <trkpt lat="44.91202" lon="6.67085">
        <ele>1366</ele>
        <time>2018-02-18T18:50:15Z</time>
      </trkpt>
      <trkpt lat="44.91262" lon="6.6719">
        <ele>1362</ele>
        <time>2018-02-18T18:51:15Z</time>
      </trkpt>
      <trkpt lat="44.91287" lon="6.67176">
        <ele>1364</ele>
        <time>2018-02-18T18:52:15Z</time>
      </trkpt>
      <trkpt lat="44.91306" lon="6.67182">
        <ele>1364</ele>
        <time>2018-02-18T18:53:15Z</time>
      </trkpt>
      <trkpt lat="44.91434" lon="6.67283">
        <ele>1365</ele>
        <time>2018-02-18T18:54:15Z</time>
      </trkpt>
      <trkpt lat="44.91469" lon="6.67309">
        <ele>1363</ele>
        <time>2018-02-18T18:55:15Z</time>
      </trkpt>
      <trkpt lat="44.91492" lon="6.67323">
        <ele>1363</ele>
        <time>2018-02-18T18:56:15Z</time>
      </trkpt>
      <trkpt lat="44.91504" lon="6.67327">
        <ele>1363</ele>
        <time>2018-02-18T18:57:15Z</time>
      </trkpt>
      <trkpt lat="44.91607" lon="6.67342">
        <ele>1364</ele>
        <time>2018-02-18T18:58:15Z</time>
      </trkpt>
      <trkpt lat="44.91618" lon="6.67342">
        <ele>1364</ele>
        <time>2018-02-18T18:59:15Z</time>
      </trkpt>
      <trkpt lat="44.91676" lon="6.67403">
        <ele>1359</ele>
        <time>2018-02-18T19:00:15Z</time>
      </trkpt>
      <trkpt lat="44.91691" lon="6.67432">
        <ele>1358</ele>
        <time>2018-02-18T19:01:15Z</time>
      </trkpt>
      <trkpt lat="44.91724" lon="6.67519">
        <ele>1361</ele>
        <time>2018-02-18T19:02:15Z</time>
      </trkpt>
      <trkpt lat="44.91746" lon="6.67552">
        <ele>1362</ele>
        <time>2018-02-18T19:03:15Z</time>
      </trkpt>
      <trkpt lat="44.91924" lon="6.67756">
        <ele>1374</ele>
        <time>2018-02-18T19:04:15Z</time>
      </trkpt>
      <trkpt lat="44.9196" lon="6.67821">
        <ele>1378</ele>
        <time>2018-02-18T19:05:15Z</time>
      </trkpt>
      <trkpt lat="44.91976" lon="6.67866">
        <ele>1382</ele>
        <time>2018-02-18T19:06:15Z</time>
      </trkpt>
      <trkpt lat="44.92007" lon="6.67916">
        <ele>1386</ele>
        <time>2018-02-18T19:07:15Z</time>
      </trkpt>
      <trkpt lat="44.92057" lon="6.68013">
        <ele>1392</ele>
        <time>2018-02-18T19:08:15Z</time>
      </trkpt>
      <trkpt lat="44.92081" lon="6.68096">
        <ele>1397</ele>
        <time>2018-02-18T19:09:15Z</time>
      </trkpt>
      <trkpt lat="44.92092" lon="6.68155">
        <ele>1401</ele>
        <time>2018-02-18T19:10:15Z</time>
      </trkpt>
      <trkpt lat="44.92106" lon="6.68218">
        <ele>1401</ele>
        <time>2018-02-18T19:11:15Z</time>
      </trkpt>
      <trkpt lat="44.92114" lon="6.68286">
        <ele>1405</ele>
        <time>2018-02-18T19:12:15Z</time>
      </trkpt>
      <trkpt lat="44.92126" lon="6.68352">
        <ele>1408</ele>
        <time>2018-02-18T19:13:15Z</time>
      </trkpt>
      <trkpt lat="44.92125" lon="6.68386">
        <ele>1409</ele>
        <time>2018-02-18T19:14:15Z</time>
      </trkpt>
      <trkpt lat="44.9212" lon="6.68418">
        <ele>1411</ele>
        <time>2018-02-18T19:15:15Z</time>
      </trkpt>
      <trkpt lat="44.92106" lon="6.6846">
        <ele>1416</ele>
        <time>2018-02-18T19:16:15Z</time>
      </trkpt>
      <trkpt lat="44.92099" lon="6.68492">
        <ele>1419</ele>
        <time>2018-02-18T19:17:15Z</time>
      </trkpt>
      <trkpt lat="44.92095" lon="6.68523">
        <ele>1424</ele>
        <time>2018-02-18T19:18:15Z</time>
      </trkpt>
      <trkpt lat="44.92099" lon="6.68548">
        <ele>1427</ele>
        <time>2018-02-18T19:19:15Z</time>
      </trkpt>
      <trkpt lat="44.92113" lon="6.68579">
        <ele>1428</ele>
        <time>2018-02-18T19:20:15Z</time>
      </trkpt>
      <trkpt lat="44.92137" lon="6.68609">
        <ele>1430</ele>
        <time>2018-02-18T19:21:15Z</time>
      </trkpt>
      <trkpt lat="44.92156" lon="6.68638">
        <ele>1432</ele>
        <time>2018-02-18T19:22:15Z</time>
      </trkpt>
      <trkpt lat="44.92165" lon="6.68666">
        <ele>1435</ele>
        <time>2018-02-18T19:23:15Z</time>
      </trkpt>
      <trkpt lat="44.92168" lon="6.68686">
        <ele>1441</ele>
        <time>2018-02-18T19:24:15Z</time>
      </trkpt>
      <trkpt lat="44.92176" lon="6.687">
        <ele>1443</ele>
        <time>2018-02-18T19:25:15Z</time>
      </trkpt>
      <trkpt lat="44.92191" lon="6.68703">
        <ele>1441</ele>
        <time>2018-02-18T19:26:15Z</time>
      </trkpt>
      <trkpt lat="44.92225" lon="6.68702">
        <ele>1433</ele>
        <time>2018-02-18T19:27:15Z</time>
      </trkpt>
      <trkpt lat="44.9224" lon="6.68713">
        <ele>1433</ele>
        <time>2018-02-18T19:28:15Z</time>
      </trkpt>
      <trkpt lat="44.92253" lon="6.68732">
        <ele>1435</ele>
        <time>2018-02-18T19:29:15Z</time>
      </trkpt>
      <trkpt lat="44.9227" lon="6.68809">
        <ele>1444</ele>
        <time>2018-02-18T19:30:15Z</time>
      </trkpt>
      <trkpt lat="44.92288" lon="6.68874">
        <ele>1452</ele>
        <time>2018-02-18T19:31:15Z</time>
      </trkpt>
      <trkpt lat="44.92299" lon="6.68906">
        <ele>1454</ele>
        <time>2018-02-18T19:32:15Z</time>
      </trkpt>
      <trkpt lat="44.92309" lon="6.68929">
        <ele>1456</ele>
        <time>2018-02-18T19:33:15Z</time>
      </trkpt>
      <trkpt lat="44.92339" lon="6.68976">
        <ele>1456</ele>
        <time>2018-02-18T19:34:15Z</time>
      </trkpt>
      <trkpt lat="44.92367" lon="6.69034">
        <ele>1470</ele>
        <time>2018-02-18T19:35:15Z</time>
      </trkpt>
      <trkpt lat="44.92376" lon="6.69056">
        <ele>1475</ele>
        <time>2018-02-18T19:36:15Z</time>
      </trkpt>
      <trkpt lat="44.92389" lon="6.69072">
        <ele>1475</ele>
        <time>2018-02-18T19:37:15Z</time>
      </trkpt>
      <trkpt lat="44.92401" lon="6.69081">
        <ele>1474</ele>
        <time>2018-02-18T19:38:15Z</time>
      </trkpt>
      <trkpt lat="44.92414" lon="6.69087">
        <ele>1470</ele>
        <time>2018-02-18T19:39:15Z</time>
      </trkpt>
      <trkpt lat="44.92423" lon="6.69085">
        <ele>1472</ele>
        <time>2018-02-18T19:40:15Z</time>
      </trkpt>
      <trkpt lat="44.92431" lon="6.69073">
        <ele>1473</ele>
        <time>2018-02-18T19:41:15Z</time>
      </trkpt>
      <trkpt lat="44.92437" lon="6.69056">
        <ele>1473</ele>
        <time>2018-02-18T19:42:15Z</time>
      </trkpt>
      <trkpt lat="44.92447" lon="6.68998">
        <ele>1467</ele>
        <time>2018-02-18T19:43:15Z</time>
      </trkpt>
      <trkpt lat="44.92451" lon="6.68941">
        <ele>1461</ele>
        <time>2018-02-18T19:44:15Z</time>
      </trkpt>
      <trkpt lat="44.92456" lon="6.68901">
        <ele>1457</ele>
        <time>2018-02-18T19:45:15Z</time>
      </trkpt>
      <trkpt lat="44.92462" lon="6.68882">
        <ele>1455</ele>
        <time>2018-02-18T19:46:15Z</time>
      </trkpt>
      <trkpt lat="44.92469" lon="6.68869">
        <ele>1454</ele>
        <time>2018-02-18T19:47:15Z</time>
      </trkpt>
      <trkpt lat="44.9248" lon="6.68861">
        <ele>1455</ele>
        <time>2018-02-18T19:48:15Z</time>
      </trkpt>
      <trkpt lat="44.92519" lon="6.68864">
        <ele>1460</ele>
        <time>2018-02-18T19:49:15Z</time>
      </trkpt>
      <trkpt lat="44.92532" lon="6.68868">
        <ele>1460</ele>
        <time>2018-02-18T19:50:15Z</time>
      </trkpt>
      <trkpt lat="44.92541" lon="6.68879">
        <ele>1463</ele>
        <time>2018-02-18T19:51:15Z</time>
      </trkpt>
      <trkpt lat="44.92549" lon="6.68893">
        <ele>1467</ele>
        <time>2018-02-18T19:52:15Z</time>
      </trkpt>
      <trkpt lat="44.92566" lon="6.68912">
        <ele>1474</ele>
        <time>2018-02-18T19:53:15Z</time>
      </trkpt>
      <trkpt lat="44.9258" lon="6.68924">
        <ele>1479</ele>
        <time>2018-02-18T19:54:15Z</time>
      </trkpt>
      <trkpt lat="44.92595" lon="6.68928">
        <ele>1482</ele>
        <time>2018-02-18T19:55:15Z</time>
      </trkpt>
      <trkpt lat="44.92636" lon="6.68905">
        <ele>1476</ele>
        <time>2018-02-18T19:56:15Z</time>
      </trkpt>
      <trkpt lat="44.92646" lon="6.68905">
        <ele>1476</ele>
        <time>2018-02-18T19:57:15Z</time>
      </trkpt>
      <trkpt lat="44.92677" lon="6.68923">
        <ele>1485</ele>
        <time>2018-02-18T19:58:15Z</time>
      </trkpt>
      <trkpt lat="44.92696" lon="6.68928">
        <ele>1486</ele>
        <time>2018-02-18T19:59:15Z</time>
      </trkpt>
      <trkpt lat="44.92709" lon="6.68928">
        <ele>1484</ele>
        <time>2018-02-18T20:00:15Z</time>
      </trkpt>
      <trkpt lat="44.92749" lon="6.68957">
        <ele>1493</ele>
        <time>2018-02-18T20:01:15Z</time>
      </trkpt>
      <trkpt lat="44.92775" lon="6.68965">
        <ele>1502</ele>
        <time>2018-02-18T20:02:15Z</time>
      </trkpt>
      <trkpt lat="44.92781" lon="6.68971">
        <ele>1505</ele>
        <time>2018-02-18T20:03:15Z</time>
      </trkpt>
      <trkpt lat="44.92785" lon="6.68983">
        <ele>1510</ele>
        <time>2018-02-18T20:04:15Z</time>
      </trkpt>
      <trkpt lat="44.92783" lon="6.68993">
        <ele>1513</ele>
        <time>2018-02-18T20:05:15Z</time>
      </trkpt>
      <trkpt lat="44.92774" lon="6.68997">
        <ele>1513</ele>
        <time>2018-02-18T20:06:15Z</time>
      </trkpt>
      <trkpt lat="44.92763" lon="6.68993">
        <ele>1510</ele>
        <time>2018-02-18T20:07:15Z</time>
      </trkpt>
      <trkpt lat="44.92737" lon="6.68967">
        <ele>1499</ele>
        <time>2018-02-18T20:08:15Z</time>
      </trkpt>
      <trkpt lat="44.92709" lon="6.68955">
        <ele>1496</ele>
        <time>2018-02-18T20:09:15Z</time>
      </trkpt>
      <trkpt lat="44.92673" lon="6.6895">
        <ele>1498</ele>
        <time>2018-02-18T20:10:15Z</time>
      </trkpt>
      <trkpt lat="44.92644" lon="6.6895">
        <ele>1496</ele>
        <time>2018-02-18T20:11:15Z</time>
      </trkpt>
      <trkpt lat="44.9262" lon="6.68977">
        <ele>1505</ele>
        <time>2018-02-18T20:12:15Z</time>
      </trkpt>
      <trkpt lat="44.926" lon="6.68989">
        <ele>1508</ele>
        <time>2018-02-18T20:13:15Z</time>
      </trkpt>
      <trkpt lat="44.92583" lon="6.68992">
        <ele>1508</ele>
        <time>2018-02-18T20:14:15Z</time>
      </trkpt>
      <trkpt lat="44.92539" lon="6.68975">
        <ele>1492</ele>
        <time>2018-02-18T20:15:15Z</time>
      </trkpt>
      <trkpt lat="44.92529" lon="6.68975">
        <ele>1490</ele>
        <time>2018-02-18T20:16:15Z</time>
      </trkpt>
      <trkpt lat="44.92521" lon="6.68983">
        <ele>1490</ele>
        <time>2018-02-18T20:17:15Z</time>
      </trkpt>
      <trkpt lat="44.92517" lon="6.68997">
        <ele>1493</ele>
        <time>2018-02-18T20:18:15Z</time>
      </trkpt>
      <trkpt lat="44.92515" lon="6.6902">
        <ele>1497</ele>
        <time>2018-02-18T20:19:15Z</time>
      </trkpt>
      <trkpt lat="44.92499" lon="6.69096">
        <ele>1504</ele>
        <time>2018-02-18T20:20:15Z</time>
      </trkpt>
      <trkpt lat="44.92503" lon="6.69104">
        <ele>1507</ele>
        <time>2018-02-18T20:21:15Z</time>
      </trkpt>
      <trkpt lat="44.9251" lon="6.69108">
        <ele>1511</ele>
        <time>2018-02-18T20:22:15Z</time>
      </trkpt>
      <trkpt lat="44.92515" lon="6.69105">
        <ele>1513</ele>
        <time>2018-02-18T20:23:15Z</time>
      </trkpt>
      <trkpt lat="44.9252" lon="6.69097">
        <ele>1514</ele>
        <time>2018-02-18T20:24:15Z</time>
      </trkpt>
      <trkpt lat="44.92524" lon="6.69084">
        <ele>1513</ele>
        <time>2018-02-18T20:25:15Z</time>
      </trkpt>
      <trkpt lat="44.92525" lon="6.69065">
        <ele>1509</ele>
        <time>2018-02-18T20:26:15Z</time>
      </trkpt>
      <trkpt lat="44.92528" lon="6.69046">
        <ele>1506</ele>
        <time>2018-02-18T20:27:15Z</time>
      </trkpt>
      <trkpt lat="44.92533" lon="6.69024">
        <ele>1503</ele>
        <time>2018-02-18T20:28:15Z</time>
      </trkpt>
      <trkpt lat="44.92542" lon="6.69013">
        <ele>1503</ele>
        <time>2018-02-18T20:29:15Z</time>
      </trkpt>
      <trkpt lat="44.9255" lon="6.69012">
        <ele>1505</ele>
        <time>2018-02-18T20:30:15Z</time>
      </trkpt>
      <trkpt lat="44.92585" lon="6.69032">
        <ele>1522</ele>
        <time>2018-02-18T20:31:15Z</time>
      </trkpt>
      <trkpt lat="44.92606" lon="6.69037">
        <ele>1527</ele>
        <time>2018-02-18T20:32:15Z</time>
      </trkpt>
      <trkpt lat="44.92636" lon="6.69027">
        <ele>1528</ele>
        <time>2018-02-18T20:33:15Z</time>
      </trkpt>
      <trkpt lat="44.92652" lon="6.69028">
        <ele>1531</ele>
        <time>2018-02-18T20:34:15Z</time>
      </trkpt>
      <trkpt lat="44.92671" lon="6.69035">
        <ele>1535</ele>
        <time>2018-02-18T20:35:15Z</time>
      </trkpt>
      <trkpt lat="44.92686" lon="6.69037">
        <ele>1534</ele>
        <time>2018-02-18T20:36:15Z</time>
      </trkpt>
      <trkpt lat="44.92699" lon="6.69048">
        <ele>1536</ele>
        <time>2018-02-18T20:37:15Z</time>
      </trkpt>
      <trkpt lat="44.9271" lon="6.69068">
        <ele>1542</ele>
        <time>2018-02-18T20:38:15Z</time>
      </trkpt>
      <trkpt lat="44.92748" lon="6.69093">
        <ele>1544</ele>
        <time>2018-02-18T20:39:15Z</time>
      </trkpt>
      <trkpt lat="44.92761" lon="6.69107">
        <ele>1549</ele>
        <time>2018-02-18T20:40:15Z</time>
      </trkpt>
      <trkpt lat="44.92814" lon="6.69155">
        <ele>1565</ele>
        <time>2018-02-18T20:41:15Z</time>
      </trkpt>
      <trkpt lat="44.92832" lon="6.69161">
        <ele>1565</ele>
        <time>2018-02-18T20:42:15Z</time>
      </trkpt>
      <trkpt lat="44.92847" lon="6.69158">
        <ele>1568</ele>
        <time>2018-02-18T20:43:15Z</time>
      </trkpt>
      <trkpt lat="44.92859" lon="6.69145">
        <ele>1568</ele>
        <time>2018-02-18T20:44:15Z</time>
      </trkpt>
      <trkpt lat="44.92865" lon="6.69128">
        <ele>1564</ele>
        <time>2018-02-18T20:45:15Z</time>
      </trkpt>
      <trkpt lat="44.92871" lon="6.69105">
        <ele>1559</ele>
        <time>2018-02-18T20:46:15Z</time>
      </trkpt>
      <trkpt lat="44.92877" lon="6.69026">
        <ele>1542</ele>
        <time>2018-02-18T20:47:15Z</time>
      </trkpt>
      <trkpt lat="44.92884" lon="6.6902">
        <ele>1543</ele>
        <time>2018-02-18T20:48:15Z</time>
      </trkpt>
      <trkpt lat="44.92895" lon="6.69016">
        <ele>1545</ele>
        <time>2018-02-18T20:49:15Z</time>
      </trkpt>
      <trkpt lat="44.92917" lon="6.69023">
        <ele>1554</ele>
        <time>2018-02-18T20:50:15Z</time>
      </trkpt>
      <trkpt lat="44.9292" lon="6.69029">
        <ele>1555</ele>
        <time>2018-02-18T20:51:15Z</time>
      </trkpt>
      <trkpt lat="44.9292" lon="6.69037">
        <ele>1557</ele>
        <time>2018-02-18T20:52:15Z</time>
      </trkpt>
      <trkpt lat="44.92915" lon="6.69041">
        <ele>1558</ele>
        <time>2018-02-18T20:53:15Z</time>
      </trkpt>
      <trkpt lat="44.92906" lon="6.69042">
        <ele>1555</ele>
        <time>2018-02-18T20:54:15Z</time>
      </trkpt>
      <trkpt lat="44.92896" lon="6.69047">
        <ele>1553</ele>
        <time>2018-02-18T20:55:15Z</time>
      </trkpt>
      <trkpt lat="44.9289" lon="6.69056">
        <ele>1553</ele>
        <time>2018-02-18T20:56:15Z</time>
      </trkpt>
      <trkpt lat="44.92885" lon="6.69069">
        <ele>1554</ele>
        <time>2018-02-18T20:57:15Z</time>
      </trkpt>
      <trkpt lat="44.92885" lon="6.69087">
        <ele>1559</ele>
        <time>2018-02-18T20:58:15Z</time>
      </trkpt>
      <trkpt lat="44.92882" lon="6.69152">
        <ele>1577</ele>
        <time>2018-02-18T20:59:15Z</time>
      </trkpt>
      <trkpt lat="44.92877" lon="6.69179">
        <ele>1585</ele>
        <time>2018-02-18T21:00:15Z</time>
      </trkpt>
      <trkpt lat="44.92866" lon="6.69204">
        <ele>1591</ele>
        <time>2018-02-18T21:01:15Z</time>
      </trkpt>
      <trkpt lat="44.92853" lon="6.69216">
        <ele>1593</ele>
        <time>2018-02-18T21:02:15Z</time>
      </trkpt>
      <trkpt lat="44.92836" lon="6.6922">
        <ele>1591</ele>
        <time>2018-02-18T21:03:15Z</time>
      </trkpt>
      <trkpt lat="44.92819" lon="6.69219">
        <ele>1593</ele>
        <time>2018-02-18T21:04:15Z</time>
      </trkpt>
      <trkpt lat="44.92801" lon="6.69214">
        <ele>1594</ele>
        <time>2018-02-18T21:05:15Z</time>
      </trkpt>
      <trkpt lat="44.9272" lon="6.69173">
        <ele>1582</ele>
        <time>2018-02-18T21:06:15Z</time>
      </trkpt>
      <trkpt lat="44.927" lon="6.69161">
        <ele>1580</ele>
        <time>2018-02-18T21:07:15Z</time>
      </trkpt>
      <trkpt lat="44.92685" lon="6.69148">
        <ele>1578</ele>
        <time>2018-02-18T21:08:15Z</time>
      </trkpt>
      <trkpt lat="44.92675" lon="6.69143">
        <ele>1577</ele>
        <time>2018-02-18T21:09:15Z</time>
      </trkpt>
      <trkpt lat="44.92662" lon="6.69143">
        <ele>1577</ele>
        <time>2018-02-18T21:10:15Z</time>
      </trkpt>
      <trkpt lat="44.92651" lon="6.69154">
        <ele>1578</ele>
        <time>2018-02-18T21:11:15Z</time>
      </trkpt>
      <trkpt lat="44.92629" lon="6.69195">
        <ele>1580</ele>
        <time>2018-02-18T21:12:15Z</time>
      </trkpt>
      <trkpt lat="44.92618" lon="6.6921">
        <ele>1578</ele>
        <time>2018-02-18T21:13:15Z</time>
      </trkpt>
      <trkpt lat="44.92612" lon="6.69224">
        <ele>1578</ele>
        <time>2018-02-18T21:14:15Z</time>
      </trkpt>
      <trkpt lat="44.92616" lon="6.69242">
        <ele>1583</ele>
        <time>2018-02-18T21:15:15Z</time>
      </trkpt>
      <trkpt lat="44.92623" lon="6.69257">
        <ele>1589</ele>
        <time>2018-02-18T21:16:15Z</time>
      </trkpt>
      <trkpt lat="44.92627" lon="6.69281">
        <ele>1593</ele>
        <time>2018-02-18T21:17:15Z</time>
      </trkpt>
      <trkpt lat="44.9263" lon="6.69362">
        <ele>1606</ele>
        <time>2018-02-18T21:18:15Z</time>
      </trkpt>
      <trkpt lat="44.92625" lon="6.69379">
        <ele>1607</ele>
        <time>2018-02-18T21:19:15Z</time>
      </trkpt>
      <trkpt lat="44.92618" lon="6.69395">
        <ele>1608</ele>
        <time>2018-02-18T21:20:15Z</time>
      </trkpt>
      <trkpt lat="44.92559" lon="6.69435">
        <ele>1590</ele>
        <time>2018-02-18T21:21:15Z</time>
      </trkpt>
      <trkpt lat="44.92545" lon="6.69441">
        <ele>1585</ele>
        <time>2018-02-18T21:22:15Z</time>
      </trkpt>
      <trkpt lat="44.92542" lon="6.69454">
        <ele>1586</ele>
        <time>2018-02-18T21:23:15Z</time>
      </trkpt>
      <trkpt lat="44.92543" lon="6.6947">
        <ele>1591</ele>
        <time>2018-02-18T21:24:15Z</time>
      </trkpt>
      <trkpt lat="44.92549" lon="6.69481">
        <ele>1596</ele>
        <time>2018-02-18T21:25:15Z</time>
      </trkpt>
      <trkpt lat="44.92553" lon="6.69501">
        <ele>1603</ele>
        <time>2018-02-18T21:26:15Z</time>
      </trkpt>
      <trkpt lat="44.92554" lon="6.69524">
        <ele>1606</ele>
        <time>2018-02-18T21:27:15Z</time>
      </trkpt>
      <trkpt lat="44.9255" lon="6.69544">
        <ele>1606</ele>
        <time>2018-02-18T21:28:15Z</time>
      </trkpt>
      <trkpt lat="44.92542" lon="6.6957">
        <ele>1605</ele>
        <time>2018-02-18T21:29:15Z</time>
      </trkpt>
      <trkpt lat="44.9253" lon="6.69647">
        <ele>1609</ele>
        <time>2018-02-18T21:30:15Z</time>
      </trkpt>
      <trkpt lat="44.92533" lon="6.69661">
        <ele>1612</ele>
        <time>2018-02-18T21:31:15Z</time>
      </trkpt>
      <trkpt lat="44.92542" lon="6.69665">
        <ele>1616</ele>
        <time>2018-02-18T21:32:15Z</time>
      </trkpt>
      <trkpt lat="44.92551" lon="6.69663">
        <ele>1620</ele>
        <time>2018-02-18T21:33:15Z</time>
      </trkpt>
      <trkpt lat="44.92558" lon="6.69654">
        <ele>1622</ele>
        <time>2018-02-18T21:34:15Z</time>
      </trkpt>
      <trkpt lat="44.92561" lon="6.69639">
        <ele>1622</ele>
        <time>2018-02-18T21:35:15Z</time>
      </trkpt>
      <trkpt lat="44.92561" lon="6.69615">
        <ele>1620</ele>
        <time>2018-02-18T21:36:15Z</time>
      </trkpt>
      <trkpt lat="44.92563" lon="6.69591">
        <ele>1618</ele>
        <time>2018-02-18T21:37:15Z</time>
      </trkpt>
      <trkpt lat="44.92568" lon="6.69572">
        <ele>1619</ele>
        <time>2018-02-18T21:38:15Z</time>
      </trkpt>
      <trkpt lat="44.92577" lon="6.69553">
        <ele>1621</ele>
        <time>2018-02-18T21:39:15Z</time>
      </trkpt>
      <trkpt lat="44.92581" lon="6.6954">
        <ele>1622</ele>
        <time>2018-02-18T21:40:15Z</time>
      </trkpt>
      <trkpt lat="44.9258" lon="6.6952">
        <ele>1619</ele>
        <time>2018-02-18T21:41:15Z</time>
      </trkpt>
      <trkpt lat="44.92581" lon="6.69501">
        <ele>1618</ele>
        <time>2018-02-18T21:42:15Z</time>
      </trkpt>
      <trkpt lat="44.92585" lon="6.69483">
        <ele>1615</ele>
        <time>2018-02-18T21:43:15Z</time>
      </trkpt>
      <trkpt lat="44.92594" lon="6.69467">
        <ele>1615</ele>
        <time>2018-02-18T21:44:15Z</time>
      </trkpt>
      <trkpt lat="44.92603" lon="6.6946">
        <ele>1617</ele>
        <time>2018-02-18T21:45:15Z</time>
      </trkpt>
      <trkpt lat="44.9263" lon="6.69447">
        <ele>1627</ele>
        <time>2018-02-18T21:46:15Z</time>
      </trkpt>
      <trkpt lat="44.9269" lon="6.69397">
        <ele>1642</ele>
        <time>2018-02-18T21:47:15Z</time>
      </trkpt>
      <trkpt lat="44.92696" lon="6.69378">
        <ele>1641</ele>
        <time>2018-02-18T21:48:15Z</time>
      </trkpt>
      <trkpt lat="44.92696" lon="6.69362">
        <ele>1638</ele>
        <time>2018-02-18T21:49:15Z</time>
      </trkpt>
      <trkpt lat="44.92688" lon="6.69327">
        <ele>1629</ele>
        <time>2018-02-18T21:50:15Z</time>
      </trkpt>
      <trkpt lat="44.92686" lon="6.69305">
        <ele>1624</ele>
        <time>2018-02-18T21:51:15Z</time>
      </trkpt>
      <trkpt lat="44.9269" lon="6.69284">
        <ele>1622</ele>
        <time>2018-02-18T21:52:15Z</time>
      </trkpt>
      <trkpt lat="44.927" lon="6.6927">
        <ele>1622</ele>
        <time>2018-02-18T21:53:15Z</time>
      </trkpt>
      <trkpt lat="44.92713" lon="6.69258">
        <ele>1622</ele>
        <time>2018-02-18T21:54:15Z</time>
      </trkpt>
      <trkpt lat="44.92728" lon="6.69258">
        <ele>1625</ele>
        <time>2018-02-18T21:55:15Z</time>
      </trkpt>
      <trkpt lat="44.92737" lon="6.69262">
        <ele>1628</ele>
        <time>2018-02-18T21:56:15Z</time>
      </trkpt>
      <trkpt lat="44.92751" lon="6.69274">
        <ele>1635</ele>
        <time>2018-02-18T21:57:15Z</time>
      </trkpt>
      <trkpt lat="44.92801" lon="6.69334">
        <ele>1646</ele>
        <time>2018-02-18T21:58:15Z</time>
      </trkpt>
      <trkpt lat="44.92817" lon="6.69348">
        <ele>1647</ele>
        <time>2018-02-18T21:59:15Z</time>
      </trkpt>
      <trkpt lat="44.92832" lon="6.69357">
        <ele>1648</ele>
        <time>2018-02-18T22:00:15Z</time>
      </trkpt>
      <trkpt lat="44.92846" lon="6.6937">
        <ele>1651</ele>
        <time>2018-02-18T22:01:15Z</time>
      </trkpt>
      <trkpt lat="44.92859" lon="6.69388">
        <ele>1656</ele>
        <time>2018-02-18T22:02:15Z</time>
      </trkpt>
      <trkpt lat="44.92866" lon="6.69406">
        <ele>1661</ele>
        <time>2018-02-18T22:03:15Z</time>
      </trkpt>
      <trkpt lat="44.92873" lon="6.69439">
        <ele>1671</ele>
        <time>2018-02-18T22:04:15Z</time>
      </trkpt>
      <trkpt lat="44.92881" lon="6.69445">
        <ele>1673</ele>
        <time>2018-02-18T22:05:15Z</time>
      </trkpt>
      <trkpt lat="44.92889" lon="6.69447">
        <ele>1672</ele>
        <time>2018-02-18T22:06:15Z</time>
      </trkpt>
      <trkpt lat="44.92899" lon="6.69445">
        <ele>1671</ele>
        <time>2018-02-18T22:07:15Z</time>
      </trkpt>
      <trkpt lat="44.9293" lon="6.69431">
        <ele>1663</ele>
        <time>2018-02-18T22:08:15Z</time>
      </trkpt>
      <trkpt lat="44.92945" lon="6.69431">
        <ele>1663</ele>
        <time>2018-02-18T22:09:15Z</time>
      </trkpt>
      <trkpt lat="44.92988" lon="6.69441">
        <ele>1666</ele>
        <time>2018-02-18T22:10:15Z</time>
      </trkpt>
      <trkpt lat="44.93035" lon="6.69444">
        <ele>1667</ele>
        <time>2018-02-18T22:11:15Z</time>
      </trkpt>
      <trkpt lat="44.93042" lon="6.69447">
        <ele>1668</ele>
        <time>2018-02-18T22:12:15Z</time>
      </trkpt>
      <trkpt lat="44.93045" lon="6.69452">
        <ele>1670</ele>
        <time>2018-02-18T22:13:15Z</time>
      </trkpt>
      <trkpt lat="44.93044" lon="6.6946">
        <ele>1674</ele>
        <time>2018-02-18T22:14:15Z</time>
      </trkpt>
      <trkpt lat="44.93038" lon="6.69462">
        <ele>1675</ele>
        <time>2018-02-18T22:15:15Z</time>
      </trkpt>
      <trkpt lat="44.93002" lon="6.69457">
        <ele>1673</ele>
        <time>2018-02-18T22:16:15Z</time>
      </trkpt>
      <trkpt lat="44.92959" lon="6.69459">
        <ele>1674</ele>
        <time>2018-02-18T22:17:15Z</time>
      </trkpt>
      <trkpt lat="44.92943" lon="6.69461">
        <ele>1675</ele>
        <time>2018-02-18T22:18:15Z</time>
      </trkpt>
      <trkpt lat="44.92862" lon="6.69496">
        <ele>1691</ele>
        <time>2018-02-18T22:19:15Z</time>
      </trkpt>
      <trkpt lat="44.92841" lon="6.69497">
        <ele>1692</ele>
        <time>2018-02-18T22:20:15Z</time>
      </trkpt>
      <trkpt lat="44.92793" lon="6.69483">
        <ele>1686</ele>
        <time>2018-02-18T22:21:15Z</time>
      </trkpt>
      <trkpt lat="44.9278" lon="6.69484">
        <ele>1686</ele>
        <time>2018-02-18T22:22:15Z</time>
      </trkpt>
      <trkpt lat="44.92742" lon="6.69516">
        <ele>1690</ele>
        <time>2018-02-18T22:23:15Z</time>
      </trkpt>
      <trkpt lat="44.92725" lon="6.69524">
        <ele>1686</ele>
        <time>2018-02-18T22:24:15Z</time>
      </trkpt>
      <trkpt lat="44.92717" lon="6.69538">
        <ele>1686</ele>
        <time>2018-02-18T22:25:15Z</time>
      </trkpt>
      <trkpt lat="44.92695" lon="6.69662">
        <ele>1698</ele>
        <time>2018-02-18T22:26:15Z</time>
      </trkpt>
      <trkpt lat="44.92694" lon="6.69684">
        <ele>1699</ele>
        <time>2018-02-18T22:27:15Z</time>
      </trkpt>
      <trkpt lat="44.92707" lon="6.69741">
        <ele>1710</ele>
        <time>2018-02-18T22:28:15Z</time>
      </trkpt>
      <trkpt lat="44.92708" lon="6.69772">
        <ele>1715</ele>
        <time>2018-02-18T22:29:15Z</time>
      </trkpt>
      <trkpt lat="44.927" lon="6.69798">
        <ele>1715</ele>
        <time>2018-02-18T22:30:15Z</time>
      </trkpt>
      <trkpt lat="44.92688" lon="6.6981">
        <ele>1711</ele>
        <time>2018-02-18T22:31:15Z</time>
      </trkpt>
      <trkpt lat="44.92669" lon="6.69824">
        <ele>1704</ele>
        <time>2018-02-18T22:32:15Z</time>
      </trkpt>
      <trkpt lat="44.92663" lon="6.69848">
        <ele>1705</ele>
        <time>2018-02-18T22:33:15Z</time>
      </trkpt>
      <trkpt lat="44.92665" lon="6.69876">
        <ele>1709</ele>
        <time>2018-02-18T22:34:15Z</time>
      </trkpt>
      <trkpt lat="44.9267" lon="6.69909">
        <ele>1715</ele>
        <time>2018-02-18T22:35:15Z</time>
      </trkpt>
      <trkpt lat="44.92673" lon="6.69942">
        <ele>1720</ele>
        <time>2018-02-18T22:36:15Z</time>
      </trkpt>
      <trkpt lat="44.92655" lon="6.70034">
        <ele>1716</ele>
        <time>2018-02-18T22:37:15Z</time>
      </trkpt>
      <trkpt lat="44.92655" lon="6.70059">
        <ele>1717</ele>
        <time>2018-02-18T22:38:15Z</time>
      </trkpt>
      <trkpt lat="44.92664" lon="6.70092">
        <ele>1723</ele>
        <time>2018-02-18T22:39:15Z</time>
      </trkpt>
      <trkpt lat="44.92664" lon="6.70113">
        <ele>1724</ele>
        <time>2018-02-18T22:40:15Z</time>
      </trkpt>
      <trkpt lat="44.92659" lon="6.70175">
        <ele>1723</ele>
        <time>2018-02-18T22:41:15Z</time>
      </trkpt>
      <trkpt lat="44.92662" lon="6.70194">
        <ele>1724</ele>
        <time>2018-02-18T22:42:15Z</time>
      </trkpt>
      <trkpt lat="44.9267" lon="6.70209">
        <ele>1727</ele>
        <time>2018-02-18T22:43:15Z</time>
      </trkpt>
      <trkpt lat="44.9268" lon="6.70223">
        <ele>1732</ele>
        <time>2018-02-18T22:44:15Z</time>
      </trkpt>
      <trkpt lat="44.92686" lon="6.70238">
        <ele>1735</ele>
        <time>2018-02-18T22:45:15Z</time>
      </trkpt>
      <trkpt lat="44.92689" lon="6.70257">
        <ele>1736</ele>
        <time>2018-02-18T22:46:15Z</time>
      </trkpt>
      <trkpt lat="44.92686" lon="6.70276">
        <ele>1733</ele>
        <time>2018-02-18T22:47:15Z</time>
      </trkpt>
      <trkpt lat="44.92689" lon="6.70295">
        <ele>1734</ele>
        <time>2018-02-18T22:48:15Z</time>
      </trkpt>
      <trkpt lat="44.92694" lon="6.70314">
        <ele>1735</ele>
        <time>2018-02-18T22:49:15Z</time>
      </trkpt>
      <trkpt lat="44.92702" lon="6.70331">
        <ele>1738</ele>
        <time>2018-02-18T22:50:15Z</time>
      </trkpt>
      <trkpt lat="44.9273" lon="6.70372">
        <ele>1748</ele>
        <time>2018-02-18T22:51:15Z</time>
      </trkpt>
      <trkpt lat="44.92738" lon="6.70392">
        <ele>1750</ele>
        <time>2018-02-18T22:52:15Z</time>
      </trkpt>
      <trkpt lat="44.92739" lon="6.7041">
        <ele>1748</ele>
        <time>2018-02-18T22:53:15Z</time>
      </trkpt>
      <trkpt lat="44.92736" lon="6.70425">
        <ele>1748</ele>
        <time>2018-02-18T22:54:15Z</time>
      </trkpt>
      <trkpt lat="44.92727" lon="6.70443">
        <ele>1747</ele>
        <time>2018-02-18T22:55:15Z</time>
      </trkpt>
      <trkpt lat="44.92721" lon="6.70461">
        <ele>1748</ele>
        <time>2018-02-18T22:56:15Z</time>
      </trkpt>
      <trkpt lat="44.92682" lon="6.70645">
        <ele>1752</ele>
        <time>2018-02-18T22:57:15Z</time>
      </trkpt>
      <trkpt lat="44.92677" lon="6.70675">
        <ele>1752</ele>
        <time>2018-02-18T22:58:15Z</time>
      </trkpt>
      <trkpt lat="44.92676" lon="6.70699">
        <ele>1754</ele>
        <time>2018-02-18T22:59:15Z</time>
      </trkpt>
      <trkpt lat="44.92678" lon="6.70724">
        <ele>1757</ele>
        <time>2018-02-18T23:00:15Z</time>
      </trkpt>
      <trkpt lat="44.92682" lon="6.70747">
        <ele>1760</ele>
        <time>2018-02-18T23:01:15Z</time>
      </trkpt>
      <trkpt lat="44.92689" lon="6.70769">
        <ele>1763</ele>
        <time>2018-02-18T23:02:15Z</time>
      </trkpt>
      <trkpt lat="44.92706" lon="6.7081">
        <ele>1771</ele>
        <time>2018-02-18T23:03:15Z</time>
      </trkpt>
      <trkpt lat="44.92712" lon="6.70834">
        <ele>1774</ele>
        <time>2018-02-18T23:04:15Z</time>
      </trkpt>
      <trkpt lat="44.92714" lon="6.70856">
        <ele>1775</ele>
        <time>2018-02-18T23:05:15Z</time>
      </trkpt>
      <trkpt lat="44.92711" lon="6.70877">
        <ele>1775</ele>
        <time>2018-02-18T23:06:15Z</time>
      </trkpt>
      <trkpt lat="44.92714" lon="6.70896">
        <ele>1776</ele>
        <time>2018-02-18T23:07:15Z</time>
      </trkpt>
      <trkpt lat="44.9272" lon="6.7092">
        <ele>1778</ele>
        <time>2018-02-18T23:08:15Z</time>
      </trkpt>
      <trkpt lat="44.92747" lon="6.70977">
        <ele>1780</ele>
        <time>2018-02-18T23:09:15Z</time>
      </trkpt>
      <trkpt lat="44.92758" lon="6.71007">
        <ele>1782</ele>
        <time>2018-02-18T23:10:15Z</time>
      </trkpt>
      <trkpt lat="44.92766" lon="6.71033">
        <ele>1786</ele>
        <time>2018-02-18T23:11:15Z</time>
      </trkpt>
      <trkpt lat="44.92781" lon="6.71109">
        <ele>1793</ele>
        <time>2018-02-18T23:12:15Z</time>
      </trkpt>
      <trkpt lat="44.92842" lon="6.71284">
        <ele>1800</ele>
        <time>2018-02-18T23:13:15Z</time>
      </trkpt>
      <trkpt lat="44.92877" lon="6.7143">
        <ele>1807</ele>
        <time>2018-02-18T23:14:15Z</time>
      </trkpt>
      <trkpt lat="44.92919" lon="6.71714">
        <ele>1824</ele>
        <time>2018-02-18T23:15:15Z</time>
      </trkpt>
      <trkpt lat="44.92912" lon="6.7184">
        <ele>1831</ele>
        <time>2018-02-18T23:16:15Z</time>
      </trkpt>
      <trkpt lat="44.92914" lon="6.71865">
        <ele>1833</ele>
        <time>2018-02-18T23:17:15Z</time>
      </trkpt>
      <trkpt lat="44.9291" lon="6.71887">
        <ele>1836</ele>
        <time>2018-02-18T23:18:15Z</time>
      </trkpt>
      <trkpt lat="44.92912" lon="6.71894">
        <ele>1836</ele>
        <time>2018-02-18T23:19:15Z</time>
      </trkpt>
      <trkpt lat="44.92923" lon="6.71909">
        <ele>1838</ele>
        <time>2018-02-18T23:20:15Z</time>
      </trkpt>
      <trkpt lat="44.92933" lon="6.71924">
        <ele>1839</ele>
        <time>2018-02-18T23:21:15Z</time>
      </trkpt>
      <trkpt lat="44.92948" lon="6.71957">
        <ele>1842</ele>
        <time>2018-02-18T23:22:15Z</time>
      </trkpt>
      <trkpt lat="44.93003" lon="6.72097">
        <ele>1844</ele>
        <time>2018-02-18T23:23:15Z</time>
      </trkpt>
      <trkpt lat="44.93026" lon="6.72169">
        <ele>1847</ele>
        <time>2018-02-18T23:24:15Z</time>
      </trkpt>
      <trkpt lat="44.93041" lon="6.72221">
        <ele>1849</ele>
        <time>2018-02-18T23:25:15Z</time>
      </trkpt>
      <trkpt lat="44.93054" lon="6.72283">
        <ele>1851</ele>
        <time>2018-02-18T23:26:15Z</time>
      </trkpt>
      <trkpt lat="44.93084" lon="6.72439">
        <ele>1852</ele>
        <time>2018-02-18T23:27:15Z</time>
      </trkpt>
      <trkpt lat="44.93091" lon="6.72466">
        <ele>1852</ele>
        <time>2018-02-18T23:28:15Z</time>
      </trkpt>
      <trkpt lat="44.93105" lon="6.72512">
        <ele>1852</ele>
        <time>2018-02-18T23:29:15Z</time>
      </trkpt>
      <trkpt lat="44.93124" lon="6.72551">
        <ele>1853</ele>
        <time>2018-02-18T23:30:15Z</time>
      </trkpt>
      <trkpt lat="44.93133" lon="6.72583">
        <ele>1853</ele>
        <time>2018-02-18T23:31:15Z</time>
      </trkpt>
      <trkpt lat="44.93165" lon="6.72645">
        <ele>1851</ele>
        <time>2018-02-18T23:32:15Z</time>
      </trkpt>
      <trkpt lat="44.9319" lon="6.72688">
        <ele>1851</ele>
        <time>2018-02-18T23:33:15Z</time>
      </trkpt>
      <trkpt lat="44.93242" lon="6.7276">
        <ele>1849</ele>
        <time>2018-02-18T23:34:15Z</time>
      </trkpt>
      <trkpt lat="44.93254" lon="6.72781">
        <ele>1849</ele>
        <time>2018-02-18T23:35:15Z</time>
      </trkpt>
      <trkpt lat="44.93264" lon="6.72804">
        <ele>1848</ele>
        <time>2018-02-18T23:36:15Z</time>
      </trkpt>
      <trkpt lat="44.93265" lon="6.72818">
        <ele>1848</ele>
        <time>2018-02-18T23:37:15Z</time>
      </trkpt>
      <trkpt lat="44.9327" lon="6.72825">
        <ele>1848</ele>
        <time>2018-02-18T23:38:15Z</time>
      </trkpt>
      <trkpt lat="44.93278" lon="6.72829">
        <ele>1848</ele>
        <time>2018-02-18T23:39:15Z</time>
      </trkpt>
      <trkpt lat="44.93288" lon="6.72823">
        <ele>1849</ele>
        <time>2018-02-18T23:40:15Z</time>
      </trkpt>
      <trkpt lat="44.93329" lon="6.72883">
        <ele>1850</ele>
        <time>2018-02-18T23:41:15Z</time>
      </trkpt>
      <trkpt lat="44.93348" lon="6.72919">
        <ele>1850</ele>
        <time>2018-02-18T23:42:15Z</time>
      </trkpt>
      <trkpt lat="44.93374" lon="6.73001">
        <ele>1849</ele>
        <time>2018-02-18T23:43:15Z</time>
      </trkpt>
      <trkpt lat="44.93414" lon="6.73121">
        <ele>1847</ele>
        <time>2018-02-18T23:44:15Z</time>
      </trkpt>
      <trkpt lat="44.93423" lon="6.73156">
        <ele>1848</ele>
        <time>2018-02-18T23:45:15Z</time>
      </trkpt>
      <trkpt lat="44.93423" lon="6.73178">
        <ele>1848</ele>
        <time>2018-02-18T23:46:15Z</time>
      </trkpt>
      <trkpt lat="44.93421" lon="6.73192">
        <ele>1847</ele>
        <time>2018-02-18T23:47:15Z</time>
      </trkpt>
      <trkpt lat="44.93385" lon="6.73336">
        <ele>1844</ele>
        <time>2018-02-18T23:48:15Z</time>
      </trkpt>
      <trkpt lat="44.93375" lon="6.73365">
        <ele>1843</ele>
        <time>2018-02-18T23:49:15Z</time>
      </trkpt>
      <trkpt lat="44.93367" lon="6.73382">
        <ele>1841</ele>
        <time>2018-02-18T23:50:15Z</time>
      </trkpt>
      <trkpt lat="44.93328" lon="6.73448">
        <ele>1838</ele>
        <time>2018-02-18T23:51:15Z</time>
      </trkpt>
      <trkpt lat="44.93318" lon="6.73474">
        <ele>1837</ele>
        <time>2018-02-18T23:52:15Z</time>
      </trkpt>
      <trkpt lat="44.93315" lon="6.73488">
        <ele>1837</ele>
        <time>2018-02-18T23:53:15Z</time>
      </trkpt>
      <trkpt lat="44.9331" lon="6.73541">
        <ele>1836</ele>
        <time>2018-02-18T23:54:15Z</time>
      </trkpt>
      <trkpt lat="44.93306" lon="6.73616">
        <ele>1832</ele>
        <time>2018-02-18T23:55:15Z</time>
      </trkpt>
      <trkpt lat="44.93309" lon="6.73664">
        <ele>1830</ele>
        <time>2018-02-18T23:56:15Z</time>
      </trkpt>
      <trkpt lat="44.9334" lon="6.73811">
        <ele>1822</ele>
        <time>2018-02-18T23:57:15Z</time>
      </trkpt>
      <trkpt lat="44.93348" lon="6.73863">
        <ele>1820</ele>
        <time>2018-02-18T23:58:15Z</time>
      </trkpt>
      <trkpt lat="44.93351" lon="6.73902">
        <ele>1817</ele>
        <time>2018-02-18T23:59:15Z</time>
      </trkpt>
      <trkpt lat="44.93351" lon="6.73902">
        <ele>1817</ele>
        <time>2018-02-19T00:00:15Z</time>
      </trkpt>
      <trkpt lat="44.93359" lon="6.73987">
        <ele>1814</ele>
        <time>2018-02-19T00:01:15Z</time>
      </trkpt>
      <trkpt lat="44.93388" lon="6.74084">
        <ele>1813</ele>
        <time>2018-02-19T00:02:15Z</time>
      </trkpt>
      <trkpt lat="44.93405" lon="6.74165">
        <ele>1807</ele>
        <time>2018-02-19T00:03:15Z</time>
      </trkpt>
      <trkpt lat="44.9342" lon="6.74197">
        <ele>1804</ele>
        <time>2018-02-19T00:04:15Z</time>
      </trkpt>
      <trkpt lat="44.93439" lon="6.74211">
        <ele>1804</ele>
        <time>2018-02-19T00:05:15Z</time>
      </trkpt>
      <trkpt lat="44.93497" lon="6.74235">
        <ele>1805</ele>
        <time>2018-02-19T00:06:15Z</time>
      </trkpt>
      <trkpt lat="44.93521" lon="6.74251">
        <ele>1804</ele>
        <time>2018-02-19T00:07:15Z</time>
      </trkpt>
      <trkpt lat="44.93535" lon="6.74278">
        <ele>1802</ele>
        <time>2018-02-19T00:08:15Z</time>
      </trkpt>
      <trkpt lat="44.93537" lon="6.74304">
        <ele>1799</ele>
        <time>2018-02-19T00:09:15Z</time>
      </trkpt>
      <trkpt lat="44.93537" lon="6.74364">
        <ele>1793</ele>
        <time>2018-02-19T00:10:15Z</time>
      </trkpt>
      <trkpt lat="44.93546" lon="6.74403">
        <ele>1793</ele>
        <time>2018-02-19T00:11:15Z</time>
      </trkpt>
      <trkpt lat="44.93615" lon="6.74529">
        <ele>1791</ele>
        <time>2018-02-19T00:12:15Z</time>
      </trkpt>
      <trkpt lat="44.93624" lon="6.74557">
        <ele>1789</ele>
        <time>2018-02-19T00:13:15Z</time>
      </trkpt>
      <trkpt lat="44.93645" lon="6.74593">
        <ele>1789</ele>
        <time>2018-02-19T00:14:15Z</time>
      </trkpt>
      <trkpt lat="44.93677" lon="6.74693">
        <ele>1780</ele>
        <time>2018-02-19T00:15:15Z</time>
      </trkpt>
      <trkpt lat="44.93696" lon="6.74738">
        <ele>1777</ele>
        <time>2018-02-19T00:16:15Z</time>
      </trkpt>
      <trkpt lat="44.93708" lon="6.74758">
        <ele>1776</ele>
        <time>2018-02-19T00:17:15Z</time>
      </trkpt>
      <trkpt lat="44.93896" lon="6.75029">
        <ele>1766</ele>
        <time>2018-02-19T00:18:15Z</time>
      </trkpt>
      <trkpt lat="44.93975" lon="6.75149">
        <ele>1764</ele>
        <time>2018-02-19T00:19:15Z</time>
      </trkpt>
      <trkpt lat="44.93998" lon="6.75191">
        <ele>1760</ele>
        <time>2018-02-19T00:20:15Z</time>
      </trkpt>
      <trkpt lat="44.94013" lon="6.75234">
        <ele>1761</ele>
        <time>2018-02-19T00:21:15Z</time>
      </trkpt>
      <trkpt lat="44.94033" lon="6.75349">
        <ele>1759</ele>
        <time>2018-02-19T00:22:15Z</time>
      </trkpt>
      <trkpt lat="44.94039" lon="6.75372">
        <ele>1758</ele>
        <time>2018-02-19T00:23:15Z</time>
      </trkpt>
      <trkpt lat="44.94109" lon="6.75569">
        <ele>1752</ele>
        <time>2018-02-19T00:24:15Z</time>
      </trkpt>
      <trkpt lat="44.94113" lon="6.75584">
        <ele>1751</ele>
        <time>2018-02-19T00:25:15Z</time>
      </trkpt>
      <trkpt lat="44.94115" lon="6.75605">
        <ele>1751</ele>
        <time>2018-02-19T00:26:15Z</time>
      </trkpt>
      <trkpt lat="44.94114" lon="6.75619">
        <ele>1750</ele>
        <time>2018-02-19T00:27:15Z</time>
      </trkpt>
      <trkpt lat="44.94109" lon="6.75657">
        <ele>1748</ele>
        <time>2018-02-19T00:28:15Z</time>
      </trkpt>
      <trkpt lat="44.94108" lon="6.75674">
        <ele>1746</ele>
        <time>2018-02-19T00:29:15Z</time>
      </trkpt>
      <trkpt lat="44.94111" lon="6.75705">
        <ele>1744</ele>
        <time>2018-02-19T00:30:15Z</time>
      </trkpt>
      <trkpt lat="44.94116" lon="6.75719">
        <ele>1744</ele>
        <time>2018-02-19T00:31:15Z</time>
      </trkpt>
      <trkpt lat="44.9417" lon="6.75811">
        <ele>1744</ele>
        <time>2018-02-19T00:32:15Z</time>
      </trkpt>
      <trkpt lat="44.94181" lon="6.75826">
        <ele>1744</ele>
        <time>2018-02-19T00:33:15Z</time>
      </trkpt>
      <trkpt lat="44.94184" lon="6.75838">
        <ele>1743</ele>
        <time>2018-02-19T00:34:15Z</time>
      </trkpt>
      <trkpt lat="44.94188" lon="6.75842">
        <ele>1743</ele>
        <time>2018-02-19T00:35:15Z</time>
      </trkpt>
      <trkpt lat="44.94195" lon="6.75845">
        <ele>1744</ele>
        <time>2018-02-19T00:36:15Z</time>
      </trkpt>
      <trkpt lat="44.94202" lon="6.75843">
        <ele>1745</ele>
        <time>2018-02-19T00:37:15Z</time>
      </trkpt>
      <trkpt lat="44.9423" lon="6.75855">
        <ele>1746</ele>
        <time>2018-02-19T00:38:15Z</time>
      </trkpt>
      <trkpt lat="44.94263" lon="6.75886">
        <ele>1747</ele>
        <time>2018-02-19T00:39:15Z</time>
      </trkpt>
      <trkpt lat="44.94293" lon="6.75908">
        <ele>1744</ele>
        <time>2018-02-19T00:40:15Z</time>
      </trkpt>
      <trkpt lat="44.94319" lon="6.75922">
        <ele>1742</ele>
        <time>2018-02-19T00:41:15Z</time>
      </trkpt>
      <trkpt lat="44.94329" lon="6.75931">
        <ele>1741</ele>
        <time>2018-02-19T00:42:15Z</time>
      </trkpt>
      <trkpt lat="44.94348" lon="6.75961">
        <ele>1745</ele>
        <time>2018-02-19T00:43:15Z</time>
      </trkpt>
      <trkpt lat="44.94358" lon="6.75993">
        <ele>1745</ele>
        <time>2018-02-19T00:44:15Z</time>
      </trkpt>
      <trkpt lat="44.94364" lon="6.76044">
        <ele>1734</ele>
        <time>2018-02-19T00:45:15Z</time>
      </trkpt>
      <trkpt lat="44.94367" lon="6.76065">
        <ele>1730</ele>
        <time>2018-02-19T00:46:15Z</time>
      </trkpt>
      <trkpt lat="44.94383" lon="6.76111">
        <ele>1727</ele>
        <time>2018-02-19T00:47:15Z</time>
      </trkpt>
      <trkpt lat="44.94394" lon="6.76132">
        <ele>1728</ele>
        <time>2018-02-19T00:48:15Z</time>
      </trkpt>
      <trkpt lat="44.94396" lon="6.76147">
        <ele>1725</ele>
        <time>2018-02-19T00:49:15Z</time>
      </trkpt>
      <trkpt lat="44.94396" lon="6.76189">
        <ele>1708</ele>
        <time>2018-02-19T00:50:15Z</time>
      </trkpt>
      <trkpt lat="44.94398" lon="6.76206">
        <ele>1701</ele>
        <time>2018-02-19T00:51:15Z</time>
      </trkpt>
      <trkpt lat="44.94403" lon="6.76221">
        <ele>1697</ele>
        <time>2018-02-19T00:52:15Z</time>
      </trkpt>
      <trkpt lat="44.94409" lon="6.76233">
        <ele>1696</ele>
        <time>2018-02-19T00:53:15Z</time>
      </trkpt>
      <trkpt lat="44.94434" lon="6.76261">
        <ele>1701</ele>
        <time>2018-02-19T00:54:15Z</time>
      </trkpt>
      <trkpt lat="44.94456" lon="6.76278">
        <ele>1710</ele>
        <time>2018-02-19T00:55:15Z</time>
      </trkpt>
      <trkpt lat="44.94467" lon="6.76291">
        <ele>1711</ele>
        <time>2018-02-19T00:56:15Z</time>
      </trkpt>
      <trkpt lat="44.94482" lon="6.76311">
        <ele>1711</ele>
        <time>2018-02-19T00:57:15Z</time>
      </trkpt>
      <trkpt lat="44.94504" lon="6.76353">
        <ele>1703</ele>
        <time>2018-02-19T00:58:15Z</time>
      </trkpt>
      <trkpt lat="44.9451" lon="6.76372">
        <ele>1699</ele>
        <time>2018-02-19T00:59:15Z</time>
      </trkpt>
      <trkpt lat="44.94512" lon="6.76386">
        <ele>1694</ele>
        <time>2018-02-19T01:00:15Z</time>
      </trkpt>
      <trkpt lat="44.94516" lon="6.76436">
        <ele>1675</ele>
        <time>2018-02-19T01:01:15Z</time>
      </trkpt>
      <trkpt lat="44.94525" lon="6.76462">
        <ele>1667</ele>
        <time>2018-02-19T01:02:15Z</time>
      </trkpt>
      <trkpt lat="44.94541" lon="6.7648">
        <ele>1665</ele>
        <time>2018-02-19T01:03:15Z</time>
      </trkpt>
      <trkpt lat="44.9455" lon="6.76486">
        <ele>1666</ele>
        <time>2018-02-19T01:04:15Z</time>
      </trkpt>
      <trkpt lat="44.9456" lon="6.76488">
        <ele>1669</ele>
        <time>2018-02-19T01:05:15Z</time>
      </trkpt>
      <trkpt lat="44.94643" lon="6.76482">
        <ele>1688</ele>
        <time>2018-02-19T01:06:15Z</time>
      </trkpt>
      <trkpt lat="44.94682" lon="6.76489">
        <ele>1692</ele>
        <time>2018-02-19T01:07:15Z</time>
      </trkpt>
      <trkpt lat="44.94698" lon="6.76496">
        <ele>1693</ele>
        <time>2018-02-19T01:08:15Z</time>
      </trkpt>
      <trkpt lat="44.94719" lon="6.76515">
        <ele>1691</ele>
        <time>2018-02-19T01:09:15Z</time>
      </trkpt>
      <trkpt lat="44.9474" lon="6.76548">
        <ele>1684</ele>
        <time>2018-02-19T01:10:15Z</time>
      </trkpt>
      <trkpt lat="44.94766" lon="6.76603">
        <ele>1676</ele>
        <time>2018-02-19T01:11:15Z</time>
      </trkpt>
      <trkpt lat="44.94902" lon="6.76861">
        <ele>1652</ele>
        <time>2018-02-19T01:12:15Z</time>
      </trkpt>
      <trkpt lat="44.94934" lon="6.76915">
        <ele>1648</ele>
        <time>2018-02-19T01:13:15Z</time>
      </trkpt>
      <trkpt lat="44.94964" lon="6.7695">
        <ele>1655</ele>
        <time>2018-02-19T01:14:15Z</time>
      </trkpt>
      <trkpt lat="44.94973" lon="6.76969">
        <ele>1654</ele>
        <time>2018-02-19T01:15:15Z</time>
      </trkpt>
      <trkpt lat="44.9498" lon="6.76997">
        <ele>1651</ele>
        <time>2018-02-19T01:16:15Z</time>
      </trkpt>
      <trkpt lat="44.94989" lon="6.7708">
        <ele>1639</ele>
        <time>2018-02-19T01:17:15Z</time>
      </trkpt>
      <trkpt lat="44.95004" lon="6.77166">
        <ele>1631</ele>
        <time>2018-02-19T01:18:15Z</time>
      </trkpt>
      <trkpt lat="44.95033" lon="6.77257">
        <ele>1626</ele>
        <time>2018-02-19T01:19:15Z</time>
      </trkpt>
      <trkpt lat="44.95054" lon="6.77333">
        <ele>1621</ele>
        <time>2018-02-19T01:20:15Z</time>
      </trkpt>
      <trkpt lat="44.95069" lon="6.77408">
        <ele>1616</ele>
        <time>2018-02-19T01:21:15Z</time>
      </trkpt>
      <trkpt lat="44.95071" lon="6.77434">
        <ele>1613</ele>
        <time>2018-02-19T01:22:15Z</time>
      </trkpt>
      <trkpt lat="44.9507" lon="6.77472">
        <ele>1609</ele>
        <time>2018-02-19T01:23:15Z</time>
      </trkpt>
      <trkpt lat="44.95065" lon="6.77555">
        <ele>1600</ele>
        <time>2018-02-19T01:24:15Z</time>
      </trkpt>
      <trkpt lat="44.95065" lon="6.77595">
        <ele>1597</ele>
        <time>2018-02-19T01:25:15Z</time>
      </trkpt>
      <trkpt lat="44.95068" lon="6.77623">
        <ele>1595</ele>
        <time>2018-02-19T01:26:15Z</time>
      </trkpt>
      <trkpt lat="44.95077" lon="6.7765">
        <ele>1596</ele>
        <time>2018-02-19T01:27:15Z</time>
      </trkpt>
      <trkpt lat="44.95093" lon="6.77684">
        <ele>1594</ele>
        <time>2018-02-19T01:28:15Z</time>
      </trkpt>
      <trkpt lat="44.95111" lon="6.77715">
        <ele>1590</ele>
        <time>2018-02-19T01:29:15Z</time>
      </trkpt>
      <trkpt lat="44.95174" lon="6.77796">
        <ele>1584</ele>
        <time>2018-02-19T01:30:15Z</time>
      </trkpt>
      <trkpt lat="44.95191" lon="6.77827">
        <ele>1580</ele>
        <time>2018-02-19T01:31:15Z</time>
      </trkpt>
      <trkpt lat="44.95199" lon="6.77847">
        <ele>1579</ele>
        <time>2018-02-19T01:32:15Z</time>
      </trkpt>
      <trkpt lat="44.95204" lon="6.7787">
        <ele>1578</ele>
        <time>2018-02-19T01:33:15Z</time>
      </trkpt>
      <trkpt lat="44.95207" lon="6.77895">
        <ele>1575</ele>
        <time>2018-02-19T01:34:15Z</time>
      </trkpt>
      <trkpt lat="44.95205" lon="6.77907">
        <ele>1572</ele>
        <time>2018-02-19T01:35:15Z</time>
      </trkpt>
      <trkpt lat="44.95199" lon="6.77912">
        <ele>1568</ele>
        <time>2018-02-19T01:36:15Z</time>
      </trkpt>
      <trkpt lat="44.95192" lon="6.77912">
        <ele>1565</ele>
        <time>2018-02-19T01:37:15Z</time>
      </trkpt>
      <trkpt lat="44.95183" lon="6.77901">
        <ele>1562</ele>
        <time>2018-02-19T01:38:15Z</time>
      </trkpt>
      <trkpt lat="44.95175" lon="6.77874">
        <ele>1563</ele>
        <time>2018-02-19T01:39:15Z</time>
      </trkpt>
      <trkpt lat="44.95158" lon="6.77832">
        <ele>1564</ele>
        <time>2018-02-19T01:40:15Z</time>
      </trkpt>
      <trkpt lat="44.9514" lon="6.77806">
        <ele>1567</ele>
        <time>2018-02-19T01:41:15Z</time>
      </trkpt>
      <trkpt lat="44.95109" lon="6.77774">
        <ele>1568</ele>
        <time>2018-02-19T01:42:15Z</time>
      </trkpt>
      <trkpt lat="44.95089" lon="6.77759">
        <ele>1566</ele>
        <time>2018-02-19T01:43:15Z</time>
      </trkpt>
      <trkpt lat="44.95076" lon="6.77753">
        <ele>1565</ele>
        <time>2018-02-19T01:44:15Z</time>
      </trkpt>
      <trkpt lat="44.9503" lon="6.77744">
        <ele>1554</ele>
        <time>2018-02-19T01:45:15Z</time>
      </trkpt>
      <trkpt lat="44.95014" lon="6.77736">
        <ele>1552</ele>
        <time>2018-02-19T01:46:15Z</time>
      </trkpt>
      <trkpt lat="44.94997" lon="6.77722">
        <ele>1551</ele>
        <time>2018-02-19T01:47:15Z</time>
      </trkpt>
      <trkpt lat="44.94982" lon="6.77703">
        <ele>1551</ele>
        <time>2018-02-19T01:48:15Z</time>
      </trkpt>
      <trkpt lat="44.94952" lon="6.77651">
        <ele>1552</ele>
        <time>2018-02-19T01:49:15Z</time>
      </trkpt>
      <trkpt lat="44.94933" lon="6.77609">
        <ele>1548</ele>
        <time>2018-02-19T01:50:15Z</time>
      </trkpt>
      <trkpt lat="44.94921" lon="6.77567">
        <ele>1546</ele>
        <time>2018-02-19T01:51:15Z</time>
      </trkpt>
      <trkpt lat="44.94911" lon="6.77525">
        <ele>1543</ele>
        <time>2018-02-19T01:52:15Z</time>
      </trkpt>
      <trkpt lat="44.94905" lon="6.77473">
        <ele>1540</ele>
        <time>2018-02-19T01:53:15Z</time>
      </trkpt>
      <trkpt lat="44.94884" lon="6.7736">
        <ele>1533</ele>
        <time>2018-02-19T01:54:15Z</time>
      </trkpt>
      <trkpt lat="44.94872" lon="6.77323">
        <ele>1531</ele>
        <time>2018-02-19T01:55:15Z</time>
      </trkpt>
      <trkpt lat="44.94859" lon="6.77291">
        <ele>1530</ele>
        <time>2018-02-19T01:56:15Z</time>
      </trkpt>
      <trkpt lat="44.94837" lon="6.77254">
        <ele>1527</ele>
        <time>2018-02-19T01:57:15Z</time>
      </trkpt>
      <trkpt lat="44.94813" lon="6.77223">
        <ele>1525</ele>
        <time>2018-02-19T01:58:15Z</time>
      </trkpt>
      <trkpt lat="44.94798" lon="6.77201">
        <ele>1524</ele>
        <time>2018-02-19T01:59:15Z</time>
      </trkpt>
      <trkpt lat="44.94783" lon="6.77185">
        <ele>1521</ele>
        <time>2018-02-19T02:00:15Z</time>
      </trkpt>
      <trkpt lat="44.94772" lon="6.77179">
        <ele>1518</ele>
        <time>2018-02-19T02:01:15Z</time>
      </trkpt>
      <trkpt lat="44.94757" lon="6.77178">
        <ele>1513</ele>
        <time>2018-02-19T02:02:15Z</time>
      </trkpt>
      <trkpt lat="44.94744" lon="6.77183">
        <ele>1512</ele>
        <time>2018-02-19T02:03:15Z</time>
      </trkpt>
      <trkpt lat="44.94734" lon="6.77193">
        <ele>1516</ele>
        <time>2018-02-19T02:04:15Z</time>
      </trkpt>
      <trkpt lat="44.94728" lon="6.77205">
        <ele>1518</ele>
        <time>2018-02-19T02:05:15Z</time>
      </trkpt>
      <trkpt lat="44.9472" lon="6.77225">
        <ele>1519</ele>
        <time>2018-02-19T02:06:15Z</time>
      </trkpt>
      <trkpt lat="44.94717" lon="6.77251">
        <ele>1519</ele>
        <time>2018-02-19T02:07:15Z</time>
      </trkpt>
      <trkpt lat="44.94712" lon="6.77308">
        <ele>1518</ele>
        <time>2018-02-19T02:08:15Z</time>
      </trkpt>
      <trkpt lat="44.94707" lon="6.77509">
        <ele>1514</ele>
        <time>2018-02-19T02:09:15Z</time>
      </trkpt>
      <trkpt lat="44.94701" lon="6.77666">
        <ele>1510</ele>
        <time>2018-02-19T02:10:15Z</time>
      </trkpt>
      <trkpt lat="44.94703" lon="6.77697">
        <ele>1508</ele>
        <time>2018-02-19T02:11:15Z</time>
      </trkpt>
      <trkpt lat="44.94708" lon="6.77725">
        <ele>1505</ele>
        <time>2018-02-19T02:12:15Z</time>
      </trkpt>
      <trkpt lat="44.94719" lon="6.77747">
        <ele>1500</ele>
        <time>2018-02-19T02:13:15Z</time>
      </trkpt>
      <trkpt lat="44.94772" lon="6.77798">
        <ele>1496</ele>
        <time>2018-02-19T02:14:15Z</time>
      </trkpt>
      <trkpt lat="44.94797" lon="6.77818">
        <ele>1492</ele>
        <time>2018-02-19T02:15:15Z</time>
      </trkpt>
      <trkpt lat="44.94815" lon="6.77835">
        <ele>1486</ele>
        <time>2018-02-19T02:16:15Z</time>
      </trkpt>
      <trkpt lat="44.94847" lon="6.7789">
        <ele>1483</ele>
        <time>2018-02-19T02:17:15Z</time>
      </trkpt>
      <trkpt lat="44.94881" lon="6.77966">
        <ele>1477</ele>
        <time>2018-02-19T02:18:15Z</time>
      </trkpt>
      <trkpt lat="44.94902" lon="6.78023">
        <ele>1467</ele>
        <time>2018-02-19T02:19:15Z</time>
      </trkpt>
      <trkpt lat="44.9492" lon="6.7809">
        <ele>1457</ele>
        <time>2018-02-19T02:20:15Z</time>
      </trkpt>
      <trkpt lat="44.94934" lon="6.78131">
        <ele>1453</ele>
        <time>2018-02-19T02:21:15Z</time>
      </trkpt>
      <trkpt lat="44.94947" lon="6.7816">
        <ele>1449</ele>
        <time>2018-02-19T02:22:15Z</time>
      </trkpt>
      <trkpt lat="44.9497" lon="6.78222">
        <ele>1441</ele>
        <time>2018-02-19T02:23:15Z</time>
      </trkpt>
      <trkpt lat="44.94979" lon="6.78256">
        <ele>1437</ele>
        <time>2018-02-19T02:24:15Z</time>
      </trkpt>
      <trkpt lat="44.94983" lon="6.78296">
        <ele>1436</ele>
        <time>2018-02-19T02:25:15Z</time>
      </trkpt>
      <trkpt lat="44.94981" lon="6.78339">
        <ele>1435</ele>
        <time>2018-02-19T02:26:15Z</time>
      </trkpt>
      <trkpt lat="44.94974" lon="6.78373">
        <ele>1434</ele>
        <time>2018-02-19T02:27:15Z</time>
      </trkpt>
      <trkpt lat="44.9496" lon="6.78399">
        <ele>1434</ele>
        <time>2018-02-19T02:28:15Z</time>
      </trkpt>
      <trkpt lat="44.94939" lon="6.78416">
        <ele>1436</ele>
        <time>2018-02-19T02:29:15Z</time>
      </trkpt>
      <trkpt lat="44.94913" lon="6.78431">
        <ele>1437</ele>
        <time>2018-02-19T02:30:15Z</time>
      </trkpt>
      <trkpt lat="44.94881" lon="6.78454">
        <ele>1435</ele>
        <time>2018-02-19T02:31:15Z</time>
      </trkpt>
      <trkpt lat="44.94856" lon="6.78479">
        <ele>1433</ele>
        <time>2018-02-19T02:32:15Z</time>
      </trkpt>
      <trkpt lat="44.94842" lon="6.78497">
        <ele>1431</ele>
        <time>2018-02-19T02:33:15Z</time>
      </trkpt>
      <trkpt lat="44.94835" lon="6.78512">
        <ele>1430</ele>
        <time>2018-02-19T02:34:15Z</time>
      </trkpt>
      <trkpt lat="44.94832" lon="6.7853">
        <ele>1430</ele>
        <time>2018-02-19T02:35:15Z</time>
      </trkpt>
      <trkpt lat="44.94833" lon="6.78548">
        <ele>1428</ele>
        <time>2018-02-19T02:36:15Z</time>
      </trkpt>
      <trkpt lat="44.94839" lon="6.78561">
        <ele>1426</ele>
        <time>2018-02-19T02:37:15Z</time>
      </trkpt>
      <trkpt lat="44.9485" lon="6.78575">
        <ele>1423</ele>
        <time>2018-02-19T02:38:15Z</time>
      </trkpt>
      <trkpt lat="44.94902" lon="6.78609">
        <ele>1415</ele>
        <time>2018-02-19T02:39:15Z</time>
      </trkpt>
      <trkpt lat="44.9493" lon="6.78631">
        <ele>1409</ele>
        <time>2018-02-19T02:40:15Z</time>
      </trkpt>
      <trkpt lat="44.94945" lon="6.78647">
        <ele>1405</ele>
        <time>2018-02-19T02:41:15Z</time>
      </trkpt>
      <trkpt lat="44.94955" lon="6.78662">
        <ele>1402</ele>
        <time>2018-02-19T02:42:15Z</time>
      </trkpt>
      <trkpt lat="44.94962" lon="6.78679">
        <ele>1400</ele>
        <time>2018-02-19T02:43:15Z</time>
      </trkpt>
      <trkpt lat="44.94969" lon="6.78713">
        <ele>1399</ele>
        <time>2018-02-19T02:44:15Z</time>
      </trkpt>
      <trkpt lat="44.9497" lon="6.78732">
        <ele>1400</ele>
        <time>2018-02-19T02:45:15Z</time>
      </trkpt>
      <trkpt lat="44.9497" lon="6.78752">
        <ele>1400</ele>
        <time>2018-02-19T02:46:15Z</time>
      </trkpt>
      <trkpt lat="44.94966" lon="6.78772">
        <ele>1400</ele>
        <time>2018-02-19T02:47:15Z</time>
      </trkpt>
      <trkpt lat="44.94951" lon="6.78829">
        <ele>1399</ele>
        <time>2018-02-19T02:48:15Z</time>
      </trkpt>
      <trkpt lat="44.9495" lon="6.78844">
        <ele>1399</ele>
        <time>2018-02-19T02:49:15Z</time>
      </trkpt>
      <trkpt lat="44.94951" lon="6.78857">
        <ele>1399</ele>
        <time>2018-02-19T02:50:15Z</time>
      </trkpt>
      <trkpt lat="44.94956" lon="6.78867">
        <ele>1398</ele>
        <time>2018-02-19T02:51:15Z</time>
      </trkpt>
      <trkpt lat="44.94962" lon="6.78875">
        <ele>1396</ele>
        <time>2018-02-19T02:52:15Z</time>
      </trkpt>
      <trkpt lat="44.94972" lon="6.78881">
        <ele>1393</ele>
        <time>2018-02-19T02:53:15Z</time>
      </trkpt>
      <trkpt lat="44.94984" lon="6.78882">
        <ele>1390</ele>
        <time>2018-02-19T02:54:15Z</time>
      </trkpt>
      <trkpt lat="44.94993" lon="6.78891">
        <ele>1388</ele>
        <time>2018-02-19T02:55:15Z</time>
      </trkpt>
      <trkpt lat="44.95042" lon="6.78906">
        <ele>1379</ele>
        <time>2018-02-19T02:56:15Z</time>
      </trkpt>
      <trkpt lat="44.95057" lon="6.78917">
        <ele>1377</ele>
        <time>2018-02-19T02:57:15Z</time>
      </trkpt>
      <trkpt lat="44.95078" lon="6.78942">
        <ele>1376</ele>
        <time>2018-02-19T02:58:15Z</time>
      </trkpt>
      <trkpt lat="44.95121" lon="6.79014">
        <ele>1371</ele>
        <time>2018-02-19T02:59:15Z</time>
      </trkpt>
      <trkpt lat="44.95139" lon="6.79068">
        <ele>1368</ele>
        <time>2018-02-19T03:00:15Z</time>
      </trkpt>
      <trkpt lat="44.95146" lon="6.79071">
        <ele>1366</ele>
        <time>2018-02-19T03:01:15Z</time>
      </trkpt>
      <trkpt lat="44.9515" lon="6.7907">
        <ele>1365</ele>
        <time>2018-02-19T03:02:15Z</time>
      </trkpt>
      <trkpt lat="44.95152" lon="6.79062">
        <ele>1364</ele>
        <time>2018-02-19T03:03:15Z</time>
      </trkpt>
      <trkpt lat="44.95151" lon="6.7905">
        <ele>1364</ele>
        <time>2018-02-19T03:04:15Z</time>
      </trkpt>
      <trkpt lat="44.95127" lon="6.78986">
        <ele>1368</ele>
        <time>2018-02-19T03:05:15Z</time>
      </trkpt>
      <trkpt lat="44.95128" lon="6.78979">
        <ele>1367</ele>
        <time>2018-02-19T03:06:15Z</time>
      </trkpt>
      <trkpt lat="44.95134" lon="6.78976">
        <ele>1365</ele>
        <time>2018-02-19T03:07:15Z</time>
      </trkpt>
      <trkpt lat="44.95139" lon="6.7898">
        <ele>1364</ele>
        <time>2018-02-19T03:08:15Z</time>
      </trkpt>
      <trkpt lat="44.95157" lon="6.79009">
        <ele>1360</ele>
        <time>2018-02-19T03:09:15Z</time>
      </trkpt>
      <trkpt lat="44.95171" lon="6.79029">
        <ele>1358</ele>
        <time>2018-02-19T03:10:15Z</time>
      </trkpt>
      <trkpt lat="44.9518" lon="6.79036">
        <ele>1358</ele>
        <time>2018-02-19T03:11:15Z</time>
      </trkpt>
      <trkpt lat="44.95209" lon="6.79021">
        <ele>1356</ele>
        <time>2018-02-19T03:12:15Z</time>
      </trkpt>
      <trkpt lat="44.95243" lon="6.79104">
        <ele>1353</ele>
        <time>2018-02-19T03:13:15Z</time>
      </trkpt>
      <trkpt lat="44.95272" lon="6.79158">
        <ele>1351</ele>
        <time>2018-02-19T03:14:15Z</time>
      </trkpt>
      <trkpt lat="44.95314" lon="6.79119">
        <ele>1350</ele>
        <time>2018-02-19T03:15:15Z</time>
      </trkpt>
      <trkpt lat="44.95328" lon="6.79143">
        <ele>1349</ele>
        <time>2018-02-19T03:16:15Z</time>
      </trkpt>
      <trkpt lat="44.95352" lon="6.79174">
        <ele>1346</ele>
        <time>2018-02-19T03:17:15Z</time>
      </trkpt>
      <trkpt lat="44.95383" lon="6.79155">
        <ele>1346</ele>
        <time>2018-02-19T03:18:15Z</time>
      </trkpt>
      <trkpt lat="44.954" lon="6.79139">
        <ele>1345</ele>
        <time>2018-02-19T03:19:15Z</time>
      </trkpt>
      <trkpt lat="44.95411" lon="6.79125">
        <ele>1345</ele>
        <time>2018-02-19T03:20:15Z</time>
      </trkpt>
      <trkpt lat="44.95424" lon="6.79116">
        <ele>1345</ele>
        <time>2018-02-19T03:21:15Z</time>
      </trkpt>
      <trkpt lat="44.95426" lon="6.79133">
        <ele>1345</ele>
        <time>2018-02-19T03:22:15Z</time>
      </trkpt>
      <trkpt lat="44.95431" lon="6.79151">
        <ele>1344</ele>
        <time>2018-02-19T03:23:15Z</time>
      </trkpt>
      <trkpt lat="44.95439" lon="6.79171">
        <ele>1344</ele>
        <time>2018-02-19T03:24:15Z</time>
      </trkpt>
      <trkpt lat="44.95458" lon="6.79198">
        <ele>1343</ele>
        <time>2018-02-19T03:25:15Z</time>
      </trkpt>
      <trkpt lat="44.95527" lon="6.79283">
        <ele>1344</ele>
        <time>2018-02-19T03:26:15Z</time>
      </trkpt>
      <trkpt lat="44.95525" lon="6.79286">
        <ele>1344</ele>
        <time>2018-02-19T03:27:15Z</time>
      </trkpt>
      <trkpt lat="44.95524" lon="6.79295">
        <ele>1345</ele>
        <time>2018-02-19T03:28:15Z</time>
      </trkpt>
      <trkpt lat="44.95526" lon="6.79303">
        <ele>1346</ele>
        <time>2018-02-19T03:29:15Z</time>
      </trkpt>
      <trkpt lat="44.95529" lon="6.79306">
        <ele>1346</ele>
        <time>2018-02-19T03:30:15Z</time>
      </trkpt>
      <trkpt lat="44.95535" lon="6.79307">
        <ele>1347</ele>
        <time>2018-02-19T03:31:15Z</time>
      </trkpt>
      <trkpt lat="44.95541" lon="6.79303">
        <ele>1346</ele>
        <time>2018-02-19T03:32:15Z</time>
      </trkpt>
      <trkpt lat="44.95544" lon="6.79294">
        <ele>1345</ele>
        <time>2018-02-19T03:33:15Z</time>
      </trkpt>
      <trkpt lat="44.95606" lon="6.79299">
        <ele>1345</ele>
        <time>2018-02-19T03:34:15Z</time>
      </trkpt>
      <trkpt lat="44.95629" lon="6.79303">
        <ele>1345</ele>
        <time>2018-02-19T03:35:15Z</time>
      </trkpt>
      <trkpt lat="44.95637" lon="6.79308">
        <ele>1345</ele>
        <time>2018-02-19T03:36:15Z</time>
      </trkpt>
      <trkpt lat="44.95649" lon="6.79321">
        <ele>1345</ele>
        <time>2018-02-19T03:37:15Z</time>
      </trkpt>
      <trkpt lat="44.95686" lon="6.79377">
        <ele>1346</ele>
        <time>2018-02-19T03:38:15Z</time>
      </trkpt>
      <trkpt lat="44.95696" lon="6.79391">
        <ele>1346</ele>
        <time>2018-02-19T03:39:15Z</time>
      </trkpt>
      <trkpt lat="44.95718" lon="6.79411">
        <ele>1345</ele>
        <time>2018-02-19T03:40:15Z</time>
      </trkpt>
      <trkpt lat="44.9583" lon="6.79492">
        <ele>1340</ele>
        <time>2018-02-19T03:41:15Z</time>
      </trkpt>
      <trkpt lat="44.95868" lon="6.79514">
        <ele>1343</ele>
        <time>2018-02-19T03:42:15Z</time>
      </trkpt>
      <trkpt lat="44.95907" lon="6.79525">
        <ele>1346</ele>
        <time>2018-02-19T03:43:15Z</time>
      </trkpt>
      <trkpt lat="44.95972" lon="6.79534">
        <ele>1348</ele>
        <time>2018-02-19T03:44:15Z</time>
      </trkpt>
      <trkpt lat="44.95989" lon="6.79533">
        <ele>1348</ele>
        <time>2018-02-19T03:45:15Z</time>
      </trkpt>
      <trkpt lat="44.96073" lon="6.79508">
        <ele>1337</ele>
        <time>2018-02-19T03:46:15Z</time>
      </trkpt>
      <trkpt lat="44.96086" lon="6.79507">
        <ele>1336</ele>
        <time>2018-02-19T03:47:15Z</time>
      </trkpt>
      <trkpt lat="44.96096" lon="6.7951">
        <ele>1336</ele>
        <time>2018-02-19T03:48:15Z</time>
      </trkpt>
      <trkpt lat="44.9611" lon="6.79518">
        <ele>1338</ele>
        <time>2018-02-19T03:49:15Z</time>
      </trkpt>
      <trkpt lat="44.96126" lon="6.79532">
        <ele>1340</ele>
        <time>2018-02-19T03:50:15Z</time>
      </trkpt>
      <trkpt lat="44.96157" lon="6.79567">
        <ele>1346</ele>
        <time>2018-02-19T03:51:15Z</time>
      </trkpt>
      <trkpt lat="44.96172" lon="6.79581">
        <ele>1346</ele>
        <time>2018-02-19T03:52:15Z</time>
      </trkpt>
      <trkpt lat="44.96203" lon="6.79602">
        <ele>1344</ele>
        <time>2018-02-19T03:53:15Z</time>
      </trkpt>
      <trkpt lat="44.96219" lon="6.79608">
        <ele>1342</ele>
        <time>2018-02-19T03:54:15Z</time>
      </trkpt>
      <trkpt lat="44.96254" lon="6.79612">
        <ele>1334</ele>
        <time>2018-02-19T03:55:15Z</time>
      </trkpt>
      <trkpt lat="44.96281" lon="6.79611">
        <ele>1332</ele>
        <time>2018-02-19T03:56:15Z</time>
      </trkpt>
      <trkpt lat="44.96371" lon="6.79597">
        <ele>1323</ele>
        <time>2018-02-19T03:57:15Z</time>
      </trkpt>
      <trkpt lat="44.96387" lon="6.79597">
        <ele>1322</ele>
        <time>2018-02-19T03:58:15Z</time>
      </trkpt>
      <trkpt lat="44.96413" lon="6.79604">
        <ele>1321</ele>
        <time>2018-02-19T03:59:15Z</time>
      </trkpt>
      <trkpt lat="44.96581" lon="6.79711">
        <ele>1312</ele>
        <time>2018-02-19T04:00:15Z</time>
      </trkpt>
      <trkpt lat="44.96697" lon="6.79782">
        <ele>1312</ele>
        <time>2018-02-19T04:01:15Z</time>
      </trkpt>
      <trkpt lat="44.96711" lon="6.79794">
        <ele>1312</ele>
        <time>2018-02-19T04:02:15Z</time>
      </trkpt>
      <trkpt lat="44.96734" lon="6.79819">
        <ele>1311</ele>
        <time>2018-02-19T04:03:15Z</time>
      </trkpt>
      <trkpt lat="44.96757" lon="6.79838">
        <ele>1310</ele>
        <time>2018-02-19T04:04:15Z</time>
      </trkpt>
      <trkpt lat="44.96771" lon="6.79847">
        <ele>1311</ele>
        <time>2018-02-19T04:05:15Z</time>
      </trkpt>
      <trkpt lat="44.96793" lon="6.79854">
        <ele>1311</ele>
        <time>2018-02-19T04:06:15Z</time>
      </trkpt>
      <trkpt lat="44.9681" lon="6.79856">
        <ele>1309</ele>
        <time>2018-02-19T04:07:15Z</time>
      </trkpt>
      <trkpt lat="44.96855" lon="6.79857">
        <ele>1307</ele>
        <time>2018-02-19T04:08:15Z</time>
      </trkpt>
      <trkpt lat="44.96989" lon="6.79856">
        <ele>1305</ele>
        <time>2018-02-19T04:09:15Z</time>
      </trkpt>
      <trkpt lat="44.97" lon="6.79853">
        <ele>1304</ele>
        <time>2018-02-19T04:10:15Z</time>
      </trkpt>
      <trkpt lat="44.97015" lon="6.79844">
        <ele>1302</ele>
        <time>2018-02-19T04:11:15Z</time>
      </trkpt>
      <trkpt lat="44.97057" lon="6.79812">
        <ele>1298</ele>
        <time>2018-02-19T04:12:15Z</time>
      </trkpt>
      <trkpt lat="44.97071" lon="6.79804">
        <ele>1297</ele>
        <time>2018-02-19T04:13:15Z</time>
      </trkpt>
      <trkpt lat="44.97086" lon="6.79799">
        <ele>1296</ele>
        <time>2018-02-19T04:14:15Z</time>
      </trkpt>
      <trkpt lat="44.97099" lon="6.79798">
        <ele>1295</ele>
        <time>2018-02-19T04:15:15Z</time>
      </trkpt>
      <trkpt lat="44.97112" lon="6.79801">
        <ele>1294</ele>
        <time>2018-02-19T04:16:15Z</time>
      </trkpt>
      <trkpt lat="44.97191" lon="6.79842">
        <ele>1293</ele>
        <time>2018-02-19T04:17:15Z</time>
      </trkpt>
      <trkpt lat="44.97221" lon="6.79857">
        <ele>1292</ele>
        <time>2018-02-19T04:18:15Z</time>
      </trkpt>
      <trkpt lat="44.97262" lon="6.79873">
        <ele>1289</ele>
        <time>2018-02-19T04:19:15Z</time>
      </trkpt>
      <trkpt lat="44.97426" lon="6.79932">
        <ele>1291</ele>
        <time>2018-02-19T04:20:15Z</time>
      </trkpt>
      <trkpt lat="44.97562" lon="6.79974">
        <ele>1283</ele>
        <time>2018-02-19T04:21:15Z</time>
      </trkpt>
      <trkpt lat="44.97593" lon="6.79991">
        <ele>1282</ele>
        <time>2018-02-19T04:22:15Z</time>
      </trkpt>
      <trkpt lat="44.97616" lon="6.8001">
        <ele>1281</ele>
        <time>2018-02-19T04:23:15Z</time>
      </trkpt>
      <trkpt lat="44.97636" lon="6.80038">
        <ele>1282</ele>
        <time>2018-02-19T04:24:15Z</time>
      </trkpt>
      <trkpt lat="44.97649" lon="6.80065">
        <ele>1283</ele>
        <time>2018-02-19T04:25:15Z</time>
      </trkpt>
      <trkpt lat="44.97662" lon="6.80107">
        <ele>1283</ele>
        <time>2018-02-19T04:26:15Z</time>
      </trkpt>
      <trkpt lat="44.97691" lon="6.8022">
        <ele>1281</ele>
        <time>2018-02-19T04:27:15Z</time>
      </trkpt>
      <trkpt lat="44.97701" lon="6.80247">
        <ele>1280</ele>
        <time>2018-02-19T04:28:15Z</time>
      </trkpt>
      <trkpt lat="44.97719" lon="6.80284">
        <ele>1281</ele>
        <time>2018-02-19T04:29:15Z</time>
      </trkpt>
      <trkpt lat="44.97736" lon="6.80312">
        <ele>1282</ele>
        <time>2018-02-19T04:30:15Z</time>
      </trkpt>
      <trkpt lat="44.97882" lon="6.80501">
        <ele>1272</ele>
        <time>2018-02-19T04:31:15Z</time>
      </trkpt>
      <trkpt lat="44.97908" lon="6.80527">
        <ele>1268</ele>
        <time>2018-02-19T04:32:15Z</time>
      </trkpt>
      <trkpt lat="44.97937" lon="6.80548">
        <ele>1268</ele>
        <time>2018-02-19T04:33:15Z</time>
      </trkpt>
      <trkpt lat="44.97965" lon="6.80561">
        <ele>1267</ele>
        <time>2018-02-19T04:34:15Z</time>
      </trkpt>
      <trkpt lat="44.98093" lon="6.8059">
        <ele>1261</ele>
        <time>2018-02-19T04:35:15Z</time>
      </trkpt>
      <trkpt lat="44.98117" lon="6.80601">
        <ele>1260</ele>
        <time>2018-02-19T04:36:15Z</time>
      </trkpt>
      <trkpt lat="44.98145" lon="6.8062">
        <ele>1260</ele>
        <time>2018-02-19T04:37:15Z</time>
      </trkpt>
      <trkpt lat="44.98165" lon="6.80636">
        <ele>1260</ele>
        <time>2018-02-19T04:38:15Z</time>
      </trkpt>
      <trkpt lat="44.98185" lon="6.8065">
        <ele>1260</ele>
        <time>2018-02-19T04:39:15Z</time>
      </trkpt>
      <trkpt lat="44.9823" lon="6.80667">
        <ele>1255</ele>
        <time>2018-02-19T04:40:15Z</time>
      </trkpt>
      <trkpt lat="44.98243" lon="6.8067">
        <ele>1252</ele>
        <time>2018-02-19T04:41:15Z</time>
      </trkpt>
      <trkpt lat="44.98317" lon="6.80673">
        <ele>1250</ele>
        <time>2018-02-19T04:42:15Z</time>
      </trkpt>
      <trkpt lat="44.9833" lon="6.80676">
        <ele>1251</ele>
        <time>2018-02-19T04:43:15Z</time>
      </trkpt>
      <trkpt lat="44.98352" lon="6.80686">
        <ele>1253</ele>
        <time>2018-02-19T04:44:15Z</time>
      </trkpt>
      <trkpt lat="44.98376" lon="6.80691">
        <ele>1255</ele>
        <time>2018-02-19T04:45:15Z</time>
      </trkpt>
      <trkpt lat="44.98441" lon="6.80685">
        <ele>1251</ele>
        <time>2018-02-19T04:46:15Z</time>
      </trkpt>
      <trkpt lat="44.98469" lon="6.8069">
        <ele>1249</ele>
        <time>2018-02-19T04:47:15Z</time>
      </trkpt>
      <trkpt lat="44.98562" lon="6.80717">
        <ele>1245</ele>
        <time>2018-02-19T04:48:15Z</time>
      </trkpt>
      <trkpt lat="44.98585" lon="6.80726">
        <ele>1244</ele>
        <time>2018-02-19T04:49:15Z</time>
      </trkpt>
      <trkpt lat="44.98646" lon="6.80757">
        <ele>1248</ele>
        <time>2018-02-19T04:50:15Z</time>
      </trkpt>
      <trkpt lat="44.98681" lon="6.80771">
        <ele>1250</ele>
        <time>2018-02-19T04:51:15Z</time>
      </trkpt>
      <trkpt lat="44.9901" lon="6.80854">
        <ele>1253</ele>
        <time>2018-02-19T04:52:15Z</time>
      </trkpt>
      <trkpt lat="44.99046" lon="6.80854">
        <ele>1252</ele>
        <time>2018-02-19T04:53:15Z</time>
      </trkpt>
      <trkpt lat="44.99057" lon="6.80852">
        <ele>1251</ele>
        <time>2018-02-19T04:54:15Z</time>
      </trkpt>
      <trkpt lat="44.99081" lon="6.80842">
        <ele>1245</ele>
        <time>2018-02-19T04:55:15Z</time>
      </trkpt>
      <trkpt lat="44.99104" lon="6.80829">
        <ele>1243</ele>
        <time>2018-02-19T04:56:15Z</time>
      </trkpt>
      <trkpt lat="44.99134" lon="6.80803">
        <ele>1242</ele>
        <time>2018-02-19T04:57:15Z</time>
      </trkpt>
      <trkpt lat="44.99147" lon="6.80794">
        <ele>1241</ele>
        <time>2018-02-19T04:58:15Z</time>
      </trkpt>
      <trkpt lat="44.99177" lon="6.80782">
        <ele>1241</ele>
        <time>2018-02-19T04:59:15Z</time>
      </trkpt>
      <trkpt lat="44.99344" lon="6.80764">
        <ele>1236</ele>
        <time>2018-02-19T05:00:15Z</time>
      </trkpt>
      <trkpt lat="44.99364" lon="6.80763">
        <ele>1234</ele>
        <time>2018-02-19T05:01:15Z</time>
      </trkpt>
      <trkpt lat="44.99393" lon="6.80767">
        <ele>1233</ele>
        <time>2018-02-19T05:02:15Z</time>
      </trkpt>
      <trkpt lat="44.9942" lon="6.80779">
        <ele>1237</ele>
        <time>2018-02-19T05:03:15Z</time>
      </trkpt>
      <trkpt lat="44.9949" lon="6.8082">
        <ele>1243</ele>
        <time>2018-02-19T05:04:15Z</time>
      </trkpt>
      <trkpt lat="44.99592" lon="6.80888">
        <ele>1247</ele>
        <time>2018-02-19T05:05:15Z</time>
      </trkpt>
      <trkpt lat="44.99617" lon="6.80911">
        <ele>1249</ele>
        <time>2018-02-19T05:06:15Z</time>
      </trkpt>
      <trkpt lat="44.99686" lon="6.8099">
        <ele>1249</ele>
        <time>2018-02-19T05:07:15Z</time>
      </trkpt>
      <trkpt lat="44.9981" lon="6.81141">
        <ele>1242</ele>
        <time>2018-02-19T05:08:15Z</time>
      </trkpt>
      <trkpt lat="44.99835" lon="6.81164">
        <ele>1238</ele>
        <time>2018-02-19T05:09:15Z</time>
      </trkpt>
      <trkpt lat="44.99861" lon="6.8118">
        <ele>1236</ele>
        <time>2018-02-19T05:10:15Z</time>
      </trkpt>
      <trkpt lat="44.99996" lon="6.81223">
        <ele>1223</ele>
        <time>2018-02-19T05:11:15Z</time>
      </trkpt>
      <trkpt lat="45.00023" lon="6.81238">
        <ele>1221</ele>
        <time>2018-02-19T05:12:15Z</time>
      </trkpt>
      <trkpt lat="45.00128" lon="6.81304">
        <ele>1216</ele>
        <time>2018-02-19T05:13:15Z</time>
      </trkpt>
      <trkpt lat="45.00144" lon="6.81319">
        <ele>1214</ele>
        <time>2018-02-19T05:14:15Z</time>
      </trkpt>
      <trkpt lat="45.00159" lon="6.81337">
        <ele>1213</ele>
        <time>2018-02-19T05:15:15Z</time>
      </trkpt>
      <trkpt lat="45.00172" lon="6.81362">
        <ele>1216</ele>
        <time>2018-02-19T05:16:15Z</time>
      </trkpt>
      <trkpt lat="45.00245" lon="6.81568">
        <ele>1211</ele>
        <time>2018-02-19T05:17:15Z</time>
      </trkpt>
      <trkpt lat="45.00259" lon="6.81603">
        <ele>1213</ele>
        <time>2018-02-19T05:18:15Z</time>
      </trkpt>
      <trkpt lat="45.00266" lon="6.81618">
        <ele>1214</ele>
        <time>2018-02-19T05:19:15Z</time>
      </trkpt>
      <trkpt lat="45.00296" lon="6.81665">
        <ele>1211</ele>
        <time>2018-02-19T05:20:15Z</time>
      </trkpt>
      <trkpt lat="45.00338" lon="6.8172">
        <ele>1202</ele>
        <time>2018-02-19T05:21:15Z</time>
      </trkpt>
      <trkpt lat="45.00358" lon="6.81755">
        <ele>1200</ele>
        <time>2018-02-19T05:22:15Z</time>
      </trkpt>
      <trkpt lat="45.00427" lon="6.81891">
        <ele>1189</ele>
        <time>2018-02-19T05:23:15Z</time>
      </trkpt>
      <trkpt lat="45.00444" lon="6.81929">
        <ele>1189</ele>
        <time>2018-02-19T05:24:15Z</time>
      </trkpt>
      <trkpt lat="45.00449" lon="6.81946">
        <ele>1188</ele>
        <time>2018-02-19T05:25:15Z</time>
      </trkpt>
      <trkpt lat="45.0047" lon="6.82065">
        <ele>1185</ele>
        <time>2018-02-19T05:26:15Z</time>
      </trkpt>
      <trkpt lat="45.00476" lon="6.82085">
        <ele>1184</ele>
        <time>2018-02-19T05:27:15Z</time>
      </trkpt>
      <trkpt lat="45.0049" lon="6.82122">
        <ele>1186</ele>
        <time>2018-02-19T05:28:15Z</time>
      </trkpt>
      <trkpt lat="45.00498" lon="6.82136">
        <ele>1186</ele>
        <time>2018-02-19T05:29:15Z</time>
      </trkpt>
      <trkpt lat="45.0055" lon="6.82207">
        <ele>1183</ele>
        <time>2018-02-19T05:30:15Z</time>
      </trkpt>
      <trkpt lat="45.00704" lon="6.82399">
        <ele>1171</ele>
        <time>2018-02-19T05:31:15Z</time>
      </trkpt>
      <trkpt lat="45.00723" lon="6.82417">
        <ele>1168</ele>
        <time>2018-02-19T05:32:15Z</time>
      </trkpt>
      <trkpt lat="45.00736" lon="6.82424">
        <ele>1165</ele>
        <time>2018-02-19T05:33:15Z</time>
      </trkpt>
      <trkpt lat="45.00762" lon="6.82431">
        <ele>1160</ele>
        <time>2018-02-19T05:34:15Z</time>
      </trkpt>
      <trkpt lat="45.00812" lon="6.82433">
        <ele>1156</ele>
        <time>2018-02-19T05:35:15Z</time>
      </trkpt>
      <trkpt lat="45.00838" lon="6.8244">
        <ele>1154</ele>
        <time>2018-02-19T05:36:15Z</time>
      </trkpt>
      <trkpt lat="45.0086" lon="6.82452">
        <ele>1153</ele>
        <time>2018-02-19T05:37:15Z</time>
      </trkpt>
      <trkpt lat="45.0088" lon="6.82472">
        <ele>1152</ele>
        <time>2018-02-19T05:38:15Z</time>
      </trkpt>
      <trkpt lat="45.00961" lon="6.82561">
        <ele>1148</ele>
        <time>2018-02-19T05:39:15Z</time>
      </trkpt>
      <trkpt lat="45.00991" lon="6.82584">
        <ele>1146</ele>
        <time>2018-02-19T05:40:15Z</time>
      </trkpt>
      <trkpt lat="45.01011" lon="6.82594">
        <ele>1148</ele>
        <time>2018-02-19T05:41:15Z</time>
      </trkpt>
      <trkpt lat="45.01045" lon="6.82616">
        <ele>1148</ele>
        <time>2018-02-19T05:42:15Z</time>
      </trkpt>
      <trkpt lat="45.01111" lon="6.82681">
        <ele>1146</ele>
        <time>2018-02-19T05:43:15Z</time>
      </trkpt>
      <trkpt lat="45.01373" lon="6.82862">
        <ele>1131</ele>
        <time>2018-02-19T05:44:15Z</time>
      </trkpt>
      <trkpt lat="45.01409" lon="6.82892">
        <ele>1128</ele>
        <time>2018-02-19T05:45:15Z</time>
      </trkpt>
      <trkpt lat="45.0154" lon="6.83012">
        <ele>1124</ele>
        <time>2018-02-19T05:46:15Z</time>
      </trkpt>
      <trkpt lat="45.01603" lon="6.83058">
        <ele>1122</ele>
        <time>2018-02-19T05:47:15Z</time>
      </trkpt>
      <trkpt lat="45.01773" lon="6.83152">
        <ele>1115</ele>
        <time>2018-02-19T05:48:15Z</time>
      </trkpt>
      <trkpt lat="45.01795" lon="6.83161">
        <ele>1113</ele>
        <time>2018-02-19T05:49:15Z</time>
      </trkpt>
      <trkpt lat="45.0185" lon="6.83173">
        <ele>1111</ele>
        <time>2018-02-19T05:50:15Z</time>
      </trkpt>
      <trkpt lat="45.01873" lon="6.83174">
        <ele>1111</ele>
        <time>2018-02-19T05:51:15Z</time>
      </trkpt>
      <trkpt lat="45.01904" lon="6.83173">
        <ele>1110</ele>
        <time>2018-02-19T05:52:15Z</time>
      </trkpt>
      <trkpt lat="45.0193" lon="6.83169">
        <ele>1111</ele>
        <time>2018-02-19T05:53:15Z</time>
      </trkpt>
      <trkpt lat="45.01978" lon="6.83156">
        <ele>1115</ele>
        <time>2018-02-19T05:54:15Z</time>
      </trkpt>
      <trkpt lat="45.02053" lon="6.83128">
        <ele>1118</ele>
        <time>2018-02-19T05:55:15Z</time>
      </trkpt>
      <trkpt lat="45.02115" lon="6.83108">
        <ele>1115</ele>
        <time>2018-02-19T05:56:15Z</time>
      </trkpt>
      <trkpt lat="45.02163" lon="6.831">
        <ele>1113</ele>
        <time>2018-02-19T05:57:15Z</time>
      </trkpt>
      <trkpt lat="45.02289" lon="6.83103">
        <ele>1103</ele>
        <time>2018-02-19T05:58:15Z</time>
      </trkpt>
      <trkpt lat="45.02317" lon="6.83101">
        <ele>1102</ele>
        <time>2018-02-19T05:59:15Z</time>
      </trkpt>
      <trkpt lat="45.02344" lon="6.83097">
        <ele>1100</ele>
        <time>2018-02-19T06:00:15Z</time>
      </trkpt>
      <trkpt lat="45.02808" lon="6.82982">
        <ele>1092</ele>
        <time>2018-02-19T06:01:15Z</time>
      </trkpt>
      <trkpt lat="45.02871" lon="6.8297">
        <ele>1090</ele>
        <time>2018-02-19T06:02:15Z</time>
      </trkpt>
      <trkpt lat="45.02886" lon="6.8297">
        <ele>1089</ele>
        <time>2018-02-19T06:03:15Z</time>
      </trkpt>
      <trkpt lat="45.02898" lon="6.82973">
        <ele>1089</ele>
        <time>2018-02-19T06:04:15Z</time>
      </trkpt>
      <trkpt lat="45.02918" lon="6.82984">
        <ele>1088</ele>
        <time>2018-02-19T06:05:15Z</time>
      </trkpt>
      <trkpt lat="45.02987" lon="6.83048">
        <ele>1087</ele>
        <time>2018-02-19T06:06:15Z</time>
      </trkpt>
      <trkpt lat="45.03062" lon="6.83128">
        <ele>1085</ele>
        <time>2018-02-19T06:07:15Z</time>
      </trkpt>
      <trkpt lat="45.03061" lon="6.83109">
        <ele>1084</ele>
        <time>2018-02-19T06:08:15Z</time>
      </trkpt>
      <trkpt lat="45.03079" lon="6.83">
        <ele>1080</ele>
        <time>2018-02-19T06:09:15Z</time>
      </trkpt>
      <trkpt lat="45.03076" lon="6.82973">
        <ele>1081</ele>
        <time>2018-02-19T06:10:15Z</time>
      </trkpt>
      <trkpt lat="45.03097" lon="6.82998">
        <ele>1081</ele>
        <time>2018-02-19T06:11:15Z</time>
      </trkpt>
      <trkpt lat="45.03158" lon="6.83059">
        <ele>1085</ele>
        <time>2018-02-19T06:12:15Z</time>
      </trkpt>
      <trkpt lat="45.032" lon="6.8311">
        <ele>1088</ele>
        <time>2018-02-19T06:13:15Z</time>
      </trkpt>
      <trkpt lat="45.03259" lon="6.83197">
        <ele>1084</ele>
        <time>2018-02-19T06:14:15Z</time>
      </trkpt>
      <trkpt lat="45.03281" lon="6.83215">
        <ele>1083</ele>
        <time>2018-02-19T06:15:15Z</time>
      </trkpt>
      <trkpt lat="45.03313" lon="6.83236">
        <ele>1082</ele>
        <time>2018-02-19T06:16:15Z</time>
      </trkpt>
      <trkpt lat="45.03326" lon="6.83238">
        <ele>1082</ele>
        <time>2018-02-19T06:17:15Z</time>
      </trkpt>
      <trkpt lat="45.03338" lon="6.83249">
        <ele>1081</ele>
        <time>2018-02-19T06:18:15Z</time>
      </trkpt>
      <trkpt lat="45.0338" lon="6.83279">
        <ele>1078</ele>
        <time>2018-02-19T06:19:15Z</time>
      </trkpt>
      <trkpt lat="45.0339" lon="6.83294">
        <ele>1077</ele>
        <time>2018-02-19T06:20:15Z</time>
      </trkpt>
      <trkpt lat="45.03394" lon="6.83303">
        <ele>1076</ele>
        <time>2018-02-19T06:21:15Z</time>
      </trkpt>
      <trkpt lat="45.0338" lon="6.83314">
        <ele>1076</ele>
        <time>2018-02-19T06:22:15Z</time>
      </trkpt>
      <trkpt lat="45.03332" lon="6.83364">
        <ele>1078</ele>
        <time>2018-02-19T06:23:15Z</time>
      </trkpt>
      <trkpt lat="45.03488" lon="6.83586">
        <ele>1075</ele>
        <time>2018-02-19T06:24:15Z</time>
      </trkpt>
      <trkpt lat="45.03529" lon="6.83647">
        <ele>1074</ele>
        <time>2018-02-19T06:25:15Z</time>
      </trkpt>
      <trkpt lat="45.0355" lon="6.83676">
        <ele>1074</ele>
        <time>2018-02-19T06:26:15Z</time>
      </trkpt>
      <trkpt lat="45.03571" lon="6.83699">
        <ele>1075</ele>
        <time>2018-02-19T06:27:15Z</time>
      </trkpt>
      <trkpt lat="45.03813" lon="6.83938">
        <ele>1070</ele>
        <time>2018-02-19T06:28:15Z</time>
      </trkpt>
      <trkpt lat="45.03952" lon="6.84079">
        <ele>1063</ele>
        <time>2018-02-19T06:29:15Z</time>
      </trkpt>
      <trkpt lat="45.0404" lon="6.84174">
        <ele>1061</ele>
        <time>2018-02-19T06:30:15Z</time>
      </trkpt>
      <trkpt lat="45.04151" lon="6.84303">
        <ele>1057</ele>
        <time>2018-02-19T06:31:15Z</time>
      </trkpt>
      <trkpt lat="45.04147" lon="6.8431">
        <ele>1057</ele>
        <time>2018-02-19T06:32:15Z</time>
      </trkpt>
      <trkpt lat="45.04146" lon="6.84319">
        <ele>1057</ele>
        <time>2018-02-19T06:33:15Z</time>
      </trkpt>
      <trkpt lat="45.04147" lon="6.84327">
        <ele>1057</ele>
        <time>2018-02-19T06:34:15Z</time>
      </trkpt>
      <trkpt lat="45.0415" lon="6.84335">
        <ele>1057</ele>
        <time>2018-02-19T06:35:15Z</time>
      </trkpt>
      <trkpt lat="45.04155" lon="6.8434">
        <ele>1057</ele>
        <time>2018-02-19T06:36:15Z</time>
      </trkpt>
      <trkpt lat="45.04165" lon="6.84344">
        <ele>1057</ele>
        <time>2018-02-19T06:37:15Z</time>
      </trkpt>
      <trkpt lat="45.0417" lon="6.84342">
        <ele>1057</ele>
        <time>2018-02-19T06:38:15Z</time>
      </trkpt>
      <trkpt lat="45.04178" lon="6.84334">
        <ele>1057</ele>
        <time>2018-02-19T06:39:15Z</time>
      </trkpt>
      <trkpt lat="45.04313" lon="6.84497">
        <ele>1053</ele>
        <time>2018-02-19T06:40:15Z</time>
      </trkpt>
      <trkpt lat="45.0445" lon="6.84659">
        <ele>1052</ele>
        <time>2018-02-19T06:41:15Z</time>
      </trkpt>
      <trkpt lat="45.04834" lon="6.85122">
        <ele>1047</ele>
        <time>2018-02-19T06:42:15Z</time>
      </trkpt>
      <trkpt lat="45.04882" lon="6.85175">
        <ele>1046</ele>
        <time>2018-02-19T06:43:15Z</time>
      </trkpt>
      <trkpt lat="45.05093" lon="6.85376">
        <ele>1051</ele>
        <time>2018-02-19T06:44:15Z</time>
      </trkpt>
      <trkpt lat="45.05117" lon="6.85395">
        <ele>1054</ele>
        <time>2018-02-19T06:45:15Z</time>
      </trkpt>
      <trkpt lat="45.05244" lon="6.85481">
        <ele>1051</ele>
        <time>2018-02-19T06:46:15Z</time>
      </trkpt>
      <trkpt lat="45.05262" lon="6.85499">
        <ele>1047</ele>
        <time>2018-02-19T06:47:15Z</time>
      </trkpt>
      <trkpt lat="45.0528" lon="6.85526">
        <ele>1046</ele>
        <time>2018-02-19T06:48:15Z</time>
      </trkpt>
      <trkpt lat="45.05292" lon="6.85539">
        <ele>1046</ele>
        <time>2018-02-19T06:49:15Z</time>
      </trkpt>
      <trkpt lat="45.05307" lon="6.8555">
        <ele>1047</ele>
        <time>2018-02-19T06:50:15Z</time>
      </trkpt>
      <trkpt lat="45.05334" lon="6.8556">
        <ele>1049</ele>
        <time>2018-02-19T06:51:15Z</time>
      </trkpt>
      <trkpt lat="45.05359" lon="6.85598">
        <ele>1053</ele>
        <time>2018-02-19T06:52:15Z</time>
      </trkpt>
      <trkpt lat="45.05386" lon="6.85647">
        <ele>1054</ele>
        <time>2018-02-19T06:53:15Z</time>
      </trkpt>
      <trkpt lat="45.05573" lon="6.86038">
        <ele>1039</ele>
        <time>2018-02-19T06:54:15Z</time>
      </trkpt>
      <trkpt lat="45.05604" lon="6.8609">
        <ele>1035</ele>
        <time>2018-02-19T06:55:15Z</time>
      </trkpt>
      <trkpt lat="45.05761" lon="6.86322">
        <ele>1030</ele>
        <time>2018-02-19T06:56:15Z</time>
      </trkpt>
      <trkpt lat="45.05776" lon="6.86347">
        <ele>1030</ele>
        <time>2018-02-19T06:57:15Z</time>
      </trkpt>
      <trkpt lat="45.05807" lon="6.86416">
        <ele>1032</ele>
        <time>2018-02-19T06:58:15Z</time>
      </trkpt>
      <trkpt lat="45.05829" lon="6.86452">
        <ele>1032</ele>
        <time>2018-02-19T06:59:15Z</time>
      </trkpt>
      <trkpt lat="45.05879" lon="6.8653">
        <ele>1030</ele>
        <time>2018-02-19T07:00:15Z</time>
      </trkpt>
      <trkpt lat="45.05963" lon="6.86634">
        <ele>1028</ele>
        <time>2018-02-19T07:01:15Z</time>
      </trkpt>
      <trkpt lat="45.0601" lon="6.86686">
        <ele>1027</ele>
        <time>2018-02-19T07:02:15Z</time>
      </trkpt>
      <trkpt lat="45.06153" lon="6.86814">
        <ele>1024</ele>
        <time>2018-02-19T07:03:15Z</time>
      </trkpt>
      <trkpt lat="45.06245" lon="6.86905">
        <ele>1024</ele>
        <time>2018-02-19T07:04:15Z</time>
      </trkpt>
      <trkpt lat="45.06319" lon="6.86983">
        <ele>1025</ele>
        <time>2018-02-19T07:05:15Z</time>
      </trkpt>
      <trkpt lat="45.06331" lon="6.86999">
        <ele>1025</ele>
        <time>2018-02-19T07:06:15Z</time>
      </trkpt>
      <trkpt lat="45.06347" lon="6.87025">
        <ele>1025</ele>
        <time>2018-02-19T07:07:15Z</time>
      </trkpt>
      <trkpt lat="45.06362" lon="6.87056">
        <ele>1026</ele>
        <time>2018-02-19T07:08:15Z</time>
      </trkpt>
      <trkpt lat="45.06399" lon="6.87167">
        <ele>1025</ele>
        <time>2018-02-19T07:09:15Z</time>
      </trkpt>
      <trkpt lat="45.06421" lon="6.87221">
        <ele>1025</ele>
        <time>2018-02-19T07:10:15Z</time>
      </trkpt>
      <trkpt lat="45.06444" lon="6.87267">
        <ele>1028</ele>
        <time>2018-02-19T07:11:15Z</time>
      </trkpt>
      <trkpt lat="45.06519" lon="6.87396">
        <ele>1028</ele>
        <time>2018-02-19T07:12:15Z</time>
      </trkpt>
      <trkpt lat="45.06553" lon="6.87441">
        <ele>1028</ele>
        <time>2018-02-19T07:13:15Z</time>
      </trkpt>
      <trkpt lat="45.06719" lon="6.87649">
        <ele>1032</ele>
        <time>2018-02-19T07:14:15Z</time>
      </trkpt>
      <trkpt lat="45.06857" lon="6.8781">
        <ele>1035</ele>
        <time>2018-02-19T07:15:15Z</time>
      </trkpt>
      <trkpt lat="45.0688" lon="6.87845">
        <ele>1036</ele>
        <time>2018-02-19T07:16:15Z</time>
      </trkpt>
      <trkpt lat="45.06896" lon="6.87875">
        <ele>1037</ele>
        <time>2018-02-19T07:17:15Z</time>
      </trkpt>
      <trkpt lat="45.06906" lon="6.87902">
        <ele>1037</ele>
        <time>2018-02-19T07:18:15Z</time>
      </trkpt>
      <trkpt lat="45.06971" lon="6.88152">
        <ele>1037</ele>
        <time>2018-02-19T07:19:15Z</time>
      </trkpt>
      <trkpt lat="45.06985" lon="6.882">
        <ele>1036</ele>
        <time>2018-02-19T07:20:15Z</time>
      </trkpt>
      <trkpt lat="45.0705" lon="6.88342">
        <ele>1030</ele>
        <time>2018-02-19T07:21:15Z</time>
      </trkpt>
      <trkpt lat="45.07066" lon="6.88372">
        <ele>1029</ele>
        <time>2018-02-19T07:22:15Z</time>
      </trkpt>
      <trkpt lat="45.0708" lon="6.88391">
        <ele>1029</ele>
        <time>2018-02-19T07:23:15Z</time>
      </trkpt>
      <trkpt lat="45.07093" lon="6.88403">
        <ele>1028</ele>
        <time>2018-02-19T07:24:15Z</time>
      </trkpt>
      <trkpt lat="45.07125" lon="6.88426">
        <ele>1026</ele>
        <time>2018-02-19T07:25:15Z</time>
      </trkpt>
      <trkpt lat="45.07365" lon="6.88522">
        <ele>1030</ele>
        <time>2018-02-19T07:26:15Z</time>
      </trkpt>
      <trkpt lat="45.07382" lon="6.88533">
        <ele>1032</ele>
        <time>2018-02-19T07:27:15Z</time>
      </trkpt>
      <trkpt lat="45.07399" lon="6.88547">
        <ele>1032</ele>
        <time>2018-02-19T07:28:15Z</time>
      </trkpt>
      <trkpt lat="45.07416" lon="6.88566">
        <ele>1029</ele>
        <time>2018-02-19T07:29:15Z</time>
      </trkpt>
      <trkpt lat="45.0743" lon="6.88583">
        <ele>1030</ele>
        <time>2018-02-19T07:30:15Z</time>
      </trkpt>
      <trkpt lat="45.0747" lon="6.88645">
        <ele>1032</ele>
        <time>2018-02-19T07:31:15Z</time>
      </trkpt>
      <trkpt lat="45.07492" lon="6.88692">
        <ele>1026</ele>
        <time>2018-02-19T07:32:15Z</time>
      </trkpt>
      <trkpt lat="45.07501" lon="6.88707">
        <ele>1025</ele>
        <time>2018-02-19T07:33:15Z</time>
      </trkpt>
      <trkpt lat="45.07535" lon="6.88743">
        <ele>1029</ele>
        <time>2018-02-19T07:34:15Z</time>
      </trkpt>
      <trkpt lat="45.07552" lon="6.88765">
        <ele>1030</ele>
        <time>2018-02-19T07:35:15Z</time>
      </trkpt>
      <trkpt lat="45.07571" lon="6.888">
        <ele>1026</ele>
        <time>2018-02-19T07:36:15Z</time>
      </trkpt>
      <trkpt lat="45.07595" lon="6.88859">
        <ele>1022</ele>
        <time>2018-02-19T07:37:15Z</time>
      </trkpt>
      <trkpt lat="45.07602" lon="6.88871">
        <ele>1023</ele>
        <time>2018-02-19T07:38:15Z</time>
      </trkpt>
      <trkpt lat="45.07627" lon="6.88903">
        <ele>1027</ele>
        <time>2018-02-19T07:39:15Z</time>
      </trkpt>
      <trkpt lat="45.07683" lon="6.88993">
        <ele>1028</ele>
        <time>2018-02-19T07:40:15Z</time>
      </trkpt>
      <trkpt lat="45.07695" lon="6.8902">
        <ele>1027</ele>
        <time>2018-02-19T07:41:15Z</time>
      </trkpt>
      <trkpt lat="45.07707" lon="6.89057">
        <ele>1024</ele>
        <time>2018-02-19T07:42:15Z</time>
      </trkpt>
      <trkpt lat="45.07714" lon="6.89074">
        <ele>1023</ele>
        <time>2018-02-19T07:43:15Z</time>
      </trkpt>
      <trkpt lat="45.07736" lon="6.89113">
        <ele>1024</ele>
        <time>2018-02-19T07:44:15Z</time>
      </trkpt>
      <trkpt lat="45.07759" lon="6.89149">
        <ele>1025</ele>
        <time>2018-02-19T07:45:15Z</time>
      </trkpt>
      <trkpt lat="45.0779" lon="6.89205">
        <ele>1031</ele>
        <time>2018-02-19T07:46:15Z</time>
      </trkpt>
      <trkpt lat="45.07811" lon="6.89255">
        <ele>1033</ele>
        <time>2018-02-19T07:47:15Z</time>
      </trkpt>
      <trkpt lat="45.07859" lon="6.89347">
        <ele>1038</ele>
        <time>2018-02-19T07:48:15Z</time>
      </trkpt>
      <trkpt lat="45.07924" lon="6.89492">
        <ele>1038</ele>
        <time>2018-02-19T07:49:15Z</time>
      </trkpt>
      <trkpt lat="45.0793" lon="6.89513">
        <ele>1040</ele>
        <time>2018-02-19T07:50:15Z</time>
      </trkpt>
      <trkpt lat="45.07932" lon="6.89545">
        <ele>1041</ele>
        <time>2018-02-19T07:51:15Z</time>
      </trkpt>
      <trkpt lat="45.07931" lon="6.89561">
        <ele>1040</ele>
        <time>2018-02-19T07:52:15Z</time>
      </trkpt>
      <trkpt lat="45.0792" lon="6.89633">
        <ele>1029</ele>
        <time>2018-02-19T07:53:15Z</time>
      </trkpt>
      <trkpt lat="45.07919" lon="6.89657">
        <ele>1026</ele>
        <time>2018-02-19T07:54:15Z</time>
      </trkpt>
      <trkpt lat="45.07923" lon="6.89731">
        <ele>1028</ele>
        <time>2018-02-19T07:55:15Z</time>
      </trkpt>
      <trkpt lat="45.07925" lon="6.89751">
        <ele>1029</ele>
        <time>2018-02-19T07:56:15Z</time>
      </trkpt>
      <trkpt lat="45.07944" lon="6.89801">
        <ele>1038</ele>
        <time>2018-02-19T07:57:15Z</time>
      </trkpt>
      <trkpt lat="45.07948" lon="6.89818">
        <ele>1040</ele>
        <time>2018-02-19T07:58:15Z</time>
      </trkpt>
      <trkpt lat="45.07948" lon="6.89831">
        <ele>1039</ele>
        <time>2018-02-19T07:59:15Z</time>
      </trkpt>
      <trkpt lat="45.07947" lon="6.89846">
        <ele>1040</ele>
        <time>2018-02-19T08:00:15Z</time>
      </trkpt>
      <trkpt lat="45.07941" lon="6.89865">
        <ele>1038</ele>
        <time>2018-02-19T08:01:15Z</time>
      </trkpt>
      <trkpt lat="45.07928" lon="6.89902">
        <ele>1033</ele>
        <time>2018-02-19T08:02:15Z</time>
      </trkpt>
      <trkpt lat="45.0788" lon="6.90004">
        <ele>1030</ele>
        <time>2018-02-19T08:03:15Z</time>
      </trkpt>
      <trkpt lat="45.07868" lon="6.90036">
        <ele>1027</ele>
        <time>2018-02-19T08:04:15Z</time>
      </trkpt>
      <trkpt lat="45.07865" lon="6.90055">
        <ele>1026</ele>
        <time>2018-02-19T08:05:15Z</time>
      </trkpt>
      <trkpt lat="45.07864" lon="6.90085">
        <ele>1027</ele>
        <time>2018-02-19T08:06:15Z</time>
      </trkpt>
      <trkpt lat="45.07866" lon="6.90116">
        <ele>1027</ele>
        <time>2018-02-19T08:07:15Z</time>
      </trkpt>
      <trkpt lat="45.07871" lon="6.90183">
        <ele>1026</ele>
        <time>2018-02-19T08:08:15Z</time>
      </trkpt>
      <trkpt lat="45.07876" lon="6.90204">
        <ele>1026</ele>
        <time>2018-02-19T08:09:15Z</time>
      </trkpt>
      <trkpt lat="45.07883" lon="6.9022">
        <ele>1027</ele>
        <time>2018-02-19T08:10:15Z</time>
      </trkpt>
      <trkpt lat="45.07891" lon="6.90233">
        <ele>1028</ele>
        <time>2018-02-19T08:11:15Z</time>
      </trkpt>
      <trkpt lat="45.07938" lon="6.90282">
        <ele>1036</ele>
        <time>2018-02-19T08:12:15Z</time>
      </trkpt>
      <trkpt lat="45.07992" lon="6.90371">
        <ele>1036</ele>
        <time>2018-02-19T08:13:15Z</time>
      </trkpt>
      <trkpt lat="45.08" lon="6.90379">
        <ele>1037</ele>
        <time>2018-02-19T08:14:15Z</time>
      </trkpt>
      <trkpt lat="45.08005" lon="6.90382">
        <ele>1037</ele>
        <time>2018-02-19T08:15:15Z</time>
      </trkpt>
      <trkpt lat="45.08012" lon="6.90382">
        <ele>1039</ele>
        <time>2018-02-19T08:16:15Z</time>
      </trkpt>
      <trkpt lat="45.08017" lon="6.90378">
        <ele>1041</ele>
        <time>2018-02-19T08:17:15Z</time>
      </trkpt>
      <trkpt lat="45.08021" lon="6.90373">
        <ele>1043</ele>
        <time>2018-02-19T08:18:15Z</time>
      </trkpt>
      <trkpt lat="45.08022" lon="6.90356">
        <ele>1045</ele>
        <time>2018-02-19T08:19:15Z</time>
      </trkpt>
      <trkpt lat="45.08016" lon="6.90339">
        <ele>1046</ele>
        <time>2018-02-19T08:20:15Z</time>
      </trkpt>
      <trkpt lat="45.07934" lon="6.90194">
        <ele>1047</ele>
        <time>2018-02-19T08:21:15Z</time>
      </trkpt>
      <trkpt lat="45.07926" lon="6.90179">
        <ele>1046</ele>
        <time>2018-02-19T08:22:15Z</time>
      </trkpt>
      <trkpt lat="45.07921" lon="6.90165">
        <ele>1046</ele>
        <time>2018-02-19T08:23:15Z</time>
      </trkpt>
      <trkpt lat="45.07916" lon="6.90143">
        <ele>1046</ele>
        <time>2018-02-19T08:24:15Z</time>
      </trkpt>
      <trkpt lat="45.07917" lon="6.90123">
        <ele>1047</ele>
        <time>2018-02-19T08:25:15Z</time>
      </trkpt>
      <trkpt lat="45.07922" lon="6.90111">
        <ele>1049</ele>
        <time>2018-02-19T08:26:15Z</time>
      </trkpt>
      <trkpt lat="45.07925" lon="6.90108">
        <ele>1050</ele>
        <time>2018-02-19T08:27:15Z</time>
      </trkpt>
      <trkpt lat="45.07929" lon="6.90105">
        <ele>1052</ele>
        <time>2018-02-19T08:28:15Z</time>
      </trkpt>
      <trkpt lat="45.07939" lon="6.90105">
        <ele>1055</ele>
        <time>2018-02-19T08:29:15Z</time>
      </trkpt>
      <trkpt lat="45.07946" lon="6.90111">
        <ele>1057</ele>
        <time>2018-02-19T08:30:15Z</time>
      </trkpt>
      <trkpt lat="45.07949" lon="6.90117">
        <ele>1057</ele>
        <time>2018-02-19T08:31:15Z</time>
      </trkpt>
      <trkpt lat="45.07958" lon="6.9016">
        <ele>1059</ele>
        <time>2018-02-19T08:32:15Z</time>
      </trkpt>
      <trkpt lat="45.07962" lon="6.90173">
        <ele>1059</ele>
        <time>2018-02-19T08:33:15Z</time>
      </trkpt>
      <trkpt lat="45.07968" lon="6.90187">
        <ele>1058</ele>
        <time>2018-02-19T08:34:15Z</time>
      </trkpt>
      <trkpt lat="45.07977" lon="6.90201">
        <ele>1059</ele>
        <time>2018-02-19T08:35:15Z</time>
      </trkpt>
      <trkpt lat="45.07988" lon="6.90215">
        <ele>1059</ele>
        <time>2018-02-19T08:36:15Z</time>
      </trkpt>
      <trkpt lat="45.08008" lon="6.90234">
        <ele>1062</ele>
        <time>2018-02-19T08:37:15Z</time>
      </trkpt>
      <trkpt lat="45.0808" lon="6.90296">
        <ele>1072</ele>
        <time>2018-02-19T08:38:15Z</time>
      </trkpt>
      <trkpt lat="45.08091" lon="6.90307">
        <ele>1074</ele>
        <time>2018-02-19T08:39:15Z</time>
      </trkpt>
      <trkpt lat="45.0813" lon="6.90367">
        <ele>1074</ele>
        <time>2018-02-19T08:40:15Z</time>
      </trkpt>
      <trkpt lat="45.08135" lon="6.90374">
        <ele>1074</ele>
        <time>2018-02-19T08:41:15Z</time>
      </trkpt>
      <trkpt lat="45.08142" lon="6.90379">
        <ele>1074</ele>
        <time>2018-02-19T08:42:15Z</time>
      </trkpt>
      <trkpt lat="45.08157" lon="6.90385">
        <ele>1076</ele>
        <time>2018-02-19T08:43:15Z</time>
      </trkpt>
      <trkpt lat="45.08168" lon="6.90385">
        <ele>1079</ele>
        <time>2018-02-19T08:44:15Z</time>
      </trkpt>
      <trkpt lat="45.08197" lon="6.90378">
        <ele>1088</ele>
        <time>2018-02-19T08:45:15Z</time>
      </trkpt>
      <trkpt lat="45.08224" lon="6.90374">
        <ele>1096</ele>
        <time>2018-02-19T08:46:15Z</time>
      </trkpt>
      <trkpt lat="45.08234" lon="6.90376">
        <ele>1097</ele>
        <time>2018-02-19T08:47:15Z</time>
      </trkpt>
      <trkpt lat="45.08254" lon="6.90388">
        <ele>1096</ele>
        <time>2018-02-19T08:48:15Z</time>
      </trkpt>
      <trkpt lat="45.08283" lon="6.90414">
        <ele>1090</ele>
        <time>2018-02-19T08:49:15Z</time>
      </trkpt>
      <trkpt lat="45.083" lon="6.90438">
        <ele>1086</ele>
        <time>2018-02-19T08:50:15Z</time>
      </trkpt>
      <trkpt lat="45.08305" lon="6.90448">
        <ele>1084</ele>
        <time>2018-02-19T08:51:15Z</time>
      </trkpt>
      <trkpt lat="45.08317" lon="6.90475">
        <ele>1080</ele>
        <time>2018-02-19T08:52:15Z</time>
      </trkpt>
      <trkpt lat="45.08334" lon="6.90519">
        <ele>1074</ele>
        <time>2018-02-19T08:53:15Z</time>
      </trkpt>
      <trkpt lat="45.08354" lon="6.90583">
        <ele>1067</ele>
        <time>2018-02-19T08:54:15Z</time>
      </trkpt>
      <trkpt lat="45.08364" lon="6.90607">
        <ele>1065</ele>
        <time>2018-02-19T08:55:15Z</time>
      </trkpt>
      <trkpt lat="45.08376" lon="6.9063">
        <ele>1064</ele>
        <time>2018-02-19T08:56:15Z</time>
      </trkpt>
      <trkpt lat="45.08389" lon="6.90648">
        <ele>1064</ele>
        <time>2018-02-19T08:57:15Z</time>
      </trkpt>
      <trkpt lat="45.08447" lon="6.90712">
        <ele>1063</ele>
        <time>2018-02-19T08:58:15Z</time>
      </trkpt>
      <trkpt lat="45.08478" lon="6.90734">
        <ele>1061</ele>
        <time>2018-02-19T08:59:15Z</time>
      </trkpt>
      <trkpt lat="45.08506" lon="6.9076">
        <ele>1056</ele>
        <time>2018-02-19T09:00:15Z</time>
      </trkpt>
      <trkpt lat="45.08517" lon="6.90767">
        <ele>1054</ele>
        <time>2018-02-19T09:01:15Z</time>
      </trkpt>
      <trkpt lat="45.08528" lon="6.90769">
        <ele>1053</ele>
        <time>2018-02-19T09:02:15Z</time>
      </trkpt>
      <trkpt lat="45.08549" lon="6.90767">
        <ele>1056</ele>
        <time>2018-02-19T09:03:15Z</time>
      </trkpt>
      <trkpt lat="45.08554" lon="6.90768">
        <ele>1055</ele>
        <time>2018-02-19T09:04:15Z</time>
      </trkpt>
      <trkpt lat="45.08557" lon="6.90772">
        <ele>1054</ele>
        <time>2018-02-19T09:05:15Z</time>
      </trkpt>
      <trkpt lat="45.0856" lon="6.90779">
        <ele>1051</ele>
        <time>2018-02-19T09:06:15Z</time>
      </trkpt>
      <trkpt lat="45.0856" lon="6.90786">
        <ele>1047</ele>
        <time>2018-02-19T09:07:15Z</time>
      </trkpt>
      <trkpt lat="45.08558" lon="6.90792">
        <ele>1045</ele>
        <time>2018-02-19T09:08:15Z</time>
      </trkpt>
      <trkpt lat="45.08549" lon="6.90797">
        <ele>1042</ele>
        <time>2018-02-19T09:09:15Z</time>
      </trkpt>
      <trkpt lat="45.0849" lon="6.90786">
        <ele>1044</ele>
        <time>2018-02-19T09:10:15Z</time>
      </trkpt>
      <trkpt lat="45.08438" lon="6.90762">
        <ele>1044</ele>
        <time>2018-02-19T09:11:15Z</time>
      </trkpt>
      <trkpt lat="45.0843" lon="6.90759">
        <ele>1043</ele>
        <time>2018-02-19T09:12:15Z</time>
      </trkpt>
      <trkpt lat="45.08423" lon="6.90759">
        <ele>1042</ele>
        <time>2018-02-19T09:13:15Z</time>
      </trkpt>
      <trkpt lat="45.08417" lon="6.90762">
        <ele>1040</ele>
        <time>2018-02-19T09:14:15Z</time>
      </trkpt>
      <trkpt lat="45.08412" lon="6.90767">
        <ele>1037</ele>
        <time>2018-02-19T09:15:15Z</time>
      </trkpt>
      <trkpt lat="45.0841" lon="6.90773">
        <ele>1034</ele>
        <time>2018-02-19T09:16:15Z</time>
      </trkpt>
      <trkpt lat="45.0841" lon="6.90783">
        <ele>1031</ele>
        <time>2018-02-19T09:17:15Z</time>
      </trkpt>
      <trkpt lat="45.08411" lon="6.90789">
        <ele>1029</ele>
        <time>2018-02-19T09:18:15Z</time>
      </trkpt>
      <trkpt lat="45.08415" lon="6.90799">
        <ele>1027</ele>
        <time>2018-02-19T09:19:15Z</time>
      </trkpt>
      <trkpt lat="45.08428" lon="6.90814">
        <ele>1025</ele>
        <time>2018-02-19T09:20:15Z</time>
      </trkpt>
      <trkpt lat="45.0845" lon="6.90823">
        <ele>1025</ele>
        <time>2018-02-19T09:21:15Z</time>
      </trkpt>
      <trkpt lat="45.08544" lon="6.90838">
        <ele>1024</ele>
        <time>2018-02-19T09:22:15Z</time>
      </trkpt>
      <trkpt lat="45.08558" lon="6.90839">
        <ele>1023</ele>
        <time>2018-02-19T09:23:15Z</time>
      </trkpt>
      <trkpt lat="45.08567" lon="6.90837">
        <ele>1024</ele>
        <time>2018-02-19T09:24:15Z</time>
      </trkpt>
      <trkpt lat="45.08574" lon="6.90834">
        <ele>1025</ele>
        <time>2018-02-19T09:25:15Z</time>
      </trkpt>
      <trkpt lat="45.08606" lon="6.9081">
        <ele>1033</ele>
        <time>2018-02-19T09:26:15Z</time>
      </trkpt>
      <trkpt lat="45.08621" lon="6.90803">
        <ele>1035</ele>
        <time>2018-02-19T09:27:15Z</time>
      </trkpt>
      <trkpt lat="45.08633" lon="6.90799">
        <ele>1037</ele>
        <time>2018-02-19T09:28:15Z</time>
      </trkpt>
      <trkpt lat="45.08728" lon="6.90793">
        <ele>1027</ele>
        <time>2018-02-19T09:29:15Z</time>
      </trkpt>
      <trkpt lat="45.08744" lon="6.90789">
        <ele>1027</ele>
        <time>2018-02-19T09:30:15Z</time>
      </trkpt>
      <trkpt lat="45.08759" lon="6.90783">
        <ele>1030</ele>
        <time>2018-02-19T09:31:15Z</time>
      </trkpt>
      <trkpt lat="45.08772" lon="6.90774">
        <ele>1035</ele>
        <time>2018-02-19T09:32:15Z</time>
      </trkpt>
      <trkpt lat="45.08781" lon="6.90771">
        <ele>1036</ele>
        <time>2018-02-19T09:33:15Z</time>
      </trkpt>
      <trkpt lat="45.08792" lon="6.90771">
        <ele>1036</ele>
        <time>2018-02-19T09:34:15Z</time>
      </trkpt>
      <trkpt lat="45.08812" lon="6.90783">
        <ele>1031</ele>
        <time>2018-02-19T09:35:15Z</time>
      </trkpt>
      <trkpt lat="45.0882" lon="6.90791">
        <ele>1028</ele>
        <time>2018-02-19T09:36:15Z</time>
      </trkpt>
      <trkpt lat="45.08827" lon="6.90802">
        <ele>1024</ele>
        <time>2018-02-19T09:37:15Z</time>
      </trkpt>
      <trkpt lat="45.08832" lon="6.90815">
        <ele>1020</ele>
        <time>2018-02-19T09:38:15Z</time>
      </trkpt>
      <trkpt lat="45.08836" lon="6.90831">
        <ele>1016</ele>
        <time>2018-02-19T09:39:15Z</time>
      </trkpt>
      <trkpt lat="45.08851" lon="6.9094">
        <ele>1002</ele>
        <time>2018-02-19T09:40:15Z</time>
      </trkpt>
      <trkpt lat="45.08854" lon="6.90984">
        <ele>998</ele>
        <time>2018-02-19T09:41:15Z</time>
      </trkpt>
      <trkpt lat="45.08851" lon="6.91054">
        <ele>991</ele>
        <time>2018-02-19T09:42:15Z</time>
      </trkpt>
      <trkpt lat="45.08851" lon="6.9107">
        <ele>989</ele>
        <time>2018-02-19T09:43:15Z</time>
      </trkpt>
      <trkpt lat="45.08857" lon="6.91098">
        <ele>986</ele>
        <time>2018-02-19T09:44:15Z</time>
      </trkpt>
      <trkpt lat="45.08869" lon="6.91126">
        <ele>982</ele>
        <time>2018-02-19T09:45:15Z</time>
      </trkpt>
      <trkpt lat="45.08921" lon="6.91192">
        <ele>986</ele>
        <time>2018-02-19T09:46:15Z</time>
      </trkpt>
      <trkpt lat="45.08937" lon="6.9122">
        <ele>985</ele>
        <time>2018-02-19T09:47:15Z</time>
      </trkpt>
      <trkpt lat="45.08949" lon="6.91251">
        <ele>984</ele>
        <time>2018-02-19T09:48:15Z</time>
      </trkpt>
      <trkpt lat="45.08968" lon="6.91321">
        <ele>977</ele>
        <time>2018-02-19T09:49:15Z</time>
      </trkpt>
      <trkpt lat="45.08982" lon="6.9136">
        <ele>975</ele>
        <time>2018-02-19T09:50:15Z</time>
      </trkpt>
      <trkpt lat="45.09049" lon="6.91528">
        <ele>957</ele>
        <time>2018-02-19T09:51:15Z</time>
      </trkpt>
      <trkpt lat="45.09063" lon="6.91554">
        <ele>956</ele>
        <time>2018-02-19T09:52:15Z</time>
      </trkpt>
      <trkpt lat="45.09116" lon="6.91638">
        <ele>954</ele>
        <time>2018-02-19T09:53:15Z</time>
      </trkpt>
      <trkpt lat="45.09162" lon="6.91719">
        <ele>954</ele>
        <time>2018-02-19T09:54:15Z</time>
      </trkpt>
      <trkpt lat="45.09284" lon="6.9193">
        <ele>938</ele>
        <time>2018-02-19T09:55:15Z</time>
      </trkpt>
      <trkpt lat="45.09305" lon="6.91972">
        <ele>937</ele>
        <time>2018-02-19T09:56:15Z</time>
      </trkpt>
      <trkpt lat="45.09328" lon="6.92023">
        <ele>935</ele>
        <time>2018-02-19T09:57:15Z</time>
      </trkpt>
      <trkpt lat="45.09348" lon="6.92082">
        <ele>931</ele>
        <time>2018-02-19T09:58:15Z</time>
      </trkpt>
      <trkpt lat="45.09369" lon="6.92151">
        <ele>927</ele>
        <time>2018-02-19T09:59:15Z</time>
      </trkpt>
      <trkpt lat="45.09374" lon="6.92176">
        <ele>925</ele>
        <time>2018-02-19T10:00:15Z</time>
      </trkpt>
      <trkpt lat="45.09387" lon="6.92264">
        <ele>919</ele>
        <time>2018-02-19T10:01:15Z</time>
      </trkpt>
      <trkpt lat="45.09402" lon="6.92318">
        <ele>918</ele>
        <time>2018-02-19T10:02:15Z</time>
      </trkpt>
      <trkpt lat="45.09416" lon="6.92354">
        <ele>917</ele>
        <time>2018-02-19T10:03:15Z</time>
      </trkpt>
      <trkpt lat="45.09434" lon="6.92393">
        <ele>917</ele>
        <time>2018-02-19T10:04:15Z</time>
      </trkpt>
      <trkpt lat="45.09479" lon="6.92484">
        <ele>912</ele>
        <time>2018-02-19T10:05:15Z</time>
      </trkpt>
      <trkpt lat="45.09509" lon="6.92529">
        <ele>909</ele>
        <time>2018-02-19T10:06:15Z</time>
      </trkpt>
      <trkpt lat="45.09529" lon="6.92556">
        <ele>906</ele>
        <time>2018-02-19T10:07:15Z</time>
      </trkpt>
      <trkpt lat="45.09552" lon="6.9258">
        <ele>907</ele>
        <time>2018-02-19T10:08:15Z</time>
      </trkpt>
      <trkpt lat="45.0957" lon="6.92597">
        <ele>908</ele>
        <time>2018-02-19T10:09:15Z</time>
      </trkpt>
      <trkpt lat="45.09642" lon="6.92647">
        <ele>897</ele>
        <time>2018-02-19T10:10:15Z</time>
      </trkpt>
      <trkpt lat="45.09668" lon="6.92659">
        <ele>898</ele>
        <time>2018-02-19T10:11:15Z</time>
      </trkpt>
      <trkpt lat="45.09708" lon="6.92667">
        <ele>908</ele>
        <time>2018-02-19T10:12:15Z</time>
      </trkpt>
      <trkpt lat="45.09729" lon="6.92676">
        <ele>913</ele>
        <time>2018-02-19T10:13:15Z</time>
      </trkpt>
      <trkpt lat="45.09737" lon="6.92682">
        <ele>913</ele>
        <time>2018-02-19T10:14:15Z</time>
      </trkpt>
      <trkpt lat="45.09745" lon="6.9269">
        <ele>913</ele>
        <time>2018-02-19T10:15:15Z</time>
      </trkpt>
      <trkpt lat="45.09754" lon="6.92706">
        <ele>912</ele>
        <time>2018-02-19T10:16:15Z</time>
      </trkpt>
      <trkpt lat="45.09763" lon="6.92726">
        <ele>912</ele>
        <time>2018-02-19T10:17:15Z</time>
      </trkpt>
      <trkpt lat="45.09868" lon="6.93007">
        <ele>898</ele>
        <time>2018-02-19T10:18:15Z</time>
      </trkpt>
      <trkpt lat="45.09892" lon="6.93056">
        <ele>894</ele>
        <time>2018-02-19T10:19:15Z</time>
      </trkpt>
      <trkpt lat="45.09909" lon="6.93085">
        <ele>889</ele>
        <time>2018-02-19T10:20:15Z</time>
      </trkpt>
      <trkpt lat="45.09927" lon="6.93114">
        <ele>888</ele>
        <time>2018-02-19T10:21:15Z</time>
      </trkpt>
      <trkpt lat="45.09979" lon="6.93182">
        <ele>889</ele>
        <time>2018-02-19T10:22:15Z</time>
      </trkpt>
      <trkpt lat="45.09992" lon="6.93195">
        <ele>889</ele>
        <time>2018-02-19T10:23:15Z</time>
      </trkpt>
      <trkpt lat="45.10031" lon="6.93228">
        <ele>893</ele>
        <time>2018-02-19T10:24:15Z</time>
      </trkpt>
      <trkpt lat="45.10042" lon="6.93241">
        <ele>892</ele>
        <time>2018-02-19T10:25:15Z</time>
      </trkpt>
      <trkpt lat="45.10057" lon="6.9327">
        <ele>889</ele>
        <time>2018-02-19T10:26:15Z</time>
      </trkpt>
      <trkpt lat="45.10066" lon="6.933">
        <ele>883</ele>
        <time>2018-02-19T10:27:15Z</time>
      </trkpt>
      <trkpt lat="45.1008" lon="6.93379">
        <ele>870</ele>
        <time>2018-02-19T10:28:15Z</time>
      </trkpt>
      <trkpt lat="45.1009" lon="6.93417">
        <ele>866</ele>
        <time>2018-02-19T10:29:15Z</time>
      </trkpt>
      <trkpt lat="45.10097" lon="6.93432">
        <ele>867</ele>
        <time>2018-02-19T10:30:15Z</time>
      </trkpt>
      <trkpt lat="45.10127" lon="6.93484">
        <ele>867</ele>
        <time>2018-02-19T10:31:15Z</time>
      </trkpt>
      <trkpt lat="45.10154" lon="6.93537">
        <ele>863</ele>
        <time>2018-02-19T10:32:15Z</time>
      </trkpt>
      <trkpt lat="45.10174" lon="6.93593">
        <ele>860</ele>
        <time>2018-02-19T10:33:15Z</time>
      </trkpt>
      <trkpt lat="45.1018" lon="6.93617">
        <ele>860</ele>
        <time>2018-02-19T10:34:15Z</time>
      </trkpt>
      <trkpt lat="45.10187" lon="6.93667">
        <ele>859</ele>
        <time>2018-02-19T10:35:15Z</time>
      </trkpt>
      <trkpt lat="45.10189" lon="6.93713">
        <ele>859</ele>
        <time>2018-02-19T10:36:15Z</time>
      </trkpt>
      <trkpt lat="45.10187" lon="6.9375">
        <ele>858</ele>
        <time>2018-02-19T10:37:15Z</time>
      </trkpt>
      <trkpt lat="45.10181" lon="6.93815">
        <ele>855</ele>
        <time>2018-02-19T10:38:15Z</time>
      </trkpt>
      <trkpt lat="45.10181" lon="6.93831">
        <ele>855</ele>
        <time>2018-02-19T10:39:15Z</time>
      </trkpt>
      <trkpt lat="45.10184" lon="6.93848">
        <ele>855</ele>
        <time>2018-02-19T10:40:15Z</time>
      </trkpt>
      <trkpt lat="45.10191" lon="6.93865">
        <ele>857</ele>
        <time>2018-02-19T10:41:15Z</time>
      </trkpt>
      <trkpt lat="45.10214" lon="6.93911">
        <ele>866</ele>
        <time>2018-02-19T10:42:15Z</time>
      </trkpt>
      <trkpt lat="45.10223" lon="6.93943">
        <ele>865</ele>
        <time>2018-02-19T10:43:15Z</time>
      </trkpt>
      <trkpt lat="45.10242" lon="6.94046">
        <ele>853</ele>
        <time>2018-02-19T10:44:15Z</time>
      </trkpt>
      <trkpt lat="45.10246" lon="6.9409">
        <ele>846</ele>
        <time>2018-02-19T10:45:15Z</time>
      </trkpt>
      <trkpt lat="45.10256" lon="6.94129">
        <ele>843</ele>
        <time>2018-02-19T10:46:15Z</time>
      </trkpt>
      <trkpt lat="45.10264" lon="6.94222">
        <ele>831</ele>
        <time>2018-02-19T10:47:15Z</time>
      </trkpt>
      <trkpt lat="45.10267" lon="6.94236">
        <ele>831</ele>
        <time>2018-02-19T10:48:15Z</time>
      </trkpt>
      <trkpt lat="45.10272" lon="6.94249">
        <ele>831</ele>
        <time>2018-02-19T10:49:15Z</time>
      </trkpt>
      <trkpt lat="45.10281" lon="6.94264">
        <ele>832</ele>
        <time>2018-02-19T10:50:15Z</time>
      </trkpt>
      <trkpt lat="45.10304" lon="6.94299">
        <ele>834</ele>
        <time>2018-02-19T10:51:15Z</time>
      </trkpt>
      <trkpt lat="45.10346" lon="6.94403">
        <ele>822</ele>
        <time>2018-02-19T10:52:15Z</time>
      </trkpt>
      <trkpt lat="45.10352" lon="6.94415">
        <ele>822</ele>
        <time>2018-02-19T10:53:15Z</time>
      </trkpt>
      <trkpt lat="45.10369" lon="6.94437">
        <ele>825</ele>
        <time>2018-02-19T10:54:15Z</time>
      </trkpt>
      <trkpt lat="45.10386" lon="6.9447">
        <ele>822</ele>
        <time>2018-02-19T10:55:15Z</time>
      </trkpt>
      <trkpt lat="45.10403" lon="6.94495">
        <ele>820</ele>
        <time>2018-02-19T10:56:15Z</time>
      </trkpt>
      <trkpt lat="45.10409" lon="6.94506">
        <ele>818</ele>
        <time>2018-02-19T10:57:15Z</time>
      </trkpt>
      <trkpt lat="45.10424" lon="6.94542">
        <ele>810</ele>
        <time>2018-02-19T10:58:15Z</time>
      </trkpt>
      <trkpt lat="45.1043" lon="6.94553">
        <ele>809</ele>
        <time>2018-02-19T10:59:15Z</time>
      </trkpt>
      <trkpt lat="45.10466" lon="6.94593">
        <ele>811</ele>
        <time>2018-02-19T11:00:15Z</time>
      </trkpt>
      <trkpt lat="45.10491" lon="6.94608">
        <ele>817</ele>
        <time>2018-02-19T11:01:15Z</time>
      </trkpt>
      <trkpt lat="45.10515" lon="6.9463">
        <ele>820</ele>
        <time>2018-02-19T11:02:15Z</time>
      </trkpt>
      <trkpt lat="45.10534" lon="6.9466">
        <ele>816</ele>
        <time>2018-02-19T11:03:15Z</time>
      </trkpt>
      <trkpt lat="45.10588" lon="6.94773">
        <ele>809</ele>
        <time>2018-02-19T11:04:15Z</time>
      </trkpt>
      <trkpt lat="45.10591" lon="6.94786">
        <ele>809</ele>
        <time>2018-02-19T11:05:15Z</time>
      </trkpt>
      <trkpt lat="45.10592" lon="6.94799">
        <ele>807</ele>
        <time>2018-02-19T11:06:15Z</time>
      </trkpt>
      <trkpt lat="45.1059" lon="6.94834">
        <ele>798</ele>
        <time>2018-02-19T11:07:15Z</time>
      </trkpt>
      <trkpt lat="45.10591" lon="6.94844">
        <ele>796</ele>
        <time>2018-02-19T11:08:15Z</time>
      </trkpt>
      <trkpt lat="45.10612" lon="6.94925">
        <ele>792</ele>
        <time>2018-02-19T11:09:15Z</time>
      </trkpt>
      <trkpt lat="45.10616" lon="6.94933">
        <ele>793</ele>
        <time>2018-02-19T11:10:15Z</time>
      </trkpt>
      <trkpt lat="45.1063" lon="6.94948">
        <ele>799</ele>
        <time>2018-02-19T11:11:15Z</time>
      </trkpt>
      <trkpt lat="45.10641" lon="6.94969">
        <ele>801</ele>
        <time>2018-02-19T11:12:15Z</time>
      </trkpt>
      <trkpt lat="45.10651" lon="6.95003">
        <ele>798</ele>
        <time>2018-02-19T11:13:15Z</time>
      </trkpt>
      <trkpt lat="45.10654" lon="6.95045">
        <ele>790</ele>
        <time>2018-02-19T11:14:15Z</time>
      </trkpt>
      <trkpt lat="45.1067" lon="6.95104">
        <ele>786</ele>
        <time>2018-02-19T11:15:15Z</time>
      </trkpt>
      <trkpt lat="45.10691" lon="6.95154">
        <ele>789</ele>
        <time>2018-02-19T11:16:15Z</time>
      </trkpt>
      <trkpt lat="45.10716" lon="6.95244">
        <ele>784</ele>
        <time>2018-02-19T11:17:15Z</time>
      </trkpt>
      <trkpt lat="45.10744" lon="6.95366">
        <ele>766</ele>
        <time>2018-02-19T11:18:15Z</time>
      </trkpt>
      <trkpt lat="45.10785" lon="6.95514">
        <ele>744</ele>
        <time>2018-02-19T11:19:15Z</time>
      </trkpt>
      <trkpt lat="45.10796" lon="6.9556">
        <ele>744</ele>
        <time>2018-02-19T11:20:15Z</time>
      </trkpt>
      <trkpt lat="45.10849" lon="6.95727">
        <ele>765</ele>
        <time>2018-02-19T11:21:15Z</time>
      </trkpt>
      <trkpt lat="45.10855" lon="6.95755">
        <ele>766</ele>
        <time>2018-02-19T11:22:15Z</time>
      </trkpt>
      <trkpt lat="45.10861" lon="6.95812">
        <ele>770</ele>
        <time>2018-02-19T11:23:15Z</time>
      </trkpt>
      <trkpt lat="45.10863" lon="6.95837">
        <ele>773</ele>
        <time>2018-02-19T11:24:15Z</time>
      </trkpt>
      <trkpt lat="45.10864" lon="6.95941">
        <ele>779</ele>
        <time>2018-02-19T11:25:15Z</time>
      </trkpt>
      <trkpt lat="45.10866" lon="6.95961">
        <ele>780</ele>
        <time>2018-02-19T11:26:15Z</time>
      </trkpt>
      <trkpt lat="45.1087" lon="6.95975">
        <ele>780</ele>
        <time>2018-02-19T11:27:15Z</time>
      </trkpt>
      <trkpt lat="45.10914" lon="6.9608">
        <ele>779</ele>
        <time>2018-02-19T11:28:15Z</time>
      </trkpt>
      <trkpt lat="45.10921" lon="6.96103">
        <ele>781</ele>
        <time>2018-02-19T11:29:15Z</time>
      </trkpt>
      <trkpt lat="45.10932" lon="6.96148">
        <ele>786</ele>
        <time>2018-02-19T11:30:15Z</time>
      </trkpt>
      <trkpt lat="45.10938" lon="6.96165">
        <ele>787</ele>
        <time>2018-02-19T11:31:15Z</time>
      </trkpt>
      <trkpt lat="45.10981" lon="6.96238">
        <ele>780</ele>
        <time>2018-02-19T11:32:15Z</time>
      </trkpt>
      <trkpt lat="45.10991" lon="6.96264">
        <ele>781</ele>
        <time>2018-02-19T11:33:15Z</time>
      </trkpt>
      <trkpt lat="45.1101" lon="6.96325">
        <ele>785</ele>
        <time>2018-02-19T11:34:15Z</time>
      </trkpt>
      <trkpt lat="45.1102" lon="6.96349">
        <ele>785</ele>
        <time>2018-02-19T11:35:15Z</time>
      </trkpt>
      <trkpt lat="45.11122" lon="6.96519">
        <ele>785</ele>
        <time>2018-02-19T11:36:15Z</time>
      </trkpt>
      <trkpt lat="45.11172" lon="6.96594">
        <ele>782</ele>
        <time>2018-02-19T11:37:15Z</time>
      </trkpt>
      <trkpt lat="45.11177" lon="6.96602">
        <ele>782</ele>
        <time>2018-02-19T11:38:15Z</time>
      </trkpt>
      <trkpt lat="45.11184" lon="6.96626">
        <ele>782</ele>
        <time>2018-02-19T11:39:15Z</time>
      </trkpt>
      <trkpt lat="45.1119" lon="6.96723">
        <ele>784</ele>
        <time>2018-02-19T11:40:15Z</time>
      </trkpt>
      <trkpt lat="45.1119" lon="6.96778">
        <ele>784</ele>
        <time>2018-02-19T11:41:15Z</time>
      </trkpt>
      <trkpt lat="45.11188" lon="6.96886">
        <ele>787</ele>
        <time>2018-02-19T11:42:15Z</time>
      </trkpt>
      <trkpt lat="45.11192" lon="6.96916">
        <ele>787</ele>
        <time>2018-02-19T11:43:15Z</time>
      </trkpt>
      <trkpt lat="45.112" lon="6.9694">
        <ele>789</ele>
        <time>2018-02-19T11:44:15Z</time>
      </trkpt>
      <trkpt lat="45.11211" lon="6.96964">
        <ele>789</ele>
        <time>2018-02-19T11:45:15Z</time>
      </trkpt>
      <trkpt lat="45.11249" lon="6.96988">
        <ele>779</ele>
        <time>2018-02-19T11:46:15Z</time>
      </trkpt>
      <trkpt lat="45.11295" lon="6.97021">
        <ele>779</ele>
        <time>2018-02-19T11:47:15Z</time>
      </trkpt>
      <trkpt lat="45.11308" lon="6.97034">
        <ele>778</ele>
        <time>2018-02-19T11:48:15Z</time>
      </trkpt>
      <trkpt lat="45.11326" lon="6.97056">
        <ele>777</ele>
        <time>2018-02-19T11:49:15Z</time>
      </trkpt>
      <trkpt lat="45.11341" lon="6.97083">
        <ele>776</ele>
        <time>2018-02-19T11:50:15Z</time>
      </trkpt>
      <trkpt lat="45.11361" lon="6.9713">
        <ele>778</ele>
        <time>2018-02-19T11:51:15Z</time>
      </trkpt>
      <trkpt lat="45.1139" lon="6.97213">
        <ele>782</ele>
        <time>2018-02-19T11:52:15Z</time>
      </trkpt>
      <trkpt lat="45.11397" lon="6.97228">
        <ele>781</ele>
        <time>2018-02-19T11:53:15Z</time>
      </trkpt>
      <trkpt lat="45.11461" lon="6.97328">
        <ele>777</ele>
        <time>2018-02-19T11:54:15Z</time>
      </trkpt>
      <trkpt lat="45.11498" lon="6.97391">
        <ele>773</ele>
        <time>2018-02-19T11:55:15Z</time>
      </trkpt>
      <trkpt lat="45.11544" lon="6.97458">
        <ele>774</ele>
        <time>2018-02-19T11:56:15Z</time>
      </trkpt>
      <trkpt lat="45.11664" lon="6.9764">
        <ele>770</ele>
        <time>2018-02-19T11:57:15Z</time>
      </trkpt>
      <trkpt lat="45.11682" lon="6.97675">
        <ele>768</ele>
        <time>2018-02-19T11:58:15Z</time>
      </trkpt>
      <trkpt lat="45.11698" lon="6.97722">
        <ele>765</ele>
        <time>2018-02-19T11:59:15Z</time>
      </trkpt>
      <trkpt lat="45.11705" lon="6.97762">
        <ele>764</ele>
        <time>2018-02-19T12:00:15Z</time>
      </trkpt>
      <trkpt lat="45.11708" lon="6.9781">
        <ele>762</ele>
        <time>2018-02-19T12:01:15Z</time>
      </trkpt>
      <trkpt lat="45.11715" lon="6.98052">
        <ele>758</ele>
        <time>2018-02-19T12:02:15Z</time>
      </trkpt>
      <trkpt lat="45.1172" lon="6.98175">
        <ele>761</ele>
        <time>2018-02-19T12:03:15Z</time>
      </trkpt>
      <trkpt lat="45.11722" lon="6.98205">
        <ele>763</ele>
        <time>2018-02-19T12:04:15Z</time>
      </trkpt>
      <trkpt lat="45.11727" lon="6.98235">
        <ele>763</ele>
        <time>2018-02-19T12:05:15Z</time>
      </trkpt>
      <trkpt lat="45.11736" lon="6.9827">
        <ele>763</ele>
        <time>2018-02-19T12:06:15Z</time>
      </trkpt>
      <trkpt lat="45.11758" lon="6.98319">
        <ele>762</ele>
        <time>2018-02-19T12:07:15Z</time>
      </trkpt>
      <trkpt lat="45.11901" lon="6.98546">
        <ele>759</ele>
        <time>2018-02-19T12:08:15Z</time>
      </trkpt>
      <trkpt lat="45.11911" lon="6.98561">
        <ele>759</ele>
        <time>2018-02-19T12:09:15Z</time>
      </trkpt>
      <trkpt lat="45.11929" lon="6.98581">
        <ele>758</ele>
        <time>2018-02-19T12:10:15Z</time>
      </trkpt>
      <trkpt lat="45.11968" lon="6.98616">
        <ele>759</ele>
        <time>2018-02-19T12:11:15Z</time>
      </trkpt>
      <trkpt lat="45.11988" lon="6.98626">
        <ele>758</ele>
        <time>2018-02-19T12:12:15Z</time>
      </trkpt>
      <trkpt lat="45.12029" lon="6.98638">
        <ele>755</ele>
        <time>2018-02-19T12:13:15Z</time>
      </trkpt>
      <trkpt lat="45.12044" lon="6.98647">
        <ele>754</ele>
        <time>2018-02-19T12:14:15Z</time>
      </trkpt>
      <trkpt lat="45.12054" lon="6.98658">
        <ele>754</ele>
        <time>2018-02-19T12:15:15Z</time>
      </trkpt>
      <trkpt lat="45.12063" lon="6.9867">
        <ele>754</ele>
        <time>2018-02-19T12:16:15Z</time>
      </trkpt>
      <trkpt lat="45.12071" lon="6.98684">
        <ele>754</ele>
        <time>2018-02-19T12:17:15Z</time>
      </trkpt>
      <trkpt lat="45.12077" lon="6.98697">
        <ele>753</ele>
        <time>2018-02-19T12:18:15Z</time>
      </trkpt>
      <trkpt lat="45.12154" lon="6.98906">
        <ele>746</ele>
        <time>2018-02-19T12:19:15Z</time>
      </trkpt>
      <trkpt lat="45.12176" lon="6.98969">
        <ele>745</ele>
        <time>2018-02-19T12:20:15Z</time>
      </trkpt>
      <trkpt lat="45.12185" lon="6.98997">
        <ele>745</ele>
        <time>2018-02-19T12:21:15Z</time>
      </trkpt>
      <trkpt lat="45.12191" lon="6.99024">
        <ele>744</ele>
        <time>2018-02-19T12:22:15Z</time>
      </trkpt>
      <trkpt lat="45.12198" lon="6.99076">
        <ele>743</ele>
        <time>2018-02-19T12:23:15Z</time>
      </trkpt>
      <trkpt lat="45.12209" lon="6.99129">
        <ele>742</ele>
        <time>2018-02-19T12:24:15Z</time>
      </trkpt>
      <trkpt lat="45.12333" lon="6.99584">
        <ele>738</ele>
        <time>2018-02-19T12:25:15Z</time>
      </trkpt>
      <trkpt lat="45.12342" lon="6.99611">
        <ele>739</ele>
        <time>2018-02-19T12:26:15Z</time>
      </trkpt>
      <trkpt lat="45.12363" lon="6.99659">
        <ele>740</ele>
        <time>2018-02-19T12:27:15Z</time>
      </trkpt>
      <trkpt lat="45.12385" lon="6.99702">
        <ele>740</ele>
        <time>2018-02-19T12:28:15Z</time>
      </trkpt>
      <trkpt lat="45.1243" lon="6.9977">
        <ele>738</ele>
        <time>2018-02-19T12:29:15Z</time>
      </trkpt>
      <trkpt lat="45.12439" lon="6.99788">
        <ele>738</ele>
        <time>2018-02-19T12:30:15Z</time>
      </trkpt>
      <trkpt lat="45.12457" lon="6.9983">
        <ele>738</ele>
        <time>2018-02-19T12:31:15Z</time>
      </trkpt>
      <trkpt lat="45.12467" lon="6.99873">
        <ele>737</ele>
        <time>2018-02-19T12:32:15Z</time>
      </trkpt>
      <trkpt lat="45.1247" lon="6.99892">
        <ele>737</ele>
        <time>2018-02-19T12:33:15Z</time>
      </trkpt>
      <trkpt lat="45.12473" lon="6.99936">
        <ele>737</ele>
        <time>2018-02-19T12:34:15Z</time>
      </trkpt>
      <trkpt lat="45.12472" lon="6.99959">
        <ele>738</ele>
        <time>2018-02-19T12:35:15Z</time>
      </trkpt>
      <trkpt lat="45.12465" lon="7.00045">
        <ele>740</ele>
        <time>2018-02-19T12:36:15Z</time>
      </trkpt>
      <trkpt lat="45.12457" lon="7.00121">
        <ele>742</ele>
        <time>2018-02-19T12:37:15Z</time>
      </trkpt>
      <trkpt lat="45.12456" lon="7.00174">
        <ele>744</ele>
        <time>2018-02-19T12:38:15Z</time>
      </trkpt>
      <trkpt lat="45.12458" lon="7.00191">
        <ele>744</ele>
        <time>2018-02-19T12:39:15Z</time>
      </trkpt>
      <trkpt lat="45.12465" lon="7.00217">
        <ele>745</ele>
        <time>2018-02-19T12:40:15Z</time>
      </trkpt>
      <trkpt lat="45.12474" lon="7.00243">
        <ele>745</ele>
        <time>2018-02-19T12:41:15Z</time>
      </trkpt>
      <trkpt lat="45.12523" lon="7.00338">
        <ele>742</ele>
        <time>2018-02-19T12:42:15Z</time>
      </trkpt>
      <trkpt lat="45.12564" lon="7.00427">
        <ele>741</ele>
        <time>2018-02-19T12:43:15Z</time>
      </trkpt>
      <trkpt lat="45.126" lon="7.00528">
        <ele>742</ele>
        <time>2018-02-19T12:44:15Z</time>
      </trkpt>
      <trkpt lat="45.12613" lon="7.00572">
        <ele>742</ele>
        <time>2018-02-19T12:45:15Z</time>
      </trkpt>
      <trkpt lat="45.12624" lon="7.00613">
        <ele>741</ele>
        <time>2018-02-19T12:46:15Z</time>
      </trkpt>
      <trkpt lat="45.12651" lon="7.00772">
        <ele>737</ele>
        <time>2018-02-19T12:47:15Z</time>
      </trkpt>
      <trkpt lat="45.12703" lon="7.01117">
        <ele>746</ele>
        <time>2018-02-19T12:48:15Z</time>
      </trkpt>
      <trkpt lat="45.12715" lon="7.0121">
        <ele>749</ele>
        <time>2018-02-19T12:49:15Z</time>
      </trkpt>
      <trkpt lat="45.12732" lon="7.01401">
        <ele>755</ele>
        <time>2018-02-19T12:50:15Z</time>
      </trkpt>
      <trkpt lat="45.12732" lon="7.01426">
        <ele>756</ele>
        <time>2018-02-19T12:51:15Z</time>
      </trkpt>
      <trkpt lat="45.1273" lon="7.01451">
        <ele>757</ele>
        <time>2018-02-19T12:52:15Z</time>
      </trkpt>
      <trkpt lat="45.12702" lon="7.0156">
        <ele>761</ele>
        <time>2018-02-19T12:53:15Z</time>
      </trkpt>
      <trkpt lat="45.12681" lon="7.01675">
        <ele>762</ele>
        <time>2018-02-19T12:54:15Z</time>
      </trkpt>
      <trkpt lat="45.12665" lon="7.01714">
        <ele>760</ele>
        <time>2018-02-19T12:55:15Z</time>
      </trkpt>
      <trkpt lat="45.12659" lon="7.01735">
        <ele>761</ele>
        <time>2018-02-19T12:56:15Z</time>
      </trkpt>
      <trkpt lat="45.12656" lon="7.01765">
        <ele>761</ele>
        <time>2018-02-19T12:57:15Z</time>
      </trkpt>
      <trkpt lat="45.12654" lon="7.01811">
        <ele>760</ele>
        <time>2018-02-19T12:58:15Z</time>
      </trkpt>
      <trkpt lat="45.12658" lon="7.01816">
        <ele>760</ele>
        <time>2018-02-19T12:59:15Z</time>
      </trkpt>
      <trkpt lat="45.12659" lon="7.01822">
        <ele>760</ele>
        <time>2018-02-19T13:00:15Z</time>
      </trkpt>
      <trkpt lat="45.12658" lon="7.01839">
        <ele>759</ele>
        <time>2018-02-19T13:01:15Z</time>
      </trkpt>
      <trkpt lat="45.12653" lon="7.01876">
        <ele>757</ele>
        <time>2018-02-19T13:02:15Z</time>
      </trkpt>
      <trkpt lat="45.12654" lon="7.01891">
        <ele>755</ele>
        <time>2018-02-19T13:03:15Z</time>
      </trkpt>
      <trkpt lat="45.12663" lon="7.01929">
        <ele>752</ele>
        <time>2018-02-19T13:04:15Z</time>
      </trkpt>
      <trkpt lat="45.12694" lon="7.02016">
        <ele>746</ele>
        <time>2018-02-19T13:05:15Z</time>
      </trkpt>
      <trkpt lat="45.12748" lon="7.02131">
        <ele>736</ele>
        <time>2018-02-19T13:06:15Z</time>
      </trkpt>
      <trkpt lat="45.12775" lon="7.02184">
        <ele>732</ele>
        <time>2018-02-19T13:07:15Z</time>
      </trkpt>
      <trkpt lat="45.12783" lon="7.02203">
        <ele>730</ele>
        <time>2018-02-19T13:08:15Z</time>
      </trkpt>
      <trkpt lat="45.12803" lon="7.02256">
        <ele>722</ele>
        <time>2018-02-19T13:09:15Z</time>
      </trkpt>
      <trkpt lat="45.12824" lon="7.02301">
        <ele>718</ele>
        <time>2018-02-19T13:10:15Z</time>
      </trkpt>
      <trkpt lat="45.12848" lon="7.02349">
        <ele>713</ele>
        <time>2018-02-19T13:11:15Z</time>
      </trkpt>
      <trkpt lat="45.12877" lon="7.0239">
        <ele>707</ele>
        <time>2018-02-19T13:12:15Z</time>
      </trkpt>
      <trkpt lat="45.12889" lon="7.02416">
        <ele>705</ele>
        <time>2018-02-19T13:13:15Z</time>
      </trkpt>
      <trkpt lat="45.12915" lon="7.025">
        <ele>698</ele>
        <time>2018-02-19T13:14:15Z</time>
      </trkpt>
      <trkpt lat="45.1293" lon="7.02543">
        <ele>697</ele>
        <time>2018-02-19T13:15:15Z</time>
      </trkpt>
      <trkpt lat="45.12942" lon="7.0257">
        <ele>695</ele>
        <time>2018-02-19T13:16:15Z</time>
      </trkpt>
      <trkpt lat="45.12957" lon="7.02616">
        <ele>692</ele>
        <time>2018-02-19T13:17:15Z</time>
      </trkpt>
      <trkpt lat="45.12964" lon="7.02664">
        <ele>688</ele>
        <time>2018-02-19T13:18:15Z</time>
      </trkpt>
      <trkpt lat="45.12965" lon="7.02719">
        <ele>688</ele>
        <time>2018-02-19T13:19:15Z</time>
      </trkpt>
      <trkpt lat="45.12961" lon="7.02845">
        <ele>694</ele>
        <time>2018-02-19T13:20:15Z</time>
      </trkpt>
      <trkpt lat="45.12956" lon="7.02879">
        <ele>694</ele>
        <time>2018-02-19T13:21:15Z</time>
      </trkpt>
      <trkpt lat="45.12951" lon="7.02894">
        <ele>694</ele>
        <time>2018-02-19T13:22:15Z</time>
      </trkpt>
      <trkpt lat="45.12917" lon="7.02969">
        <ele>685</ele>
        <time>2018-02-19T13:23:15Z</time>
      </trkpt>
      <trkpt lat="45.12912" lon="7.02983">
        <ele>686</ele>
        <time>2018-02-19T13:24:15Z</time>
      </trkpt>
      <trkpt lat="45.1291" lon="7.03015">
        <ele>685</ele>
        <time>2018-02-19T13:25:15Z</time>
      </trkpt>
      <trkpt lat="45.12912" lon="7.03046">
        <ele>683</ele>
        <time>2018-02-19T13:26:15Z</time>
      </trkpt>
      <trkpt lat="45.12915" lon="7.03062">
        <ele>681</ele>
        <time>2018-02-19T13:27:15Z</time>
      </trkpt>
      <trkpt lat="45.12928" lon="7.03091">
        <ele>680</ele>
        <time>2018-02-19T13:28:15Z</time>
      </trkpt>
      <trkpt lat="45.12966" lon="7.03145">
        <ele>675</ele>
        <time>2018-02-19T13:29:15Z</time>
      </trkpt>
      <trkpt lat="45.12966" lon="7.03181">
        <ele>671</ele>
        <time>2018-02-19T13:30:15Z</time>
      </trkpt>
      <trkpt lat="45.12973" lon="7.03229">
        <ele>666</ele>
        <time>2018-02-19T13:31:15Z</time>
      </trkpt>
      <trkpt lat="45.12989" lon="7.03299">
        <ele>657</ele>
        <time>2018-02-19T13:32:15Z</time>
      </trkpt>
      <trkpt lat="45.13026" lon="7.03375">
        <ele>649</ele>
        <time>2018-02-19T13:33:15Z</time>
      </trkpt>
      <trkpt lat="45.13055" lon="7.03548">
        <ele>633</ele>
        <time>2018-02-19T13:34:15Z</time>
      </trkpt>
      <trkpt lat="45.13052" lon="7.03625">
        <ele>625</ele>
        <time>2018-02-19T13:35:15Z</time>
      </trkpt>
      <trkpt lat="45.13059" lon="7.03757">
        <ele>614</ele>
        <time>2018-02-19T13:36:15Z</time>
      </trkpt>
      <trkpt lat="45.13059" lon="7.0378">
        <ele>612</ele>
        <time>2018-02-19T13:37:15Z</time>
      </trkpt>
      <trkpt lat="45.13054" lon="7.03816">
        <ele>610</ele>
        <time>2018-02-19T13:38:15Z</time>
      </trkpt>
      <trkpt lat="45.13039" lon="7.03881">
        <ele>607</ele>
        <time>2018-02-19T13:39:15Z</time>
      </trkpt>
      <trkpt lat="45.13017" lon="7.0395">
        <ele>598</ele>
        <time>2018-02-19T13:40:15Z</time>
      </trkpt>
      <trkpt lat="45.12987" lon="7.04005">
        <ele>594</ele>
        <time>2018-02-19T13:41:15Z</time>
      </trkpt>
      <trkpt lat="45.12973" lon="7.04041">
        <ele>594</ele>
        <time>2018-02-19T13:42:15Z</time>
      </trkpt>
      <trkpt lat="45.12962" lon="7.0413">
        <ele>579</ele>
        <time>2018-02-19T13:43:15Z</time>
      </trkpt>
      <trkpt lat="45.1294" lon="7.04237">
        <ele>566</ele>
        <time>2018-02-19T13:44:15Z</time>
      </trkpt>
      <trkpt lat="45.1294" lon="7.0426">
        <ele>563</ele>
        <time>2018-02-19T13:45:15Z</time>
      </trkpt>
      <trkpt lat="45.12942" lon="7.04274">
        <ele>560</ele>
        <time>2018-02-19T13:46:15Z</time>
      </trkpt>
      <trkpt lat="45.12948" lon="7.04284">
        <ele>558</ele>
        <time>2018-02-19T13:47:15Z</time>
      </trkpt>
      <trkpt lat="45.12955" lon="7.0429">
        <ele>556</ele>
        <time>2018-02-19T13:48:15Z</time>
      </trkpt>
      <trkpt lat="45.12974" lon="7.04297">
        <ele>553</ele>
        <time>2018-02-19T13:49:15Z</time>
      </trkpt>
      <trkpt lat="45.12998" lon="7.04308">
        <ele>549</ele>
        <time>2018-02-19T13:50:15Z</time>
      </trkpt>
      <trkpt lat="45.13005" lon="7.04314">
        <ele>549</ele>
        <time>2018-02-19T13:51:15Z</time>
      </trkpt>
      <trkpt lat="45.1303" lon="7.04352">
        <ele>546</ele>
        <time>2018-02-19T13:52:15Z</time>
      </trkpt>
      <trkpt lat="45.13036" lon="7.04356">
        <ele>545</ele>
        <time>2018-02-19T13:53:15Z</time>
      </trkpt>
      <trkpt lat="45.13044" lon="7.04359">
        <ele>545</ele>
        <time>2018-02-19T13:54:15Z</time>
      </trkpt>
      <trkpt lat="45.13087" lon="7.04357">
        <ele>542</ele>
        <time>2018-02-19T13:55:15Z</time>
      </trkpt>
      <trkpt lat="45.13121" lon="7.04363">
        <ele>540</ele>
        <time>2018-02-19T13:56:15Z</time>
      </trkpt>
      <trkpt lat="45.13121" lon="7.04398">
        <ele>537</ele>
        <time>2018-02-19T13:57:15Z</time>
      </trkpt>
      <trkpt lat="45.13125" lon="7.04413">
        <ele>536</ele>
        <time>2018-02-19T13:58:15Z</time>
      </trkpt>
      <trkpt lat="45.13129" lon="7.04426">
        <ele>535</ele>
        <time>2018-02-19T13:59:15Z</time>
      </trkpt>
      <trkpt lat="45.13169" lon="7.04505">
        <ele>529</ele>
        <time>2018-02-19T14:00:15Z</time>
      </trkpt>
      <trkpt lat="45.13194" lon="7.04544">
        <ele>528</ele>
        <time>2018-02-19T14:01:15Z</time>
      </trkpt>
      <trkpt lat="45.1329" lon="7.04659">
        <ele>518</ele>
        <time>2018-02-19T14:02:15Z</time>
      </trkpt>
      <trkpt lat="45.13309" lon="7.04686">
        <ele>516</ele>
        <time>2018-02-19T14:03:15Z</time>
      </trkpt>
      <trkpt lat="45.13317" lon="7.047">
        <ele>516</ele>
        <time>2018-02-19T14:04:15Z</time>
      </trkpt>
      <trkpt lat="45.13321" lon="7.04697">
        <ele>515</ele>
        <time>2018-02-19T14:05:15Z</time>
      </trkpt>
      <trkpt lat="45.1335" lon="7.04705">
        <ele>514</ele>
        <time>2018-02-19T14:06:15Z</time>
      </trkpt>
      <trkpt lat="45.13378" lon="7.04703">
        <ele>512</ele>
        <time>2018-02-19T14:07:15Z</time>
      </trkpt>
      <trkpt lat="45.1339" lon="7.04707">
        <ele>512</ele>
        <time>2018-02-19T14:08:15Z</time>
      </trkpt>
      <trkpt lat="45.13447" lon="7.04741">
        <ele>510</ele>
        <time>2018-02-19T14:09:15Z</time>
      </trkpt>
      <trkpt lat="45.13457" lon="7.04744">
        <ele>510</ele>
        <time>2018-02-19T14:10:15Z</time>
      </trkpt>
      <trkpt lat="45.13482" lon="7.04745">
        <ele>510</ele>
        <time>2018-02-19T14:11:15Z</time>
      </trkpt>
      <trkpt lat="45.13532" lon="7.04775">
        <ele>507</ele>
        <time>2018-02-19T14:12:15Z</time>
      </trkpt>
      <trkpt lat="45.13544" lon="7.04769">
        <ele>506</ele>
        <time>2018-02-19T14:13:15Z</time>
      </trkpt>
      <trkpt lat="45.13561" lon="7.04764">
        <ele>505</ele>
        <time>2018-02-19T14:14:15Z</time>
      </trkpt>
      <trkpt lat="45.13572" lon="7.04763">
        <ele>505</ele>
        <time>2018-02-19T14:15:15Z</time>
      </trkpt>
      <trkpt lat="45.13599" lon="7.04771">
        <ele>503</ele>
        <time>2018-02-19T14:16:15Z</time>
      </trkpt>
      <trkpt lat="45.13671" lon="7.04779">
        <ele>500</ele>
        <time>2018-02-19T14:17:15Z</time>
      </trkpt>
      <trkpt lat="45.13703" lon="7.04799">
        <ele>501</ele>
        <time>2018-02-19T14:18:15Z</time>
      </trkpt>
      <trkpt lat="45.1371" lon="7.04779">
        <ele>501</ele>
        <time>2018-02-19T14:19:15Z</time>
      </trkpt>
      <trkpt lat="45.1373" lon="7.04735">
        <ele>501</ele>
        <time>2018-02-19T14:20:15Z</time>
      </trkpt>
      <trkpt lat="45.13747" lon="7.04705">
        <ele>500</ele>
        <time>2018-02-19T14:21:15Z</time>
      </trkpt>
      <trkpt lat="45.13763" lon="7.04684">
        <ele>500</ele>
        <time>2018-02-19T14:22:15Z</time>
      </trkpt>
      <trkpt lat="45.13783" lon="7.04663">
        <ele>501</ele>
        <time>2018-02-19T14:23:15Z</time>
      </trkpt>
      <trkpt lat="45.13828" lon="7.04669">
        <ele>504</ele>
        <time>2018-02-19T14:24:15Z</time>
      </trkpt>
      <trkpt lat="45.13833" lon="7.04671">
        <ele>504</ele>
        <time>2018-02-19T14:25:15Z</time>
      </trkpt>
      <trkpt lat="45.13849" lon="7.04685">
        <ele>506</ele>
        <time>2018-02-19T14:26:15Z</time>
      </trkpt>
      <trkpt lat="45.13873" lon="7.04695">
        <ele>509</ele>
        <time>2018-02-19T14:27:15Z</time>
      </trkpt>
      <trkpt lat="45.13884" lon="7.04703">
        <ele>511</ele>
        <time>2018-02-19T14:28:15Z</time>
      </trkpt>
      <trkpt lat="45.13926" lon="7.04442">
        <ele>515</ele>
        <time>2018-02-19T14:29:15Z</time>
      </trkpt>
      <trkpt lat="45.13934" lon="7.04398">
        <ele>515</ele>
        <time>2018-02-19T14:30:15Z</time>
      </trkpt>
      <trkpt lat="45.13938" lon="7.04381">
        <ele>515</ele>
        <time>2018-02-19T14:31:15Z</time>
      </trkpt>
      <trkpt lat="45.13952" lon="7.04347">
        <ele>518</ele>
        <time>2018-02-19T14:32:15Z</time>
      </trkpt>
      <trkpt lat="45.13968" lon="7.04317">
        <ele>521</ele>
        <time>2018-02-19T14:33:15Z</time>
      </trkpt>
      <trkpt lat="45.13982" lon="7.04297">
        <ele>524</ele>
        <time>2018-02-19T14:34:15Z</time>
      </trkpt>
      <trkpt lat="45.13994" lon="7.04283">
        <ele>527</ele>
        <time>2018-02-19T14:35:15Z</time>
      </trkpt>
      <trkpt lat="45.1401" lon="7.04269">
        <ele>530</ele>
        <time>2018-02-19T14:36:15Z</time>
      </trkpt>
      <trkpt lat="45.14027" lon="7.04258">
        <ele>531</ele>
        <time>2018-02-19T14:37:15Z</time>
      </trkpt>
      <trkpt lat="45.14136" lon="7.04189">
        <ele>544</ele>
        <time>2018-02-19T14:38:15Z</time>
      </trkpt>
      <trkpt lat="45.14151" lon="7.04175">
        <ele>547</ele>
        <time>2018-02-19T14:39:15Z</time>
      </trkpt>
      <trkpt lat="45.14158" lon="7.04165">
        <ele>548</ele>
        <time>2018-02-19T14:40:15Z</time>
      </trkpt>
      <trkpt lat="45.14166" lon="7.04146">
        <ele>549</ele>
        <time>2018-02-19T14:41:15Z</time>
      </trkpt>
      <trkpt lat="45.1417" lon="7.04111">
        <ele>548</ele>
        <time>2018-02-19T14:42:15Z</time>
      </trkpt>
      <trkpt lat="45.14173" lon="7.04047">
        <ele>548</ele>
        <time>2018-02-19T14:43:15Z</time>
      </trkpt>
      <trkpt lat="45.14177" lon="7.03995">
        <ele>550</ele>
        <time>2018-02-19T14:44:15Z</time>
      </trkpt>
      <trkpt lat="45.14181" lon="7.03973">
        <ele>549</ele>
        <time>2018-02-19T14:45:15Z</time>
      </trkpt>
      <trkpt lat="45.14208" lon="7.03864">
        <ele>550</ele>
        <time>2018-02-19T14:46:15Z</time>
      </trkpt>
      <trkpt lat="45.14219" lon="7.03825">
        <ele>552</ele>
        <time>2018-02-19T14:47:15Z</time>
      </trkpt>
      <trkpt lat="45.14223" lon="7.03813">
        <ele>554</ele>
        <time>2018-02-19T14:48:15Z</time>
      </trkpt>
      <trkpt lat="45.14228" lon="7.03808">
        <ele>556</ele>
        <time>2018-02-19T14:49:15Z</time>
      </trkpt>
      <trkpt lat="45.14232" lon="7.03762">
        <ele>563</ele>
        <time>2018-02-19T14:50:15Z</time>
      </trkpt>
      <trkpt lat="45.14231" lon="7.03752">
        <ele>564</ele>
        <time>2018-02-19T14:51:15Z</time>
      </trkpt>
      <trkpt lat="45.14224" lon="7.0374">
        <ele>566</ele>
        <time>2018-02-19T14:52:15Z</time>
      </trkpt>
      <trkpt lat="45.14191" lon="7.037">
        <ele>568</ele>
        <time>2018-02-19T14:53:15Z</time>
      </trkpt>
      <trkpt lat="45.14185" lon="7.03689">
        <ele>569</ele>
        <time>2018-02-19T14:54:15Z</time>
      </trkpt>
      <trkpt lat="45.14175" lon="7.03657">
        <ele>573</ele>
        <time>2018-02-19T14:55:15Z</time>
      </trkpt>
      <trkpt lat="45.14168" lon="7.03622">
        <ele>576</ele>
        <time>2018-02-19T14:56:15Z</time>
      </trkpt>
      <trkpt lat="45.1417" lon="7.0359">
        <ele>582</ele>
        <time>2018-02-19T14:57:15Z</time>
      </trkpt>
      <trkpt lat="45.14175" lon="7.03567">
        <ele>589</ele>
        <time>2018-02-19T14:58:15Z</time>
      </trkpt>
      <trkpt lat="45.14176" lon="7.03559">
        <ele>592</ele>
        <time>2018-02-19T14:59:15Z</time>
      </trkpt>
      <trkpt lat="45.14173" lon="7.03548">
        <ele>595</ele>
        <time>2018-02-19T15:00:15Z</time>
      </trkpt>
      <trkpt lat="45.14152" lon="7.03524">
        <ele>600</ele>
        <time>2018-02-19T15:01:15Z</time>
      </trkpt>
      <trkpt lat="45.1414" lon="7.03517">
        <ele>601</ele>
        <time>2018-02-19T15:02:15Z</time>
      </trkpt>
      <trkpt lat="45.14109" lon="7.03513">
        <ele>600</ele>
        <time>2018-02-19T15:03:15Z</time>
      </trkpt>
      <trkpt lat="45.14103" lon="7.03508">
        <ele>601</ele>
        <time>2018-02-19T15:04:15Z</time>
      </trkpt>
      <trkpt lat="45.14081" lon="7.03479">
        <ele>605</ele>
        <time>2018-02-19T15:05:15Z</time>
      </trkpt>
      <trkpt lat="45.1407" lon="7.03453">
        <ele>610</ele>
        <time>2018-02-19T15:06:15Z</time>
      </trkpt>
      <trkpt lat="45.14045" lon="7.03346">
        <ele>628</ele>
        <time>2018-02-19T15:07:15Z</time>
      </trkpt>
      <trkpt lat="45.14042" lon="7.03337">
        <ele>629</ele>
        <time>2018-02-19T15:08:15Z</time>
      </trkpt>
      <trkpt lat="45.14037" lon="7.0333">
        <ele>629</ele>
        <time>2018-02-19T15:09:15Z</time>
      </trkpt>
      <trkpt lat="45.14029" lon="7.03326">
        <ele>628</ele>
        <time>2018-02-19T15:10:15Z</time>
      </trkpt>
      <trkpt lat="45.14021" lon="7.0333">
        <ele>627</ele>
        <time>2018-02-19T15:11:15Z</time>
      </trkpt>
      <trkpt lat="45.14014" lon="7.03349">
        <ele>624</ele>
        <time>2018-02-19T15:12:15Z</time>
      </trkpt>
      <trkpt lat="45.14015" lon="7.03372">
        <ele>622</ele>
        <time>2018-02-19T15:13:15Z</time>
      </trkpt>
      <trkpt lat="45.14012" lon="7.03381">
        <ele>621</ele>
        <time>2018-02-19T15:14:15Z</time>
      </trkpt>
      <trkpt lat="45.14009" lon="7.03384">
        <ele>620</ele>
        <time>2018-02-19T15:15:15Z</time>
      </trkpt>
      <trkpt lat="45.14004" lon="7.03383">
        <ele>620</ele>
        <time>2018-02-19T15:16:15Z</time>
      </trkpt>
      <trkpt lat="45.1399" lon="7.03354">
        <ele>620</ele>
        <time>2018-02-19T15:17:15Z</time>
      </trkpt>
      <trkpt lat="45.13979" lon="7.03337">
        <ele>619</ele>
        <time>2018-02-19T15:18:15Z</time>
      </trkpt>
      <trkpt lat="45.13974" lon="7.03325">
        <ele>619</ele>
        <time>2018-02-19T15:19:15Z</time>
      </trkpt>
      <trkpt lat="45.13951" lon="7.03236">
        <ele>615</ele>
        <time>2018-02-19T15:20:15Z</time>
      </trkpt>
      <trkpt lat="45.13934" lon="7.03203">
        <ele>612</ele>
        <time>2018-02-19T15:21:15Z</time>
      </trkpt>
      <trkpt lat="45.13933" lon="7.03185">
        <ele>612</ele>
        <time>2018-02-19T15:22:15Z</time>
      </trkpt>
      <trkpt lat="45.13938" lon="7.03142">
        <ele>617</ele>
        <time>2018-02-19T15:23:15Z</time>
      </trkpt>
      <trkpt lat="45.13939" lon="7.03114">
        <ele>621</ele>
        <time>2018-02-19T15:24:15Z</time>
      </trkpt>
      <trkpt lat="45.13937" lon="7.03025">
        <ele>630</ele>
        <time>2018-02-19T15:25:15Z</time>
      </trkpt>
      <trkpt lat="45.13935" lon="7.03012">
        <ele>631</ele>
        <time>2018-02-19T15:26:15Z</time>
      </trkpt>
      <trkpt lat="45.13928" lon="7.02987">
        <ele>629</ele>
        <time>2018-02-19T15:27:15Z</time>
      </trkpt>
      <trkpt lat="45.13925" lon="7.0294">
        <ele>630</ele>
        <time>2018-02-19T15:28:15Z</time>
      </trkpt>
      <trkpt lat="45.13927" lon="7.02901">
        <ele>631</ele>
        <time>2018-02-19T15:29:15Z</time>
      </trkpt>
      <trkpt lat="45.13927" lon="7.02849">
        <ele>631</ele>
        <time>2018-02-19T15:30:15Z</time>
      </trkpt>
      <trkpt lat="45.13934" lon="7.02806">
        <ele>635</ele>
        <time>2018-02-19T15:31:15Z</time>
      </trkpt>
      <trkpt lat="45.13925" lon="7.02749">
        <ele>631</ele>
        <time>2018-02-19T15:32:15Z</time>
      </trkpt>
      <trkpt lat="45.13926" lon="7.02678">
        <ele>633</ele>
        <time>2018-02-19T15:33:15Z</time>
      </trkpt>
      <trkpt lat="45.1393" lon="7.02642">
        <ele>636</ele>
        <time>2018-02-19T15:34:15Z</time>
      </trkpt>
      <trkpt lat="45.13942" lon="7.02588">
        <ele>643</ele>
        <time>2018-02-19T15:35:15Z</time>
      </trkpt>
      <trkpt lat="45.13938" lon="7.02523">
        <ele>646</ele>
        <time>2018-02-19T15:36:15Z</time>
      </trkpt>
      <trkpt lat="45.1394" lon="7.02476">
        <ele>650</ele>
        <time>2018-02-19T15:37:15Z</time>
      </trkpt>
      <trkpt lat="45.13937" lon="7.02443">
        <ele>652</ele>
        <time>2018-02-19T15:38:15Z</time>
      </trkpt>
      <trkpt lat="45.13929" lon="7.02398">
        <ele>653</ele>
        <time>2018-02-19T15:39:15Z</time>
      </trkpt>
      <trkpt lat="45.13925" lon="7.02385">
        <ele>652</ele>
        <time>2018-02-19T15:40:15Z</time>
      </trkpt>
      <trkpt lat="45.13936" lon="7.02357">
        <ele>656</ele>
        <time>2018-02-19T15:41:15Z</time>
      </trkpt>
      <trkpt lat="45.13952" lon="7.02343">
        <ele>659</ele>
        <time>2018-02-19T15:42:15Z</time>
      </trkpt>
      <trkpt lat="45.13956" lon="7.02337">
        <ele>660</ele>
        <time>2018-02-19T15:43:15Z</time>
      </trkpt>
      <trkpt lat="45.13967" lon="7.023">
        <ele>662</ele>
        <time>2018-02-19T15:44:15Z</time>
      </trkpt>
      <trkpt lat="45.13984" lon="7.02263">
        <ele>663</ele>
        <time>2018-02-19T15:45:15Z</time>
      </trkpt>
      <trkpt lat="45.14001" lon="7.02205">
        <ele>665</ele>
        <time>2018-02-19T15:46:15Z</time>
      </trkpt>
      <trkpt lat="45.14008" lon="7.02119">
        <ele>667</ele>
        <time>2018-02-19T15:47:15Z</time>
      </trkpt>
      <trkpt lat="45.14009" lon="7.02117">
        <ele>668</ele>
        <time>2018-02-19T15:48:15Z</time>
      </trkpt>
      <trkpt lat="45.14013" lon="7.02118">
        <ele>668</ele>
        <time>2018-02-19T15:49:15Z</time>
      </trkpt>
      <trkpt lat="45.14016" lon="7.02154">
        <ele>669</ele>
        <time>2018-02-19T15:50:15Z</time>
      </trkpt>
      <trkpt lat="45.14041" lon="7.02238">
        <ele>676</ele>
        <time>2018-02-19T15:51:15Z</time>
      </trkpt>
      <trkpt lat="45.14048" lon="7.02242">
        <ele>678</ele>
        <time>2018-02-19T15:52:15Z</time>
      </trkpt>
      <trkpt lat="45.14052" lon="7.0224">
        <ele>679</ele>
        <time>2018-02-19T15:53:15Z</time>
      </trkpt>
      <trkpt lat="45.14055" lon="7.02234">
        <ele>680</ele>
        <time>2018-02-19T15:54:15Z</time>
      </trkpt>
      <trkpt lat="45.14059" lon="7.02206">
        <ele>681</ele>
        <time>2018-02-19T15:55:15Z</time>
      </trkpt>
      <trkpt lat="45.14063" lon="7.02196">
        <ele>682</ele>
        <time>2018-02-19T15:56:15Z</time>
      </trkpt>
      <trkpt lat="45.14072" lon="7.02191">
        <ele>684</ele>
        <time>2018-02-19T15:57:15Z</time>
      </trkpt>
      <trkpt lat="45.14075" lon="7.02192">
        <ele>685</ele>
        <time>2018-02-19T15:58:15Z</time>
      </trkpt>
      <trkpt lat="45.14078" lon="7.02198">
        <ele>686</ele>
        <time>2018-02-19T15:59:15Z</time>
      </trkpt>
      <trkpt lat="45.14093" lon="7.02253">
        <ele>692</ele>
        <time>2018-02-19T16:00:15Z</time>
      </trkpt>
      <trkpt lat="45.14101" lon="7.02259">
        <ele>694</ele>
        <time>2018-02-19T16:01:15Z</time>
      </trkpt>
      <trkpt lat="45.14106" lon="7.02258">
        <ele>695</ele>
        <time>2018-02-19T16:02:15Z</time>
      </trkpt>
      <trkpt lat="45.1411" lon="7.02253">
        <ele>696</ele>
        <time>2018-02-19T16:03:15Z</time>
      </trkpt>
      <trkpt lat="45.1413" lon="7.02186">
        <ele>699</ele>
        <time>2018-02-19T16:04:15Z</time>
      </trkpt>
      <trkpt lat="45.1414" lon="7.0209">
        <ele>700</ele>
        <time>2018-02-19T16:05:15Z</time>
      </trkpt>
      <trkpt lat="45.14141" lon="7.02073">
        <ele>700</ele>
        <time>2018-02-19T16:06:15Z</time>
      </trkpt>
      <trkpt lat="45.14137" lon="7.02063">
        <ele>699</ele>
        <time>2018-02-19T16:07:15Z</time>
      </trkpt>
      <trkpt lat="45.14134" lon="7.02039">
        <ele>698</ele>
        <time>2018-02-19T16:08:15Z</time>
      </trkpt>
      <trkpt lat="45.14132" lon="7.01981">
        <ele>699</ele>
        <time>2018-02-19T16:09:15Z</time>
      </trkpt>
      <trkpt lat="45.14133" lon="7.0197">
        <ele>700</ele>
        <time>2018-02-19T16:10:15Z</time>
      </trkpt>
      <trkpt lat="45.14143" lon="7.01931">
        <ele>705</ele>
        <time>2018-02-19T16:11:15Z</time>
      </trkpt>
      <trkpt lat="45.14147" lon="7.0193">
        <ele>706</ele>
        <time>2018-02-19T16:12:15Z</time>
      </trkpt>
      <trkpt lat="45.14155" lon="7.01931">
        <ele>708</ele>
        <time>2018-02-19T16:13:15Z</time>
      </trkpt>
      <trkpt lat="45.14158" lon="7.01934">
        <ele>708</ele>
        <time>2018-02-19T16:14:15Z</time>
      </trkpt>
      <trkpt lat="45.14163" lon="7.01942">
        <ele>709</ele>
        <time>2018-02-19T16:15:15Z</time>
      </trkpt>
      <trkpt lat="45.1417" lon="7.01964">
        <ele>709</ele>
        <time>2018-02-19T16:16:15Z</time>
      </trkpt>
      <trkpt lat="45.14174" lon="7.01969">
        <ele>709</ele>
        <time>2018-02-19T16:17:15Z</time>
      </trkpt>
      <trkpt lat="45.14177" lon="7.01969">
        <ele>709</ele>
        <time>2018-02-19T16:18:15Z</time>
      </trkpt>
      <trkpt lat="45.14153" lon="7.01671">
        <ele>736</ele>
        <time>2018-02-19T16:19:15Z</time>
      </trkpt>
      <trkpt lat="45.14156" lon="7.01662">
        <ele>738</ele>
        <time>2018-02-19T16:20:15Z</time>
      </trkpt>
      <trkpt lat="45.14159" lon="7.01617">
        <ele>744</ele>
        <time>2018-02-19T16:21:15Z</time>
      </trkpt>
      <trkpt lat="45.1415" lon="7.01575">
        <ele>746</ele>
        <time>2018-02-19T16:22:15Z</time>
      </trkpt>
      <trkpt lat="45.14147" lon="7.01539">
        <ele>748</ele>
        <time>2018-02-19T16:23:15Z</time>
      </trkpt>
      <trkpt lat="45.14149" lon="7.01528">
        <ele>750</ele>
        <time>2018-02-19T16:24:15Z</time>
      </trkpt>
      <trkpt lat="45.14151" lon="7.01493">
        <ele>754</ele>
        <time>2018-02-19T16:25:15Z</time>
      </trkpt>
      <trkpt lat="45.14156" lon="7.01476">
        <ele>756</ele>
        <time>2018-02-19T16:26:15Z</time>
      </trkpt>
      <trkpt lat="45.14158" lon="7.01465">
        <ele>758</ele>
        <time>2018-02-19T16:27:15Z</time>
      </trkpt>
      <trkpt lat="45.14157" lon="7.01443">
        <ele>759</ele>
        <time>2018-02-19T16:28:15Z</time>
      </trkpt>
      <trkpt lat="45.14153" lon="7.0143">
        <ele>759</ele>
        <time>2018-02-19T16:29:15Z</time>
      </trkpt>
      <trkpt lat="45.14156" lon="7.01423">
        <ele>760</ele>
        <time>2018-02-19T16:30:15Z</time>
      </trkpt>
      <trkpt lat="45.14161" lon="7.01427">
        <ele>762</ele>
        <time>2018-02-19T16:31:15Z</time>
      </trkpt>
      <trkpt lat="45.14179" lon="7.01482">
        <ele>760</ele>
        <time>2018-02-19T16:32:15Z</time>
      </trkpt>
      <trkpt lat="45.14181" lon="7.01508">
        <ele>758</ele>
        <time>2018-02-19T16:33:15Z</time>
      </trkpt>
      <trkpt lat="45.14189" lon="7.01513">
        <ele>757</ele>
        <time>2018-02-19T16:34:15Z</time>
      </trkpt>
      <trkpt lat="45.14193" lon="7.01514">
        <ele>757</ele>
        <time>2018-02-19T16:35:15Z</time>
      </trkpt>
      <trkpt lat="45.14202" lon="7.01512">
        <ele>758</ele>
        <time>2018-02-19T16:36:15Z</time>
      </trkpt>
      <trkpt lat="45.1421" lon="7.01504">
        <ele>759</ele>
        <time>2018-02-19T16:37:15Z</time>
      </trkpt>
      <trkpt lat="45.14214" lon="7.01497">
        <ele>759</ele>
        <time>2018-02-19T16:38:15Z</time>
      </trkpt>
      <trkpt lat="45.14218" lon="7.01471">
        <ele>762</ele>
        <time>2018-02-19T16:39:15Z</time>
      </trkpt>
      <trkpt lat="45.14221" lon="7.01412">
        <ele>768</ele>
        <time>2018-02-19T16:40:15Z</time>
      </trkpt>
      <trkpt lat="45.14219" lon="7.01391">
        <ele>770</ele>
        <time>2018-02-19T16:41:15Z</time>
      </trkpt>
      <trkpt lat="45.14216" lon="7.01369">
        <ele>773</ele>
        <time>2018-02-19T16:42:15Z</time>
      </trkpt>
      <trkpt lat="45.14206" lon="7.01336">
        <ele>776</ele>
        <time>2018-02-19T16:43:15Z</time>
      </trkpt>
      <trkpt lat="45.14201" lon="7.01313">
        <ele>777</ele>
        <time>2018-02-19T16:44:15Z</time>
      </trkpt>
      <trkpt lat="45.142" lon="7.013">
        <ele>777</ele>
        <time>2018-02-19T16:45:15Z</time>
      </trkpt>
      <trkpt lat="45.14201" lon="7.01288">
        <ele>778</ele>
        <time>2018-02-19T16:46:15Z</time>
      </trkpt>
      <trkpt lat="45.14205" lon="7.01267">
        <ele>779</ele>
        <time>2018-02-19T16:47:15Z</time>
      </trkpt>
      <trkpt lat="45.14218" lon="7.01231">
        <ele>783</ele>
        <time>2018-02-19T16:48:15Z</time>
      </trkpt>
      <trkpt lat="45.14234" lon="7.01239">
        <ele>786</ele>
        <time>2018-02-19T16:49:15Z</time>
      </trkpt>
      <trkpt lat="45.14259" lon="7.01273">
        <ele>788</ele>
        <time>2018-02-19T16:50:15Z</time>
      </trkpt>
      <trkpt lat="45.14266" lon="7.01275">
        <ele>789</ele>
        <time>2018-02-19T16:51:15Z</time>
      </trkpt>
      <trkpt lat="45.14279" lon="7.01275">
        <ele>790</ele>
        <time>2018-02-19T16:52:15Z</time>
      </trkpt>
      <trkpt lat="45.14304" lon="7.01261">
        <ele>795</ele>
        <time>2018-02-19T16:53:15Z</time>
      </trkpt>
      <trkpt lat="45.14309" lon="7.01256">
        <ele>797</ele>
        <time>2018-02-19T16:54:15Z</time>
      </trkpt>
      <trkpt lat="45.14319" lon="7.01254">
        <ele>798</ele>
        <time>2018-02-19T16:55:15Z</time>
      </trkpt>
      <trkpt lat="45.14349" lon="7.0124">
        <ele>804</ele>
        <time>2018-02-19T16:56:15Z</time>
      </trkpt>
      <trkpt lat="45.14346" lon="7.01225">
        <ele>805</ele>
        <time>2018-02-19T16:57:15Z</time>
      </trkpt>
      <trkpt lat="45.14346" lon="7.01202">
        <ele>807</ele>
        <time>2018-02-19T16:58:15Z</time>
      </trkpt>
      <trkpt lat="45.1435" lon="7.01173">
        <ele>811</ele>
        <time>2018-02-19T16:59:15Z</time>
      </trkpt>
      <trkpt lat="45.1435" lon="7.01159">
        <ele>812</ele>
        <time>2018-02-19T17:00:15Z</time>
      </trkpt>
      <trkpt lat="45.14347" lon="7.01137">
        <ele>814</ele>
        <time>2018-02-19T17:01:15Z</time>
      </trkpt>
      <trkpt lat="45.14296" lon="7.01003">
        <ele>823</ele>
        <time>2018-02-19T17:02:15Z</time>
      </trkpt>
      <trkpt lat="45.14273" lon="7.00926">
        <ele>828</ele>
        <time>2018-02-19T17:03:15Z</time>
      </trkpt>
      <trkpt lat="45.14263" lon="7.00903">
        <ele>830</ele>
        <time>2018-02-19T17:04:15Z</time>
      </trkpt>
      <trkpt lat="45.14251" lon="7.00887">
        <ele>831</ele>
        <time>2018-02-19T17:05:15Z</time>
      </trkpt>
      <trkpt lat="45.14231" lon="7.00867">
        <ele>830</ele>
        <time>2018-02-19T17:06:15Z</time>
      </trkpt>
      <trkpt lat="45.14221" lon="7.00849">
        <ele>831</ele>
        <time>2018-02-19T17:07:15Z</time>
      </trkpt>
      <trkpt lat="45.14217" lon="7.00839">
        <ele>832</ele>
        <time>2018-02-19T17:08:15Z</time>
      </trkpt>
      <trkpt lat="45.14175" lon="7.00626">
        <ele>857</ele>
        <time>2018-02-19T17:09:15Z</time>
      </trkpt>
      <trkpt lat="45.14167" lon="7.00606">
        <ele>858</ele>
        <time>2018-02-19T17:10:15Z</time>
      </trkpt>
      <trkpt lat="45.14156" lon="7.00592">
        <ele>859</ele>
        <time>2018-02-19T17:11:15Z</time>
      </trkpt>
      <trkpt lat="45.1415" lon="7.00587">
        <ele>859</ele>
        <time>2018-02-19T17:12:15Z</time>
      </trkpt>
      <trkpt lat="45.14132" lon="7.00583">
        <ele>858</ele>
        <time>2018-02-19T17:13:15Z</time>
      </trkpt>
      <trkpt lat="45.14102" lon="7.00581">
        <ele>856</ele>
        <time>2018-02-19T17:14:15Z</time>
      </trkpt>
      <trkpt lat="45.14096" lon="7.00574">
        <ele>857</ele>
        <time>2018-02-19T17:15:15Z</time>
      </trkpt>
      <trkpt lat="45.14095" lon="7.0057">
        <ele>858</ele>
        <time>2018-02-19T17:16:15Z</time>
      </trkpt>
      <trkpt lat="45.14097" lon="7.00561">
        <ele>860</ele>
        <time>2018-02-19T17:17:15Z</time>
      </trkpt>
      <trkpt lat="45.14104" lon="7.00555">
        <ele>862</ele>
        <time>2018-02-19T17:18:15Z</time>
      </trkpt>
      <trkpt lat="45.14136" lon="7.00551">
        <ele>867</ele>
        <time>2018-02-19T17:19:15Z</time>
      </trkpt>
      <trkpt lat="45.14162" lon="7.00544">
        <ele>871</ele>
        <time>2018-02-19T17:20:15Z</time>
      </trkpt>
      <trkpt lat="45.14176" lon="7.00545">
        <ele>875</ele>
        <time>2018-02-19T17:21:15Z</time>
      </trkpt>
      <trkpt lat="45.14182" lon="7.00549">
        <ele>876</ele>
        <time>2018-02-19T17:22:15Z</time>
      </trkpt>
      <trkpt lat="45.14191" lon="7.00556">
        <ele>877</ele>
        <time>2018-02-19T17:23:15Z</time>
      </trkpt>
      <trkpt lat="45.14197" lon="7.00566">
        <ele>877</ele>
        <time>2018-02-19T17:24:15Z</time>
      </trkpt>
      <trkpt lat="45.14235" lon="7.00648">
        <ele>873</ele>
        <time>2018-02-19T17:25:15Z</time>
      </trkpt>
      <trkpt lat="45.14249" lon="7.00666">
        <ele>875</ele>
        <time>2018-02-19T17:26:15Z</time>
      </trkpt>
      <trkpt lat="45.14264" lon="7.00675">
        <ele>875</ele>
        <time>2018-02-19T17:27:15Z</time>
      </trkpt>
      <trkpt lat="45.1427" lon="7.00677">
        <ele>875</ele>
        <time>2018-02-19T17:28:15Z</time>
      </trkpt>
      <trkpt lat="45.14312" lon="7.00679">
        <ele>881</ele>
        <time>2018-02-19T17:29:15Z</time>
      </trkpt>
      <trkpt lat="45.14333" lon="7.00678">
        <ele>884</ele>
        <time>2018-02-19T17:30:15Z</time>
      </trkpt>
      <trkpt lat="45.14351" lon="7.00675">
        <ele>886</ele>
        <time>2018-02-19T17:31:15Z</time>
      </trkpt>
      <trkpt lat="45.14384" lon="7.00663">
        <ele>892</ele>
        <time>2018-02-19T17:32:15Z</time>
      </trkpt>
      <trkpt lat="45.14397" lon="7.00664">
        <ele>894</ele>
        <time>2018-02-19T17:33:15Z</time>
      </trkpt>
      <trkpt lat="45.14408" lon="7.00672">
        <ele>893</ele>
        <time>2018-02-19T17:34:15Z</time>
      </trkpt>
      <trkpt lat="45.14436" lon="7.00703">
        <ele>893</ele>
        <time>2018-02-19T17:35:15Z</time>
      </trkpt>
      <trkpt lat="45.14443" lon="7.00708">
        <ele>893</ele>
        <time>2018-02-19T17:36:15Z</time>
      </trkpt>
      <trkpt lat="45.14446" lon="7.00707">
        <ele>894</ele>
        <time>2018-02-19T17:37:15Z</time>
      </trkpt>
      <trkpt lat="45.1445" lon="7.00698">
        <ele>897</ele>
        <time>2018-02-19T17:38:15Z</time>
      </trkpt>
      <trkpt lat="45.14449" lon="7.00687">
        <ele>898</ele>
        <time>2018-02-19T17:39:15Z</time>
      </trkpt>
      <trkpt lat="45.14416" lon="7.00642">
        <ele>901</ele>
        <time>2018-02-19T17:40:15Z</time>
      </trkpt>
      <trkpt lat="45.14399" lon="7.00624">
        <ele>903</ele>
        <time>2018-02-19T17:41:15Z</time>
      </trkpt>
      <trkpt lat="45.14318" lon="7.00571">
        <ele>908</ele>
        <time>2018-02-19T17:42:15Z</time>
      </trkpt>
      <trkpt lat="45.14305" lon="7.0056">
        <ele>907</ele>
        <time>2018-02-19T17:43:15Z</time>
      </trkpt>
      <trkpt lat="45.14295" lon="7.00548">
        <ele>908</ele>
        <time>2018-02-19T17:44:15Z</time>
      </trkpt>
      <trkpt lat="45.14287" lon="7.00534">
        <ele>909</ele>
        <time>2018-02-19T17:45:15Z</time>
      </trkpt>
      <trkpt lat="45.1428" lon="7.00517">
        <ele>911</ele>
        <time>2018-02-19T17:46:15Z</time>
      </trkpt>
      <trkpt lat="45.14257" lon="7.00412">
        <ele>922</ele>
        <time>2018-02-19T17:47:15Z</time>
      </trkpt>
      <trkpt lat="45.14252" lon="7.00397">
        <ele>924</ele>
        <time>2018-02-19T17:48:15Z</time>
      </trkpt>
      <trkpt lat="45.14245" lon="7.00384">
        <ele>926</ele>
        <time>2018-02-19T17:49:15Z</time>
      </trkpt>
      <trkpt lat="45.1422" lon="7.0035">
        <ele>930</ele>
        <time>2018-02-19T17:50:15Z</time>
      </trkpt>
      <trkpt lat="45.14157" lon="7.00269">
        <ele>932</ele>
        <time>2018-02-19T17:51:15Z</time>
      </trkpt>
      <trkpt lat="45.14154" lon="7.00262">
        <ele>933</ele>
        <time>2018-02-19T17:52:15Z</time>
      </trkpt>
      <trkpt lat="45.14153" lon="7.00256">
        <ele>934</ele>
        <time>2018-02-19T17:53:15Z</time>
      </trkpt>
      <trkpt lat="45.14154" lon="7.00249">
        <ele>935</ele>
        <time>2018-02-19T17:54:15Z</time>
      </trkpt>
      <trkpt lat="45.14157" lon="7.00246">
        <ele>937</ele>
        <time>2018-02-19T17:55:15Z</time>
      </trkpt>
      <trkpt lat="45.14166" lon="7.00247">
        <ele>938</ele>
        <time>2018-02-19T17:56:15Z</time>
      </trkpt>
      <trkpt lat="45.14214" lon="7.00291">
        <ele>942</ele>
        <time>2018-02-19T17:57:15Z</time>
      </trkpt>
      <trkpt lat="45.14239" lon="7.00311">
        <ele>943</ele>
        <time>2018-02-19T17:58:15Z</time>
      </trkpt>
      <trkpt lat="45.14283" lon="7.00316">
        <ele>951</ele>
        <time>2018-02-19T17:59:15Z</time>
      </trkpt>
      <trkpt lat="45.14305" lon="7.00322">
        <ele>954</ele>
        <time>2018-02-19T18:00:15Z</time>
      </trkpt>
      <trkpt lat="45.14373" lon="7.00363">
        <ele>955</ele>
        <time>2018-02-19T18:01:15Z</time>
      </trkpt>
      <trkpt lat="45.14385" lon="7.00369">
        <ele>955</ele>
        <time>2018-02-19T18:02:15Z</time>
      </trkpt>
      <trkpt lat="45.14405" lon="7.00373">
        <ele>957</ele>
        <time>2018-02-19T18:03:15Z</time>
      </trkpt>
      <trkpt lat="45.14425" lon="7.00371">
        <ele>959</ele>
        <time>2018-02-19T18:04:15Z</time>
      </trkpt>
      <trkpt lat="45.14451" lon="7.00358">
        <ele>961</ele>
        <time>2018-02-19T18:05:15Z</time>
      </trkpt>
      <trkpt lat="45.14477" lon="7.00336">
        <ele>966</ele>
        <time>2018-02-19T18:06:15Z</time>
      </trkpt>
      <trkpt lat="45.14518" lon="7.00291">
        <ele>976</ele>
        <time>2018-02-19T18:07:15Z</time>
      </trkpt>
      <trkpt lat="45.14531" lon="7.00279">
        <ele>979</ele>
        <time>2018-02-19T18:08:15Z</time>
      </trkpt>
      <trkpt lat="45.14543" lon="7.00271">
        <ele>980</ele>
        <time>2018-02-19T18:09:15Z</time>
      </trkpt>
      <trkpt lat="45.14586" lon="7.00254">
        <ele>983</ele>
        <time>2018-02-19T18:10:15Z</time>
      </trkpt>
      <trkpt lat="45.14599" lon="7.00245">
        <ele>983</ele>
        <time>2018-02-19T18:11:15Z</time>
      </trkpt>
      <trkpt lat="45.14616" lon="7.00228">
        <ele>987</ele>
        <time>2018-02-19T18:12:15Z</time>
      </trkpt>
      <trkpt lat="45.14604" lon="7.00223">
        <ele>991</ele>
        <time>2018-02-19T18:13:15Z</time>
      </trkpt>
      <trkpt lat="45.14598" lon="7.00224">
        <ele>992</ele>
        <time>2018-02-19T18:14:15Z</time>
      </trkpt>
      <trkpt lat="45.14577" lon="7.00235">
        <ele>990</ele>
        <time>2018-02-19T18:15:15Z</time>
      </trkpt>
      <trkpt lat="45.14559" lon="7.00238">
        <ele>990</ele>
        <time>2018-02-19T18:16:15Z</time>
      </trkpt>
      <trkpt lat="45.14519" lon="7.00231">
        <ele>994</ele>
        <time>2018-02-19T18:17:15Z</time>
      </trkpt>
      <trkpt lat="45.14508" lon="7.00231">
        <ele>995</ele>
        <time>2018-02-19T18:18:15Z</time>
      </trkpt>
      <trkpt lat="45.14466" lon="7.00243">
        <ele>992</ele>
        <time>2018-02-19T18:19:15Z</time>
      </trkpt>
      <trkpt lat="45.14466" lon="7.00243">
        <ele>992</ele>
        <time>2018-02-19T18:20:15Z</time>
      </trkpt>
      <trkpt lat="45.14508" lon="7.00231">
        <ele>995</ele>
        <time>2018-02-19T18:21:15Z</time>
      </trkpt>
      <trkpt lat="45.14519" lon="7.00231">
        <ele>994</ele>
        <time>2018-02-19T18:22:15Z</time>
      </trkpt>
      <trkpt lat="45.14559" lon="7.00238">
        <ele>990</ele>
        <time>2018-02-19T18:23:15Z</time>
      </trkpt>
      <trkpt lat="45.14577" lon="7.00235">
        <ele>990</ele>
        <time>2018-02-19T18:24:15Z</time>
      </trkpt>
      <trkpt lat="45.14598" lon="7.00224">
        <ele>992</ele>
        <time>2018-02-19T18:25:15Z</time>
      </trkpt>
      <trkpt lat="45.14604" lon="7.00223">
        <ele>991</ele>
        <time>2018-02-19T18:26:15Z</time>
      </trkpt>
      <trkpt lat="45.14616" lon="7.00228">
        <ele>987</ele>
        <time>2018-02-19T18:27:15Z</time>
      </trkpt>
      <trkpt lat="45.14655" lon="7.00192">
        <ele>993</ele>
        <time>2018-02-19T18:28:15Z</time>
      </trkpt>
      <trkpt lat="45.14769" lon="7.00103">
        <ele>1010</ele>
        <time>2018-02-19T18:29:15Z</time>
      </trkpt>
      <trkpt lat="45.14799" lon="7.00088">
        <ele>1012</ele>
        <time>2018-02-19T18:30:15Z</time>
      </trkpt>
      <trkpt lat="45.14843" lon="7.00079">
        <ele>1009</ele>
        <time>2018-02-19T18:31:15Z</time>
      </trkpt>
      <trkpt lat="45.14855" lon="7.00072">
        <ele>1010</ele>
        <time>2018-02-19T18:32:15Z</time>
      </trkpt>
      <trkpt lat="45.14881" lon="7.00046">
        <ele>1015</ele>
        <time>2018-02-19T18:33:15Z</time>
      </trkpt>
      <trkpt lat="45.14902" lon="7.0002">
        <ele>1021</ele>
        <time>2018-02-19T18:34:15Z</time>
      </trkpt>
      <trkpt lat="45.14919" lon="7.00006">
        <ele>1023</ele>
        <time>2018-02-19T18:35:15Z</time>
      </trkpt>
      <trkpt lat="45.14952" lon="7">
        <ele>1022</ele>
        <time>2018-02-19T18:36:15Z</time>
      </trkpt>
      <trkpt lat="45.1496" lon="6.99997">
        <ele>1022</ele>
        <time>2018-02-19T18:37:15Z</time>
      </trkpt>
      <trkpt lat="45.14972" lon="6.99989">
        <ele>1024</ele>
        <time>2018-02-19T18:38:15Z</time>
      </trkpt>
      <trkpt lat="45.15034" lon="6.99938">
        <ele>1039</ele>
        <time>2018-02-19T18:39:15Z</time>
      </trkpt>
      <trkpt lat="45.15054" lon="6.99931">
        <ele>1039</ele>
        <time>2018-02-19T18:40:15Z</time>
      </trkpt>
      <trkpt lat="45.15092" lon="6.99923">
        <ele>1036</ele>
        <time>2018-02-19T18:41:15Z</time>
      </trkpt>
      <trkpt lat="45.15105" lon="6.99915">
        <ele>1037</ele>
        <time>2018-02-19T18:42:15Z</time>
      </trkpt>
      <trkpt lat="45.15137" lon="6.99888">
        <ele>1042</ele>
        <time>2018-02-19T18:43:15Z</time>
      </trkpt>
      <trkpt lat="45.15199" lon="6.99831">
        <ele>1046</ele>
        <time>2018-02-19T18:44:15Z</time>
      </trkpt>
      <trkpt lat="45.15205" lon="6.99821">
        <ele>1047</ele>
        <time>2018-02-19T18:45:15Z</time>
      </trkpt>
      <trkpt lat="45.1522" lon="6.99767">
        <ele>1055</ele>
        <time>2018-02-19T18:46:15Z</time>
      </trkpt>
      <trkpt lat="45.15232" lon="6.9974">
        <ele>1057</ele>
        <time>2018-02-19T18:47:15Z</time>
      </trkpt>
      <trkpt lat="45.15271" lon="6.99684">
        <ele>1057</ele>
        <time>2018-02-19T18:48:15Z</time>
      </trkpt>
      <trkpt lat="45.15289" lon="6.99645">
        <ele>1064</ele>
        <time>2018-02-19T18:49:15Z</time>
      </trkpt>
      <trkpt lat="45.15313" lon="6.99615">
        <ele>1064</ele>
        <time>2018-02-19T18:50:15Z</time>
      </trkpt>
      <trkpt lat="45.15344" lon="6.99561">
        <ele>1064</ele>
        <time>2018-02-19T18:51:15Z</time>
      </trkpt>
      <trkpt lat="45.15361" lon="6.99512">
        <ele>1065</ele>
        <time>2018-02-19T18:52:15Z</time>
      </trkpt>
      <trkpt lat="45.15368" lon="6.99443">
        <ele>1079</ele>
        <time>2018-02-19T18:53:15Z</time>
      </trkpt>
      <trkpt lat="45.15373" lon="6.99431">
        <ele>1079</ele>
        <time>2018-02-19T18:54:15Z</time>
      </trkpt>
      <trkpt lat="45.15388" lon="6.9941">
        <ele>1076</ele>
        <time>2018-02-19T18:55:15Z</time>
      </trkpt>
      <trkpt lat="45.15393" lon="6.994">
        <ele>1076</ele>
        <time>2018-02-19T18:56:15Z</time>
      </trkpt>
      <trkpt lat="45.15405" lon="6.99364">
        <ele>1080</ele>
        <time>2018-02-19T18:57:15Z</time>
      </trkpt>
      <trkpt lat="45.15414" lon="6.99348">
        <ele>1081</ele>
        <time>2018-02-19T18:58:15Z</time>
      </trkpt>
      <trkpt lat="45.15421" lon="6.99338">
        <ele>1083</ele>
        <time>2018-02-19T18:59:15Z</time>
      </trkpt>
      <trkpt lat="45.15429" lon="6.99332">
        <ele>1085</ele>
        <time>2018-02-19T19:00:15Z</time>
      </trkpt>
      <trkpt lat="45.15437" lon="6.99329">
        <ele>1087</ele>
        <time>2018-02-19T19:01:15Z</time>
      </trkpt>
      <trkpt lat="45.15453" lon="6.99327">
        <ele>1088</ele>
        <time>2018-02-19T19:02:15Z</time>
      </trkpt>
      <trkpt lat="45.15472" lon="6.99333">
        <ele>1086</ele>
        <time>2018-02-19T19:03:15Z</time>
      </trkpt>
      <trkpt lat="45.15481" lon="6.99342">
        <ele>1083</ele>
        <time>2018-02-19T19:04:15Z</time>
      </trkpt>
      <trkpt lat="45.15526" lon="6.99396">
        <ele>1074</ele>
        <time>2018-02-19T19:05:15Z</time>
      </trkpt>
      <trkpt lat="45.15549" lon="6.99412">
        <ele>1076</ele>
        <time>2018-02-19T19:06:15Z</time>
      </trkpt>
      <trkpt lat="45.1557" lon="6.99421">
        <ele>1079</ele>
        <time>2018-02-19T19:07:15Z</time>
      </trkpt>
      <trkpt lat="45.15581" lon="6.99423">
        <ele>1082</ele>
        <time>2018-02-19T19:08:15Z</time>
      </trkpt>
      <trkpt lat="45.15599" lon="6.99433">
        <ele>1086</ele>
        <time>2018-02-19T19:09:15Z</time>
      </trkpt>
      <trkpt lat="45.15604" lon="6.9944">
        <ele>1086</ele>
        <time>2018-02-19T19:10:15Z</time>
      </trkpt>
      <trkpt lat="45.15622" lon="6.99474">
        <ele>1080</ele>
        <time>2018-02-19T19:11:15Z</time>
      </trkpt>
      <trkpt lat="45.15635" lon="6.99493">
        <ele>1079</ele>
        <time>2018-02-19T19:12:15Z</time>
      </trkpt>
      <trkpt lat="45.1571" lon="6.99578">
        <ele>1073</ele>
        <time>2018-02-19T19:13:15Z</time>
      </trkpt>
      <trkpt lat="45.15722" lon="6.99585">
        <ele>1075</ele>
        <time>2018-02-19T19:14:15Z</time>
      </trkpt>
      <trkpt lat="45.15729" lon="6.99586">
        <ele>1077</ele>
        <time>2018-02-19T19:15:15Z</time>
      </trkpt>
      <trkpt lat="45.15757" lon="6.99581">
        <ele>1091</ele>
        <time>2018-02-19T19:16:15Z</time>
      </trkpt>
      <trkpt lat="45.15768" lon="6.99582">
        <ele>1093</ele>
        <time>2018-02-19T19:17:15Z</time>
      </trkpt>
      <trkpt lat="45.15777" lon="6.99586">
        <ele>1093</ele>
        <time>2018-02-19T19:18:15Z</time>
      </trkpt>
      <trkpt lat="45.15797" lon="6.99603">
        <ele>1089</ele>
        <time>2018-02-19T19:19:15Z</time>
      </trkpt>
      <trkpt lat="45.15851" lon="6.99637">
        <ele>1087</ele>
        <time>2018-02-19T19:20:15Z</time>
      </trkpt>
      <trkpt lat="45.15865" lon="6.99642">
        <ele>1089</ele>
        <time>2018-02-19T19:21:15Z</time>
      </trkpt>
      <trkpt lat="45.15887" lon="6.99636">
        <ele>1097</ele>
        <time>2018-02-19T19:22:15Z</time>
      </trkpt>
      <trkpt lat="45.15894" lon="6.99637">
        <ele>1099</ele>
        <time>2018-02-19T19:23:15Z</time>
      </trkpt>
      <trkpt lat="45.15901" lon="6.9964">
        <ele>1099</ele>
        <time>2018-02-19T19:24:15Z</time>
      </trkpt>
      <trkpt lat="45.15914" lon="6.99655">
        <ele>1096</ele>
        <time>2018-02-19T19:25:15Z</time>
      </trkpt>
      <trkpt lat="45.15933" lon="6.99687">
        <ele>1084</ele>
        <time>2018-02-19T19:26:15Z</time>
      </trkpt>
      <trkpt lat="45.15942" lon="6.99696">
        <ele>1080</ele>
        <time>2018-02-19T19:27:15Z</time>
      </trkpt>
      <trkpt lat="45.15948" lon="6.99698">
        <ele>1081</ele>
        <time>2018-02-19T19:28:15Z</time>
      </trkpt>
      <trkpt lat="45.15963" lon="6.99698">
        <ele>1083</ele>
        <time>2018-02-19T19:29:15Z</time>
      </trkpt>
      <trkpt lat="45.15991" lon="6.99691">
        <ele>1091</ele>
        <time>2018-02-19T19:30:15Z</time>
      </trkpt>
      <trkpt lat="45.16017" lon="6.99675">
        <ele>1102</ele>
        <time>2018-02-19T19:31:15Z</time>
      </trkpt>
      <trkpt lat="45.16022" lon="6.99674">
        <ele>1104</ele>
        <time>2018-02-19T19:32:15Z</time>
      </trkpt>
      <trkpt lat="45.16032" lon="6.99676">
        <ele>1105</ele>
        <time>2018-02-19T19:33:15Z</time>
      </trkpt>
      <trkpt lat="45.16052" lon="6.99693">
        <ele>1102</ele>
        <time>2018-02-19T19:34:15Z</time>
      </trkpt>
      <trkpt lat="45.16084" lon="6.99729">
        <ele>1095</ele>
        <time>2018-02-19T19:35:15Z</time>
      </trkpt>
      <trkpt lat="45.16102" lon="6.99744">
        <ele>1093</ele>
        <time>2018-02-19T19:36:15Z</time>
      </trkpt>
      <trkpt lat="45.16116" lon="6.99748">
        <ele>1094</ele>
        <time>2018-02-19T19:37:15Z</time>
      </trkpt>
      <trkpt lat="45.16157" lon="6.99749">
        <ele>1101</ele>
        <time>2018-02-19T19:38:15Z</time>
      </trkpt>
      <trkpt lat="45.16177" lon="6.99753">
        <ele>1102</ele>
        <time>2018-02-19T19:39:15Z</time>
      </trkpt>
      <trkpt lat="45.16201" lon="6.99768">
        <ele>1100</ele>
        <time>2018-02-19T19:40:15Z</time>
      </trkpt>
      <trkpt lat="45.1624" lon="6.99802">
        <ele>1094</ele>
        <time>2018-02-19T19:41:15Z</time>
      </trkpt>
      <trkpt lat="45.16298" lon="6.99824">
        <ele>1094</ele>
        <time>2018-02-19T19:42:15Z</time>
      </trkpt>
      <trkpt lat="45.16327" lon="6.99838">
        <ele>1092</ele>
        <time>2018-02-19T19:43:15Z</time>
      </trkpt>
      <trkpt lat="45.16447" lon="6.99932">
        <ele>1093</ele>
        <time>2018-02-19T19:44:15Z</time>
      </trkpt>
      <trkpt lat="45.16459" lon="6.99939">
        <ele>1093</ele>
        <time>2018-02-19T19:45:15Z</time>
      </trkpt>
      <trkpt lat="45.16502" lon="6.99938">
        <ele>1100</ele>
        <time>2018-02-19T19:46:15Z</time>
      </trkpt>
      <trkpt lat="45.16536" lon="6.99947">
        <ele>1098</ele>
        <time>2018-02-19T19:47:15Z</time>
      </trkpt>
      <trkpt lat="45.16546" lon="6.99946">
        <ele>1099</ele>
        <time>2018-02-19T19:48:15Z</time>
      </trkpt>
      <trkpt lat="45.16577" lon="6.99927">
        <ele>1107</ele>
        <time>2018-02-19T19:49:15Z</time>
      </trkpt>
      <trkpt lat="45.16585" lon="6.99925">
        <ele>1108</ele>
        <time>2018-02-19T19:50:15Z</time>
      </trkpt>
      <trkpt lat="45.16597" lon="6.99925">
        <ele>1113</ele>
        <time>2018-02-19T19:51:15Z</time>
      </trkpt>
      <trkpt lat="45.16611" lon="6.99932">
        <ele>1114</ele>
        <time>2018-02-19T19:52:15Z</time>
      </trkpt>
      <trkpt lat="45.16718" lon="7.00029">
        <ele>1114</ele>
        <time>2018-02-19T19:53:15Z</time>
      </trkpt>
      <trkpt lat="45.16727" lon="7.00035">
        <ele>1115</ele>
        <time>2018-02-19T19:54:15Z</time>
      </trkpt>
      <trkpt lat="45.16993" lon="7.00146">
        <ele>1160</ele>
        <time>2018-02-19T19:55:15Z</time>
      </trkpt>
      <trkpt lat="45.17008" lon="7.00154">
        <ele>1160</ele>
        <time>2018-02-19T19:56:15Z</time>
      </trkpt>
      <trkpt lat="45.17031" lon="7.0017">
        <ele>1160</ele>
        <time>2018-02-19T19:57:15Z</time>
      </trkpt>
      <trkpt lat="45.1704" lon="7.00181">
        <ele>1159</ele>
        <time>2018-02-19T19:58:15Z</time>
      </trkpt>
      <trkpt lat="45.17067" lon="7.00224">
        <ele>1147</ele>
        <time>2018-02-19T19:59:15Z</time>
      </trkpt>
      <trkpt lat="45.17074" lon="7.00231">
        <ele>1145</ele>
        <time>2018-02-19T20:00:15Z</time>
      </trkpt>
      <trkpt lat="45.17084" lon="7.00237">
        <ele>1146</ele>
        <time>2018-02-19T20:01:15Z</time>
      </trkpt>
      <trkpt lat="45.17297" lon="7.00336">
        <ele>1160</ele>
        <time>2018-02-19T20:02:15Z</time>
      </trkpt>
      <trkpt lat="45.17313" lon="7.00335">
        <ele>1163</ele>
        <time>2018-02-19T20:03:15Z</time>
      </trkpt>
      <trkpt lat="45.17322" lon="7.00332">
        <ele>1166</ele>
        <time>2018-02-19T20:04:15Z</time>
      </trkpt>
      <trkpt lat="45.17337" lon="7.0032">
        <ele>1169</ele>
        <time>2018-02-19T20:05:15Z</time>
      </trkpt>
      <trkpt lat="45.17345" lon="7.0031">
        <ele>1170</ele>
        <time>2018-02-19T20:06:15Z</time>
      </trkpt>
      <trkpt lat="45.17412" lon="7.00201">
        <ele>1183</ele>
        <time>2018-02-19T20:07:15Z</time>
      </trkpt>
      <trkpt lat="45.17422" lon="7.00179">
        <ele>1187</ele>
        <time>2018-02-19T20:08:15Z</time>
      </trkpt>
      <trkpt lat="45.1744" lon="7.00119">
        <ele>1195</ele>
        <time>2018-02-19T20:09:15Z</time>
      </trkpt>
      <trkpt lat="45.17445" lon="7.00108">
        <ele>1196</ele>
        <time>2018-02-19T20:10:15Z</time>
      </trkpt>
      <trkpt lat="45.17462" lon="7.00085">
        <ele>1196</ele>
        <time>2018-02-19T20:11:15Z</time>
      </trkpt>
      <trkpt lat="45.17504" lon="7.00047">
        <ele>1199</ele>
        <time>2018-02-19T20:12:15Z</time>
      </trkpt>
      <trkpt lat="45.17509" lon="7.00038">
        <ele>1201</ele>
        <time>2018-02-19T20:13:15Z</time>
      </trkpt>
      <trkpt lat="45.17509" lon="7.00033">
        <ele>1202</ele>
        <time>2018-02-19T20:14:15Z</time>
      </trkpt>
      <trkpt lat="45.17507" lon="7.00023">
        <ele>1205</ele>
        <time>2018-02-19T20:15:15Z</time>
      </trkpt>
      <trkpt lat="45.17498" lon="7.00018">
        <ele>1207</ele>
        <time>2018-02-19T20:16:15Z</time>
      </trkpt>
      <trkpt lat="45.17493" lon="7.00018">
        <ele>1208</ele>
        <time>2018-02-19T20:17:15Z</time>
      </trkpt>
      <trkpt lat="45.17477" lon="7.00026">
        <ele>1210</ele>
        <time>2018-02-19T20:18:15Z</time>
      </trkpt>
      <trkpt lat="45.17461" lon="7.00038">
        <ele>1210</ele>
        <time>2018-02-19T20:19:15Z</time>
      </trkpt>
      <trkpt lat="45.17444" lon="7.00055">
        <ele>1209</ele>
        <time>2018-02-19T20:20:15Z</time>
      </trkpt>
      <trkpt lat="45.17412" lon="7.00096">
        <ele>1205</ele>
        <time>2018-02-19T20:21:15Z</time>
      </trkpt>
      <trkpt lat="45.17403" lon="7.00105">
        <ele>1205</ele>
        <time>2018-02-19T20:22:15Z</time>
      </trkpt>
      <trkpt lat="45.17393" lon="7.00113">
        <ele>1206</ele>
        <time>2018-02-19T20:23:15Z</time>
      </trkpt>
      <trkpt lat="45.17369" lon="7.00125">
        <ele>1208</ele>
        <time>2018-02-19T20:24:15Z</time>
      </trkpt>
      <trkpt lat="45.17334" lon="7.00138">
        <ele>1213</ele>
        <time>2018-02-19T20:25:15Z</time>
      </trkpt>
      <trkpt lat="45.1732" lon="7.00138">
        <ele>1213</ele>
        <time>2018-02-19T20:26:15Z</time>
      </trkpt>
      <trkpt lat="45.17311" lon="7.00135">
        <ele>1214</ele>
        <time>2018-02-19T20:27:15Z</time>
      </trkpt>
      <trkpt lat="45.17259" lon="7.00113">
        <ele>1221</ele>
        <time>2018-02-19T20:28:15Z</time>
      </trkpt>
      <trkpt lat="45.17235" lon="7.00105">
        <ele>1225</ele>
        <time>2018-02-19T20:29:15Z</time>
      </trkpt>
      <trkpt lat="45.17213" lon="7.00105">
        <ele>1227</ele>
        <time>2018-02-19T20:30:15Z</time>
      </trkpt>
      <trkpt lat="45.17173" lon="7.00111">
        <ele>1228</ele>
        <time>2018-02-19T20:31:15Z</time>
      </trkpt>
      <trkpt lat="45.17163" lon="7.0011">
        <ele>1229</ele>
        <time>2018-02-19T20:32:15Z</time>
      </trkpt>
      <trkpt lat="45.1716" lon="7.00106">
        <ele>1231</ele>
        <time>2018-02-19T20:33:15Z</time>
      </trkpt>
      <trkpt lat="45.17159" lon="7.00101">
        <ele>1233</ele>
        <time>2018-02-19T20:34:15Z</time>
      </trkpt>
      <trkpt lat="45.1716" lon="7.00095">
        <ele>1235</ele>
        <time>2018-02-19T20:35:15Z</time>
      </trkpt>
      <trkpt lat="45.17163" lon="7.00091">
        <ele>1236</ele>
        <time>2018-02-19T20:36:15Z</time>
      </trkpt>
      <trkpt lat="45.17239" lon="7.00057">
        <ele>1238</ele>
        <time>2018-02-19T20:37:15Z</time>
      </trkpt>
      <trkpt lat="45.17333" lon="7.00012">
        <ele>1245</ele>
        <time>2018-02-19T20:38:15Z</time>
      </trkpt>
      <trkpt lat="45.17369" lon="6.99989">
        <ele>1244</ele>
        <time>2018-02-19T20:39:15Z</time>
      </trkpt>
      <trkpt lat="45.1738" lon="6.9998">
        <ele>1245</ele>
        <time>2018-02-19T20:40:15Z</time>
      </trkpt>
      <trkpt lat="45.1739" lon="6.99968">
        <ele>1247</ele>
        <time>2018-02-19T20:41:15Z</time>
      </trkpt>
      <trkpt lat="45.17417" lon="6.99916">
        <ele>1256</ele>
        <time>2018-02-19T20:42:15Z</time>
      </trkpt>
      <trkpt lat="45.17517" lon="6.99788">
        <ele>1270</ele>
        <time>2018-02-19T20:43:15Z</time>
      </trkpt>
      <trkpt lat="45.17526" lon="6.9978">
        <ele>1272</ele>
        <time>2018-02-19T20:44:15Z</time>
      </trkpt>
      <trkpt lat="45.1754" lon="6.99775">
        <ele>1272</ele>
        <time>2018-02-19T20:45:15Z</time>
      </trkpt>
      <trkpt lat="45.17566" lon="6.99776">
        <ele>1269</ele>
        <time>2018-02-19T20:46:15Z</time>
      </trkpt>
      <trkpt lat="45.17581" lon="6.99771">
        <ele>1269</ele>
        <time>2018-02-19T20:47:15Z</time>
      </trkpt>
      <trkpt lat="45.17587" lon="6.99765">
        <ele>1270</ele>
        <time>2018-02-19T20:48:15Z</time>
      </trkpt>
      <trkpt lat="45.17617" lon="6.99713">
        <ele>1281</ele>
        <time>2018-02-19T20:49:15Z</time>
      </trkpt>
      <trkpt lat="45.17628" lon="6.99698">
        <ele>1283</ele>
        <time>2018-02-19T20:50:15Z</time>
      </trkpt>
      <trkpt lat="45.17641" lon="6.99686">
        <ele>1285</ele>
        <time>2018-02-19T20:51:15Z</time>
      </trkpt>
      <trkpt lat="45.17715" lon="6.9964">
        <ele>1295</ele>
        <time>2018-02-19T20:52:15Z</time>
      </trkpt>
      <trkpt lat="45.1777" lon="6.99616">
        <ele>1301</ele>
        <time>2018-02-19T20:53:15Z</time>
      </trkpt>
      <trkpt lat="45.17814" lon="6.99592">
        <ele>1306</ele>
        <time>2018-02-19T20:54:15Z</time>
      </trkpt>
      <trkpt lat="45.17839" lon="6.99572">
        <ele>1311</ele>
        <time>2018-02-19T20:55:15Z</time>
      </trkpt>
      <trkpt lat="45.17875" lon="6.99536">
        <ele>1323</ele>
        <time>2018-02-19T20:56:15Z</time>
      </trkpt>
      <trkpt lat="45.17888" lon="6.99532">
        <ele>1324</ele>
        <time>2018-02-19T20:57:15Z</time>
      </trkpt>
      <trkpt lat="45.17911" lon="6.99529">
        <ele>1323</ele>
        <time>2018-02-19T20:58:15Z</time>
      </trkpt>
      <trkpt lat="45.17931" lon="6.99532">
        <ele>1322</ele>
        <time>2018-02-19T20:59:15Z</time>
      </trkpt>
      <trkpt lat="45.17948" lon="6.99544">
        <ele>1318</ele>
        <time>2018-02-19T21:00:15Z</time>
      </trkpt>
      <trkpt lat="45.17973" lon="6.9957">
        <ele>1310</ele>
        <time>2018-02-19T21:01:15Z</time>
      </trkpt>
      <trkpt lat="45.17983" lon="6.99573">
        <ele>1310</ele>
        <time>2018-02-19T21:02:15Z</time>
      </trkpt>
      <trkpt lat="45.18023" lon="6.9958">
        <ele>1309</ele>
        <time>2018-02-19T21:03:15Z</time>
      </trkpt>
      <trkpt lat="45.18041" lon="6.99576">
        <ele>1310</ele>
        <time>2018-02-19T21:04:15Z</time>
      </trkpt>
      <trkpt lat="45.18056" lon="6.99567">
        <ele>1312</ele>
        <time>2018-02-19T21:05:15Z</time>
      </trkpt>
      <trkpt lat="45.18075" lon="6.99543">
        <ele>1319</ele>
        <time>2018-02-19T21:06:15Z</time>
      </trkpt>
      <trkpt lat="45.18089" lon="6.99518">
        <ele>1323</ele>
        <time>2018-02-19T21:07:15Z</time>
      </trkpt>
      <trkpt lat="45.18102" lon="6.99491">
        <ele>1326</ele>
        <time>2018-02-19T21:08:15Z</time>
      </trkpt>
      <trkpt lat="45.18124" lon="6.99438">
        <ele>1332</ele>
        <time>2018-02-19T21:09:15Z</time>
      </trkpt>
      <trkpt lat="45.18134" lon="6.9941">
        <ele>1335</ele>
        <time>2018-02-19T21:10:15Z</time>
      </trkpt>
      <trkpt lat="45.18148" lon="6.99356">
        <ele>1342</ele>
        <time>2018-02-19T21:11:15Z</time>
      </trkpt>
      <trkpt lat="45.18173" lon="6.99251">
        <ele>1352</ele>
        <time>2018-02-19T21:12:15Z</time>
      </trkpt>
      <trkpt lat="45.1819" lon="6.99199">
        <ele>1357</ele>
        <time>2018-02-19T21:13:15Z</time>
      </trkpt>
      <trkpt lat="45.18201" lon="6.99173">
        <ele>1358</ele>
        <time>2018-02-19T21:14:15Z</time>
      </trkpt>
      <trkpt lat="45.18312" lon="6.9893">
        <ele>1373</ele>
        <time>2018-02-19T21:15:15Z</time>
      </trkpt>
      <trkpt lat="45.18319" lon="6.989">
        <ele>1374</ele>
        <time>2018-02-19T21:16:15Z</time>
      </trkpt>
      <trkpt lat="45.18319" lon="6.98878">
        <ele>1377</ele>
        <time>2018-02-19T21:17:15Z</time>
      </trkpt>
      <trkpt lat="45.18303" lon="6.98816">
        <ele>1395</ele>
        <time>2018-02-19T21:18:15Z</time>
      </trkpt>
      <trkpt lat="45.18302" lon="6.98793">
        <ele>1401</ele>
        <time>2018-02-19T21:19:15Z</time>
      </trkpt>
      <trkpt lat="45.18306" lon="6.98778">
        <ele>1403</ele>
        <time>2018-02-19T21:20:15Z</time>
      </trkpt>
      <trkpt lat="45.18316" lon="6.98765">
        <ele>1402</ele>
        <time>2018-02-19T21:21:15Z</time>
      </trkpt>
      <trkpt lat="45.18326" lon="6.98761">
        <ele>1399</ele>
        <time>2018-02-19T21:22:15Z</time>
      </trkpt>
      <trkpt lat="45.18358" lon="6.98764">
        <ele>1389</ele>
        <time>2018-02-19T21:23:15Z</time>
      </trkpt>
      <trkpt lat="45.18365" lon="6.98762">
        <ele>1387</ele>
        <time>2018-02-19T21:24:15Z</time>
      </trkpt>
      <trkpt lat="45.18373" lon="6.98755">
        <ele>1387</ele>
        <time>2018-02-19T21:25:15Z</time>
      </trkpt>
      <trkpt lat="45.18381" lon="6.98743">
        <ele>1389</ele>
        <time>2018-02-19T21:26:15Z</time>
      </trkpt>
      <trkpt lat="45.18446" lon="6.98606">
        <ele>1400</ele>
        <time>2018-02-19T21:27:15Z</time>
      </trkpt>
      <trkpt lat="45.18458" lon="6.98576">
        <ele>1402</ele>
        <time>2018-02-19T21:28:15Z</time>
      </trkpt>
      <trkpt lat="45.18463" lon="6.98558">
        <ele>1402</ele>
        <time>2018-02-19T21:29:15Z</time>
      </trkpt>
      <trkpt lat="45.18468" lon="6.98521">
        <ele>1405</ele>
        <time>2018-02-19T21:30:15Z</time>
      </trkpt>
      <trkpt lat="45.18469" lon="6.98469">
        <ele>1411</ele>
        <time>2018-02-19T21:31:15Z</time>
      </trkpt>
      <trkpt lat="45.18472" lon="6.98456">
        <ele>1411</ele>
        <time>2018-02-19T21:32:15Z</time>
      </trkpt>
      <trkpt lat="45.1849" lon="6.9841">
        <ele>1411</ele>
        <time>2018-02-19T21:33:15Z</time>
      </trkpt>
      <trkpt lat="45.18496" lon="6.98391">
        <ele>1411</ele>
        <time>2018-02-19T21:34:15Z</time>
      </trkpt>
      <trkpt lat="45.18499" lon="6.98373">
        <ele>1412</ele>
        <time>2018-02-19T21:35:15Z</time>
      </trkpt>
      <trkpt lat="45.18503" lon="6.9826">
        <ele>1424</ele>
        <time>2018-02-19T21:36:15Z</time>
      </trkpt>
      <trkpt lat="45.18508" lon="6.98221">
        <ele>1429</ele>
        <time>2018-02-19T21:37:15Z</time>
      </trkpt>
      <trkpt lat="45.18534" lon="6.98112">
        <ele>1442</ele>
        <time>2018-02-19T21:38:15Z</time>
      </trkpt>
      <trkpt lat="45.18542" lon="6.98093">
        <ele>1443</ele>
        <time>2018-02-19T21:39:15Z</time>
      </trkpt>
      <trkpt lat="45.18554" lon="6.98077">
        <ele>1442</ele>
        <time>2018-02-19T21:40:15Z</time>
      </trkpt>
      <trkpt lat="45.18599" lon="6.98038">
        <ele>1437</ele>
        <time>2018-02-19T21:41:15Z</time>
      </trkpt>
      <trkpt lat="45.18615" lon="6.98016">
        <ele>1438</ele>
        <time>2018-02-19T21:42:15Z</time>
      </trkpt>
      <trkpt lat="45.18628" lon="6.97984">
        <ele>1441</ele>
        <time>2018-02-19T21:43:15Z</time>
      </trkpt>
      <trkpt lat="45.18649" lon="6.97917">
        <ele>1447</ele>
        <time>2018-02-19T21:44:15Z</time>
      </trkpt>
      <trkpt lat="45.1869" lon="6.97807">
        <ele>1462</ele>
        <time>2018-02-19T21:45:15Z</time>
      </trkpt>
      <trkpt lat="45.18696" lon="6.97797">
        <ele>1464</ele>
        <time>2018-02-19T21:46:15Z</time>
      </trkpt>
      <trkpt lat="45.18702" lon="6.97791">
        <ele>1466</ele>
        <time>2018-02-19T21:47:15Z</time>
      </trkpt>
      <trkpt lat="45.18709" lon="6.97788">
        <ele>1467</ele>
        <time>2018-02-19T21:48:15Z</time>
      </trkpt>
      <trkpt lat="45.18719" lon="6.97788">
        <ele>1467</ele>
        <time>2018-02-19T21:49:15Z</time>
      </trkpt>
      <trkpt lat="45.1873" lon="6.97794">
        <ele>1466</ele>
        <time>2018-02-19T21:50:15Z</time>
      </trkpt>
      <trkpt lat="45.18763" lon="6.97844">
        <ele>1457</ele>
        <time>2018-02-19T21:51:15Z</time>
      </trkpt>
      <trkpt lat="45.18775" lon="6.97857">
        <ele>1457</ele>
        <time>2018-02-19T21:52:15Z</time>
      </trkpt>
      <trkpt lat="45.18859" lon="6.97893">
        <ele>1462</ele>
        <time>2018-02-19T21:53:15Z</time>
      </trkpt>
      <trkpt lat="45.18865" lon="6.9789">
        <ele>1463</ele>
        <time>2018-02-19T21:54:15Z</time>
      </trkpt>
      <trkpt lat="45.18868" lon="6.97885">
        <ele>1464</ele>
        <time>2018-02-19T21:55:15Z</time>
      </trkpt>
      <trkpt lat="45.18889" lon="6.97838">
        <ele>1474</ele>
        <time>2018-02-19T21:56:15Z</time>
      </trkpt>
      <trkpt lat="45.1889" lon="6.97827">
        <ele>1476</ele>
        <time>2018-02-19T21:57:15Z</time>
      </trkpt>
      <trkpt lat="45.18883" lon="6.97798">
        <ele>1479</ele>
        <time>2018-02-19T21:58:15Z</time>
      </trkpt>
      <trkpt lat="45.18879" lon="6.97772">
        <ele>1483</ele>
        <time>2018-02-19T21:59:15Z</time>
      </trkpt>
      <trkpt lat="45.18882" lon="6.9776">
        <ele>1484</ele>
        <time>2018-02-19T22:00:15Z</time>
      </trkpt>
      <trkpt lat="45.18886" lon="6.97756">
        <ele>1484</ele>
        <time>2018-02-19T22:01:15Z</time>
      </trkpt>
      <trkpt lat="45.18893" lon="6.97753">
        <ele>1484</ele>
        <time>2018-02-19T22:02:15Z</time>
      </trkpt>
      <trkpt lat="45.18912" lon="6.97759">
        <ele>1482</ele>
        <time>2018-02-19T22:03:15Z</time>
      </trkpt>
      <trkpt lat="45.18924" lon="6.97768">
        <ele>1484</ele>
        <time>2018-02-19T22:04:15Z</time>
      </trkpt>
      <trkpt lat="45.18968" lon="6.97821">
        <ele>1489</ele>
        <time>2018-02-19T22:05:15Z</time>
      </trkpt>
      <trkpt lat="45.18991" lon="6.97851">
        <ele>1489</ele>
        <time>2018-02-19T22:06:15Z</time>
      </trkpt>
      <trkpt lat="45.19002" lon="6.97874">
        <ele>1488</ele>
        <time>2018-02-19T22:07:15Z</time>
      </trkpt>
      <trkpt lat="45.19007" lon="6.97888">
        <ele>1489</ele>
        <time>2018-02-19T22:08:15Z</time>
      </trkpt>
      <trkpt lat="45.19015" lon="6.97921">
        <ele>1490</ele>
        <time>2018-02-19T22:09:15Z</time>
      </trkpt>
      <trkpt lat="45.19024" lon="6.97979">
        <ele>1495</ele>
        <time>2018-02-19T22:10:15Z</time>
      </trkpt>
      <trkpt lat="45.19025" lon="6.97996">
        <ele>1495</ele>
        <time>2018-02-19T22:11:15Z</time>
      </trkpt>
      <trkpt lat="45.19022" lon="6.98067">
        <ele>1490</ele>
        <time>2018-02-19T22:12:15Z</time>
      </trkpt>
      <trkpt lat="45.19025" lon="6.98089">
        <ele>1491</ele>
        <time>2018-02-19T22:13:15Z</time>
      </trkpt>
      <trkpt lat="45.19083" lon="6.98269">
        <ele>1508</ele>
        <time>2018-02-19T22:14:15Z</time>
      </trkpt>
      <trkpt lat="45.19092" lon="6.98308">
        <ele>1507</ele>
        <time>2018-02-19T22:15:15Z</time>
      </trkpt>
      <trkpt lat="45.19101" lon="6.98359">
        <ele>1505</ele>
        <time>2018-02-19T22:16:15Z</time>
      </trkpt>
      <trkpt lat="45.19107" lon="6.98378">
        <ele>1506</ele>
        <time>2018-02-19T22:17:15Z</time>
      </trkpt>
      <trkpt lat="45.19119" lon="6.98401">
        <ele>1509</ele>
        <time>2018-02-19T22:18:15Z</time>
      </trkpt>
      <trkpt lat="45.19149" lon="6.98437">
        <ele>1519</ele>
        <time>2018-02-19T22:19:15Z</time>
      </trkpt>
      <trkpt lat="45.19167" lon="6.98476">
        <ele>1520</ele>
        <time>2018-02-19T22:20:15Z</time>
      </trkpt>
      <trkpt lat="45.19196" lon="6.98508">
        <ele>1522</ele>
        <time>2018-02-19T22:21:15Z</time>
      </trkpt>
      <trkpt lat="45.1922" lon="6.98543">
        <ele>1525</ele>
        <time>2018-02-19T22:22:15Z</time>
      </trkpt>
      <trkpt lat="45.19235" lon="6.98553">
        <ele>1527</ele>
        <time>2018-02-19T22:23:15Z</time>
      </trkpt>
      <trkpt lat="45.19246" lon="6.98557">
        <ele>1529</ele>
        <time>2018-02-19T22:24:15Z</time>
      </trkpt>
      <trkpt lat="45.1927" lon="6.98557">
        <ele>1531</ele>
        <time>2018-02-19T22:25:15Z</time>
      </trkpt>
      <trkpt lat="45.19279" lon="6.98554">
        <ele>1532</ele>
        <time>2018-02-19T22:26:15Z</time>
      </trkpt>
      <trkpt lat="45.19307" lon="6.98533">
        <ele>1537</ele>
        <time>2018-02-19T22:27:15Z</time>
      </trkpt>
      <trkpt lat="45.19314" lon="6.98529">
        <ele>1538</ele>
        <time>2018-02-19T22:28:15Z</time>
      </trkpt>
      <trkpt lat="45.1933" lon="6.98528">
        <ele>1539</ele>
        <time>2018-02-19T22:29:15Z</time>
      </trkpt>
      <trkpt lat="45.19376" lon="6.98533">
        <ele>1540</ele>
        <time>2018-02-19T22:30:15Z</time>
      </trkpt>
      <trkpt lat="45.1939" lon="6.9853">
        <ele>1541</ele>
        <time>2018-02-19T22:31:15Z</time>
      </trkpt>
      <trkpt lat="45.19398" lon="6.98525">
        <ele>1543</ele>
        <time>2018-02-19T22:32:15Z</time>
      </trkpt>
      <trkpt lat="45.19423" lon="6.98497">
        <ele>1548</ele>
        <time>2018-02-19T22:33:15Z</time>
      </trkpt>
      <trkpt lat="45.19436" lon="6.9849">
        <ele>1551</ele>
        <time>2018-02-19T22:34:15Z</time>
      </trkpt>
      <trkpt lat="45.19443" lon="6.98489">
        <ele>1551</ele>
        <time>2018-02-19T22:35:15Z</time>
      </trkpt>
      <trkpt lat="45.19454" lon="6.98491">
        <ele>1551</ele>
        <time>2018-02-19T22:36:15Z</time>
      </trkpt>
      <trkpt lat="45.19479" lon="6.98499">
        <ele>1550</ele>
        <time>2018-02-19T22:37:15Z</time>
      </trkpt>
      <trkpt lat="45.19493" lon="6.98499">
        <ele>1550</ele>
        <time>2018-02-19T22:38:15Z</time>
      </trkpt>
      <trkpt lat="45.19553" lon="6.9846">
        <ele>1558</ele>
        <time>2018-02-19T22:39:15Z</time>
      </trkpt>
      <trkpt lat="45.19567" lon="6.98447">
        <ele>1560</ele>
        <time>2018-02-19T22:40:15Z</time>
      </trkpt>
      <trkpt lat="45.19587" lon="6.98418">
        <ele>1564</ele>
        <time>2018-02-19T22:41:15Z</time>
      </trkpt>
      <trkpt lat="45.19602" lon="6.98404">
        <ele>1566</ele>
        <time>2018-02-19T22:42:15Z</time>
      </trkpt>
      <trkpt lat="45.19611" lon="6.98399">
        <ele>1567</ele>
        <time>2018-02-19T22:43:15Z</time>
      </trkpt>
      <trkpt lat="45.19645" lon="6.9839">
        <ele>1567</ele>
        <time>2018-02-19T22:44:15Z</time>
      </trkpt>
      <trkpt lat="45.19652" lon="6.98386">
        <ele>1568</ele>
        <time>2018-02-19T22:45:15Z</time>
      </trkpt>
      <trkpt lat="45.19661" lon="6.98374">
        <ele>1569</ele>
        <time>2018-02-19T22:46:15Z</time>
      </trkpt>
      <trkpt lat="45.19699" lon="6.98288">
        <ele>1573</ele>
        <time>2018-02-19T22:47:15Z</time>
      </trkpt>
      <trkpt lat="45.19707" lon="6.98263">
        <ele>1574</ele>
        <time>2018-02-19T22:48:15Z</time>
      </trkpt>
      <trkpt lat="45.19708" lon="6.98235">
        <ele>1577</ele>
        <time>2018-02-19T22:49:15Z</time>
      </trkpt>
      <trkpt lat="45.19698" lon="6.98179">
        <ele>1589</ele>
        <time>2018-02-19T22:50:15Z</time>
      </trkpt>
      <trkpt lat="45.19697" lon="6.98163">
        <ele>1591</ele>
        <time>2018-02-19T22:51:15Z</time>
      </trkpt>
      <trkpt lat="45.19698" lon="6.98145">
        <ele>1593</ele>
        <time>2018-02-19T22:52:15Z</time>
      </trkpt>
      <trkpt lat="45.19702" lon="6.98086">
        <ele>1600</ele>
        <time>2018-02-19T22:53:15Z</time>
      </trkpt>
      <trkpt lat="45.1971" lon="6.98053">
        <ele>1606</ele>
        <time>2018-02-19T22:54:15Z</time>
      </trkpt>
      <trkpt lat="45.19716" lon="6.98037">
        <ele>1608</ele>
        <time>2018-02-19T22:55:15Z</time>
      </trkpt>
      <trkpt lat="45.19723" lon="6.98026">
        <ele>1608</ele>
        <time>2018-02-19T22:56:15Z</time>
      </trkpt>
      <trkpt lat="45.19733" lon="6.98015">
        <ele>1606</ele>
        <time>2018-02-19T22:57:15Z</time>
      </trkpt>
      <trkpt lat="45.19744" lon="6.98007">
        <ele>1603</ele>
        <time>2018-02-19T22:58:15Z</time>
      </trkpt>
      <trkpt lat="45.19788" lon="6.97991">
        <ele>1599</ele>
        <time>2018-02-19T22:59:15Z</time>
      </trkpt>
      <trkpt lat="45.19798" lon="6.97983">
        <ele>1600</ele>
        <time>2018-02-19T23:00:15Z</time>
      </trkpt>
      <trkpt lat="45.19806" lon="6.97973">
        <ele>1601</ele>
        <time>2018-02-19T23:01:15Z</time>
      </trkpt>
      <trkpt lat="45.19817" lon="6.97948">
        <ele>1605</ele>
        <time>2018-02-19T23:02:15Z</time>
      </trkpt>
      <trkpt lat="45.19824" lon="6.97925">
        <ele>1608</ele>
        <time>2018-02-19T23:03:15Z</time>
      </trkpt>
      <trkpt lat="45.19837" lon="6.97855">
        <ele>1616</ele>
        <time>2018-02-19T23:04:15Z</time>
      </trkpt>
      <trkpt lat="45.19843" lon="6.97835">
        <ele>1618</ele>
        <time>2018-02-19T23:05:15Z</time>
      </trkpt>
      <trkpt lat="45.19857" lon="6.97817">
        <ele>1619</ele>
        <time>2018-02-19T23:06:15Z</time>
      </trkpt>
      <trkpt lat="45.1988" lon="6.97797">
        <ele>1618</ele>
        <time>2018-02-19T23:07:15Z</time>
      </trkpt>
      <trkpt lat="45.19892" lon="6.97783">
        <ele>1618</ele>
        <time>2018-02-19T23:08:15Z</time>
      </trkpt>
      <trkpt lat="45.19902" lon="6.97767">
        <ele>1619</ele>
        <time>2018-02-19T23:09:15Z</time>
      </trkpt>
      <trkpt lat="45.19913" lon="6.97747">
        <ele>1621</ele>
        <time>2018-02-19T23:10:15Z</time>
      </trkpt>
      <trkpt lat="45.19921" lon="6.97726">
        <ele>1622</ele>
        <time>2018-02-19T23:11:15Z</time>
      </trkpt>
      <trkpt lat="45.19969" lon="6.97538">
        <ele>1634</ele>
        <time>2018-02-19T23:12:15Z</time>
      </trkpt>
      <trkpt lat="45.19973" lon="6.97504">
        <ele>1637</ele>
        <time>2018-02-19T23:13:15Z</time>
      </trkpt>
      <trkpt lat="45.19971" lon="6.97444">
        <ele>1647</ele>
        <time>2018-02-19T23:14:15Z</time>
      </trkpt>
      <trkpt lat="45.19973" lon="6.97426">
        <ele>1648</ele>
        <time>2018-02-19T23:15:15Z</time>
      </trkpt>
      <trkpt lat="45.19976" lon="6.97409">
        <ele>1649</ele>
        <time>2018-02-19T23:16:15Z</time>
      </trkpt>
      <trkpt lat="45.20022" lon="6.97233">
        <ele>1658</ele>
        <time>2018-02-19T23:17:15Z</time>
      </trkpt>
      <trkpt lat="45.2004" lon="6.97172">
        <ele>1667</ele>
        <time>2018-02-19T23:18:15Z</time>
      </trkpt>
      <trkpt lat="45.20055" lon="6.97147">
        <ele>1669</ele>
        <time>2018-02-19T23:19:15Z</time>
      </trkpt>
      <trkpt lat="45.20156" lon="6.97015">
        <ele>1672</ele>
        <time>2018-02-19T23:20:15Z</time>
      </trkpt>
      <trkpt lat="45.20206" lon="6.96954">
        <ele>1675</ele>
        <time>2018-02-19T23:21:15Z</time>
      </trkpt>
      <trkpt lat="45.20219" lon="6.96929">
        <ele>1678</ele>
        <time>2018-02-19T23:22:15Z</time>
      </trkpt>
      <trkpt lat="45.20252" lon="6.96835">
        <ele>1686</ele>
        <time>2018-02-19T23:23:15Z</time>
      </trkpt>
      <trkpt lat="45.20261" lon="6.96821">
        <ele>1688</ele>
        <time>2018-02-19T23:24:15Z</time>
      </trkpt>
      <trkpt lat="45.20325" lon="6.96777">
        <ele>1687</ele>
        <time>2018-02-19T23:25:15Z</time>
      </trkpt>
      <trkpt lat="45.20377" lon="6.96736">
        <ele>1687</ele>
        <time>2018-02-19T23:26:15Z</time>
      </trkpt>
      <trkpt lat="45.20386" lon="6.9672">
        <ele>1689</ele>
        <time>2018-02-19T23:27:15Z</time>
      </trkpt>
      <trkpt lat="45.2039" lon="6.96709">
        <ele>1690</ele>
        <time>2018-02-19T23:28:15Z</time>
      </trkpt>
      <trkpt lat="45.20448" lon="6.96475">
        <ele>1713</ele>
        <time>2018-02-19T23:29:15Z</time>
      </trkpt>
      <trkpt lat="45.2046" lon="6.96434">
        <ele>1714</ele>
        <time>2018-02-19T23:30:15Z</time>
      </trkpt>
      <trkpt lat="45.20473" lon="6.96395">
        <ele>1716</ele>
        <time>2018-02-19T23:31:15Z</time>
      </trkpt>
      <trkpt lat="45.20481" lon="6.96374">
        <ele>1717</ele>
        <time>2018-02-19T23:32:15Z</time>
      </trkpt>
      <trkpt lat="45.20504" lon="6.96332">
        <ele>1717</ele>
        <time>2018-02-19T23:33:15Z</time>
      </trkpt>
      <trkpt lat="45.20512" lon="6.96322">
        <ele>1718</ele>
        <time>2018-02-19T23:34:15Z</time>
      </trkpt>
      <trkpt lat="45.20538" lon="6.96296">
        <ele>1718</ele>
        <time>2018-02-19T23:35:15Z</time>
      </trkpt>
      <trkpt lat="45.20562" lon="6.96277">
        <ele>1715</ele>
        <time>2018-02-19T23:36:15Z</time>
      </trkpt>
      <trkpt lat="45.20587" lon="6.96252">
        <ele>1713</ele>
        <time>2018-02-19T23:37:15Z</time>
      </trkpt>
      <trkpt lat="45.20639" lon="6.96154">
        <ele>1724</ele>
        <time>2018-02-19T23:38:15Z</time>
      </trkpt>
      <trkpt lat="45.20668" lon="6.96116">
        <ele>1727</ele>
        <time>2018-02-19T23:39:15Z</time>
      </trkpt>
      <trkpt lat="45.20704" lon="6.96083">
        <ele>1731</ele>
        <time>2018-02-19T23:40:15Z</time>
      </trkpt>
      <trkpt lat="45.20719" lon="6.96071">
        <ele>1731</ele>
        <time>2018-02-19T23:41:15Z</time>
      </trkpt>
      <trkpt lat="45.21442" lon="6.95593">
        <ele>1739</ele>
        <time>2018-02-19T23:42:15Z</time>
      </trkpt>
      <trkpt lat="45.21464" lon="6.95582">
        <ele>1743</ele>
        <time>2018-02-19T23:43:15Z</time>
      </trkpt>
      <trkpt lat="45.21472" lon="6.95581">
        <ele>1745</ele>
        <time>2018-02-19T23:44:15Z</time>
      </trkpt>
      <trkpt lat="45.21486" lon="6.95584">
        <ele>1747</ele>
        <time>2018-02-19T23:45:15Z</time>
      </trkpt>
      <trkpt lat="45.21498" lon="6.95592">
        <ele>1748</ele>
        <time>2018-02-19T23:46:15Z</time>
      </trkpt>
      <trkpt lat="45.21552" lon="6.95663">
        <ele>1757</ele>
        <time>2018-02-19T23:47:15Z</time>
      </trkpt>
      <trkpt lat="45.21558" lon="6.9568">
        <ele>1759</ele>
        <time>2018-02-19T23:48:15Z</time>
      </trkpt>
      <trkpt lat="45.21558" lon="6.95705">
        <ele>1761</ele>
        <time>2018-02-19T23:49:15Z</time>
      </trkpt>
      <trkpt lat="45.21535" lon="6.95785">
        <ele>1767</ele>
        <time>2018-02-19T23:50:15Z</time>
      </trkpt>
      <trkpt lat="45.21535" lon="6.95791">
        <ele>1769</ele>
        <time>2018-02-19T23:51:15Z</time>
      </trkpt>
      <trkpt lat="45.21537" lon="6.95799">
        <ele>1772</ele>
        <time>2018-02-19T23:52:15Z</time>
      </trkpt>
      <trkpt lat="45.21542" lon="6.95801">
        <ele>1775</ele>
        <time>2018-02-19T23:53:15Z</time>
      </trkpt>
      <trkpt lat="45.21548" lon="6.95797">
        <ele>1776</ele>
        <time>2018-02-19T23:54:15Z</time>
      </trkpt>
      <trkpt lat="45.21563" lon="6.9577">
        <ele>1774</ele>
        <time>2018-02-19T23:55:15Z</time>
      </trkpt>
      <trkpt lat="45.21573" lon="6.95747">
        <ele>1770</ele>
        <time>2018-02-19T23:56:15Z</time>
      </trkpt>
      <trkpt lat="45.21584" lon="6.95718">
        <ele>1771</ele>
        <time>2018-02-19T23:57:15Z</time>
      </trkpt>
      <trkpt lat="45.21589" lon="6.95701">
        <ele>1772</ele>
        <time>2018-02-19T23:58:15Z</time>
      </trkpt>
      <trkpt lat="45.2159" lon="6.95687">
        <ele>1771</ele>
        <time>2018-02-19T23:59:15Z</time>
      </trkpt>
      <trkpt lat="45.2159" lon="6.95667">
        <ele>1769</ele>
        <time>2018-02-20T00:00:15Z</time>
      </trkpt>
      <trkpt lat="45.21581" lon="6.95634">
        <ele>1771</ele>
        <time>2018-02-20T00:01:15Z</time>
      </trkpt>
      <trkpt lat="45.21558" lon="6.95584">
        <ele>1772</ele>
        <time>2018-02-20T00:02:15Z</time>
      </trkpt>
      <trkpt lat="45.21521" lon="6.95521">
        <ele>1772</ele>
        <time>2018-02-20T00:03:15Z</time>
      </trkpt>
      <trkpt lat="45.21497" lon="6.95495">
        <ele>1765</ele>
        <time>2018-02-20T00:04:15Z</time>
      </trkpt>
      <trkpt lat="45.21482" lon="6.95475">
        <ele>1764</ele>
        <time>2018-02-20T00:05:15Z</time>
      </trkpt>
      <trkpt lat="45.21481" lon="6.9547">
        <ele>1765</ele>
        <time>2018-02-20T00:06:15Z</time>
      </trkpt>
      <trkpt lat="45.21482" lon="6.95463">
        <ele>1766</ele>
        <time>2018-02-20T00:07:15Z</time>
      </trkpt>
      <trkpt lat="45.21486" lon="6.95459">
        <ele>1768</ele>
        <time>2018-02-20T00:08:15Z</time>
      </trkpt>
      <trkpt lat="45.2149" lon="6.9546">
        <ele>1770</ele>
        <time>2018-02-20T00:09:15Z</time>
      </trkpt>
      <trkpt lat="45.21497" lon="6.95468">
        <ele>1770</ele>
        <time>2018-02-20T00:10:15Z</time>
      </trkpt>
      <trkpt lat="45.21514" lon="6.95494">
        <ele>1774</ele>
        <time>2018-02-20T00:11:15Z</time>
      </trkpt>
      <trkpt lat="45.21534" lon="6.95515">
        <ele>1780</ele>
        <time>2018-02-20T00:12:15Z</time>
      </trkpt>
      <trkpt lat="45.21584" lon="6.9558">
        <ele>1783</ele>
        <time>2018-02-20T00:13:15Z</time>
      </trkpt>
      <trkpt lat="45.21602" lon="6.95611">
        <ele>1786</ele>
        <time>2018-02-20T00:14:15Z</time>
      </trkpt>
      <trkpt lat="45.21611" lon="6.95622">
        <ele>1787</ele>
        <time>2018-02-20T00:15:15Z</time>
      </trkpt>
      <trkpt lat="45.21642" lon="6.95647">
        <ele>1796</ele>
        <time>2018-02-20T00:16:15Z</time>
      </trkpt>
      <trkpt lat="45.21653" lon="6.95658">
        <ele>1798</ele>
        <time>2018-02-20T00:17:15Z</time>
      </trkpt>
      <trkpt lat="45.21659" lon="6.95675">
        <ele>1800</ele>
        <time>2018-02-20T00:18:15Z</time>
      </trkpt>
      <trkpt lat="45.21658" lon="6.95691">
        <ele>1802</ele>
        <time>2018-02-20T00:19:15Z</time>
      </trkpt>
      <trkpt lat="45.2165" lon="6.95708">
        <ele>1801</ele>
        <time>2018-02-20T00:20:15Z</time>
      </trkpt>
      <trkpt lat="45.2163" lon="6.95724">
        <ele>1793</ele>
        <time>2018-02-20T00:21:15Z</time>
      </trkpt>
      <trkpt lat="45.21627" lon="6.95729">
        <ele>1792</ele>
        <time>2018-02-20T00:22:15Z</time>
      </trkpt>
      <trkpt lat="45.21627" lon="6.95735">
        <ele>1793</ele>
        <time>2018-02-20T00:23:15Z</time>
      </trkpt>
      <trkpt lat="45.21629" lon="6.9574">
        <ele>1795</ele>
        <time>2018-02-20T00:24:15Z</time>
      </trkpt>
      <trkpt lat="45.21631" lon="6.95743">
        <ele>1796</ele>
        <time>2018-02-20T00:25:15Z</time>
      </trkpt>
      <trkpt lat="45.21637" lon="6.95744">
        <ele>1799</ele>
        <time>2018-02-20T00:26:15Z</time>
      </trkpt>
      <trkpt lat="45.21685" lon="6.95708">
        <ele>1814</ele>
        <time>2018-02-20T00:27:15Z</time>
      </trkpt>
      <trkpt lat="45.21692" lon="6.95695">
        <ele>1814</ele>
        <time>2018-02-20T00:28:15Z</time>
      </trkpt>
      <trkpt lat="45.21694" lon="6.95679">
        <ele>1813</ele>
        <time>2018-02-20T00:29:15Z</time>
      </trkpt>
      <trkpt lat="45.21693" lon="6.95668">
        <ele>1811</ele>
        <time>2018-02-20T00:30:15Z</time>
      </trkpt>
      <trkpt lat="45.21688" lon="6.95648">
        <ele>1813</ele>
        <time>2018-02-20T00:31:15Z</time>
      </trkpt>
      <trkpt lat="45.21682" lon="6.95638">
        <ele>1814</ele>
        <time>2018-02-20T00:32:15Z</time>
      </trkpt>
      <trkpt lat="45.21622" lon="6.95572">
        <ele>1804</ele>
        <time>2018-02-20T00:33:15Z</time>
      </trkpt>
      <trkpt lat="45.21617" lon="6.95564">
        <ele>1804</ele>
        <time>2018-02-20T00:34:15Z</time>
      </trkpt>
      <trkpt lat="45.2161" lon="6.95547">
        <ele>1806</ele>
        <time>2018-02-20T00:35:15Z</time>
      </trkpt>
      <trkpt lat="45.21607" lon="6.95523">
        <ele>1812</ele>
        <time>2018-02-20T00:36:15Z</time>
      </trkpt>
      <trkpt lat="45.21609" lon="6.95472">
        <ele>1822</ele>
        <time>2018-02-20T00:37:15Z</time>
      </trkpt>
      <trkpt lat="45.21608" lon="6.95442">
        <ele>1825</ele>
        <time>2018-02-20T00:38:15Z</time>
      </trkpt>
      <trkpt lat="45.21601" lon="6.95417">
        <ele>1827</ele>
        <time>2018-02-20T00:39:15Z</time>
      </trkpt>
      <trkpt lat="45.21588" lon="6.95387">
        <ele>1830</ele>
        <time>2018-02-20T00:40:15Z</time>
      </trkpt>
      <trkpt lat="45.21588" lon="6.95378">
        <ele>1832</ele>
        <time>2018-02-20T00:41:15Z</time>
      </trkpt>
      <trkpt lat="45.21592" lon="6.95374">
        <ele>1833</ele>
        <time>2018-02-20T00:42:15Z</time>
      </trkpt>
      <trkpt lat="45.21598" lon="6.95375">
        <ele>1834</ele>
        <time>2018-02-20T00:43:15Z</time>
      </trkpt>
      <trkpt lat="45.21619" lon="6.95401">
        <ele>1833</ele>
        <time>2018-02-20T00:44:15Z</time>
      </trkpt>
      <trkpt lat="45.21625" lon="6.95413">
        <ele>1832</ele>
        <time>2018-02-20T00:45:15Z</time>
      </trkpt>
      <trkpt lat="45.21628" lon="6.95423">
        <ele>1832</ele>
        <time>2018-02-20T00:46:15Z</time>
      </trkpt>
      <trkpt lat="45.21636" lon="6.9549">
        <ele>1830</ele>
        <time>2018-02-20T00:47:15Z</time>
      </trkpt>
      <trkpt lat="45.21638" lon="6.95502">
        <ele>1830</ele>
        <time>2018-02-20T00:48:15Z</time>
      </trkpt>
      <trkpt lat="45.21642" lon="6.95512">
        <ele>1829</ele>
        <time>2018-02-20T00:49:15Z</time>
      </trkpt>
      <trkpt lat="45.21651" lon="6.95525">
        <ele>1829</ele>
        <time>2018-02-20T00:50:15Z</time>
      </trkpt>
      <trkpt lat="45.21658" lon="6.95529">
        <ele>1831</ele>
        <time>2018-02-20T00:51:15Z</time>
      </trkpt>
      <trkpt lat="45.21704" lon="6.95544">
        <ele>1839</ele>
        <time>2018-02-20T00:52:15Z</time>
      </trkpt>
      <trkpt lat="45.21715" lon="6.95542">
        <ele>1841</ele>
        <time>2018-02-20T00:53:15Z</time>
      </trkpt>
      <trkpt lat="45.21719" lon="6.95538">
        <ele>1843</ele>
        <time>2018-02-20T00:54:15Z</time>
      </trkpt>
      <trkpt lat="45.21721" lon="6.95526">
        <ele>1844</ele>
        <time>2018-02-20T00:55:15Z</time>
      </trkpt>
      <trkpt lat="45.21714" lon="6.95475">
        <ele>1847</ele>
        <time>2018-02-20T00:56:15Z</time>
      </trkpt>
      <trkpt lat="45.21715" lon="6.95456">
        <ele>1848</ele>
        <time>2018-02-20T00:57:15Z</time>
      </trkpt>
      <trkpt lat="45.21717" lon="6.95448">
        <ele>1848</ele>
        <time>2018-02-20T00:58:15Z</time>
      </trkpt>
      <trkpt lat="45.21722" lon="6.95442">
        <ele>1849</ele>
        <time>2018-02-20T00:59:15Z</time>
      </trkpt>
      <trkpt lat="45.21732" lon="6.95437">
        <ele>1851</ele>
        <time>2018-02-20T01:00:15Z</time>
      </trkpt>
      <trkpt lat="45.21742" lon="6.95439">
        <ele>1853</ele>
        <time>2018-02-20T01:01:15Z</time>
      </trkpt>
      <trkpt lat="45.2177" lon="6.95458">
        <ele>1856</ele>
        <time>2018-02-20T01:02:15Z</time>
      </trkpt>
      <trkpt lat="45.21783" lon="6.95474">
        <ele>1859</ele>
        <time>2018-02-20T01:03:15Z</time>
      </trkpt>
      <trkpt lat="45.21787" lon="6.95484">
        <ele>1860</ele>
        <time>2018-02-20T01:04:15Z</time>
      </trkpt>
      <trkpt lat="45.21791" lon="6.95499">
        <ele>1861</ele>
        <time>2018-02-20T01:05:15Z</time>
      </trkpt>
      <trkpt lat="45.21815" lon="6.95628">
        <ele>1862</ele>
        <time>2018-02-20T01:06:15Z</time>
      </trkpt>
      <trkpt lat="45.21819" lon="6.95638">
        <ele>1862</ele>
        <time>2018-02-20T01:07:15Z</time>
      </trkpt>
      <trkpt lat="45.2183" lon="6.95654">
        <ele>1865</ele>
        <time>2018-02-20T01:08:15Z</time>
      </trkpt>
      <trkpt lat="45.21853" lon="6.95675">
        <ele>1867</ele>
        <time>2018-02-20T01:09:15Z</time>
      </trkpt>
      <trkpt lat="45.21866" lon="6.95691">
        <ele>1869</ele>
        <time>2018-02-20T01:10:15Z</time>
      </trkpt>
      <trkpt lat="45.21871" lon="6.95702">
        <ele>1870</ele>
        <time>2018-02-20T01:11:15Z</time>
      </trkpt>
      <trkpt lat="45.21876" lon="6.95721">
        <ele>1871</ele>
        <time>2018-02-20T01:12:15Z</time>
      </trkpt>
      <trkpt lat="45.21876" lon="6.95729">
        <ele>1871</ele>
        <time>2018-02-20T01:13:15Z</time>
      </trkpt>
      <trkpt lat="45.21874" lon="6.95739">
        <ele>1870</ele>
        <time>2018-02-20T01:14:15Z</time>
      </trkpt>
      <trkpt lat="45.21849" lon="6.95805">
        <ele>1873</ele>
        <time>2018-02-20T01:15:15Z</time>
      </trkpt>
      <trkpt lat="45.2183" lon="6.95843">
        <ele>1876</ele>
        <time>2018-02-20T01:16:15Z</time>
      </trkpt>
      <trkpt lat="45.21744" lon="6.95962">
        <ele>1885</ele>
        <time>2018-02-20T01:17:15Z</time>
      </trkpt>
      <trkpt lat="45.21628" lon="6.96114">
        <ele>1897</ele>
        <time>2018-02-20T01:18:15Z</time>
      </trkpt>
      <trkpt lat="45.2161" lon="6.96145">
        <ele>1898</ele>
        <time>2018-02-20T01:19:15Z</time>
      </trkpt>
      <trkpt lat="45.21477" lon="6.96424">
        <ele>1927</ele>
        <time>2018-02-20T01:20:15Z</time>
      </trkpt>
      <trkpt lat="45.21434" lon="6.96521">
        <ele>1936</ele>
        <time>2018-02-20T01:21:15Z</time>
      </trkpt>
      <trkpt lat="45.21427" lon="6.96547">
        <ele>1936</ele>
        <time>2018-02-20T01:22:15Z</time>
      </trkpt>
      <trkpt lat="45.21424" lon="6.96582">
        <ele>1935</ele>
        <time>2018-02-20T01:23:15Z</time>
      </trkpt>
      <trkpt lat="45.21426" lon="6.96598">
        <ele>1935</ele>
        <time>2018-02-20T01:24:15Z</time>
      </trkpt>
      <trkpt lat="45.21433" lon="6.9663">
        <ele>1935</ele>
        <time>2018-02-20T01:25:15Z</time>
      </trkpt>
      <trkpt lat="45.21446" lon="6.96658">
        <ele>1934</ele>
        <time>2018-02-20T01:26:15Z</time>
      </trkpt>
      <trkpt lat="45.21454" lon="6.96671">
        <ele>1935</ele>
        <time>2018-02-20T01:27:15Z</time>
      </trkpt>
      <trkpt lat="45.21473" lon="6.96689">
        <ele>1935</ele>
        <time>2018-02-20T01:28:15Z</time>
      </trkpt>
      <trkpt lat="45.21482" lon="6.96695">
        <ele>1935</ele>
        <time>2018-02-20T01:29:15Z</time>
      </trkpt>
      <trkpt lat="45.21502" lon="6.96701">
        <ele>1935</ele>
        <time>2018-02-20T01:30:15Z</time>
      </trkpt>
      <trkpt lat="45.21514" lon="6.96702">
        <ele>1937</ele>
        <time>2018-02-20T01:31:15Z</time>
      </trkpt>
      <trkpt lat="45.21537" lon="6.96697">
        <ele>1939</ele>
        <time>2018-02-20T01:32:15Z</time>
      </trkpt>
      <trkpt lat="45.21657" lon="6.96651">
        <ele>1948</ele>
        <time>2018-02-20T01:33:15Z</time>
      </trkpt>
      <trkpt lat="45.2168" lon="6.96647">
        <ele>1948</ele>
        <time>2018-02-20T01:34:15Z</time>
      </trkpt>
      <trkpt lat="45.21703" lon="6.96647">
        <ele>1949</ele>
        <time>2018-02-20T01:35:15Z</time>
      </trkpt>
      <trkpt lat="45.21737" lon="6.96651">
        <ele>1951</ele>
        <time>2018-02-20T01:36:15Z</time>
      </trkpt>
      <trkpt lat="45.21754" lon="6.96656">
        <ele>1952</ele>
        <time>2018-02-20T01:37:15Z</time>
      </trkpt>
      <trkpt lat="45.21856" lon="6.96703">
        <ele>1960</ele>
        <time>2018-02-20T01:38:15Z</time>
      </trkpt>
      <trkpt lat="45.21866" lon="6.96705">
        <ele>1961</ele>
        <time>2018-02-20T01:39:15Z</time>
      </trkpt>
      <trkpt lat="45.21894" lon="6.96705">
        <ele>1963</ele>
        <time>2018-02-20T01:40:15Z</time>
      </trkpt>
      <trkpt lat="45.21941" lon="6.96691">
        <ele>1965</ele>
        <time>2018-02-20T01:41:15Z</time>
      </trkpt>
      <trkpt lat="45.21946" lon="6.96692">
        <ele>1966</ele>
        <time>2018-02-20T01:42:15Z</time>
      </trkpt>
      <trkpt lat="45.21951" lon="6.96698">
        <ele>1968</ele>
        <time>2018-02-20T01:43:15Z</time>
      </trkpt>
      <trkpt lat="45.21954" lon="6.96704">
        <ele>1970</ele>
        <time>2018-02-20T01:44:15Z</time>
      </trkpt>
      <trkpt lat="45.21955" lon="6.96718">
        <ele>1972</ele>
        <time>2018-02-20T01:45:15Z</time>
      </trkpt>
      <trkpt lat="45.21953" lon="6.96726">
        <ele>1974</ele>
        <time>2018-02-20T01:46:15Z</time>
      </trkpt>
      <trkpt lat="45.21944" lon="6.96738">
        <ele>1975</ele>
        <time>2018-02-20T01:47:15Z</time>
      </trkpt>
      <trkpt lat="45.21924" lon="6.96744">
        <ele>1973</ele>
        <time>2018-02-20T01:48:15Z</time>
      </trkpt>
      <trkpt lat="45.21897" lon="6.96748">
        <ele>1971</ele>
        <time>2018-02-20T01:49:15Z</time>
      </trkpt>
      <trkpt lat="45.21864" lon="6.96763">
        <ele>1972</ele>
        <time>2018-02-20T01:50:15Z</time>
      </trkpt>
      <trkpt lat="45.21851" lon="6.96766">
        <ele>1972</ele>
        <time>2018-02-20T01:51:15Z</time>
      </trkpt>
      <trkpt lat="45.21829" lon="6.96767">
        <ele>1971</ele>
        <time>2018-02-20T01:52:15Z</time>
      </trkpt>
      <trkpt lat="45.2182" lon="6.96766">
        <ele>1972</ele>
        <time>2018-02-20T01:53:15Z</time>
      </trkpt>
      <trkpt lat="45.21738" lon="6.96742">
        <ele>1974</ele>
        <time>2018-02-20T01:54:15Z</time>
      </trkpt>
      <trkpt lat="45.2173" lon="6.96741">
        <ele>1973</ele>
        <time>2018-02-20T01:55:15Z</time>
      </trkpt>
      <trkpt lat="45.21715" lon="6.96745">
        <ele>1972</ele>
        <time>2018-02-20T01:56:15Z</time>
      </trkpt>
      <trkpt lat="45.21707" lon="6.96751">
        <ele>1973</ele>
        <time>2018-02-20T01:57:15Z</time>
      </trkpt>
      <trkpt lat="45.21701" lon="6.9676">
        <ele>1974</ele>
        <time>2018-02-20T01:58:15Z</time>
      </trkpt>
      <trkpt lat="45.21679" lon="6.96805">
        <ele>1981</ele>
        <time>2018-02-20T01:59:15Z</time>
      </trkpt>
      <trkpt lat="45.2167" lon="6.96819">
        <ele>1983</ele>
        <time>2018-02-20T02:00:15Z</time>
      </trkpt>
      <trkpt lat="45.21652" lon="6.96835">
        <ele>1984</ele>
        <time>2018-02-20T02:01:15Z</time>
      </trkpt>
      <trkpt lat="45.21611" lon="6.96857">
        <ele>1986</ele>
        <time>2018-02-20T02:02:15Z</time>
      </trkpt>
      <trkpt lat="45.21605" lon="6.96861">
        <ele>1986</ele>
        <time>2018-02-20T02:03:15Z</time>
      </trkpt>
      <trkpt lat="45.216" lon="6.96868">
        <ele>1987</ele>
        <time>2018-02-20T02:04:15Z</time>
      </trkpt>
      <trkpt lat="45.21598" lon="6.96877">
        <ele>1989</ele>
        <time>2018-02-20T02:05:15Z</time>
      </trkpt>
      <trkpt lat="45.21598" lon="6.96886">
        <ele>1992</ele>
        <time>2018-02-20T02:06:15Z</time>
      </trkpt>
      <trkpt lat="45.21602" lon="6.96895">
        <ele>1994</ele>
        <time>2018-02-20T02:07:15Z</time>
      </trkpt>
      <trkpt lat="45.21611" lon="6.96902">
        <ele>1996</ele>
        <time>2018-02-20T02:08:15Z</time>
      </trkpt>
      <trkpt lat="45.21616" lon="6.96903">
        <ele>1996</ele>
        <time>2018-02-20T02:09:15Z</time>
      </trkpt>
      <trkpt lat="45.21672" lon="6.96884">
        <ele>1996</ele>
        <time>2018-02-20T02:10:15Z</time>
      </trkpt>
      <trkpt lat="45.21682" lon="6.96883">
        <ele>1997</ele>
        <time>2018-02-20T02:11:15Z</time>
      </trkpt>
      <trkpt lat="45.2171" lon="6.96886">
        <ele>2001</ele>
        <time>2018-02-20T02:12:15Z</time>
      </trkpt>
      <trkpt lat="45.2181" lon="6.96902">
        <ele>2013</ele>
        <time>2018-02-20T02:13:15Z</time>
      </trkpt>
      <trkpt lat="45.21832" lon="6.96901">
        <ele>2014</ele>
        <time>2018-02-20T02:14:15Z</time>
      </trkpt>
      <trkpt lat="45.21896" lon="6.96889">
        <ele>2015</ele>
        <time>2018-02-20T02:15:15Z</time>
      </trkpt>
      <trkpt lat="45.21949" lon="6.96896">
        <ele>2023</ele>
        <time>2018-02-20T02:16:15Z</time>
      </trkpt>
      <trkpt lat="45.21965" lon="6.9689">
        <ele>2024</ele>
        <time>2018-02-20T02:17:15Z</time>
      </trkpt>
      <trkpt lat="45.22009" lon="6.96859">
        <ele>2021</ele>
        <time>2018-02-20T02:18:15Z</time>
      </trkpt>
      <trkpt lat="45.22026" lon="6.96852">
        <ele>2021</ele>
        <time>2018-02-20T02:19:15Z</time>
      </trkpt>
      <trkpt lat="45.22054" lon="6.96848">
        <ele>2024</ele>
        <time>2018-02-20T02:20:15Z</time>
      </trkpt>
      <trkpt lat="45.22085" lon="6.96846">
        <ele>2027</ele>
        <time>2018-02-20T02:21:15Z</time>
      </trkpt>
      <trkpt lat="45.2216" lon="6.96848">
        <ele>2032</ele>
        <time>2018-02-20T02:22:15Z</time>
      </trkpt>
      <trkpt lat="45.22189" lon="6.96852">
        <ele>2033</ele>
        <time>2018-02-20T02:23:15Z</time>
      </trkpt>
      <trkpt lat="45.22268" lon="6.96885">
        <ele>2043</ele>
        <time>2018-02-20T02:24:15Z</time>
      </trkpt>
      <trkpt lat="45.22291" lon="6.96892">
        <ele>2045</ele>
        <time>2018-02-20T02:25:15Z</time>
      </trkpt>
      <trkpt lat="45.22328" lon="6.96898">
        <ele>2047</ele>
        <time>2018-02-20T02:26:15Z</time>
      </trkpt>
      <trkpt lat="45.22383" lon="6.96899">
        <ele>2050</ele>
        <time>2018-02-20T02:27:15Z</time>
      </trkpt>
      <trkpt lat="45.22416" lon="6.96894">
        <ele>2050</ele>
        <time>2018-02-20T02:28:15Z</time>
      </trkpt>
      <trkpt lat="45.22434" lon="6.9689">
        <ele>2053</ele>
        <time>2018-02-20T02:29:15Z</time>
      </trkpt>
      <trkpt lat="45.22474" lon="6.96875">
        <ele>2058</ele>
        <time>2018-02-20T02:30:15Z</time>
      </trkpt>
      <trkpt lat="45.22498" lon="6.96863">
        <ele>2060</ele>
        <time>2018-02-20T02:31:15Z</time>
      </trkpt>
      <trkpt lat="45.22521" lon="6.96847">
        <ele>2061</ele>
        <time>2018-02-20T02:32:15Z</time>
      </trkpt>
      <trkpt lat="45.22534" lon="6.96835">
        <ele>2060</ele>
        <time>2018-02-20T02:33:15Z</time>
      </trkpt>
      <trkpt lat="45.22565" lon="6.96798">
        <ele>2056</ele>
        <time>2018-02-20T02:34:15Z</time>
      </trkpt>
      <trkpt lat="45.22618" lon="6.96707">
        <ele>2048</ele>
        <time>2018-02-20T02:35:15Z</time>
      </trkpt>
      <trkpt lat="45.22635" lon="6.96671">
        <ele>2044</ele>
        <time>2018-02-20T02:36:15Z</time>
      </trkpt>
      <trkpt lat="45.22643" lon="6.96647">
        <ele>2044</ele>
        <time>2018-02-20T02:37:15Z</time>
      </trkpt>
      <trkpt lat="45.22653" lon="6.96591">
        <ele>2043</ele>
        <time>2018-02-20T02:38:15Z</time>
      </trkpt>
      <trkpt lat="45.22662" lon="6.96548">
        <ele>2040</ele>
        <time>2018-02-20T02:39:15Z</time>
      </trkpt>
      <trkpt lat="45.22686" lon="6.96492">
        <ele>2038</ele>
        <time>2018-02-20T02:40:15Z</time>
      </trkpt>
      <trkpt lat="45.22705" lon="6.96457">
        <ele>2035</ele>
        <time>2018-02-20T02:41:15Z</time>
      </trkpt>
      <trkpt lat="45.22725" lon="6.96428">
        <ele>2033</ele>
        <time>2018-02-20T02:42:15Z</time>
      </trkpt>
      <trkpt lat="45.22786" lon="6.96357">
        <ele>2039</ele>
        <time>2018-02-20T02:43:15Z</time>
      </trkpt>
      <trkpt lat="45.22809" lon="6.96325">
        <ele>2040</ele>
        <time>2018-02-20T02:44:15Z</time>
      </trkpt>
      <trkpt lat="45.22841" lon="6.96245">
        <ele>2032</ele>
        <time>2018-02-20T02:45:15Z</time>
      </trkpt>
      <trkpt lat="45.22853" lon="6.9622">
        <ele>2035</ele>
        <time>2018-02-20T02:46:15Z</time>
      </trkpt>
      <trkpt lat="45.22868" lon="6.96195">
        <ele>2039</ele>
        <time>2018-02-20T02:47:15Z</time>
      </trkpt>
      <trkpt lat="45.22993" lon="6.95937">
        <ele>2038</ele>
        <time>2018-02-20T02:48:15Z</time>
      </trkpt>
      <trkpt lat="45.23001" lon="6.95924">
        <ele>2038</ele>
        <time>2018-02-20T02:49:15Z</time>
      </trkpt>
      <trkpt lat="45.2301" lon="6.95914">
        <ele>2038</ele>
        <time>2018-02-20T02:50:15Z</time>
      </trkpt>
      <trkpt lat="45.23057" lon="6.95882">
        <ele>2045</ele>
        <time>2018-02-20T02:51:15Z</time>
      </trkpt>
      <trkpt lat="45.23136" lon="6.95843">
        <ele>2060</ele>
        <time>2018-02-20T02:52:15Z</time>
      </trkpt>
      <trkpt lat="45.23146" lon="6.95835">
        <ele>2061</ele>
        <time>2018-02-20T02:53:15Z</time>
      </trkpt>
      <trkpt lat="45.23189" lon="6.9578">
        <ele>2059</ele>
        <time>2018-02-20T02:54:15Z</time>
      </trkpt>
      <trkpt lat="45.23201" lon="6.95766">
        <ele>2059</ele>
        <time>2018-02-20T02:55:15Z</time>
      </trkpt>
      <trkpt lat="45.23211" lon="6.95758">
        <ele>2060</ele>
        <time>2018-02-20T02:56:15Z</time>
      </trkpt>
      <trkpt lat="45.23304" lon="6.95709">
        <ele>2073</ele>
        <time>2018-02-20T02:57:15Z</time>
      </trkpt>
      <trkpt lat="45.23411" lon="6.95641">
        <ele>2084</ele>
        <time>2018-02-20T02:58:15Z</time>
      </trkpt>
      <trkpt lat="45.2348" lon="6.95601">
        <ele>2092</ele>
        <time>2018-02-20T02:59:15Z</time>
      </trkpt>
      <trkpt lat="45.23496" lon="6.9559">
        <ele>2094</ele>
        <time>2018-02-20T03:00:15Z</time>
      </trkpt>
      <trkpt lat="45.23508" lon="6.9558">
        <ele>2094</ele>
        <time>2018-02-20T03:01:15Z</time>
      </trkpt>
      <trkpt lat="45.23534" lon="6.95547">
        <ele>2089</ele>
        <time>2018-02-20T03:02:15Z</time>
      </trkpt>
      <trkpt lat="45.23547" lon="6.95535">
        <ele>2088</ele>
        <time>2018-02-20T03:03:15Z</time>
      </trkpt>
      <trkpt lat="45.23562" lon="6.95527">
        <ele>2089</ele>
        <time>2018-02-20T03:04:15Z</time>
      </trkpt>
      <trkpt lat="45.23587" lon="6.95521">
        <ele>2093</ele>
        <time>2018-02-20T03:05:15Z</time>
      </trkpt>
      <trkpt lat="45.23596" lon="6.95515">
        <ele>2093</ele>
        <time>2018-02-20T03:06:15Z</time>
      </trkpt>
      <trkpt lat="45.23665" lon="6.95446">
        <ele>2092</ele>
        <time>2018-02-20T03:07:15Z</time>
      </trkpt>
      <trkpt lat="45.23679" lon="6.95434">
        <ele>2092</ele>
        <time>2018-02-20T03:08:15Z</time>
      </trkpt>
      <trkpt lat="45.23774" lon="6.95377">
        <ele>2094</ele>
        <time>2018-02-20T03:09:15Z</time>
      </trkpt>
      <trkpt lat="45.23786" lon="6.95365">
        <ele>2093</ele>
        <time>2018-02-20T03:10:15Z</time>
      </trkpt>
      <trkpt lat="45.23805" lon="6.95338">
        <ele>2090</ele>
        <time>2018-02-20T03:11:15Z</time>
      </trkpt>
      <trkpt lat="45.23817" lon="6.95329">
        <ele>2089</ele>
        <time>2018-02-20T03:12:15Z</time>
      </trkpt>
      <trkpt lat="45.23828" lon="6.95327">
        <ele>2090</ele>
        <time>2018-02-20T03:13:15Z</time>
      </trkpt>
      <trkpt lat="45.23837" lon="6.95327">
        <ele>2091</ele>
        <time>2018-02-20T03:14:15Z</time>
      </trkpt>
      <trkpt lat="45.2387" lon="6.95332">
        <ele>2095</ele>
        <time>2018-02-20T03:15:15Z</time>
      </trkpt>
      <trkpt lat="45.23875" lon="6.95331">
        <ele>2096</ele>
        <time>2018-02-20T03:16:15Z</time>
      </trkpt>
      <trkpt lat="45.23885" lon="6.95324">
        <ele>2096</ele>
        <time>2018-02-20T03:17:15Z</time>
      </trkpt>
      <trkpt lat="45.23896" lon="6.95309">
        <ele>2095</ele>
        <time>2018-02-20T03:18:15Z</time>
      </trkpt>
      <trkpt lat="45.23913" lon="6.95269">
        <ele>2092</ele>
        <time>2018-02-20T03:19:15Z</time>
      </trkpt>
      <trkpt lat="45.23922" lon="6.95255">
        <ele>2091</ele>
        <time>2018-02-20T03:20:15Z</time>
      </trkpt>
      <trkpt lat="45.23932" lon="6.95242">
        <ele>2092</ele>
        <time>2018-02-20T03:21:15Z</time>
      </trkpt>
      <trkpt lat="45.24157" lon="6.95032">
        <ele>2098</ele>
        <time>2018-02-20T03:22:15Z</time>
      </trkpt>
      <trkpt lat="45.2423" lon="6.94935">
        <ele>2093</ele>
        <time>2018-02-20T03:23:15Z</time>
      </trkpt>
      <trkpt lat="45.24239" lon="6.94926">
        <ele>2092</ele>
        <time>2018-02-20T03:24:15Z</time>
      </trkpt>
      <trkpt lat="45.24254" lon="6.94916">
        <ele>2091</ele>
        <time>2018-02-20T03:25:15Z</time>
      </trkpt>
      <trkpt lat="45.24267" lon="6.94914">
        <ele>2092</ele>
        <time>2018-02-20T03:26:15Z</time>
      </trkpt>
      <trkpt lat="45.24298" lon="6.94926">
        <ele>2097</ele>
        <time>2018-02-20T03:27:15Z</time>
      </trkpt>
      <trkpt lat="45.24309" lon="6.94925">
        <ele>2098</ele>
        <time>2018-02-20T03:28:15Z</time>
      </trkpt>
      <trkpt lat="45.24321" lon="6.94915">
        <ele>2097</ele>
        <time>2018-02-20T03:29:15Z</time>
      </trkpt>
      <trkpt lat="45.2433" lon="6.94904">
        <ele>2097</ele>
        <time>2018-02-20T03:30:15Z</time>
      </trkpt>
      <trkpt lat="45.24336" lon="6.94892">
        <ele>2097</ele>
        <time>2018-02-20T03:31:15Z</time>
      </trkpt>
      <trkpt lat="45.2434" lon="6.9488">
        <ele>2098</ele>
        <time>2018-02-20T03:32:15Z</time>
      </trkpt>
      <trkpt lat="45.24341" lon="6.94856">
        <ele>2096</ele>
        <time>2018-02-20T03:33:15Z</time>
      </trkpt>
      <trkpt lat="45.24339" lon="6.94823">
        <ele>2093</ele>
        <time>2018-02-20T03:34:15Z</time>
      </trkpt>
      <trkpt lat="45.24333" lon="6.94778">
        <ele>2090</ele>
        <time>2018-02-20T03:35:15Z</time>
      </trkpt>
      <trkpt lat="45.24307" lon="6.94678">
        <ele>2083</ele>
        <time>2018-02-20T03:36:15Z</time>
      </trkpt>
      <trkpt lat="45.243" lon="6.94639">
        <ele>2081</ele>
        <time>2018-02-20T03:37:15Z</time>
      </trkpt>
      <trkpt lat="45.24297" lon="6.94614">
        <ele>2080</ele>
        <time>2018-02-20T03:38:15Z</time>
      </trkpt>
      <trkpt lat="45.24297" lon="6.94584">
        <ele>2080</ele>
        <time>2018-02-20T03:39:15Z</time>
      </trkpt>
      <trkpt lat="45.24302" lon="6.9453">
        <ele>2078</ele>
        <time>2018-02-20T03:40:15Z</time>
      </trkpt>
      <trkpt lat="45.24305" lon="6.94514">
        <ele>2079</ele>
        <time>2018-02-20T03:41:15Z</time>
      </trkpt>
      <trkpt lat="45.24366" lon="6.94304">
        <ele>2080</ele>
        <time>2018-02-20T03:42:15Z</time>
      </trkpt>
      <trkpt lat="45.24398" lon="6.94204">
        <ele>2077</ele>
        <time>2018-02-20T03:43:15Z</time>
      </trkpt>
      <trkpt lat="45.24423" lon="6.94147">
        <ele>2076</ele>
        <time>2018-02-20T03:44:15Z</time>
      </trkpt>
      <trkpt lat="45.24507" lon="6.93978">
        <ele>2073</ele>
        <time>2018-02-20T03:45:15Z</time>
      </trkpt>
      <trkpt lat="45.24536" lon="6.93928">
        <ele>2072</ele>
        <time>2018-02-20T03:46:15Z</time>
      </trkpt>
      <trkpt lat="45.24623" lon="6.93803">
        <ele>2076</ele>
        <time>2018-02-20T03:47:15Z</time>
      </trkpt>
      <trkpt lat="45.24634" lon="6.93784">
        <ele>2076</ele>
        <time>2018-02-20T03:48:15Z</time>
      </trkpt>
      <trkpt lat="45.24641" lon="6.93769">
        <ele>2076</ele>
        <time>2018-02-20T03:49:15Z</time>
      </trkpt>
      <trkpt lat="45.24648" lon="6.9374">
        <ele>2075</ele>
        <time>2018-02-20T03:50:15Z</time>
      </trkpt>
      <trkpt lat="45.24649" lon="6.93724">
        <ele>2075</ele>
        <time>2018-02-20T03:51:15Z</time>
      </trkpt>
      <trkpt lat="45.24656" lon="6.9355">
        <ele>2067</ele>
        <time>2018-02-20T03:52:15Z</time>
      </trkpt>
      <trkpt lat="45.2466" lon="6.93524">
        <ele>2066</ele>
        <time>2018-02-20T03:53:15Z</time>
      </trkpt>
      <trkpt lat="45.24667" lon="6.93505">
        <ele>2068</ele>
        <time>2018-02-20T03:54:15Z</time>
      </trkpt>
      <trkpt lat="45.24677" lon="6.93482">
        <ele>2068</ele>
        <time>2018-02-20T03:55:15Z</time>
      </trkpt>
      <trkpt lat="45.24718" lon="6.93414">
        <ele>2071</ele>
        <time>2018-02-20T03:56:15Z</time>
      </trkpt>
      <trkpt lat="45.24728" lon="6.93395">
        <ele>2073</ele>
        <time>2018-02-20T03:57:15Z</time>
      </trkpt>
      <trkpt lat="45.24746" lon="6.93347">
        <ele>2074</ele>
        <time>2018-02-20T03:58:15Z</time>
      </trkpt>
      <trkpt lat="45.24753" lon="6.93325">
        <ele>2075</ele>
        <time>2018-02-20T03:59:15Z</time>
      </trkpt>
      <trkpt lat="45.24761" lon="6.93287">
        <ele>2075</ele>
        <time>2018-02-20T04:00:15Z</time>
      </trkpt>
      <trkpt lat="45.24816" lon="6.93023">
        <ele>2078</ele>
        <time>2018-02-20T04:01:15Z</time>
      </trkpt>
      <trkpt lat="45.24826" lon="6.92982">
        <ele>2080</ele>
        <time>2018-02-20T04:02:15Z</time>
      </trkpt>
      <trkpt lat="45.24843" lon="6.92935">
        <ele>2082</ele>
        <time>2018-02-20T04:03:15Z</time>
      </trkpt>
      <trkpt lat="45.24854" lon="6.9291">
        <ele>2082</ele>
        <time>2018-02-20T04:04:15Z</time>
      </trkpt>
      <trkpt lat="45.24905" lon="6.92815">
        <ele>2080</ele>
        <time>2018-02-20T04:05:15Z</time>
      </trkpt>
      <trkpt lat="45.24933" lon="6.92748">
        <ele>2082</ele>
        <time>2018-02-20T04:06:15Z</time>
      </trkpt>
      <trkpt lat="45.24942" lon="6.92723">
        <ele>2082</ele>
        <time>2018-02-20T04:07:15Z</time>
      </trkpt>
      <trkpt lat="45.2495" lon="6.92693">
        <ele>2080</ele>
        <time>2018-02-20T04:08:15Z</time>
      </trkpt>
      <trkpt lat="45.24985" lon="6.92538">
        <ele>2069</ele>
        <time>2018-02-20T04:09:15Z</time>
      </trkpt>
      <trkpt lat="45.24998" lon="6.92498">
        <ele>2068</ele>
        <time>2018-02-20T04:10:15Z</time>
      </trkpt>
      <trkpt lat="45.25011" lon="6.92468">
        <ele>2066</ele>
        <time>2018-02-20T04:11:15Z</time>
      </trkpt>
      <trkpt lat="45.25069" lon="6.92353">
        <ele>2060</ele>
        <time>2018-02-20T04:12:15Z</time>
      </trkpt>
      <trkpt lat="45.25126" lon="6.92233">
        <ele>2057</ele>
        <time>2018-02-20T04:13:15Z</time>
      </trkpt>
      <trkpt lat="45.25143" lon="6.92186">
        <ele>2057</ele>
        <time>2018-02-20T04:14:15Z</time>
      </trkpt>
      <trkpt lat="45.25157" lon="6.92131">
        <ele>2056</ele>
        <time>2018-02-20T04:15:15Z</time>
      </trkpt>
      <trkpt lat="45.25184" lon="6.91916">
        <ele>2045</ele>
        <time>2018-02-20T04:16:15Z</time>
      </trkpt>
      <trkpt lat="45.25209" lon="6.91742">
        <ele>2043</ele>
        <time>2018-02-20T04:17:15Z</time>
      </trkpt>
      <trkpt lat="45.25223" lon="6.91686">
        <ele>2041</ele>
        <time>2018-02-20T04:18:15Z</time>
      </trkpt>
      <trkpt lat="45.25259" lon="6.91558">
        <ele>2049</ele>
        <time>2018-02-20T04:19:15Z</time>
      </trkpt>
      <trkpt lat="45.25276" lon="6.91457">
        <ele>2050</ele>
        <time>2018-02-20T04:20:15Z</time>
      </trkpt>
      <trkpt lat="45.25281" lon="6.91401">
        <ele>2050</ele>
        <time>2018-02-20T04:21:15Z</time>
      </trkpt>
      <trkpt lat="45.25283" lon="6.91297">
        <ele>2050</ele>
        <time>2018-02-20T04:22:15Z</time>
      </trkpt>
      <trkpt lat="45.25285" lon="6.9126">
        <ele>2051</ele>
        <time>2018-02-20T04:23:15Z</time>
      </trkpt>
      <trkpt lat="45.2529" lon="6.91229">
        <ele>2052</ele>
        <time>2018-02-20T04:24:15Z</time>
      </trkpt>
      <trkpt lat="45.25311" lon="6.91144">
        <ele>2058</ele>
        <time>2018-02-20T04:25:15Z</time>
      </trkpt>
      <trkpt lat="45.25315" lon="6.91117">
        <ele>2058</ele>
        <time>2018-02-20T04:26:15Z</time>
      </trkpt>
      <trkpt lat="45.25315" lon="6.91048">
        <ele>2057</ele>
        <time>2018-02-20T04:27:15Z</time>
      </trkpt>
      <trkpt lat="45.25309" lon="6.90864">
        <ele>2054</ele>
        <time>2018-02-20T04:28:15Z</time>
      </trkpt>
      <trkpt lat="45.2531" lon="6.90838">
        <ele>2053</ele>
        <time>2018-02-20T04:29:15Z</time>
      </trkpt>
      <trkpt lat="45.25315" lon="6.90811">
        <ele>2051</ele>
        <time>2018-02-20T04:30:15Z</time>
      </trkpt>
      <trkpt lat="45.25321" lon="6.90792">
        <ele>2051</ele>
        <time>2018-02-20T04:31:15Z</time>
      </trkpt>
      <trkpt lat="45.25333" lon="6.90769">
        <ele>2052</ele>
        <time>2018-02-20T04:32:15Z</time>
      </trkpt>
      <trkpt lat="45.25406" lon="6.90677">
        <ele>2054</ele>
        <time>2018-02-20T04:33:15Z</time>
      </trkpt>
      <trkpt lat="45.25436" lon="6.9065">
        <ele>2055</ele>
        <time>2018-02-20T04:34:15Z</time>
      </trkpt>
      <trkpt lat="45.25468" lon="6.90631">
        <ele>2055</ele>
        <time>2018-02-20T04:35:15Z</time>
      </trkpt>
      <trkpt lat="45.25768" lon="6.90522">
        <ele>2069</ele>
        <time>2018-02-20T04:36:15Z</time>
      </trkpt>
      <trkpt lat="45.25779" lon="6.90516">
        <ele>2070</ele>
        <time>2018-02-20T04:37:15Z</time>
      </trkpt>
      <trkpt lat="45.2579" lon="6.90507">
        <ele>2070</ele>
        <time>2018-02-20T04:38:15Z</time>
      </trkpt>
      <trkpt lat="45.25808" lon="6.90481">
        <ele>2071</ele>
        <time>2018-02-20T04:39:15Z</time>
      </trkpt>
      <trkpt lat="45.25859" lon="6.90372">
        <ele>2075</ele>
        <time>2018-02-20T04:40:15Z</time>
      </trkpt>
      <trkpt lat="45.25869" lon="6.90345">
        <ele>2076</ele>
        <time>2018-02-20T04:41:15Z</time>
      </trkpt>
      <trkpt lat="45.25891" lon="6.90264">
        <ele>2080</ele>
        <time>2018-02-20T04:42:15Z</time>
      </trkpt>
      <trkpt lat="45.25891" lon="6.90264">
        <ele>2080</ele>
        <time>2018-02-20T04:43:15Z</time>
      </trkpt>
      <trkpt lat="45.25895" lon="6.90248">
        <ele>2080</ele>
        <time>2018-02-20T04:44:15Z</time>
      </trkpt>
      <trkpt lat="45.25903" lon="6.90228">
        <ele>2081</ele>
        <time>2018-02-20T04:45:15Z</time>
      </trkpt>
      <trkpt lat="45.25913" lon="6.90208">
        <ele>2082</ele>
        <time>2018-02-20T04:46:15Z</time>
      </trkpt>
      <trkpt lat="45.2594" lon="6.90158">
        <ele>2085</ele>
        <time>2018-02-20T04:47:15Z</time>
      </trkpt>
      <trkpt lat="45.2599" lon="6.90074">
        <ele>2087</ele>
        <time>2018-02-20T04:48:15Z</time>
      </trkpt>
      <trkpt lat="45.26019" lon="6.90033">
        <ele>2088</ele>
        <time>2018-02-20T04:49:15Z</time>
      </trkpt>
      <trkpt lat="45.26029" lon="6.90021">
        <ele>2087</ele>
        <time>2018-02-20T04:50:15Z</time>
      </trkpt>
      <trkpt lat="45.26051" lon="6.90006">
        <ele>2084</ele>
        <time>2018-02-20T04:51:15Z</time>
      </trkpt>
      <trkpt lat="45.26078" lon="6.89996">
        <ele>2081</ele>
        <time>2018-02-20T04:52:15Z</time>
      </trkpt>
      <trkpt lat="45.26148" lon="6.89976">
        <ele>2073</ele>
        <time>2018-02-20T04:53:15Z</time>
      </trkpt>
      <trkpt lat="45.26158" lon="6.89976">
        <ele>2071</ele>
        <time>2018-02-20T04:54:15Z</time>
      </trkpt>
      <trkpt lat="45.26166" lon="6.89978">
        <ele>2070</ele>
        <time>2018-02-20T04:55:15Z</time>
      </trkpt>
      <trkpt lat="45.26173" lon="6.89984">
        <ele>2069</ele>
        <time>2018-02-20T04:56:15Z</time>
      </trkpt>
      <trkpt lat="45.26179" lon="6.89992">
        <ele>2068</ele>
        <time>2018-02-20T04:57:15Z</time>
      </trkpt>
      <trkpt lat="45.26182" lon="6.90005">
        <ele>2067</ele>
        <time>2018-02-20T04:58:15Z</time>
      </trkpt>
      <trkpt lat="45.26183" lon="6.90021">
        <ele>2067</ele>
        <time>2018-02-20T04:59:15Z</time>
      </trkpt>
      <trkpt lat="45.26181" lon="6.90079">
        <ele>2068</ele>
        <time>2018-02-20T05:00:15Z</time>
      </trkpt>
      <trkpt lat="45.26182" lon="6.90093">
        <ele>2068</ele>
        <time>2018-02-20T05:01:15Z</time>
      </trkpt>
      <trkpt lat="45.26186" lon="6.90106">
        <ele>2068</ele>
        <time>2018-02-20T05:02:15Z</time>
      </trkpt>
      <trkpt lat="45.26201" lon="6.90134">
        <ele>2068</ele>
        <time>2018-02-20T05:03:15Z</time>
      </trkpt>
      <trkpt lat="45.26216" lon="6.90151">
        <ele>2067</ele>
        <time>2018-02-20T05:04:15Z</time>
      </trkpt>
      <trkpt lat="45.26231" lon="6.90159">
        <ele>2066</ele>
        <time>2018-02-20T05:05:15Z</time>
      </trkpt>
      <trkpt lat="45.2624" lon="6.90161">
        <ele>2065</ele>
        <time>2018-02-20T05:06:15Z</time>
      </trkpt>
      <trkpt lat="45.2626" lon="6.90157">
        <ele>2064</ele>
        <time>2018-02-20T05:07:15Z</time>
      </trkpt>
      <trkpt lat="45.26285" lon="6.90143">
        <ele>2063</ele>
        <time>2018-02-20T05:08:15Z</time>
      </trkpt>
      <trkpt lat="45.2646" lon="6.90017">
        <ele>2047</ele>
        <time>2018-02-20T05:09:15Z</time>
      </trkpt>
      <trkpt lat="45.26473" lon="6.90004">
        <ele>2046</ele>
        <time>2018-02-20T05:10:15Z</time>
      </trkpt>
      <trkpt lat="45.26484" lon="6.89989">
        <ele>2044</ele>
        <time>2018-02-20T05:11:15Z</time>
      </trkpt>
      <trkpt lat="45.26545" lon="6.89889">
        <ele>2034</ele>
        <time>2018-02-20T05:12:15Z</time>
      </trkpt>
      <trkpt lat="45.26553" lon="6.8988">
        <ele>2033</ele>
        <time>2018-02-20T05:13:15Z</time>
      </trkpt>
      <trkpt lat="45.26572" lon="6.89868">
        <ele>2031</ele>
        <time>2018-02-20T05:14:15Z</time>
      </trkpt>
      <trkpt lat="45.26579" lon="6.89866">
        <ele>2030</ele>
        <time>2018-02-20T05:15:15Z</time>
      </trkpt>
      <trkpt lat="45.26637" lon="6.89867">
        <ele>2029</ele>
        <time>2018-02-20T05:16:15Z</time>
      </trkpt>
      <trkpt lat="45.2665" lon="6.89864">
        <ele>2028</ele>
        <time>2018-02-20T05:17:15Z</time>
      </trkpt>
      <trkpt lat="45.26664" lon="6.89857">
        <ele>2026</ele>
        <time>2018-02-20T05:18:15Z</time>
      </trkpt>
      <trkpt lat="45.26681" lon="6.89846">
        <ele>2025</ele>
        <time>2018-02-20T05:19:15Z</time>
      </trkpt>
      <trkpt lat="45.26691" lon="6.89836">
        <ele>2024</ele>
        <time>2018-02-20T05:20:15Z</time>
      </trkpt>
      <trkpt lat="45.26764" lon="6.89747">
        <ele>2017</ele>
        <time>2018-02-20T05:21:15Z</time>
      </trkpt>
      <trkpt lat="45.26774" lon="6.89738">
        <ele>2016</ele>
        <time>2018-02-20T05:22:15Z</time>
      </trkpt>
      <trkpt lat="45.26819" lon="6.89723">
        <ele>2011</ele>
        <time>2018-02-20T05:23:15Z</time>
      </trkpt>
      <trkpt lat="45.26878" lon="6.89712">
        <ele>2003</ele>
        <time>2018-02-20T05:24:15Z</time>
      </trkpt>
      <trkpt lat="45.26896" lon="6.8971">
        <ele>2001</ele>
        <time>2018-02-20T05:25:15Z</time>
      </trkpt>
      <trkpt lat="45.26912" lon="6.89712">
        <ele>1999</ele>
        <time>2018-02-20T05:26:15Z</time>
      </trkpt>
      <trkpt lat="45.26943" lon="6.89723">
        <ele>1996</ele>
        <time>2018-02-20T05:27:15Z</time>
      </trkpt>
      <trkpt lat="45.26976" lon="6.89743">
        <ele>1994</ele>
        <time>2018-02-20T05:28:15Z</time>
      </trkpt>
      <trkpt lat="45.27005" lon="6.89767">
        <ele>1992</ele>
        <time>2018-02-20T05:29:15Z</time>
      </trkpt>
      <trkpt lat="45.27015" lon="6.89776">
        <ele>1990</ele>
        <time>2018-02-20T05:30:15Z</time>
      </trkpt>
      <trkpt lat="45.27021" lon="6.89785">
        <ele>1989</ele>
        <time>2018-02-20T05:31:15Z</time>
      </trkpt>
      <trkpt lat="45.27034" lon="6.8982">
        <ele>1990</ele>
        <time>2018-02-20T05:32:15Z</time>
      </trkpt>
      <trkpt lat="45.27061" lon="6.89904">
        <ele>1989</ele>
        <time>2018-02-20T05:33:15Z</time>
      </trkpt>
      <trkpt lat="45.27072" lon="6.89922">
        <ele>1987</ele>
        <time>2018-02-20T05:34:15Z</time>
      </trkpt>
      <trkpt lat="45.27083" lon="6.89929">
        <ele>1984</ele>
        <time>2018-02-20T05:35:15Z</time>
      </trkpt>
      <trkpt lat="45.27113" lon="6.89931">
        <ele>1977</ele>
        <time>2018-02-20T05:36:15Z</time>
      </trkpt>
      <trkpt lat="45.2713" lon="6.89939">
        <ele>1973</ele>
        <time>2018-02-20T05:37:15Z</time>
      </trkpt>
      <trkpt lat="45.27141" lon="6.89952">
        <ele>1972</ele>
        <time>2018-02-20T05:38:15Z</time>
      </trkpt>
      <trkpt lat="45.27166" lon="6.90003">
        <ele>1972</ele>
        <time>2018-02-20T05:39:15Z</time>
      </trkpt>
      <trkpt lat="45.27176" lon="6.90033">
        <ele>1970</ele>
        <time>2018-02-20T05:40:15Z</time>
      </trkpt>
      <trkpt lat="45.27183" lon="6.90061">
        <ele>1969</ele>
        <time>2018-02-20T05:41:15Z</time>
      </trkpt>
      <trkpt lat="45.27188" lon="6.90098">
        <ele>1971</ele>
        <time>2018-02-20T05:42:15Z</time>
      </trkpt>
      <trkpt lat="45.27201" lon="6.90151">
        <ele>1970</ele>
        <time>2018-02-20T05:43:15Z</time>
      </trkpt>
      <trkpt lat="45.27223" lon="6.90214">
        <ele>1964</ele>
        <time>2018-02-20T05:44:15Z</time>
      </trkpt>
      <trkpt lat="45.27254" lon="6.90276">
        <ele>1954</ele>
        <time>2018-02-20T05:45:15Z</time>
      </trkpt>
      <trkpt lat="45.27297" lon="6.90346">
        <ele>1948</ele>
        <time>2018-02-20T05:46:15Z</time>
      </trkpt>
      <trkpt lat="45.27319" lon="6.90412">
        <ele>1944</ele>
        <time>2018-02-20T05:47:15Z</time>
      </trkpt>
      <trkpt lat="45.2735" lon="6.90556">
        <ele>1943</ele>
        <time>2018-02-20T05:48:15Z</time>
      </trkpt>
      <trkpt lat="45.27366" lon="6.90623">
        <ele>1941</ele>
        <time>2018-02-20T05:49:15Z</time>
      </trkpt>
      <trkpt lat="45.27389" lon="6.90673">
        <ele>1936</ele>
        <time>2018-02-20T05:50:15Z</time>
      </trkpt>
      <trkpt lat="45.27415" lon="6.90719">
        <ele>1929</ele>
        <time>2018-02-20T05:51:15Z</time>
      </trkpt>
      <trkpt lat="45.2744" lon="6.90777">
        <ele>1925</ele>
        <time>2018-02-20T05:52:15Z</time>
      </trkpt>
      <trkpt lat="45.27464" lon="6.90852">
        <ele>1921</ele>
        <time>2018-02-20T05:53:15Z</time>
      </trkpt>
      <trkpt lat="45.27474" lon="6.90883">
        <ele>1919</ele>
        <time>2018-02-20T05:54:15Z</time>
      </trkpt>
      <trkpt lat="45.27484" lon="6.90905">
        <ele>1917</ele>
        <time>2018-02-20T05:55:15Z</time>
      </trkpt>
      <trkpt lat="45.27499" lon="6.90924">
        <ele>1913</ele>
        <time>2018-02-20T05:56:15Z</time>
      </trkpt>
      <trkpt lat="45.27515" lon="6.90939">
        <ele>1910</ele>
        <time>2018-02-20T05:57:15Z</time>
      </trkpt>
      <trkpt lat="45.27545" lon="6.90977">
        <ele>1904</ele>
        <time>2018-02-20T05:58:15Z</time>
      </trkpt>
      <trkpt lat="45.27578" lon="6.91035">
        <ele>1903</ele>
        <time>2018-02-20T05:59:15Z</time>
      </trkpt>
      <trkpt lat="45.27617" lon="6.9108">
        <ele>1899</ele>
        <time>2018-02-20T06:00:15Z</time>
      </trkpt>
      <trkpt lat="45.27659" lon="6.91121">
        <ele>1893</ele>
        <time>2018-02-20T06:01:15Z</time>
      </trkpt>
      <trkpt lat="45.27672" lon="6.91144">
        <ele>1892</ele>
        <time>2018-02-20T06:02:15Z</time>
      </trkpt>
      <trkpt lat="45.27679" lon="6.91167">
        <ele>1893</ele>
        <time>2018-02-20T06:03:15Z</time>
      </trkpt>
      <trkpt lat="45.2768" lon="6.91224">
        <ele>1888</ele>
        <time>2018-02-20T06:04:15Z</time>
      </trkpt>
      <trkpt lat="45.27675" lon="6.91275">
        <ele>1886</ele>
        <time>2018-02-20T06:05:15Z</time>
      </trkpt>
      <trkpt lat="45.27682" lon="6.91289">
        <ele>1882</ele>
        <time>2018-02-20T06:06:15Z</time>
      </trkpt>
      <trkpt lat="45.27695" lon="6.91293">
        <ele>1877</ele>
        <time>2018-02-20T06:07:15Z</time>
      </trkpt>
      <trkpt lat="45.27706" lon="6.91281">
        <ele>1874</ele>
        <time>2018-02-20T06:08:15Z</time>
      </trkpt>
      <trkpt lat="45.27711" lon="6.9125">
        <ele>1877</ele>
        <time>2018-02-20T06:09:15Z</time>
      </trkpt>
      <trkpt lat="45.27714" lon="6.91141">
        <ele>1875</ele>
        <time>2018-02-20T06:10:15Z</time>
      </trkpt>
      <trkpt lat="45.27709" lon="6.91102">
        <ele>1872</ele>
        <time>2018-02-20T06:11:15Z</time>
      </trkpt>
      <trkpt lat="45.27701" lon="6.91064">
        <ele>1868</ele>
        <time>2018-02-20T06:12:15Z</time>
      </trkpt>
      <trkpt lat="45.27695" lon="6.91047">
        <ele>1867</ele>
        <time>2018-02-20T06:13:15Z</time>
      </trkpt>
      <trkpt lat="45.27685" lon="6.91026">
        <ele>1866</ele>
        <time>2018-02-20T06:14:15Z</time>
      </trkpt>
      <trkpt lat="45.27664" lon="6.90991">
        <ele>1864</ele>
        <time>2018-02-20T06:15:15Z</time>
      </trkpt>
      <trkpt lat="45.27656" lon="6.90969">
        <ele>1864</ele>
        <time>2018-02-20T06:16:15Z</time>
      </trkpt>
      <trkpt lat="45.27657" lon="6.90923">
        <ele>1856</ele>
        <time>2018-02-20T06:17:15Z</time>
      </trkpt>
      <trkpt lat="45.27654" lon="6.90884">
        <ele>1852</ele>
        <time>2018-02-20T06:18:15Z</time>
      </trkpt>
      <trkpt lat="45.27637" lon="6.90847">
        <ele>1853</ele>
        <time>2018-02-20T06:19:15Z</time>
      </trkpt>
      <trkpt lat="45.27621" lon="6.9082">
        <ele>1857</ele>
        <time>2018-02-20T06:20:15Z</time>
      </trkpt>
      <trkpt lat="45.2761" lon="6.90786">
        <ele>1858</ele>
        <time>2018-02-20T06:21:15Z</time>
      </trkpt>
      <trkpt lat="45.27608" lon="6.90766">
        <ele>1857</ele>
        <time>2018-02-20T06:22:15Z</time>
      </trkpt>
      <trkpt lat="45.27609" lon="6.90747">
        <ele>1854</ele>
        <time>2018-02-20T06:23:15Z</time>
      </trkpt>
      <trkpt lat="45.27614" lon="6.90733">
        <ele>1852</ele>
        <time>2018-02-20T06:24:15Z</time>
      </trkpt>
      <trkpt lat="45.27623" lon="6.9072">
        <ele>1848</ele>
        <time>2018-02-20T06:25:15Z</time>
      </trkpt>
      <trkpt lat="45.27669" lon="6.90688">
        <ele>1830</ele>
        <time>2018-02-20T06:26:15Z</time>
      </trkpt>
      <trkpt lat="45.27674" lon="6.9068">
        <ele>1829</ele>
        <time>2018-02-20T06:27:15Z</time>
      </trkpt>
      <trkpt lat="45.27677" lon="6.9066">
        <ele>1827</ele>
        <time>2018-02-20T06:28:15Z</time>
      </trkpt>
      <trkpt lat="45.27669" lon="6.9063">
        <ele>1826</ele>
        <time>2018-02-20T06:29:15Z</time>
      </trkpt>
      <trkpt lat="45.27651" lon="6.90584">
        <ele>1828</ele>
        <time>2018-02-20T06:30:15Z</time>
      </trkpt>
      <trkpt lat="45.2764" lon="6.90549">
        <ele>1829</ele>
        <time>2018-02-20T06:31:15Z</time>
      </trkpt>
      <trkpt lat="45.27632" lon="6.90514">
        <ele>1828</ele>
        <time>2018-02-20T06:32:15Z</time>
      </trkpt>
      <trkpt lat="45.27608" lon="6.90378">
        <ele>1820</ele>
        <time>2018-02-20T06:33:15Z</time>
      </trkpt>
      <trkpt lat="45.27607" lon="6.90338">
        <ele>1815</ele>
        <time>2018-02-20T06:34:15Z</time>
      </trkpt>
      <trkpt lat="45.27609" lon="6.90304">
        <ele>1810</ele>
        <time>2018-02-20T06:35:15Z</time>
      </trkpt>
      <trkpt lat="45.27602" lon="6.90264">
        <ele>1809</ele>
        <time>2018-02-20T06:36:15Z</time>
      </trkpt>
      <trkpt lat="45.27593" lon="6.90224">
        <ele>1808</ele>
        <time>2018-02-20T06:37:15Z</time>
      </trkpt>
      <trkpt lat="45.27595" lon="6.90181">
        <ele>1801</ele>
        <time>2018-02-20T06:38:15Z</time>
      </trkpt>
      <trkpt lat="45.27599" lon="6.9014">
        <ele>1795</ele>
        <time>2018-02-20T06:39:15Z</time>
      </trkpt>
      <trkpt lat="45.27596" lon="6.90098">
        <ele>1793</ele>
        <time>2018-02-20T06:40:15Z</time>
      </trkpt>
      <trkpt lat="45.27588" lon="6.90048">
        <ele>1792</ele>
        <time>2018-02-20T06:41:15Z</time>
      </trkpt>
      <trkpt lat="45.27593" lon="6.90011">
        <ele>1788</ele>
        <time>2018-02-20T06:42:15Z</time>
      </trkpt>
      <trkpt lat="45.27608" lon="6.89979">
        <ele>1783</ele>
        <time>2018-02-20T06:43:15Z</time>
      </trkpt>
      <trkpt lat="45.27614" lon="6.89936">
        <ele>1780</ele>
        <time>2018-02-20T06:44:15Z</time>
      </trkpt>
      <trkpt lat="45.27609" lon="6.89835">
        <ele>1780</ele>
        <time>2018-02-20T06:45:15Z</time>
      </trkpt>
      <trkpt lat="45.276" lon="6.89802">
        <ele>1778</ele>
        <time>2018-02-20T06:46:15Z</time>
      </trkpt>
      <trkpt lat="45.2759" lon="6.89777">
        <ele>1777</ele>
        <time>2018-02-20T06:47:15Z</time>
      </trkpt>
      <trkpt lat="45.27595" lon="6.89758">
        <ele>1773</ele>
        <time>2018-02-20T06:48:15Z</time>
      </trkpt>
      <trkpt lat="45.27605" lon="6.89757">
        <ele>1770</ele>
        <time>2018-02-20T06:49:15Z</time>
      </trkpt>
      <trkpt lat="45.27618" lon="6.89768">
        <ele>1768</ele>
        <time>2018-02-20T06:50:15Z</time>
      </trkpt>
      <trkpt lat="45.27666" lon="6.89893">
        <ele>1763</ele>
        <time>2018-02-20T06:51:15Z</time>
      </trkpt>
      <trkpt lat="45.27681" lon="6.89946">
        <ele>1759</ele>
        <time>2018-02-20T06:52:15Z</time>
      </trkpt>
      <trkpt lat="45.27699" lon="6.90032">
        <ele>1754</ele>
        <time>2018-02-20T06:53:15Z</time>
      </trkpt>
      <trkpt lat="45.27718" lon="6.9006">
        <ele>1749</ele>
        <time>2018-02-20T06:54:15Z</time>
      </trkpt>
      <trkpt lat="45.27738" lon="6.90081">
        <ele>1744</ele>
        <time>2018-02-20T06:55:15Z</time>
      </trkpt>
      <trkpt lat="45.27751" lon="6.90167">
        <ele>1746</ele>
        <time>2018-02-20T06:56:15Z</time>
      </trkpt>
      <trkpt lat="45.27774" lon="6.90233">
        <ele>1744</ele>
        <time>2018-02-20T06:57:15Z</time>
      </trkpt>
      <trkpt lat="45.27796" lon="6.90279">
        <ele>1741</ele>
        <time>2018-02-20T06:58:15Z</time>
      </trkpt>
      <trkpt lat="45.27829" lon="6.90305">
        <ele>1735</ele>
        <time>2018-02-20T06:59:15Z</time>
      </trkpt>
      <trkpt lat="45.2786" lon="6.90322">
        <ele>1725</ele>
        <time>2018-02-20T07:00:15Z</time>
      </trkpt>
      <trkpt lat="45.27881" lon="6.90365">
        <ele>1723</ele>
        <time>2018-02-20T07:01:15Z</time>
      </trkpt>
      <trkpt lat="45.27893" lon="6.90425">
        <ele>1725</ele>
        <time>2018-02-20T07:02:15Z</time>
      </trkpt>
      <trkpt lat="45.27901" lon="6.90472">
        <ele>1724</ele>
        <time>2018-02-20T07:03:15Z</time>
      </trkpt>
      <trkpt lat="45.27904" lon="6.90521">
        <ele>1725</ele>
        <time>2018-02-20T07:04:15Z</time>
      </trkpt>
      <trkpt lat="45.2791" lon="6.90559">
        <ele>1722</ele>
        <time>2018-02-20T07:05:15Z</time>
      </trkpt>
      <trkpt lat="45.2792" lon="6.90647">
        <ele>1719</ele>
        <time>2018-02-20T07:06:15Z</time>
      </trkpt>
      <trkpt lat="45.27925" lon="6.90712">
        <ele>1717</ele>
        <time>2018-02-20T07:07:15Z</time>
      </trkpt>
      <trkpt lat="45.27934" lon="6.9075">
        <ele>1712</ele>
        <time>2018-02-20T07:08:15Z</time>
      </trkpt>
      <trkpt lat="45.27955" lon="6.9082">
        <ele>1705</ele>
        <time>2018-02-20T07:09:15Z</time>
      </trkpt>
      <trkpt lat="45.2796" lon="6.90861">
        <ele>1706</ele>
        <time>2018-02-20T07:10:15Z</time>
      </trkpt>
      <trkpt lat="45.27979" lon="6.90923">
        <ele>1703</ele>
        <time>2018-02-20T07:11:15Z</time>
      </trkpt>
      <trkpt lat="45.28006" lon="6.90993">
        <ele>1696</ele>
        <time>2018-02-20T07:12:15Z</time>
      </trkpt>
      <trkpt lat="45.28042" lon="6.91066">
        <ele>1687</ele>
        <time>2018-02-20T07:13:15Z</time>
      </trkpt>
      <trkpt lat="45.28067" lon="6.91109">
        <ele>1682</ele>
        <time>2018-02-20T07:14:15Z</time>
      </trkpt>
      <trkpt lat="45.28115" lon="6.91203">
        <ele>1676</ele>
        <time>2018-02-20T07:15:15Z</time>
      </trkpt>
      <trkpt lat="45.28128" lon="6.91208">
        <ele>1672</ele>
        <time>2018-02-20T07:16:15Z</time>
      </trkpt>
      <trkpt lat="45.28137" lon="6.91195">
        <ele>1669</ele>
        <time>2018-02-20T07:17:15Z</time>
      </trkpt>
      <trkpt lat="45.28137" lon="6.91173">
        <ele>1668</ele>
        <time>2018-02-20T07:18:15Z</time>
      </trkpt>
      <trkpt lat="45.28083" lon="6.90825">
        <ele>1651</ele>
        <time>2018-02-20T07:19:15Z</time>
      </trkpt>
      <trkpt lat="45.28071" lon="6.907">
        <ele>1649</ele>
        <time>2018-02-20T07:20:15Z</time>
      </trkpt>
      <trkpt lat="45.28082" lon="6.90468">
        <ele>1627</ele>
        <time>2018-02-20T07:21:15Z</time>
      </trkpt>
      <trkpt lat="45.28079" lon="6.90439">
        <ele>1626</ele>
        <time>2018-02-20T07:22:15Z</time>
      </trkpt>
      <trkpt lat="45.2807" lon="6.9039">
        <ele>1625</ele>
        <time>2018-02-20T07:23:15Z</time>
      </trkpt>
      <trkpt lat="45.28064" lon="6.90333">
        <ele>1622</ele>
        <time>2018-02-20T07:24:15Z</time>
      </trkpt>
      <trkpt lat="45.28063" lon="6.90309">
        <ele>1621</ele>
        <time>2018-02-20T07:25:15Z</time>
      </trkpt>
      <trkpt lat="45.28064" lon="6.90242">
        <ele>1618</ele>
        <time>2018-02-20T07:26:15Z</time>
      </trkpt>
      <trkpt lat="45.28068" lon="6.90189">
        <ele>1616</ele>
        <time>2018-02-20T07:27:15Z</time>
      </trkpt>
      <trkpt lat="45.2807" lon="6.90137">
        <ele>1614</ele>
        <time>2018-02-20T07:28:15Z</time>
      </trkpt>
      <trkpt lat="45.28069" lon="6.90075">
        <ele>1611</ele>
        <time>2018-02-20T07:29:15Z</time>
      </trkpt>
      <trkpt lat="45.28081" lon="6.89967">
        <ele>1598</ele>
        <time>2018-02-20T07:30:15Z</time>
      </trkpt>
      <trkpt lat="45.28078" lon="6.89926">
        <ele>1598</ele>
        <time>2018-02-20T07:31:15Z</time>
      </trkpt>
      <trkpt lat="45.28067" lon="6.89883">
        <ele>1600</ele>
        <time>2018-02-20T07:32:15Z</time>
      </trkpt>
      <trkpt lat="45.28066" lon="6.89846">
        <ele>1597</ele>
        <time>2018-02-20T07:33:15Z</time>
      </trkpt>
      <trkpt lat="45.28073" lon="6.89815">
        <ele>1592</ele>
        <time>2018-02-20T07:34:15Z</time>
      </trkpt>
      <trkpt lat="45.28076" lon="6.89795">
        <ele>1590</ele>
        <time>2018-02-20T07:35:15Z</time>
      </trkpt>
      <trkpt lat="45.28072" lon="6.89734">
        <ele>1589</ele>
        <time>2018-02-20T07:36:15Z</time>
      </trkpt>
      <trkpt lat="45.28072" lon="6.89723">
        <ele>1588</ele>
        <time>2018-02-20T07:37:15Z</time>
      </trkpt>
      <trkpt lat="45.28076" lon="6.89712">
        <ele>1584</ele>
        <time>2018-02-20T07:38:15Z</time>
      </trkpt>
      <trkpt lat="45.2808" lon="6.8971">
        <ele>1582</ele>
        <time>2018-02-20T07:39:15Z</time>
      </trkpt>
      <trkpt lat="45.28086" lon="6.89708">
        <ele>1579</ele>
        <time>2018-02-20T07:40:15Z</time>
      </trkpt>
      <trkpt lat="45.28092" lon="6.89712">
        <ele>1578</ele>
        <time>2018-02-20T07:41:15Z</time>
      </trkpt>
      <trkpt lat="45.28095" lon="6.89719">
        <ele>1577</ele>
        <time>2018-02-20T07:42:15Z</time>
      </trkpt>
      <trkpt lat="45.28098" lon="6.89743">
        <ele>1578</ele>
        <time>2018-02-20T07:43:15Z</time>
      </trkpt>
      <trkpt lat="45.28098" lon="6.89805">
        <ele>1580</ele>
        <time>2018-02-20T07:44:15Z</time>
      </trkpt>
      <trkpt lat="45.28102" lon="6.89846">
        <ele>1580</ele>
        <time>2018-02-20T07:45:15Z</time>
      </trkpt>
      <trkpt lat="45.28108" lon="6.89884">
        <ele>1580</ele>
        <time>2018-02-20T07:46:15Z</time>
      </trkpt>
      <trkpt lat="45.28117" lon="6.89919">
        <ele>1578</ele>
        <time>2018-02-20T07:47:15Z</time>
      </trkpt>
      <trkpt lat="45.28202" lon="6.90192">
        <ele>1554</ele>
        <time>2018-02-20T07:48:15Z</time>
      </trkpt>
      <trkpt lat="45.28209" lon="6.90226">
        <ele>1552</ele>
        <time>2018-02-20T07:49:15Z</time>
      </trkpt>
      <trkpt lat="45.28216" lon="6.90274">
        <ele>1552</ele>
        <time>2018-02-20T07:50:15Z</time>
      </trkpt>
      <trkpt lat="45.28224" lon="6.90304">
        <ele>1552</ele>
        <time>2018-02-20T07:51:15Z</time>
      </trkpt>
      <trkpt lat="45.28248" lon="6.90346">
        <ele>1547</ele>
        <time>2018-02-20T07:52:15Z</time>
      </trkpt>
      <trkpt lat="45.28321" lon="6.90456">
        <ele>1540</ele>
        <time>2018-02-20T07:53:15Z</time>
      </trkpt>
      <trkpt lat="45.28328" lon="6.90475">
        <ele>1540</ele>
        <time>2018-02-20T07:54:15Z</time>
      </trkpt>
      <trkpt lat="45.28334" lon="6.90495">
        <ele>1541</ele>
        <time>2018-02-20T07:55:15Z</time>
      </trkpt>
      <trkpt lat="45.28339" lon="6.90536">
        <ele>1541</ele>
        <time>2018-02-20T07:56:15Z</time>
      </trkpt>
      <trkpt lat="45.2835" lon="6.90574">
        <ele>1538</ele>
        <time>2018-02-20T07:57:15Z</time>
      </trkpt>
      <trkpt lat="45.2843" lon="6.90733">
        <ele>1523</ele>
        <time>2018-02-20T07:58:15Z</time>
      </trkpt>
      <trkpt lat="45.28458" lon="6.90784">
        <ele>1524</ele>
        <time>2018-02-20T07:59:15Z</time>
      </trkpt>
      <trkpt lat="45.28475" lon="6.90801">
        <ele>1524</ele>
        <time>2018-02-20T08:00:15Z</time>
      </trkpt>
      <trkpt lat="45.28491" lon="6.90797">
        <ele>1522</ele>
        <time>2018-02-20T08:01:15Z</time>
      </trkpt>
      <trkpt lat="45.28499" lon="6.90789">
        <ele>1521</ele>
        <time>2018-02-20T08:02:15Z</time>
      </trkpt>
      <trkpt lat="45.28531" lon="6.90802">
        <ele>1520</ele>
        <time>2018-02-20T08:03:15Z</time>
      </trkpt>
      <trkpt lat="45.28575" lon="6.90823">
        <ele>1518</ele>
        <time>2018-02-20T08:04:15Z</time>
      </trkpt>
      <trkpt lat="45.28618" lon="6.90847">
        <ele>1515</ele>
        <time>2018-02-20T08:05:15Z</time>
      </trkpt>
      <trkpt lat="45.28633" lon="6.9086">
        <ele>1514</ele>
        <time>2018-02-20T08:06:15Z</time>
      </trkpt>
      <trkpt lat="45.28644" lon="6.90876">
        <ele>1513</ele>
        <time>2018-02-20T08:07:15Z</time>
      </trkpt>
      <trkpt lat="45.28649" lon="6.90887">
        <ele>1513</ele>
        <time>2018-02-20T08:08:15Z</time>
      </trkpt>
      <trkpt lat="45.28653" lon="6.90901">
        <ele>1514</ele>
        <time>2018-02-20T08:09:15Z</time>
      </trkpt>
      <trkpt lat="45.28661" lon="6.90958">
        <ele>1515</ele>
        <time>2018-02-20T08:10:15Z</time>
      </trkpt>
      <trkpt lat="45.28669" lon="6.90987">
        <ele>1515</ele>
        <time>2018-02-20T08:11:15Z</time>
      </trkpt>
      <trkpt lat="45.28675" lon="6.91">
        <ele>1514</ele>
        <time>2018-02-20T08:12:15Z</time>
      </trkpt>
      <trkpt lat="45.28702" lon="6.91043">
        <ele>1513</ele>
        <time>2018-02-20T08:13:15Z</time>
      </trkpt>
      <trkpt lat="45.28713" lon="6.91067">
        <ele>1512</ele>
        <time>2018-02-20T08:14:15Z</time>
      </trkpt>
      <trkpt lat="45.28717" lon="6.91086">
        <ele>1513</ele>
        <time>2018-02-20T08:15:15Z</time>
      </trkpt>
      <trkpt lat="45.28729" lon="6.91164">
        <ele>1515</ele>
        <time>2018-02-20T08:16:15Z</time>
      </trkpt>
      <trkpt lat="45.28738" lon="6.91198">
        <ele>1514</ele>
        <time>2018-02-20T08:17:15Z</time>
      </trkpt>
      <trkpt lat="45.28783" lon="6.9132">
        <ele>1511</ele>
        <time>2018-02-20T08:18:15Z</time>
      </trkpt>
      <trkpt lat="45.28788" lon="6.9133">
        <ele>1511</ele>
        <time>2018-02-20T08:19:15Z</time>
      </trkpt>
      <trkpt lat="45.288" lon="6.91341">
        <ele>1510</ele>
        <time>2018-02-20T08:20:15Z</time>
      </trkpt>
      <trkpt lat="45.28807" lon="6.91342">
        <ele>1509</ele>
        <time>2018-02-20T08:21:15Z</time>
      </trkpt>
      <trkpt lat="45.28819" lon="6.91336">
        <ele>1506</ele>
        <time>2018-02-20T08:22:15Z</time>
      </trkpt>
      <trkpt lat="45.28822" lon="6.91329">
        <ele>1505</ele>
        <time>2018-02-20T08:23:15Z</time>
      </trkpt>
      <trkpt lat="45.28823" lon="6.9132">
        <ele>1504</ele>
        <time>2018-02-20T08:24:15Z</time>
      </trkpt>
      <trkpt lat="45.28823" lon="6.91304">
        <ele>1504</ele>
        <time>2018-02-20T08:25:15Z</time>
      </trkpt>
      <trkpt lat="45.28815" lon="6.91256">
        <ele>1503</ele>
        <time>2018-02-20T08:26:15Z</time>
      </trkpt>
      <trkpt lat="45.28837" lon="6.9125">
        <ele>1499</ele>
        <time>2018-02-20T08:27:15Z</time>
      </trkpt>
      <trkpt lat="45.28844" lon="6.9124">
        <ele>1498</ele>
        <time>2018-02-20T08:28:15Z</time>
      </trkpt>
      <trkpt lat="45.28852" lon="6.91204">
        <ele>1495</ele>
        <time>2018-02-20T08:29:15Z</time>
      </trkpt>
      <trkpt lat="45.28859" lon="6.91199">
        <ele>1493</ele>
        <time>2018-02-20T08:30:15Z</time>
      </trkpt>
      <trkpt lat="45.28905" lon="6.91178">
        <ele>1486</ele>
        <time>2018-02-20T08:31:15Z</time>
      </trkpt>
      <trkpt lat="45.28961" lon="6.91113">
        <ele>1479</ele>
        <time>2018-02-20T08:32:15Z</time>
      </trkpt>
      <trkpt lat="45.28971" lon="6.91123">
        <ele>1477</ele>
        <time>2018-02-20T08:33:15Z</time>
      </trkpt>
      <trkpt lat="45.28974" lon="6.91124">
        <ele>1476</ele>
        <time>2018-02-20T08:34:15Z</time>
      </trkpt>
      <trkpt lat="45.28979" lon="6.9112">
        <ele>1476</ele>
        <time>2018-02-20T08:35:15Z</time>
      </trkpt>
      <trkpt lat="45.28988" lon="6.91091">
        <ele>1477</ele>
        <time>2018-02-20T08:36:15Z</time>
      </trkpt>
      <trkpt lat="45.28991" lon="6.91069">
        <ele>1476</ele>
        <time>2018-02-20T08:37:15Z</time>
      </trkpt>
      <trkpt lat="45.28995" lon="6.91063">
        <ele>1475</ele>
        <time>2018-02-20T08:38:15Z</time>
      </trkpt>
      <trkpt lat="45.29001" lon="6.91066">
        <ele>1475</ele>
        <time>2018-02-20T08:39:15Z</time>
      </trkpt>
      <trkpt lat="45.29002" lon="6.91072">
        <ele>1475</ele>
        <time>2018-02-20T08:40:15Z</time>
      </trkpt>
      <trkpt lat="45.28994" lon="6.91109">
        <ele>1475</ele>
        <time>2018-02-20T08:41:15Z</time>
      </trkpt>
      <trkpt lat="45.2899" lon="6.91157">
        <ele>1472</ele>
        <time>2018-02-20T08:42:15Z</time>
      </trkpt>
      <trkpt lat="45.28974" lon="6.9121">
        <ele>1473</ele>
        <time>2018-02-20T08:43:15Z</time>
      </trkpt>
      <trkpt lat="45.28973" lon="6.91221">
        <ele>1473</ele>
        <time>2018-02-20T08:44:15Z</time>
      </trkpt>
      <trkpt lat="45.28974" lon="6.91241">
        <ele>1472</ele>
        <time>2018-02-20T08:45:15Z</time>
      </trkpt>
      <trkpt lat="45.2898" lon="6.91265">
        <ele>1470</ele>
        <time>2018-02-20T08:46:15Z</time>
      </trkpt>
      <trkpt lat="45.28985" lon="6.91272">
        <ele>1469</ele>
        <time>2018-02-20T08:47:15Z</time>
      </trkpt>
      <trkpt lat="45.29035" lon="6.91278">
        <ele>1466</ele>
        <time>2018-02-20T08:48:15Z</time>
      </trkpt>
      <trkpt lat="45.29033" lon="6.9131">
        <ele>1467</ele>
        <time>2018-02-20T08:49:15Z</time>
      </trkpt>
      <trkpt lat="45.29033" lon="6.91328">
        <ele>1467</ele>
        <time>2018-02-20T08:50:15Z</time>
      </trkpt>
      <trkpt lat="45.29038" lon="6.91352">
        <ele>1467</ele>
        <time>2018-02-20T08:51:15Z</time>
      </trkpt>
      <trkpt lat="45.29051" lon="6.91389">
        <ele>1468</ele>
        <time>2018-02-20T08:52:15Z</time>
      </trkpt>
      <trkpt lat="45.29113" lon="6.91491">
        <ele>1470</ele>
        <time>2018-02-20T08:53:15Z</time>
      </trkpt>
      <trkpt lat="45.29123" lon="6.91515">
        <ele>1470</ele>
        <time>2018-02-20T08:54:15Z</time>
      </trkpt>
      <trkpt lat="45.29138" lon="6.91559">
        <ele>1471</ele>
        <time>2018-02-20T08:55:15Z</time>
      </trkpt>
      <trkpt lat="45.29144" lon="6.91589">
        <ele>1471</ele>
        <time>2018-02-20T08:56:15Z</time>
      </trkpt>
      <trkpt lat="45.29141" lon="6.91631">
        <ele>1472</ele>
        <time>2018-02-20T08:57:15Z</time>
      </trkpt>
      <trkpt lat="45.29149" lon="6.91695">
        <ele>1473</ele>
        <time>2018-02-20T08:58:15Z</time>
      </trkpt>
      <trkpt lat="45.29149" lon="6.91822">
        <ele>1476</ele>
        <time>2018-02-20T08:59:15Z</time>
      </trkpt>
      <trkpt lat="45.2915" lon="6.9183">
        <ele>1477</ele>
        <time>2018-02-20T09:00:15Z</time>
      </trkpt>
      <trkpt lat="45.29158" lon="6.91856">
        <ele>1479</ele>
        <time>2018-02-20T09:01:15Z</time>
      </trkpt>
      <trkpt lat="45.29163" lon="6.91882">
        <ele>1481</ele>
        <time>2018-02-20T09:02:15Z</time>
      </trkpt>
      <trkpt lat="45.29177" lon="6.91922">
        <ele>1485</ele>
        <time>2018-02-20T09:03:15Z</time>
      </trkpt>
      <trkpt lat="45.29187" lon="6.91942">
        <ele>1489</ele>
        <time>2018-02-20T09:04:15Z</time>
      </trkpt>
      <trkpt lat="45.29214" lon="6.91987">
        <ele>1495</ele>
        <time>2018-02-20T09:05:15Z</time>
      </trkpt>
      <trkpt lat="45.29257" lon="6.92043">
        <ele>1500</ele>
        <time>2018-02-20T09:06:15Z</time>
      </trkpt>
      <trkpt lat="45.29294" lon="6.92112">
        <ele>1506</ele>
        <time>2018-02-20T09:07:15Z</time>
      </trkpt>
      <trkpt lat="45.29304" lon="6.92135">
        <ele>1509</ele>
        <time>2018-02-20T09:08:15Z</time>
      </trkpt>
      <trkpt lat="45.29316" lon="6.92185">
        <ele>1514</ele>
        <time>2018-02-20T09:09:15Z</time>
      </trkpt>
      <trkpt lat="45.29324" lon="6.92229">
        <ele>1518</ele>
        <time>2018-02-20T09:10:15Z</time>
      </trkpt>
      <trkpt lat="45.29329" lon="6.92238">
        <ele>1519</ele>
        <time>2018-02-20T09:11:15Z</time>
      </trkpt>
      <trkpt lat="45.29333" lon="6.92241">
        <ele>1519</ele>
        <time>2018-02-20T09:12:15Z</time>
      </trkpt>
      <trkpt lat="45.29354" lon="6.92242">
        <ele>1527</ele>
        <time>2018-02-20T09:13:15Z</time>
      </trkpt>
      <trkpt lat="45.29363" lon="6.92246">
        <ele>1530</ele>
        <time>2018-02-20T09:14:15Z</time>
      </trkpt>
      <trkpt lat="45.29366" lon="6.92252">
        <ele>1531</ele>
        <time>2018-02-20T09:15:15Z</time>
      </trkpt>
      <trkpt lat="45.29368" lon="6.92259">
        <ele>1532</ele>
        <time>2018-02-20T09:16:15Z</time>
      </trkpt>
      <trkpt lat="45.29367" lon="6.92281">
        <ele>1533</ele>
        <time>2018-02-20T09:17:15Z</time>
      </trkpt>
      <trkpt lat="45.29339" lon="6.92359">
        <ele>1529</ele>
        <time>2018-02-20T09:18:15Z</time>
      </trkpt>
      <trkpt lat="45.29335" lon="6.92375">
        <ele>1529</ele>
        <time>2018-02-20T09:19:15Z</time>
      </trkpt>
      <trkpt lat="45.29337" lon="6.92394">
        <ele>1530</ele>
        <time>2018-02-20T09:20:15Z</time>
      </trkpt>
      <trkpt lat="45.29345" lon="6.92416">
        <ele>1533</ele>
        <time>2018-02-20T09:21:15Z</time>
      </trkpt>
      <trkpt lat="45.2936" lon="6.92435">
        <ele>1538</ele>
        <time>2018-02-20T09:22:15Z</time>
      </trkpt>
      <trkpt lat="45.29369" lon="6.9244">
        <ele>1540</ele>
        <time>2018-02-20T09:23:15Z</time>
      </trkpt>
      <trkpt lat="45.29382" lon="6.9244">
        <ele>1543</ele>
        <time>2018-02-20T09:24:15Z</time>
      </trkpt>
      <trkpt lat="45.29402" lon="6.92435">
        <ele>1547</ele>
        <time>2018-02-20T09:25:15Z</time>
      </trkpt>
      <trkpt lat="45.29408" lon="6.92436">
        <ele>1548</ele>
        <time>2018-02-20T09:26:15Z</time>
      </trkpt>
      <trkpt lat="45.29417" lon="6.92445">
        <ele>1550</ele>
        <time>2018-02-20T09:27:15Z</time>
      </trkpt>
      <trkpt lat="45.29418" lon="6.92451">
        <ele>1551</ele>
        <time>2018-02-20T09:28:15Z</time>
      </trkpt>
      <trkpt lat="45.29417" lon="6.92493">
        <ele>1551</ele>
        <time>2018-02-20T09:29:15Z</time>
      </trkpt>
      <trkpt lat="45.29421" lon="6.92549">
        <ele>1556</ele>
        <time>2018-02-20T09:30:15Z</time>
      </trkpt>
      <trkpt lat="45.29409" lon="6.92619">
        <ele>1557</ele>
        <time>2018-02-20T09:31:15Z</time>
      </trkpt>
      <trkpt lat="45.2941" lon="6.92636">
        <ele>1558</ele>
        <time>2018-02-20T09:32:15Z</time>
      </trkpt>
      <trkpt lat="45.29413" lon="6.92642">
        <ele>1558</ele>
        <time>2018-02-20T09:33:15Z</time>
      </trkpt>
      <trkpt lat="45.2942" lon="6.92651">
        <ele>1560</ele>
        <time>2018-02-20T09:34:15Z</time>
      </trkpt>
      <trkpt lat="45.29426" lon="6.92652">
        <ele>1562</ele>
        <time>2018-02-20T09:35:15Z</time>
      </trkpt>
      <trkpt lat="45.29442" lon="6.92649">
        <ele>1568</ele>
        <time>2018-02-20T09:36:15Z</time>
      </trkpt>
      <trkpt lat="45.29461" lon="6.92642">
        <ele>1574</ele>
        <time>2018-02-20T09:37:15Z</time>
      </trkpt>
      <trkpt lat="45.29472" lon="6.92647">
        <ele>1578</ele>
        <time>2018-02-20T09:38:15Z</time>
      </trkpt>
      <trkpt lat="45.29476" lon="6.92652">
        <ele>1580</ele>
        <time>2018-02-20T09:39:15Z</time>
      </trkpt>
      <trkpt lat="45.2948" lon="6.92667">
        <ele>1581</ele>
        <time>2018-02-20T09:40:15Z</time>
      </trkpt>
      <trkpt lat="45.29482" lon="6.92685">
        <ele>1582</ele>
        <time>2018-02-20T09:41:15Z</time>
      </trkpt>
      <trkpt lat="45.29483" lon="6.92716">
        <ele>1584</ele>
        <time>2018-02-20T09:42:15Z</time>
      </trkpt>
      <trkpt lat="45.2948" lon="6.92731">
        <ele>1583</ele>
        <time>2018-02-20T09:43:15Z</time>
      </trkpt>
      <trkpt lat="45.29447" lon="6.92801">
        <ele>1582</ele>
        <time>2018-02-20T09:44:15Z</time>
      </trkpt>
      <trkpt lat="45.29383" lon="6.92902">
        <ele>1586</ele>
        <time>2018-02-20T09:45:15Z</time>
      </trkpt>
      <trkpt lat="45.29373" lon="6.92926">
        <ele>1587</ele>
        <time>2018-02-20T09:46:15Z</time>
      </trkpt>
      <trkpt lat="45.29368" lon="6.92945">
        <ele>1587</ele>
        <time>2018-02-20T09:47:15Z</time>
      </trkpt>
      <trkpt lat="45.29365" lon="6.92971">
        <ele>1587</ele>
        <time>2018-02-20T09:48:15Z</time>
      </trkpt>
      <trkpt lat="45.29366" lon="6.93003">
        <ele>1590</ele>
        <time>2018-02-20T09:49:15Z</time>
      </trkpt>
      <trkpt lat="45.2937" lon="6.93046">
        <ele>1590</ele>
        <time>2018-02-20T09:50:15Z</time>
      </trkpt>
      <trkpt lat="45.29381" lon="6.93108">
        <ele>1594</ele>
        <time>2018-02-20T09:51:15Z</time>
      </trkpt>
      <trkpt lat="45.29388" lon="6.93131">
        <ele>1596</ele>
        <time>2018-02-20T09:52:15Z</time>
      </trkpt>
      <trkpt lat="45.29445" lon="6.93271">
        <ele>1606</ele>
        <time>2018-02-20T09:53:15Z</time>
      </trkpt>
      <trkpt lat="45.2948" lon="6.93335">
        <ele>1613</ele>
        <time>2018-02-20T09:54:15Z</time>
      </trkpt>
      <trkpt lat="45.29494" lon="6.93355">
        <ele>1616</ele>
        <time>2018-02-20T09:55:15Z</time>
      </trkpt>
      <trkpt lat="45.2954" lon="6.93407">
        <ele>1621</ele>
        <time>2018-02-20T09:56:15Z</time>
      </trkpt>
      <trkpt lat="45.29578" lon="6.93434">
        <ele>1628</ele>
        <time>2018-02-20T09:57:15Z</time>
      </trkpt>
      <trkpt lat="45.29604" lon="6.93434">
        <ele>1633</ele>
        <time>2018-02-20T09:58:15Z</time>
      </trkpt>
      <trkpt lat="45.29625" lon="6.93426">
        <ele>1636</ele>
        <time>2018-02-20T09:59:15Z</time>
      </trkpt>
      <trkpt lat="45.29636" lon="6.93412">
        <ele>1638</ele>
        <time>2018-02-20T10:00:15Z</time>
      </trkpt>
      <trkpt lat="45.29669" lon="6.93359">
        <ele>1641</ele>
        <time>2018-02-20T10:01:15Z</time>
      </trkpt>
      <trkpt lat="45.29694" lon="6.93332">
        <ele>1642</ele>
        <time>2018-02-20T10:02:15Z</time>
      </trkpt>
      <trkpt lat="45.29706" lon="6.93326">
        <ele>1643</ele>
        <time>2018-02-20T10:03:15Z</time>
      </trkpt>
      <trkpt lat="45.2972" lon="6.93322">
        <ele>1644</ele>
        <time>2018-02-20T10:04:15Z</time>
      </trkpt>
      <trkpt lat="45.29732" lon="6.93321">
        <ele>1645</ele>
        <time>2018-02-20T10:05:15Z</time>
      </trkpt>
      <trkpt lat="45.29755" lon="6.93328">
        <ele>1647</ele>
        <time>2018-02-20T10:06:15Z</time>
      </trkpt>
      <trkpt lat="45.29765" lon="6.93336">
        <ele>1649</ele>
        <time>2018-02-20T10:07:15Z</time>
      </trkpt>
      <trkpt lat="45.29777" lon="6.9335">
        <ele>1651</ele>
        <time>2018-02-20T10:08:15Z</time>
      </trkpt>
      <trkpt lat="45.29786" lon="6.93365">
        <ele>1652</ele>
        <time>2018-02-20T10:09:15Z</time>
      </trkpt>
      <trkpt lat="45.29796" lon="6.93394">
        <ele>1654</ele>
        <time>2018-02-20T10:10:15Z</time>
      </trkpt>
      <trkpt lat="45.29798" lon="6.93425">
        <ele>1655</ele>
        <time>2018-02-20T10:11:15Z</time>
      </trkpt>
      <trkpt lat="45.29792" lon="6.93484">
        <ele>1658</ele>
        <time>2018-02-20T10:12:15Z</time>
      </trkpt>
      <trkpt lat="45.29787" lon="6.93513">
        <ele>1660</ele>
        <time>2018-02-20T10:13:15Z</time>
      </trkpt>
      <trkpt lat="45.29783" lon="6.93526">
        <ele>1661</ele>
        <time>2018-02-20T10:14:15Z</time>
      </trkpt>
      <trkpt lat="45.29768" lon="6.93551">
        <ele>1661</ele>
        <time>2018-02-20T10:15:15Z</time>
      </trkpt>
      <trkpt lat="45.29758" lon="6.9356">
        <ele>1660</ele>
        <time>2018-02-20T10:16:15Z</time>
      </trkpt>
      <trkpt lat="45.29698" lon="6.93594">
        <ele>1658</ele>
        <time>2018-02-20T10:17:15Z</time>
      </trkpt>
      <trkpt lat="45.29692" lon="6.93602">
        <ele>1659</ele>
        <time>2018-02-20T10:18:15Z</time>
      </trkpt>
      <trkpt lat="45.29689" lon="6.9361">
        <ele>1659</ele>
        <time>2018-02-20T10:19:15Z</time>
      </trkpt>
      <trkpt lat="45.29687" lon="6.93622">
        <ele>1661</ele>
        <time>2018-02-20T10:20:15Z</time>
      </trkpt>
      <trkpt lat="45.29687" lon="6.93637">
        <ele>1663</ele>
        <time>2018-02-20T10:21:15Z</time>
      </trkpt>
      <trkpt lat="45.29693" lon="6.93656">
        <ele>1667</ele>
        <time>2018-02-20T10:22:15Z</time>
      </trkpt>
      <trkpt lat="45.29699" lon="6.93666">
        <ele>1670</ele>
        <time>2018-02-20T10:23:15Z</time>
      </trkpt>
      <trkpt lat="45.29706" lon="6.93673">
        <ele>1672</ele>
        <time>2018-02-20T10:24:15Z</time>
      </trkpt>
      <trkpt lat="45.2972" lon="6.93677">
        <ele>1675</ele>
        <time>2018-02-20T10:25:15Z</time>
      </trkpt>
      <trkpt lat="45.29726" lon="6.93676">
        <ele>1677</ele>
        <time>2018-02-20T10:26:15Z</time>
      </trkpt>
      <trkpt lat="45.29741" lon="6.93665">
        <ele>1679</ele>
        <time>2018-02-20T10:27:15Z</time>
      </trkpt>
      <trkpt lat="45.29768" lon="6.9364">
        <ele>1679</ele>
        <time>2018-02-20T10:28:15Z</time>
      </trkpt>
      <trkpt lat="45.29829" lon="6.93595">
        <ele>1680</ele>
        <time>2018-02-20T10:29:15Z</time>
      </trkpt>
      <trkpt lat="45.29885" lon="6.93537">
        <ele>1683</ele>
        <time>2018-02-20T10:30:15Z</time>
      </trkpt>
      <trkpt lat="45.29902" lon="6.9353">
        <ele>1686</ele>
        <time>2018-02-20T10:31:15Z</time>
      </trkpt>
      <trkpt lat="45.29912" lon="6.9353">
        <ele>1688</ele>
        <time>2018-02-20T10:32:15Z</time>
      </trkpt>
      <trkpt lat="45.2992" lon="6.93532">
        <ele>1690</ele>
        <time>2018-02-20T10:33:15Z</time>
      </trkpt>
      <trkpt lat="45.29928" lon="6.93537">
        <ele>1693</ele>
        <time>2018-02-20T10:34:15Z</time>
      </trkpt>
      <trkpt lat="45.29936" lon="6.93547">
        <ele>1695</ele>
        <time>2018-02-20T10:35:15Z</time>
      </trkpt>
      <trkpt lat="45.29942" lon="6.93557">
        <ele>1697</ele>
        <time>2018-02-20T10:36:15Z</time>
      </trkpt>
      <trkpt lat="45.29948" lon="6.93575">
        <ele>1698</ele>
        <time>2018-02-20T10:37:15Z</time>
      </trkpt>
      <trkpt lat="45.29974" lon="6.93695">
        <ele>1703</ele>
        <time>2018-02-20T10:38:15Z</time>
      </trkpt>
      <trkpt lat="45.29979" lon="6.93726">
        <ele>1702</ele>
        <time>2018-02-20T10:39:15Z</time>
      </trkpt>
      <trkpt lat="45.29981" lon="6.93752">
        <ele>1702</ele>
        <time>2018-02-20T10:40:15Z</time>
      </trkpt>
      <trkpt lat="45.29978" lon="6.93791">
        <ele>1702</ele>
        <time>2018-02-20T10:41:15Z</time>
      </trkpt>
      <trkpt lat="45.29972" lon="6.93817">
        <ele>1703</ele>
        <time>2018-02-20T10:42:15Z</time>
      </trkpt>
      <trkpt lat="45.29926" lon="6.93959">
        <ele>1715</ele>
        <time>2018-02-20T10:43:15Z</time>
      </trkpt>
      <trkpt lat="45.29921" lon="6.93981">
        <ele>1716</ele>
        <time>2018-02-20T10:44:15Z</time>
      </trkpt>
      <trkpt lat="45.29919" lon="6.93998">
        <ele>1717</ele>
        <time>2018-02-20T10:45:15Z</time>
      </trkpt>
      <trkpt lat="45.2992" lon="6.94013">
        <ele>1716</ele>
        <time>2018-02-20T10:46:15Z</time>
      </trkpt>
      <trkpt lat="45.29924" lon="6.94028">
        <ele>1715</ele>
        <time>2018-02-20T10:47:15Z</time>
      </trkpt>
      <trkpt lat="45.2993" lon="6.94045">
        <ele>1715</ele>
        <time>2018-02-20T10:48:15Z</time>
      </trkpt>
      <trkpt lat="45.29939" lon="6.94063">
        <ele>1715</ele>
        <time>2018-02-20T10:49:15Z</time>
      </trkpt>
      <trkpt lat="45.30011" lon="6.94165">
        <ele>1716</ele>
        <time>2018-02-20T10:50:15Z</time>
      </trkpt>
      <trkpt lat="45.30029" lon="6.94194">
        <ele>1716</ele>
        <time>2018-02-20T10:51:15Z</time>
      </trkpt>
      <trkpt lat="45.30046" lon="6.94225">
        <ele>1716</ele>
        <time>2018-02-20T10:52:15Z</time>
      </trkpt>
      <trkpt lat="45.30072" lon="6.94305">
        <ele>1724</ele>
        <time>2018-02-20T10:53:15Z</time>
      </trkpt>
      <trkpt lat="45.30077" lon="6.9433">
        <ele>1727</ele>
        <time>2018-02-20T10:54:15Z</time>
      </trkpt>
      <trkpt lat="45.30079" lon="6.94358">
        <ele>1728</ele>
        <time>2018-02-20T10:55:15Z</time>
      </trkpt>
      <trkpt lat="45.30087" lon="6.94544">
        <ele>1735</ele>
        <time>2018-02-20T10:56:15Z</time>
      </trkpt>
      <trkpt lat="45.30086" lon="6.9462">
        <ele>1736</ele>
        <time>2018-02-20T10:57:15Z</time>
      </trkpt>
      <trkpt lat="45.30078" lon="6.94681">
        <ele>1738</ele>
        <time>2018-02-20T10:58:15Z</time>
      </trkpt>
      <trkpt lat="45.30068" lon="6.9472">
        <ele>1739</ele>
        <time>2018-02-20T10:59:15Z</time>
      </trkpt>
      <trkpt lat="45.30009" lon="6.94906">
        <ele>1739</ele>
        <time>2018-02-20T11:00:15Z</time>
      </trkpt>
      <trkpt lat="45.30007" lon="6.94923">
        <ele>1738</ele>
        <time>2018-02-20T11:01:15Z</time>
      </trkpt>
      <trkpt lat="45.30006" lon="6.94953">
        <ele>1737</ele>
        <time>2018-02-20T11:02:15Z</time>
      </trkpt>
      <trkpt lat="45.3001" lon="6.94988">
        <ele>1736</ele>
        <time>2018-02-20T11:03:15Z</time>
      </trkpt>
      <trkpt lat="45.30069" lon="6.95256">
        <ele>1721</ele>
        <time>2018-02-20T11:04:15Z</time>
      </trkpt>
      <trkpt lat="45.30076" lon="6.95274">
        <ele>1723</ele>
        <time>2018-02-20T11:05:15Z</time>
      </trkpt>
      <trkpt lat="45.30085" lon="6.95287">
        <ele>1725</ele>
        <time>2018-02-20T11:06:15Z</time>
      </trkpt>
      <trkpt lat="45.301" lon="6.95299">
        <ele>1724</ele>
        <time>2018-02-20T11:07:15Z</time>
      </trkpt>
      <trkpt lat="45.30117" lon="6.95305">
        <ele>1723</ele>
        <time>2018-02-20T11:08:15Z</time>
      </trkpt>
      <trkpt lat="45.30134" lon="6.95304">
        <ele>1723</ele>
        <time>2018-02-20T11:09:15Z</time>
      </trkpt>
      <trkpt lat="45.30196" lon="6.95289">
        <ele>1723</ele>
        <time>2018-02-20T11:10:15Z</time>
      </trkpt>
      <trkpt lat="45.30219" lon="6.95289">
        <ele>1721</ele>
        <time>2018-02-20T11:11:15Z</time>
      </trkpt>
      <trkpt lat="45.30231" lon="6.95294">
        <ele>1720</ele>
        <time>2018-02-20T11:12:15Z</time>
      </trkpt>
      <trkpt lat="45.30239" lon="6.95302">
        <ele>1719</ele>
        <time>2018-02-20T11:13:15Z</time>
      </trkpt>
      <trkpt lat="45.30249" lon="6.95317">
        <ele>1718</ele>
        <time>2018-02-20T11:14:15Z</time>
      </trkpt>
      <trkpt lat="45.30261" lon="6.95349">
        <ele>1716</ele>
        <time>2018-02-20T11:15:15Z</time>
      </trkpt>
      <trkpt lat="45.30289" lon="6.95488">
        <ele>1708</ele>
        <time>2018-02-20T11:16:15Z</time>
      </trkpt>
      <trkpt lat="45.30296" lon="6.95515">
        <ele>1706</ele>
        <time>2018-02-20T11:17:15Z</time>
      </trkpt>
      <trkpt lat="45.30307" lon="6.95546">
        <ele>1703</ele>
        <time>2018-02-20T11:18:15Z</time>
      </trkpt>
      <trkpt lat="45.30317" lon="6.95567">
        <ele>1702</ele>
        <time>2018-02-20T11:19:15Z</time>
      </trkpt>
      <trkpt lat="45.30325" lon="6.95578">
        <ele>1702</ele>
        <time>2018-02-20T11:20:15Z</time>
      </trkpt>
      <trkpt lat="45.30325" lon="6.95578">
        <ele>1702</ele>
        <time>2018-02-20T11:21:15Z</time>
      </trkpt>
      <trkpt lat="45.3033" lon="6.95585">
        <ele>1701</ele>
        <time>2018-02-20T11:22:15Z</time>
      </trkpt>
      <trkpt lat="45.30353" lon="6.95605">
        <ele>1699</ele>
        <time>2018-02-20T11:23:15Z</time>
      </trkpt>
      <trkpt lat="45.30502" lon="6.95686">
        <ele>1689</ele>
        <time>2018-02-20T11:24:15Z</time>
      </trkpt>
      <trkpt lat="45.30544" lon="6.95721">
        <ele>1694</ele>
        <time>2018-02-20T11:25:15Z</time>
      </trkpt>
      <trkpt lat="45.3057" lon="6.95759">
        <ele>1692</ele>
        <time>2018-02-20T11:26:15Z</time>
      </trkpt>
      <trkpt lat="45.30596" lon="6.95817">
        <ele>1695</ele>
        <time>2018-02-20T11:27:15Z</time>
      </trkpt>
      <trkpt lat="45.3062" lon="6.95904">
        <ele>1688</ele>
        <time>2018-02-20T11:28:15Z</time>
      </trkpt>
      <trkpt lat="45.30639" lon="6.96005">
        <ele>1681</ele>
        <time>2018-02-20T11:29:15Z</time>
      </trkpt>
      <trkpt lat="45.30644" lon="6.96048">
        <ele>1682</ele>
        <time>2018-02-20T11:30:15Z</time>
      </trkpt>
      <trkpt lat="45.30645" lon="6.96094">
        <ele>1682</ele>
        <time>2018-02-20T11:31:15Z</time>
      </trkpt>
      <trkpt lat="45.30634" lon="6.96254">
        <ele>1676</ele>
        <time>2018-02-20T11:32:15Z</time>
      </trkpt>
      <trkpt lat="45.30628" lon="6.9638">
        <ele>1676</ele>
        <time>2018-02-20T11:33:15Z</time>
      </trkpt>
      <trkpt lat="45.3063" lon="6.9648">
        <ele>1678</ele>
        <time>2018-02-20T11:34:15Z</time>
      </trkpt>
      <trkpt lat="45.30636" lon="6.96598">
        <ele>1677</ele>
        <time>2018-02-20T11:35:15Z</time>
      </trkpt>
      <trkpt lat="45.30644" lon="6.96678">
        <ele>1677</ele>
        <time>2018-02-20T11:36:15Z</time>
      </trkpt>
      <trkpt lat="45.30661" lon="6.9675">
        <ele>1675</ele>
        <time>2018-02-20T11:37:15Z</time>
      </trkpt>
      <trkpt lat="45.30683" lon="6.9682">
        <ele>1677</ele>
        <time>2018-02-20T11:38:15Z</time>
      </trkpt>
      <trkpt lat="45.30708" lon="6.96877">
        <ele>1678</ele>
        <time>2018-02-20T11:39:15Z</time>
      </trkpt>
      <trkpt lat="45.30808" lon="6.97057">
        <ele>1682</ele>
        <time>2018-02-20T11:40:15Z</time>
      </trkpt>
      <trkpt lat="45.30863" lon="6.97162">
        <ele>1682</ele>
        <time>2018-02-20T11:41:15Z</time>
      </trkpt>
      <trkpt lat="45.30884" lon="6.97209">
        <ele>1682</ele>
        <time>2018-02-20T11:42:15Z</time>
      </trkpt>
      <trkpt lat="45.30894" lon="6.97244">
        <ele>1682</ele>
        <time>2018-02-20T11:43:15Z</time>
      </trkpt>
      <trkpt lat="45.30899" lon="6.97274">
        <ele>1682</ele>
        <time>2018-02-20T11:44:15Z</time>
      </trkpt>
      <trkpt lat="45.309" lon="6.97313">
        <ele>1682</ele>
        <time>2018-02-20T11:45:15Z</time>
      </trkpt>
      <trkpt lat="45.30898" lon="6.97344">
        <ele>1682</ele>
        <time>2018-02-20T11:46:15Z</time>
      </trkpt>
      <trkpt lat="45.30894" lon="6.97369">
        <ele>1681</ele>
        <time>2018-02-20T11:47:15Z</time>
      </trkpt>
      <trkpt lat="45.30889" lon="6.97395">
        <ele>1681</ele>
        <time>2018-02-20T11:48:15Z</time>
      </trkpt>
      <trkpt lat="45.30864" lon="6.97494">
        <ele>1681</ele>
        <time>2018-02-20T11:49:15Z</time>
      </trkpt>
      <trkpt lat="45.30852" lon="6.9752">
        <ele>1681</ele>
        <time>2018-02-20T11:50:15Z</time>
      </trkpt>
      <trkpt lat="45.30838" lon="6.97569">
        <ele>1683</ele>
        <time>2018-02-20T11:51:15Z</time>
      </trkpt>
      <trkpt lat="45.30832" lon="6.97613">
        <ele>1684</ele>
        <time>2018-02-20T11:52:15Z</time>
      </trkpt>
      <trkpt lat="45.30834" lon="6.97636">
        <ele>1686</ele>
        <time>2018-02-20T11:53:15Z</time>
      </trkpt>
      <trkpt lat="45.30847" lon="6.97638">
        <ele>1685</ele>
        <time>2018-02-20T11:54:15Z</time>
      </trkpt>
      <trkpt lat="45.30857" lon="6.97646">
        <ele>1685</ele>
        <time>2018-02-20T11:55:15Z</time>
      </trkpt>
      <trkpt lat="45.30867" lon="6.97667">
        <ele>1686</ele>
        <time>2018-02-20T11:56:15Z</time>
      </trkpt>
      <trkpt lat="45.31007" lon="6.97916">
        <ele>1693</ele>
        <time>2018-02-20T11:57:15Z</time>
      </trkpt>
      <trkpt lat="45.31044" lon="6.97975">
        <ele>1698</ele>
        <time>2018-02-20T11:58:15Z</time>
      </trkpt>
      <trkpt lat="45.3114" lon="6.98091">
        <ele>1707</ele>
        <time>2018-02-20T11:59:15Z</time>
      </trkpt>
      <trkpt lat="45.31179" lon="6.9813">
        <ele>1708</ele>
        <time>2018-02-20T12:00:15Z</time>
      </trkpt>
      <trkpt lat="45.31324" lon="6.98215">
        <ele>1703</ele>
        <time>2018-02-20T12:01:15Z</time>
      </trkpt>
      <trkpt lat="45.31414" lon="6.98259">
        <ele>1704</ele>
        <time>2018-02-20T12:02:15Z</time>
      </trkpt>
      <trkpt lat="45.31482" lon="6.98301">
        <ele>1703</ele>
        <time>2018-02-20T12:03:15Z</time>
      </trkpt>
      <trkpt lat="45.31554" lon="6.98362">
        <ele>1700</ele>
        <time>2018-02-20T12:04:15Z</time>
      </trkpt>
      <trkpt lat="45.31688" lon="6.98494">
        <ele>1704</ele>
        <time>2018-02-20T12:05:15Z</time>
      </trkpt>
      <trkpt lat="45.31735" lon="6.9855">
        <ele>1702</ele>
        <time>2018-02-20T12:06:15Z</time>
      </trkpt>
      <trkpt lat="45.31772" lon="6.98612">
        <ele>1700</ele>
        <time>2018-02-20T12:07:15Z</time>
      </trkpt>
      <trkpt lat="45.31806" lon="6.98682">
        <ele>1699</ele>
        <time>2018-02-20T12:08:15Z</time>
      </trkpt>
      <trkpt lat="45.31824" lon="6.98731">
        <ele>1699</ele>
        <time>2018-02-20T12:09:15Z</time>
      </trkpt>
      <trkpt lat="45.31921" lon="6.99035">
        <ele>1704</ele>
        <time>2018-02-20T12:10:15Z</time>
      </trkpt>
      <trkpt lat="45.31959" lon="6.99169">
        <ele>1706</ele>
        <time>2018-02-20T12:11:15Z</time>
      </trkpt>
      <trkpt lat="45.31969" lon="6.99212">
        <ele>1708</ele>
        <time>2018-02-20T12:12:15Z</time>
      </trkpt>
      <trkpt lat="45.31985" lon="6.99266">
        <ele>1711</ele>
        <time>2018-02-20T12:13:15Z</time>
      </trkpt>
      <trkpt lat="45.32041" lon="6.99438">
        <ele>1716</ele>
        <time>2018-02-20T12:14:15Z</time>
      </trkpt>
      <trkpt lat="45.3207" lon="6.99483">
        <ele>1717</ele>
        <time>2018-02-20T12:15:15Z</time>
      </trkpt>
      <trkpt lat="45.32111" lon="6.99528">
        <ele>1716</ele>
        <time>2018-02-20T12:16:15Z</time>
      </trkpt>
      <trkpt lat="45.32178" lon="6.99618">
        <ele>1715</ele>
        <time>2018-02-20T12:17:15Z</time>
      </trkpt>
      <trkpt lat="45.32205" lon="6.99674">
        <ele>1716</ele>
        <time>2018-02-20T12:18:15Z</time>
      </trkpt>
      <trkpt lat="45.32229" lon="6.99753">
        <ele>1720</ele>
        <time>2018-02-20T12:19:15Z</time>
      </trkpt>
      <trkpt lat="45.32258" lon="6.99831">
        <ele>1724</ele>
        <time>2018-02-20T12:20:15Z</time>
      </trkpt>
      <trkpt lat="45.3233" lon="6.99994">
        <ele>1731</ele>
        <time>2018-02-20T12:21:15Z</time>
      </trkpt>
      <trkpt lat="45.3234" lon="7.00025">
        <ele>1732</ele>
        <time>2018-02-20T12:22:15Z</time>
      </trkpt>
      <trkpt lat="45.32346" lon="7.00083">
        <ele>1733</ele>
        <time>2018-02-20T12:23:15Z</time>
      </trkpt>
      <trkpt lat="45.32347" lon="7.00132">
        <ele>1732</ele>
        <time>2018-02-20T12:24:15Z</time>
      </trkpt>
      <trkpt lat="45.32345" lon="7.00146">
        <ele>1732</ele>
        <time>2018-02-20T12:25:15Z</time>
      </trkpt>
      <trkpt lat="45.32342" lon="7.00153">
        <ele>1732</ele>
        <time>2018-02-20T12:26:15Z</time>
      </trkpt>
      <trkpt lat="45.32353" lon="7.00174">
        <ele>1732</ele>
        <time>2018-02-20T12:27:15Z</time>
      </trkpt>
      <trkpt lat="45.32399" lon="7.00214">
        <ele>1732</ele>
        <time>2018-02-20T12:28:15Z</time>
      </trkpt>
      <trkpt lat="45.32515" lon="7.00327">
        <ele>1734</ele>
        <time>2018-02-20T12:29:15Z</time>
      </trkpt>
      <trkpt lat="45.32548" lon="7.00367">
        <ele>1735</ele>
        <time>2018-02-20T12:30:15Z</time>
      </trkpt>
      <trkpt lat="45.32584" lon="7.00419">
        <ele>1736</ele>
        <time>2018-02-20T12:31:15Z</time>
      </trkpt>
      <trkpt lat="45.32617" lon="7.00481">
        <ele>1738</ele>
        <time>2018-02-20T12:32:15Z</time>
      </trkpt>
      <trkpt lat="45.32717" lon="7.00682">
        <ele>1731</ele>
        <time>2018-02-20T12:33:15Z</time>
      </trkpt>
      <trkpt lat="45.32855" lon="7.00969">
        <ele>1734</ele>
        <time>2018-02-20T12:34:15Z</time>
      </trkpt>
      <trkpt lat="45.32911" lon="7.01081">
        <ele>1737</ele>
        <time>2018-02-20T12:35:15Z</time>
      </trkpt>
      <trkpt lat="45.32926" lon="7.01116">
        <ele>1739</ele>
        <time>2018-02-20T12:36:15Z</time>
      </trkpt>
      <trkpt lat="45.32939" lon="7.01153">
        <ele>1741</ele>
        <time>2018-02-20T12:37:15Z</time>
      </trkpt>
      <trkpt lat="45.33" lon="7.01352">
        <ele>1746</ele>
        <time>2018-02-20T12:38:15Z</time>
      </trkpt>
      <trkpt lat="45.33013" lon="7.01392">
        <ele>1745</ele>
        <time>2018-02-20T12:39:15Z</time>
      </trkpt>
      <trkpt lat="45.33029" lon="7.01429">
        <ele>1743</ele>
        <time>2018-02-20T12:40:15Z</time>
      </trkpt>
      <trkpt lat="45.33052" lon="7.0147">
        <ele>1740</ele>
        <time>2018-02-20T12:41:15Z</time>
      </trkpt>
      <trkpt lat="45.33134" lon="7.01599">
        <ele>1735</ele>
        <time>2018-02-20T12:42:15Z</time>
      </trkpt>
      <trkpt lat="45.33152" lon="7.01625">
        <ele>1734</ele>
        <time>2018-02-20T12:43:15Z</time>
      </trkpt>
      <trkpt lat="45.33176" lon="7.01654">
        <ele>1734</ele>
        <time>2018-02-20T12:44:15Z</time>
      </trkpt>
      <trkpt lat="45.33872" lon="7.02364">
        <ele>1743</ele>
        <time>2018-02-20T12:45:15Z</time>
      </trkpt>
      <trkpt lat="45.33898" lon="7.02393">
        <ele>1743</ele>
        <time>2018-02-20T12:46:15Z</time>
      </trkpt>
      <trkpt lat="45.3392" lon="7.02423">
        <ele>1744</ele>
        <time>2018-02-20T12:47:15Z</time>
      </trkpt>
      <trkpt lat="45.34002" lon="7.02535">
        <ele>1747</ele>
        <time>2018-02-20T12:48:15Z</time>
      </trkpt>
      <trkpt lat="45.34047" lon="7.02585">
        <ele>1748</ele>
        <time>2018-02-20T12:49:15Z</time>
      </trkpt>
      <trkpt lat="45.34081" lon="7.02614">
        <ele>1749</ele>
        <time>2018-02-20T12:50:15Z</time>
      </trkpt>
      <trkpt lat="45.34354" lon="7.02813">
        <ele>1748</ele>
        <time>2018-02-20T12:51:15Z</time>
      </trkpt>
      <trkpt lat="45.34423" lon="7.02852">
        <ele>1750</ele>
        <time>2018-02-20T12:52:15Z</time>
      </trkpt>
      <trkpt lat="45.34584" lon="7.02919">
        <ele>1749</ele>
        <time>2018-02-20T12:53:15Z</time>
      </trkpt>
      <trkpt lat="45.3467" lon="7.02948">
        <ele>1754</ele>
        <time>2018-02-20T12:54:15Z</time>
      </trkpt>
      <trkpt lat="45.34753" lon="7.02961">
        <ele>1754</ele>
        <time>2018-02-20T12:55:15Z</time>
      </trkpt>
      <trkpt lat="45.34924" lon="7.02977">
        <ele>1756</ele>
        <time>2018-02-20T12:56:15Z</time>
      </trkpt>
      <trkpt lat="45.35098" lon="7.03009">
        <ele>1758</ele>
        <time>2018-02-20T12:57:15Z</time>
      </trkpt>
      <trkpt lat="45.35156" lon="7.03016">
        <ele>1756</ele>
        <time>2018-02-20T12:58:15Z</time>
      </trkpt>
      <trkpt lat="45.35211" lon="7.03017">
        <ele>1757</ele>
        <time>2018-02-20T12:59:15Z</time>
      </trkpt>
      <trkpt lat="45.35583" lon="7.02959">
        <ele>1769</ele>
        <time>2018-02-20T13:00:15Z</time>
      </trkpt>
      <trkpt lat="45.35608" lon="7.02959">
        <ele>1768</ele>
        <time>2018-02-20T13:01:15Z</time>
      </trkpt>
      <trkpt lat="45.35632" lon="7.02963">
        <ele>1768</ele>
        <time>2018-02-20T13:02:15Z</time>
      </trkpt>
      <trkpt lat="45.35667" lon="7.02979">
        <ele>1769</ele>
        <time>2018-02-20T13:03:15Z</time>
      </trkpt>
      <trkpt lat="45.35705" lon="7.03004">
        <ele>1768</ele>
        <time>2018-02-20T13:04:15Z</time>
      </trkpt>
      <trkpt lat="45.35735" lon="7.03035">
        <ele>1774</ele>
        <time>2018-02-20T13:05:15Z</time>
      </trkpt>
      <trkpt lat="45.35767" lon="7.03065">
        <ele>1777</ele>
        <time>2018-02-20T13:06:15Z</time>
      </trkpt>
      <trkpt lat="45.35956" lon="7.03187">
        <ele>1767</ele>
        <time>2018-02-20T13:07:15Z</time>
      </trkpt>
      <trkpt lat="45.35978" lon="7.03203">
        <ele>1767</ele>
        <time>2018-02-20T13:08:15Z</time>
      </trkpt>
      <trkpt lat="45.36194" lon="7.03434">
        <ele>1773</ele>
        <time>2018-02-20T13:09:15Z</time>
      </trkpt>
      <trkpt lat="45.3628" lon="7.03505">
        <ele>1774</ele>
        <time>2018-02-20T13:10:15Z</time>
      </trkpt>
      <trkpt lat="45.36304" lon="7.03534">
        <ele>1777</ele>
        <time>2018-02-20T13:11:15Z</time>
      </trkpt>
      <trkpt lat="45.36363" lon="7.03619">
        <ele>1781</ele>
        <time>2018-02-20T13:12:15Z</time>
      </trkpt>
      <trkpt lat="45.36417" lon="7.03684">
        <ele>1778</ele>
        <time>2018-02-20T13:13:15Z</time>
      </trkpt>
      <trkpt lat="45.36733" lon="7.0401">
        <ele>1783</ele>
        <time>2018-02-20T13:14:15Z</time>
      </trkpt>
      <trkpt lat="45.36898" lon="7.04228">
        <ele>1782</ele>
        <time>2018-02-20T13:15:15Z</time>
      </trkpt>
      <trkpt lat="45.36925" lon="7.04267">
        <ele>1782</ele>
        <time>2018-02-20T13:16:15Z</time>
      </trkpt>
      <trkpt lat="45.3695" lon="7.04334">
        <ele>1782</ele>
        <time>2018-02-20T13:17:15Z</time>
      </trkpt>
      <trkpt lat="45.37053" lon="7.04679">
        <ele>1788</ele>
        <time>2018-02-20T13:18:15Z</time>
      </trkpt>
      <trkpt lat="45.37141" lon="7.04892">
        <ele>1790</ele>
        <time>2018-02-20T13:19:15Z</time>
      </trkpt>
      <trkpt lat="45.37279" lon="7.05202">
        <ele>1798</ele>
        <time>2018-02-20T13:20:15Z</time>
      </trkpt>
      <trkpt lat="45.37305" lon="7.05252">
        <ele>1801</ele>
        <time>2018-02-20T13:21:15Z</time>
      </trkpt>
      <trkpt lat="45.37325" lon="7.05273">
        <ele>1803</ele>
        <time>2018-02-20T13:22:15Z</time>
      </trkpt>
      <trkpt lat="45.37337" lon="7.0528">
        <ele>1804</ele>
        <time>2018-02-20T13:23:15Z</time>
      </trkpt>
      <trkpt lat="45.37347" lon="7.05283">
        <ele>1806</ele>
        <time>2018-02-20T13:24:15Z</time>
      </trkpt>
      <trkpt lat="45.37381" lon="7.05281">
        <ele>1812</ele>
        <time>2018-02-20T13:25:15Z</time>
      </trkpt>
      <trkpt lat="45.3741" lon="7.05252">
        <ele>1817</ele>
        <time>2018-02-20T13:26:15Z</time>
      </trkpt>
      <trkpt lat="45.37425" lon="7.05219">
        <ele>1821</ele>
        <time>2018-02-20T13:27:15Z</time>
      </trkpt>
      <trkpt lat="45.3743" lon="7.05164">
        <ele>1825</ele>
        <time>2018-02-20T13:28:15Z</time>
      </trkpt>
      <trkpt lat="45.37429" lon="7.05109">
        <ele>1828</ele>
        <time>2018-02-20T13:29:15Z</time>
      </trkpt>
      <trkpt lat="45.37424" lon="7.05071">
        <ele>1829</ele>
        <time>2018-02-20T13:30:15Z</time>
      </trkpt>
      <trkpt lat="45.37406" lon="7.04975">
        <ele>1834</ele>
        <time>2018-02-20T13:31:15Z</time>
      </trkpt>
      <trkpt lat="45.37397" lon="7.04913">
        <ele>1838</ele>
        <time>2018-02-20T13:32:15Z</time>
      </trkpt>
      <trkpt lat="45.37387" lon="7.04861">
        <ele>1842</ele>
        <time>2018-02-20T13:33:15Z</time>
      </trkpt>
      <trkpt lat="45.37377" lon="7.04818">
        <ele>1843</ele>
        <time>2018-02-20T13:34:15Z</time>
      </trkpt>
      <trkpt lat="45.37371" lon="7.04786">
        <ele>1846</ele>
        <time>2018-02-20T13:35:15Z</time>
      </trkpt>
      <trkpt lat="45.37369" lon="7.04749">
        <ele>1850</ele>
        <time>2018-02-20T13:36:15Z</time>
      </trkpt>
      <trkpt lat="45.37361" lon="7.04705">
        <ele>1849</ele>
        <time>2018-02-20T13:37:15Z</time>
      </trkpt>
      <trkpt lat="45.3736" lon="7.04671">
        <ele>1852</ele>
        <time>2018-02-20T13:38:15Z</time>
      </trkpt>
      <trkpt lat="45.3736" lon="7.04608">
        <ele>1856</ele>
        <time>2018-02-20T13:39:15Z</time>
      </trkpt>
      <trkpt lat="45.37363" lon="7.04565">
        <ele>1862</ele>
        <time>2018-02-20T13:40:15Z</time>
      </trkpt>
      <trkpt lat="45.37371" lon="7.04515">
        <ele>1873</ele>
        <time>2018-02-20T13:41:15Z</time>
      </trkpt>
      <trkpt lat="45.37372" lon="7.04486">
        <ele>1878</ele>
        <time>2018-02-20T13:42:15Z</time>
      </trkpt>
      <trkpt lat="45.37368" lon="7.04442">
        <ele>1881</ele>
        <time>2018-02-20T13:43:15Z</time>
      </trkpt>
      <trkpt lat="45.37354" lon="7.04381">
        <ele>1879</ele>
        <time>2018-02-20T13:44:15Z</time>
      </trkpt>
      <trkpt lat="45.37349" lon="7.04339">
        <ele>1881</ele>
        <time>2018-02-20T13:45:15Z</time>
      </trkpt>
      <trkpt lat="45.37334" lon="7.04257">
        <ele>1883</ele>
        <time>2018-02-20T13:46:15Z</time>
      </trkpt>
      <trkpt lat="45.37291" lon="7.04088">
        <ele>1890</ele>
        <time>2018-02-20T13:47:15Z</time>
      </trkpt>
      <trkpt lat="45.37287" lon="7.04051">
        <ele>1896</ele>
        <time>2018-02-20T13:48:15Z</time>
      </trkpt>
      <trkpt lat="45.37257" lon="7.03948">
        <ele>1900</ele>
        <time>2018-02-20T13:49:15Z</time>
      </trkpt>
      <trkpt lat="45.37247" lon="7.03887">
        <ele>1910</ele>
        <time>2018-02-20T13:50:15Z</time>
      </trkpt>
      <trkpt lat="45.37238" lon="7.03868">
        <ele>1910</ele>
        <time>2018-02-20T13:51:15Z</time>
      </trkpt>
      <trkpt lat="45.37226" lon="7.03852">
        <ele>1907</ele>
        <time>2018-02-20T13:52:15Z</time>
      </trkpt>
      <trkpt lat="45.37219" lon="7.03831">
        <ele>1908</ele>
        <time>2018-02-20T13:53:15Z</time>
      </trkpt>
      <trkpt lat="45.37214" lon="7.0379">
        <ele>1912</ele>
        <time>2018-02-20T13:54:15Z</time>
      </trkpt>
      <trkpt lat="45.37201" lon="7.03727">
        <ele>1915</ele>
        <time>2018-02-20T13:55:15Z</time>
      </trkpt>
      <trkpt lat="45.37204" lon="7.03701">
        <ele>1920</ele>
        <time>2018-02-20T13:56:15Z</time>
      </trkpt>
      <trkpt lat="45.37203" lon="7.03689">
        <ele>1921</ele>
        <time>2018-02-20T13:57:15Z</time>
      </trkpt>
      <trkpt lat="45.37198" lon="7.03668">
        <ele>1921</ele>
        <time>2018-02-20T13:58:15Z</time>
      </trkpt>
      <trkpt lat="45.37196" lon="7.03654">
        <ele>1922</ele>
        <time>2018-02-20T13:59:15Z</time>
      </trkpt>
      <trkpt lat="45.37195" lon="7.03639">
        <ele>1923</ele>
        <time>2018-02-20T14:00:15Z</time>
      </trkpt>
      <trkpt lat="45.37189" lon="7.03607">
        <ele>1924</ele>
        <time>2018-02-20T14:01:15Z</time>
      </trkpt>
      <trkpt lat="45.37187" lon="7.03566">
        <ele>1929</ele>
        <time>2018-02-20T14:02:15Z</time>
      </trkpt>
      <trkpt lat="45.37182" lon="7.03529">
        <ele>1934</ele>
        <time>2018-02-20T14:03:15Z</time>
      </trkpt>
      <trkpt lat="45.37176" lon="7.03512">
        <ele>1935</ele>
        <time>2018-02-20T14:04:15Z</time>
      </trkpt>
      <trkpt lat="45.37166" lon="7.03491">
        <ele>1935</ele>
        <time>2018-02-20T14:05:15Z</time>
      </trkpt>
      <trkpt lat="45.37147" lon="7.03467">
        <ele>1935</ele>
        <time>2018-02-20T14:06:15Z</time>
      </trkpt>
      <trkpt lat="45.37132" lon="7.0344">
        <ele>1937</ele>
        <time>2018-02-20T14:07:15Z</time>
      </trkpt>
      <trkpt lat="45.37103" lon="7.03385">
        <ele>1940</ele>
        <time>2018-02-20T14:08:15Z</time>
      </trkpt>
      <trkpt lat="45.37094" lon="7.03361">
        <ele>1942</ele>
        <time>2018-02-20T14:09:15Z</time>
      </trkpt>
      <trkpt lat="45.37078" lon="7.03312">
        <ele>1950</ele>
        <time>2018-02-20T14:10:15Z</time>
      </trkpt>
      <trkpt lat="45.3707" lon="7.03295">
        <ele>1953</ele>
        <time>2018-02-20T14:11:15Z</time>
      </trkpt>
      <trkpt lat="45.37061" lon="7.03282">
        <ele>1954</ele>
        <time>2018-02-20T14:12:15Z</time>
      </trkpt>
      <trkpt lat="45.37017" lon="7.03244">
        <ele>1952</ele>
        <time>2018-02-20T14:13:15Z</time>
      </trkpt>
      <trkpt lat="45.36971" lon="7.03184">
        <ele>1951</ele>
        <time>2018-02-20T14:14:15Z</time>
      </trkpt>
      <trkpt lat="45.36963" lon="7.03171">
        <ele>1951</ele>
        <time>2018-02-20T14:15:15Z</time>
      </trkpt>
      <trkpt lat="45.36961" lon="7.03162">
        <ele>1953</ele>
        <time>2018-02-20T14:16:15Z</time>
      </trkpt>
      <trkpt lat="45.36963" lon="7.03156">
        <ele>1956</ele>
        <time>2018-02-20T14:17:15Z</time>
      </trkpt>
      <trkpt lat="45.36969" lon="7.03153">
        <ele>1960</ele>
        <time>2018-02-20T14:18:15Z</time>
      </trkpt>
      <trkpt lat="45.36973" lon="7.03156">
        <ele>1961</ele>
        <time>2018-02-20T14:19:15Z</time>
      </trkpt>
      <trkpt lat="45.36985" lon="7.03177">
        <ele>1960</ele>
        <time>2018-02-20T14:20:15Z</time>
      </trkpt>
      <trkpt lat="45.36996" lon="7.0319">
        <ele>1962</ele>
        <time>2018-02-20T14:21:15Z</time>
      </trkpt>
      <trkpt lat="45.37027" lon="7.03217">
        <ele>1964</ele>
        <time>2018-02-20T14:22:15Z</time>
      </trkpt>
      <trkpt lat="45.37037" lon="7.03221">
        <ele>1966</ele>
        <time>2018-02-20T14:23:15Z</time>
      </trkpt>
      <trkpt lat="45.37064" lon="7.03224">
        <ele>1974</ele>
        <time>2018-02-20T14:24:15Z</time>
      </trkpt>
      <trkpt lat="45.37074" lon="7.03228">
        <ele>1976</ele>
        <time>2018-02-20T14:25:15Z</time>
      </trkpt>
      <trkpt lat="45.37102" lon="7.03245">
        <ele>1980</ele>
        <time>2018-02-20T14:26:15Z</time>
      </trkpt>
      <trkpt lat="45.37113" lon="7.03258">
        <ele>1980</ele>
        <time>2018-02-20T14:27:15Z</time>
      </trkpt>
      <trkpt lat="45.37149" lon="7.03314">
        <ele>1977</ele>
        <time>2018-02-20T14:28:15Z</time>
      </trkpt>
      <trkpt lat="45.3717" lon="7.0333">
        <ele>1980</ele>
        <time>2018-02-20T14:29:15Z</time>
      </trkpt>
      <trkpt lat="45.37217" lon="7.03355">
        <ele>1992</ele>
        <time>2018-02-20T14:30:15Z</time>
      </trkpt>
      <trkpt lat="45.3723" lon="7.03364">
        <ele>1994</ele>
        <time>2018-02-20T14:31:15Z</time>
      </trkpt>
      <trkpt lat="45.3724" lon="7.03376">
        <ele>1995</ele>
        <time>2018-02-20T14:32:15Z</time>
      </trkpt>
      <trkpt lat="45.37319" lon="7.0348">
        <ele>2006</ele>
        <time>2018-02-20T14:33:15Z</time>
      </trkpt>
      <trkpt lat="45.37328" lon="7.03504">
        <ele>2007</ele>
        <time>2018-02-20T14:34:15Z</time>
      </trkpt>
      <trkpt lat="45.37329" lon="7.03512">
        <ele>2007</ele>
        <time>2018-02-20T14:35:15Z</time>
      </trkpt>
      <trkpt lat="45.37326" lon="7.03551">
        <ele>2002</ele>
        <time>2018-02-20T14:36:15Z</time>
      </trkpt>
      <trkpt lat="45.37328" lon="7.03559">
        <ele>2002</ele>
        <time>2018-02-20T14:37:15Z</time>
      </trkpt>
      <trkpt lat="45.37336" lon="7.03577">
        <ele>2005</ele>
        <time>2018-02-20T14:38:15Z</time>
      </trkpt>
      <trkpt lat="45.37346" lon="7.03608">
        <ele>2008</ele>
        <time>2018-02-20T14:39:15Z</time>
      </trkpt>
      <trkpt lat="45.37354" lon="7.03625">
        <ele>2011</ele>
        <time>2018-02-20T14:40:15Z</time>
      </trkpt>
      <trkpt lat="45.37356" lon="7.03637">
        <ele>2011</ele>
        <time>2018-02-20T14:41:15Z</time>
      </trkpt>
      <trkpt lat="45.37354" lon="7.03658">
        <ele>2008</ele>
        <time>2018-02-20T14:42:15Z</time>
      </trkpt>
      <trkpt lat="45.37356" lon="7.03674">
        <ele>2008</ele>
        <time>2018-02-20T14:43:15Z</time>
      </trkpt>
      <trkpt lat="45.37377" lon="7.03702">
        <ele>2015</ele>
        <time>2018-02-20T14:44:15Z</time>
      </trkpt>
      <trkpt lat="45.37383" lon="7.03716">
        <ele>2016</ele>
        <time>2018-02-20T14:45:15Z</time>
      </trkpt>
      <trkpt lat="45.37394" lon="7.03749">
        <ele>2018</ele>
        <time>2018-02-20T14:46:15Z</time>
      </trkpt>
      <trkpt lat="45.37414" lon="7.03793">
        <ele>2023</ele>
        <time>2018-02-20T14:47:15Z</time>
      </trkpt>
      <trkpt lat="45.37421" lon="7.03814">
        <ele>2025</ele>
        <time>2018-02-20T14:48:15Z</time>
      </trkpt>
      <trkpt lat="45.37471" lon="7.03937">
        <ele>2036</ele>
        <time>2018-02-20T14:49:15Z</time>
      </trkpt>
      <trkpt lat="45.37519" lon="7.04044">
        <ele>2050</ele>
        <time>2018-02-20T14:50:15Z</time>
      </trkpt>
      <trkpt lat="45.37526" lon="7.04065">
        <ele>2053</ele>
        <time>2018-02-20T14:51:15Z</time>
      </trkpt>
      <trkpt lat="45.37547" lon="7.04148">
        <ele>2064</ele>
        <time>2018-02-20T14:52:15Z</time>
      </trkpt>
      <trkpt lat="45.37569" lon="7.0421">
        <ele>2073</ele>
        <time>2018-02-20T14:53:15Z</time>
      </trkpt>
      <trkpt lat="45.37581" lon="7.04248">
        <ele>2073</ele>
        <time>2018-02-20T14:54:15Z</time>
      </trkpt>
      <trkpt lat="45.37598" lon="7.04283">
        <ele>2080</ele>
        <time>2018-02-20T14:55:15Z</time>
      </trkpt>
      <trkpt lat="45.37604" lon="7.04304">
        <ele>2080</ele>
        <time>2018-02-20T14:56:15Z</time>
      </trkpt>
      <trkpt lat="45.37609" lon="7.0434">
        <ele>2076</ele>
        <time>2018-02-20T14:57:15Z</time>
      </trkpt>
      <trkpt lat="45.37614" lon="7.04357">
        <ele>2078</ele>
        <time>2018-02-20T14:58:15Z</time>
      </trkpt>
      <trkpt lat="45.37644" lon="7.04433">
        <ele>2091</ele>
        <time>2018-02-20T14:59:15Z</time>
      </trkpt>
      <trkpt lat="45.37657" lon="7.04472">
        <ele>2094</ele>
        <time>2018-02-20T15:00:15Z</time>
      </trkpt>
      <trkpt lat="45.37683" lon="7.04516">
        <ele>2105</ele>
        <time>2018-02-20T15:01:15Z</time>
      </trkpt>
      <trkpt lat="45.37695" lon="7.04561">
        <ele>2102</ele>
        <time>2018-02-20T15:02:15Z</time>
      </trkpt>
      <trkpt lat="45.37704" lon="7.04608">
        <ele>2096</ele>
        <time>2018-02-20T15:03:15Z</time>
      </trkpt>
      <trkpt lat="45.37713" lon="7.04636">
        <ele>2097</ele>
        <time>2018-02-20T15:04:15Z</time>
      </trkpt>
      <trkpt lat="45.37727" lon="7.04672">
        <ele>2100</ele>
        <time>2018-02-20T15:05:15Z</time>
      </trkpt>
      <trkpt lat="45.37741" lon="7.04735">
        <ele>2093</ele>
        <time>2018-02-20T15:06:15Z</time>
      </trkpt>
      <trkpt lat="45.37745" lon="7.04747">
        <ele>2092</ele>
        <time>2018-02-20T15:07:15Z</time>
      </trkpt>
      <trkpt lat="45.37767" lon="7.04786">
        <ele>2099</ele>
        <time>2018-02-20T15:08:15Z</time>
      </trkpt>
      <trkpt lat="45.37772" lon="7.04799">
        <ele>2099</ele>
        <time>2018-02-20T15:09:15Z</time>
      </trkpt>
      <trkpt lat="45.37777" lon="7.0482">
        <ele>2096</ele>
        <time>2018-02-20T15:10:15Z</time>
      </trkpt>
      <trkpt lat="45.37783" lon="7.04836">
        <ele>2096</ele>
        <time>2018-02-20T15:11:15Z</time>
      </trkpt>
      <trkpt lat="45.37792" lon="7.04851">
        <ele>2099</ele>
        <time>2018-02-20T15:12:15Z</time>
      </trkpt>
      <trkpt lat="45.37817" lon="7.04878">
        <ele>2110</ele>
        <time>2018-02-20T15:13:15Z</time>
      </trkpt>
      <trkpt lat="45.37867" lon="7.04956">
        <ele>2114</ele>
        <time>2018-02-20T15:14:15Z</time>
      </trkpt>
      <trkpt lat="45.37875" lon="7.04966">
        <ele>2114</ele>
        <time>2018-02-20T15:15:15Z</time>
      </trkpt>
      <trkpt lat="45.37905" lon="7.04991">
        <ele>2117</ele>
        <time>2018-02-20T15:16:15Z</time>
      </trkpt>
      <trkpt lat="45.37934" lon="7.05004">
        <ele>2116</ele>
        <time>2018-02-20T15:17:15Z</time>
      </trkpt>
      <trkpt lat="45.3796" lon="7.05011">
        <ele>2114</ele>
        <time>2018-02-20T15:18:15Z</time>
      </trkpt>
      <trkpt lat="45.37985" lon="7.05012">
        <ele>2115</ele>
        <time>2018-02-20T15:19:15Z</time>
      </trkpt>
      <trkpt lat="45.38063" lon="7.04987">
        <ele>2112</ele>
        <time>2018-02-20T15:20:15Z</time>
      </trkpt>
      <trkpt lat="45.38071" lon="7.04974">
        <ele>2113</ele>
        <time>2018-02-20T15:21:15Z</time>
      </trkpt>
      <trkpt lat="45.38073" lon="7.04968">
        <ele>2113</ele>
        <time>2018-02-20T15:22:15Z</time>
      </trkpt>
      <trkpt lat="45.38074" lon="7.04939">
        <ele>2117</ele>
        <time>2018-02-20T15:23:15Z</time>
      </trkpt>
      <trkpt lat="45.38077" lon="7.04925">
        <ele>2118</ele>
        <time>2018-02-20T15:24:15Z</time>
      </trkpt>
      <trkpt lat="45.38115" lon="7.04859">
        <ele>2119</ele>
        <time>2018-02-20T15:25:15Z</time>
      </trkpt>
      <trkpt lat="45.38118" lon="7.04851">
        <ele>2118</ele>
        <time>2018-02-20T15:26:15Z</time>
      </trkpt>
      <trkpt lat="45.38118" lon="7.04815">
        <ele>2123</ele>
        <time>2018-02-20T15:27:15Z</time>
      </trkpt>
      <trkpt lat="45.3812" lon="7.04798">
        <ele>2126</ele>
        <time>2018-02-20T15:28:15Z</time>
      </trkpt>
      <trkpt lat="45.38136" lon="7.04734">
        <ele>2134</ele>
        <time>2018-02-20T15:29:15Z</time>
      </trkpt>
      <trkpt lat="45.38145" lon="7.04708">
        <ele>2137</ele>
        <time>2018-02-20T15:30:15Z</time>
      </trkpt>
      <trkpt lat="45.38154" lon="7.04695">
        <ele>2136</ele>
        <time>2018-02-20T15:31:15Z</time>
      </trkpt>
      <trkpt lat="45.38166" lon="7.04683">
        <ele>2132</ele>
        <time>2018-02-20T15:32:15Z</time>
      </trkpt>
      <trkpt lat="45.3819" lon="7.04665">
        <ele>2132</ele>
        <time>2018-02-20T15:33:15Z</time>
      </trkpt>
      <trkpt lat="45.38249" lon="7.04633">
        <ele>2131</ele>
        <time>2018-02-20T15:34:15Z</time>
      </trkpt>
      <trkpt lat="45.38257" lon="7.04623">
        <ele>2132</ele>
        <time>2018-02-20T15:35:15Z</time>
      </trkpt>
      <trkpt lat="45.38265" lon="7.04609">
        <ele>2134</ele>
        <time>2018-02-20T15:36:15Z</time>
      </trkpt>
      <trkpt lat="45.38302" lon="7.04527">
        <ele>2144</ele>
        <time>2018-02-20T15:37:15Z</time>
      </trkpt>
      <trkpt lat="45.38322" lon="7.04494">
        <ele>2140</ele>
        <time>2018-02-20T15:38:15Z</time>
      </trkpt>
      <trkpt lat="45.3835" lon="7.04464">
        <ele>2139</ele>
        <time>2018-02-20T15:39:15Z</time>
      </trkpt>
      <trkpt lat="45.38357" lon="7.04454">
        <ele>2140</ele>
        <time>2018-02-20T15:40:15Z</time>
      </trkpt>
      <trkpt lat="45.38423" lon="7.04328">
        <ele>2143</ele>
        <time>2018-02-20T15:41:15Z</time>
      </trkpt>
      <trkpt lat="45.38449" lon="7.04282">
        <ele>2144</ele>
        <time>2018-02-20T15:42:15Z</time>
      </trkpt>
      <trkpt lat="45.38457" lon="7.0427">
        <ele>2143</ele>
        <time>2018-02-20T15:43:15Z</time>
      </trkpt>
      <trkpt lat="45.3847" lon="7.04263">
        <ele>2141</ele>
        <time>2018-02-20T15:44:15Z</time>
      </trkpt>
      <trkpt lat="45.38476" lon="7.04262">
        <ele>2139</ele>
        <time>2018-02-20T15:45:15Z</time>
      </trkpt>
      <trkpt lat="45.38509" lon="7.04279">
        <ele>2135</ele>
        <time>2018-02-20T15:46:15Z</time>
      </trkpt>
      <trkpt lat="45.38528" lon="7.04292">
        <ele>2136</ele>
        <time>2018-02-20T15:47:15Z</time>
      </trkpt>
      <trkpt lat="45.38538" lon="7.04303">
        <ele>2137</ele>
        <time>2018-02-20T15:48:15Z</time>
      </trkpt>
      <trkpt lat="45.38545" lon="7.04318">
        <ele>2139</ele>
        <time>2018-02-20T15:49:15Z</time>
      </trkpt>
      <trkpt lat="45.38547" lon="7.04335">
        <ele>2140</ele>
        <time>2018-02-20T15:50:15Z</time>
      </trkpt>
      <trkpt lat="45.38547" lon="7.04349">
        <ele>2141</ele>
        <time>2018-02-20T15:51:15Z</time>
      </trkpt>
      <trkpt lat="45.38539" lon="7.04403">
        <ele>2143</ele>
        <time>2018-02-20T15:52:15Z</time>
      </trkpt>
      <trkpt lat="45.38529" lon="7.04484">
        <ele>2150</ele>
        <time>2018-02-20T15:53:15Z</time>
      </trkpt>
      <trkpt lat="45.38523" lon="7.04515">
        <ele>2153</ele>
        <time>2018-02-20T15:54:15Z</time>
      </trkpt>
      <trkpt lat="45.38512" lon="7.04549">
        <ele>2154</ele>
        <time>2018-02-20T15:55:15Z</time>
      </trkpt>
      <trkpt lat="45.38501" lon="7.0457">
        <ele>2154</ele>
        <time>2018-02-20T15:56:15Z</time>
      </trkpt>
      <trkpt lat="45.38498" lon="7.0458">
        <ele>2154</ele>
        <time>2018-02-20T15:57:15Z</time>
      </trkpt>
      <trkpt lat="45.38497" lon="7.0459">
        <ele>2155</ele>
        <time>2018-02-20T15:58:15Z</time>
      </trkpt>
      <trkpt lat="45.385" lon="7.04598">
        <ele>2157</ele>
        <time>2018-02-20T15:59:15Z</time>
      </trkpt>
      <trkpt lat="45.38507" lon="7.04606">
        <ele>2160</ele>
        <time>2018-02-20T16:00:15Z</time>
      </trkpt>
      <trkpt lat="45.38514" lon="7.04607">
        <ele>2162</ele>
        <time>2018-02-20T16:01:15Z</time>
      </trkpt>
      <trkpt lat="45.38529" lon="7.04606">
        <ele>2165</ele>
        <time>2018-02-20T16:02:15Z</time>
      </trkpt>
      <trkpt lat="45.38547" lon="7.046">
        <ele>2168</ele>
        <time>2018-02-20T16:03:15Z</time>
      </trkpt>
      <trkpt lat="45.38562" lon="7.04592">
        <ele>2170</ele>
        <time>2018-02-20T16:04:15Z</time>
      </trkpt>
      <trkpt lat="45.38576" lon="7.04581">
        <ele>2171</ele>
        <time>2018-02-20T16:05:15Z</time>
      </trkpt>
      <trkpt lat="45.38586" lon="7.04566">
        <ele>2171</ele>
        <time>2018-02-20T16:06:15Z</time>
      </trkpt>
      <trkpt lat="45.38602" lon="7.04534">
        <ele>2171</ele>
        <time>2018-02-20T16:07:15Z</time>
      </trkpt>
      <trkpt lat="45.38626" lon="7.04513">
        <ele>2174</ele>
        <time>2018-02-20T16:08:15Z</time>
      </trkpt>
      <trkpt lat="45.38645" lon="7.04497">
        <ele>2176</ele>
        <time>2018-02-20T16:09:15Z</time>
      </trkpt>
      <trkpt lat="45.3868" lon="7.04477">
        <ele>2182</ele>
        <time>2018-02-20T16:10:15Z</time>
      </trkpt>
      <trkpt lat="45.38723" lon="7.04431">
        <ele>2184</ele>
        <time>2018-02-20T16:11:15Z</time>
      </trkpt>
      <trkpt lat="45.38782" lon="7.04392">
        <ele>2192</ele>
        <time>2018-02-20T16:12:15Z</time>
      </trkpt>
      <trkpt lat="45.38865" lon="7.04323">
        <ele>2201</ele>
        <time>2018-02-20T16:13:15Z</time>
      </trkpt>
      <trkpt lat="45.38882" lon="7.04304">
        <ele>2202</ele>
        <time>2018-02-20T16:14:15Z</time>
      </trkpt>
      <trkpt lat="45.38923" lon="7.04267">
        <ele>2205</ele>
        <time>2018-02-20T16:15:15Z</time>
      </trkpt>
      <trkpt lat="45.38938" lon="7.04257">
        <ele>2207</ele>
        <time>2018-02-20T16:16:15Z</time>
      </trkpt>
      <trkpt lat="45.38973" lon="7.04239">
        <ele>2212</ele>
        <time>2018-02-20T16:17:15Z</time>
      </trkpt>
      <trkpt lat="45.38984" lon="7.0423">
        <ele>2213</ele>
        <time>2018-02-20T16:18:15Z</time>
      </trkpt>
      <trkpt lat="45.39001" lon="7.04209">
        <ele>2212</ele>
        <time>2018-02-20T16:19:15Z</time>
      </trkpt>
      <trkpt lat="45.3901" lon="7.04201">
        <ele>2212</ele>
        <time>2018-02-20T16:20:15Z</time>
      </trkpt>
      <trkpt lat="45.39039" lon="7.04188">
        <ele>2215</ele>
        <time>2018-02-20T16:21:15Z</time>
      </trkpt>
      <trkpt lat="45.39121" lon="7.04163">
        <ele>2228</ele>
        <time>2018-02-20T16:22:15Z</time>
      </trkpt>
      <trkpt lat="45.3917" lon="7.04144">
        <ele>2236</ele>
        <time>2018-02-20T16:23:15Z</time>
      </trkpt>
      <trkpt lat="45.39206" lon="7.0413">
        <ele>2242</ele>
        <time>2018-02-20T16:24:15Z</time>
      </trkpt>
      <trkpt lat="45.39287" lon="7.04091">
        <ele>2251</ele>
        <time>2018-02-20T16:25:15Z</time>
      </trkpt>
      <trkpt lat="45.39295" lon="7.04086">
        <ele>2251</ele>
        <time>2018-02-20T16:26:15Z</time>
      </trkpt>
      <trkpt lat="45.39301" lon="7.04078">
        <ele>2250</ele>
        <time>2018-02-20T16:27:15Z</time>
      </trkpt>
      <trkpt lat="45.39313" lon="7.04037">
        <ele>2245</ele>
        <time>2018-02-20T16:28:15Z</time>
      </trkpt>
      <trkpt lat="45.39326" lon="7.04022">
        <ele>2246</ele>
        <time>2018-02-20T16:29:15Z</time>
      </trkpt>
      <trkpt lat="45.39348" lon="7.04014">
        <ele>2249</ele>
        <time>2018-02-20T16:30:15Z</time>
      </trkpt>
      <trkpt lat="45.39405" lon="7.04001">
        <ele>2256</ele>
        <time>2018-02-20T16:31:15Z</time>
      </trkpt>
      <trkpt lat="45.39488" lon="7.03987">
        <ele>2265</ele>
        <time>2018-02-20T16:32:15Z</time>
      </trkpt>
      <trkpt lat="45.39537" lon="7.03971">
        <ele>2270</ele>
        <time>2018-02-20T16:33:15Z</time>
      </trkpt>
      <trkpt lat="45.39596" lon="7.03946">
        <ele>2272</ele>
        <time>2018-02-20T16:34:15Z</time>
      </trkpt>
      <trkpt lat="45.39623" lon="7.03938">
        <ele>2275</ele>
        <time>2018-02-20T16:35:15Z</time>
      </trkpt>
      <trkpt lat="45.39665" lon="7.03936">
        <ele>2282</ele>
        <time>2018-02-20T16:36:15Z</time>
      </trkpt>
      <trkpt lat="45.39672" lon="7.03943">
        <ele>2285</ele>
        <time>2018-02-20T16:37:15Z</time>
      </trkpt>
      <trkpt lat="45.39673" lon="7.0395">
        <ele>2287</ele>
        <time>2018-02-20T16:38:15Z</time>
      </trkpt>
      <trkpt lat="45.39671" lon="7.03957">
        <ele>2288</ele>
        <time>2018-02-20T16:39:15Z</time>
      </trkpt>
      <trkpt lat="45.39666" lon="7.03961">
        <ele>2288</ele>
        <time>2018-02-20T16:40:15Z</time>
      </trkpt>
      <trkpt lat="45.39632" lon="7.03967">
        <ele>2284</ele>
        <time>2018-02-20T16:41:15Z</time>
      </trkpt>
      <trkpt lat="45.39607" lon="7.0398">
        <ele>2284</ele>
        <time>2018-02-20T16:42:15Z</time>
      </trkpt>
      <trkpt lat="45.39515" lon="7.04034">
        <ele>2286</ele>
        <time>2018-02-20T16:43:15Z</time>
      </trkpt>
      <trkpt lat="45.39486" lon="7.04055">
        <ele>2288</ele>
        <time>2018-02-20T16:44:15Z</time>
      </trkpt>
      <trkpt lat="45.39442" lon="7.04095">
        <ele>2294</ele>
        <time>2018-02-20T16:45:15Z</time>
      </trkpt>
      <trkpt lat="45.39371" lon="7.04167">
        <ele>2306</ele>
        <time>2018-02-20T16:46:15Z</time>
      </trkpt>
      <trkpt lat="45.3931" lon="7.04234">
        <ele>2314</ele>
        <time>2018-02-20T16:47:15Z</time>
      </trkpt>
      <trkpt lat="45.39271" lon="7.0428">
        <ele>2321</ele>
        <time>2018-02-20T16:48:15Z</time>
      </trkpt>
      <trkpt lat="45.39231" lon="7.04317">
        <ele>2325</ele>
        <time>2018-02-20T16:49:15Z</time>
      </trkpt>
      <trkpt lat="45.39186" lon="7.04353">
        <ele>2325</ele>
        <time>2018-02-20T16:50:15Z</time>
      </trkpt>
      <trkpt lat="45.39175" lon="7.04368">
        <ele>2327</ele>
        <time>2018-02-20T16:51:15Z</time>
      </trkpt>
      <trkpt lat="45.39155" lon="7.04407">
        <ele>2337</ele>
        <time>2018-02-20T16:52:15Z</time>
      </trkpt>
      <trkpt lat="45.39145" lon="7.04419">
        <ele>2338</ele>
        <time>2018-02-20T16:53:15Z</time>
      </trkpt>
      <trkpt lat="45.39121" lon="7.04442">
        <ele>2335</ele>
        <time>2018-02-20T16:54:15Z</time>
      </trkpt>
      <trkpt lat="45.39109" lon="7.0446">
        <ele>2336</ele>
        <time>2018-02-20T16:55:15Z</time>
      </trkpt>
      <trkpt lat="45.39076" lon="7.04522">
        <ele>2345</ele>
        <time>2018-02-20T16:56:15Z</time>
      </trkpt>
      <trkpt lat="45.3905" lon="7.0456">
        <ele>2348</ele>
        <time>2018-02-20T16:57:15Z</time>
      </trkpt>
      <trkpt lat="45.39018" lon="7.04599">
        <ele>2351</ele>
        <time>2018-02-20T16:58:15Z</time>
      </trkpt>
      <trkpt lat="45.38997" lon="7.04635">
        <ele>2355</ele>
        <time>2018-02-20T16:59:15Z</time>
      </trkpt>
      <trkpt lat="45.38971" lon="7.04669">
        <ele>2354</ele>
        <time>2018-02-20T17:00:15Z</time>
      </trkpt>
      <trkpt lat="45.38965" lon="7.04681">
        <ele>2353</ele>
        <time>2018-02-20T17:01:15Z</time>
      </trkpt>
      <trkpt lat="45.38963" lon="7.0469">
        <ele>2354</ele>
        <time>2018-02-20T17:02:15Z</time>
      </trkpt>
      <trkpt lat="45.38962" lon="7.04703">
        <ele>2355</ele>
        <time>2018-02-20T17:03:15Z</time>
      </trkpt>
      <trkpt lat="45.38965" lon="7.04714">
        <ele>2357</ele>
        <time>2018-02-20T17:04:15Z</time>
      </trkpt>
      <trkpt lat="45.38974" lon="7.04729">
        <ele>2361</ele>
        <time>2018-02-20T17:05:15Z</time>
      </trkpt>
      <trkpt lat="45.38985" lon="7.04739">
        <ele>2364</ele>
        <time>2018-02-20T17:06:15Z</time>
      </trkpt>
      <trkpt lat="45.38997" lon="7.04747">
        <ele>2368</ele>
        <time>2018-02-20T17:07:15Z</time>
      </trkpt>
      <trkpt lat="45.39011" lon="7.04753">
        <ele>2374</ele>
        <time>2018-02-20T17:08:15Z</time>
      </trkpt>
      <trkpt lat="45.39022" lon="7.04754">
        <ele>2378</ele>
        <time>2018-02-20T17:09:15Z</time>
      </trkpt>
      <trkpt lat="45.39034" lon="7.04753">
        <ele>2383</ele>
        <time>2018-02-20T17:10:15Z</time>
      </trkpt>
      <trkpt lat="45.39041" lon="7.04748">
        <ele>2384</ele>
        <time>2018-02-20T17:11:15Z</time>
      </trkpt>
      <trkpt lat="45.39075" lon="7.047">
        <ele>2388</ele>
        <time>2018-02-20T17:12:15Z</time>
      </trkpt>
      <trkpt lat="45.39084" lon="7.04685">
        <ele>2387</ele>
        <time>2018-02-20T17:13:15Z</time>
      </trkpt>
      <trkpt lat="45.39095" lon="7.04671">
        <ele>2388</ele>
        <time>2018-02-20T17:14:15Z</time>
      </trkpt>
      <trkpt lat="45.39117" lon="7.04637">
        <ele>2386</ele>
        <time>2018-02-20T17:15:15Z</time>
      </trkpt>
      <trkpt lat="45.39126" lon="7.04627">
        <ele>2386</ele>
        <time>2018-02-20T17:16:15Z</time>
      </trkpt>
      <trkpt lat="45.39136" lon="7.0462">
        <ele>2387</ele>
        <time>2018-02-20T17:17:15Z</time>
      </trkpt>
      <trkpt lat="45.39162" lon="7.04609">
        <ele>2390</ele>
        <time>2018-02-20T17:18:15Z</time>
      </trkpt>
      <trkpt lat="45.39193" lon="7.04605">
        <ele>2399</ele>
        <time>2018-02-20T17:19:15Z</time>
      </trkpt>
      <trkpt lat="45.39201" lon="7.04601">
        <ele>2400</ele>
        <time>2018-02-20T17:20:15Z</time>
      </trkpt>
      <trkpt lat="45.39211" lon="7.04591">
        <ele>2400</ele>
        <time>2018-02-20T17:21:15Z</time>
      </trkpt>
      <trkpt lat="45.39238" lon="7.04542">
        <ele>2398</ele>
        <time>2018-02-20T17:22:15Z</time>
      </trkpt>
      <trkpt lat="45.39245" lon="7.04532">
        <ele>2398</ele>
        <time>2018-02-20T17:23:15Z</time>
      </trkpt>
      <trkpt lat="45.39293" lon="7.04502">
        <ele>2406</ele>
        <time>2018-02-20T17:24:15Z</time>
      </trkpt>
      <trkpt lat="45.39309" lon="7.04489">
        <ele>2407</ele>
        <time>2018-02-20T17:25:15Z</time>
      </trkpt>
      <trkpt lat="45.39332" lon="7.04458">
        <ele>2408</ele>
        <time>2018-02-20T17:26:15Z</time>
      </trkpt>
      <trkpt lat="45.39351" lon="7.0444">
        <ele>2408</ele>
        <time>2018-02-20T17:27:15Z</time>
      </trkpt>
      <trkpt lat="45.39393" lon="7.04415">
        <ele>2411</ele>
        <time>2018-02-20T17:28:15Z</time>
      </trkpt>
      <trkpt lat="45.3941" lon="7.04407">
        <ele>2412</ele>
        <time>2018-02-20T17:29:15Z</time>
      </trkpt>
      <trkpt lat="45.39433" lon="7.04408">
        <ele>2420</ele>
        <time>2018-02-20T17:30:15Z</time>
      </trkpt>
      <trkpt lat="45.39446" lon="7.04404">
        <ele>2424</ele>
        <time>2018-02-20T17:31:15Z</time>
      </trkpt>
      <trkpt lat="45.39458" lon="7.04396">
        <ele>2427</ele>
        <time>2018-02-20T17:32:15Z</time>
      </trkpt>
      <trkpt lat="45.39476" lon="7.04379">
        <ele>2429</ele>
        <time>2018-02-20T17:33:15Z</time>
      </trkpt>
      <trkpt lat="45.39543" lon="7.04281">
        <ele>2425</ele>
        <time>2018-02-20T17:34:15Z</time>
      </trkpt>
      <trkpt lat="45.3955" lon="7.04275">
        <ele>2425</ele>
        <time>2018-02-20T17:35:15Z</time>
      </trkpt>
      <trkpt lat="45.39602" lon="7.0426">
        <ele>2436</ele>
        <time>2018-02-20T17:36:15Z</time>
      </trkpt>
      <trkpt lat="45.39629" lon="7.04257">
        <ele>2442</ele>
        <time>2018-02-20T17:37:15Z</time>
      </trkpt>
      <trkpt lat="45.39659" lon="7.04258">
        <ele>2449</ele>
        <time>2018-02-20T17:38:15Z</time>
      </trkpt>
      <trkpt lat="45.39698" lon="7.04263">
        <ele>2451</ele>
        <time>2018-02-20T17:39:15Z</time>
      </trkpt>
      <trkpt lat="45.39727" lon="7.04272">
        <ele>2453</ele>
        <time>2018-02-20T17:40:15Z</time>
      </trkpt>
      <trkpt lat="45.39744" lon="7.04281">
        <ele>2456</ele>
        <time>2018-02-20T17:41:15Z</time>
      </trkpt>
      <trkpt lat="45.39779" lon="7.04306">
        <ele>2465</ele>
        <time>2018-02-20T17:42:15Z</time>
      </trkpt>
      <trkpt lat="45.39794" lon="7.04312">
        <ele>2467</ele>
        <time>2018-02-20T17:43:15Z</time>
      </trkpt>
      <trkpt lat="45.39836" lon="7.04319">
        <ele>2468</ele>
        <time>2018-02-20T17:44:15Z</time>
      </trkpt>
      <trkpt lat="45.39865" lon="7.04335">
        <ele>2474</ele>
        <time>2018-02-20T17:45:15Z</time>
      </trkpt>
      <trkpt lat="45.39879" lon="7.04339">
        <ele>2475</ele>
        <time>2018-02-20T17:46:15Z</time>
      </trkpt>
      <trkpt lat="45.39896" lon="7.04341">
        <ele>2475</ele>
        <time>2018-02-20T17:47:15Z</time>
      </trkpt>
      <trkpt lat="45.39923" lon="7.0434">
        <ele>2477</ele>
        <time>2018-02-20T17:48:15Z</time>
      </trkpt>
      <trkpt lat="45.3993" lon="7.04335">
        <ele>2477</ele>
        <time>2018-02-20T17:49:15Z</time>
      </trkpt>
      <trkpt lat="45.39948" lon="7.04312">
        <ele>2476</ele>
        <time>2018-02-20T17:50:15Z</time>
      </trkpt>
      <trkpt lat="45.39974" lon="7.04264">
        <ele>2472</ele>
        <time>2018-02-20T17:51:15Z</time>
      </trkpt>
      <trkpt lat="45.39986" lon="7.04252">
        <ele>2472</ele>
        <time>2018-02-20T17:52:15Z</time>
      </trkpt>
      <trkpt lat="45.40011" lon="7.04242">
        <ele>2481</ele>
        <time>2018-02-20T17:53:15Z</time>
      </trkpt>
      <trkpt lat="45.40027" lon="7.04231">
        <ele>2488</ele>
        <time>2018-02-20T17:54:15Z</time>
      </trkpt>
      <trkpt lat="45.40037" lon="7.04222">
        <ele>2492</ele>
        <time>2018-02-20T17:55:15Z</time>
      </trkpt>
      <trkpt lat="45.40045" lon="7.04206">
        <ele>2494</ele>
        <time>2018-02-20T17:56:15Z</time>
      </trkpt>
      <trkpt lat="45.40053" lon="7.04185">
        <ele>2495</ele>
        <time>2018-02-20T17:57:15Z</time>
      </trkpt>
      <trkpt lat="45.40059" lon="7.04157">
        <ele>2493</ele>
        <time>2018-02-20T17:58:15Z</time>
      </trkpt>
      <trkpt lat="45.40061" lon="7.04135">
        <ele>2490</ele>
        <time>2018-02-20T17:59:15Z</time>
      </trkpt>
      <trkpt lat="45.40061" lon="7.04102">
        <ele>2484</ele>
        <time>2018-02-20T18:00:15Z</time>
      </trkpt>
      <trkpt lat="45.40077" lon="7.0401">
        <ele>2480</ele>
        <time>2018-02-20T18:01:15Z</time>
      </trkpt>
      <trkpt lat="45.40085" lon="7.0397">
        <ele>2481</ele>
        <time>2018-02-20T18:02:15Z</time>
      </trkpt>
      <trkpt lat="45.40101" lon="7.03939">
        <ele>2491</ele>
        <time>2018-02-20T18:03:15Z</time>
      </trkpt>
      <trkpt lat="45.40102" lon="7.03917">
        <ele>2488</ele>
        <time>2018-02-20T18:04:15Z</time>
      </trkpt>
      <trkpt lat="45.40098" lon="7.0389">
        <ele>2480</ele>
        <time>2018-02-20T18:05:15Z</time>
      </trkpt>
      <trkpt lat="45.401" lon="7.0388">
        <ele>2480</ele>
        <time>2018-02-20T18:06:15Z</time>
      </trkpt>
      <trkpt lat="45.40112" lon="7.0385">
        <ele>2486</ele>
        <time>2018-02-20T18:07:15Z</time>
      </trkpt>
      <trkpt lat="45.40118" lon="7.0382">
        <ele>2485</ele>
        <time>2018-02-20T18:08:15Z</time>
      </trkpt>
      <trkpt lat="45.40124" lon="7.0381">
        <ele>2487</ele>
        <time>2018-02-20T18:09:15Z</time>
      </trkpt>
      <trkpt lat="45.40138" lon="7.03797">
        <ele>2495</ele>
        <time>2018-02-20T18:10:15Z</time>
      </trkpt>
      <trkpt lat="45.40148" lon="7.03785">
        <ele>2500</ele>
        <time>2018-02-20T18:11:15Z</time>
      </trkpt>
      <trkpt lat="45.40152" lon="7.03769">
        <ele>2499</ele>
        <time>2018-02-20T18:12:15Z</time>
      </trkpt>
      <trkpt lat="45.40154" lon="7.03666">
        <ele>2472</ele>
        <time>2018-02-20T18:13:15Z</time>
      </trkpt>
      <trkpt lat="45.4015" lon="7.03631">
        <ele>2462</ele>
        <time>2018-02-20T18:14:15Z</time>
      </trkpt>
      <trkpt lat="45.40154" lon="7.0362">
        <ele>2462</ele>
        <time>2018-02-20T18:15:15Z</time>
      </trkpt>
      <trkpt lat="45.4016" lon="7.03611">
        <ele>2464</ele>
        <time>2018-02-20T18:16:15Z</time>
      </trkpt>
      <trkpt lat="45.40196" lon="7.03581">
        <ele>2483</ele>
        <time>2018-02-20T18:17:15Z</time>
      </trkpt>
      <trkpt lat="45.40221" lon="7.03562">
        <ele>2497</ele>
        <time>2018-02-20T18:18:15Z</time>
      </trkpt>
      <trkpt lat="45.40234" lon="7.03547">
        <ele>2503</ele>
        <time>2018-02-20T18:19:15Z</time>
      </trkpt>
      <trkpt lat="45.40244" lon="7.03531">
        <ele>2506</ele>
        <time>2018-02-20T18:20:15Z</time>
      </trkpt>
      <trkpt lat="45.40253" lon="7.03505">
        <ele>2505</ele>
        <time>2018-02-20T18:21:15Z</time>
      </trkpt>
      <trkpt lat="45.40292" lon="7.03353">
        <ele>2505</ele>
        <time>2018-02-20T18:22:15Z</time>
      </trkpt>
      <trkpt lat="45.40299" lon="7.03328">
        <ele>2504</ele>
        <time>2018-02-20T18:23:15Z</time>
      </trkpt>
      <trkpt lat="45.40312" lon="7.03306">
        <ele>2502</ele>
        <time>2018-02-20T18:24:15Z</time>
      </trkpt>
      <trkpt lat="45.40329" lon="7.03283">
        <ele>2499</ele>
        <time>2018-02-20T18:25:15Z</time>
      </trkpt>
      <trkpt lat="45.40387" lon="7.03229">
        <ele>2507</ele>
        <time>2018-02-20T18:26:15Z</time>
      </trkpt>
      <trkpt lat="45.40406" lon="7.0322">
        <ele>2514</ele>
        <time>2018-02-20T18:27:15Z</time>
      </trkpt>
      <trkpt lat="45.40419" lon="7.03217">
        <ele>2519</ele>
        <time>2018-02-20T18:28:15Z</time>
      </trkpt>
      <trkpt lat="45.40432" lon="7.03208">
        <ele>2524</ele>
        <time>2018-02-20T18:29:15Z</time>
      </trkpt>
      <trkpt lat="45.40468" lon="7.0315">
        <ele>2529</ele>
        <time>2018-02-20T18:30:15Z</time>
      </trkpt>
      <trkpt lat="45.4048" lon="7.03122">
        <ele>2531</ele>
        <time>2018-02-20T18:31:15Z</time>
      </trkpt>
      <trkpt lat="45.40484" lon="7.03102">
        <ele>2529</ele>
        <time>2018-02-20T18:32:15Z</time>
      </trkpt>
      <trkpt lat="45.40483" lon="7.03087">
        <ele>2525</ele>
        <time>2018-02-20T18:33:15Z</time>
      </trkpt>
      <trkpt lat="45.40476" lon="7.03066">
        <ele>2518</ele>
        <time>2018-02-20T18:34:15Z</time>
      </trkpt>
      <trkpt lat="45.40474" lon="7.03051">
        <ele>2514</ele>
        <time>2018-02-20T18:35:15Z</time>
      </trkpt>
      <trkpt lat="45.40476" lon="7.03031">
        <ele>2512</ele>
        <time>2018-02-20T18:36:15Z</time>
      </trkpt>
      <trkpt lat="45.40482" lon="7.03013">
        <ele>2511</ele>
        <time>2018-02-20T18:37:15Z</time>
      </trkpt>
      <trkpt lat="45.40519" lon="7.02959">
        <ele>2520</ele>
        <time>2018-02-20T18:38:15Z</time>
      </trkpt>
      <trkpt lat="45.40539" lon="7.02933">
        <ele>2523</ele>
        <time>2018-02-20T18:39:15Z</time>
      </trkpt>
      <trkpt lat="45.40551" lon="7.0292">
        <ele>2524</ele>
        <time>2018-02-20T18:40:15Z</time>
      </trkpt>
      <trkpt lat="45.40564" lon="7.02912">
        <ele>2526</ele>
        <time>2018-02-20T18:41:15Z</time>
      </trkpt>
      <trkpt lat="45.40584" lon="7.02906">
        <ele>2530</ele>
        <time>2018-02-20T18:42:15Z</time>
      </trkpt>
      <trkpt lat="45.40593" lon="7.029">
        <ele>2530</ele>
        <time>2018-02-20T18:43:15Z</time>
      </trkpt>
      <trkpt lat="45.40599" lon="7.0289">
        <ele>2530</ele>
        <time>2018-02-20T18:44:15Z</time>
      </trkpt>
      <trkpt lat="45.40627" lon="7.02817">
        <ele>2528</ele>
        <time>2018-02-20T18:45:15Z</time>
      </trkpt>
      <trkpt lat="45.40638" lon="7.02797">
        <ele>2530</ele>
        <time>2018-02-20T18:46:15Z</time>
      </trkpt>
      <trkpt lat="45.4065" lon="7.02783">
        <ele>2532</ele>
        <time>2018-02-20T18:47:15Z</time>
      </trkpt>
      <trkpt lat="45.40674" lon="7.0277">
        <ele>2535</ele>
        <time>2018-02-20T18:48:15Z</time>
      </trkpt>
      <trkpt lat="45.40695" lon="7.02769">
        <ele>2536</ele>
        <time>2018-02-20T18:49:15Z</time>
      </trkpt>
      <trkpt lat="45.40709" lon="7.0277">
        <ele>2536</ele>
        <time>2018-02-20T18:50:15Z</time>
      </trkpt>
      <trkpt lat="45.4074" lon="7.02783">
        <ele>2535</ele>
        <time>2018-02-20T18:51:15Z</time>
      </trkpt>
      <trkpt lat="45.40754" lon="7.02784">
        <ele>2536</ele>
        <time>2018-02-20T18:52:15Z</time>
      </trkpt>
      <trkpt lat="45.40795" lon="7.02774">
        <ele>2544</ele>
        <time>2018-02-20T18:53:15Z</time>
      </trkpt>
      <trkpt lat="45.40813" lon="7.02779">
        <ele>2546</ele>
        <time>2018-02-20T18:54:15Z</time>
      </trkpt>
      <trkpt lat="45.40843" lon="7.02795">
        <ele>2547</ele>
        <time>2018-02-20T18:55:15Z</time>
      </trkpt>
      <trkpt lat="45.4086" lon="7.02798">
        <ele>2547</ele>
        <time>2018-02-20T18:56:15Z</time>
      </trkpt>
      <trkpt lat="45.40878" lon="7.02796">
        <ele>2549</ele>
        <time>2018-02-20T18:57:15Z</time>
      </trkpt>
      <trkpt lat="45.40896" lon="7.02787">
        <ele>2551</ele>
        <time>2018-02-20T18:58:15Z</time>
      </trkpt>
      <trkpt lat="45.40928" lon="7.02763">
        <ele>2558</ele>
        <time>2018-02-20T18:59:15Z</time>
      </trkpt>
      <trkpt lat="45.40944" lon="7.02757">
        <ele>2562</ele>
        <time>2018-02-20T19:00:15Z</time>
      </trkpt>
      <trkpt lat="45.40961" lon="7.02755">
        <ele>2566</ele>
        <time>2018-02-20T19:01:15Z</time>
      </trkpt>
      <trkpt lat="45.41001" lon="7.0277">
        <ele>2571</ele>
        <time>2018-02-20T19:02:15Z</time>
      </trkpt>
      <trkpt lat="45.41019" lon="7.02784">
        <ele>2575</ele>
        <time>2018-02-20T19:03:15Z</time>
      </trkpt>
      <trkpt lat="45.41034" lon="7.02801">
        <ele>2577</ele>
        <time>2018-02-20T19:04:15Z</time>
      </trkpt>
      <trkpt lat="45.41077" lon="7.02861">
        <ele>2581</ele>
        <time>2018-02-20T19:05:15Z</time>
      </trkpt>
      <trkpt lat="45.41108" lon="7.02898">
        <ele>2583</ele>
        <time>2018-02-20T19:06:15Z</time>
      </trkpt>
      <trkpt lat="45.41122" lon="7.02911">
        <ele>2584</ele>
        <time>2018-02-20T19:07:15Z</time>
      </trkpt>
      <trkpt lat="45.41138" lon="7.02919">
        <ele>2587</ele>
        <time>2018-02-20T19:08:15Z</time>
      </trkpt>
      <trkpt lat="45.41169" lon="7.02931">
        <ele>2592</ele>
        <time>2018-02-20T19:09:15Z</time>
      </trkpt>
      <trkpt lat="45.41243" lon="7.0297">
        <ele>2605</ele>
        <time>2018-02-20T19:10:15Z</time>
      </trkpt>
      <trkpt lat="45.41267" lon="7.02985">
        <ele>2610</ele>
        <time>2018-02-20T19:11:15Z</time>
      </trkpt>
      <trkpt lat="45.41315" lon="7.03027">
        <ele>2619</ele>
        <time>2018-02-20T19:12:15Z</time>
      </trkpt>
      <trkpt lat="45.41354" lon="7.03079">
        <ele>2626</ele>
        <time>2018-02-20T19:13:15Z</time>
      </trkpt>
      <trkpt lat="45.41386" lon="7.03143">
        <ele>2629</ele>
        <time>2018-02-20T19:14:15Z</time>
      </trkpt>
      <trkpt lat="45.41417" lon="7.03201">
        <ele>2631</ele>
        <time>2018-02-20T19:15:15Z</time>
      </trkpt>
      <trkpt lat="45.41436" lon="7.0323">
        <ele>2634</ele>
        <time>2018-02-20T19:16:15Z</time>
      </trkpt>
      <trkpt lat="45.41453" lon="7.03249">
        <ele>2638</ele>
        <time>2018-02-20T19:17:15Z</time>
      </trkpt>
      <trkpt lat="45.41473" lon="7.03267">
        <ele>2642</ele>
        <time>2018-02-20T19:18:15Z</time>
      </trkpt>
      <trkpt lat="45.41523" lon="7.03302">
        <ele>2651</ele>
        <time>2018-02-20T19:19:15Z</time>
      </trkpt>
      <trkpt lat="45.4153" lon="7.0331">
        <ele>2651</ele>
        <time>2018-02-20T19:20:15Z</time>
      </trkpt>
      <trkpt lat="45.41547" lon="7.03343">
        <ele>2645</ele>
        <time>2018-02-20T19:21:15Z</time>
      </trkpt>
      <trkpt lat="45.41555" lon="7.03352">
        <ele>2646</ele>
        <time>2018-02-20T19:22:15Z</time>
      </trkpt>
      <trkpt lat="45.41617" lon="7.03392">
        <ele>2656</ele>
        <time>2018-02-20T19:23:15Z</time>
      </trkpt>
      <trkpt lat="45.41654" lon="7.03408">
        <ele>2663</ele>
        <time>2018-02-20T19:24:15Z</time>
      </trkpt>
      <trkpt lat="45.41669" lon="7.03423">
        <ele>2664</ele>
        <time>2018-02-20T19:25:15Z</time>
      </trkpt>
      <trkpt lat="45.41685" lon="7.03442">
        <ele>2665</ele>
        <time>2018-02-20T19:26:15Z</time>
      </trkpt>
      <trkpt lat="45.41705" lon="7.03479">
        <ele>2664</ele>
        <time>2018-02-20T19:27:15Z</time>
      </trkpt>
      <trkpt lat="45.41715" lon="7.03489">
        <ele>2665</ele>
        <time>2018-02-20T19:28:15Z</time>
      </trkpt>
      <trkpt lat="45.4174" lon="7.03507">
        <ele>2669</ele>
        <time>2018-02-20T19:29:15Z</time>
      </trkpt>
      <trkpt lat="45.41748" lon="7.03511">
        <ele>2670</ele>
        <time>2018-02-20T19:30:15Z</time>
      </trkpt>
      <trkpt lat="45.41758" lon="7.03514">
        <ele>2672</ele>
        <time>2018-02-20T19:31:15Z</time>
      </trkpt>
      <trkpt lat="45.41791" lon="7.03513">
        <ele>2682</ele>
        <time>2018-02-20T19:32:15Z</time>
      </trkpt>
      <trkpt lat="45.41803" lon="7.03518">
        <ele>2684</ele>
        <time>2018-02-20T19:33:15Z</time>
      </trkpt>
      <trkpt lat="45.41824" lon="7.03534">
        <ele>2686</ele>
        <time>2018-02-20T19:34:15Z</time>
      </trkpt>
      <trkpt lat="45.41844" lon="7.03552">
        <ele>2687</ele>
        <time>2018-02-20T19:35:15Z</time>
      </trkpt>
      <trkpt lat="45.41862" lon="7.03574">
        <ele>2687</ele>
        <time>2018-02-20T19:36:15Z</time>
      </trkpt>
      <trkpt lat="45.41919" lon="7.03627">
        <ele>2692</ele>
        <time>2018-02-20T19:37:15Z</time>
      </trkpt>
      <trkpt lat="45.41929" lon="7.03635">
        <ele>2694</ele>
        <time>2018-02-20T19:38:15Z</time>
      </trkpt>
      <trkpt lat="45.41966" lon="7.03653">
        <ele>2701</ele>
        <time>2018-02-20T19:39:15Z</time>
      </trkpt>
      <trkpt lat="45.4198" lon="7.03662">
        <ele>2703</ele>
        <time>2018-02-20T19:40:15Z</time>
      </trkpt>
      <trkpt lat="45.42014" lon="7.03692">
        <ele>2708</ele>
        <time>2018-02-20T19:41:15Z</time>
      </trkpt>
      <trkpt lat="45.42027" lon="7.03706">
        <ele>2709</ele>
        <time>2018-02-20T19:42:15Z</time>
      </trkpt>
      <trkpt lat="45.42035" lon="7.03719">
        <ele>2710</ele>
        <time>2018-02-20T19:43:15Z</time>
      </trkpt>
      <trkpt lat="45.42053" lon="7.03753">
        <ele>2709</ele>
        <time>2018-02-20T19:44:15Z</time>
      </trkpt>
      <trkpt lat="45.4206" lon="7.03758">
        <ele>2711</ele>
        <time>2018-02-20T19:45:15Z</time>
      </trkpt>
      <trkpt lat="45.42067" lon="7.03759">
        <ele>2714</ele>
        <time>2018-02-20T19:46:15Z</time>
      </trkpt>
      <trkpt lat="45.42072" lon="7.03754">
        <ele>2716</ele>
        <time>2018-02-20T19:47:15Z</time>
      </trkpt>
      <trkpt lat="45.42074" lon="7.03751">
        <ele>2717</ele>
        <time>2018-02-20T19:48:15Z</time>
      </trkpt>
      <trkpt lat="45.42074" lon="7.03745">
        <ele>2719</ele>
        <time>2018-02-20T19:49:15Z</time>
      </trkpt>
      <trkpt lat="45.4207" lon="7.03733">
        <ele>2720</ele>
        <time>2018-02-20T19:50:15Z</time>
      </trkpt>
      <trkpt lat="45.42043" lon="7.03693">
        <ele>2718</ele>
        <time>2018-02-20T19:51:15Z</time>
      </trkpt>
      <trkpt lat="45.41993" lon="7.03633">
        <ele>2716</ele>
        <time>2018-02-20T19:52:15Z</time>
      </trkpt>
      <trkpt lat="45.41973" lon="7.03604">
        <ele>2718</ele>
        <time>2018-02-20T19:53:15Z</time>
      </trkpt>
      <trkpt lat="45.41915" lon="7.03511">
        <ele>2722</ele>
        <time>2018-02-20T19:54:15Z</time>
      </trkpt>
      <trkpt lat="45.4191" lon="7.03498">
        <ele>2723</ele>
        <time>2018-02-20T19:55:15Z</time>
      </trkpt>
      <trkpt lat="45.41906" lon="7.03487">
        <ele>2724</ele>
        <time>2018-02-20T19:56:15Z</time>
      </trkpt>
      <trkpt lat="45.41899" lon="7.03456">
        <ele>2729</ele>
        <time>2018-02-20T19:57:15Z</time>
      </trkpt>
      <trkpt lat="45.41881" lon="7.03307">
        <ele>2749</ele>
        <time>2018-02-20T19:58:15Z</time>
      </trkpt>
      <trkpt lat="45.41873" lon="7.03283">
        <ele>2752</ele>
        <time>2018-02-20T19:59:15Z</time>
      </trkpt>
      <trkpt lat="45.41859" lon="7.0327">
        <ele>2752</ele>
        <time>2018-02-20T20:00:15Z</time>
      </trkpt>
      <trkpt lat="45.41836" lon="7.03258">
        <ele>2751</ele>
        <time>2018-02-20T20:01:15Z</time>
      </trkpt>
      <trkpt lat="45.41807" lon="7.03238">
        <ele>2751</ele>
        <time>2018-02-20T20:02:15Z</time>
      </trkpt>
      <trkpt lat="45.41785" lon="7.03216">
        <ele>2752</ele>
        <time>2018-02-20T20:03:15Z</time>
      </trkpt>
      <trkpt lat="45.41773" lon="7.03208">
        <ele>2753</ele>
        <time>2018-02-20T20:04:15Z</time>
      </trkpt>
      <trkpt lat="45.41722" lon="7.03196">
        <ele>2750</ele>
        <time>2018-02-20T20:05:15Z</time>
      </trkpt>
      <trkpt lat="45.41708" lon="7.03187">
        <ele>2751</ele>
        <time>2018-02-20T20:06:15Z</time>
      </trkpt>
      <trkpt lat="45.417" lon="7.03176">
        <ele>2753</ele>
        <time>2018-02-20T20:07:15Z</time>
      </trkpt>
      <trkpt lat="45.41695" lon="7.03164">
        <ele>2756</ele>
        <time>2018-02-20T20:08:15Z</time>
      </trkpt>
      <trkpt lat="45.41694" lon="7.03148">
        <ele>2757</ele>
        <time>2018-02-20T20:09:15Z</time>
      </trkpt>
      <trkpt lat="45.41694" lon="7.03134">
        <ele>2758</ele>
        <time>2018-02-20T20:10:15Z</time>
      </trkpt>
      <trkpt lat="45.41697" lon="7.03121">
        <ele>2759</ele>
        <time>2018-02-20T20:11:15Z</time>
      </trkpt>
      <trkpt lat="45.41704" lon="7.03098">
        <ele>2761</ele>
        <time>2018-02-20T20:12:15Z</time>
      </trkpt>
      <trkpt lat="45.41711" lon="7.03083">
        <ele>2762</ele>
        <time>2018-02-20T20:13:15Z</time>
      </trkpt>
      <trkpt lat="45.41724" lon="7.03068">
        <ele>2762</ele>
        <time>2018-02-20T20:14:15Z</time>
      </trkpt>
      <trkpt lat="45.41739" lon="7.0306">
        <ele>2761</ele>
        <time>2018-02-20T20:15:15Z</time>
      </trkpt>
      <trkpt lat="45.41806" lon="7.03043">
        <ele>2758</ele>
        <time>2018-02-20T20:16:15Z</time>
      </trkpt>
      <trkpt lat="45.41823" lon="7.03032">
        <ele>2756</ele>
        <time>2018-02-20T20:17:15Z</time>
      </trkpt>
      <trkpt lat="45.41856" lon="7.02984">
        <ele>2748</ele>
        <time>2018-02-20T20:18:15Z</time>
      </trkpt>
      <trkpt lat="45.41867" lon="7.02972">
        <ele>2745</ele>
        <time>2018-02-20T20:19:15Z</time>
      </trkpt>
      <trkpt lat="45.41879" lon="7.02967">
        <ele>2743</ele>
        <time>2018-02-20T20:20:15Z</time>
      </trkpt>
      <trkpt lat="45.419" lon="7.02972">
        <ele>2742</ele>
        <time>2018-02-20T20:21:15Z</time>
      </trkpt>
      <trkpt lat="45.41909" lon="7.02981">
        <ele>2743</ele>
        <time>2018-02-20T20:22:15Z</time>
      </trkpt>
      <trkpt lat="45.41914" lon="7.02989">
        <ele>2744</ele>
        <time>2018-02-20T20:23:15Z</time>
      </trkpt>
      <trkpt lat="45.4192" lon="7.03009">
        <ele>2748</ele>
        <time>2018-02-20T20:24:15Z</time>
      </trkpt>
      <trkpt lat="45.41926" lon="7.03019">
        <ele>2750</ele>
        <time>2018-02-20T20:25:15Z</time>
      </trkpt>
      <trkpt lat="45.41934" lon="7.03019">
        <ele>2750</ele>
        <time>2018-02-20T20:26:15Z</time>
      </trkpt>
      <trkpt lat="45.41938" lon="7.03013">
        <ele>2748</ele>
        <time>2018-02-20T20:27:15Z</time>
      </trkpt>
      <trkpt lat="45.41939" lon="7.03005">
        <ele>2747</ele>
        <time>2018-02-20T20:28:15Z</time>
      </trkpt>
      <trkpt lat="45.41936" lon="7.02987">
        <ele>2743</ele>
        <time>2018-02-20T20:29:15Z</time>
      </trkpt>
      <trkpt lat="45.41929" lon="7.02967">
        <ele>2740</ele>
        <time>2018-02-20T20:30:15Z</time>
      </trkpt>
      <trkpt lat="45.41908" lon="7.02917">
        <ele>2732</ele>
        <time>2018-02-20T20:31:15Z</time>
      </trkpt>
      <trkpt lat="45.41902" lon="7.02908">
        <ele>2732</ele>
        <time>2018-02-20T20:32:15Z</time>
      </trkpt>
      <trkpt lat="45.41896" lon="7.02903">
        <ele>2732</ele>
        <time>2018-02-20T20:33:15Z</time>
      </trkpt>
      <trkpt lat="45.41878" lon="7.02901">
        <ele>2733</ele>
        <time>2018-02-20T20:34:15Z</time>
      </trkpt>
      <trkpt lat="45.41871" lon="7.02894">
        <ele>2733</ele>
        <time>2018-02-20T20:35:15Z</time>
      </trkpt>
      <trkpt lat="45.41869" lon="7.02888">
        <ele>2733</ele>
        <time>2018-02-20T20:36:15Z</time>
      </trkpt>
      <trkpt lat="45.41869" lon="7.02881">
        <ele>2732</ele>
        <time>2018-02-20T20:37:15Z</time>
      </trkpt>
      <trkpt lat="45.41874" lon="7.02874">
        <ele>2731</ele>
        <time>2018-02-20T20:38:15Z</time>
      </trkpt>
      <trkpt lat="45.41885" lon="7.0287">
        <ele>2730</ele>
        <time>2018-02-20T20:39:15Z</time>
      </trkpt>
      <trkpt lat="45.41996" lon="7.02883">
        <ele>2721</ele>
        <time>2018-02-20T20:40:15Z</time>
      </trkpt>
      <trkpt lat="45.42016" lon="7.02881">
        <ele>2719</ele>
        <time>2018-02-20T20:41:15Z</time>
      </trkpt>
      <trkpt lat="45.42022" lon="7.02877">
        <ele>2719</ele>
        <time>2018-02-20T20:42:15Z</time>
      </trkpt>
      <trkpt lat="45.4203" lon="7.02872">
        <ele>2718</ele>
        <time>2018-02-20T20:43:15Z</time>
      </trkpt>
      <trkpt lat="45.4204" lon="7.0286">
        <ele>2716</ele>
        <time>2018-02-20T20:44:15Z</time>
      </trkpt>
      <trkpt lat="45.42046" lon="7.02849">
        <ele>2714</ele>
        <time>2018-02-20T20:45:15Z</time>
      </trkpt>
      <trkpt lat="45.42076" lon="7.02769">
        <ele>2708</ele>
        <time>2018-02-20T20:46:15Z</time>
      </trkpt>
      <trkpt lat="45.42083" lon="7.02753">
        <ele>2706</ele>
        <time>2018-02-20T20:47:15Z</time>
      </trkpt>
      <trkpt lat="45.4209" lon="7.02745">
        <ele>2705</ele>
        <time>2018-02-20T20:48:15Z</time>
      </trkpt>
      <trkpt lat="45.42099" lon="7.02743">
        <ele>2705</ele>
        <time>2018-02-20T20:49:15Z</time>
      </trkpt>
      <trkpt lat="45.42109" lon="7.02745">
        <ele>2705</ele>
        <time>2018-02-20T20:50:15Z</time>
      </trkpt>
      <trkpt lat="45.4212" lon="7.02755">
        <ele>2704</ele>
        <time>2018-02-20T20:51:15Z</time>
      </trkpt>
      <trkpt lat="45.42215" lon="7.02874">
        <ele>2699</ele>
        <time>2018-02-20T20:52:15Z</time>
      </trkpt>
      <trkpt lat="45.42221" lon="7.02878">
        <ele>2698</ele>
        <time>2018-02-20T20:53:15Z</time>
      </trkpt>
      <trkpt lat="45.42232" lon="7.02881">
        <ele>2698</ele>
        <time>2018-02-20T20:54:15Z</time>
      </trkpt>
      <trkpt lat="45.42247" lon="7.02876">
        <ele>2696</ele>
        <time>2018-02-20T20:55:15Z</time>
      </trkpt>
      <trkpt lat="45.42282" lon="7.02832">
        <ele>2689</ele>
        <time>2018-02-20T20:56:15Z</time>
      </trkpt>
      <trkpt lat="45.42313" lon="7.02775">
        <ele>2684</ele>
        <time>2018-02-20T20:57:15Z</time>
      </trkpt>
      <trkpt lat="45.42343" lon="7.02696">
        <ele>2678</ele>
        <time>2018-02-20T20:58:15Z</time>
      </trkpt>
      <trkpt lat="45.42346" lon="7.02681">
        <ele>2677</ele>
        <time>2018-02-20T20:59:15Z</time>
      </trkpt>
      <trkpt lat="45.42345" lon="7.02659">
        <ele>2676</ele>
        <time>2018-02-20T21:00:15Z</time>
      </trkpt>
      <trkpt lat="45.42338" lon="7.02628">
        <ele>2674</ele>
        <time>2018-02-20T21:01:15Z</time>
      </trkpt>
      <trkpt lat="45.42342" lon="7.026">
        <ele>2670</ele>
        <time>2018-02-20T21:02:15Z</time>
      </trkpt>
      <trkpt lat="45.4236" lon="7.0253">
        <ele>2665</ele>
        <time>2018-02-20T21:03:15Z</time>
      </trkpt>
      <trkpt lat="45.42367" lon="7.02515">
        <ele>2663</ele>
        <time>2018-02-20T21:04:15Z</time>
      </trkpt>
      <trkpt lat="45.4237" lon="7.02484">
        <ele>2661</ele>
        <time>2018-02-20T21:05:15Z</time>
      </trkpt>
      <trkpt lat="45.4237" lon="7.02484">
        <ele>2661</ele>
        <time>2018-02-20T21:06:15Z</time>
      </trkpt>
      <trkpt lat="45.42371" lon="7.02446">
        <ele>2658</ele>
        <time>2018-02-20T21:07:15Z</time>
      </trkpt>
      <trkpt lat="45.4236" lon="7.02386">
        <ele>2659</ele>
        <time>2018-02-20T21:08:15Z</time>
      </trkpt>
      <trkpt lat="45.42358" lon="7.02356">
        <ele>2658</ele>
        <time>2018-02-20T21:09:15Z</time>
      </trkpt>
      <trkpt lat="45.42363" lon="7.02333">
        <ele>2657</ele>
        <time>2018-02-20T21:10:15Z</time>
      </trkpt>
      <trkpt lat="45.42375" lon="7.02313">
        <ele>2657</ele>
        <time>2018-02-20T21:11:15Z</time>
      </trkpt>
      <trkpt lat="45.42394" lon="7.02291">
        <ele>2655</ele>
        <time>2018-02-20T21:12:15Z</time>
      </trkpt>
      <trkpt lat="45.42423" lon="7.02278">
        <ele>2650</ele>
        <time>2018-02-20T21:13:15Z</time>
      </trkpt>
      <trkpt lat="45.42523" lon="7.02265">
        <ele>2641</ele>
        <time>2018-02-20T21:14:15Z</time>
      </trkpt>
      <trkpt lat="45.42596" lon="7.02272">
        <ele>2634</ele>
        <time>2018-02-20T21:15:15Z</time>
      </trkpt>
      <trkpt lat="45.42635" lon="7.02247">
        <ele>2631</ele>
        <time>2018-02-20T21:16:15Z</time>
      </trkpt>
      <trkpt lat="45.4268" lon="7.02213">
        <ele>2627</ele>
        <time>2018-02-20T21:17:15Z</time>
      </trkpt>
      <trkpt lat="45.4286" lon="7.02133">
        <ele>2614</ele>
        <time>2018-02-20T21:18:15Z</time>
      </trkpt>
      <trkpt lat="45.42881" lon="7.02122">
        <ele>2611</ele>
        <time>2018-02-20T21:19:15Z</time>
      </trkpt>
      <trkpt lat="45.42898" lon="7.02107">
        <ele>2610</ele>
        <time>2018-02-20T21:20:15Z</time>
      </trkpt>
      <trkpt lat="45.43042" lon="7.01907">
        <ele>2602</ele>
        <time>2018-02-20T21:21:15Z</time>
      </trkpt>
      <trkpt lat="45.43153" lon="7.01841">
        <ele>2587</ele>
        <time>2018-02-20T21:22:15Z</time>
      </trkpt>
      <trkpt lat="45.43185" lon="7.01824">
        <ele>2582</ele>
        <time>2018-02-20T21:23:15Z</time>
      </trkpt>
      <trkpt lat="45.43235" lon="7.01773">
        <ele>2581</ele>
        <time>2018-02-20T21:24:15Z</time>
      </trkpt>
      <trkpt lat="45.4328" lon="7.01732">
        <ele>2576</ele>
        <time>2018-02-20T21:25:15Z</time>
      </trkpt>
      <trkpt lat="45.43298" lon="7.0171">
        <ele>2575</ele>
        <time>2018-02-20T21:26:15Z</time>
      </trkpt>
      <trkpt lat="45.43318" lon="7.0166">
        <ele>2578</ele>
        <time>2018-02-20T21:27:15Z</time>
      </trkpt>
      <trkpt lat="45.43384" lon="7.01525">
        <ele>2578</ele>
        <time>2018-02-20T21:28:15Z</time>
      </trkpt>
      <trkpt lat="45.43489" lon="7.01445">
        <ele>2564</ele>
        <time>2018-02-20T21:29:15Z</time>
      </trkpt>
      <trkpt lat="45.43557" lon="7.01379">
        <ele>2562</ele>
        <time>2018-02-20T21:30:15Z</time>
      </trkpt>
      <trkpt lat="45.4359" lon="7.01389">
        <ele>2554</ele>
        <time>2018-02-20T21:31:15Z</time>
      </trkpt>
      <trkpt lat="45.43607" lon="7.01389">
        <ele>2551</ele>
        <time>2018-02-20T21:32:15Z</time>
      </trkpt>
      <trkpt lat="45.43622" lon="7.01379">
        <ele>2549</ele>
        <time>2018-02-20T21:33:15Z</time>
      </trkpt>
      <trkpt lat="45.43687" lon="7.01283">
        <ele>2550</ele>
        <time>2018-02-20T21:34:15Z</time>
      </trkpt>
      <trkpt lat="45.43702" lon="7.01264">
        <ele>2548</ele>
        <time>2018-02-20T21:35:15Z</time>
      </trkpt>
      <trkpt lat="45.43712" lon="7.01235">
        <ele>2548</ele>
        <time>2018-02-20T21:36:15Z</time>
      </trkpt>
      <trkpt lat="45.43712" lon="7.01207">
        <ele>2549</ele>
        <time>2018-02-20T21:37:15Z</time>
      </trkpt>
      <trkpt lat="45.43722" lon="7.01186">
        <ele>2547</ele>
        <time>2018-02-20T21:38:15Z</time>
      </trkpt>
      <trkpt lat="45.43743" lon="7.01163">
        <ele>2540</ele>
        <time>2018-02-20T21:39:15Z</time>
      </trkpt>
      <trkpt lat="45.43762" lon="7.01108">
        <ele>2541</ele>
        <time>2018-02-20T21:40:15Z</time>
      </trkpt>
      <trkpt lat="45.4379" lon="7.01044">
        <ele>2535</ele>
        <time>2018-02-20T21:41:15Z</time>
      </trkpt>
      <trkpt lat="45.43805" lon="7.01029">
        <ele>2530</ele>
        <time>2018-02-20T21:42:15Z</time>
      </trkpt>
      <trkpt lat="45.43819" lon="7.01032">
        <ele>2526</ele>
        <time>2018-02-20T21:43:15Z</time>
      </trkpt>
      <trkpt lat="45.4384" lon="7.01047">
        <ele>2522</ele>
        <time>2018-02-20T21:44:15Z</time>
      </trkpt>
      <trkpt lat="45.43858" lon="7.01046">
        <ele>2520</ele>
        <time>2018-02-20T21:45:15Z</time>
      </trkpt>
      <trkpt lat="45.43858" lon="7.01019">
        <ele>2517</ele>
        <time>2018-02-20T21:46:15Z</time>
      </trkpt>
      <trkpt lat="45.43843" lon="7.00983">
        <ele>2513</ele>
        <time>2018-02-20T21:47:15Z</time>
      </trkpt>
      <trkpt lat="45.43827" lon="7.00956">
        <ele>2509</ele>
        <time>2018-02-20T21:48:15Z</time>
      </trkpt>
      <trkpt lat="45.43794" lon="7.00913">
        <ele>2508</ele>
        <time>2018-02-20T21:49:15Z</time>
      </trkpt>
      <trkpt lat="45.43712" lon="7.0084">
        <ele>2519</ele>
        <time>2018-02-20T21:50:15Z</time>
      </trkpt>
      <trkpt lat="45.43674" lon="7.00773">
        <ele>2510</ele>
        <time>2018-02-20T21:51:15Z</time>
      </trkpt>
      <trkpt lat="45.43609" lon="7.00676">
        <ele>2497</ele>
        <time>2018-02-20T21:52:15Z</time>
      </trkpt>
      <trkpt lat="45.43569" lon="7.00656">
        <ele>2497</ele>
        <time>2018-02-20T21:53:15Z</time>
      </trkpt>
      <trkpt lat="45.43533" lon="7.00618">
        <ele>2487</ele>
        <time>2018-02-20T21:54:15Z</time>
      </trkpt>
      <trkpt lat="45.43502" lon="7.00619">
        <ele>2490</ele>
        <time>2018-02-20T21:55:15Z</time>
      </trkpt>
      <trkpt lat="45.43483" lon="7.00632">
        <ele>2495</ele>
        <time>2018-02-20T21:56:15Z</time>
      </trkpt>
      <trkpt lat="45.43421" lon="7.00616">
        <ele>2491</ele>
        <time>2018-02-20T21:57:15Z</time>
      </trkpt>
      <trkpt lat="45.43419" lon="7.00607">
        <ele>2488</ele>
        <time>2018-02-20T21:58:15Z</time>
      </trkpt>
      <trkpt lat="45.43423" lon="7.00598">
        <ele>2485</ele>
        <time>2018-02-20T21:59:15Z</time>
      </trkpt>
      <trkpt lat="45.43471" lon="7.00601">
        <ele>2485</ele>
        <time>2018-02-20T22:00:15Z</time>
      </trkpt>
      <trkpt lat="45.43516" lon="7.00581">
        <ele>2475</ele>
        <time>2018-02-20T22:01:15Z</time>
      </trkpt>
      <trkpt lat="45.43569" lon="7.00574">
        <ele>2467</ele>
        <time>2018-02-20T22:02:15Z</time>
      </trkpt>
      <trkpt lat="45.43689" lon="7.00637">
        <ele>2462</ele>
        <time>2018-02-20T22:03:15Z</time>
      </trkpt>
      <trkpt lat="45.43708" lon="7.00653">
        <ele>2461</ele>
        <time>2018-02-20T22:04:15Z</time>
      </trkpt>
      <trkpt lat="45.43718" lon="7.00649">
        <ele>2456</ele>
        <time>2018-02-20T22:05:15Z</time>
      </trkpt>
      <trkpt lat="45.43719" lon="7.00639">
        <ele>2452</ele>
        <time>2018-02-20T22:06:15Z</time>
      </trkpt>
      <trkpt lat="45.43716" lon="7.00631">
        <ele>2450</ele>
        <time>2018-02-20T22:07:15Z</time>
      </trkpt>
      <trkpt lat="45.43636" lon="7.00575">
        <ele>2455</ele>
        <time>2018-02-20T22:08:15Z</time>
      </trkpt>
      <trkpt lat="45.43606" lon="7.00551">
        <ele>2452</ele>
        <time>2018-02-20T22:09:15Z</time>
      </trkpt>
      <trkpt lat="45.43571" lon="7.00517">
        <ele>2447</ele>
        <time>2018-02-20T22:10:15Z</time>
      </trkpt>
      <trkpt lat="45.43505" lon="7.00506">
        <ele>2450</ele>
        <time>2018-02-20T22:11:15Z</time>
      </trkpt>
      <trkpt lat="45.43453" lon="7.00484">
        <ele>2447</ele>
        <time>2018-02-20T22:12:15Z</time>
      </trkpt>
      <trkpt lat="45.43414" lon="7.00441">
        <ele>2441</ele>
        <time>2018-02-20T22:13:15Z</time>
      </trkpt>
      <trkpt lat="45.43366" lon="7.00365">
        <ele>2430</ele>
        <time>2018-02-20T22:14:15Z</time>
      </trkpt>
      <trkpt lat="45.4336" lon="7.00348">
        <ele>2427</ele>
        <time>2018-02-20T22:15:15Z</time>
      </trkpt>
      <trkpt lat="45.4336" lon="7.00333">
        <ele>2424</ele>
        <time>2018-02-20T22:16:15Z</time>
      </trkpt>
      <trkpt lat="45.43352" lon="7.0033">
        <ele>2423</ele>
        <time>2018-02-20T22:17:15Z</time>
      </trkpt>
      <trkpt lat="45.43286" lon="7.00336">
        <ele>2429</ele>
        <time>2018-02-20T22:18:15Z</time>
      </trkpt>
      <trkpt lat="45.43216" lon="7.00292">
        <ele>2423</ele>
        <time>2018-02-20T22:19:15Z</time>
      </trkpt>
      <trkpt lat="45.43156" lon="7.00292">
        <ele>2428</ele>
        <time>2018-02-20T22:20:15Z</time>
      </trkpt>
      <trkpt lat="45.43141" lon="7.00282">
        <ele>2432</ele>
        <time>2018-02-20T22:21:15Z</time>
      </trkpt>
      <trkpt lat="45.43126" lon="7.00269">
        <ele>2435</ele>
        <time>2018-02-20T22:22:15Z</time>
      </trkpt>
      <trkpt lat="45.43119" lon="7.00245">
        <ele>2433</ele>
        <time>2018-02-20T22:23:15Z</time>
      </trkpt>
      <trkpt lat="45.43116" lon="7.00213">
        <ele>2432</ele>
        <time>2018-02-20T22:24:15Z</time>
      </trkpt>
      <trkpt lat="45.43118" lon="7.0019">
        <ele>2429</ele>
        <time>2018-02-20T22:25:15Z</time>
      </trkpt>
      <trkpt lat="45.4315" lon="7.0017">
        <ele>2417</ele>
        <time>2018-02-20T22:26:15Z</time>
      </trkpt>
      <trkpt lat="45.43175" lon="7.00169">
        <ele>2410</ele>
        <time>2018-02-20T22:27:15Z</time>
      </trkpt>
      <trkpt lat="45.43199" lon="7.0018">
        <ele>2407</ele>
        <time>2018-02-20T22:28:15Z</time>
      </trkpt>
      <trkpt lat="45.43222" lon="7.00208">
        <ele>2408</ele>
        <time>2018-02-20T22:29:15Z</time>
      </trkpt>
      <trkpt lat="45.433" lon="7.00229">
        <ele>2401</ele>
        <time>2018-02-20T22:30:15Z</time>
      </trkpt>
      <trkpt lat="45.43352" lon="7.00259">
        <ele>2404</ele>
        <time>2018-02-20T22:31:15Z</time>
      </trkpt>
      <trkpt lat="45.4337" lon="7.00257">
        <ele>2402</ele>
        <time>2018-02-20T22:32:15Z</time>
      </trkpt>
      <trkpt lat="45.43407" lon="7.00202">
        <ele>2385</ele>
        <time>2018-02-20T22:33:15Z</time>
      </trkpt>
      <trkpt lat="45.4345" lon="7.0022">
        <ele>2384</ele>
        <time>2018-02-20T22:34:15Z</time>
      </trkpt>
      <trkpt lat="45.43523" lon="7.00229">
        <ele>2371</ele>
        <time>2018-02-20T22:35:15Z</time>
      </trkpt>
      <trkpt lat="45.43618" lon="7.00292">
        <ele>2361</ele>
        <time>2018-02-20T22:36:15Z</time>
      </trkpt>
      <trkpt lat="45.43643" lon="7.00338">
        <ele>2363</ele>
        <time>2018-02-20T22:37:15Z</time>
      </trkpt>
      <trkpt lat="45.437" lon="7.00408">
        <ele>2363</ele>
        <time>2018-02-20T22:38:15Z</time>
      </trkpt>
      <trkpt lat="45.43725" lon="7.00427">
        <ele>2360</ele>
        <time>2018-02-20T22:39:15Z</time>
      </trkpt>
      <trkpt lat="45.43751" lon="7.0043">
        <ele>2350</ele>
        <time>2018-02-20T22:40:15Z</time>
      </trkpt>
      <trkpt lat="45.43822" lon="7.00482">
        <ele>2346</ele>
        <time>2018-02-20T22:41:15Z</time>
      </trkpt>
      <trkpt lat="45.439" lon="7.00526">
        <ele>2341</ele>
        <time>2018-02-20T22:42:15Z</time>
      </trkpt>
      <trkpt lat="45.43946" lon="7.00579">
        <ele>2346</ele>
        <time>2018-02-20T22:43:15Z</time>
      </trkpt>
      <trkpt lat="45.44007" lon="7.00625">
        <ele>2333</ele>
        <time>2018-02-20T22:44:15Z</time>
      </trkpt>
      <trkpt lat="45.44037" lon="7.00664">
        <ele>2332</ele>
        <time>2018-02-20T22:45:15Z</time>
      </trkpt>
      <trkpt lat="45.44093" lon="7.00767">
        <ele>2327</ele>
        <time>2018-02-20T22:46:15Z</time>
      </trkpt>
      <trkpt lat="45.44132" lon="7.00858">
        <ele>2324</ele>
        <time>2018-02-20T22:47:15Z</time>
      </trkpt>
      <trkpt lat="45.44138" lon="7.00889">
        <ele>2326</ele>
        <time>2018-02-20T22:48:15Z</time>
      </trkpt>
      <trkpt lat="45.44146" lon="7.00955">
        <ele>2328</ele>
        <time>2018-02-20T22:49:15Z</time>
      </trkpt>
      <trkpt lat="45.44158" lon="7.01014">
        <ele>2324</ele>
        <time>2018-02-20T22:50:15Z</time>
      </trkpt>
      <trkpt lat="45.44191" lon="7.01134">
        <ele>2327</ele>
        <time>2018-02-20T22:51:15Z</time>
      </trkpt>
      <trkpt lat="45.44196" lon="7.01167">
        <ele>2329</ele>
        <time>2018-02-20T22:52:15Z</time>
      </trkpt>
      <trkpt lat="45.44193" lon="7.01214">
        <ele>2330</ele>
        <time>2018-02-20T22:53:15Z</time>
      </trkpt>
      <trkpt lat="45.44193" lon="7.01238">
        <ele>2329</ele>
        <time>2018-02-20T22:54:15Z</time>
      </trkpt>
      <trkpt lat="45.44211" lon="7.01351">
        <ele>2313</ele>
        <time>2018-02-20T22:55:15Z</time>
      </trkpt>
      <trkpt lat="45.44211" lon="7.01376">
        <ele>2309</ele>
        <time>2018-02-20T22:56:15Z</time>
      </trkpt>
      <trkpt lat="45.44197" lon="7.01461">
        <ele>2306</ele>
        <time>2018-02-20T22:57:15Z</time>
      </trkpt>
      <trkpt lat="45.44183" lon="7.01517">
        <ele>2311</ele>
        <time>2018-02-20T22:58:15Z</time>
      </trkpt>
      <trkpt lat="45.44179" lon="7.0157">
        <ele>2312</ele>
        <time>2018-02-20T22:59:15Z</time>
      </trkpt>
      <trkpt lat="45.44177" lon="7.01614">
        <ele>2312</ele>
        <time>2018-02-20T23:00:15Z</time>
      </trkpt>
      <trkpt lat="45.44178" lon="7.01648">
        <ele>2312</ele>
        <time>2018-02-20T23:01:15Z</time>
      </trkpt>
      <trkpt lat="45.44187" lon="7.01667">
        <ele>2310</ele>
        <time>2018-02-20T23:02:15Z</time>
      </trkpt>
      <trkpt lat="45.44197" lon="7.01675">
        <ele>2309</ele>
        <time>2018-02-20T23:03:15Z</time>
      </trkpt>
      <trkpt lat="45.44249" lon="7.01676">
        <ele>2299</ele>
        <time>2018-02-20T23:04:15Z</time>
      </trkpt>
      <trkpt lat="45.44283" lon="7.01711">
        <ele>2292</ele>
        <time>2018-02-20T23:05:15Z</time>
      </trkpt>
      <trkpt lat="45.44293" lon="7.01749">
        <ele>2296</ele>
        <time>2018-02-20T23:06:15Z</time>
      </trkpt>
      <trkpt lat="45.44292" lon="7.01767">
        <ele>2298</ele>
        <time>2018-02-20T23:07:15Z</time>
      </trkpt>
      <trkpt lat="45.44274" lon="7.01832">
        <ele>2310</ele>
        <time>2018-02-20T23:08:15Z</time>
      </trkpt>
      <trkpt lat="45.44276" lon="7.01849">
        <ele>2310</ele>
        <time>2018-02-20T23:09:15Z</time>
      </trkpt>
      <trkpt lat="45.44304" lon="7.01885">
        <ele>2300</ele>
        <time>2018-02-20T23:10:15Z</time>
      </trkpt>
      <trkpt lat="45.44375" lon="7.01942">
        <ele>2285</ele>
        <time>2018-02-20T23:11:15Z</time>
      </trkpt>
      <trkpt lat="45.44402" lon="7.01977">
        <ele>2284</ele>
        <time>2018-02-20T23:12:15Z</time>
      </trkpt>
      <trkpt lat="45.4448" lon="7.02104">
        <ele>2275</ele>
        <time>2018-02-20T23:13:15Z</time>
      </trkpt>
      <trkpt lat="45.44514" lon="7.02174">
        <ele>2271</ele>
        <time>2018-02-20T23:14:15Z</time>
      </trkpt>
      <trkpt lat="45.4452" lon="7.02196">
        <ele>2272</ele>
        <time>2018-02-20T23:15:15Z</time>
      </trkpt>
      <trkpt lat="45.44542" lon="7.02231">
        <ele>2269</ele>
        <time>2018-02-20T23:16:15Z</time>
      </trkpt>
      <trkpt lat="45.44626" lon="7.0232">
        <ele>2256</ele>
        <time>2018-02-20T23:17:15Z</time>
      </trkpt>
      <trkpt lat="45.44667" lon="7.02417">
        <ele>2255</ele>
        <time>2018-02-20T23:18:15Z</time>
      </trkpt>
      <trkpt lat="45.44678" lon="7.02419">
        <ele>2249</ele>
        <time>2018-02-20T23:19:15Z</time>
      </trkpt>
      <trkpt lat="45.44681" lon="7.0241">
        <ele>2246</ele>
        <time>2018-02-20T23:20:15Z</time>
      </trkpt>
      <trkpt lat="45.4468" lon="7.02401">
        <ele>2245</ele>
        <time>2018-02-20T23:21:15Z</time>
      </trkpt>
      <trkpt lat="45.44643" lon="7.02298">
        <ele>2242</ele>
        <time>2018-02-20T23:22:15Z</time>
      </trkpt>
      <trkpt lat="45.44578" lon="7.02184">
        <ele>2243</ele>
        <time>2018-02-20T23:23:15Z</time>
      </trkpt>
      <trkpt lat="45.44558" lon="7.02087">
        <ele>2233</ele>
        <time>2018-02-20T23:24:15Z</time>
      </trkpt>
      <trkpt lat="45.44522" lon="7.01981">
        <ele>2232</ele>
        <time>2018-02-20T23:25:15Z</time>
      </trkpt>
      <trkpt lat="45.44498" lon="7.01898">
        <ele>2226</ele>
        <time>2018-02-20T23:26:15Z</time>
      </trkpt>
      <trkpt lat="45.4448" lon="7.01862">
        <ele>2224</ele>
        <time>2018-02-20T23:27:15Z</time>
      </trkpt>
      <trkpt lat="45.44493" lon="7.01848">
        <ele>2217</ele>
        <time>2018-02-20T23:28:15Z</time>
      </trkpt>
      <trkpt lat="45.44502" lon="7.01856">
        <ele>2215</ele>
        <time>2018-02-20T23:29:15Z</time>
      </trkpt>
      <trkpt lat="45.44512" lon="7.01876">
        <ele>2215</ele>
        <time>2018-02-20T23:30:15Z</time>
      </trkpt>
      <trkpt lat="45.44534" lon="7.01947">
        <ele>2219</ele>
        <time>2018-02-20T23:31:15Z</time>
      </trkpt>
      <trkpt lat="45.44578" lon="7.02029">
        <ele>2214</ele>
        <time>2018-02-20T23:32:15Z</time>
      </trkpt>
      <trkpt lat="45.44698" lon="7.02208">
        <ele>2198</ele>
        <time>2018-02-20T23:33:15Z</time>
      </trkpt>
      <trkpt lat="45.44784" lon="7.02381">
        <ele>2183</ele>
        <time>2018-02-20T23:34:15Z</time>
      </trkpt>
      <trkpt lat="45.44795" lon="7.02422">
        <ele>2184</ele>
        <time>2018-02-20T23:35:15Z</time>
      </trkpt>
      <trkpt lat="45.44828" lon="7.02482">
        <ele>2178</ele>
        <time>2018-02-20T23:36:15Z</time>
      </trkpt>
      <trkpt lat="45.44842" lon="7.02519">
        <ele>2177</ele>
        <time>2018-02-20T23:37:15Z</time>
      </trkpt>
      <trkpt lat="45.44875" lon="7.02622">
        <ele>2169</ele>
        <time>2018-02-20T23:38:15Z</time>
      </trkpt>
      <trkpt lat="45.44913" lon="7.02769">
        <ele>2160</ele>
        <time>2018-02-20T23:39:15Z</time>
      </trkpt>
      <trkpt lat="45.44951" lon="7.0286">
        <ele>2152</ele>
        <time>2018-02-20T23:40:15Z</time>
      </trkpt>
      <trkpt lat="45.44974" lon="7.02939">
        <ele>2152</ele>
        <time>2018-02-20T23:41:15Z</time>
      </trkpt>
      <trkpt lat="45.45009" lon="7.03031">
        <ele>2151</ele>
        <time>2018-02-20T23:42:15Z</time>
      </trkpt>
      <trkpt lat="45.45041" lon="7.03074">
        <ele>2138</ele>
        <time>2018-02-20T23:43:15Z</time>
      </trkpt>
      <trkpt lat="45.45069" lon="7.0316">
        <ele>2141</ele>
        <time>2018-02-20T23:44:15Z</time>
      </trkpt>
      <trkpt lat="45.45103" lon="7.03233">
        <ele>2134</ele>
        <time>2018-02-20T23:45:15Z</time>
      </trkpt>
      <trkpt lat="45.45155" lon="7.03399">
        <ele>2128</ele>
        <time>2018-02-20T23:46:15Z</time>
      </trkpt>
      <trkpt lat="45.45206" lon="7.03476">
        <ele>2112</ele>
        <time>2018-02-20T23:47:15Z</time>
      </trkpt>
      <trkpt lat="45.45239" lon="7.03571">
        <ele>2109</ele>
        <time>2018-02-20T23:48:15Z</time>
      </trkpt>
      <trkpt lat="45.45316" lon="7.03742">
        <ele>2104</ele>
        <time>2018-02-20T23:49:15Z</time>
      </trkpt>
      <trkpt lat="45.45353" lon="7.03846">
        <ele>2093</ele>
        <time>2018-02-20T23:50:15Z</time>
      </trkpt>
      <trkpt lat="45.45375" lon="7.03969">
        <ele>2098</ele>
        <time>2018-02-20T23:51:15Z</time>
      </trkpt>
      <trkpt lat="45.45382" lon="7.03979">
        <ele>2097</ele>
        <time>2018-02-20T23:52:15Z</time>
      </trkpt>
      <trkpt lat="45.45391" lon="7.03981">
        <ele>2094</ele>
        <time>2018-02-20T23:53:15Z</time>
      </trkpt>
      <trkpt lat="45.45397" lon="7.0397">
        <ele>2091</ele>
        <time>2018-02-20T23:54:15Z</time>
      </trkpt>
      <trkpt lat="45.45397" lon="7.0396">
        <ele>2089</ele>
        <time>2018-02-20T23:55:15Z</time>
      </trkpt>
      <trkpt lat="45.45385" lon="7.03942">
        <ele>2091</ele>
        <time>2018-02-20T23:56:15Z</time>
      </trkpt>
      <trkpt lat="45.45379" lon="7.03922">
        <ele>2091</ele>
        <time>2018-02-20T23:57:15Z</time>
      </trkpt>
      <trkpt lat="45.45383" lon="7.03831">
        <ele>2080</ele>
        <time>2018-02-20T23:58:15Z</time>
      </trkpt>
      <trkpt lat="45.45377" lon="7.03771">
        <ele>2078</ele>
        <time>2018-02-20T23:59:15Z</time>
      </trkpt>
      <trkpt lat="45.45339" lon="7.03573">
        <ele>2069</ele>
        <time>2018-02-21T00:00:15Z</time>
      </trkpt>
      <trkpt lat="45.45327" lon="7.03545">
        <ele>2069</ele>
        <time>2018-02-21T00:01:15Z</time>
      </trkpt>
      <trkpt lat="45.45322" lon="7.03531">
        <ele>2069</ele>
        <time>2018-02-21T00:02:15Z</time>
      </trkpt>
      <trkpt lat="45.45325" lon="7.0352">
        <ele>2067</ele>
        <time>2018-02-21T00:03:15Z</time>
      </trkpt>
      <trkpt lat="45.45333" lon="7.03512">
        <ele>2063</ele>
        <time>2018-02-21T00:04:15Z</time>
      </trkpt>
      <trkpt lat="45.4534" lon="7.03516">
        <ele>2062</ele>
        <time>2018-02-21T00:05:15Z</time>
      </trkpt>
      <trkpt lat="45.45346" lon="7.03527">
        <ele>2062</ele>
        <time>2018-02-21T00:06:15Z</time>
      </trkpt>
      <trkpt lat="45.45348" lon="7.03561">
        <ele>2065</ele>
        <time>2018-02-21T00:07:15Z</time>
      </trkpt>
      <trkpt lat="45.45359" lon="7.03586">
        <ele>2066</ele>
        <time>2018-02-21T00:08:15Z</time>
      </trkpt>
      <trkpt lat="45.45394" lon="7.03651">
        <ele>2061</ele>
        <time>2018-02-21T00:09:15Z</time>
      </trkpt>
      <trkpt lat="45.45403" lon="7.0366">
        <ele>2059</ele>
        <time>2018-02-21T00:10:15Z</time>
      </trkpt>
      <trkpt lat="45.45414" lon="7.03664">
        <ele>2055</ele>
        <time>2018-02-21T00:11:15Z</time>
      </trkpt>
      <trkpt lat="45.45465" lon="7.03669">
        <ele>2054</ele>
        <time>2018-02-21T00:12:15Z</time>
      </trkpt>
      <trkpt lat="45.45482" lon="7.03658">
        <ele>2053</ele>
        <time>2018-02-21T00:13:15Z</time>
      </trkpt>
      <trkpt lat="45.45491" lon="7.03641">
        <ele>2053</ele>
        <time>2018-02-21T00:14:15Z</time>
      </trkpt>
      <trkpt lat="45.45496" lon="7.03603">
        <ele>2053</ele>
        <time>2018-02-21T00:15:15Z</time>
      </trkpt>
      <trkpt lat="45.45497" lon="7.0349">
        <ele>2051</ele>
        <time>2018-02-21T00:16:15Z</time>
      </trkpt>
      <trkpt lat="45.45487" lon="7.03436">
        <ele>2051</ele>
        <time>2018-02-21T00:17:15Z</time>
      </trkpt>
      <trkpt lat="45.45487" lon="7.03418">
        <ele>2051</ele>
        <time>2018-02-21T00:18:15Z</time>
      </trkpt>
      <trkpt lat="45.4548" lon="7.03401">
        <ele>2052</ele>
        <time>2018-02-21T00:19:15Z</time>
      </trkpt>
      <trkpt lat="45.45469" lon="7.03346">
        <ele>2053</ele>
        <time>2018-02-21T00:20:15Z</time>
      </trkpt>
      <trkpt lat="45.4539" lon="7.03189">
        <ele>2045</ele>
        <time>2018-02-21T00:21:15Z</time>
      </trkpt>
      <trkpt lat="45.45386" lon="7.03167">
        <ele>2045</ele>
        <time>2018-02-21T00:22:15Z</time>
      </trkpt>
      <trkpt lat="45.45376" lon="7.03152">
        <ele>2044</ele>
        <time>2018-02-21T00:23:15Z</time>
      </trkpt>
      <trkpt lat="45.45264" lon="7.02866">
        <ele>2032</ele>
        <time>2018-02-21T00:24:15Z</time>
      </trkpt>
      <trkpt lat="45.45258" lon="7.02833">
        <ele>2031</ele>
        <time>2018-02-21T00:25:15Z</time>
      </trkpt>
      <trkpt lat="45.4525" lon="7.02729">
        <ele>2035</ele>
        <time>2018-02-21T00:26:15Z</time>
      </trkpt>
      <trkpt lat="45.45247" lon="7.02706">
        <ele>2035</ele>
        <time>2018-02-21T00:27:15Z</time>
      </trkpt>
      <trkpt lat="45.45148" lon="7.02438">
        <ele>2026</ele>
        <time>2018-02-21T00:28:15Z</time>
      </trkpt>
      <trkpt lat="45.45143" lon="7.0241">
        <ele>2026</ele>
        <time>2018-02-21T00:29:15Z</time>
      </trkpt>
      <trkpt lat="45.45143" lon="7.02374">
        <ele>2023</ele>
        <time>2018-02-21T00:30:15Z</time>
      </trkpt>
      <trkpt lat="45.45152" lon="7.02341">
        <ele>2018</ele>
        <time>2018-02-21T00:31:15Z</time>
      </trkpt>
      <trkpt lat="45.45178" lon="7.02298">
        <ele>2010</ele>
        <time>2018-02-21T00:32:15Z</time>
      </trkpt>
      <trkpt lat="45.45226" lon="7.0228">
        <ele>2014</ele>
        <time>2018-02-21T00:33:15Z</time>
      </trkpt>
      <trkpt lat="45.45253" lon="7.02244">
        <ele>2014</ele>
        <time>2018-02-21T00:34:15Z</time>
      </trkpt>
      <trkpt lat="45.45263" lon="7.02215">
        <ele>2012</ele>
        <time>2018-02-21T00:35:15Z</time>
      </trkpt>
      <trkpt lat="45.45267" lon="7.02193">
        <ele>2010</ele>
        <time>2018-02-21T00:36:15Z</time>
      </trkpt>
      <trkpt lat="45.45266" lon="7.0217">
        <ele>2007</ele>
        <time>2018-02-21T00:37:15Z</time>
      </trkpt>
      <trkpt lat="45.45261" lon="7.02152">
        <ele>2004</ele>
        <time>2018-02-21T00:38:15Z</time>
      </trkpt>
      <trkpt lat="45.45259" lon="7.02129">
        <ele>2002</ele>
        <time>2018-02-21T00:39:15Z</time>
      </trkpt>
      <trkpt lat="45.45271" lon="7.02084">
        <ele>2002</ele>
        <time>2018-02-21T00:40:15Z</time>
      </trkpt>
      <trkpt lat="45.453" lon="7.01998">
        <ele>2001</ele>
        <time>2018-02-21T00:41:15Z</time>
      </trkpt>
      <trkpt lat="45.45302" lon="7.01979">
        <ele>2001</ele>
        <time>2018-02-21T00:42:15Z</time>
      </trkpt>
      <trkpt lat="45.45299" lon="7.01951">
        <ele>2000</ele>
        <time>2018-02-21T00:43:15Z</time>
      </trkpt>
      <trkpt lat="45.4527" lon="7.01773">
        <ele>1988</ele>
        <time>2018-02-21T00:44:15Z</time>
      </trkpt>
      <trkpt lat="45.45258" lon="7.01726">
        <ele>1984</ele>
        <time>2018-02-21T00:45:15Z</time>
      </trkpt>
      <trkpt lat="45.45111" lon="7.01336">
        <ele>1959</ele>
        <time>2018-02-21T00:46:15Z</time>
      </trkpt>
      <trkpt lat="45.45083" lon="7.01259">
        <ele>1952</ele>
        <time>2018-02-21T00:47:15Z</time>
      </trkpt>
      <trkpt lat="45.45067" lon="7.01181">
        <ele>1948</ele>
        <time>2018-02-21T00:48:15Z</time>
      </trkpt>
      <trkpt lat="45.45057" lon="7.01156">
        <ele>1946</ele>
        <time>2018-02-21T00:49:15Z</time>
      </trkpt>
      <trkpt lat="45.45055" lon="7.01147">
        <ele>1945</ele>
        <time>2018-02-21T00:50:15Z</time>
      </trkpt>
      <trkpt lat="45.45055" lon="7.01129">
        <ele>1945</ele>
        <time>2018-02-21T00:51:15Z</time>
      </trkpt>
      <trkpt lat="45.45049" lon="7.01109">
        <ele>1944</ele>
        <time>2018-02-21T00:52:15Z</time>
      </trkpt>
      <trkpt lat="45.45039" lon="7.01084">
        <ele>1942</ele>
        <time>2018-02-21T00:53:15Z</time>
      </trkpt>
      <trkpt lat="45.45029" lon="7.01064">
        <ele>1941</ele>
        <time>2018-02-21T00:54:15Z</time>
      </trkpt>
      <trkpt lat="45.45014" lon="7.01039">
        <ele>1940</ele>
        <time>2018-02-21T00:55:15Z</time>
      </trkpt>
      <trkpt lat="45.44986" lon="7.00998">
        <ele>1937</ele>
        <time>2018-02-21T00:56:15Z</time>
      </trkpt>
      <trkpt lat="45.44979" lon="7.00983">
        <ele>1937</ele>
        <time>2018-02-21T00:57:15Z</time>
      </trkpt>
      <trkpt lat="45.44963" lon="7.00959">
        <ele>1935</ele>
        <time>2018-02-21T00:58:15Z</time>
      </trkpt>
      <trkpt lat="45.44936" lon="7.00901">
        <ele>1930</ele>
        <time>2018-02-21T00:59:15Z</time>
      </trkpt>
      <trkpt lat="45.44855" lon="7.00715">
        <ele>1918</ele>
        <time>2018-02-21T01:00:15Z</time>
      </trkpt>
      <trkpt lat="45.44839" lon="7.00674">
        <ele>1913</ele>
        <time>2018-02-21T01:01:15Z</time>
      </trkpt>
      <trkpt lat="45.4483" lon="7.00634">
        <ele>1911</ele>
        <time>2018-02-21T01:02:15Z</time>
      </trkpt>
      <trkpt lat="45.44827" lon="7.00586">
        <ele>1910</ele>
        <time>2018-02-21T01:03:15Z</time>
      </trkpt>
      <trkpt lat="45.44818" lon="7.00325">
        <ele>1903</ele>
        <time>2018-02-21T01:04:15Z</time>
      </trkpt>
      <trkpt lat="45.44787" lon="7.00145">
        <ele>1900</ele>
        <time>2018-02-21T01:05:15Z</time>
      </trkpt>
      <trkpt lat="45.44783" lon="7.0005">
        <ele>1895</ele>
        <time>2018-02-21T01:06:15Z</time>
      </trkpt>
      <trkpt lat="45.4475" lon="6.99881">
        <ele>1879</ele>
        <time>2018-02-21T01:07:15Z</time>
      </trkpt>
      <trkpt lat="45.44738" lon="6.9973">
        <ele>1873</ele>
        <time>2018-02-21T01:08:15Z</time>
      </trkpt>
      <trkpt lat="45.44738" lon="6.99601">
        <ele>1869</ele>
        <time>2018-02-21T01:09:15Z</time>
      </trkpt>
      <trkpt lat="45.44738" lon="6.99411">
        <ele>1863</ele>
        <time>2018-02-21T01:10:15Z</time>
      </trkpt>
      <trkpt lat="45.44739" lon="6.99354">
        <ele>1862</ele>
        <time>2018-02-21T01:11:15Z</time>
      </trkpt>
      <trkpt lat="45.44736" lon="6.99306">
        <ele>1861</ele>
        <time>2018-02-21T01:12:15Z</time>
      </trkpt>
      <trkpt lat="45.44715" lon="6.99149">
        <ele>1856</ele>
        <time>2018-02-21T01:13:15Z</time>
      </trkpt>
      <trkpt lat="45.44674" lon="6.98911">
        <ele>1852</ele>
        <time>2018-02-21T01:14:15Z</time>
      </trkpt>
      <trkpt lat="45.44658" lon="6.98814">
        <ele>1853</ele>
        <time>2018-02-21T01:15:15Z</time>
      </trkpt>
      <trkpt lat="45.44664" lon="6.98807">
        <ele>1852</ele>
        <time>2018-02-21T01:16:15Z</time>
      </trkpt>
      <trkpt lat="45.44665" lon="6.98802">
        <ele>1852</ele>
        <time>2018-02-21T01:17:15Z</time>
      </trkpt>
      <trkpt lat="45.44664" lon="6.98795">
        <ele>1852</ele>
        <time>2018-02-21T01:18:15Z</time>
      </trkpt>
      <trkpt lat="45.44657" lon="6.98789">
        <ele>1853</ele>
        <time>2018-02-21T01:19:15Z</time>
      </trkpt>
      <trkpt lat="45.44655" lon="6.98789">
        <ele>1853</ele>
        <time>2018-02-21T01:20:15Z</time>
      </trkpt>
      <trkpt lat="45.44662" lon="6.98686">
        <ele>1851</ele>
        <time>2018-02-21T01:21:15Z</time>
      </trkpt>
      <trkpt lat="45.44671" lon="6.98644">
        <ele>1849</ele>
        <time>2018-02-21T01:22:15Z</time>
      </trkpt>
      <trkpt lat="45.44696" lon="6.98563">
        <ele>1846</ele>
        <time>2018-02-21T01:23:15Z</time>
      </trkpt>
      <trkpt lat="45.44733" lon="6.98453">
        <ele>1843</ele>
        <time>2018-02-21T01:24:15Z</time>
      </trkpt>
      <trkpt lat="45.44777" lon="6.98313">
        <ele>1839</ele>
        <time>2018-02-21T01:25:15Z</time>
      </trkpt>
      <trkpt lat="45.44777" lon="6.98313">
        <ele>1839</ele>
        <time>2018-02-21T01:26:15Z</time>
      </trkpt>
      <trkpt lat="45.44823" lon="6.98168">
        <ele>1838</ele>
        <time>2018-02-21T01:27:15Z</time>
      </trkpt>
      <trkpt lat="45.44862" lon="6.98084">
        <ele>1837</ele>
        <time>2018-02-21T01:28:15Z</time>
      </trkpt>
      <trkpt lat="45.44892" lon="6.98014">
        <ele>1838</ele>
        <time>2018-02-21T01:29:15Z</time>
      </trkpt>
      <trkpt lat="45.44896" lon="6.98015">
        <ele>1838</ele>
        <time>2018-02-21T01:30:15Z</time>
      </trkpt>
      <trkpt lat="45.44901" lon="6.98013">
        <ele>1837</ele>
        <time>2018-02-21T01:31:15Z</time>
      </trkpt>
      <trkpt lat="45.44904" lon="6.98007">
        <ele>1837</ele>
        <time>2018-02-21T01:32:15Z</time>
      </trkpt>
      <trkpt lat="45.44905" lon="6.97997">
        <ele>1837</ele>
        <time>2018-02-21T01:33:15Z</time>
      </trkpt>
      <trkpt lat="45.449" lon="6.97988">
        <ele>1837</ele>
        <time>2018-02-21T01:34:15Z</time>
      </trkpt>
      <trkpt lat="45.45" lon="6.97751">
        <ele>1826</ele>
        <time>2018-02-21T01:35:15Z</time>
      </trkpt>
      <trkpt lat="45.45004" lon="6.97753">
        <ele>1826</ele>
        <time>2018-02-21T01:36:15Z</time>
      </trkpt>
      <trkpt lat="45.4501" lon="6.97753">
        <ele>1826</ele>
        <time>2018-02-21T01:37:15Z</time>
      </trkpt>
      <trkpt lat="45.45016" lon="6.97747">
        <ele>1826</ele>
        <time>2018-02-21T01:38:15Z</time>
      </trkpt>
      <trkpt lat="45.45017" lon="6.97735">
        <ele>1826</ele>
        <time>2018-02-21T01:39:15Z</time>
      </trkpt>
      <trkpt lat="45.45016" lon="6.97729">
        <ele>1826</ele>
        <time>2018-02-21T01:40:15Z</time>
      </trkpt>
      <trkpt lat="45.4503" lon="6.97717">
        <ele>1825</ele>
        <time>2018-02-21T01:41:15Z</time>
      </trkpt>
      <trkpt lat="45.45039" lon="6.97707">
        <ele>1825</ele>
        <time>2018-02-21T01:42:15Z</time>
      </trkpt>
      <trkpt lat="45.45054" lon="6.9768">
        <ele>1824</ele>
        <time>2018-02-21T01:43:15Z</time>
      </trkpt>
      <trkpt lat="45.45108" lon="6.97566">
        <ele>1821</ele>
        <time>2018-02-21T01:44:15Z</time>
      </trkpt>
      <trkpt lat="45.45151" lon="6.9749">
        <ele>1820</ele>
        <time>2018-02-21T01:45:15Z</time>
      </trkpt>
      <trkpt lat="45.4518" lon="6.97458">
        <ele>1821</ele>
        <time>2018-02-21T01:46:15Z</time>
      </trkpt>
      <trkpt lat="45.45214" lon="6.97415">
        <ele>1820</ele>
        <time>2018-02-21T01:47:15Z</time>
      </trkpt>
      <trkpt lat="45.45268" lon="6.97359">
        <ele>1817</ele>
        <time>2018-02-21T01:48:15Z</time>
      </trkpt>
      <trkpt lat="45.45307" lon="6.97307">
        <ele>1815</ele>
        <time>2018-02-21T01:49:15Z</time>
      </trkpt>
      <trkpt lat="45.45351" lon="6.97234">
        <ele>1814</ele>
        <time>2018-02-21T01:50:15Z</time>
      </trkpt>
      <trkpt lat="45.45406" lon="6.97131">
        <ele>1810</ele>
        <time>2018-02-21T01:51:15Z</time>
      </trkpt>
      <trkpt lat="45.45435" lon="6.97084">
        <ele>1810</ele>
        <time>2018-02-21T01:52:15Z</time>
      </trkpt>
      <trkpt lat="45.45464" lon="6.97042">
        <ele>1809</ele>
        <time>2018-02-21T01:53:15Z</time>
      </trkpt>
      <trkpt lat="45.45545" lon="6.9696">
        <ele>1805</ele>
        <time>2018-02-21T01:54:15Z</time>
      </trkpt>
      <trkpt lat="45.45957" lon="6.96636">
        <ele>1800</ele>
        <time>2018-02-21T01:55:15Z</time>
      </trkpt>
      <trkpt lat="45.45963" lon="6.96644">
        <ele>1800</ele>
        <time>2018-02-21T01:56:15Z</time>
      </trkpt>
      <trkpt lat="45.45969" lon="6.96641">
        <ele>1800</ele>
        <time>2018-02-21T01:57:15Z</time>
      </trkpt>
      <trkpt lat="45.45974" lon="6.96633">
        <ele>1800</ele>
        <time>2018-02-21T01:58:15Z</time>
      </trkpt>
      <trkpt lat="45.45984" lon="6.96636">
        <ele>1800</ele>
        <time>2018-02-21T01:59:15Z</time>
      </trkpt>
      <trkpt lat="45.46002" lon="6.96629">
        <ele>1800</ele>
        <time>2018-02-21T02:00:15Z</time>
      </trkpt>
      <trkpt lat="45.46029" lon="6.96613">
        <ele>1801</ele>
        <time>2018-02-21T02:01:15Z</time>
      </trkpt>
      <trkpt lat="45.4607" lon="6.96598">
        <ele>1804</ele>
        <time>2018-02-21T02:02:15Z</time>
      </trkpt>
      <trkpt lat="45.46095" lon="6.96581">
        <ele>1804</ele>
        <time>2018-02-21T02:03:15Z</time>
      </trkpt>
      <trkpt lat="45.46163" lon="6.96527">
        <ele>1804</ele>
        <time>2018-02-21T02:04:15Z</time>
      </trkpt>
      <trkpt lat="45.46199" lon="6.96493">
        <ele>1804</ele>
        <time>2018-02-21T02:05:15Z</time>
      </trkpt>
      <trkpt lat="45.46213" lon="6.96475">
        <ele>1804</ele>
        <time>2018-02-21T02:06:15Z</time>
      </trkpt>
      <trkpt lat="45.4623" lon="6.96463">
        <ele>1803</ele>
        <time>2018-02-21T02:07:15Z</time>
      </trkpt>
      <trkpt lat="45.46227" lon="6.96449">
        <ele>1802</ele>
        <time>2018-02-21T02:08:15Z</time>
      </trkpt>
      <trkpt lat="45.46263" lon="6.9643">
        <ele>1803</ele>
        <time>2018-02-21T02:09:15Z</time>
      </trkpt>
      <trkpt lat="45.46268" lon="6.96439">
        <ele>1805</ele>
        <time>2018-02-21T02:10:15Z</time>
      </trkpt>
      <trkpt lat="45.46273" lon="6.9644">
        <ele>1806</ele>
        <time>2018-02-21T02:11:15Z</time>
      </trkpt>
      <trkpt lat="45.46279" lon="6.96437">
        <ele>1806</ele>
        <time>2018-02-21T02:12:15Z</time>
      </trkpt>
      <trkpt lat="45.46282" lon="6.9643">
        <ele>1806</ele>
        <time>2018-02-21T02:13:15Z</time>
      </trkpt>
      <trkpt lat="45.46282" lon="6.96422">
        <ele>1804</ele>
        <time>2018-02-21T02:14:15Z</time>
      </trkpt>
      <trkpt lat="45.46294" lon="6.96414">
        <ele>1805</ele>
        <time>2018-02-21T02:15:15Z</time>
      </trkpt>
      <trkpt lat="45.46333" lon="6.96374">
        <ele>1807</ele>
        <time>2018-02-21T02:16:15Z</time>
      </trkpt>
      <trkpt lat="45.46367" lon="6.9632">
        <ele>1810</ele>
        <time>2018-02-21T02:17:15Z</time>
      </trkpt>
      <trkpt lat="45.46405" lon="6.96283">
        <ele>1809</ele>
        <time>2018-02-21T02:18:15Z</time>
      </trkpt>
      <trkpt lat="45.4651" lon="6.96195">
        <ele>1807</ele>
        <time>2018-02-21T02:19:15Z</time>
      </trkpt>
      <trkpt lat="45.46563" lon="6.96141">
        <ele>1811</ele>
        <time>2018-02-21T02:20:15Z</time>
      </trkpt>
      <trkpt lat="45.466" lon="6.96089">
        <ele>1811</ele>
        <time>2018-02-21T02:21:15Z</time>
      </trkpt>
      <trkpt lat="45.46653" lon="6.96017">
        <ele>1808</ele>
        <time>2018-02-21T02:22:15Z</time>
      </trkpt>
      <trkpt lat="45.46677" lon="6.95991">
        <ele>1806</ele>
        <time>2018-02-21T02:23:15Z</time>
      </trkpt>
      <trkpt lat="45.46701" lon="6.95969">
        <ele>1809</ele>
        <time>2018-02-21T02:24:15Z</time>
      </trkpt>
      <trkpt lat="45.46716" lon="6.95959">
        <ele>1811</ele>
        <time>2018-02-21T02:25:15Z</time>
      </trkpt>
      <trkpt lat="45.4673" lon="6.95954">
        <ele>1813</ele>
        <time>2018-02-21T02:26:15Z</time>
      </trkpt>
      <trkpt lat="45.46753" lon="6.95955">
        <ele>1819</ele>
        <time>2018-02-21T02:27:15Z</time>
      </trkpt>
      <trkpt lat="45.46776" lon="6.9596">
        <ele>1827</ele>
        <time>2018-02-21T02:28:15Z</time>
      </trkpt>
      <trkpt lat="45.46818" lon="6.95962">
        <ele>1842</ele>
        <time>2018-02-21T02:29:15Z</time>
      </trkpt>
      <trkpt lat="45.46851" lon="6.95955">
        <ele>1855</ele>
        <time>2018-02-21T02:30:15Z</time>
      </trkpt>
      <trkpt lat="45.46881" lon="6.95938">
        <ele>1864</ele>
        <time>2018-02-21T02:31:15Z</time>
      </trkpt>
      <trkpt lat="45.4693" lon="6.95884">
        <ele>1858</ele>
        <time>2018-02-21T02:32:15Z</time>
      </trkpt>
      <trkpt lat="45.47033" lon="6.95744">
        <ele>1841</ele>
        <time>2018-02-21T02:33:15Z</time>
      </trkpt>
      <trkpt lat="45.47159" lon="6.95457">
        <ele>1817</ele>
        <time>2018-02-21T02:34:15Z</time>
      </trkpt>
      <trkpt lat="45.47179" lon="6.95406">
        <ele>1804</ele>
        <time>2018-02-21T02:35:15Z</time>
      </trkpt>
      <trkpt lat="45.47204" lon="6.95352">
        <ele>1802</ele>
        <time>2018-02-21T02:36:15Z</time>
      </trkpt>
      <trkpt lat="45.47243" lon="6.95306">
        <ele>1812</ele>
        <time>2018-02-21T02:37:15Z</time>
      </trkpt>
      <trkpt lat="45.47283" lon="6.95271">
        <ele>1832</ele>
        <time>2018-02-21T02:38:15Z</time>
      </trkpt>
      <trkpt lat="45.47323" lon="6.95215">
        <ele>1856</ele>
        <time>2018-02-21T02:39:15Z</time>
      </trkpt>
      <trkpt lat="45.47355" lon="6.95134">
        <ele>1858</ele>
        <time>2018-02-21T02:40:15Z</time>
      </trkpt>
      <trkpt lat="45.47369" lon="6.95053">
        <ele>1834</ele>
        <time>2018-02-21T02:41:15Z</time>
      </trkpt>
      <trkpt lat="45.47381" lon="6.9497">
        <ele>1805</ele>
        <time>2018-02-21T02:42:15Z</time>
      </trkpt>
      <trkpt lat="45.47392" lon="6.94915">
        <ele>1790</ele>
        <time>2018-02-21T02:43:15Z</time>
      </trkpt>
      <trkpt lat="45.47402" lon="6.94884">
        <ele>1786</ele>
        <time>2018-02-21T02:44:15Z</time>
      </trkpt>
      <trkpt lat="45.47413" lon="6.94867">
        <ele>1785</ele>
        <time>2018-02-21T02:45:15Z</time>
      </trkpt>
      <trkpt lat="45.47425" lon="6.94857">
        <ele>1784</ele>
        <time>2018-02-21T02:46:15Z</time>
      </trkpt>
      <trkpt lat="45.47444" lon="6.94856">
        <ele>1785</ele>
        <time>2018-02-21T02:47:15Z</time>
      </trkpt>
      <trkpt lat="45.47463" lon="6.94861">
        <ele>1788</ele>
        <time>2018-02-21T02:48:15Z</time>
      </trkpt>
      <trkpt lat="45.47485" lon="6.9489">
        <ele>1800</ele>
        <time>2018-02-21T02:49:15Z</time>
      </trkpt>
      <trkpt lat="45.47512" lon="6.94916">
        <ele>1809</ele>
        <time>2018-02-21T02:50:15Z</time>
      </trkpt>
      <trkpt lat="45.47522" lon="6.94918">
        <ele>1809</ele>
        <time>2018-02-21T02:51:15Z</time>
      </trkpt>
      <trkpt lat="45.47584" lon="6.94914">
        <ele>1801</ele>
        <time>2018-02-21T02:52:15Z</time>
      </trkpt>
      <trkpt lat="45.47609" lon="6.94915">
        <ele>1799</ele>
        <time>2018-02-21T02:53:15Z</time>
      </trkpt>
      <trkpt lat="45.47639" lon="6.94924">
        <ele>1798</ele>
        <time>2018-02-21T02:54:15Z</time>
      </trkpt>
      <trkpt lat="45.4765" lon="6.9493">
        <ele>1798</ele>
        <time>2018-02-21T02:55:15Z</time>
      </trkpt>
      <trkpt lat="45.47664" lon="6.94945">
        <ele>1799</ele>
        <time>2018-02-21T02:56:15Z</time>
      </trkpt>
      <trkpt lat="45.47671" lon="6.9496">
        <ele>1800</ele>
        <time>2018-02-21T02:57:15Z</time>
      </trkpt>
      <trkpt lat="45.47685" lon="6.9501">
        <ele>1808</ele>
        <time>2018-02-21T02:58:15Z</time>
      </trkpt>
      <trkpt lat="45.47692" lon="6.95022">
        <ele>1811</ele>
        <time>2018-02-21T02:59:15Z</time>
      </trkpt>
      <trkpt lat="45.47709" lon="6.95037">
        <ele>1814</ele>
        <time>2018-02-21T03:00:15Z</time>
      </trkpt>
      <trkpt lat="45.47722" lon="6.95039">
        <ele>1815</ele>
        <time>2018-02-21T03:01:15Z</time>
      </trkpt>
      <trkpt lat="45.47735" lon="6.95035">
        <ele>1814</ele>
        <time>2018-02-21T03:02:15Z</time>
      </trkpt>
      <trkpt lat="45.47746" lon="6.95027">
        <ele>1811</ele>
        <time>2018-02-21T03:03:15Z</time>
      </trkpt>
      <trkpt lat="45.47793" lon="6.94986">
        <ele>1813</ele>
        <time>2018-02-21T03:04:15Z</time>
      </trkpt>
      <trkpt lat="45.47849" lon="6.94934">
        <ele>1807</ele>
        <time>2018-02-21T03:05:15Z</time>
      </trkpt>
      <trkpt lat="45.47901" lon="6.94872">
        <ele>1806</ele>
        <time>2018-02-21T03:06:15Z</time>
      </trkpt>
      <trkpt lat="45.47951" lon="6.948">
        <ele>1807</ele>
        <time>2018-02-21T03:07:15Z</time>
      </trkpt>
      <trkpt lat="45.48003" lon="6.94692">
        <ele>1800</ele>
        <time>2018-02-21T03:08:15Z</time>
      </trkpt>
      <trkpt lat="45.48037" lon="6.9465">
        <ele>1802</ele>
        <time>2018-02-21T03:09:15Z</time>
      </trkpt>
      <trkpt lat="45.48101" lon="6.9461">
        <ele>1815</ele>
        <time>2018-02-21T03:10:15Z</time>
      </trkpt>
      <trkpt lat="45.48184" lon="6.94566">
        <ele>1814</ele>
        <time>2018-02-21T03:11:15Z</time>
      </trkpt>
      <trkpt lat="45.48249" lon="6.9454">
        <ele>1816</ele>
        <time>2018-02-21T03:12:15Z</time>
      </trkpt>
      <trkpt lat="45.48495" lon="6.94472">
        <ele>1820</ele>
        <time>2018-02-21T03:13:15Z</time>
      </trkpt>
      <trkpt lat="45.48589" lon="6.94412">
        <ele>1815</ele>
        <time>2018-02-21T03:14:15Z</time>
      </trkpt>
      <trkpt lat="45.48727" lon="6.94331">
        <ele>1817</ele>
        <time>2018-02-21T03:15:15Z</time>
      </trkpt>
      <trkpt lat="45.48874" lon="6.94263">
        <ele>1822</ele>
        <time>2018-02-21T03:16:15Z</time>
      </trkpt>
      <trkpt lat="45.49014" lon="6.94182">
        <ele>1825</ele>
        <time>2018-02-21T03:17:15Z</time>
      </trkpt>
      <trkpt lat="45.49144" lon="6.94111">
        <ele>1853</ele>
        <time>2018-02-21T03:18:15Z</time>
      </trkpt>
      <trkpt lat="45.49233" lon="6.9401">
        <ele>1864</ele>
        <time>2018-02-21T03:19:15Z</time>
      </trkpt>
      <trkpt lat="45.49321" lon="6.93846">
        <ele>1830</ele>
        <time>2018-02-21T03:20:15Z</time>
      </trkpt>
      <trkpt lat="45.49389" lon="6.93686">
        <ele>1809</ele>
        <time>2018-02-21T03:21:15Z</time>
      </trkpt>
      <trkpt lat="45.49514" lon="6.93507">
        <ele>1803</ele>
        <time>2018-02-21T03:22:15Z</time>
      </trkpt>
      <trkpt lat="45.4953" lon="6.93466">
        <ele>1788</ele>
        <time>2018-02-21T03:23:15Z</time>
      </trkpt>
      <trkpt lat="45.49543" lon="6.93441">
        <ele>1779</ele>
        <time>2018-02-21T03:24:15Z</time>
      </trkpt>
      <trkpt lat="45.49562" lon="6.9342">
        <ele>1773</ele>
        <time>2018-02-21T03:25:15Z</time>
      </trkpt>
      <trkpt lat="45.49581" lon="6.93406">
        <ele>1769</ele>
        <time>2018-02-21T03:26:15Z</time>
      </trkpt>
      <trkpt lat="45.49672" lon="6.93352">
        <ele>1797</ele>
        <time>2018-02-21T03:27:15Z</time>
      </trkpt>
      <trkpt lat="45.49715" lon="6.93316">
        <ele>1796</ele>
        <time>2018-02-21T03:28:15Z</time>
      </trkpt>
      <trkpt lat="45.49813" lon="6.93231">
        <ele>1790</ele>
        <time>2018-02-21T03:29:15Z</time>
      </trkpt>
      <trkpt lat="45.49852" lon="6.93202">
        <ele>1790</ele>
        <time>2018-02-21T03:30:15Z</time>
      </trkpt>
      <trkpt lat="45.49905" lon="6.93172">
        <ele>1789</ele>
        <time>2018-02-21T03:31:15Z</time>
      </trkpt>
      <trkpt lat="45.50001" lon="6.9311">
        <ele>1779</ele>
        <time>2018-02-21T03:32:15Z</time>
      </trkpt>
      <trkpt lat="45.50043" lon="6.93086">
        <ele>1774</ele>
        <time>2018-02-21T03:33:15Z</time>
      </trkpt>
      <trkpt lat="45.50122" lon="6.93055">
        <ele>1768</ele>
        <time>2018-02-21T03:34:15Z</time>
      </trkpt>
      <trkpt lat="45.50182" lon="6.93022">
        <ele>1753</ele>
        <time>2018-02-21T03:35:15Z</time>
      </trkpt>
      <trkpt lat="45.50204" lon="6.93017">
        <ele>1751</ele>
        <time>2018-02-21T03:36:15Z</time>
      </trkpt>
      <trkpt lat="45.50259" lon="6.9302">
        <ele>1756</ele>
        <time>2018-02-21T03:37:15Z</time>
      </trkpt>
      <trkpt lat="45.50298" lon="6.93016">
        <ele>1756</ele>
        <time>2018-02-21T03:38:15Z</time>
      </trkpt>
      <trkpt lat="45.50325" lon="6.93006">
        <ele>1750</ele>
        <time>2018-02-21T03:39:15Z</time>
      </trkpt>
      <trkpt lat="45.50374" lon="6.92985">
        <ele>1754</ele>
        <time>2018-02-21T03:40:15Z</time>
      </trkpt>
      <trkpt lat="45.50453" lon="6.92919">
        <ele>1749</ele>
        <time>2018-02-21T03:41:15Z</time>
      </trkpt>
      <trkpt lat="45.50526" lon="6.92825">
        <ele>1735</ele>
        <time>2018-02-21T03:42:15Z</time>
      </trkpt>
      <trkpt lat="45.50619" lon="6.9271">
        <ele>1732</ele>
        <time>2018-02-21T03:43:15Z</time>
      </trkpt>
      <trkpt lat="45.50672" lon="6.92656">
        <ele>1729</ele>
        <time>2018-02-21T03:44:15Z</time>
      </trkpt>
      <trkpt lat="45.50684" lon="6.92639">
        <ele>1725</ele>
        <time>2018-02-21T03:45:15Z</time>
      </trkpt>
      <trkpt lat="45.50726" lon="6.92569">
        <ele>1708</ele>
        <time>2018-02-21T03:46:15Z</time>
      </trkpt>
      <trkpt lat="45.50742" lon="6.92545">
        <ele>1701</ele>
        <time>2018-02-21T03:47:15Z</time>
      </trkpt>
      <trkpt lat="45.50756" lon="6.9253">
        <ele>1699</ele>
        <time>2018-02-21T03:48:15Z</time>
      </trkpt>
      <trkpt lat="45.50782" lon="6.92517">
        <ele>1701</ele>
        <time>2018-02-21T03:49:15Z</time>
      </trkpt>
      <trkpt lat="45.50842" lon="6.9249">
        <ele>1705</ele>
        <time>2018-02-21T03:50:15Z</time>
      </trkpt>
      <trkpt lat="45.50879" lon="6.92471">
        <ele>1702</ele>
        <time>2018-02-21T03:51:15Z</time>
      </trkpt>
      <trkpt lat="45.50907" lon="6.92453">
        <ele>1699</ele>
        <time>2018-02-21T03:52:15Z</time>
      </trkpt>
      <trkpt lat="45.50941" lon="6.92422">
        <ele>1694</ele>
        <time>2018-02-21T03:53:15Z</time>
      </trkpt>
      <trkpt lat="45.50969" lon="6.9239">
        <ele>1696</ele>
        <time>2018-02-21T03:54:15Z</time>
      </trkpt>
      <trkpt lat="45.5099" lon="6.9235">
        <ele>1690</ele>
        <time>2018-02-21T03:55:15Z</time>
      </trkpt>
      <trkpt lat="45.5103" lon="6.92244">
        <ele>1672</ele>
        <time>2018-02-21T03:56:15Z</time>
      </trkpt>
      <trkpt lat="45.51054" lon="6.922">
        <ele>1668</ele>
        <time>2018-02-21T03:57:15Z</time>
      </trkpt>
      <trkpt lat="45.51093" lon="6.92137">
        <ele>1661</ele>
        <time>2018-02-21T03:58:15Z</time>
      </trkpt>
      <trkpt lat="45.51144" lon="6.92069">
        <ele>1657</ele>
        <time>2018-02-21T03:59:15Z</time>
      </trkpt>
      <trkpt lat="45.5129" lon="6.91882">
        <ele>1648</ele>
        <time>2018-02-21T04:00:15Z</time>
      </trkpt>
      <trkpt lat="45.51372" lon="6.91769">
        <ele>1640</ele>
        <time>2018-02-21T04:01:15Z</time>
      </trkpt>
      <trkpt lat="45.51404" lon="6.91734">
        <ele>1638</ele>
        <time>2018-02-21T04:02:15Z</time>
      </trkpt>
      <trkpt lat="45.51432" lon="6.91714">
        <ele>1635</ele>
        <time>2018-02-21T04:03:15Z</time>
      </trkpt>
      <trkpt lat="45.51475" lon="6.91688">
        <ele>1628</ele>
        <time>2018-02-21T04:04:15Z</time>
      </trkpt>
      <trkpt lat="45.51515" lon="6.91669">
        <ele>1623</ele>
        <time>2018-02-21T04:05:15Z</time>
      </trkpt>
      <trkpt lat="45.51554" lon="6.91654">
        <ele>1624</ele>
        <time>2018-02-21T04:06:15Z</time>
      </trkpt>
      <trkpt lat="45.51601" lon="6.91641">
        <ele>1623</ele>
        <time>2018-02-21T04:07:15Z</time>
      </trkpt>
      <trkpt lat="45.51652" lon="6.91631">
        <ele>1622</ele>
        <time>2018-02-21T04:08:15Z</time>
      </trkpt>
      <trkpt lat="45.51675" lon="6.9163">
        <ele>1623</ele>
        <time>2018-02-21T04:09:15Z</time>
      </trkpt>
      <trkpt lat="45.51704" lon="6.91624">
        <ele>1618</ele>
        <time>2018-02-21T04:10:15Z</time>
      </trkpt>
      <trkpt lat="45.51733" lon="6.9161">
        <ele>1611</ele>
        <time>2018-02-21T04:11:15Z</time>
      </trkpt>
      <trkpt lat="45.51761" lon="6.91577">
        <ele>1602</ele>
        <time>2018-02-21T04:12:15Z</time>
      </trkpt>
      <trkpt lat="45.51782" lon="6.91555">
        <ele>1601</ele>
        <time>2018-02-21T04:13:15Z</time>
      </trkpt>
      <trkpt lat="45.51803" lon="6.91539">
        <ele>1598</ele>
        <time>2018-02-21T04:14:15Z</time>
      </trkpt>
      <trkpt lat="45.51895" lon="6.91493">
        <ele>1587</ele>
        <time>2018-02-21T04:15:15Z</time>
      </trkpt>
      <trkpt lat="45.51935" lon="6.91469">
        <ele>1584</ele>
        <time>2018-02-21T04:16:15Z</time>
      </trkpt>
      <trkpt lat="45.5198" lon="6.91428">
        <ele>1578</ele>
        <time>2018-02-21T04:17:15Z</time>
      </trkpt>
      <trkpt lat="45.52006" lon="6.91392">
        <ele>1572</ele>
        <time>2018-02-21T04:18:15Z</time>
      </trkpt>
      <trkpt lat="45.52024" lon="6.9136">
        <ele>1567</ele>
        <time>2018-02-21T04:19:15Z</time>
      </trkpt>
      <trkpt lat="45.52047" lon="6.91335">
        <ele>1564</ele>
        <time>2018-02-21T04:20:15Z</time>
      </trkpt>
      <trkpt lat="45.52059" lon="6.9133">
        <ele>1564</ele>
        <time>2018-02-21T04:21:15Z</time>
      </trkpt>
      <trkpt lat="45.52071" lon="6.9133">
        <ele>1566</ele>
        <time>2018-02-21T04:22:15Z</time>
      </trkpt>
      <trkpt lat="45.52089" lon="6.91335">
        <ele>1568</ele>
        <time>2018-02-21T04:23:15Z</time>
      </trkpt>
      <trkpt lat="45.52123" lon="6.91369">
        <ele>1572</ele>
        <time>2018-02-21T04:24:15Z</time>
      </trkpt>
      <trkpt lat="45.52139" lon="6.91383">
        <ele>1575</ele>
        <time>2018-02-21T04:25:15Z</time>
      </trkpt>
      <trkpt lat="45.52158" lon="6.91391">
        <ele>1576</ele>
        <time>2018-02-21T04:26:15Z</time>
      </trkpt>
      <trkpt lat="45.52179" lon="6.91393">
        <ele>1577</ele>
        <time>2018-02-21T04:27:15Z</time>
      </trkpt>
      <trkpt lat="45.52193" lon="6.91391">
        <ele>1577</ele>
        <time>2018-02-21T04:28:15Z</time>
      </trkpt>
      <trkpt lat="45.52288" lon="6.91359">
        <ele>1570</ele>
        <time>2018-02-21T04:29:15Z</time>
      </trkpt>
      <trkpt lat="45.52309" lon="6.91349">
        <ele>1567</ele>
        <time>2018-02-21T04:30:15Z</time>
      </trkpt>
      <trkpt lat="45.52395" lon="6.91291">
        <ele>1560</ele>
        <time>2018-02-21T04:31:15Z</time>
      </trkpt>
      <trkpt lat="45.52418" lon="6.9128">
        <ele>1560</ele>
        <time>2018-02-21T04:32:15Z</time>
      </trkpt>
      <trkpt lat="45.52448" lon="6.91271">
        <ele>1560</ele>
        <time>2018-02-21T04:33:15Z</time>
      </trkpt>
      <trkpt lat="45.52476" lon="6.91265">
        <ele>1561</ele>
        <time>2018-02-21T04:34:15Z</time>
      </trkpt>
      <trkpt lat="45.52498" lon="6.91264">
        <ele>1564</ele>
        <time>2018-02-21T04:35:15Z</time>
      </trkpt>
      <trkpt lat="45.52559" lon="6.91268">
        <ele>1566</ele>
        <time>2018-02-21T04:36:15Z</time>
      </trkpt>
      <trkpt lat="45.52614" lon="6.91274">
        <ele>1565</ele>
        <time>2018-02-21T04:37:15Z</time>
      </trkpt>
      <trkpt lat="45.52647" lon="6.91281">
        <ele>1564</ele>
        <time>2018-02-21T04:38:15Z</time>
      </trkpt>
      <trkpt lat="45.52719" lon="6.91311">
        <ele>1567</ele>
        <time>2018-02-21T04:39:15Z</time>
      </trkpt>
      <trkpt lat="45.52903" lon="6.91368">
        <ele>1538</ele>
        <time>2018-02-21T04:40:15Z</time>
      </trkpt>
      <trkpt lat="45.52931" lon="6.91384">
        <ele>1533</ele>
        <time>2018-02-21T04:41:15Z</time>
      </trkpt>
      <trkpt lat="45.52956" lon="6.91406">
        <ele>1532</ele>
        <time>2018-02-21T04:42:15Z</time>
      </trkpt>
      <trkpt lat="45.5301" lon="6.91463">
        <ele>1538</ele>
        <time>2018-02-21T04:43:15Z</time>
      </trkpt>
      <trkpt lat="45.53031" lon="6.91478">
        <ele>1537</ele>
        <time>2018-02-21T04:44:15Z</time>
      </trkpt>
      <trkpt lat="45.53053" lon="6.91487">
        <ele>1534</ele>
        <time>2018-02-21T04:45:15Z</time>
      </trkpt>
      <trkpt lat="45.53096" lon="6.91512">
        <ele>1531</ele>
        <time>2018-02-21T04:46:15Z</time>
      </trkpt>
      <trkpt lat="45.53109" lon="6.91526">
        <ele>1533</ele>
        <time>2018-02-21T04:47:15Z</time>
      </trkpt>
      <trkpt lat="45.53137" lon="6.9157">
        <ele>1545</ele>
        <time>2018-02-21T04:48:15Z</time>
      </trkpt>
      <trkpt lat="45.53153" lon="6.91587">
        <ele>1548</ele>
        <time>2018-02-21T04:49:15Z</time>
      </trkpt>
      <trkpt lat="45.53165" lon="6.9159">
        <ele>1545</ele>
        <time>2018-02-21T04:50:15Z</time>
      </trkpt>
      <trkpt lat="45.53177" lon="6.91584">
        <ele>1544</ele>
        <time>2018-02-21T04:51:15Z</time>
      </trkpt>
      <trkpt lat="45.53195" lon="6.9154">
        <ele>1524</ele>
        <time>2018-02-21T04:52:15Z</time>
      </trkpt>
      <trkpt lat="45.53203" lon="6.91529">
        <ele>1520</ele>
        <time>2018-02-21T04:53:15Z</time>
      </trkpt>
      <trkpt lat="45.53235" lon="6.91516">
        <ele>1517</ele>
        <time>2018-02-21T04:54:15Z</time>
      </trkpt>
      <trkpt lat="45.53329" lon="6.915">
        <ele>1518</ele>
        <time>2018-02-21T04:55:15Z</time>
      </trkpt>
      <trkpt lat="45.53375" lon="6.91495">
        <ele>1513</ele>
        <time>2018-02-21T04:56:15Z</time>
      </trkpt>
      <trkpt lat="45.534" lon="6.91486">
        <ele>1507</ele>
        <time>2018-02-21T04:57:15Z</time>
      </trkpt>
      <trkpt lat="45.53464" lon="6.91459">
        <ele>1495</ele>
        <time>2018-02-21T04:58:15Z</time>
      </trkpt>
      <trkpt lat="45.53485" lon="6.91456">
        <ele>1495</ele>
        <time>2018-02-21T04:59:15Z</time>
      </trkpt>
      <trkpt lat="45.53504" lon="6.91461">
        <ele>1499</ele>
        <time>2018-02-21T05:00:15Z</time>
      </trkpt>
      <trkpt lat="45.53515" lon="6.91462">
        <ele>1501</ele>
        <time>2018-02-21T05:01:15Z</time>
      </trkpt>
      <trkpt lat="45.53566" lon="6.91432">
        <ele>1492</ele>
        <time>2018-02-21T05:02:15Z</time>
      </trkpt>
      <trkpt lat="45.53581" lon="6.91429">
        <ele>1491</ele>
        <time>2018-02-21T05:03:15Z</time>
      </trkpt>
      <trkpt lat="45.53617" lon="6.91439">
        <ele>1499</ele>
        <time>2018-02-21T05:04:15Z</time>
      </trkpt>
      <trkpt lat="45.53629" lon="6.91438">
        <ele>1499</ele>
        <time>2018-02-21T05:05:15Z</time>
      </trkpt>
      <trkpt lat="45.5364" lon="6.91434">
        <ele>1497</ele>
        <time>2018-02-21T05:06:15Z</time>
      </trkpt>
      <trkpt lat="45.53648" lon="6.91424">
        <ele>1493</ele>
        <time>2018-02-21T05:07:15Z</time>
      </trkpt>
      <trkpt lat="45.53656" lon="6.91412">
        <ele>1489</ele>
        <time>2018-02-21T05:08:15Z</time>
      </trkpt>
      <trkpt lat="45.5368" lon="6.91323">
        <ele>1477</ele>
        <time>2018-02-21T05:09:15Z</time>
      </trkpt>
      <trkpt lat="45.53689" lon="6.913">
        <ele>1473</ele>
        <time>2018-02-21T05:10:15Z</time>
      </trkpt>
      <trkpt lat="45.53704" lon="6.91278">
        <ele>1473</ele>
        <time>2018-02-21T05:11:15Z</time>
      </trkpt>
      <trkpt lat="45.5378" lon="6.91185">
        <ele>1471</ele>
        <time>2018-02-21T05:12:15Z</time>
      </trkpt>
      <trkpt lat="45.53803" lon="6.91167">
        <ele>1472</ele>
        <time>2018-02-21T05:13:15Z</time>
      </trkpt>
      <trkpt lat="45.5384" lon="6.91148">
        <ele>1470</ele>
        <time>2018-02-21T05:14:15Z</time>
      </trkpt>
      <trkpt lat="45.53863" lon="6.91142">
        <ele>1469</ele>
        <time>2018-02-21T05:15:15Z</time>
      </trkpt>
      <trkpt lat="45.53903" lon="6.91149">
        <ele>1479</ele>
        <time>2018-02-21T05:16:15Z</time>
      </trkpt>
      <trkpt lat="45.5392" lon="6.91148">
        <ele>1481</ele>
        <time>2018-02-21T05:17:15Z</time>
      </trkpt>
      <trkpt lat="45.53949" lon="6.91125">
        <ele>1470</ele>
        <time>2018-02-21T05:18:15Z</time>
      </trkpt>
      <trkpt lat="45.53988" lon="6.91101">
        <ele>1462</ele>
        <time>2018-02-21T05:19:15Z</time>
      </trkpt>
      <trkpt lat="45.54006" lon="6.91088">
        <ele>1456</ele>
        <time>2018-02-21T05:20:15Z</time>
      </trkpt>
      <trkpt lat="45.54028" lon="6.91082">
        <ele>1453</ele>
        <time>2018-02-21T05:21:15Z</time>
      </trkpt>
      <trkpt lat="45.54047" lon="6.91088">
        <ele>1457</ele>
        <time>2018-02-21T05:22:15Z</time>
      </trkpt>
      <trkpt lat="45.54067" lon="6.91098">
        <ele>1464</ele>
        <time>2018-02-21T05:23:15Z</time>
      </trkpt>
      <trkpt lat="45.54083" lon="6.91101">
        <ele>1466</ele>
        <time>2018-02-21T05:24:15Z</time>
      </trkpt>
      <trkpt lat="45.54105" lon="6.911">
        <ele>1467</ele>
        <time>2018-02-21T05:25:15Z</time>
      </trkpt>
      <trkpt lat="45.54126" lon="6.91091">
        <ele>1463</ele>
        <time>2018-02-21T05:26:15Z</time>
      </trkpt>
      <trkpt lat="45.54157" lon="6.91073">
        <ele>1457</ele>
        <time>2018-02-21T05:27:15Z</time>
      </trkpt>
      <trkpt lat="45.54177" lon="6.91059">
        <ele>1456</ele>
        <time>2018-02-21T05:28:15Z</time>
      </trkpt>
      <trkpt lat="45.54246" lon="6.90981">
        <ele>1447</ele>
        <time>2018-02-21T05:29:15Z</time>
      </trkpt>
      <trkpt lat="45.54275" lon="6.90953">
        <ele>1444</ele>
        <time>2018-02-21T05:30:15Z</time>
      </trkpt>
      <trkpt lat="45.54319" lon="6.90916">
        <ele>1436</ele>
        <time>2018-02-21T05:31:15Z</time>
      </trkpt>
      <trkpt lat="45.54354" lon="6.9089">
        <ele>1432</ele>
        <time>2018-02-21T05:32:15Z</time>
      </trkpt>
      <trkpt lat="45.54375" lon="6.90878">
        <ele>1432</ele>
        <time>2018-02-21T05:33:15Z</time>
      </trkpt>
      <trkpt lat="45.54435" lon="6.90853">
        <ele>1432</ele>
        <time>2018-02-21T05:34:15Z</time>
      </trkpt>
      <trkpt lat="45.54462" lon="6.90838">
        <ele>1427</ele>
        <time>2018-02-21T05:35:15Z</time>
      </trkpt>
      <trkpt lat="45.54488" lon="6.90819">
        <ele>1423</ele>
        <time>2018-02-21T05:36:15Z</time>
      </trkpt>
      <trkpt lat="45.54531" lon="6.90794">
        <ele>1418</ele>
        <time>2018-02-21T05:37:15Z</time>
      </trkpt>
      <trkpt lat="45.54576" lon="6.90781">
        <ele>1419</ele>
        <time>2018-02-21T05:38:15Z</time>
      </trkpt>
      <trkpt lat="45.54627" lon="6.90759">
        <ele>1419</ele>
        <time>2018-02-21T05:39:15Z</time>
      </trkpt>
      <trkpt lat="45.54699" lon="6.90738">
        <ele>1426</ele>
        <time>2018-02-21T05:40:15Z</time>
      </trkpt>
      <trkpt lat="45.54724" lon="6.90727">
        <ele>1426</ele>
        <time>2018-02-21T05:41:15Z</time>
      </trkpt>
      <trkpt lat="45.54759" lon="6.90705">
        <ele>1423</ele>
        <time>2018-02-21T05:42:15Z</time>
      </trkpt>
      <trkpt lat="45.54843" lon="6.9064">
        <ele>1418</ele>
        <time>2018-02-21T05:43:15Z</time>
      </trkpt>
      <trkpt lat="45.54863" lon="6.90617">
        <ele>1416</ele>
        <time>2018-02-21T05:44:15Z</time>
      </trkpt>
      <trkpt lat="45.54976" lon="6.90425">
        <ele>1400</ele>
        <time>2018-02-21T05:45:15Z</time>
      </trkpt>
      <trkpt lat="45.55005" lon="6.90382">
        <ele>1397</ele>
        <time>2018-02-21T05:46:15Z</time>
      </trkpt>
      <trkpt lat="45.55035" lon="6.90346">
        <ele>1397</ele>
        <time>2018-02-21T05:47:15Z</time>
      </trkpt>
      <trkpt lat="45.55065" lon="6.90308">
        <ele>1393</ele>
        <time>2018-02-21T05:48:15Z</time>
      </trkpt>
      <trkpt lat="45.55091" lon="6.90283">
        <ele>1392</ele>
        <time>2018-02-21T05:49:15Z</time>
      </trkpt>
      <trkpt lat="45.55254" lon="6.9016">
        <ele>1376</ele>
        <time>2018-02-21T05:50:15Z</time>
      </trkpt>
      <trkpt lat="45.55269" lon="6.90153">
        <ele>1374</ele>
        <time>2018-02-21T05:51:15Z</time>
      </trkpt>
      <trkpt lat="45.55286" lon="6.90149">
        <ele>1373</ele>
        <time>2018-02-21T05:52:15Z</time>
      </trkpt>
      <trkpt lat="45.55303" lon="6.90151">
        <ele>1375</ele>
        <time>2018-02-21T05:53:15Z</time>
      </trkpt>
      <trkpt lat="45.55334" lon="6.90159">
        <ele>1382</ele>
        <time>2018-02-21T05:54:15Z</time>
      </trkpt>
      <trkpt lat="45.55434" lon="6.90164">
        <ele>1366</ele>
        <time>2018-02-21T05:55:15Z</time>
      </trkpt>
      <trkpt lat="45.55459" lon="6.90158">
        <ele>1369</ele>
        <time>2018-02-21T05:56:15Z</time>
      </trkpt>
      <trkpt lat="45.5553" lon="6.90125">
        <ele>1377</ele>
        <time>2018-02-21T05:57:15Z</time>
      </trkpt>
      <trkpt lat="45.55562" lon="6.90114">
        <ele>1383</ele>
        <time>2018-02-21T05:58:15Z</time>
      </trkpt>
      <trkpt lat="45.55584" lon="6.90099">
        <ele>1378</ele>
        <time>2018-02-21T05:59:15Z</time>
      </trkpt>
      <trkpt lat="45.55604" lon="6.90081">
        <ele>1371</ele>
        <time>2018-02-21T06:00:15Z</time>
      </trkpt>
      <trkpt lat="45.55674" lon="6.89981">
        <ele>1353</ele>
        <time>2018-02-21T06:01:15Z</time>
      </trkpt>
      <trkpt lat="45.5571" lon="6.89937">
        <ele>1354</ele>
        <time>2018-02-21T06:02:15Z</time>
      </trkpt>
      <trkpt lat="45.55725" lon="6.89913">
        <ele>1352</ele>
        <time>2018-02-21T06:03:15Z</time>
      </trkpt>
      <trkpt lat="45.55731" lon="6.89899">
        <ele>1352</ele>
        <time>2018-02-21T06:04:15Z</time>
      </trkpt>
      <trkpt lat="45.5574" lon="6.89884">
        <ele>1352</ele>
        <time>2018-02-21T06:05:15Z</time>
      </trkpt>
      <trkpt lat="45.5578" lon="6.89834">
        <ele>1354</ele>
        <time>2018-02-21T06:06:15Z</time>
      </trkpt>
      <trkpt lat="45.55799" lon="6.89806">
        <ele>1350</ele>
        <time>2018-02-21T06:07:15Z</time>
      </trkpt>
      <trkpt lat="45.55819" lon="6.89758">
        <ele>1341</ele>
        <time>2018-02-21T06:08:15Z</time>
      </trkpt>
      <trkpt lat="45.55827" lon="6.89744">
        <ele>1339</ele>
        <time>2018-02-21T06:09:15Z</time>
      </trkpt>
      <trkpt lat="45.55838" lon="6.89734">
        <ele>1341</ele>
        <time>2018-02-21T06:10:15Z</time>
      </trkpt>
      <trkpt lat="45.55852" lon="6.89723">
        <ele>1344</ele>
        <time>2018-02-21T06:11:15Z</time>
      </trkpt>
      <trkpt lat="45.55866" lon="6.89707">
        <ele>1346</ele>
        <time>2018-02-21T06:12:15Z</time>
      </trkpt>
      <trkpt lat="45.55881" lon="6.89684">
        <ele>1345</ele>
        <time>2018-02-21T06:13:15Z</time>
      </trkpt>
      <trkpt lat="45.55923" lon="6.89614">
        <ele>1342</ele>
        <time>2018-02-21T06:14:15Z</time>
      </trkpt>
      <trkpt lat="45.55958" lon="6.89516">
        <ele>1333</ele>
        <time>2018-02-21T06:15:15Z</time>
      </trkpt>
      <trkpt lat="45.55969" lon="6.89494">
        <ele>1332</ele>
        <time>2018-02-21T06:16:15Z</time>
      </trkpt>
      <trkpt lat="45.55983" lon="6.89478">
        <ele>1333</ele>
        <time>2018-02-21T06:17:15Z</time>
      </trkpt>
      <trkpt lat="45.55995" lon="6.8947">
        <ele>1334</ele>
        <time>2018-02-21T06:18:15Z</time>
      </trkpt>
      <trkpt lat="45.5602" lon="6.89463">
        <ele>1338</ele>
        <time>2018-02-21T06:19:15Z</time>
      </trkpt>
      <trkpt lat="45.56057" lon="6.89458">
        <ele>1345</ele>
        <time>2018-02-21T06:20:15Z</time>
      </trkpt>
      <trkpt lat="45.56087" lon="6.89449">
        <ele>1349</ele>
        <time>2018-02-21T06:21:15Z</time>
      </trkpt>
      <trkpt lat="45.56112" lon="6.89438">
        <ele>1349</ele>
        <time>2018-02-21T06:22:15Z</time>
      </trkpt>
      <trkpt lat="45.56137" lon="6.89422">
        <ele>1345</ele>
        <time>2018-02-21T06:23:15Z</time>
      </trkpt>
      <trkpt lat="45.56252" lon="6.8932">
        <ele>1344</ele>
        <time>2018-02-21T06:24:15Z</time>
      </trkpt>
      <trkpt lat="45.56298" lon="6.89284">
        <ele>1336</ele>
        <time>2018-02-21T06:25:15Z</time>
      </trkpt>
      <trkpt lat="45.56316" lon="6.89277">
        <ele>1335</ele>
        <time>2018-02-21T06:26:15Z</time>
      </trkpt>
      <trkpt lat="45.56364" lon="6.89265">
        <ele>1339</ele>
        <time>2018-02-21T06:27:15Z</time>
      </trkpt>
      <trkpt lat="45.56381" lon="6.89259">
        <ele>1340</ele>
        <time>2018-02-21T06:28:15Z</time>
      </trkpt>
      <trkpt lat="45.56397" lon="6.89247">
        <ele>1337</ele>
        <time>2018-02-21T06:29:15Z</time>
      </trkpt>
      <trkpt lat="45.5647" lon="6.89168">
        <ele>1315</ele>
        <time>2018-02-21T06:30:15Z</time>
      </trkpt>
      <trkpt lat="45.56497" lon="6.89144">
        <ele>1312</ele>
        <time>2018-02-21T06:31:15Z</time>
      </trkpt>
      <trkpt lat="45.56512" lon="6.89131">
        <ele>1309</ele>
        <time>2018-02-21T06:32:15Z</time>
      </trkpt>
      <trkpt lat="45.56546" lon="6.89112">
        <ele>1309</ele>
        <time>2018-02-21T06:33:15Z</time>
      </trkpt>
      <trkpt lat="45.56587" lon="6.89081">
        <ele>1306</ele>
        <time>2018-02-21T06:34:15Z</time>
      </trkpt>
      <trkpt lat="45.56605" lon="6.8906">
        <ele>1300</ele>
        <time>2018-02-21T06:35:15Z</time>
      </trkpt>
      <trkpt lat="45.56651" lon="6.88998">
        <ele>1290</ele>
        <time>2018-02-21T06:36:15Z</time>
      </trkpt>
      <trkpt lat="45.5668" lon="6.88952">
        <ele>1278</ele>
        <time>2018-02-21T06:37:15Z</time>
      </trkpt>
      <trkpt lat="45.56692" lon="6.88941">
        <ele>1275</ele>
        <time>2018-02-21T06:38:15Z</time>
      </trkpt>
      <trkpt lat="45.56699" lon="6.88936">
        <ele>1274</ele>
        <time>2018-02-21T06:39:15Z</time>
      </trkpt>
      <trkpt lat="45.56709" lon="6.88935">
        <ele>1276</ele>
        <time>2018-02-21T06:40:15Z</time>
      </trkpt>
      <trkpt lat="45.56757" lon="6.8894">
        <ele>1289</ele>
        <time>2018-02-21T06:41:15Z</time>
      </trkpt>
      <trkpt lat="45.56769" lon="6.88937">
        <ele>1290</ele>
        <time>2018-02-21T06:42:15Z</time>
      </trkpt>
      <trkpt lat="45.56915" lon="6.88859">
        <ele>1279</ele>
        <time>2018-02-21T06:43:15Z</time>
      </trkpt>
      <trkpt lat="45.56937" lon="6.88841">
        <ele>1276</ele>
        <time>2018-02-21T06:44:15Z</time>
      </trkpt>
      <trkpt lat="45.56956" lon="6.8882">
        <ele>1271</ele>
        <time>2018-02-21T06:45:15Z</time>
      </trkpt>
      <trkpt lat="45.57007" lon="6.88756">
        <ele>1256</ele>
        <time>2018-02-21T06:46:15Z</time>
      </trkpt>
      <trkpt lat="45.57041" lon="6.88717">
        <ele>1254</ele>
        <time>2018-02-21T06:47:15Z</time>
      </trkpt>
      <trkpt lat="45.57081" lon="6.88689">
        <ele>1258</ele>
        <time>2018-02-21T06:48:15Z</time>
      </trkpt>
      <trkpt lat="45.57135" lon="6.88658">
        <ele>1255</ele>
        <time>2018-02-21T06:49:15Z</time>
      </trkpt>
      <trkpt lat="45.57186" lon="6.88641">
        <ele>1257</ele>
        <time>2018-02-21T06:50:15Z</time>
      </trkpt>
      <trkpt lat="45.57268" lon="6.88621">
        <ele>1254</ele>
        <time>2018-02-21T06:51:15Z</time>
      </trkpt>
      <trkpt lat="45.57292" lon="6.886">
        <ele>1250</ele>
        <time>2018-02-21T06:52:15Z</time>
      </trkpt>
      <trkpt lat="45.57307" lon="6.8857">
        <ele>1246</ele>
        <time>2018-02-21T06:53:15Z</time>
      </trkpt>
      <trkpt lat="45.57325" lon="6.8854">
        <ele>1242</ele>
        <time>2018-02-21T06:54:15Z</time>
      </trkpt>
      <trkpt lat="45.57362" lon="6.88523">
        <ele>1241</ele>
        <time>2018-02-21T06:55:15Z</time>
      </trkpt>
      <trkpt lat="45.57379" lon="6.8851">
        <ele>1239</ele>
        <time>2018-02-21T06:56:15Z</time>
      </trkpt>
      <trkpt lat="45.57412" lon="6.88474">
        <ele>1234</ele>
        <time>2018-02-21T06:57:15Z</time>
      </trkpt>
      <trkpt lat="45.57439" lon="6.88448">
        <ele>1230</ele>
        <time>2018-02-21T06:58:15Z</time>
      </trkpt>
      <trkpt lat="45.57454" lon="6.88439">
        <ele>1228</ele>
        <time>2018-02-21T06:59:15Z</time>
      </trkpt>
      <trkpt lat="45.57476" lon="6.88431">
        <ele>1226</ele>
        <time>2018-02-21T07:00:15Z</time>
      </trkpt>
      <trkpt lat="45.57487" lon="6.8843">
        <ele>1225</ele>
        <time>2018-02-21T07:01:15Z</time>
      </trkpt>
      <trkpt lat="45.57533" lon="6.88441">
        <ele>1227</ele>
        <time>2018-02-21T07:02:15Z</time>
      </trkpt>
      <trkpt lat="45.57564" lon="6.88438">
        <ele>1226</ele>
        <time>2018-02-21T07:03:15Z</time>
      </trkpt>
      <trkpt lat="45.57597" lon="6.88424">
        <ele>1222</ele>
        <time>2018-02-21T07:04:15Z</time>
      </trkpt>
      <trkpt lat="45.57625" lon="6.88401">
        <ele>1218</ele>
        <time>2018-02-21T07:05:15Z</time>
      </trkpt>
      <trkpt lat="45.57643" lon="6.88356">
        <ele>1209</ele>
        <time>2018-02-21T07:06:15Z</time>
      </trkpt>
      <trkpt lat="45.57688" lon="6.88316">
        <ele>1204</ele>
        <time>2018-02-21T07:07:15Z</time>
      </trkpt>
      <trkpt lat="45.57735" lon="6.88291">
        <ele>1200</ele>
        <time>2018-02-21T07:08:15Z</time>
      </trkpt>
      <trkpt lat="45.57786" lon="6.88295">
        <ele>1194</ele>
        <time>2018-02-21T07:09:15Z</time>
      </trkpt>
      <trkpt lat="45.57823" lon="6.88308">
        <ele>1192</ele>
        <time>2018-02-21T07:10:15Z</time>
      </trkpt>
      <trkpt lat="45.57852" lon="6.88336">
        <ele>1192</ele>
        <time>2018-02-21T07:11:15Z</time>
      </trkpt>
      <trkpt lat="45.57927" lon="6.88432">
        <ele>1194</ele>
        <time>2018-02-21T07:12:15Z</time>
      </trkpt>
      <trkpt lat="45.5795" lon="6.88465">
        <ele>1195</ele>
        <time>2018-02-21T07:13:15Z</time>
      </trkpt>
      <trkpt lat="45.57979" lon="6.88484">
        <ele>1186</ele>
        <time>2018-02-21T07:14:15Z</time>
      </trkpt>
      <trkpt lat="45.5799" lon="6.88486">
        <ele>1181</ele>
        <time>2018-02-21T07:15:15Z</time>
      </trkpt>
      <trkpt lat="45.57998" lon="6.8848">
        <ele>1175</ele>
        <time>2018-02-21T07:16:15Z</time>
      </trkpt>
      <trkpt lat="45.57999" lon="6.88468">
        <ele>1171</ele>
        <time>2018-02-21T07:17:15Z</time>
      </trkpt>
      <trkpt lat="45.57995" lon="6.88455">
        <ele>1169</ele>
        <time>2018-02-21T07:18:15Z</time>
      </trkpt>
      <trkpt lat="45.57967" lon="6.88445">
        <ele>1179</ele>
        <time>2018-02-21T07:19:15Z</time>
      </trkpt>
      <trkpt lat="45.57952" lon="6.88436">
        <ele>1184</ele>
        <time>2018-02-21T07:20:15Z</time>
      </trkpt>
      <trkpt lat="45.57918" lon="6.8839">
        <ele>1181</ele>
        <time>2018-02-21T07:21:15Z</time>
      </trkpt>
      <trkpt lat="45.57842" lon="6.88266">
        <ele>1168</ele>
        <time>2018-02-21T07:22:15Z</time>
      </trkpt>
      <trkpt lat="45.57831" lon="6.88245">
        <ele>1163</ele>
        <time>2018-02-21T07:23:15Z</time>
      </trkpt>
      <trkpt lat="45.57833" lon="6.88229">
        <ele>1157</ele>
        <time>2018-02-21T07:24:15Z</time>
      </trkpt>
      <trkpt lat="45.5784" lon="6.88222">
        <ele>1152</ele>
        <time>2018-02-21T07:25:15Z</time>
      </trkpt>
      <trkpt lat="45.57848" lon="6.88222">
        <ele>1150</ele>
        <time>2018-02-21T07:26:15Z</time>
      </trkpt>
      <trkpt lat="45.57857" lon="6.88232">
        <ele>1150</ele>
        <time>2018-02-21T07:27:15Z</time>
      </trkpt>
      <trkpt lat="45.57859" lon="6.88256">
        <ele>1158</ele>
        <time>2018-02-21T07:28:15Z</time>
      </trkpt>
      <trkpt lat="45.57869" lon="6.8828">
        <ele>1163</ele>
        <time>2018-02-21T07:29:15Z</time>
      </trkpt>
      <trkpt lat="45.57909" lon="6.88344">
        <ele>1165</ele>
        <time>2018-02-21T07:30:15Z</time>
      </trkpt>
      <trkpt lat="45.5796" lon="6.8839">
        <ele>1164</ele>
        <time>2018-02-21T07:31:15Z</time>
      </trkpt>
      <trkpt lat="45.57984" lon="6.88396">
        <ele>1156</ele>
        <time>2018-02-21T07:32:15Z</time>
      </trkpt>
      <trkpt lat="45.58015" lon="6.88392">
        <ele>1147</ele>
        <time>2018-02-21T07:33:15Z</time>
      </trkpt>
      <trkpt lat="45.58042" lon="6.88385">
        <ele>1143</ele>
        <time>2018-02-21T07:34:15Z</time>
      </trkpt>
      <trkpt lat="45.58075" lon="6.88387">
        <ele>1141</ele>
        <time>2018-02-21T07:35:15Z</time>
      </trkpt>
      <trkpt lat="45.58129" lon="6.88396">
        <ele>1135</ele>
        <time>2018-02-21T07:36:15Z</time>
      </trkpt>
      <trkpt lat="45.58205" lon="6.88419">
        <ele>1131</ele>
        <time>2018-02-21T07:37:15Z</time>
      </trkpt>
      <trkpt lat="45.58257" lon="6.88423">
        <ele>1126</ele>
        <time>2018-02-21T07:38:15Z</time>
      </trkpt>
      <trkpt lat="45.58289" lon="6.88435">
        <ele>1121</ele>
        <time>2018-02-21T07:39:15Z</time>
      </trkpt>
      <trkpt lat="45.5834" lon="6.88471">
        <ele>1123</ele>
        <time>2018-02-21T07:40:15Z</time>
      </trkpt>
      <trkpt lat="45.58394" lon="6.88489">
        <ele>1113</ele>
        <time>2018-02-21T07:41:15Z</time>
      </trkpt>
      <trkpt lat="45.58479" lon="6.88503">
        <ele>1103</ele>
        <time>2018-02-21T07:42:15Z</time>
      </trkpt>
      <trkpt lat="45.58506" lon="6.88513">
        <ele>1103</ele>
        <time>2018-02-21T07:43:15Z</time>
      </trkpt>
      <trkpt lat="45.58532" lon="6.88501">
        <ele>1098</ele>
        <time>2018-02-21T07:44:15Z</time>
      </trkpt>
      <trkpt lat="45.58599" lon="6.88446">
        <ele>1086</ele>
        <time>2018-02-21T07:45:15Z</time>
      </trkpt>
      <trkpt lat="45.58613" lon="6.88438">
        <ele>1084</ele>
        <time>2018-02-21T07:46:15Z</time>
      </trkpt>
      <trkpt lat="45.5863" lon="6.88439">
        <ele>1084</ele>
        <time>2018-02-21T07:47:15Z</time>
      </trkpt>
      <trkpt lat="45.58651" lon="6.88442">
        <ele>1083</ele>
        <time>2018-02-21T07:48:15Z</time>
      </trkpt>
      <trkpt lat="45.58765" lon="6.88496">
        <ele>1081</ele>
        <time>2018-02-21T07:49:15Z</time>
      </trkpt>
      <trkpt lat="45.58783" lon="6.88494">
        <ele>1080</ele>
        <time>2018-02-21T07:50:15Z</time>
      </trkpt>
      <trkpt lat="45.58824" lon="6.88464">
        <ele>1073</ele>
        <time>2018-02-21T07:51:15Z</time>
      </trkpt>
      <trkpt lat="45.58824" lon="6.88464">
        <ele>1073</ele>
        <time>2018-02-21T07:52:15Z</time>
      </trkpt>
      <trkpt lat="45.58831" lon="6.88459">
        <ele>1072</ele>
        <time>2018-02-21T07:53:15Z</time>
      </trkpt>
      <trkpt lat="45.58847" lon="6.88439">
        <ele>1069</ele>
        <time>2018-02-21T07:54:15Z</time>
      </trkpt>
      <trkpt lat="45.58853" lon="6.8841">
        <ele>1064</ele>
        <time>2018-02-21T07:55:15Z</time>
      </trkpt>
      <trkpt lat="45.58882" lon="6.88419">
        <ele>1065</ele>
        <time>2018-02-21T07:56:15Z</time>
      </trkpt>
      <trkpt lat="45.58906" lon="6.88434">
        <ele>1068</ele>
        <time>2018-02-21T07:57:15Z</time>
      </trkpt>
      <trkpt lat="45.58925" lon="6.88452">
        <ele>1070</ele>
        <time>2018-02-21T07:58:15Z</time>
      </trkpt>
      <trkpt lat="45.58938" lon="6.8847">
        <ele>1071</ele>
        <time>2018-02-21T07:59:15Z</time>
      </trkpt>
      <trkpt lat="45.58951" lon="6.88519">
        <ele>1080</ele>
        <time>2018-02-21T08:00:15Z</time>
      </trkpt>
      <trkpt lat="45.58958" lon="6.88531">
        <ele>1082</ele>
        <time>2018-02-21T08:01:15Z</time>
      </trkpt>
      <trkpt lat="45.58992" lon="6.88538">
        <ele>1080</ele>
        <time>2018-02-21T08:02:15Z</time>
      </trkpt>
      <trkpt lat="45.59001" lon="6.88545">
        <ele>1081</ele>
        <time>2018-02-21T08:03:15Z</time>
      </trkpt>
      <trkpt lat="45.5901" lon="6.88557">
        <ele>1084</ele>
        <time>2018-02-21T08:04:15Z</time>
      </trkpt>
      <trkpt lat="45.59029" lon="6.88629">
        <ele>1099</ele>
        <time>2018-02-21T08:05:15Z</time>
      </trkpt>
      <trkpt lat="45.59035" lon="6.88639">
        <ele>1101</ele>
        <time>2018-02-21T08:06:15Z</time>
      </trkpt>
      <trkpt lat="45.59042" lon="6.88645">
        <ele>1102</ele>
        <time>2018-02-21T08:07:15Z</time>
      </trkpt>
      <trkpt lat="45.59052" lon="6.88647">
        <ele>1102</ele>
        <time>2018-02-21T08:08:15Z</time>
      </trkpt>
      <trkpt lat="45.59075" lon="6.88637">
        <ele>1098</ele>
        <time>2018-02-21T08:09:15Z</time>
      </trkpt>
      <trkpt lat="45.59154" lon="6.88598">
        <ele>1100</ele>
        <time>2018-02-21T08:10:15Z</time>
      </trkpt>
      <trkpt lat="45.59203" lon="6.88585">
        <ele>1105</ele>
        <time>2018-02-21T08:11:15Z</time>
      </trkpt>
      <trkpt lat="45.5923" lon="6.88569">
        <ele>1105</ele>
        <time>2018-02-21T08:12:15Z</time>
      </trkpt>
      <trkpt lat="45.59244" lon="6.88564">
        <ele>1106</ele>
        <time>2018-02-21T08:13:15Z</time>
      </trkpt>
      <trkpt lat="45.59259" lon="6.88567">
        <ele>1110</ele>
        <time>2018-02-21T08:14:15Z</time>
      </trkpt>
      <trkpt lat="45.59314" lon="6.88587">
        <ele>1125</ele>
        <time>2018-02-21T08:15:15Z</time>
      </trkpt>
      <trkpt lat="45.59331" lon="6.88588">
        <ele>1128</ele>
        <time>2018-02-21T08:16:15Z</time>
      </trkpt>
      <trkpt lat="45.59383" lon="6.88566">
        <ele>1125</ele>
        <time>2018-02-21T08:17:15Z</time>
      </trkpt>
      <trkpt lat="45.59396" lon="6.88564">
        <ele>1126</ele>
        <time>2018-02-21T08:18:15Z</time>
      </trkpt>
      <trkpt lat="45.59421" lon="6.88568">
        <ele>1129</ele>
        <time>2018-02-21T08:19:15Z</time>
      </trkpt>
      <trkpt lat="45.5945" lon="6.88577">
        <ele>1136</ele>
        <time>2018-02-21T08:20:15Z</time>
      </trkpt>
      <trkpt lat="45.59477" lon="6.88579">
        <ele>1139</ele>
        <time>2018-02-21T08:21:15Z</time>
      </trkpt>
      <trkpt lat="45.59506" lon="6.88569">
        <ele>1139</ele>
        <time>2018-02-21T08:22:15Z</time>
      </trkpt>
      <trkpt lat="45.59538" lon="6.88555">
        <ele>1140</ele>
        <time>2018-02-21T08:23:15Z</time>
      </trkpt>
      <trkpt lat="45.59574" lon="6.88551">
        <ele>1145</ele>
        <time>2018-02-21T08:24:15Z</time>
      </trkpt>
      <trkpt lat="45.59604" lon="6.88557">
        <ele>1146</ele>
        <time>2018-02-21T08:25:15Z</time>
      </trkpt>
      <trkpt lat="45.59615" lon="6.8857">
        <ele>1149</ele>
        <time>2018-02-21T08:26:15Z</time>
      </trkpt>
      <trkpt lat="45.59623" lon="6.88591">
        <ele>1155</ele>
        <time>2018-02-21T08:27:15Z</time>
      </trkpt>
      <trkpt lat="45.5963" lon="6.886">
        <ele>1157</ele>
        <time>2018-02-21T08:28:15Z</time>
      </trkpt>
      <trkpt lat="45.59657" lon="6.88625">
        <ele>1161</ele>
        <time>2018-02-21T08:29:15Z</time>
      </trkpt>
      <trkpt lat="45.59691" lon="6.88661">
        <ele>1168</ele>
        <time>2018-02-21T08:30:15Z</time>
      </trkpt>
      <trkpt lat="45.59719" lon="6.88681">
        <ele>1172</ele>
        <time>2018-02-21T08:31:15Z</time>
      </trkpt>
      <trkpt lat="45.5975" lon="6.88707">
        <ele>1178</ele>
        <time>2018-02-21T08:32:15Z</time>
      </trkpt>
      <trkpt lat="45.59775" lon="6.88719">
        <ele>1183</ele>
        <time>2018-02-21T08:33:15Z</time>
      </trkpt>
      <trkpt lat="45.59796" lon="6.8872">
        <ele>1184</ele>
        <time>2018-02-21T08:34:15Z</time>
      </trkpt>
      <trkpt lat="45.59853" lon="6.88698">
        <ele>1182</ele>
        <time>2018-02-21T08:35:15Z</time>
      </trkpt>
      <trkpt lat="45.59868" lon="6.887">
        <ele>1184</ele>
        <time>2018-02-21T08:36:15Z</time>
      </trkpt>
      <trkpt lat="45.59905" lon="6.88715">
        <ele>1194</ele>
        <time>2018-02-21T08:37:15Z</time>
      </trkpt>
      <trkpt lat="45.59957" lon="6.88745">
        <ele>1203</ele>
        <time>2018-02-21T08:38:15Z</time>
      </trkpt>
      <trkpt lat="45.59968" lon="6.88742">
        <ele>1202</ele>
        <time>2018-02-21T08:39:15Z</time>
      </trkpt>
      <trkpt lat="45.59974" lon="6.88737">
        <ele>1201</ele>
        <time>2018-02-21T08:40:15Z</time>
      </trkpt>
      <trkpt lat="45.59981" lon="6.88727">
        <ele>1199</ele>
        <time>2018-02-21T08:41:15Z</time>
      </trkpt>
      <trkpt lat="45.59989" lon="6.88706">
        <ele>1196</ele>
        <time>2018-02-21T08:42:15Z</time>
      </trkpt>
      <trkpt lat="45.59998" lon="6.88698">
        <ele>1195</ele>
        <time>2018-02-21T08:43:15Z</time>
      </trkpt>
      <trkpt lat="45.60006" lon="6.88696">
        <ele>1195</ele>
        <time>2018-02-21T08:44:15Z</time>
      </trkpt>
      <trkpt lat="45.60014" lon="6.88698">
        <ele>1196</ele>
        <time>2018-02-21T08:45:15Z</time>
      </trkpt>
      <trkpt lat="45.60041" lon="6.88715">
        <ele>1201</ele>
        <time>2018-02-21T08:46:15Z</time>
      </trkpt>
      <trkpt lat="45.60057" lon="6.88731">
        <ele>1203</ele>
        <time>2018-02-21T08:47:15Z</time>
      </trkpt>
      <trkpt lat="45.60065" lon="6.88744">
        <ele>1205</ele>
        <time>2018-02-21T08:48:15Z</time>
      </trkpt>
      <trkpt lat="45.60086" lon="6.88804">
        <ele>1208</ele>
        <time>2018-02-21T08:49:15Z</time>
      </trkpt>
      <trkpt lat="45.60106" lon="6.88847">
        <ele>1213</ele>
        <time>2018-02-21T08:50:15Z</time>
      </trkpt>
      <trkpt lat="45.60115" lon="6.88848">
        <ele>1214</ele>
        <time>2018-02-21T08:51:15Z</time>
      </trkpt>
      <trkpt lat="45.60135" lon="6.88843">
        <ele>1216</ele>
        <time>2018-02-21T08:52:15Z</time>
      </trkpt>
      <trkpt lat="45.60144" lon="6.88825">
        <ele>1217</ele>
        <time>2018-02-21T08:53:15Z</time>
      </trkpt>
      <trkpt lat="45.60145" lon="6.88813">
        <ele>1217</ele>
        <time>2018-02-21T08:54:15Z</time>
      </trkpt>
      <trkpt lat="45.60144" lon="6.88757">
        <ele>1218</ele>
        <time>2018-02-21T08:55:15Z</time>
      </trkpt>
      <trkpt lat="45.6013" lon="6.88681">
        <ele>1214</ele>
        <time>2018-02-21T08:56:15Z</time>
      </trkpt>
      <trkpt lat="45.60128" lon="6.88662">
        <ele>1214</ele>
        <time>2018-02-21T08:57:15Z</time>
      </trkpt>
      <trkpt lat="45.60132" lon="6.88629">
        <ele>1217</ele>
        <time>2018-02-21T08:58:15Z</time>
      </trkpt>
      <trkpt lat="45.60131" lon="6.88592">
        <ele>1219</ele>
        <time>2018-02-21T08:59:15Z</time>
      </trkpt>
      <trkpt lat="45.60135" lon="6.88571">
        <ele>1221</ele>
        <time>2018-02-21T09:00:15Z</time>
      </trkpt>
      <trkpt lat="45.60137" lon="6.88536">
        <ele>1223</ele>
        <time>2018-02-21T09:01:15Z</time>
      </trkpt>
      <trkpt lat="45.60153" lon="6.88429">
        <ele>1233</ele>
        <time>2018-02-21T09:02:15Z</time>
      </trkpt>
      <trkpt lat="45.6015" lon="6.88329">
        <ele>1234</ele>
        <time>2018-02-21T09:03:15Z</time>
      </trkpt>
      <trkpt lat="45.60153" lon="6.88288">
        <ele>1236</ele>
        <time>2018-02-21T09:04:15Z</time>
      </trkpt>
      <trkpt lat="45.60156" lon="6.88215">
        <ele>1240</ele>
        <time>2018-02-21T09:05:15Z</time>
      </trkpt>
      <trkpt lat="45.60159" lon="6.88202">
        <ele>1242</ele>
        <time>2018-02-21T09:06:15Z</time>
      </trkpt>
      <trkpt lat="45.60185" lon="6.88157">
        <ele>1253</ele>
        <time>2018-02-21T09:07:15Z</time>
      </trkpt>
      <trkpt lat="45.60194" lon="6.88129">
        <ele>1254</ele>
        <time>2018-02-21T09:08:15Z</time>
      </trkpt>
      <trkpt lat="45.60223" lon="6.88003">
        <ele>1256</ele>
        <time>2018-02-21T09:09:15Z</time>
      </trkpt>
      <trkpt lat="45.60229" lon="6.87981">
        <ele>1258</ele>
        <time>2018-02-21T09:10:15Z</time>
      </trkpt>
      <trkpt lat="45.60234" lon="6.87976">
        <ele>1260</ele>
        <time>2018-02-21T09:11:15Z</time>
      </trkpt>
      <trkpt lat="45.60238" lon="6.87974">
        <ele>1262</ele>
        <time>2018-02-21T09:12:15Z</time>
      </trkpt>
      <trkpt lat="45.60244" lon="6.87975">
        <ele>1264</ele>
        <time>2018-02-21T09:13:15Z</time>
      </trkpt>
      <trkpt lat="45.60249" lon="6.8798">
        <ele>1267</ele>
        <time>2018-02-21T09:14:15Z</time>
      </trkpt>
      <trkpt lat="45.60252" lon="6.8799">
        <ele>1268</ele>
        <time>2018-02-21T09:15:15Z</time>
      </trkpt>
      <trkpt lat="45.60249" lon="6.88027">
        <ele>1267</ele>
        <time>2018-02-21T09:16:15Z</time>
      </trkpt>
      <trkpt lat="45.6025" lon="6.88034">
        <ele>1268</ele>
        <time>2018-02-21T09:17:15Z</time>
      </trkpt>
      <trkpt lat="45.60254" lon="6.88044">
        <ele>1271</ele>
        <time>2018-02-21T09:18:15Z</time>
      </trkpt>
      <trkpt lat="45.6026" lon="6.88049">
        <ele>1275</ele>
        <time>2018-02-21T09:19:15Z</time>
      </trkpt>
      <trkpt lat="45.60267" lon="6.88048">
        <ele>1279</ele>
        <time>2018-02-21T09:20:15Z</time>
      </trkpt>
      <trkpt lat="45.60272" lon="6.88044">
        <ele>1282</ele>
        <time>2018-02-21T09:21:15Z</time>
      </trkpt>
      <trkpt lat="45.60277" lon="6.88033">
        <ele>1285</ele>
        <time>2018-02-21T09:22:15Z</time>
      </trkpt>
      <trkpt lat="45.60274" lon="6.88012">
        <ele>1283</ele>
        <time>2018-02-21T09:23:15Z</time>
      </trkpt>
      <trkpt lat="45.60259" lon="6.87934">
        <ele>1273</ele>
        <time>2018-02-21T09:24:15Z</time>
      </trkpt>
      <trkpt lat="45.6025" lon="6.87878">
        <ele>1269</ele>
        <time>2018-02-21T09:25:15Z</time>
      </trkpt>
      <trkpt lat="45.60245" lon="6.87813">
        <ele>1267</ele>
        <time>2018-02-21T09:26:15Z</time>
      </trkpt>
      <trkpt lat="45.60247" lon="6.8776">
        <ele>1267</ele>
        <time>2018-02-21T09:27:15Z</time>
      </trkpt>
      <trkpt lat="45.60265" lon="6.87729">
        <ele>1268</ele>
        <time>2018-02-21T09:28:15Z</time>
      </trkpt>
      <trkpt lat="45.60284" lon="6.87719">
        <ele>1273</ele>
        <time>2018-02-21T09:29:15Z</time>
      </trkpt>
      <trkpt lat="45.60307" lon="6.87719">
        <ele>1283</ele>
        <time>2018-02-21T09:30:15Z</time>
      </trkpt>
      <trkpt lat="45.60395" lon="6.87665">
        <ele>1289</ele>
        <time>2018-02-21T09:31:15Z</time>
      </trkpt>
      <trkpt lat="45.60451" lon="6.87647">
        <ele>1301</ele>
        <time>2018-02-21T09:32:15Z</time>
      </trkpt>
      <trkpt lat="45.60483" lon="6.87629">
        <ele>1307</ele>
        <time>2018-02-21T09:33:15Z</time>
      </trkpt>
      <trkpt lat="45.60505" lon="6.8761">
        <ele>1309</ele>
        <time>2018-02-21T09:34:15Z</time>
      </trkpt>
      <trkpt lat="45.60518" lon="6.87573">
        <ele>1307</ele>
        <time>2018-02-21T09:35:15Z</time>
      </trkpt>
      <trkpt lat="45.60517" lon="6.87528">
        <ele>1305</ele>
        <time>2018-02-21T09:36:15Z</time>
      </trkpt>
      <trkpt lat="45.60512" lon="6.87503">
        <ele>1301</ele>
        <time>2018-02-21T09:37:15Z</time>
      </trkpt>
      <trkpt lat="45.60516" lon="6.87463">
        <ele>1302</ele>
        <time>2018-02-21T09:38:15Z</time>
      </trkpt>
      <trkpt lat="45.60532" lon="6.87415">
        <ele>1310</ele>
        <time>2018-02-21T09:39:15Z</time>
      </trkpt>
      <trkpt lat="45.60558" lon="6.87371">
        <ele>1319</ele>
        <time>2018-02-21T09:40:15Z</time>
      </trkpt>
      <trkpt lat="45.60581" lon="6.87295">
        <ele>1318</ele>
        <time>2018-02-21T09:41:15Z</time>
      </trkpt>
      <trkpt lat="45.60615" lon="6.87246">
        <ele>1327</ele>
        <time>2018-02-21T09:42:15Z</time>
      </trkpt>
      <trkpt lat="45.60629" lon="6.87214">
        <ele>1325</ele>
        <time>2018-02-21T09:43:15Z</time>
      </trkpt>
      <trkpt lat="45.60658" lon="6.87184">
        <ele>1329</ele>
        <time>2018-02-21T09:44:15Z</time>
      </trkpt>
      <trkpt lat="45.60687" lon="6.87149">
        <ele>1330</ele>
        <time>2018-02-21T09:45:15Z</time>
      </trkpt>
      <trkpt lat="45.60716" lon="6.87131">
        <ele>1337</ele>
        <time>2018-02-21T09:46:15Z</time>
      </trkpt>
      <trkpt lat="45.60735" lon="6.87115">
        <ele>1341</ele>
        <time>2018-02-21T09:47:15Z</time>
      </trkpt>
      <trkpt lat="45.60751" lon="6.87092">
        <ele>1341</ele>
        <time>2018-02-21T09:48:15Z</time>
      </trkpt>
      <trkpt lat="45.60766" lon="6.87061">
        <ele>1337</ele>
        <time>2018-02-21T09:49:15Z</time>
      </trkpt>
      <trkpt lat="45.60785" lon="6.87036">
        <ele>1337</ele>
        <time>2018-02-21T09:50:15Z</time>
      </trkpt>
      <trkpt lat="45.60803" lon="6.87007">
        <ele>1336</ele>
        <time>2018-02-21T09:51:15Z</time>
      </trkpt>
      <trkpt lat="45.60818" lon="6.86977">
        <ele>1335</ele>
        <time>2018-02-21T09:52:15Z</time>
      </trkpt>
      <trkpt lat="45.60853" lon="6.86919">
        <ele>1334</ele>
        <time>2018-02-21T09:53:15Z</time>
      </trkpt>
      <trkpt lat="45.60871" lon="6.86913">
        <ele>1339</ele>
        <time>2018-02-21T09:54:15Z</time>
      </trkpt>
      <trkpt lat="45.60921" lon="6.86916">
        <ele>1359</ele>
        <time>2018-02-21T09:55:15Z</time>
      </trkpt>
      <trkpt lat="45.60953" lon="6.86897">
        <ele>1366</ele>
        <time>2018-02-21T09:56:15Z</time>
      </trkpt>
      <trkpt lat="45.60992" lon="6.86843">
        <ele>1367</ele>
        <time>2018-02-21T09:57:15Z</time>
      </trkpt>
      <trkpt lat="45.61002" lon="6.8682">
        <ele>1366</ele>
        <time>2018-02-21T09:58:15Z</time>
      </trkpt>
      <trkpt lat="45.61028" lon="6.86774">
        <ele>1365</ele>
        <time>2018-02-21T09:59:15Z</time>
      </trkpt>
      <trkpt lat="45.61062" lon="6.8673">
        <ele>1367</ele>
        <time>2018-02-21T10:00:15Z</time>
      </trkpt>
      <trkpt lat="45.61096" lon="6.86701">
        <ele>1371</ele>
        <time>2018-02-21T10:01:15Z</time>
      </trkpt>
      <trkpt lat="45.61124" lon="6.86688">
        <ele>1372</ele>
        <time>2018-02-21T10:02:15Z</time>
      </trkpt>
      <trkpt lat="45.61186" lon="6.86675">
        <ele>1377</ele>
        <time>2018-02-21T10:03:15Z</time>
      </trkpt>
      <trkpt lat="45.61212" lon="6.86668">
        <ele>1378</ele>
        <time>2018-02-21T10:04:15Z</time>
      </trkpt>
      <trkpt lat="45.61356" lon="6.8658">
        <ele>1385</ele>
        <time>2018-02-21T10:05:15Z</time>
      </trkpt>
      <trkpt lat="45.61363" lon="6.86572">
        <ele>1387</ele>
        <time>2018-02-21T10:06:15Z</time>
      </trkpt>
      <trkpt lat="45.61375" lon="6.8655">
        <ele>1391</ele>
        <time>2018-02-21T10:07:15Z</time>
      </trkpt>
      <trkpt lat="45.61379" lon="6.86532">
        <ele>1393</ele>
        <time>2018-02-21T10:08:15Z</time>
      </trkpt>
      <trkpt lat="45.61381" lon="6.86511">
        <ele>1395</ele>
        <time>2018-02-21T10:09:15Z</time>
      </trkpt>
      <trkpt lat="45.61379" lon="6.86489">
        <ele>1397</ele>
        <time>2018-02-21T10:10:15Z</time>
      </trkpt>
      <trkpt lat="45.61368" lon="6.86459">
        <ele>1400</ele>
        <time>2018-02-21T10:11:15Z</time>
      </trkpt>
      <trkpt lat="45.61346" lon="6.86431">
        <ele>1397</ele>
        <time>2018-02-21T10:12:15Z</time>
      </trkpt>
      <trkpt lat="45.6132" lon="6.8639">
        <ele>1392</ele>
        <time>2018-02-21T10:13:15Z</time>
      </trkpt>
      <trkpt lat="45.61283" lon="6.86305">
        <ele>1379</ele>
        <time>2018-02-21T10:14:15Z</time>
      </trkpt>
      <trkpt lat="45.61278" lon="6.86281">
        <ele>1375</ele>
        <time>2018-02-21T10:15:15Z</time>
      </trkpt>
      <trkpt lat="45.61278" lon="6.86269">
        <ele>1375</ele>
        <time>2018-02-21T10:16:15Z</time>
      </trkpt>
      <trkpt lat="45.61281" lon="6.86253">
        <ele>1377</ele>
        <time>2018-02-21T10:17:15Z</time>
      </trkpt>
      <trkpt lat="45.61281" lon="6.86227">
        <ele>1378</ele>
        <time>2018-02-21T10:18:15Z</time>
      </trkpt>
      <trkpt lat="45.61277" lon="6.86194">
        <ele>1376</ele>
        <time>2018-02-21T10:19:15Z</time>
      </trkpt>
      <trkpt lat="45.61272" lon="6.86158">
        <ele>1373</ele>
        <time>2018-02-21T10:20:15Z</time>
      </trkpt>
      <trkpt lat="45.61258" lon="6.86106">
        <ele>1363</ele>
        <time>2018-02-21T10:21:15Z</time>
      </trkpt>
      <trkpt lat="45.61252" lon="6.86092">
        <ele>1359</ele>
        <time>2018-02-21T10:22:15Z</time>
      </trkpt>
      <trkpt lat="45.61282" lon="6.86025">
        <ele>1372</ele>
        <time>2018-02-21T10:23:15Z</time>
      </trkpt>
      <trkpt lat="45.61311" lon="6.85981">
        <ele>1381</ele>
        <time>2018-02-21T10:24:15Z</time>
      </trkpt>
      <trkpt lat="45.61326" lon="6.8594">
        <ele>1382</ele>
        <time>2018-02-21T10:25:15Z</time>
      </trkpt>
      <trkpt lat="45.61338" lon="6.85877">
        <ele>1379</ele>
        <time>2018-02-21T10:26:15Z</time>
      </trkpt>
      <trkpt lat="45.61376" lon="6.85814">
        <ele>1390</ele>
        <time>2018-02-21T10:27:15Z</time>
      </trkpt>
      <trkpt lat="45.61434" lon="6.85778">
        <ele>1408</ele>
        <time>2018-02-21T10:28:15Z</time>
      </trkpt>
      <trkpt lat="45.61445" lon="6.85754">
        <ele>1408</ele>
        <time>2018-02-21T10:29:15Z</time>
      </trkpt>
      <trkpt lat="45.61418" lon="6.85674">
        <ele>1403</ele>
        <time>2018-02-21T10:30:15Z</time>
      </trkpt>
      <trkpt lat="45.6141" lon="6.85611">
        <ele>1402</ele>
        <time>2018-02-21T10:31:15Z</time>
      </trkpt>
      <trkpt lat="45.61414" lon="6.8558">
        <ele>1405</ele>
        <time>2018-02-21T10:32:15Z</time>
      </trkpt>
      <trkpt lat="45.61436" lon="6.85552">
        <ele>1407</ele>
        <time>2018-02-21T10:33:15Z</time>
      </trkpt>
      <trkpt lat="45.61472" lon="6.85522">
        <ele>1411</ele>
        <time>2018-02-21T10:34:15Z</time>
      </trkpt>
      <trkpt lat="45.61569" lon="6.85397">
        <ele>1419</ele>
        <time>2018-02-21T10:35:15Z</time>
      </trkpt>
      <trkpt lat="45.6159" lon="6.85386">
        <ele>1425</ele>
        <time>2018-02-21T10:36:15Z</time>
      </trkpt>
      <trkpt lat="45.61592" lon="6.85419">
        <ele>1433</ele>
        <time>2018-02-21T10:37:15Z</time>
      </trkpt>
      <trkpt lat="45.61598" lon="6.85431">
        <ele>1438</ele>
        <time>2018-02-21T10:38:15Z</time>
      </trkpt>
      <trkpt lat="45.61598" lon="6.85442">
        <ele>1440</ele>
        <time>2018-02-21T10:39:15Z</time>
      </trkpt>
      <trkpt lat="45.61607" lon="6.85466">
        <ele>1447</ele>
        <time>2018-02-21T10:40:15Z</time>
      </trkpt>
      <trkpt lat="45.61618" lon="6.85491">
        <ele>1456</ele>
        <time>2018-02-21T10:41:15Z</time>
      </trkpt>
      <trkpt lat="45.61617" lon="6.85505">
        <ele>1457</ele>
        <time>2018-02-21T10:42:15Z</time>
      </trkpt>
      <trkpt lat="45.6159" lon="6.85617">
        <ele>1460</ele>
        <time>2018-02-21T10:43:15Z</time>
      </trkpt>
      <trkpt lat="45.61587" lon="6.85654">
        <ele>1463</ele>
        <time>2018-02-21T10:44:15Z</time>
      </trkpt>
      <trkpt lat="45.61595" lon="6.85707">
        <ele>1470</ele>
        <time>2018-02-21T10:45:15Z</time>
      </trkpt>
      <trkpt lat="45.61591" lon="6.85747">
        <ele>1470</ele>
        <time>2018-02-21T10:46:15Z</time>
      </trkpt>
      <trkpt lat="45.61582" lon="6.85795">
        <ele>1475</ele>
        <time>2018-02-21T10:47:15Z</time>
      </trkpt>
      <trkpt lat="45.61577" lon="6.85813">
        <ele>1476</ele>
        <time>2018-02-21T10:48:15Z</time>
      </trkpt>
      <trkpt lat="45.6157" lon="6.85823">
        <ele>1475</ele>
        <time>2018-02-21T10:49:15Z</time>
      </trkpt>
      <trkpt lat="45.61564" lon="6.85827">
        <ele>1473</ele>
        <time>2018-02-21T10:50:15Z</time>
      </trkpt>
      <trkpt lat="45.61554" lon="6.8583">
        <ele>1470</ele>
        <time>2018-02-21T10:51:15Z</time>
      </trkpt>
      <trkpt lat="45.61547" lon="6.85829">
        <ele>1467</ele>
        <time>2018-02-21T10:52:15Z</time>
      </trkpt>
      <trkpt lat="45.61539" lon="6.85832">
        <ele>1464</ele>
        <time>2018-02-21T10:53:15Z</time>
      </trkpt>
      <trkpt lat="45.61534" lon="6.85841">
        <ele>1464</ele>
        <time>2018-02-21T10:54:15Z</time>
      </trkpt>
      <trkpt lat="45.61531" lon="6.85867">
        <ele>1466</ele>
        <time>2018-02-21T10:55:15Z</time>
      </trkpt>
      <trkpt lat="45.61533" lon="6.85944">
        <ele>1476</ele>
        <time>2018-02-21T10:56:15Z</time>
      </trkpt>
      <trkpt lat="45.6154" lon="6.86013">
        <ele>1482</ele>
        <time>2018-02-21T10:57:15Z</time>
      </trkpt>
      <trkpt lat="45.61551" lon="6.86065">
        <ele>1488</ele>
        <time>2018-02-21T10:58:15Z</time>
      </trkpt>
      <trkpt lat="45.61557" lon="6.86118">
        <ele>1492</ele>
        <time>2018-02-21T10:59:15Z</time>
      </trkpt>
      <trkpt lat="45.61578" lon="6.86182">
        <ele>1498</ele>
        <time>2018-02-21T11:00:15Z</time>
      </trkpt>
      <trkpt lat="45.61582" lon="6.86217">
        <ele>1499</ele>
        <time>2018-02-21T11:01:15Z</time>
      </trkpt>
      <trkpt lat="45.61576" lon="6.86288">
        <ele>1500</ele>
        <time>2018-02-21T11:02:15Z</time>
      </trkpt>
      <trkpt lat="45.61583" lon="6.86291">
        <ele>1501</ele>
        <time>2018-02-21T11:03:15Z</time>
      </trkpt>
      <trkpt lat="45.6159" lon="6.86284">
        <ele>1503</ele>
        <time>2018-02-21T11:04:15Z</time>
      </trkpt>
      <trkpt lat="45.6161" lon="6.86232">
        <ele>1510</ele>
        <time>2018-02-21T11:05:15Z</time>
      </trkpt>
      <trkpt lat="45.61611" lon="6.86205">
        <ele>1510</ele>
        <time>2018-02-21T11:06:15Z</time>
      </trkpt>
      <trkpt lat="45.61607" lon="6.86172">
        <ele>1508</ele>
        <time>2018-02-21T11:07:15Z</time>
      </trkpt>
      <trkpt lat="45.61611" lon="6.86121">
        <ele>1509</ele>
        <time>2018-02-21T11:08:15Z</time>
      </trkpt>
      <trkpt lat="45.61619" lon="6.86077">
        <ele>1512</ele>
        <time>2018-02-21T11:09:15Z</time>
      </trkpt>
      <trkpt lat="45.61635" lon="6.86032">
        <ele>1518</ele>
        <time>2018-02-21T11:10:15Z</time>
      </trkpt>
      <trkpt lat="45.61645" lon="6.85975">
        <ele>1520</ele>
        <time>2018-02-21T11:11:15Z</time>
      </trkpt>
      <trkpt lat="45.61655" lon="6.85949">
        <ele>1522</ele>
        <time>2018-02-21T11:12:15Z</time>
      </trkpt>
      <trkpt lat="45.61701" lon="6.85868">
        <ele>1532</ele>
        <time>2018-02-21T11:13:15Z</time>
      </trkpt>
      <trkpt lat="45.61721" lon="6.85845">
        <ele>1537</ele>
        <time>2018-02-21T11:14:15Z</time>
      </trkpt>
      <trkpt lat="45.61736" lon="6.85808">
        <ele>1538</ele>
        <time>2018-02-21T11:15:15Z</time>
      </trkpt>
      <trkpt lat="45.61767" lon="6.85771">
        <ele>1543</ele>
        <time>2018-02-21T11:16:15Z</time>
      </trkpt>
      <trkpt lat="45.61826" lon="6.85675">
        <ele>1551</ele>
        <time>2018-02-21T11:17:15Z</time>
      </trkpt>
      <trkpt lat="45.61856" lon="6.85654">
        <ele>1559</ele>
        <time>2018-02-21T11:18:15Z</time>
      </trkpt>
      <trkpt lat="45.6187" lon="6.85635">
        <ele>1563</ele>
        <time>2018-02-21T11:19:15Z</time>
      </trkpt>
      <trkpt lat="45.61879" lon="6.85599">
        <ele>1564</ele>
        <time>2018-02-21T11:20:15Z</time>
      </trkpt>
      <trkpt lat="45.61884" lon="6.85535">
        <ele>1565</ele>
        <time>2018-02-21T11:21:15Z</time>
      </trkpt>
      <trkpt lat="45.61901" lon="6.85451">
        <ele>1569</ele>
        <time>2018-02-21T11:22:15Z</time>
      </trkpt>
      <trkpt lat="45.61909" lon="6.85425">
        <ele>1570</ele>
        <time>2018-02-21T11:23:15Z</time>
      </trkpt>
      <trkpt lat="45.61918" lon="6.85408">
        <ele>1573</ele>
        <time>2018-02-21T11:24:15Z</time>
      </trkpt>
      <trkpt lat="45.61928" lon="6.85394">
        <ele>1576</ele>
        <time>2018-02-21T11:25:15Z</time>
      </trkpt>
      <trkpt lat="45.61942" lon="6.85363">
        <ele>1579</ele>
        <time>2018-02-21T11:26:15Z</time>
      </trkpt>
      <trkpt lat="45.6195" lon="6.85339">
        <ele>1581</ele>
        <time>2018-02-21T11:27:15Z</time>
      </trkpt>
      <trkpt lat="45.61962" lon="6.85289">
        <ele>1584</ele>
        <time>2018-02-21T11:28:15Z</time>
      </trkpt>
      <trkpt lat="45.61967" lon="6.85278">
        <ele>1586</ele>
        <time>2018-02-21T11:29:15Z</time>
      </trkpt>
      <trkpt lat="45.61975" lon="6.85246">
        <ele>1587</ele>
        <time>2018-02-21T11:30:15Z</time>
      </trkpt>
      <trkpt lat="45.61986" lon="6.85216">
        <ele>1590</ele>
        <time>2018-02-21T11:31:15Z</time>
      </trkpt>
      <trkpt lat="45.62004" lon="6.8518">
        <ele>1596</ele>
        <time>2018-02-21T11:32:15Z</time>
      </trkpt>
      <trkpt lat="45.62016" lon="6.85151">
        <ele>1599</ele>
        <time>2018-02-21T11:33:15Z</time>
      </trkpt>
      <trkpt lat="45.62019" lon="6.85137">
        <ele>1599</ele>
        <time>2018-02-21T11:34:15Z</time>
      </trkpt>
      <trkpt lat="45.62024" lon="6.85077">
        <ele>1596</ele>
        <time>2018-02-21T11:35:15Z</time>
      </trkpt>
      <trkpt lat="45.62028" lon="6.85067">
        <ele>1597</ele>
        <time>2018-02-21T11:36:15Z</time>
      </trkpt>
      <trkpt lat="45.62038" lon="6.8506">
        <ele>1602</ele>
        <time>2018-02-21T11:37:15Z</time>
      </trkpt>
      <trkpt lat="45.62061" lon="6.85051">
        <ele>1612</ele>
        <time>2018-02-21T11:38:15Z</time>
      </trkpt>
      <trkpt lat="45.62069" lon="6.85044">
        <ele>1615</ele>
        <time>2018-02-21T11:39:15Z</time>
      </trkpt>
      <trkpt lat="45.62074" lon="6.85036">
        <ele>1616</ele>
        <time>2018-02-21T11:40:15Z</time>
      </trkpt>
      <trkpt lat="45.62077" lon="6.85026">
        <ele>1617</ele>
        <time>2018-02-21T11:41:15Z</time>
      </trkpt>
      <trkpt lat="45.62077" lon="6.84995">
        <ele>1615</ele>
        <time>2018-02-21T11:42:15Z</time>
      </trkpt>
      <trkpt lat="45.62087" lon="6.84956">
        <ele>1619</ele>
        <time>2018-02-21T11:43:15Z</time>
      </trkpt>
      <trkpt lat="45.62086" lon="6.84901">
        <ele>1618</ele>
        <time>2018-02-21T11:44:15Z</time>
      </trkpt>
      <trkpt lat="45.62087" lon="6.84881">
        <ele>1618</ele>
        <time>2018-02-21T11:45:15Z</time>
      </trkpt>
      <trkpt lat="45.62091" lon="6.84862">
        <ele>1620</ele>
        <time>2018-02-21T11:46:15Z</time>
      </trkpt>
      <trkpt lat="45.62098" lon="6.84845">
        <ele>1622</ele>
        <time>2018-02-21T11:47:15Z</time>
      </trkpt>
      <trkpt lat="45.62108" lon="6.84809">
        <ele>1625</ele>
        <time>2018-02-21T11:48:15Z</time>
      </trkpt>
      <trkpt lat="45.62126" lon="6.84761">
        <ele>1631</ele>
        <time>2018-02-21T11:49:15Z</time>
      </trkpt>
      <trkpt lat="45.62165" lon="6.84629">
        <ele>1638</ele>
        <time>2018-02-21T11:50:15Z</time>
      </trkpt>
      <trkpt lat="45.62168" lon="6.84622">
        <ele>1639</ele>
        <time>2018-02-21T11:51:15Z</time>
      </trkpt>
      <trkpt lat="45.62174" lon="6.8462">
        <ele>1640</ele>
        <time>2018-02-21T11:52:15Z</time>
      </trkpt>
      <trkpt lat="45.62179" lon="6.84622">
        <ele>1642</ele>
        <time>2018-02-21T11:53:15Z</time>
      </trkpt>
      <trkpt lat="45.62173" lon="6.84636">
        <ele>1642</ele>
        <time>2018-02-21T11:54:15Z</time>
      </trkpt>
      <trkpt lat="45.6217" lon="6.84654">
        <ele>1644</ele>
        <time>2018-02-21T11:55:15Z</time>
      </trkpt>
      <trkpt lat="45.62177" lon="6.84813">
        <ele>1651</ele>
        <time>2018-02-21T11:56:15Z</time>
      </trkpt>
      <trkpt lat="45.62172" lon="6.84891">
        <ele>1651</ele>
        <time>2018-02-21T11:57:15Z</time>
      </trkpt>
      <trkpt lat="45.62173" lon="6.84922">
        <ele>1653</ele>
        <time>2018-02-21T11:58:15Z</time>
      </trkpt>
      <trkpt lat="45.6218" lon="6.85034">
        <ele>1663</ele>
        <time>2018-02-21T11:59:15Z</time>
      </trkpt>
      <trkpt lat="45.62179" lon="6.85051">
        <ele>1665</ele>
        <time>2018-02-21T12:00:15Z</time>
      </trkpt>
      <trkpt lat="45.62158" lon="6.85115">
        <ele>1663</ele>
        <time>2018-02-21T12:01:15Z</time>
      </trkpt>
      <trkpt lat="45.62153" lon="6.85138">
        <ele>1664</ele>
        <time>2018-02-21T12:02:15Z</time>
      </trkpt>
      <trkpt lat="45.62142" lon="6.85229">
        <ele>1668</ele>
        <time>2018-02-21T12:03:15Z</time>
      </trkpt>
      <trkpt lat="45.62141" lon="6.85245">
        <ele>1669</ele>
        <time>2018-02-21T12:04:15Z</time>
      </trkpt>
      <trkpt lat="45.62145" lon="6.8536">
        <ele>1670</ele>
        <time>2018-02-21T12:05:15Z</time>
      </trkpt>
      <trkpt lat="45.62148" lon="6.85408">
        <ele>1671</ele>
        <time>2018-02-21T12:06:15Z</time>
      </trkpt>
      <trkpt lat="45.62153" lon="6.85434">
        <ele>1673</ele>
        <time>2018-02-21T12:07:15Z</time>
      </trkpt>
      <trkpt lat="45.62167" lon="6.85466">
        <ele>1678</ele>
        <time>2018-02-21T12:08:15Z</time>
      </trkpt>
      <trkpt lat="45.6217" lon="6.85477">
        <ele>1680</ele>
        <time>2018-02-21T12:09:15Z</time>
      </trkpt>
      <trkpt lat="45.62171" lon="6.85491">
        <ele>1680</ele>
        <time>2018-02-21T12:10:15Z</time>
      </trkpt>
      <trkpt lat="45.62169" lon="6.85507">
        <ele>1680</ele>
        <time>2018-02-21T12:11:15Z</time>
      </trkpt>
      <trkpt lat="45.6214" lon="6.85636">
        <ele>1679</ele>
        <time>2018-02-21T12:12:15Z</time>
      </trkpt>
      <trkpt lat="45.62139" lon="6.85664">
        <ele>1680</ele>
        <time>2018-02-21T12:13:15Z</time>
      </trkpt>
      <trkpt lat="45.62145" lon="6.85693">
        <ele>1686</ele>
        <time>2018-02-21T12:14:15Z</time>
      </trkpt>
      <trkpt lat="45.62145" lon="6.85713">
        <ele>1688</ele>
        <time>2018-02-21T12:15:15Z</time>
      </trkpt>
      <trkpt lat="45.62138" lon="6.85732">
        <ele>1686</ele>
        <time>2018-02-21T12:16:15Z</time>
      </trkpt>
      <trkpt lat="45.62125" lon="6.85756">
        <ele>1682</ele>
        <time>2018-02-21T12:17:15Z</time>
      </trkpt>
      <trkpt lat="45.62119" lon="6.85777">
        <ele>1681</ele>
        <time>2018-02-21T12:18:15Z</time>
      </trkpt>
      <trkpt lat="45.62113" lon="6.85876">
        <ele>1688</ele>
        <time>2018-02-21T12:19:15Z</time>
      </trkpt>
      <trkpt lat="45.62105" lon="6.85936">
        <ele>1689</ele>
        <time>2018-02-21T12:20:15Z</time>
      </trkpt>
      <trkpt lat="45.62099" lon="6.85962">
        <ele>1687</ele>
        <time>2018-02-21T12:21:15Z</time>
      </trkpt>
      <trkpt lat="45.62099" lon="6.8597">
        <ele>1687</ele>
        <time>2018-02-21T12:22:15Z</time>
      </trkpt>
      <trkpt lat="45.62102" lon="6.85977">
        <ele>1689</ele>
        <time>2018-02-21T12:23:15Z</time>
      </trkpt>
      <trkpt lat="45.62107" lon="6.85979">
        <ele>1691</ele>
        <time>2018-02-21T12:24:15Z</time>
      </trkpt>
      <trkpt lat="45.62112" lon="6.85976">
        <ele>1692</ele>
        <time>2018-02-21T12:25:15Z</time>
      </trkpt>
      <trkpt lat="45.62117" lon="6.85966">
        <ele>1694</ele>
        <time>2018-02-21T12:26:15Z</time>
      </trkpt>
      <trkpt lat="45.62123" lon="6.85907">
        <ele>1695</ele>
        <time>2018-02-21T12:27:15Z</time>
      </trkpt>
      <trkpt lat="45.62143" lon="6.85775">
        <ele>1693</ele>
        <time>2018-02-21T12:28:15Z</time>
      </trkpt>
      <trkpt lat="45.62149" lon="6.85757">
        <ele>1694</ele>
        <time>2018-02-21T12:29:15Z</time>
      </trkpt>
      <trkpt lat="45.62164" lon="6.85738">
        <ele>1700</ele>
        <time>2018-02-21T12:30:15Z</time>
      </trkpt>
      <trkpt lat="45.62187" lon="6.85712">
        <ele>1707</ele>
        <time>2018-02-21T12:31:15Z</time>
      </trkpt>
      <trkpt lat="45.62194" lon="6.857">
        <ele>1709</ele>
        <time>2018-02-21T12:32:15Z</time>
      </trkpt>
      <trkpt lat="45.62198" lon="6.85678">
        <ele>1709</ele>
        <time>2018-02-21T12:33:15Z</time>
      </trkpt>
      <trkpt lat="45.62193" lon="6.85632">
        <ele>1703</ele>
        <time>2018-02-21T12:34:15Z</time>
      </trkpt>
      <trkpt lat="45.62197" lon="6.85611">
        <ele>1703</ele>
        <time>2018-02-21T12:35:15Z</time>
      </trkpt>
      <trkpt lat="45.62203" lon="6.85593">
        <ele>1704</ele>
        <time>2018-02-21T12:36:15Z</time>
      </trkpt>
      <trkpt lat="45.6223" lon="6.85554">
        <ele>1711</ele>
        <time>2018-02-21T12:37:15Z</time>
      </trkpt>
      <trkpt lat="45.62238" lon="6.85536">
        <ele>1713</ele>
        <time>2018-02-21T12:38:15Z</time>
      </trkpt>
      <trkpt lat="45.6224" lon="6.85527">
        <ele>1714</ele>
        <time>2018-02-21T12:39:15Z</time>
      </trkpt>
      <trkpt lat="45.62247" lon="6.85476">
        <ele>1715</ele>
        <time>2018-02-21T12:40:15Z</time>
      </trkpt>
      <trkpt lat="45.62254" lon="6.8545">
        <ele>1718</ele>
        <time>2018-02-21T12:41:15Z</time>
      </trkpt>
      <trkpt lat="45.62256" lon="6.85427">
        <ele>1718</ele>
        <time>2018-02-21T12:42:15Z</time>
      </trkpt>
      <trkpt lat="45.62253" lon="6.8539">
        <ele>1718</ele>
        <time>2018-02-21T12:43:15Z</time>
      </trkpt>
      <trkpt lat="45.62253" lon="6.85354">
        <ele>1719</ele>
        <time>2018-02-21T12:44:15Z</time>
      </trkpt>
      <trkpt lat="45.62263" lon="6.85288">
        <ele>1723</ele>
        <time>2018-02-21T12:45:15Z</time>
      </trkpt>
      <trkpt lat="45.6227" lon="6.85263">
        <ele>1725</ele>
        <time>2018-02-21T12:46:15Z</time>
      </trkpt>
      <trkpt lat="45.62288" lon="6.85214">
        <ele>1726</ele>
        <time>2018-02-21T12:47:15Z</time>
      </trkpt>
      <trkpt lat="45.62307" lon="6.85155">
        <ele>1725</ele>
        <time>2018-02-21T12:48:15Z</time>
      </trkpt>
      <trkpt lat="45.62314" lon="6.85092">
        <ele>1721</ele>
        <time>2018-02-21T12:49:15Z</time>
      </trkpt>
      <trkpt lat="45.62317" lon="6.85081">
        <ele>1721</ele>
        <time>2018-02-21T12:50:15Z</time>
      </trkpt>
      <trkpt lat="45.62322" lon="6.85075">
        <ele>1723</ele>
        <time>2018-02-21T12:51:15Z</time>
      </trkpt>
      <trkpt lat="45.62326" lon="6.85073">
        <ele>1724</ele>
        <time>2018-02-21T12:52:15Z</time>
      </trkpt>
      <trkpt lat="45.62332" lon="6.85076">
        <ele>1726</ele>
        <time>2018-02-21T12:53:15Z</time>
      </trkpt>
      <trkpt lat="45.62335" lon="6.85086">
        <ele>1728</ele>
        <time>2018-02-21T12:54:15Z</time>
      </trkpt>
      <trkpt lat="45.62333" lon="6.85101">
        <ele>1729</ele>
        <time>2018-02-21T12:55:15Z</time>
      </trkpt>
      <trkpt lat="45.62319" lon="6.85168">
        <ele>1730</ele>
        <time>2018-02-21T12:56:15Z</time>
      </trkpt>
      <trkpt lat="45.62297" lon="6.85241">
        <ele>1733</ele>
        <time>2018-02-21T12:57:15Z</time>
      </trkpt>
      <trkpt lat="45.62284" lon="6.85331">
        <ele>1733</ele>
        <time>2018-02-21T12:58:15Z</time>
      </trkpt>
      <trkpt lat="45.62285" lon="6.85358">
        <ele>1732</ele>
        <time>2018-02-21T12:59:15Z</time>
      </trkpt>
      <trkpt lat="45.62302" lon="6.85482">
        <ele>1738</ele>
        <time>2018-02-21T13:00:15Z</time>
      </trkpt>
      <trkpt lat="45.62306" lon="6.85531">
        <ele>1743</ele>
        <time>2018-02-21T13:01:15Z</time>
      </trkpt>
      <trkpt lat="45.62305" lon="6.85568">
        <ele>1746</ele>
        <time>2018-02-21T13:02:15Z</time>
      </trkpt>
      <trkpt lat="45.62294" lon="6.85699">
        <ele>1754</ele>
        <time>2018-02-21T13:03:15Z</time>
      </trkpt>
      <trkpt lat="45.62291" lon="6.85719">
        <ele>1755</ele>
        <time>2018-02-21T13:04:15Z</time>
      </trkpt>
      <trkpt lat="45.62284" lon="6.8574">
        <ele>1754</ele>
        <time>2018-02-21T13:05:15Z</time>
      </trkpt>
      <trkpt lat="45.6227" lon="6.85765">
        <ele>1750</ele>
        <time>2018-02-21T13:06:15Z</time>
      </trkpt>
      <trkpt lat="45.62262" lon="6.85784">
        <ele>1747</ele>
        <time>2018-02-21T13:07:15Z</time>
      </trkpt>
      <trkpt lat="45.6226" lon="6.85792">
        <ele>1747</ele>
        <time>2018-02-21T13:08:15Z</time>
      </trkpt>
      <trkpt lat="45.6226" lon="6.85818">
        <ele>1748</ele>
        <time>2018-02-21T13:09:15Z</time>
      </trkpt>
      <trkpt lat="45.62269" lon="6.85969">
        <ele>1756</ele>
        <time>2018-02-21T13:10:15Z</time>
      </trkpt>
      <trkpt lat="45.62273" lon="6.85991">
        <ele>1757</ele>
        <time>2018-02-21T13:11:15Z</time>
      </trkpt>
      <trkpt lat="45.6228" lon="6.86012">
        <ele>1758</ele>
        <time>2018-02-21T13:12:15Z</time>
      </trkpt>
      <trkpt lat="45.62309" lon="6.86073">
        <ele>1764</ele>
        <time>2018-02-21T13:13:15Z</time>
      </trkpt>
      <trkpt lat="45.62321" lon="6.86101">
        <ele>1766</ele>
        <time>2018-02-21T13:14:15Z</time>
      </trkpt>
      <trkpt lat="45.62329" lon="6.86131">
        <ele>1767</ele>
        <time>2018-02-21T13:15:15Z</time>
      </trkpt>
      <trkpt lat="45.62344" lon="6.86216">
        <ele>1766</ele>
        <time>2018-02-21T13:16:15Z</time>
      </trkpt>
      <trkpt lat="45.62364" lon="6.86304">
        <ele>1768</ele>
        <time>2018-02-21T13:17:15Z</time>
      </trkpt>
      <trkpt lat="45.62378" lon="6.86404">
        <ele>1770</ele>
        <time>2018-02-21T13:18:15Z</time>
      </trkpt>
      <trkpt lat="45.62386" lon="6.86456">
        <ele>1770</ele>
        <time>2018-02-21T13:19:15Z</time>
      </trkpt>
      <trkpt lat="45.62396" lon="6.86502">
        <ele>1771</ele>
        <time>2018-02-21T13:20:15Z</time>
      </trkpt>
      <trkpt lat="45.62403" lon="6.86518">
        <ele>1773</ele>
        <time>2018-02-21T13:21:15Z</time>
      </trkpt>
      <trkpt lat="45.62407" lon="6.86523">
        <ele>1774</ele>
        <time>2018-02-21T13:22:15Z</time>
      </trkpt>
      <trkpt lat="45.62414" lon="6.86526">
        <ele>1777</ele>
        <time>2018-02-21T13:23:15Z</time>
      </trkpt>
      <trkpt lat="45.62419" lon="6.86524">
        <ele>1779</ele>
        <time>2018-02-21T13:24:15Z</time>
      </trkpt>
      <trkpt lat="45.62422" lon="6.86519">
        <ele>1780</ele>
        <time>2018-02-21T13:25:15Z</time>
      </trkpt>
      <trkpt lat="45.62423" lon="6.8651">
        <ele>1781</ele>
        <time>2018-02-21T13:26:15Z</time>
      </trkpt>
      <trkpt lat="45.6242" lon="6.86496">
        <ele>1781</ele>
        <time>2018-02-21T13:27:15Z</time>
      </trkpt>
      <trkpt lat="45.62404" lon="6.86463">
        <ele>1777</ele>
        <time>2018-02-21T13:28:15Z</time>
      </trkpt>
      <trkpt lat="45.624" lon="6.86445">
        <ele>1777</ele>
        <time>2018-02-21T13:29:15Z</time>
      </trkpt>
      <trkpt lat="45.624" lon="6.86409">
        <ele>1779</ele>
        <time>2018-02-21T13:30:15Z</time>
      </trkpt>
      <trkpt lat="45.62405" lon="6.86337">
        <ele>1784</ele>
        <time>2018-02-21T13:31:15Z</time>
      </trkpt>
      <trkpt lat="45.62414" lon="6.86274">
        <ele>1791</ele>
        <time>2018-02-21T13:32:15Z</time>
      </trkpt>
      <trkpt lat="45.62414" lon="6.86252">
        <ele>1793</ele>
        <time>2018-02-21T13:33:15Z</time>
      </trkpt>
      <trkpt lat="45.62409" lon="6.86193">
        <ele>1794</ele>
        <time>2018-02-21T13:34:15Z</time>
      </trkpt>
      <trkpt lat="45.62407" lon="6.86119">
        <ele>1798</ele>
        <time>2018-02-21T13:35:15Z</time>
      </trkpt>
      <trkpt lat="45.624" lon="6.86067">
        <ele>1799</ele>
        <time>2018-02-21T13:36:15Z</time>
      </trkpt>
      <trkpt lat="45.62399" lon="6.86047">
        <ele>1800</ele>
        <time>2018-02-21T13:37:15Z</time>
      </trkpt>
      <trkpt lat="45.62399" lon="6.85844">
        <ele>1807</ele>
        <time>2018-02-21T13:38:15Z</time>
      </trkpt>
      <trkpt lat="45.62401" lon="6.85829">
        <ele>1808</ele>
        <time>2018-02-21T13:39:15Z</time>
      </trkpt>
      <trkpt lat="45.62404" lon="6.85821">
        <ele>1808</ele>
        <time>2018-02-21T13:40:15Z</time>
      </trkpt>
      <trkpt lat="45.62412" lon="6.85823">
        <ele>1811</ele>
        <time>2018-02-21T13:41:15Z</time>
      </trkpt>
      <trkpt lat="45.62417" lon="6.85816">
        <ele>1813</ele>
        <time>2018-02-21T13:42:15Z</time>
      </trkpt>
      <trkpt lat="45.62418" lon="6.85807">
        <ele>1813</ele>
        <time>2018-02-21T13:43:15Z</time>
      </trkpt>
      <trkpt lat="45.62415" lon="6.85799">
        <ele>1811</ele>
        <time>2018-02-21T13:44:15Z</time>
      </trkpt>
      <trkpt lat="45.62412" lon="6.85796">
        <ele>1810</ele>
        <time>2018-02-21T13:45:15Z</time>
      </trkpt>
      <trkpt lat="45.62417" lon="6.85777">
        <ele>1810</ele>
        <time>2018-02-21T13:46:15Z</time>
      </trkpt>
      <trkpt lat="45.62422" lon="6.85763">
        <ele>1810</ele>
        <time>2018-02-21T13:47:15Z</time>
      </trkpt>
      <trkpt lat="45.6244" lon="6.85736">
        <ele>1813</ele>
        <time>2018-02-21T13:48:15Z</time>
      </trkpt>
      <trkpt lat="45.62473" lon="6.857">
        <ele>1817</ele>
        <time>2018-02-21T13:49:15Z</time>
      </trkpt>
      <trkpt lat="45.62488" lon="6.85679">
        <ele>1818</ele>
        <time>2018-02-21T13:50:15Z</time>
      </trkpt>
      <trkpt lat="45.62494" lon="6.85669">
        <ele>1818</ele>
        <time>2018-02-21T13:51:15Z</time>
      </trkpt>
      <trkpt lat="45.6254" lon="6.85556">
        <ele>1823</ele>
        <time>2018-02-21T13:52:15Z</time>
      </trkpt>
      <trkpt lat="45.6256" lon="6.85522">
        <ele>1828</ele>
        <time>2018-02-21T13:53:15Z</time>
      </trkpt>
      <trkpt lat="45.62564" lon="6.85509">
        <ele>1828</ele>
        <time>2018-02-21T13:54:15Z</time>
      </trkpt>
      <trkpt lat="45.62566" lon="6.85492">
        <ele>1828</ele>
        <time>2018-02-21T13:55:15Z</time>
      </trkpt>
      <trkpt lat="45.62565" lon="6.85428">
        <ele>1829</ele>
        <time>2018-02-21T13:56:15Z</time>
      </trkpt>
      <trkpt lat="45.62574" lon="6.85367">
        <ele>1833</ele>
        <time>2018-02-21T13:57:15Z</time>
      </trkpt>
      <trkpt lat="45.62577" lon="6.85282">
        <ele>1835</ele>
        <time>2018-02-21T13:58:15Z</time>
      </trkpt>
      <trkpt lat="45.62581" lon="6.85239">
        <ele>1836</ele>
        <time>2018-02-21T13:59:15Z</time>
      </trkpt>
      <trkpt lat="45.62584" lon="6.85222">
        <ele>1837</ele>
        <time>2018-02-21T14:00:15Z</time>
      </trkpt>
      <trkpt lat="45.626" lon="6.85161">
        <ele>1839</ele>
        <time>2018-02-21T14:01:15Z</time>
      </trkpt>
      <trkpt lat="45.62609" lon="6.85135">
        <ele>1838</ele>
        <time>2018-02-21T14:02:15Z</time>
      </trkpt>
      <trkpt lat="45.62622" lon="6.85107">
        <ele>1837</ele>
        <time>2018-02-21T14:03:15Z</time>
      </trkpt>
      <trkpt lat="45.62661" lon="6.85062">
        <ele>1841</ele>
        <time>2018-02-21T14:04:15Z</time>
      </trkpt>
      <trkpt lat="45.62669" lon="6.85048">
        <ele>1842</ele>
        <time>2018-02-21T14:05:15Z</time>
      </trkpt>
      <trkpt lat="45.62673" lon="6.85032">
        <ele>1841</ele>
        <time>2018-02-21T14:06:15Z</time>
      </trkpt>
      <trkpt lat="45.62673" lon="6.85032">
        <ele>1841</ele>
        <time>2018-02-21T14:07:15Z</time>
      </trkpt>
      <trkpt lat="45.62679" lon="6.85013">
        <ele>1841</ele>
        <time>2018-02-21T14:08:15Z</time>
      </trkpt>
      <trkpt lat="45.62686" lon="6.84998">
        <ele>1841</ele>
        <time>2018-02-21T14:09:15Z</time>
      </trkpt>
      <trkpt lat="45.62697" lon="6.8498">
        <ele>1841</ele>
        <time>2018-02-21T14:10:15Z</time>
      </trkpt>
      <trkpt lat="45.6271" lon="6.84968">
        <ele>1843</ele>
        <time>2018-02-21T14:11:15Z</time>
      </trkpt>
      <trkpt lat="45.62725" lon="6.84959">
        <ele>1845</ele>
        <time>2018-02-21T14:12:15Z</time>
      </trkpt>
      <trkpt lat="45.62734" lon="6.84947">
        <ele>1846</ele>
        <time>2018-02-21T14:13:15Z</time>
      </trkpt>
      <trkpt lat="45.62766" lon="6.84888">
        <ele>1847</ele>
        <time>2018-02-21T14:14:15Z</time>
      </trkpt>
      <trkpt lat="45.62781" lon="6.84869">
        <ele>1847</ele>
        <time>2018-02-21T14:15:15Z</time>
      </trkpt>
      <trkpt lat="45.62803" lon="6.84852">
        <ele>1849</ele>
        <time>2018-02-21T14:16:15Z</time>
      </trkpt>
      <trkpt lat="45.6282" lon="6.84842">
        <ele>1850</ele>
        <time>2018-02-21T14:17:15Z</time>
      </trkpt>
      <trkpt lat="45.62868" lon="6.84819">
        <ele>1854</ele>
        <time>2018-02-21T14:18:15Z</time>
      </trkpt>
      <trkpt lat="45.62886" lon="6.84807">
        <ele>1856</ele>
        <time>2018-02-21T14:19:15Z</time>
      </trkpt>
      <trkpt lat="45.62903" lon="6.84791">
        <ele>1857</ele>
        <time>2018-02-21T14:20:15Z</time>
      </trkpt>
      <trkpt lat="45.62976" lon="6.84704">
        <ele>1858</ele>
        <time>2018-02-21T14:21:15Z</time>
      </trkpt>
      <trkpt lat="45.63" lon="6.84671">
        <ele>1857</ele>
        <time>2018-02-21T14:22:15Z</time>
      </trkpt>
      <trkpt lat="45.63005" lon="6.84666">
        <ele>1856</ele>
        <time>2018-02-21T14:23:15Z</time>
      </trkpt>
      <trkpt lat="45.63016" lon="6.84662">
        <ele>1853</ele>
        <time>2018-02-21T14:24:15Z</time>
      </trkpt>
      <trkpt lat="45.63024" lon="6.84664">
        <ele>1853</ele>
        <time>2018-02-21T14:25:15Z</time>
      </trkpt>
      <trkpt lat="45.63047" lon="6.84693">
        <ele>1854</ele>
        <time>2018-02-21T14:26:15Z</time>
      </trkpt>
      <trkpt lat="45.63062" lon="6.84707">
        <ele>1855</ele>
        <time>2018-02-21T14:27:15Z</time>
      </trkpt>
      <trkpt lat="45.63106" lon="6.84734">
        <ele>1855</ele>
        <time>2018-02-21T14:28:15Z</time>
      </trkpt>
      <trkpt lat="45.63135" lon="6.84771">
        <ele>1861</ele>
        <time>2018-02-21T14:29:15Z</time>
      </trkpt>
      <trkpt lat="45.63164" lon="6.8479">
        <ele>1862</ele>
        <time>2018-02-21T14:30:15Z</time>
      </trkpt>
      <trkpt lat="45.6318" lon="6.84805">
        <ele>1863</ele>
        <time>2018-02-21T14:31:15Z</time>
      </trkpt>
      <trkpt lat="45.63195" lon="6.84823">
        <ele>1866</ele>
        <time>2018-02-21T14:32:15Z</time>
      </trkpt>
      <trkpt lat="45.6322" lon="6.84862">
        <ele>1875</ele>
        <time>2018-02-21T14:33:15Z</time>
      </trkpt>
      <trkpt lat="45.6325" lon="6.84892">
        <ele>1881</ele>
        <time>2018-02-21T14:34:15Z</time>
      </trkpt>
      <trkpt lat="45.63268" lon="6.84901">
        <ele>1882</ele>
        <time>2018-02-21T14:35:15Z</time>
      </trkpt>
      <trkpt lat="45.63297" lon="6.84909">
        <ele>1881</ele>
        <time>2018-02-21T14:36:15Z</time>
      </trkpt>
      <trkpt lat="45.63347" lon="6.84905">
        <ele>1874</ele>
        <time>2018-02-21T14:37:15Z</time>
      </trkpt>
      <trkpt lat="45.63402" lon="6.84911">
        <ele>1876</ele>
        <time>2018-02-21T14:38:15Z</time>
      </trkpt>
      <trkpt lat="45.63427" lon="6.84917">
        <ele>1876</ele>
        <time>2018-02-21T14:39:15Z</time>
      </trkpt>
      <trkpt lat="45.63441" lon="6.84925">
        <ele>1876</ele>
        <time>2018-02-21T14:40:15Z</time>
      </trkpt>
      <trkpt lat="45.63453" lon="6.84937">
        <ele>1877</ele>
        <time>2018-02-21T14:41:15Z</time>
      </trkpt>
      <trkpt lat="45.63462" lon="6.84951">
        <ele>1880</ele>
        <time>2018-02-21T14:42:15Z</time>
      </trkpt>
      <trkpt lat="45.63477" lon="6.84989">
        <ele>1889</ele>
        <time>2018-02-21T14:43:15Z</time>
      </trkpt>
      <trkpt lat="45.63486" lon="6.85003">
        <ele>1891</ele>
        <time>2018-02-21T14:44:15Z</time>
      </trkpt>
      <trkpt lat="45.63497" lon="6.85012">
        <ele>1891</ele>
        <time>2018-02-21T14:45:15Z</time>
      </trkpt>
      <trkpt lat="45.63507" lon="6.85019">
        <ele>1892</ele>
        <time>2018-02-21T14:46:15Z</time>
      </trkpt>
      <trkpt lat="45.63549" lon="6.85033">
        <ele>1895</ele>
        <time>2018-02-21T14:47:15Z</time>
      </trkpt>
      <trkpt lat="45.63583" lon="6.85053">
        <ele>1900</ele>
        <time>2018-02-21T14:48:15Z</time>
      </trkpt>
      <trkpt lat="45.63591" lon="6.85052">
        <ele>1902</ele>
        <time>2018-02-21T14:49:15Z</time>
      </trkpt>
      <trkpt lat="45.63597" lon="6.85047">
        <ele>1902</ele>
        <time>2018-02-21T14:50:15Z</time>
      </trkpt>
      <trkpt lat="45.63671" lon="6.84964">
        <ele>1897</ele>
        <time>2018-02-21T14:51:15Z</time>
      </trkpt>
      <trkpt lat="45.63693" lon="6.84946">
        <ele>1903</ele>
        <time>2018-02-21T14:52:15Z</time>
      </trkpt>
      <trkpt lat="45.63703" lon="6.84936">
        <ele>1905</ele>
        <time>2018-02-21T14:53:15Z</time>
      </trkpt>
      <trkpt lat="45.6371" lon="6.84925">
        <ele>1904</ele>
        <time>2018-02-21T14:54:15Z</time>
      </trkpt>
      <trkpt lat="45.63725" lon="6.8489">
        <ele>1903</ele>
        <time>2018-02-21T14:55:15Z</time>
      </trkpt>
      <trkpt lat="45.63742" lon="6.84863">
        <ele>1903</ele>
        <time>2018-02-21T14:56:15Z</time>
      </trkpt>
      <trkpt lat="45.63749" lon="6.84849">
        <ele>1903</ele>
        <time>2018-02-21T14:57:15Z</time>
      </trkpt>
      <trkpt lat="45.63758" lon="6.84826">
        <ele>1903</ele>
        <time>2018-02-21T14:58:15Z</time>
      </trkpt>
      <trkpt lat="45.63762" lon="6.84808">
        <ele>1905</ele>
        <time>2018-02-21T14:59:15Z</time>
      </trkpt>
      <trkpt lat="45.63765" lon="6.84739">
        <ele>1904</ele>
        <time>2018-02-21T15:00:15Z</time>
      </trkpt>
      <trkpt lat="45.63767" lon="6.84721">
        <ele>1903</ele>
        <time>2018-02-21T15:01:15Z</time>
      </trkpt>
      <trkpt lat="45.63774" lon="6.84699">
        <ele>1901</ele>
        <time>2018-02-21T15:02:15Z</time>
      </trkpt>
      <trkpt lat="45.63783" lon="6.84687">
        <ele>1901</ele>
        <time>2018-02-21T15:03:15Z</time>
      </trkpt>
      <trkpt lat="45.63795" lon="6.84677">
        <ele>1902</ele>
        <time>2018-02-21T15:04:15Z</time>
      </trkpt>
      <trkpt lat="45.6381" lon="6.84669">
        <ele>1902</ele>
        <time>2018-02-21T15:05:15Z</time>
      </trkpt>
      <trkpt lat="45.63861" lon="6.84666">
        <ele>1912</ele>
        <time>2018-02-21T15:06:15Z</time>
      </trkpt>
      <trkpt lat="45.63887" lon="6.84654">
        <ele>1915</ele>
        <time>2018-02-21T15:07:15Z</time>
      </trkpt>
      <trkpt lat="45.63914" lon="6.84647">
        <ele>1921</ele>
        <time>2018-02-21T15:08:15Z</time>
      </trkpt>
      <trkpt lat="45.63928" lon="6.8464">
        <ele>1923</ele>
        <time>2018-02-21T15:09:15Z</time>
      </trkpt>
      <trkpt lat="45.63936" lon="6.84632">
        <ele>1923</ele>
        <time>2018-02-21T15:10:15Z</time>
      </trkpt>
      <trkpt lat="45.63954" lon="6.84601">
        <ele>1919</ele>
        <time>2018-02-21T15:11:15Z</time>
      </trkpt>
      <trkpt lat="45.63965" lon="6.84589">
        <ele>1918</ele>
        <time>2018-02-21T15:12:15Z</time>
      </trkpt>
      <trkpt lat="45.64022" lon="6.84539">
        <ele>1919</ele>
        <time>2018-02-21T15:13:15Z</time>
      </trkpt>
      <trkpt lat="45.64057" lon="6.8452">
        <ele>1924</ele>
        <time>2018-02-21T15:14:15Z</time>
      </trkpt>
      <trkpt lat="45.64082" lon="6.84496">
        <ele>1924</ele>
        <time>2018-02-21T15:15:15Z</time>
      </trkpt>
      <trkpt lat="45.64122" lon="6.84455">
        <ele>1919</ele>
        <time>2018-02-21T15:16:15Z</time>
      </trkpt>
      <trkpt lat="45.64147" lon="6.84436">
        <ele>1919</ele>
        <time>2018-02-21T15:17:15Z</time>
      </trkpt>
      <trkpt lat="45.64166" lon="6.84428">
        <ele>1921</ele>
        <time>2018-02-21T15:18:15Z</time>
      </trkpt>
      <trkpt lat="45.64176" lon="6.84433">
        <ele>1919</ele>
        <time>2018-02-21T15:19:15Z</time>
      </trkpt>
      <trkpt lat="45.64181" lon="6.84442">
        <ele>1919</ele>
        <time>2018-02-21T15:20:15Z</time>
      </trkpt>
      <trkpt lat="45.64203" lon="6.84518">
        <ele>1932</ele>
        <time>2018-02-21T15:21:15Z</time>
      </trkpt>
      <trkpt lat="45.64219" lon="6.84554">
        <ele>1935</ele>
        <time>2018-02-21T15:22:15Z</time>
      </trkpt>
      <trkpt lat="45.64266" lon="6.84619">
        <ele>1935</ele>
        <time>2018-02-21T15:23:15Z</time>
      </trkpt>
      <trkpt lat="45.64315" lon="6.84699">
        <ele>1943</ele>
        <time>2018-02-21T15:24:15Z</time>
      </trkpt>
      <trkpt lat="45.64328" lon="6.84717">
        <ele>1945</ele>
        <time>2018-02-21T15:25:15Z</time>
      </trkpt>
      <trkpt lat="45.64372" lon="6.84763">
        <ele>1949</ele>
        <time>2018-02-21T15:26:15Z</time>
      </trkpt>
      <trkpt lat="45.64382" lon="6.84767">
        <ele>1948</ele>
        <time>2018-02-21T15:27:15Z</time>
      </trkpt>
      <trkpt lat="45.64404" lon="6.84773">
        <ele>1946</ele>
        <time>2018-02-21T15:28:15Z</time>
      </trkpt>
      <trkpt lat="45.64417" lon="6.84779">
        <ele>1945</ele>
        <time>2018-02-21T15:29:15Z</time>
      </trkpt>
      <trkpt lat="45.64434" lon="6.84794">
        <ele>1943</ele>
        <time>2018-02-21T15:30:15Z</time>
      </trkpt>
      <trkpt lat="45.64448" lon="6.8481">
        <ele>1943</ele>
        <time>2018-02-21T15:31:15Z</time>
      </trkpt>
      <trkpt lat="45.64464" lon="6.84835">
        <ele>1944</ele>
        <time>2018-02-21T15:32:15Z</time>
      </trkpt>
      <trkpt lat="45.64488" lon="6.84888">
        <ele>1953</ele>
        <time>2018-02-21T15:33:15Z</time>
      </trkpt>
      <trkpt lat="45.64496" lon="6.84902">
        <ele>1955</ele>
        <time>2018-02-21T15:34:15Z</time>
      </trkpt>
      <trkpt lat="45.6451" lon="6.8492">
        <ele>1956</ele>
        <time>2018-02-21T15:35:15Z</time>
      </trkpt>
      <trkpt lat="45.64537" lon="6.84945">
        <ele>1950</ele>
        <time>2018-02-21T15:36:15Z</time>
      </trkpt>
      <trkpt lat="45.64542" lon="6.84953">
        <ele>1950</ele>
        <time>2018-02-21T15:37:15Z</time>
      </trkpt>
      <trkpt lat="45.6457" lon="6.85014">
        <ele>1955</ele>
        <time>2018-02-21T15:38:15Z</time>
      </trkpt>
      <trkpt lat="45.64634" lon="6.85092">
        <ele>1957</ele>
        <time>2018-02-21T15:39:15Z</time>
      </trkpt>
      <trkpt lat="45.64668" lon="6.8514">
        <ele>1962</ele>
        <time>2018-02-21T15:40:15Z</time>
      </trkpt>
      <trkpt lat="45.64708" lon="6.852">
        <ele>1976</ele>
        <time>2018-02-21T15:41:15Z</time>
      </trkpt>
      <trkpt lat="45.64719" lon="6.85207">
        <ele>1976</ele>
        <time>2018-02-21T15:42:15Z</time>
      </trkpt>
      <trkpt lat="45.64754" lon="6.85211">
        <ele>1967</ele>
        <time>2018-02-21T15:43:15Z</time>
      </trkpt>
      <trkpt lat="45.64772" lon="6.85219">
        <ele>1967</ele>
        <time>2018-02-21T15:44:15Z</time>
      </trkpt>
      <trkpt lat="45.64815" lon="6.85244">
        <ele>1968</ele>
        <time>2018-02-21T15:45:15Z</time>
      </trkpt>
      <trkpt lat="45.64877" lon="6.85276">
        <ele>1968</ele>
        <time>2018-02-21T15:46:15Z</time>
      </trkpt>
      <trkpt lat="45.64894" lon="6.85286">
        <ele>1968</ele>
        <time>2018-02-21T15:47:15Z</time>
      </trkpt>
      <trkpt lat="45.64902" lon="6.85295">
        <ele>1968</ele>
        <time>2018-02-21T15:48:15Z</time>
      </trkpt>
      <trkpt lat="45.64914" lon="6.85319">
        <ele>1972</ele>
        <time>2018-02-21T15:49:15Z</time>
      </trkpt>
      <trkpt lat="45.64958" lon="6.85415">
        <ele>1974</ele>
        <time>2018-02-21T15:50:15Z</time>
      </trkpt>
      <trkpt lat="45.64963" lon="6.85437">
        <ele>1977</ele>
        <time>2018-02-21T15:51:15Z</time>
      </trkpt>
      <trkpt lat="45.64968" lon="6.85467">
        <ele>1981</ele>
        <time>2018-02-21T15:52:15Z</time>
      </trkpt>
      <trkpt lat="45.64972" lon="6.85483">
        <ele>1982</ele>
        <time>2018-02-21T15:53:15Z</time>
      </trkpt>
      <trkpt lat="45.64978" lon="6.85499">
        <ele>1983</ele>
        <time>2018-02-21T15:54:15Z</time>
      </trkpt>
      <trkpt lat="45.64993" lon="6.85526">
        <ele>1984</ele>
        <time>2018-02-21T15:55:15Z</time>
      </trkpt>
      <trkpt lat="45.65015" lon="6.85561">
        <ele>1983</ele>
        <time>2018-02-21T15:56:15Z</time>
      </trkpt>
      <trkpt lat="45.65045" lon="6.85629">
        <ele>1993</ele>
        <time>2018-02-21T15:57:15Z</time>
      </trkpt>
      <trkpt lat="45.65051" lon="6.85637">
        <ele>1993</ele>
        <time>2018-02-21T15:58:15Z</time>
      </trkpt>
      <trkpt lat="45.65062" lon="6.85647">
        <ele>1991</ele>
        <time>2018-02-21T15:59:15Z</time>
      </trkpt>
      <trkpt lat="45.65101" lon="6.85668">
        <ele>1984</ele>
        <time>2018-02-21T16:00:15Z</time>
      </trkpt>
      <trkpt lat="45.65172" lon="6.85718">
        <ele>1987</ele>
        <time>2018-02-21T16:01:15Z</time>
      </trkpt>
      <trkpt lat="45.65189" lon="6.85733">
        <ele>1988</ele>
        <time>2018-02-21T16:02:15Z</time>
      </trkpt>
      <trkpt lat="45.6522" lon="6.85773">
        <ele>1996</ele>
        <time>2018-02-21T16:03:15Z</time>
      </trkpt>
      <trkpt lat="45.65243" lon="6.85793">
        <ele>1999</ele>
        <time>2018-02-21T16:04:15Z</time>
      </trkpt>
      <trkpt lat="45.653" lon="6.85818">
        <ele>1990</ele>
        <time>2018-02-21T16:05:15Z</time>
      </trkpt>
      <trkpt lat="45.65314" lon="6.85828">
        <ele>1989</ele>
        <time>2018-02-21T16:06:15Z</time>
      </trkpt>
      <trkpt lat="45.65331" lon="6.85842">
        <ele>1989</ele>
        <time>2018-02-21T16:07:15Z</time>
      </trkpt>
      <trkpt lat="45.65357" lon="6.85873">
        <ele>1993</ele>
        <time>2018-02-21T16:08:15Z</time>
      </trkpt>
      <trkpt lat="45.65393" lon="6.85928">
        <ele>2003</ele>
        <time>2018-02-21T16:09:15Z</time>
      </trkpt>
      <trkpt lat="45.6541" lon="6.85949">
        <ele>2005</ele>
        <time>2018-02-21T16:10:15Z</time>
      </trkpt>
      <trkpt lat="45.65427" lon="6.8596">
        <ele>2004</ele>
        <time>2018-02-21T16:11:15Z</time>
      </trkpt>
      <trkpt lat="45.65467" lon="6.85972">
        <ele>1997</ele>
        <time>2018-02-21T16:12:15Z</time>
      </trkpt>
      <trkpt lat="45.65483" lon="6.85985">
        <ele>1996</ele>
        <time>2018-02-21T16:13:15Z</time>
      </trkpt>
      <trkpt lat="45.65497" lon="6.86007">
        <ele>1999</ele>
        <time>2018-02-21T16:14:15Z</time>
      </trkpt>
      <trkpt lat="45.65529" lon="6.86078">
        <ele>2013</ele>
        <time>2018-02-21T16:15:15Z</time>
      </trkpt>
      <trkpt lat="45.65539" lon="6.86095">
        <ele>2017</ele>
        <time>2018-02-21T16:16:15Z</time>
      </trkpt>
      <trkpt lat="45.65548" lon="6.86107">
        <ele>2019</ele>
        <time>2018-02-21T16:17:15Z</time>
      </trkpt>
      <trkpt lat="45.65562" lon="6.86118">
        <ele>2020</ele>
        <time>2018-02-21T16:18:15Z</time>
      </trkpt>
      <trkpt lat="45.65569" lon="6.86121">
        <ele>2019</ele>
        <time>2018-02-21T16:19:15Z</time>
      </trkpt>
      <trkpt lat="45.65602" lon="6.86129">
        <ele>2014</ele>
        <time>2018-02-21T16:20:15Z</time>
      </trkpt>
      <trkpt lat="45.65614" lon="6.86134">
        <ele>2012</ele>
        <time>2018-02-21T16:21:15Z</time>
      </trkpt>
      <trkpt lat="45.65633" lon="6.86151">
        <ele>2013</ele>
        <time>2018-02-21T16:22:15Z</time>
      </trkpt>
      <trkpt lat="45.65657" lon="6.86184">
        <ele>2015</ele>
        <time>2018-02-21T16:23:15Z</time>
      </trkpt>
      <trkpt lat="45.65664" lon="6.86197">
        <ele>2016</ele>
        <time>2018-02-21T16:24:15Z</time>
      </trkpt>
      <trkpt lat="45.65675" lon="6.86239">
        <ele>2025</ele>
        <time>2018-02-21T16:25:15Z</time>
      </trkpt>
      <trkpt lat="45.65685" lon="6.86262">
        <ele>2029</ele>
        <time>2018-02-21T16:26:15Z</time>
      </trkpt>
      <trkpt lat="45.65695" lon="6.86275">
        <ele>2031</ele>
        <time>2018-02-21T16:27:15Z</time>
      </trkpt>
      <trkpt lat="45.65728" lon="6.86313">
        <ele>2034</ele>
        <time>2018-02-21T16:28:15Z</time>
      </trkpt>
      <trkpt lat="45.65748" lon="6.8633">
        <ele>2032</ele>
        <time>2018-02-21T16:29:15Z</time>
      </trkpt>
      <trkpt lat="45.65774" lon="6.86342">
        <ele>2032</ele>
        <time>2018-02-21T16:30:15Z</time>
      </trkpt>
      <trkpt lat="45.6579" lon="6.86352">
        <ele>2033</ele>
        <time>2018-02-21T16:31:15Z</time>
      </trkpt>
      <trkpt lat="45.6583" lon="6.86392">
        <ele>2036</ele>
        <time>2018-02-21T16:32:15Z</time>
      </trkpt>
      <trkpt lat="45.65845" lon="6.86402">
        <ele>2035</ele>
        <time>2018-02-21T16:33:15Z</time>
      </trkpt>
      <trkpt lat="45.6588" lon="6.86417">
        <ele>2029</ele>
        <time>2018-02-21T16:34:15Z</time>
      </trkpt>
      <trkpt lat="45.65902" lon="6.86433">
        <ele>2029</ele>
        <time>2018-02-21T16:35:15Z</time>
      </trkpt>
      <trkpt lat="45.65916" lon="6.86454">
        <ele>2032</ele>
        <time>2018-02-21T16:36:15Z</time>
      </trkpt>
      <trkpt lat="45.65958" lon="6.86557">
        <ele>2047</ele>
        <time>2018-02-21T16:37:15Z</time>
      </trkpt>
      <trkpt lat="45.65969" lon="6.86578">
        <ele>2049</ele>
        <time>2018-02-21T16:38:15Z</time>
      </trkpt>
      <trkpt lat="45.65984" lon="6.86598">
        <ele>2049</ele>
        <time>2018-02-21T16:39:15Z</time>
      </trkpt>
      <trkpt lat="45.66011" lon="6.86626">
        <ele>2046</ele>
        <time>2018-02-21T16:40:15Z</time>
      </trkpt>
      <trkpt lat="45.66055" lon="6.86695">
        <ele>2049</ele>
        <time>2018-02-21T16:41:15Z</time>
      </trkpt>
      <trkpt lat="45.6611" lon="6.86757">
        <ele>2053</ele>
        <time>2018-02-21T16:42:15Z</time>
      </trkpt>
      <trkpt lat="45.66142" lon="6.868">
        <ele>2057</ele>
        <time>2018-02-21T16:43:15Z</time>
      </trkpt>
      <trkpt lat="45.66161" lon="6.86831">
        <ele>2060</ele>
        <time>2018-02-21T16:44:15Z</time>
      </trkpt>
      <trkpt lat="45.66175" lon="6.86873">
        <ele>2062</ele>
        <time>2018-02-21T16:45:15Z</time>
      </trkpt>
      <trkpt lat="45.66187" lon="6.86892">
        <ele>2062</ele>
        <time>2018-02-21T16:46:15Z</time>
      </trkpt>
      <trkpt lat="45.66198" lon="6.86902">
        <ele>2061</ele>
        <time>2018-02-21T16:47:15Z</time>
      </trkpt>
      <trkpt lat="45.66221" lon="6.86917">
        <ele>2059</ele>
        <time>2018-02-21T16:48:15Z</time>
      </trkpt>
      <trkpt lat="45.66233" lon="6.86931">
        <ele>2059</ele>
        <time>2018-02-21T16:49:15Z</time>
      </trkpt>
      <trkpt lat="45.66237" lon="6.86944">
        <ele>2060</ele>
        <time>2018-02-21T16:50:15Z</time>
      </trkpt>
      <trkpt lat="45.66241" lon="6.86963">
        <ele>2062</ele>
        <time>2018-02-21T16:51:15Z</time>
      </trkpt>
      <trkpt lat="45.66242" lon="6.8698">
        <ele>2064</ele>
        <time>2018-02-21T16:52:15Z</time>
      </trkpt>
      <trkpt lat="45.66238" lon="6.87012">
        <ele>2069</ele>
        <time>2018-02-21T16:53:15Z</time>
      </trkpt>
      <trkpt lat="45.66228" lon="6.87044">
        <ele>2075</ele>
        <time>2018-02-21T16:54:15Z</time>
      </trkpt>
      <trkpt lat="45.66227" lon="6.87053">
        <ele>2076</ele>
        <time>2018-02-21T16:55:15Z</time>
      </trkpt>
      <trkpt lat="45.66228" lon="6.87064">
        <ele>2078</ele>
        <time>2018-02-21T16:56:15Z</time>
      </trkpt>
      <trkpt lat="45.66231" lon="6.87069">
        <ele>2078</ele>
        <time>2018-02-21T16:57:15Z</time>
      </trkpt>
      <trkpt lat="45.66237" lon="6.87075">
        <ele>2078</ele>
        <time>2018-02-21T16:58:15Z</time>
      </trkpt>
      <trkpt lat="45.66245" lon="6.87075">
        <ele>2077</ele>
        <time>2018-02-21T16:59:15Z</time>
      </trkpt>
      <trkpt lat="45.66267" lon="6.87063">
        <ele>2076</ele>
        <time>2018-02-21T17:00:15Z</time>
      </trkpt>
      <trkpt lat="45.66304" lon="6.87045">
        <ele>2075</ele>
        <time>2018-02-21T17:01:15Z</time>
      </trkpt>
      <trkpt lat="45.66326" lon="6.87039">
        <ele>2074</ele>
        <time>2018-02-21T17:02:15Z</time>
      </trkpt>
      <trkpt lat="45.66333" lon="6.87039">
        <ele>2074</ele>
        <time>2018-02-21T17:03:15Z</time>
      </trkpt>
      <trkpt lat="45.6636" lon="6.87047">
        <ele>2076</ele>
        <time>2018-02-21T17:04:15Z</time>
      </trkpt>
      <trkpt lat="45.66395" lon="6.87053">
        <ele>2077</ele>
        <time>2018-02-21T17:05:15Z</time>
      </trkpt>
      <trkpt lat="45.66428" lon="6.87069">
        <ele>2080</ele>
        <time>2018-02-21T17:06:15Z</time>
      </trkpt>
      <trkpt lat="45.66449" lon="6.87083">
        <ele>2082</ele>
        <time>2018-02-21T17:07:15Z</time>
      </trkpt>
      <trkpt lat="45.66488" lon="6.8712">
        <ele>2091</ele>
        <time>2018-02-21T17:08:15Z</time>
      </trkpt>
      <trkpt lat="45.66502" lon="6.8713">
        <ele>2093</ele>
        <time>2018-02-21T17:09:15Z</time>
      </trkpt>
      <trkpt lat="45.66522" lon="6.87136">
        <ele>2094</ele>
        <time>2018-02-21T17:10:15Z</time>
      </trkpt>
      <trkpt lat="45.66564" lon="6.87143">
        <ele>2092</ele>
        <time>2018-02-21T17:11:15Z</time>
      </trkpt>
      <trkpt lat="45.66579" lon="6.87148">
        <ele>2092</ele>
        <time>2018-02-21T17:12:15Z</time>
      </trkpt>
      <trkpt lat="45.66601" lon="6.8716">
        <ele>2093</ele>
        <time>2018-02-21T17:13:15Z</time>
      </trkpt>
      <trkpt lat="45.66628" lon="6.87182">
        <ele>2099</ele>
        <time>2018-02-21T17:14:15Z</time>
      </trkpt>
      <trkpt lat="45.66642" lon="6.8719">
        <ele>2101</ele>
        <time>2018-02-21T17:15:15Z</time>
      </trkpt>
      <trkpt lat="45.66704" lon="6.87204">
        <ele>2100</ele>
        <time>2018-02-21T17:16:15Z</time>
      </trkpt>
      <trkpt lat="45.66719" lon="6.87211">
        <ele>2101</ele>
        <time>2018-02-21T17:17:15Z</time>
      </trkpt>
      <trkpt lat="45.66742" lon="6.87226">
        <ele>2102</ele>
        <time>2018-02-21T17:18:15Z</time>
      </trkpt>
      <trkpt lat="45.66758" lon="6.87232">
        <ele>2103</ele>
        <time>2018-02-21T17:19:15Z</time>
      </trkpt>
      <trkpt lat="45.66786" lon="6.87235">
        <ele>2105</ele>
        <time>2018-02-21T17:20:15Z</time>
      </trkpt>
      <trkpt lat="45.66815" lon="6.87226">
        <ele>2105</ele>
        <time>2018-02-21T17:21:15Z</time>
      </trkpt>
      <trkpt lat="45.66831" lon="6.87226">
        <ele>2106</ele>
        <time>2018-02-21T17:22:15Z</time>
      </trkpt>
      <trkpt lat="45.66845" lon="6.87235">
        <ele>2109</ele>
        <time>2018-02-21T17:23:15Z</time>
      </trkpt>
      <trkpt lat="45.66859" lon="6.8726">
        <ele>2114</ele>
        <time>2018-02-21T17:24:15Z</time>
      </trkpt>
      <trkpt lat="45.66864" lon="6.87266">
        <ele>2115</ele>
        <time>2018-02-21T17:25:15Z</time>
      </trkpt>
      <trkpt lat="45.6687" lon="6.8727">
        <ele>2116</ele>
        <time>2018-02-21T17:26:15Z</time>
      </trkpt>
      <trkpt lat="45.66877" lon="6.87272">
        <ele>2117</ele>
        <time>2018-02-21T17:27:15Z</time>
      </trkpt>
      <trkpt lat="45.6689" lon="6.8727">
        <ele>2118</ele>
        <time>2018-02-21T17:28:15Z</time>
      </trkpt>
      <trkpt lat="45.66919" lon="6.87251">
        <ele>2118</ele>
        <time>2018-02-21T17:29:15Z</time>
      </trkpt>
      <trkpt lat="45.66928" lon="6.87247">
        <ele>2119</ele>
        <time>2018-02-21T17:30:15Z</time>
      </trkpt>
      <trkpt lat="45.66934" lon="6.87247">
        <ele>2119</ele>
        <time>2018-02-21T17:31:15Z</time>
      </trkpt>
      <trkpt lat="45.66964" lon="6.87273">
        <ele>2123</ele>
        <time>2018-02-21T17:32:15Z</time>
      </trkpt>
      <trkpt lat="45.6701" lon="6.87293">
        <ele>2127</ele>
        <time>2018-02-21T17:33:15Z</time>
      </trkpt>
      <trkpt lat="45.67061" lon="6.8734">
        <ele>2130</ele>
        <time>2018-02-21T17:34:15Z</time>
      </trkpt>
      <trkpt lat="45.67065" lon="6.87346">
        <ele>2130</ele>
        <time>2018-02-21T17:35:15Z</time>
      </trkpt>
      <trkpt lat="45.67066" lon="6.87356">
        <ele>2132</ele>
        <time>2018-02-21T17:36:15Z</time>
      </trkpt>
      <trkpt lat="45.67064" lon="6.87367">
        <ele>2133</ele>
        <time>2018-02-21T17:37:15Z</time>
      </trkpt>
      <trkpt lat="45.6706" lon="6.87372">
        <ele>2133</ele>
        <time>2018-02-21T17:38:15Z</time>
      </trkpt>
      <trkpt lat="45.67051" lon="6.87376">
        <ele>2133</ele>
        <time>2018-02-21T17:39:15Z</time>
      </trkpt>
      <trkpt lat="45.67034" lon="6.87372">
        <ele>2132</ele>
        <time>2018-02-21T17:40:15Z</time>
      </trkpt>
      <trkpt lat="45.6702" lon="6.87361">
        <ele>2131</ele>
        <time>2018-02-21T17:41:15Z</time>
      </trkpt>
      <trkpt lat="45.6698" lon="6.87325">
        <ele>2127</ele>
        <time>2018-02-21T17:42:15Z</time>
      </trkpt>
      <trkpt lat="45.66962" lon="6.87316">
        <ele>2126</ele>
        <time>2018-02-21T17:43:15Z</time>
      </trkpt>
      <trkpt lat="45.6695" lon="6.87315">
        <ele>2125</ele>
        <time>2018-02-21T17:44:15Z</time>
      </trkpt>
      <trkpt lat="45.66943" lon="6.8732">
        <ele>2126</ele>
        <time>2018-02-21T17:45:15Z</time>
      </trkpt>
      <trkpt lat="45.66941" lon="6.87325">
        <ele>2126</ele>
        <time>2018-02-21T17:46:15Z</time>
      </trkpt>
      <trkpt lat="45.6694" lon="6.8733">
        <ele>2126</ele>
        <time>2018-02-21T17:47:15Z</time>
      </trkpt>
      <trkpt lat="45.66944" lon="6.87342">
        <ele>2127</ele>
        <time>2018-02-21T17:48:15Z</time>
      </trkpt>
      <trkpt lat="45.6721" lon="6.87645">
        <ele>2151</ele>
        <time>2018-02-21T17:49:15Z</time>
      </trkpt>
      <trkpt lat="45.6765" lon="6.88137">
        <ele>2174</ele>
        <time>2018-02-21T17:50:15Z</time>
      </trkpt>
      <trkpt lat="45.67662" lon="6.88149">
        <ele>2174</ele>
        <time>2018-02-21T17:51:15Z</time>
      </trkpt>
      <trkpt lat="45.67689" lon="6.88166">
        <ele>2175</ele>
        <time>2018-02-21T17:52:15Z</time>
      </trkpt>
      <trkpt lat="45.67892" lon="6.88265">
        <ele>2187</ele>
        <time>2018-02-21T17:53:15Z</time>
      </trkpt>
      <trkpt lat="45.67977" lon="6.88337">
        <ele>2191</ele>
        <time>2018-02-21T17:54:15Z</time>
      </trkpt>
      <trkpt lat="45.67977" lon="6.88337">
        <ele>2191</ele>
        <time>2018-02-21T17:55:15Z</time>
      </trkpt>
      <trkpt lat="45.67892" lon="6.88265">
        <ele>2187</ele>
        <time>2018-02-21T17:56:15Z</time>
      </trkpt>
      <trkpt lat="45.67689" lon="6.88166">
        <ele>2175</ele>
        <time>2018-02-21T17:57:15Z</time>
      </trkpt>
      <trkpt lat="45.67662" lon="6.88149">
        <ele>2174</ele>
        <time>2018-02-21T17:58:15Z</time>
      </trkpt>
      <trkpt lat="45.6765" lon="6.88137">
        <ele>2174</ele>
        <time>2018-02-21T17:59:15Z</time>
      </trkpt>
      <trkpt lat="45.6721" lon="6.87645">
        <ele>2151</ele>
        <time>2018-02-21T18:00:15Z</time>
      </trkpt>
      <trkpt lat="45.66944" lon="6.87342">
        <ele>2127</ele>
        <time>2018-02-21T18:01:15Z</time>
      </trkpt>
      <trkpt lat="45.6694" lon="6.8733">
        <ele>2126</ele>
        <time>2018-02-21T18:02:15Z</time>
      </trkpt>
      <trkpt lat="45.66941" lon="6.87325">
        <ele>2126</ele>
        <time>2018-02-21T18:03:15Z</time>
      </trkpt>
      <trkpt lat="45.66943" lon="6.8732">
        <ele>2126</ele>
        <time>2018-02-21T18:04:15Z</time>
      </trkpt>
      <trkpt lat="45.6695" lon="6.87315">
        <ele>2125</ele>
        <time>2018-02-21T18:05:15Z</time>
      </trkpt>
      <trkpt lat="45.66962" lon="6.87316">
        <ele>2126</ele>
        <time>2018-02-21T18:06:15Z</time>
      </trkpt>
      <trkpt lat="45.6698" lon="6.87325">
        <ele>2127</ele>
        <time>2018-02-21T18:07:15Z</time>
      </trkpt>
      <trkpt lat="45.6702" lon="6.87361">
        <ele>2131</ele>
        <time>2018-02-21T18:08:15Z</time>
      </trkpt>
      <trkpt lat="45.67034" lon="6.87372">
        <ele>2132</ele>
        <time>2018-02-21T18:09:15Z</time>
      </trkpt>
      <trkpt lat="45.67051" lon="6.87376">
        <ele>2133</ele>
        <time>2018-02-21T18:10:15Z</time>
      </trkpt>
      <trkpt lat="45.6706" lon="6.87372">
        <ele>2133</ele>
        <time>2018-02-21T18:11:15Z</time>
      </trkpt>
      <trkpt lat="45.67064" lon="6.87367">
        <ele>2133</ele>
        <time>2018-02-21T18:12:15Z</time>
      </trkpt>
      <trkpt lat="45.67066" lon="6.87356">
        <ele>2132</ele>
        <time>2018-02-21T18:13:15Z</time>
      </trkpt>
      <trkpt lat="45.67065" lon="6.87346">
        <ele>2130</ele>
        <time>2018-02-21T18:14:15Z</time>
      </trkpt>
      <trkpt lat="45.67061" lon="6.8734">
        <ele>2130</ele>
        <time>2018-02-21T18:15:15Z</time>
      </trkpt>
      <trkpt lat="45.6701" lon="6.87293">
        <ele>2127</ele>
        <time>2018-02-21T18:16:15Z</time>
      </trkpt>
      <trkpt lat="45.66964" lon="6.87273">
        <ele>2123</ele>
        <time>2018-02-21T18:17:15Z</time>
      </trkpt>
      <trkpt lat="45.66934" lon="6.87247">
        <ele>2119</ele>
        <time>2018-02-21T18:18:15Z</time>
      </trkpt>
      <trkpt lat="45.66928" lon="6.87247">
        <ele>2119</ele>
        <time>2018-02-21T18:19:15Z</time>
      </trkpt>
      <trkpt lat="45.66919" lon="6.87251">
        <ele>2118</ele>
        <time>2018-02-21T18:20:15Z</time>
      </trkpt>
      <trkpt lat="45.6689" lon="6.8727">
        <ele>2118</ele>
        <time>2018-02-21T18:21:15Z</time>
      </trkpt>
      <trkpt lat="45.66877" lon="6.87272">
        <ele>2117</ele>
        <time>2018-02-21T18:22:15Z</time>
      </trkpt>
      <trkpt lat="45.6687" lon="6.8727">
        <ele>2116</ele>
        <time>2018-02-21T18:23:15Z</time>
      </trkpt>
      <trkpt lat="45.66864" lon="6.87266">
        <ele>2115</ele>
        <time>2018-02-21T18:24:15Z</time>
      </trkpt>
      <trkpt lat="45.66859" lon="6.8726">
        <ele>2114</ele>
        <time>2018-02-21T18:25:15Z</time>
      </trkpt>
      <trkpt lat="45.66845" lon="6.87235">
        <ele>2109</ele>
        <time>2018-02-21T18:26:15Z</time>
      </trkpt>
      <trkpt lat="45.66831" lon="6.87226">
        <ele>2106</ele>
        <time>2018-02-21T18:27:15Z</time>
      </trkpt>
      <trkpt lat="45.66815" lon="6.87226">
        <ele>2105</ele>
        <time>2018-02-21T18:28:15Z</time>
      </trkpt>
      <trkpt lat="45.66786" lon="6.87235">
        <ele>2105</ele>
        <time>2018-02-21T18:29:15Z</time>
      </trkpt>
      <trkpt lat="45.66758" lon="6.87232">
        <ele>2103</ele>
        <time>2018-02-21T18:30:15Z</time>
      </trkpt>
      <trkpt lat="45.66742" lon="6.87226">
        <ele>2102</ele>
        <time>2018-02-21T18:31:15Z</time>
      </trkpt>
      <trkpt lat="45.66719" lon="6.87211">
        <ele>2101</ele>
        <time>2018-02-21T18:32:15Z</time>
      </trkpt>
      <trkpt lat="45.66704" lon="6.87204">
        <ele>2100</ele>
        <time>2018-02-21T18:33:15Z</time>
      </trkpt>
      <trkpt lat="45.66642" lon="6.8719">
        <ele>2101</ele>
        <time>2018-02-21T18:34:15Z</time>
      </trkpt>
      <trkpt lat="45.66628" lon="6.87182">
        <ele>2099</ele>
        <time>2018-02-21T18:35:15Z</time>
      </trkpt>
      <trkpt lat="45.66601" lon="6.8716">
        <ele>2093</ele>
        <time>2018-02-21T18:36:15Z</time>
      </trkpt>
      <trkpt lat="45.66579" lon="6.87148">
        <ele>2092</ele>
        <time>2018-02-21T18:37:15Z</time>
      </trkpt>
      <trkpt lat="45.66564" lon="6.87143">
        <ele>2092</ele>
        <time>2018-02-21T18:38:15Z</time>
      </trkpt>
      <trkpt lat="45.66522" lon="6.87136">
        <ele>2094</ele>
        <time>2018-02-21T18:39:15Z</time>
      </trkpt>
      <trkpt lat="45.66502" lon="6.8713">
        <ele>2093</ele>
        <time>2018-02-21T18:40:15Z</time>
      </trkpt>
      <trkpt lat="45.66488" lon="6.8712">
        <ele>2091</ele>
        <time>2018-02-21T18:41:15Z</time>
      </trkpt>
      <trkpt lat="45.66449" lon="6.87083">
        <ele>2082</ele>
        <time>2018-02-21T18:42:15Z</time>
      </trkpt>
      <trkpt lat="45.66428" lon="6.87069">
        <ele>2080</ele>
        <time>2018-02-21T18:43:15Z</time>
      </trkpt>
      <trkpt lat="45.66395" lon="6.87053">
        <ele>2077</ele>
        <time>2018-02-21T18:44:15Z</time>
      </trkpt>
      <trkpt lat="45.6636" lon="6.87047">
        <ele>2076</ele>
        <time>2018-02-21T18:45:15Z</time>
      </trkpt>
      <trkpt lat="45.66333" lon="6.87039">
        <ele>2074</ele>
        <time>2018-02-21T18:46:15Z</time>
      </trkpt>
      <trkpt lat="45.66326" lon="6.87039">
        <ele>2074</ele>
        <time>2018-02-21T18:47:15Z</time>
      </trkpt>
      <trkpt lat="45.66304" lon="6.87045">
        <ele>2075</ele>
        <time>2018-02-21T18:48:15Z</time>
      </trkpt>
      <trkpt lat="45.66267" lon="6.87063">
        <ele>2076</ele>
        <time>2018-02-21T18:49:15Z</time>
      </trkpt>
      <trkpt lat="45.66245" lon="6.87075">
        <ele>2077</ele>
        <time>2018-02-21T18:50:15Z</time>
      </trkpt>
      <trkpt lat="45.66237" lon="6.87075">
        <ele>2078</ele>
        <time>2018-02-21T18:51:15Z</time>
      </trkpt>
      <trkpt lat="45.66231" lon="6.87069">
        <ele>2078</ele>
        <time>2018-02-21T18:52:15Z</time>
      </trkpt>
      <trkpt lat="45.66228" lon="6.87064">
        <ele>2078</ele>
        <time>2018-02-21T18:53:15Z</time>
      </trkpt>
      <trkpt lat="45.66227" lon="6.87053">
        <ele>2076</ele>
        <time>2018-02-21T18:54:15Z</time>
      </trkpt>
      <trkpt lat="45.66228" lon="6.87044">
        <ele>2075</ele>
        <time>2018-02-21T18:55:15Z</time>
      </trkpt>
      <trkpt lat="45.66238" lon="6.87012">
        <ele>2069</ele>
        <time>2018-02-21T18:56:15Z</time>
      </trkpt>
      <trkpt lat="45.66242" lon="6.8698">
        <ele>2064</ele>
        <time>2018-02-21T18:57:15Z</time>
      </trkpt>
      <trkpt lat="45.66241" lon="6.86963">
        <ele>2062</ele>
        <time>2018-02-21T18:58:15Z</time>
      </trkpt>
      <trkpt lat="45.66237" lon="6.86944">
        <ele>2060</ele>
        <time>2018-02-21T18:59:15Z</time>
      </trkpt>
      <trkpt lat="45.66233" lon="6.86931">
        <ele>2059</ele>
        <time>2018-02-21T19:00:15Z</time>
      </trkpt>
      <trkpt lat="45.66221" lon="6.86917">
        <ele>2059</ele>
        <time>2018-02-21T19:01:15Z</time>
      </trkpt>
      <trkpt lat="45.66198" lon="6.86902">
        <ele>2061</ele>
        <time>2018-02-21T19:02:15Z</time>
      </trkpt>
      <trkpt lat="45.66187" lon="6.86892">
        <ele>2062</ele>
        <time>2018-02-21T19:03:15Z</time>
      </trkpt>
      <trkpt lat="45.66175" lon="6.86873">
        <ele>2062</ele>
        <time>2018-02-21T19:04:15Z</time>
      </trkpt>
      <trkpt lat="45.66161" lon="6.86831">
        <ele>2060</ele>
        <time>2018-02-21T19:05:15Z</time>
      </trkpt>
      <trkpt lat="45.66142" lon="6.868">
        <ele>2057</ele>
        <time>2018-02-21T19:06:15Z</time>
      </trkpt>
      <trkpt lat="45.6611" lon="6.86757">
        <ele>2053</ele>
        <time>2018-02-21T19:07:15Z</time>
      </trkpt>
      <trkpt lat="45.66055" lon="6.86695">
        <ele>2049</ele>
        <time>2018-02-21T19:08:15Z</time>
      </trkpt>
      <trkpt lat="45.66011" lon="6.86626">
        <ele>2046</ele>
        <time>2018-02-21T19:09:15Z</time>
      </trkpt>
      <trkpt lat="45.65984" lon="6.86598">
        <ele>2049</ele>
        <time>2018-02-21T19:10:15Z</time>
      </trkpt>
      <trkpt lat="45.65969" lon="6.86578">
        <ele>2049</ele>
        <time>2018-02-21T19:11:15Z</time>
      </trkpt>
      <trkpt lat="45.65958" lon="6.86557">
        <ele>2047</ele>
        <time>2018-02-21T19:12:15Z</time>
      </trkpt>
      <trkpt lat="45.65916" lon="6.86454">
        <ele>2032</ele>
        <time>2018-02-21T19:13:15Z</time>
      </trkpt>
      <trkpt lat="45.65902" lon="6.86433">
        <ele>2029</ele>
        <time>2018-02-21T19:14:15Z</time>
      </trkpt>
      <trkpt lat="45.6588" lon="6.86417">
        <ele>2029</ele>
        <time>2018-02-21T19:15:15Z</time>
      </trkpt>
      <trkpt lat="45.65845" lon="6.86402">
        <ele>2035</ele>
        <time>2018-02-21T19:16:15Z</time>
      </trkpt>
      <trkpt lat="45.6583" lon="6.86392">
        <ele>2036</ele>
        <time>2018-02-21T19:17:15Z</time>
      </trkpt>
      <trkpt lat="45.6579" lon="6.86352">
        <ele>2033</ele>
        <time>2018-02-21T19:18:15Z</time>
      </trkpt>
      <trkpt lat="45.65774" lon="6.86342">
        <ele>2032</ele>
        <time>2018-02-21T19:19:15Z</time>
      </trkpt>
      <trkpt lat="45.65748" lon="6.8633">
        <ele>2032</ele>
        <time>2018-02-21T19:20:15Z</time>
      </trkpt>
      <trkpt lat="45.65728" lon="6.86313">
        <ele>2034</ele>
        <time>2018-02-21T19:21:15Z</time>
      </trkpt>
      <trkpt lat="45.65695" lon="6.86275">
        <ele>2031</ele>
        <time>2018-02-21T19:22:15Z</time>
      </trkpt>
      <trkpt lat="45.65685" lon="6.86262">
        <ele>2029</ele>
        <time>2018-02-21T19:23:15Z</time>
      </trkpt>
      <trkpt lat="45.65675" lon="6.86239">
        <ele>2025</ele>
        <time>2018-02-21T19:24:15Z</time>
      </trkpt>
      <trkpt lat="45.65664" lon="6.86197">
        <ele>2016</ele>
        <time>2018-02-21T19:25:15Z</time>
      </trkpt>
      <trkpt lat="45.65657" lon="6.86184">
        <ele>2015</ele>
        <time>2018-02-21T19:26:15Z</time>
      </trkpt>
      <trkpt lat="45.65633" lon="6.86151">
        <ele>2013</ele>
        <time>2018-02-21T19:27:15Z</time>
      </trkpt>
      <trkpt lat="45.65614" lon="6.86134">
        <ele>2012</ele>
        <time>2018-02-21T19:28:15Z</time>
      </trkpt>
      <trkpt lat="45.65602" lon="6.86129">
        <ele>2014</ele>
        <time>2018-02-21T19:29:15Z</time>
      </trkpt>
      <trkpt lat="45.65569" lon="6.86121">
        <ele>2019</ele>
        <time>2018-02-21T19:30:15Z</time>
      </trkpt>
      <trkpt lat="45.65562" lon="6.86118">
        <ele>2020</ele>
        <time>2018-02-21T19:31:15Z</time>
      </trkpt>
      <trkpt lat="45.65548" lon="6.86107">
        <ele>2019</ele>
        <time>2018-02-21T19:32:15Z</time>
      </trkpt>
      <trkpt lat="45.65539" lon="6.86095">
        <ele>2017</ele>
        <time>2018-02-21T19:33:15Z</time>
      </trkpt>
      <trkpt lat="45.65529" lon="6.86078">
        <ele>2013</ele>
        <time>2018-02-21T19:34:15Z</time>
      </trkpt>
      <trkpt lat="45.65497" lon="6.86007">
        <ele>1999</ele>
        <time>2018-02-21T19:35:15Z</time>
      </trkpt>
      <trkpt lat="45.65483" lon="6.85985">
        <ele>1996</ele>
        <time>2018-02-21T19:36:15Z</time>
      </trkpt>
      <trkpt lat="45.65467" lon="6.85972">
        <ele>1997</ele>
        <time>2018-02-21T19:37:15Z</time>
      </trkpt>
      <trkpt lat="45.65427" lon="6.8596">
        <ele>2004</ele>
        <time>2018-02-21T19:38:15Z</time>
      </trkpt>
      <trkpt lat="45.6541" lon="6.85949">
        <ele>2005</ele>
        <time>2018-02-21T19:39:15Z</time>
      </trkpt>
      <trkpt lat="45.65393" lon="6.85928">
        <ele>2003</ele>
        <time>2018-02-21T19:40:15Z</time>
      </trkpt>
      <trkpt lat="45.65357" lon="6.85873">
        <ele>1993</ele>
        <time>2018-02-21T19:41:15Z</time>
      </trkpt>
      <trkpt lat="45.65331" lon="6.85842">
        <ele>1989</ele>
        <time>2018-02-21T19:42:15Z</time>
      </trkpt>
      <trkpt lat="45.65314" lon="6.85828">
        <ele>1989</ele>
        <time>2018-02-21T19:43:15Z</time>
      </trkpt>
      <trkpt lat="45.653" lon="6.85818">
        <ele>1990</ele>
        <time>2018-02-21T19:44:15Z</time>
      </trkpt>
      <trkpt lat="45.65243" lon="6.85793">
        <ele>1999</ele>
        <time>2018-02-21T19:45:15Z</time>
      </trkpt>
      <trkpt lat="45.6522" lon="6.85773">
        <ele>1996</ele>
        <time>2018-02-21T19:46:15Z</time>
      </trkpt>
      <trkpt lat="45.65189" lon="6.85733">
        <ele>1988</ele>
        <time>2018-02-21T19:47:15Z</time>
      </trkpt>
      <trkpt lat="45.65172" lon="6.85718">
        <ele>1987</ele>
        <time>2018-02-21T19:48:15Z</time>
      </trkpt>
      <trkpt lat="45.65101" lon="6.85668">
        <ele>1984</ele>
        <time>2018-02-21T19:49:15Z</time>
      </trkpt>
      <trkpt lat="45.65062" lon="6.85647">
        <ele>1991</ele>
        <time>2018-02-21T19:50:15Z</time>
      </trkpt>
      <trkpt lat="45.65051" lon="6.85637">
        <ele>1993</ele>
        <time>2018-02-21T19:51:15Z</time>
      </trkpt>
      <trkpt lat="45.65045" lon="6.85629">
        <ele>1993</ele>
        <time>2018-02-21T19:52:15Z</time>
      </trkpt>
      <trkpt lat="45.65015" lon="6.85561">
        <ele>1983</ele>
        <time>2018-02-21T19:53:15Z</time>
      </trkpt>
      <trkpt lat="45.64993" lon="6.85526">
        <ele>1984</ele>
        <time>2018-02-21T19:54:15Z</time>
      </trkpt>
      <trkpt lat="45.64978" lon="6.85499">
        <ele>1983</ele>
        <time>2018-02-21T19:55:15Z</time>
      </trkpt>
      <trkpt lat="45.64972" lon="6.85483">
        <ele>1982</ele>
        <time>2018-02-21T19:56:15Z</time>
      </trkpt>
      <trkpt lat="45.64968" lon="6.85467">
        <ele>1981</ele>
        <time>2018-02-21T19:57:15Z</time>
      </trkpt>
      <trkpt lat="45.64963" lon="6.85437">
        <ele>1977</ele>
        <time>2018-02-21T19:58:15Z</time>
      </trkpt>
      <trkpt lat="45.64958" lon="6.85415">
        <ele>1974</ele>
        <time>2018-02-21T19:59:15Z</time>
      </trkpt>
      <trkpt lat="45.64914" lon="6.85319">
        <ele>1972</ele>
        <time>2018-02-21T20:00:15Z</time>
      </trkpt>
      <trkpt lat="45.64902" lon="6.85295">
        <ele>1968</ele>
        <time>2018-02-21T20:01:15Z</time>
      </trkpt>
      <trkpt lat="45.64894" lon="6.85286">
        <ele>1968</ele>
        <time>2018-02-21T20:02:15Z</time>
      </trkpt>
      <trkpt lat="45.64877" lon="6.85276">
        <ele>1968</ele>
        <time>2018-02-21T20:03:15Z</time>
      </trkpt>
      <trkpt lat="45.64815" lon="6.85244">
        <ele>1968</ele>
        <time>2018-02-21T20:04:15Z</time>
      </trkpt>
      <trkpt lat="45.64772" lon="6.85219">
        <ele>1967</ele>
        <time>2018-02-21T20:05:15Z</time>
      </trkpt>
      <trkpt lat="45.64754" lon="6.85211">
        <ele>1967</ele>
        <time>2018-02-21T20:06:15Z</time>
      </trkpt>
      <trkpt lat="45.64719" lon="6.85207">
        <ele>1976</ele>
        <time>2018-02-21T20:07:15Z</time>
      </trkpt>
      <trkpt lat="45.64708" lon="6.852">
        <ele>1976</ele>
        <time>2018-02-21T20:08:15Z</time>
      </trkpt>
      <trkpt lat="45.64668" lon="6.8514">
        <ele>1962</ele>
        <time>2018-02-21T20:09:15Z</time>
      </trkpt>
      <trkpt lat="45.64634" lon="6.85092">
        <ele>1957</ele>
        <time>2018-02-21T20:10:15Z</time>
      </trkpt>
      <trkpt lat="45.6457" lon="6.85014">
        <ele>1955</ele>
        <time>2018-02-21T20:11:15Z</time>
      </trkpt>
      <trkpt lat="45.64542" lon="6.84953">
        <ele>1950</ele>
        <time>2018-02-21T20:12:15Z</time>
      </trkpt>
      <trkpt lat="45.64537" lon="6.84945">
        <ele>1950</ele>
        <time>2018-02-21T20:13:15Z</time>
      </trkpt>
      <trkpt lat="45.6451" lon="6.8492">
        <ele>1956</ele>
        <time>2018-02-21T20:14:15Z</time>
      </trkpt>
      <trkpt lat="45.64496" lon="6.84902">
        <ele>1955</ele>
        <time>2018-02-21T20:15:15Z</time>
      </trkpt>
      <trkpt lat="45.64488" lon="6.84888">
        <ele>1953</ele>
        <time>2018-02-21T20:16:15Z</time>
      </trkpt>
      <trkpt lat="45.64464" lon="6.84835">
        <ele>1944</ele>
        <time>2018-02-21T20:17:15Z</time>
      </trkpt>
      <trkpt lat="45.64448" lon="6.8481">
        <ele>1943</ele>
        <time>2018-02-21T20:18:15Z</time>
      </trkpt>
      <trkpt lat="45.64434" lon="6.84794">
        <ele>1943</ele>
        <time>2018-02-21T20:19:15Z</time>
      </trkpt>
      <trkpt lat="45.64417" lon="6.84779">
        <ele>1945</ele>
        <time>2018-02-21T20:20:15Z</time>
      </trkpt>
      <trkpt lat="45.64404" lon="6.84773">
        <ele>1946</ele>
        <time>2018-02-21T20:21:15Z</time>
      </trkpt>
      <trkpt lat="45.64382" lon="6.84767">
        <ele>1948</ele>
        <time>2018-02-21T20:22:15Z</time>
      </trkpt>
      <trkpt lat="45.64372" lon="6.84763">
        <ele>1949</ele>
        <time>2018-02-21T20:23:15Z</time>
      </trkpt>
      <trkpt lat="45.64328" lon="6.84717">
        <ele>1945</ele>
        <time>2018-02-21T20:24:15Z</time>
      </trkpt>
      <trkpt lat="45.64315" lon="6.84699">
        <ele>1943</ele>
        <time>2018-02-21T20:25:15Z</time>
      </trkpt>
      <trkpt lat="45.64266" lon="6.84619">
        <ele>1935</ele>
        <time>2018-02-21T20:26:15Z</time>
      </trkpt>
      <trkpt lat="45.64219" lon="6.84554">
        <ele>1935</ele>
        <time>2018-02-21T20:27:15Z</time>
      </trkpt>
      <trkpt lat="45.64203" lon="6.84518">
        <ele>1932</ele>
        <time>2018-02-21T20:28:15Z</time>
      </trkpt>
      <trkpt lat="45.64181" lon="6.84442">
        <ele>1919</ele>
        <time>2018-02-21T20:29:15Z</time>
      </trkpt>
      <trkpt lat="45.64176" lon="6.84433">
        <ele>1919</ele>
        <time>2018-02-21T20:30:15Z</time>
      </trkpt>
      <trkpt lat="45.64166" lon="6.84428">
        <ele>1921</ele>
        <time>2018-02-21T20:31:15Z</time>
      </trkpt>
      <trkpt lat="45.64147" lon="6.84436">
        <ele>1919</ele>
        <time>2018-02-21T20:32:15Z</time>
      </trkpt>
      <trkpt lat="45.64122" lon="6.84455">
        <ele>1919</ele>
        <time>2018-02-21T20:33:15Z</time>
      </trkpt>
      <trkpt lat="45.64082" lon="6.84496">
        <ele>1924</ele>
        <time>2018-02-21T20:34:15Z</time>
      </trkpt>
      <trkpt lat="45.64057" lon="6.8452">
        <ele>1924</ele>
        <time>2018-02-21T20:35:15Z</time>
      </trkpt>
      <trkpt lat="45.64022" lon="6.84539">
        <ele>1919</ele>
        <time>2018-02-21T20:36:15Z</time>
      </trkpt>
      <trkpt lat="45.63965" lon="6.84589">
        <ele>1918</ele>
        <time>2018-02-21T20:37:15Z</time>
      </trkpt>
      <trkpt lat="45.63954" lon="6.84601">
        <ele>1919</ele>
        <time>2018-02-21T20:38:15Z</time>
      </trkpt>
      <trkpt lat="45.63936" lon="6.84632">
        <ele>1923</ele>
        <time>2018-02-21T20:39:15Z</time>
      </trkpt>
      <trkpt lat="45.63928" lon="6.8464">
        <ele>1923</ele>
        <time>2018-02-21T20:40:15Z</time>
      </trkpt>
      <trkpt lat="45.63914" lon="6.84647">
        <ele>1921</ele>
        <time>2018-02-21T20:41:15Z</time>
      </trkpt>
      <trkpt lat="45.63887" lon="6.84654">
        <ele>1915</ele>
        <time>2018-02-21T20:42:15Z</time>
      </trkpt>
      <trkpt lat="45.63861" lon="6.84666">
        <ele>1912</ele>
        <time>2018-02-21T20:43:15Z</time>
      </trkpt>
      <trkpt lat="45.6381" lon="6.84669">
        <ele>1902</ele>
        <time>2018-02-21T20:44:15Z</time>
      </trkpt>
      <trkpt lat="45.63795" lon="6.84677">
        <ele>1902</ele>
        <time>2018-02-21T20:45:15Z</time>
      </trkpt>
      <trkpt lat="45.63783" lon="6.84687">
        <ele>1901</ele>
        <time>2018-02-21T20:46:15Z</time>
      </trkpt>
      <trkpt lat="45.63774" lon="6.84699">
        <ele>1901</ele>
        <time>2018-02-21T20:47:15Z</time>
      </trkpt>
      <trkpt lat="45.63767" lon="6.84721">
        <ele>1903</ele>
        <time>2018-02-21T20:48:15Z</time>
      </trkpt>
      <trkpt lat="45.63765" lon="6.84739">
        <ele>1904</ele>
        <time>2018-02-21T20:49:15Z</time>
      </trkpt>
      <trkpt lat="45.63762" lon="6.84808">
        <ele>1905</ele>
        <time>2018-02-21T20:50:15Z</time>
      </trkpt>
      <trkpt lat="45.63758" lon="6.84826">
        <ele>1903</ele>
        <time>2018-02-21T20:51:15Z</time>
      </trkpt>
      <trkpt lat="45.63749" lon="6.84849">
        <ele>1903</ele>
        <time>2018-02-21T20:52:15Z</time>
      </trkpt>
      <trkpt lat="45.63742" lon="6.84863">
        <ele>1903</ele>
        <time>2018-02-21T20:53:15Z</time>
      </trkpt>
      <trkpt lat="45.63725" lon="6.8489">
        <ele>1903</ele>
        <time>2018-02-21T20:54:15Z</time>
      </trkpt>
      <trkpt lat="45.6371" lon="6.84925">
        <ele>1904</ele>
        <time>2018-02-21T20:55:15Z</time>
      </trkpt>
      <trkpt lat="45.63703" lon="6.84936">
        <ele>1905</ele>
        <time>2018-02-21T20:56:15Z</time>
      </trkpt>
      <trkpt lat="45.63693" lon="6.84946">
        <ele>1903</ele>
        <time>2018-02-21T20:57:15Z</time>
      </trkpt>
      <trkpt lat="45.63671" lon="6.84964">
        <ele>1897</ele>
        <time>2018-02-21T20:58:15Z</time>
      </trkpt>
      <trkpt lat="45.63597" lon="6.85047">
        <ele>1902</ele>
        <time>2018-02-21T20:59:15Z</time>
      </trkpt>
      <trkpt lat="45.63591" lon="6.85052">
        <ele>1902</ele>
        <time>2018-02-21T21:00:15Z</time>
      </trkpt>
      <trkpt lat="45.63583" lon="6.85053">
        <ele>1900</ele>
        <time>2018-02-21T21:01:15Z</time>
      </trkpt>
      <trkpt lat="45.63549" lon="6.85033">
        <ele>1895</ele>
        <time>2018-02-21T21:02:15Z</time>
      </trkpt>
      <trkpt lat="45.63507" lon="6.85019">
        <ele>1892</ele>
        <time>2018-02-21T21:03:15Z</time>
      </trkpt>
      <trkpt lat="45.63497" lon="6.85012">
        <ele>1891</ele>
        <time>2018-02-21T21:04:15Z</time>
      </trkpt>
      <trkpt lat="45.63486" lon="6.85003">
        <ele>1891</ele>
        <time>2018-02-21T21:05:15Z</time>
      </trkpt>
      <trkpt lat="45.63477" lon="6.84989">
        <ele>1889</ele>
        <time>2018-02-21T21:06:15Z</time>
      </trkpt>
      <trkpt lat="45.63462" lon="6.84951">
        <ele>1880</ele>
        <time>2018-02-21T21:07:15Z</time>
      </trkpt>
      <trkpt lat="45.63453" lon="6.84937">
        <ele>1877</ele>
        <time>2018-02-21T21:08:15Z</time>
      </trkpt>
      <trkpt lat="45.63441" lon="6.84925">
        <ele>1876</ele>
        <time>2018-02-21T21:09:15Z</time>
      </trkpt>
      <trkpt lat="45.63427" lon="6.84917">
        <ele>1876</ele>
        <time>2018-02-21T21:10:15Z</time>
      </trkpt>
      <trkpt lat="45.63402" lon="6.84911">
        <ele>1876</ele>
        <time>2018-02-21T21:11:15Z</time>
      </trkpt>
      <trkpt lat="45.63347" lon="6.84905">
        <ele>1874</ele>
        <time>2018-02-21T21:12:15Z</time>
      </trkpt>
      <trkpt lat="45.63297" lon="6.84909">
        <ele>1881</ele>
        <time>2018-02-21T21:13:15Z</time>
      </trkpt>
      <trkpt lat="45.63268" lon="6.84901">
        <ele>1882</ele>
        <time>2018-02-21T21:14:15Z</time>
      </trkpt>
      <trkpt lat="45.6325" lon="6.84892">
        <ele>1881</ele>
        <time>2018-02-21T21:15:15Z</time>
      </trkpt>
      <trkpt lat="45.6322" lon="6.84862">
        <ele>1875</ele>
        <time>2018-02-21T21:16:15Z</time>
      </trkpt>
      <trkpt lat="45.63195" lon="6.84823">
        <ele>1866</ele>
        <time>2018-02-21T21:17:15Z</time>
      </trkpt>
      <trkpt lat="45.6318" lon="6.84805">
        <ele>1863</ele>
        <time>2018-02-21T21:18:15Z</time>
      </trkpt>
      <trkpt lat="45.63164" lon="6.8479">
        <ele>1862</ele>
        <time>2018-02-21T21:19:15Z</time>
      </trkpt>
      <trkpt lat="45.63135" lon="6.84771">
        <ele>1861</ele>
        <time>2018-02-21T21:20:15Z</time>
      </trkpt>
      <trkpt lat="45.63106" lon="6.84734">
        <ele>1855</ele>
        <time>2018-02-21T21:21:15Z</time>
      </trkpt>
      <trkpt lat="45.63062" lon="6.84707">
        <ele>1855</ele>
        <time>2018-02-21T21:22:15Z</time>
      </trkpt>
      <trkpt lat="45.63047" lon="6.84693">
        <ele>1854</ele>
        <time>2018-02-21T21:23:15Z</time>
      </trkpt>
      <trkpt lat="45.63024" lon="6.84664">
        <ele>1853</ele>
        <time>2018-02-21T21:24:15Z</time>
      </trkpt>
      <trkpt lat="45.63016" lon="6.84662">
        <ele>1853</ele>
        <time>2018-02-21T21:25:15Z</time>
      </trkpt>
      <trkpt lat="45.63005" lon="6.84666">
        <ele>1856</ele>
        <time>2018-02-21T21:26:15Z</time>
      </trkpt>
      <trkpt lat="45.63" lon="6.84671">
        <ele>1857</ele>
        <time>2018-02-21T21:27:15Z</time>
      </trkpt>
      <trkpt lat="45.62976" lon="6.84704">
        <ele>1858</ele>
        <time>2018-02-21T21:28:15Z</time>
      </trkpt>
      <trkpt lat="45.62903" lon="6.84791">
        <ele>1857</ele>
        <time>2018-02-21T21:29:15Z</time>
      </trkpt>
      <trkpt lat="45.62886" lon="6.84807">
        <ele>1856</ele>
        <time>2018-02-21T21:30:15Z</time>
      </trkpt>
      <trkpt lat="45.62868" lon="6.84819">
        <ele>1854</ele>
        <time>2018-02-21T21:31:15Z</time>
      </trkpt>
      <trkpt lat="45.6282" lon="6.84842">
        <ele>1850</ele>
        <time>2018-02-21T21:32:15Z</time>
      </trkpt>
      <trkpt lat="45.62803" lon="6.84852">
        <ele>1849</ele>
        <time>2018-02-21T21:33:15Z</time>
      </trkpt>
      <trkpt lat="45.62781" lon="6.84869">
        <ele>1847</ele>
        <time>2018-02-21T21:34:15Z</time>
      </trkpt>
      <trkpt lat="45.62766" lon="6.84888">
        <ele>1847</ele>
        <time>2018-02-21T21:35:15Z</time>
      </trkpt>
      <trkpt lat="45.62734" lon="6.84947">
        <ele>1846</ele>
        <time>2018-02-21T21:36:15Z</time>
      </trkpt>
      <trkpt lat="45.62725" lon="6.84959">
        <ele>1845</ele>
        <time>2018-02-21T21:37:15Z</time>
      </trkpt>
      <trkpt lat="45.6271" lon="6.84968">
        <ele>1843</ele>
        <time>2018-02-21T21:38:15Z</time>
      </trkpt>
      <trkpt lat="45.62697" lon="6.8498">
        <ele>1841</ele>
        <time>2018-02-21T21:39:15Z</time>
      </trkpt>
      <trkpt lat="45.62686" lon="6.84998">
        <ele>1841</ele>
        <time>2018-02-21T21:40:15Z</time>
      </trkpt>
      <trkpt lat="45.62679" lon="6.85013">
        <ele>1841</ele>
        <time>2018-02-21T21:41:15Z</time>
      </trkpt>
      <trkpt lat="45.62669" lon="6.85048">
        <ele>1842</ele>
        <time>2018-02-21T21:42:15Z</time>
      </trkpt>
      <trkpt lat="45.62661" lon="6.85062">
        <ele>1841</ele>
        <time>2018-02-21T21:43:15Z</time>
      </trkpt>
      <trkpt lat="45.62622" lon="6.85107">
        <ele>1837</ele>
        <time>2018-02-21T21:44:15Z</time>
      </trkpt>
      <trkpt lat="45.62609" lon="6.85135">
        <ele>1838</ele>
        <time>2018-02-21T21:45:15Z</time>
      </trkpt>
      <trkpt lat="45.626" lon="6.85161">
        <ele>1839</ele>
        <time>2018-02-21T21:46:15Z</time>
      </trkpt>
      <trkpt lat="45.62584" lon="6.85222">
        <ele>1837</ele>
        <time>2018-02-21T21:47:15Z</time>
      </trkpt>
      <trkpt lat="45.62581" lon="6.85239">
        <ele>1836</ele>
        <time>2018-02-21T21:48:15Z</time>
      </trkpt>
      <trkpt lat="45.62577" lon="6.85282">
        <ele>1835</ele>
        <time>2018-02-21T21:49:15Z</time>
      </trkpt>
      <trkpt lat="45.62574" lon="6.85367">
        <ele>1833</ele>
        <time>2018-02-21T21:50:15Z</time>
      </trkpt>
      <trkpt lat="45.62565" lon="6.85428">
        <ele>1829</ele>
        <time>2018-02-21T21:51:15Z</time>
      </trkpt>
      <trkpt lat="45.62566" lon="6.85492">
        <ele>1828</ele>
        <time>2018-02-21T21:52:15Z</time>
      </trkpt>
      <trkpt lat="45.62564" lon="6.85509">
        <ele>1828</ele>
        <time>2018-02-21T21:53:15Z</time>
      </trkpt>
      <trkpt lat="45.6256" lon="6.85522">
        <ele>1828</ele>
        <time>2018-02-21T21:54:15Z</time>
      </trkpt>
      <trkpt lat="45.6254" lon="6.85556">
        <ele>1823</ele>
        <time>2018-02-21T21:55:15Z</time>
      </trkpt>
      <trkpt lat="45.62494" lon="6.85669">
        <ele>1818</ele>
        <time>2018-02-21T21:56:15Z</time>
      </trkpt>
      <trkpt lat="45.62488" lon="6.85679">
        <ele>1818</ele>
        <time>2018-02-21T21:57:15Z</time>
      </trkpt>
      <trkpt lat="45.62473" lon="6.857">
        <ele>1817</ele>
        <time>2018-02-21T21:58:15Z</time>
      </trkpt>
      <trkpt lat="45.6244" lon="6.85736">
        <ele>1813</ele>
        <time>2018-02-21T21:59:15Z</time>
      </trkpt>
      <trkpt lat="45.62422" lon="6.85763">
        <ele>1810</ele>
        <time>2018-02-21T22:00:15Z</time>
      </trkpt>
      <trkpt lat="45.62417" lon="6.85777">
        <ele>1810</ele>
        <time>2018-02-21T22:01:15Z</time>
      </trkpt>
      <trkpt lat="45.62412" lon="6.85796">
        <ele>1810</ele>
        <time>2018-02-21T22:02:15Z</time>
      </trkpt>
      <trkpt lat="45.62405" lon="6.85797">
        <ele>1807</ele>
        <time>2018-02-21T22:03:15Z</time>
      </trkpt>
      <trkpt lat="45.624" lon="6.85804">
        <ele>1806</ele>
        <time>2018-02-21T22:04:15Z</time>
      </trkpt>
      <trkpt lat="45.62399" lon="6.85809">
        <ele>1805</ele>
        <time>2018-02-21T22:05:15Z</time>
      </trkpt>
      <trkpt lat="45.62402" lon="6.85818">
        <ele>1807</ele>
        <time>2018-02-21T22:06:15Z</time>
      </trkpt>
      <trkpt lat="45.62404" lon="6.85821">
        <ele>1808</ele>
        <time>2018-02-21T22:07:15Z</time>
      </trkpt>
      <trkpt lat="45.62401" lon="6.85829">
        <ele>1808</ele>
        <time>2018-02-21T22:08:15Z</time>
      </trkpt>
      <trkpt lat="45.62399" lon="6.85844">
        <ele>1807</ele>
        <time>2018-02-21T22:09:15Z</time>
      </trkpt>
      <trkpt lat="45.62399" lon="6.86047">
        <ele>1800</ele>
        <time>2018-02-21T22:10:15Z</time>
      </trkpt>
      <trkpt lat="45.624" lon="6.86067">
        <ele>1799</ele>
        <time>2018-02-21T22:11:15Z</time>
      </trkpt>
      <trkpt lat="45.62407" lon="6.86119">
        <ele>1798</ele>
        <time>2018-02-21T22:12:15Z</time>
      </trkpt>
      <trkpt lat="45.62409" lon="6.86193">
        <ele>1794</ele>
        <time>2018-02-21T22:13:15Z</time>
      </trkpt>
      <trkpt lat="45.62414" lon="6.86252">
        <ele>1793</ele>
        <time>2018-02-21T22:14:15Z</time>
      </trkpt>
      <trkpt lat="45.62414" lon="6.86274">
        <ele>1791</ele>
        <time>2018-02-21T22:15:15Z</time>
      </trkpt>
      <trkpt lat="45.62405" lon="6.86337">
        <ele>1784</ele>
        <time>2018-02-21T22:16:15Z</time>
      </trkpt>
      <trkpt lat="45.624" lon="6.86409">
        <ele>1779</ele>
        <time>2018-02-21T22:17:15Z</time>
      </trkpt>
      <trkpt lat="45.624" lon="6.86445">
        <ele>1777</ele>
        <time>2018-02-21T22:18:15Z</time>
      </trkpt>
      <trkpt lat="45.62404" lon="6.86463">
        <ele>1777</ele>
        <time>2018-02-21T22:19:15Z</time>
      </trkpt>
      <trkpt lat="45.6242" lon="6.86496">
        <ele>1781</ele>
        <time>2018-02-21T22:20:15Z</time>
      </trkpt>
      <trkpt lat="45.62423" lon="6.8651">
        <ele>1781</ele>
        <time>2018-02-21T22:21:15Z</time>
      </trkpt>
      <trkpt lat="45.62422" lon="6.86519">
        <ele>1780</ele>
        <time>2018-02-21T22:22:15Z</time>
      </trkpt>
      <trkpt lat="45.62419" lon="6.86524">
        <ele>1779</ele>
        <time>2018-02-21T22:23:15Z</time>
      </trkpt>
      <trkpt lat="45.62414" lon="6.86526">
        <ele>1777</ele>
        <time>2018-02-21T22:24:15Z</time>
      </trkpt>
      <trkpt lat="45.62407" lon="6.86523">
        <ele>1774</ele>
        <time>2018-02-21T22:25:15Z</time>
      </trkpt>
      <trkpt lat="45.62403" lon="6.86518">
        <ele>1773</ele>
        <time>2018-02-21T22:26:15Z</time>
      </trkpt>
      <trkpt lat="45.62396" lon="6.86502">
        <ele>1771</ele>
        <time>2018-02-21T22:27:15Z</time>
      </trkpt>
      <trkpt lat="45.62386" lon="6.86456">
        <ele>1770</ele>
        <time>2018-02-21T22:28:15Z</time>
      </trkpt>
      <trkpt lat="45.62378" lon="6.86404">
        <ele>1770</ele>
        <time>2018-02-21T22:29:15Z</time>
      </trkpt>
      <trkpt lat="45.62364" lon="6.86304">
        <ele>1768</ele>
        <time>2018-02-21T22:30:15Z</time>
      </trkpt>
      <trkpt lat="45.62344" lon="6.86216">
        <ele>1766</ele>
        <time>2018-02-21T22:31:15Z</time>
      </trkpt>
      <trkpt lat="45.62329" lon="6.86131">
        <ele>1767</ele>
        <time>2018-02-21T22:32:15Z</time>
      </trkpt>
      <trkpt lat="45.62321" lon="6.86101">
        <ele>1766</ele>
        <time>2018-02-21T22:33:15Z</time>
      </trkpt>
      <trkpt lat="45.62309" lon="6.86073">
        <ele>1764</ele>
        <time>2018-02-21T22:34:15Z</time>
      </trkpt>
      <trkpt lat="45.6228" lon="6.86012">
        <ele>1758</ele>
        <time>2018-02-21T22:35:15Z</time>
      </trkpt>
      <trkpt lat="45.62273" lon="6.85991">
        <ele>1757</ele>
        <time>2018-02-21T22:36:15Z</time>
      </trkpt>
      <trkpt lat="45.62269" lon="6.85969">
        <ele>1756</ele>
        <time>2018-02-21T22:37:15Z</time>
      </trkpt>
      <trkpt lat="45.6226" lon="6.85818">
        <ele>1748</ele>
        <time>2018-02-21T22:38:15Z</time>
      </trkpt>
      <trkpt lat="45.6226" lon="6.85792">
        <ele>1747</ele>
        <time>2018-02-21T22:39:15Z</time>
      </trkpt>
      <trkpt lat="45.62262" lon="6.85784">
        <ele>1747</ele>
        <time>2018-02-21T22:40:15Z</time>
      </trkpt>
      <trkpt lat="45.6227" lon="6.85765">
        <ele>1750</ele>
        <time>2018-02-21T22:41:15Z</time>
      </trkpt>
      <trkpt lat="45.62284" lon="6.8574">
        <ele>1754</ele>
        <time>2018-02-21T22:42:15Z</time>
      </trkpt>
      <trkpt lat="45.62291" lon="6.85719">
        <ele>1755</ele>
        <time>2018-02-21T22:43:15Z</time>
      </trkpt>
      <trkpt lat="45.62294" lon="6.85699">
        <ele>1754</ele>
        <time>2018-02-21T22:44:15Z</time>
      </trkpt>
      <trkpt lat="45.62305" lon="6.85568">
        <ele>1746</ele>
        <time>2018-02-21T22:45:15Z</time>
      </trkpt>
      <trkpt lat="45.62306" lon="6.85531">
        <ele>1743</ele>
        <time>2018-02-21T22:46:15Z</time>
      </trkpt>
      <trkpt lat="45.62302" lon="6.85482">
        <ele>1738</ele>
        <time>2018-02-21T22:47:15Z</time>
      </trkpt>
      <trkpt lat="45.62285" lon="6.85358">
        <ele>1732</ele>
        <time>2018-02-21T22:48:15Z</time>
      </trkpt>
      <trkpt lat="45.62284" lon="6.85331">
        <ele>1733</ele>
        <time>2018-02-21T22:49:15Z</time>
      </trkpt>
      <trkpt lat="45.62297" lon="6.85241">
        <ele>1733</ele>
        <time>2018-02-21T22:50:15Z</time>
      </trkpt>
      <trkpt lat="45.62319" lon="6.85168">
        <ele>1730</ele>
        <time>2018-02-21T22:51:15Z</time>
      </trkpt>
      <trkpt lat="45.62333" lon="6.85101">
        <ele>1729</ele>
        <time>2018-02-21T22:52:15Z</time>
      </trkpt>
      <trkpt lat="45.62335" lon="6.85086">
        <ele>1728</ele>
        <time>2018-02-21T22:53:15Z</time>
      </trkpt>
      <trkpt lat="45.62332" lon="6.85076">
        <ele>1726</ele>
        <time>2018-02-21T22:54:15Z</time>
      </trkpt>
      <trkpt lat="45.62326" lon="6.85073">
        <ele>1724</ele>
        <time>2018-02-21T22:55:15Z</time>
      </trkpt>
      <trkpt lat="45.62322" lon="6.85075">
        <ele>1723</ele>
        <time>2018-02-21T22:56:15Z</time>
      </trkpt>
      <trkpt lat="45.62317" lon="6.85081">
        <ele>1721</ele>
        <time>2018-02-21T22:57:15Z</time>
      </trkpt>
      <trkpt lat="45.62314" lon="6.85092">
        <ele>1721</ele>
        <time>2018-02-21T22:58:15Z</time>
      </trkpt>
      <trkpt lat="45.62307" lon="6.85155">
        <ele>1725</ele>
        <time>2018-02-21T22:59:15Z</time>
      </trkpt>
      <trkpt lat="45.62288" lon="6.85214">
        <ele>1726</ele>
        <time>2018-02-21T23:00:15Z</time>
      </trkpt>
      <trkpt lat="45.6227" lon="6.85263">
        <ele>1725</ele>
        <time>2018-02-21T23:01:15Z</time>
      </trkpt>
      <trkpt lat="45.62263" lon="6.85288">
        <ele>1723</ele>
        <time>2018-02-21T23:02:15Z</time>
      </trkpt>
      <trkpt lat="45.62253" lon="6.85354">
        <ele>1719</ele>
        <time>2018-02-21T23:03:15Z</time>
      </trkpt>
      <trkpt lat="45.62253" lon="6.8539">
        <ele>1718</ele>
        <time>2018-02-21T23:04:15Z</time>
      </trkpt>
      <trkpt lat="45.62256" lon="6.85427">
        <ele>1718</ele>
        <time>2018-02-21T23:05:15Z</time>
      </trkpt>
      <trkpt lat="45.62254" lon="6.8545">
        <ele>1718</ele>
        <time>2018-02-21T23:06:15Z</time>
      </trkpt>
      <trkpt lat="45.62247" lon="6.85476">
        <ele>1715</ele>
        <time>2018-02-21T23:07:15Z</time>
      </trkpt>
      <trkpt lat="45.6224" lon="6.85527">
        <ele>1714</ele>
        <time>2018-02-21T23:08:15Z</time>
      </trkpt>
      <trkpt lat="45.62238" lon="6.85536">
        <ele>1713</ele>
        <time>2018-02-21T23:09:15Z</time>
      </trkpt>
      <trkpt lat="45.6223" lon="6.85554">
        <ele>1711</ele>
        <time>2018-02-21T23:10:15Z</time>
      </trkpt>
      <trkpt lat="45.62203" lon="6.85593">
        <ele>1704</ele>
        <time>2018-02-21T23:11:15Z</time>
      </trkpt>
      <trkpt lat="45.62197" lon="6.85611">
        <ele>1703</ele>
        <time>2018-02-21T23:12:15Z</time>
      </trkpt>
      <trkpt lat="45.62193" lon="6.85632">
        <ele>1703</ele>
        <time>2018-02-21T23:13:15Z</time>
      </trkpt>
      <trkpt lat="45.62198" lon="6.85678">
        <ele>1709</ele>
        <time>2018-02-21T23:14:15Z</time>
      </trkpt>
      <trkpt lat="45.62194" lon="6.857">
        <ele>1709</ele>
        <time>2018-02-21T23:15:15Z</time>
      </trkpt>
      <trkpt lat="45.62187" lon="6.85712">
        <ele>1707</ele>
        <time>2018-02-21T23:16:15Z</time>
      </trkpt>
      <trkpt lat="45.62164" lon="6.85738">
        <ele>1700</ele>
        <time>2018-02-21T23:17:15Z</time>
      </trkpt>
      <trkpt lat="45.62149" lon="6.85757">
        <ele>1694</ele>
        <time>2018-02-21T23:18:15Z</time>
      </trkpt>
      <trkpt lat="45.62143" lon="6.85775">
        <ele>1693</ele>
        <time>2018-02-21T23:19:15Z</time>
      </trkpt>
      <trkpt lat="45.62123" lon="6.85907">
        <ele>1695</ele>
        <time>2018-02-21T23:20:15Z</time>
      </trkpt>
      <trkpt lat="45.62117" lon="6.85966">
        <ele>1694</ele>
        <time>2018-02-21T23:21:15Z</time>
      </trkpt>
      <trkpt lat="45.62112" lon="6.85976">
        <ele>1692</ele>
        <time>2018-02-21T23:22:15Z</time>
      </trkpt>
      <trkpt lat="45.62107" lon="6.85979">
        <ele>1691</ele>
        <time>2018-02-21T23:23:15Z</time>
      </trkpt>
      <trkpt lat="45.62102" lon="6.85977">
        <ele>1689</ele>
        <time>2018-02-21T23:24:15Z</time>
      </trkpt>
      <trkpt lat="45.62099" lon="6.8597">
        <ele>1687</ele>
        <time>2018-02-21T23:25:15Z</time>
      </trkpt>
      <trkpt lat="45.62099" lon="6.85962">
        <ele>1687</ele>
        <time>2018-02-21T23:26:15Z</time>
      </trkpt>
      <trkpt lat="45.62105" lon="6.85936">
        <ele>1689</ele>
        <time>2018-02-21T23:27:15Z</time>
      </trkpt>
      <trkpt lat="45.62113" lon="6.85876">
        <ele>1688</ele>
        <time>2018-02-21T23:28:15Z</time>
      </trkpt>
      <trkpt lat="45.62119" lon="6.85777">
        <ele>1681</ele>
        <time>2018-02-21T23:29:15Z</time>
      </trkpt>
      <trkpt lat="45.62125" lon="6.85756">
        <ele>1682</ele>
        <time>2018-02-21T23:30:15Z</time>
      </trkpt>
      <trkpt lat="45.62138" lon="6.85732">
        <ele>1686</ele>
        <time>2018-02-21T23:31:15Z</time>
      </trkpt>
      <trkpt lat="45.62145" lon="6.85713">
        <ele>1688</ele>
        <time>2018-02-21T23:32:15Z</time>
      </trkpt>
      <trkpt lat="45.62145" lon="6.85693">
        <ele>1686</ele>
        <time>2018-02-21T23:33:15Z</time>
      </trkpt>
      <trkpt lat="45.62139" lon="6.85664">
        <ele>1680</ele>
        <time>2018-02-21T23:34:15Z</time>
      </trkpt>
      <trkpt lat="45.6214" lon="6.85636">
        <ele>1679</ele>
        <time>2018-02-21T23:35:15Z</time>
      </trkpt>
      <trkpt lat="45.62169" lon="6.85507">
        <ele>1680</ele>
        <time>2018-02-21T23:36:15Z</time>
      </trkpt>
      <trkpt lat="45.62171" lon="6.85491">
        <ele>1680</ele>
        <time>2018-02-21T23:37:15Z</time>
      </trkpt>
      <trkpt lat="45.6217" lon="6.85477">
        <ele>1680</ele>
        <time>2018-02-21T23:38:15Z</time>
      </trkpt>
      <trkpt lat="45.62167" lon="6.85466">
        <ele>1678</ele>
        <time>2018-02-21T23:39:15Z</time>
      </trkpt>
      <trkpt lat="45.62153" lon="6.85434">
        <ele>1673</ele>
        <time>2018-02-21T23:40:15Z</time>
      </trkpt>
      <trkpt lat="45.62148" lon="6.85408">
        <ele>1671</ele>
        <time>2018-02-21T23:41:15Z</time>
      </trkpt>
      <trkpt lat="45.62145" lon="6.8536">
        <ele>1670</ele>
        <time>2018-02-21T23:42:15Z</time>
      </trkpt>
      <trkpt lat="45.62141" lon="6.85245">
        <ele>1669</ele>
        <time>2018-02-21T23:43:15Z</time>
      </trkpt>
      <trkpt lat="45.62142" lon="6.85229">
        <ele>1668</ele>
        <time>2018-02-21T23:44:15Z</time>
      </trkpt>
      <trkpt lat="45.62153" lon="6.85138">
        <ele>1664</ele>
        <time>2018-02-21T23:45:15Z</time>
      </trkpt>
      <trkpt lat="45.62158" lon="6.85115">
        <ele>1663</ele>
        <time>2018-02-21T23:46:15Z</time>
      </trkpt>
      <trkpt lat="45.62179" lon="6.85051">
        <ele>1665</ele>
        <time>2018-02-21T23:47:15Z</time>
      </trkpt>
      <trkpt lat="45.6218" lon="6.85034">
        <ele>1663</ele>
        <time>2018-02-21T23:48:15Z</time>
      </trkpt>
      <trkpt lat="45.62173" lon="6.84922">
        <ele>1653</ele>
        <time>2018-02-21T23:49:15Z</time>
      </trkpt>
      <trkpt lat="45.62172" lon="6.84891">
        <ele>1651</ele>
        <time>2018-02-21T23:50:15Z</time>
      </trkpt>
      <trkpt lat="45.62177" lon="6.84813">
        <ele>1651</ele>
        <time>2018-02-21T23:51:15Z</time>
      </trkpt>
      <trkpt lat="45.6217" lon="6.84654">
        <ele>1644</ele>
        <time>2018-02-21T23:52:15Z</time>
      </trkpt>
      <trkpt lat="45.62173" lon="6.84636">
        <ele>1642</ele>
        <time>2018-02-21T23:53:15Z</time>
      </trkpt>
      <trkpt lat="45.62179" lon="6.84622">
        <ele>1642</ele>
        <time>2018-02-21T23:54:15Z</time>
      </trkpt>
      <trkpt lat="45.62174" lon="6.8462">
        <ele>1640</ele>
        <time>2018-02-21T23:55:15Z</time>
      </trkpt>
      <trkpt lat="45.62168" lon="6.84622">
        <ele>1639</ele>
        <time>2018-02-21T23:56:15Z</time>
      </trkpt>
      <trkpt lat="45.62165" lon="6.84629">
        <ele>1638</ele>
        <time>2018-02-21T23:57:15Z</time>
      </trkpt>
      <trkpt lat="45.62126" lon="6.84761">
        <ele>1631</ele>
        <time>2018-02-21T23:58:15Z</time>
      </trkpt>
      <trkpt lat="45.62108" lon="6.84809">
        <ele>1625</ele>
        <time>2018-02-21T23:59:15Z</time>
      </trkpt>
      <trkpt lat="45.62098" lon="6.84845">
        <ele>1622</ele>
        <time>2018-02-22T00:00:15Z</time>
      </trkpt>
      <trkpt lat="45.62091" lon="6.84862">
        <ele>1620</ele>
        <time>2018-02-22T00:01:15Z</time>
      </trkpt>
      <trkpt lat="45.62087" lon="6.84881">
        <ele>1618</ele>
        <time>2018-02-22T00:02:15Z</time>
      </trkpt>
      <trkpt lat="45.62086" lon="6.84901">
        <ele>1618</ele>
        <time>2018-02-22T00:03:15Z</time>
      </trkpt>
      <trkpt lat="45.62087" lon="6.84956">
        <ele>1619</ele>
        <time>2018-02-22T00:04:15Z</time>
      </trkpt>
      <trkpt lat="45.62077" lon="6.84995">
        <ele>1615</ele>
        <time>2018-02-22T00:05:15Z</time>
      </trkpt>
      <trkpt lat="45.62077" lon="6.85026">
        <ele>1617</ele>
        <time>2018-02-22T00:06:15Z</time>
      </trkpt>
      <trkpt lat="45.62074" lon="6.85036">
        <ele>1616</ele>
        <time>2018-02-22T00:07:15Z</time>
      </trkpt>
      <trkpt lat="45.62069" lon="6.85044">
        <ele>1615</ele>
        <time>2018-02-22T00:08:15Z</time>
      </trkpt>
      <trkpt lat="45.62061" lon="6.85051">
        <ele>1612</ele>
        <time>2018-02-22T00:09:15Z</time>
      </trkpt>
      <trkpt lat="45.62038" lon="6.8506">
        <ele>1602</ele>
        <time>2018-02-22T00:10:15Z</time>
      </trkpt>
      <trkpt lat="45.62028" lon="6.85067">
        <ele>1597</ele>
        <time>2018-02-22T00:11:15Z</time>
      </trkpt>
      <trkpt lat="45.62024" lon="6.85077">
        <ele>1596</ele>
        <time>2018-02-22T00:12:15Z</time>
      </trkpt>
      <trkpt lat="45.62019" lon="6.85137">
        <ele>1599</ele>
        <time>2018-02-22T00:13:15Z</time>
      </trkpt>
      <trkpt lat="45.62016" lon="6.85151">
        <ele>1599</ele>
        <time>2018-02-22T00:14:15Z</time>
      </trkpt>
      <trkpt lat="45.62004" lon="6.8518">
        <ele>1596</ele>
        <time>2018-02-22T00:15:15Z</time>
      </trkpt>
      <trkpt lat="45.61986" lon="6.85216">
        <ele>1590</ele>
        <time>2018-02-22T00:16:15Z</time>
      </trkpt>
      <trkpt lat="45.61975" lon="6.85246">
        <ele>1587</ele>
        <time>2018-02-22T00:17:15Z</time>
      </trkpt>
      <trkpt lat="45.61967" lon="6.85278">
        <ele>1586</ele>
        <time>2018-02-22T00:18:15Z</time>
      </trkpt>
      <trkpt lat="45.61962" lon="6.85289">
        <ele>1584</ele>
        <time>2018-02-22T00:19:15Z</time>
      </trkpt>
      <trkpt lat="45.6195" lon="6.85339">
        <ele>1581</ele>
        <time>2018-02-22T00:20:15Z</time>
      </trkpt>
      <trkpt lat="45.61942" lon="6.85363">
        <ele>1579</ele>
        <time>2018-02-22T00:21:15Z</time>
      </trkpt>
      <trkpt lat="45.61928" lon="6.85394">
        <ele>1576</ele>
        <time>2018-02-22T00:22:15Z</time>
      </trkpt>
      <trkpt lat="45.61918" lon="6.85408">
        <ele>1573</ele>
        <time>2018-02-22T00:23:15Z</time>
      </trkpt>
      <trkpt lat="45.61909" lon="6.85425">
        <ele>1570</ele>
        <time>2018-02-22T00:24:15Z</time>
      </trkpt>
      <trkpt lat="45.61901" lon="6.85451">
        <ele>1569</ele>
        <time>2018-02-22T00:25:15Z</time>
      </trkpt>
      <trkpt lat="45.61884" lon="6.85535">
        <ele>1565</ele>
        <time>2018-02-22T00:26:15Z</time>
      </trkpt>
      <trkpt lat="45.61879" lon="6.85599">
        <ele>1564</ele>
        <time>2018-02-22T00:27:15Z</time>
      </trkpt>
      <trkpt lat="45.6187" lon="6.85635">
        <ele>1563</ele>
        <time>2018-02-22T00:28:15Z</time>
      </trkpt>
      <trkpt lat="45.61856" lon="6.85654">
        <ele>1559</ele>
        <time>2018-02-22T00:29:15Z</time>
      </trkpt>
      <trkpt lat="45.61826" lon="6.85675">
        <ele>1551</ele>
        <time>2018-02-22T00:30:15Z</time>
      </trkpt>
      <trkpt lat="45.61767" lon="6.85771">
        <ele>1543</ele>
        <time>2018-02-22T00:31:15Z</time>
      </trkpt>
      <trkpt lat="45.61736" lon="6.85808">
        <ele>1538</ele>
        <time>2018-02-22T00:32:15Z</time>
      </trkpt>
      <trkpt lat="45.61721" lon="6.85845">
        <ele>1537</ele>
        <time>2018-02-22T00:33:15Z</time>
      </trkpt>
      <trkpt lat="45.61701" lon="6.85868">
        <ele>1532</ele>
        <time>2018-02-22T00:34:15Z</time>
      </trkpt>
      <trkpt lat="45.61655" lon="6.85949">
        <ele>1522</ele>
        <time>2018-02-22T00:35:15Z</time>
      </trkpt>
      <trkpt lat="45.61645" lon="6.85975">
        <ele>1520</ele>
        <time>2018-02-22T00:36:15Z</time>
      </trkpt>
      <trkpt lat="45.61635" lon="6.86032">
        <ele>1518</ele>
        <time>2018-02-22T00:37:15Z</time>
      </trkpt>
      <trkpt lat="45.61619" lon="6.86077">
        <ele>1512</ele>
        <time>2018-02-22T00:38:15Z</time>
      </trkpt>
      <trkpt lat="45.61611" lon="6.86121">
        <ele>1509</ele>
        <time>2018-02-22T00:39:15Z</time>
      </trkpt>
      <trkpt lat="45.61607" lon="6.86172">
        <ele>1508</ele>
        <time>2018-02-22T00:40:15Z</time>
      </trkpt>
      <trkpt lat="45.61611" lon="6.86205">
        <ele>1510</ele>
        <time>2018-02-22T00:41:15Z</time>
      </trkpt>
      <trkpt lat="45.6161" lon="6.86232">
        <ele>1510</ele>
        <time>2018-02-22T00:42:15Z</time>
      </trkpt>
      <trkpt lat="45.6159" lon="6.86284">
        <ele>1503</ele>
        <time>2018-02-22T00:43:15Z</time>
      </trkpt>
      <trkpt lat="45.61583" lon="6.86291">
        <ele>1501</ele>
        <time>2018-02-22T00:44:15Z</time>
      </trkpt>
      <trkpt lat="45.61576" lon="6.86288">
        <ele>1500</ele>
        <time>2018-02-22T00:45:15Z</time>
      </trkpt>
      <trkpt lat="45.61582" lon="6.86217">
        <ele>1499</ele>
        <time>2018-02-22T00:46:15Z</time>
      </trkpt>
      <trkpt lat="45.61578" lon="6.86182">
        <ele>1498</ele>
        <time>2018-02-22T00:47:15Z</time>
      </trkpt>
      <trkpt lat="45.61557" lon="6.86118">
        <ele>1492</ele>
        <time>2018-02-22T00:48:15Z</time>
      </trkpt>
      <trkpt lat="45.61551" lon="6.86065">
        <ele>1488</ele>
        <time>2018-02-22T00:49:15Z</time>
      </trkpt>
      <trkpt lat="45.6154" lon="6.86013">
        <ele>1482</ele>
        <time>2018-02-22T00:50:15Z</time>
      </trkpt>
      <trkpt lat="45.61533" lon="6.85944">
        <ele>1476</ele>
        <time>2018-02-22T00:51:15Z</time>
      </trkpt>
      <trkpt lat="45.61531" lon="6.85867">
        <ele>1466</ele>
        <time>2018-02-22T00:52:15Z</time>
      </trkpt>
      <trkpt lat="45.61534" lon="6.85841">
        <ele>1464</ele>
        <time>2018-02-22T00:53:15Z</time>
      </trkpt>
      <trkpt lat="45.61539" lon="6.85832">
        <ele>1464</ele>
        <time>2018-02-22T00:54:15Z</time>
      </trkpt>
      <trkpt lat="45.61547" lon="6.85829">
        <ele>1467</ele>
        <time>2018-02-22T00:55:15Z</time>
      </trkpt>
      <trkpt lat="45.61554" lon="6.8583">
        <ele>1470</ele>
        <time>2018-02-22T00:56:15Z</time>
      </trkpt>
      <trkpt lat="45.61564" lon="6.85827">
        <ele>1473</ele>
        <time>2018-02-22T00:57:15Z</time>
      </trkpt>
      <trkpt lat="45.6157" lon="6.85823">
        <ele>1475</ele>
        <time>2018-02-22T00:58:15Z</time>
      </trkpt>
      <trkpt lat="45.61577" lon="6.85813">
        <ele>1476</ele>
        <time>2018-02-22T00:59:15Z</time>
      </trkpt>
      <trkpt lat="45.61582" lon="6.85795">
        <ele>1475</ele>
        <time>2018-02-22T01:00:15Z</time>
      </trkpt>
      <trkpt lat="45.61591" lon="6.85747">
        <ele>1470</ele>
        <time>2018-02-22T01:01:15Z</time>
      </trkpt>
      <trkpt lat="45.61595" lon="6.85707">
        <ele>1470</ele>
        <time>2018-02-22T01:02:15Z</time>
      </trkpt>
      <trkpt lat="45.61587" lon="6.85654">
        <ele>1463</ele>
        <time>2018-02-22T01:03:15Z</time>
      </trkpt>
      <trkpt lat="45.6159" lon="6.85617">
        <ele>1460</ele>
        <time>2018-02-22T01:04:15Z</time>
      </trkpt>
      <trkpt lat="45.61617" lon="6.85505">
        <ele>1457</ele>
        <time>2018-02-22T01:05:15Z</time>
      </trkpt>
      <trkpt lat="45.61618" lon="6.85491">
        <ele>1456</ele>
        <time>2018-02-22T01:06:15Z</time>
      </trkpt>
      <trkpt lat="45.61607" lon="6.85466">
        <ele>1447</ele>
        <time>2018-02-22T01:07:15Z</time>
      </trkpt>
      <trkpt lat="45.61598" lon="6.85442">
        <ele>1440</ele>
        <time>2018-02-22T01:08:15Z</time>
      </trkpt>
      <trkpt lat="45.61598" lon="6.85431">
        <ele>1438</ele>
        <time>2018-02-22T01:09:15Z</time>
      </trkpt>
      <trkpt lat="45.61592" lon="6.85419">
        <ele>1433</ele>
        <time>2018-02-22T01:10:15Z</time>
      </trkpt>
      <trkpt lat="45.6159" lon="6.85386">
        <ele>1425</ele>
        <time>2018-02-22T01:11:15Z</time>
      </trkpt>
      <trkpt lat="45.61569" lon="6.85397">
        <ele>1419</ele>
        <time>2018-02-22T01:12:15Z</time>
      </trkpt>
      <trkpt lat="45.61472" lon="6.85522">
        <ele>1411</ele>
        <time>2018-02-22T01:13:15Z</time>
      </trkpt>
      <trkpt lat="45.61436" lon="6.85552">
        <ele>1407</ele>
        <time>2018-02-22T01:14:15Z</time>
      </trkpt>
      <trkpt lat="45.61414" lon="6.8558">
        <ele>1405</ele>
        <time>2018-02-22T01:15:15Z</time>
      </trkpt>
      <trkpt lat="45.6141" lon="6.85611">
        <ele>1402</ele>
        <time>2018-02-22T01:16:15Z</time>
      </trkpt>
      <trkpt lat="45.61418" lon="6.85674">
        <ele>1403</ele>
        <time>2018-02-22T01:17:15Z</time>
      </trkpt>
      <trkpt lat="45.61445" lon="6.85754">
        <ele>1408</ele>
        <time>2018-02-22T01:18:15Z</time>
      </trkpt>
      <trkpt lat="45.61434" lon="6.85778">
        <ele>1408</ele>
        <time>2018-02-22T01:19:15Z</time>
      </trkpt>
      <trkpt lat="45.61376" lon="6.85814">
        <ele>1390</ele>
        <time>2018-02-22T01:20:15Z</time>
      </trkpt>
      <trkpt lat="45.61338" lon="6.85877">
        <ele>1379</ele>
        <time>2018-02-22T01:21:15Z</time>
      </trkpt>
      <trkpt lat="45.61326" lon="6.8594">
        <ele>1382</ele>
        <time>2018-02-22T01:22:15Z</time>
      </trkpt>
      <trkpt lat="45.61311" lon="6.85981">
        <ele>1381</ele>
        <time>2018-02-22T01:23:15Z</time>
      </trkpt>
      <trkpt lat="45.61282" lon="6.86025">
        <ele>1372</ele>
        <time>2018-02-22T01:24:15Z</time>
      </trkpt>
      <trkpt lat="45.61252" lon="6.86092">
        <ele>1359</ele>
        <time>2018-02-22T01:25:15Z</time>
      </trkpt>
      <trkpt lat="45.61246" lon="6.86072">
        <ele>1356</ele>
        <time>2018-02-22T01:26:15Z</time>
      </trkpt>
      <trkpt lat="45.61251" lon="6.86026">
        <ele>1358</ele>
        <time>2018-02-22T01:27:15Z</time>
      </trkpt>
      <trkpt lat="45.61264" lon="6.85938">
        <ele>1360</ele>
        <time>2018-02-22T01:28:15Z</time>
      </trkpt>
      <trkpt lat="45.61269" lon="6.85893">
        <ele>1358</ele>
        <time>2018-02-22T01:29:15Z</time>
      </trkpt>
      <trkpt lat="45.61276" lon="6.85855">
        <ele>1356</ele>
        <time>2018-02-22T01:30:15Z</time>
      </trkpt>
      <trkpt lat="45.61292" lon="6.8579">
        <ele>1354</ele>
        <time>2018-02-22T01:31:15Z</time>
      </trkpt>
      <trkpt lat="45.61286" lon="6.85771">
        <ele>1350</ele>
        <time>2018-02-22T01:32:15Z</time>
      </trkpt>
      <trkpt lat="45.61276" lon="6.85756">
        <ele>1345</ele>
        <time>2018-02-22T01:33:15Z</time>
      </trkpt>
      <trkpt lat="45.61267" lon="6.85739">
        <ele>1341</ele>
        <time>2018-02-22T01:34:15Z</time>
      </trkpt>
      <trkpt lat="45.61264" lon="6.85716">
        <ele>1338</ele>
        <time>2018-02-22T01:35:15Z</time>
      </trkpt>
      <trkpt lat="45.61261" lon="6.85662">
        <ele>1332</ele>
        <time>2018-02-22T01:36:15Z</time>
      </trkpt>
      <trkpt lat="45.61262" lon="6.8564">
        <ele>1331</ele>
        <time>2018-02-22T01:37:15Z</time>
      </trkpt>
      <trkpt lat="45.61269" lon="6.85615">
        <ele>1333</ele>
        <time>2018-02-22T01:38:15Z</time>
      </trkpt>
      <trkpt lat="45.61274" lon="6.85568">
        <ele>1330</ele>
        <time>2018-02-22T01:39:15Z</time>
      </trkpt>
      <trkpt lat="45.61289" lon="6.85503">
        <ele>1324</ele>
        <time>2018-02-22T01:40:15Z</time>
      </trkpt>
      <trkpt lat="45.61293" lon="6.85475">
        <ele>1319</ele>
        <time>2018-02-22T01:41:15Z</time>
      </trkpt>
      <trkpt lat="45.61308" lon="6.85433">
        <ele>1313</ele>
        <time>2018-02-22T01:42:15Z</time>
      </trkpt>
      <trkpt lat="45.61352" lon="6.85387">
        <ele>1315</ele>
        <time>2018-02-22T01:43:15Z</time>
      </trkpt>
      <trkpt lat="45.61366" lon="6.85369">
        <ele>1315</ele>
        <time>2018-02-22T01:44:15Z</time>
      </trkpt>
      <trkpt lat="45.6138" lon="6.85343">
        <ele>1312</ele>
        <time>2018-02-22T01:45:15Z</time>
      </trkpt>
      <trkpt lat="45.61392" lon="6.85317">
        <ele>1311</ele>
        <time>2018-02-22T01:46:15Z</time>
      </trkpt>
      <trkpt lat="45.61404" lon="6.85281">
        <ele>1311</ele>
        <time>2018-02-22T01:47:15Z</time>
      </trkpt>
      <trkpt lat="45.61403" lon="6.85227">
        <ele>1302</ele>
        <time>2018-02-22T01:48:15Z</time>
      </trkpt>
      <trkpt lat="45.61408" lon="6.85182">
        <ele>1298</ele>
        <time>2018-02-22T01:49:15Z</time>
      </trkpt>
      <trkpt lat="45.61418" lon="6.85136">
        <ele>1297</ele>
        <time>2018-02-22T01:50:15Z</time>
      </trkpt>
      <trkpt lat="45.61417" lon="6.85119">
        <ele>1295</ele>
        <time>2018-02-22T01:51:15Z</time>
      </trkpt>
      <trkpt lat="45.61397" lon="6.85058">
        <ele>1282</ele>
        <time>2018-02-22T01:52:15Z</time>
      </trkpt>
      <trkpt lat="45.61381" lon="6.85004">
        <ele>1275</ele>
        <time>2018-02-22T01:53:15Z</time>
      </trkpt>
      <trkpt lat="45.61377" lon="6.84986">
        <ele>1272</ele>
        <time>2018-02-22T01:54:15Z</time>
      </trkpt>
      <trkpt lat="45.61376" lon="6.84976">
        <ele>1271</ele>
        <time>2018-02-22T01:55:15Z</time>
      </trkpt>
      <trkpt lat="45.61378" lon="6.84956">
        <ele>1271</ele>
        <time>2018-02-22T01:56:15Z</time>
      </trkpt>
      <trkpt lat="45.61387" lon="6.84921">
        <ele>1274</ele>
        <time>2018-02-22T01:57:15Z</time>
      </trkpt>
      <trkpt lat="45.61391" lon="6.8483">
        <ele>1274</ele>
        <time>2018-02-22T01:58:15Z</time>
      </trkpt>
      <trkpt lat="45.61387" lon="6.8482">
        <ele>1272</ele>
        <time>2018-02-22T01:59:15Z</time>
      </trkpt>
      <trkpt lat="45.61381" lon="6.84821">
        <ele>1268</ele>
        <time>2018-02-22T02:00:15Z</time>
      </trkpt>
      <trkpt lat="45.61374" lon="6.84826">
        <ele>1265</ele>
        <time>2018-02-22T02:01:15Z</time>
      </trkpt>
      <trkpt lat="45.61369" lon="6.84836">
        <ele>1262</ele>
        <time>2018-02-22T02:02:15Z</time>
      </trkpt>
      <trkpt lat="45.61367" lon="6.84855">
        <ele>1262</ele>
        <time>2018-02-22T02:03:15Z</time>
      </trkpt>
      <trkpt lat="45.61366" lon="6.84898">
        <ele>1262</ele>
        <time>2018-02-22T02:04:15Z</time>
      </trkpt>
      <trkpt lat="45.61361" lon="6.84917">
        <ele>1261</ele>
        <time>2018-02-22T02:05:15Z</time>
      </trkpt>
      <trkpt lat="45.61356" lon="6.84942">
        <ele>1259</ele>
        <time>2018-02-22T02:06:15Z</time>
      </trkpt>
      <trkpt lat="45.61343" lon="6.85032">
        <ele>1257</ele>
        <time>2018-02-22T02:07:15Z</time>
      </trkpt>
      <trkpt lat="45.61334" lon="6.85066">
        <ele>1254</ele>
        <time>2018-02-22T02:08:15Z</time>
      </trkpt>
      <trkpt lat="45.61325" lon="6.85077">
        <ele>1252</ele>
        <time>2018-02-22T02:09:15Z</time>
      </trkpt>
      <trkpt lat="45.61312" lon="6.85084">
        <ele>1248</ele>
        <time>2018-02-22T02:10:15Z</time>
      </trkpt>
      <trkpt lat="45.61277" lon="6.85136">
        <ele>1241</ele>
        <time>2018-02-22T02:11:15Z</time>
      </trkpt>
      <trkpt lat="45.61266" lon="6.85155">
        <ele>1239</ele>
        <time>2018-02-22T02:12:15Z</time>
      </trkpt>
      <trkpt lat="45.61258" lon="6.85179">
        <ele>1238</ele>
        <time>2018-02-22T02:13:15Z</time>
      </trkpt>
      <trkpt lat="45.61249" lon="6.85229">
        <ele>1238</ele>
        <time>2018-02-22T02:14:15Z</time>
      </trkpt>
      <trkpt lat="45.61222" lon="6.85268">
        <ele>1235</ele>
        <time>2018-02-22T02:15:15Z</time>
      </trkpt>
      <trkpt lat="45.61213" lon="6.85294">
        <ele>1238</ele>
        <time>2018-02-22T02:16:15Z</time>
      </trkpt>
      <trkpt lat="45.61207" lon="6.853">
        <ele>1238</ele>
        <time>2018-02-22T02:17:15Z</time>
      </trkpt>
      <trkpt lat="45.61204" lon="6.85297">
        <ele>1236</ele>
        <time>2018-02-22T02:18:15Z</time>
      </trkpt>
      <trkpt lat="45.61206" lon="6.85284">
        <ele>1233</ele>
        <time>2018-02-22T02:19:15Z</time>
      </trkpt>
      <trkpt lat="45.61214" lon="6.85255">
        <ele>1229</ele>
        <time>2018-02-22T02:20:15Z</time>
      </trkpt>
      <trkpt lat="45.61227" lon="6.85231">
        <ele>1230</ele>
        <time>2018-02-22T02:21:15Z</time>
      </trkpt>
      <trkpt lat="45.61228" lon="6.85217">
        <ele>1229</ele>
        <time>2018-02-22T02:22:15Z</time>
      </trkpt>
      <trkpt lat="45.61221" lon="6.85165">
        <ele>1221</ele>
        <time>2018-02-22T02:23:15Z</time>
      </trkpt>
      <trkpt lat="45.61219" lon="6.85132">
        <ele>1216</ele>
        <time>2018-02-22T02:24:15Z</time>
      </trkpt>
      <trkpt lat="45.61218" lon="6.85063">
        <ele>1209</ele>
        <time>2018-02-22T02:25:15Z</time>
      </trkpt>
      <trkpt lat="45.61218" lon="6.85038">
        <ele>1206</ele>
        <time>2018-02-22T02:26:15Z</time>
      </trkpt>
      <trkpt lat="45.61222" lon="6.85007">
        <ele>1204</ele>
        <time>2018-02-22T02:27:15Z</time>
      </trkpt>
      <trkpt lat="45.61223" lon="6.84974">
        <ele>1202</ele>
        <time>2018-02-22T02:28:15Z</time>
      </trkpt>
      <trkpt lat="45.6122" lon="6.84947">
        <ele>1198</ele>
        <time>2018-02-22T02:29:15Z</time>
      </trkpt>
      <trkpt lat="45.61211" lon="6.84908">
        <ele>1190</ele>
        <time>2018-02-22T02:30:15Z</time>
      </trkpt>
      <trkpt lat="45.61205" lon="6.84843">
        <ele>1183</ele>
        <time>2018-02-22T02:31:15Z</time>
      </trkpt>
      <trkpt lat="45.61209" lon="6.84825">
        <ele>1184</ele>
        <time>2018-02-22T02:32:15Z</time>
      </trkpt>
      <trkpt lat="45.61222" lon="6.8481">
        <ele>1188</ele>
        <time>2018-02-22T02:33:15Z</time>
      </trkpt>
      <trkpt lat="45.6123" lon="6.84803">
        <ele>1191</ele>
        <time>2018-02-22T02:34:15Z</time>
      </trkpt>
      <trkpt lat="45.61233" lon="6.84796">
        <ele>1191</ele>
        <time>2018-02-22T02:35:15Z</time>
      </trkpt>
      <trkpt lat="45.61235" lon="6.84771">
        <ele>1189</ele>
        <time>2018-02-22T02:36:15Z</time>
      </trkpt>
      <trkpt lat="45.61233" lon="6.84743">
        <ele>1185</ele>
        <time>2018-02-22T02:37:15Z</time>
      </trkpt>
      <trkpt lat="45.61248" lon="6.84612">
        <ele>1179</ele>
        <time>2018-02-22T02:38:15Z</time>
      </trkpt>
      <trkpt lat="45.61253" lon="6.84587">
        <ele>1180</ele>
        <time>2018-02-22T02:39:15Z</time>
      </trkpt>
      <trkpt lat="45.6125" lon="6.84582">
        <ele>1177</ele>
        <time>2018-02-22T02:40:15Z</time>
      </trkpt>
      <trkpt lat="45.61244" lon="6.84582">
        <ele>1175</ele>
        <time>2018-02-22T02:41:15Z</time>
      </trkpt>
      <trkpt lat="45.61241" lon="6.84591">
        <ele>1175</ele>
        <time>2018-02-22T02:42:15Z</time>
      </trkpt>
      <trkpt lat="45.61242" lon="6.84609">
        <ele>1177</ele>
        <time>2018-02-22T02:43:15Z</time>
      </trkpt>
      <trkpt lat="45.6123" lon="6.84647">
        <ele>1176</ele>
        <time>2018-02-22T02:44:15Z</time>
      </trkpt>
      <trkpt lat="45.61203" lon="6.84686">
        <ele>1170</ele>
        <time>2018-02-22T02:45:15Z</time>
      </trkpt>
      <trkpt lat="45.61192" lon="6.84698">
        <ele>1167</ele>
        <time>2018-02-22T02:46:15Z</time>
      </trkpt>
      <trkpt lat="45.61178" lon="6.84711">
        <ele>1162</ele>
        <time>2018-02-22T02:47:15Z</time>
      </trkpt>
      <trkpt lat="45.61169" lon="6.84713">
        <ele>1159</ele>
        <time>2018-02-22T02:48:15Z</time>
      </trkpt>
      <trkpt lat="45.61162" lon="6.84712">
        <ele>1156</ele>
        <time>2018-02-22T02:49:15Z</time>
      </trkpt>
      <trkpt lat="45.61156" lon="6.84704">
        <ele>1154</ele>
        <time>2018-02-22T02:50:15Z</time>
      </trkpt>
      <trkpt lat="45.61153" lon="6.84691">
        <ele>1153</ele>
        <time>2018-02-22T02:51:15Z</time>
      </trkpt>
      <trkpt lat="45.61154" lon="6.8468">
        <ele>1153</ele>
        <time>2018-02-22T02:52:15Z</time>
      </trkpt>
      <trkpt lat="45.61164" lon="6.84661">
        <ele>1155</ele>
        <time>2018-02-22T02:53:15Z</time>
      </trkpt>
      <trkpt lat="45.61186" lon="6.84638">
        <ele>1160</ele>
        <time>2018-02-22T02:54:15Z</time>
      </trkpt>
      <trkpt lat="45.612" lon="6.84608">
        <ele>1162</ele>
        <time>2018-02-22T02:55:15Z</time>
      </trkpt>
      <trkpt lat="45.61207" lon="6.8458">
        <ele>1162</ele>
        <time>2018-02-22T02:56:15Z</time>
      </trkpt>
      <trkpt lat="45.61208" lon="6.84545">
        <ele>1160</ele>
        <time>2018-02-22T02:57:15Z</time>
      </trkpt>
      <trkpt lat="45.61208" lon="6.84504">
        <ele>1157</ele>
        <time>2018-02-22T02:58:15Z</time>
      </trkpt>
      <trkpt lat="45.61213" lon="6.84476">
        <ele>1153</ele>
        <time>2018-02-22T02:59:15Z</time>
      </trkpt>
      <trkpt lat="45.61261" lon="6.84359">
        <ele>1151</ele>
        <time>2018-02-22T03:00:15Z</time>
      </trkpt>
      <trkpt lat="45.61296" lon="6.84252">
        <ele>1151</ele>
        <time>2018-02-22T03:01:15Z</time>
      </trkpt>
      <trkpt lat="45.61329" lon="6.84165">
        <ele>1150</ele>
        <time>2018-02-22T03:02:15Z</time>
      </trkpt>
      <trkpt lat="45.61352" lon="6.84095">
        <ele>1149</ele>
        <time>2018-02-22T03:03:15Z</time>
      </trkpt>
      <trkpt lat="45.61385" lon="6.84002">
        <ele>1146</ele>
        <time>2018-02-22T03:04:15Z</time>
      </trkpt>
      <trkpt lat="45.61402" lon="6.83949">
        <ele>1151</ele>
        <time>2018-02-22T03:05:15Z</time>
      </trkpt>
      <trkpt lat="45.61406" lon="6.83927">
        <ele>1151</ele>
        <time>2018-02-22T03:06:15Z</time>
      </trkpt>
      <trkpt lat="45.61402" lon="6.83884">
        <ele>1147</ele>
        <time>2018-02-22T03:07:15Z</time>
      </trkpt>
      <trkpt lat="45.61399" lon="6.83828">
        <ele>1143</ele>
        <time>2018-02-22T03:08:15Z</time>
      </trkpt>
      <trkpt lat="45.61406" lon="6.83785">
        <ele>1137</ele>
        <time>2018-02-22T03:09:15Z</time>
      </trkpt>
      <trkpt lat="45.6142" lon="6.83747">
        <ele>1136</ele>
        <time>2018-02-22T03:10:15Z</time>
      </trkpt>
      <trkpt lat="45.61467" lon="6.83678">
        <ele>1145</ele>
        <time>2018-02-22T03:11:15Z</time>
      </trkpt>
      <trkpt lat="45.61489" lon="6.83613">
        <ele>1135</ele>
        <time>2018-02-22T03:12:15Z</time>
      </trkpt>
      <trkpt lat="45.61551" lon="6.83497">
        <ele>1132</ele>
        <time>2018-02-22T03:13:15Z</time>
      </trkpt>
      <trkpt lat="45.61581" lon="6.83454">
        <ele>1136</ele>
        <time>2018-02-22T03:14:15Z</time>
      </trkpt>
      <trkpt lat="45.61593" lon="6.83431">
        <ele>1136</ele>
        <time>2018-02-22T03:15:15Z</time>
      </trkpt>
      <trkpt lat="45.616" lon="6.83409">
        <ele>1135</ele>
        <time>2018-02-22T03:16:15Z</time>
      </trkpt>
      <trkpt lat="45.61612" lon="6.83319">
        <ele>1126</ele>
        <time>2018-02-22T03:17:15Z</time>
      </trkpt>
      <trkpt lat="45.61622" lon="6.83282">
        <ele>1124</ele>
        <time>2018-02-22T03:18:15Z</time>
      </trkpt>
      <trkpt lat="45.61646" lon="6.83233">
        <ele>1123</ele>
        <time>2018-02-22T03:19:15Z</time>
      </trkpt>
      <trkpt lat="45.6173" lon="6.83126">
        <ele>1114</ele>
        <time>2018-02-22T03:20:15Z</time>
      </trkpt>
      <trkpt lat="45.61748" lon="6.83114">
        <ele>1115</ele>
        <time>2018-02-22T03:21:15Z</time>
      </trkpt>
      <trkpt lat="45.61829" lon="6.83087">
        <ele>1123</ele>
        <time>2018-02-22T03:22:15Z</time>
      </trkpt>
      <trkpt lat="45.61865" lon="6.83082">
        <ele>1130</ele>
        <time>2018-02-22T03:23:15Z</time>
      </trkpt>
      <trkpt lat="45.6189" lon="6.83068">
        <ele>1133</ele>
        <time>2018-02-22T03:24:15Z</time>
      </trkpt>
      <trkpt lat="45.61902" lon="6.83048">
        <ele>1130</ele>
        <time>2018-02-22T03:25:15Z</time>
      </trkpt>
      <trkpt lat="45.61918" lon="6.82989">
        <ele>1122</ele>
        <time>2018-02-22T03:26:15Z</time>
      </trkpt>
      <trkpt lat="45.61916" lon="6.82957">
        <ele>1124</ele>
        <time>2018-02-22T03:27:15Z</time>
      </trkpt>
      <trkpt lat="45.61907" lon="6.82939">
        <ele>1121</ele>
        <time>2018-02-22T03:28:15Z</time>
      </trkpt>
      <trkpt lat="45.6188" lon="6.82921">
        <ele>1110</ele>
        <time>2018-02-22T03:29:15Z</time>
      </trkpt>
      <trkpt lat="45.61865" lon="6.82897">
        <ele>1106</ele>
        <time>2018-02-22T03:30:15Z</time>
      </trkpt>
      <trkpt lat="45.61858" lon="6.82864">
        <ele>1106</ele>
        <time>2018-02-22T03:31:15Z</time>
      </trkpt>
      <trkpt lat="45.61857" lon="6.82815">
        <ele>1110</ele>
        <time>2018-02-22T03:32:15Z</time>
      </trkpt>
      <trkpt lat="45.61854" lon="6.82776">
        <ele>1112</ele>
        <time>2018-02-22T03:33:15Z</time>
      </trkpt>
      <trkpt lat="45.61847" lon="6.82749">
        <ele>1111</ele>
        <time>2018-02-22T03:34:15Z</time>
      </trkpt>
      <trkpt lat="45.61825" lon="6.82696">
        <ele>1103</ele>
        <time>2018-02-22T03:35:15Z</time>
      </trkpt>
      <trkpt lat="45.61807" lon="6.82645">
        <ele>1093</ele>
        <time>2018-02-22T03:36:15Z</time>
      </trkpt>
      <trkpt lat="45.61805" lon="6.82617">
        <ele>1092</ele>
        <time>2018-02-22T03:37:15Z</time>
      </trkpt>
      <trkpt lat="45.61807" lon="6.82575">
        <ele>1091</ele>
        <time>2018-02-22T03:38:15Z</time>
      </trkpt>
      <trkpt lat="45.61805" lon="6.82525">
        <ele>1084</ele>
        <time>2018-02-22T03:39:15Z</time>
      </trkpt>
      <trkpt lat="45.61809" lon="6.82485">
        <ele>1081</ele>
        <time>2018-02-22T03:40:15Z</time>
      </trkpt>
      <trkpt lat="45.61821" lon="6.82441">
        <ele>1080</ele>
        <time>2018-02-22T03:41:15Z</time>
      </trkpt>
      <trkpt lat="45.61834" lon="6.82409">
        <ele>1082</ele>
        <time>2018-02-22T03:42:15Z</time>
      </trkpt>
      <trkpt lat="45.61859" lon="6.82392">
        <ele>1087</ele>
        <time>2018-02-22T03:43:15Z</time>
      </trkpt>
      <trkpt lat="45.61871" lon="6.82378">
        <ele>1088</ele>
        <time>2018-02-22T03:44:15Z</time>
      </trkpt>
      <trkpt lat="45.61894" lon="6.82321">
        <ele>1083</ele>
        <time>2018-02-22T03:45:15Z</time>
      </trkpt>
      <trkpt lat="45.61891" lon="6.82314">
        <ele>1080</ele>
        <time>2018-02-22T03:46:15Z</time>
      </trkpt>
      <trkpt lat="45.61892" lon="6.823">
        <ele>1077</ele>
        <time>2018-02-22T03:47:15Z</time>
      </trkpt>
      <trkpt lat="45.6192" lon="6.82225">
        <ele>1076</ele>
        <time>2018-02-22T03:48:15Z</time>
      </trkpt>
      <trkpt lat="45.61937" lon="6.82185">
        <ele>1076</ele>
        <time>2018-02-22T03:49:15Z</time>
      </trkpt>
      <trkpt lat="45.6206" lon="6.81956">
        <ele>1071</ele>
        <time>2018-02-22T03:50:15Z</time>
      </trkpt>
      <trkpt lat="45.62065" lon="6.81942">
        <ele>1070</ele>
        <time>2018-02-22T03:51:15Z</time>
      </trkpt>
      <trkpt lat="45.6207" lon="6.8192">
        <ele>1068</ele>
        <time>2018-02-22T03:52:15Z</time>
      </trkpt>
      <trkpt lat="45.62088" lon="6.81824">
        <ele>1062</ele>
        <time>2018-02-22T03:53:15Z</time>
      </trkpt>
      <trkpt lat="45.62101" lon="6.81779">
        <ele>1057</ele>
        <time>2018-02-22T03:54:15Z</time>
      </trkpt>
      <trkpt lat="45.62108" lon="6.8176">
        <ele>1056</ele>
        <time>2018-02-22T03:55:15Z</time>
      </trkpt>
      <trkpt lat="45.62119" lon="6.81741">
        <ele>1056</ele>
        <time>2018-02-22T03:56:15Z</time>
      </trkpt>
      <trkpt lat="45.62148" lon="6.81694">
        <ele>1054</ele>
        <time>2018-02-22T03:57:15Z</time>
      </trkpt>
      <trkpt lat="45.62164" lon="6.81676">
        <ele>1055</ele>
        <time>2018-02-22T03:58:15Z</time>
      </trkpt>
      <trkpt lat="45.6222" lon="6.81627">
        <ele>1057</ele>
        <time>2018-02-22T03:59:15Z</time>
      </trkpt>
      <trkpt lat="45.62226" lon="6.81616">
        <ele>1056</ele>
        <time>2018-02-22T04:00:15Z</time>
      </trkpt>
      <trkpt lat="45.62231" lon="6.81602">
        <ele>1055</ele>
        <time>2018-02-22T04:01:15Z</time>
      </trkpt>
      <trkpt lat="45.6224" lon="6.8156">
        <ele>1048</ele>
        <time>2018-02-22T04:02:15Z</time>
      </trkpt>
      <trkpt lat="45.62246" lon="6.8154">
        <ele>1045</ele>
        <time>2018-02-22T04:03:15Z</time>
      </trkpt>
      <trkpt lat="45.62254" lon="6.81527">
        <ele>1044</ele>
        <time>2018-02-22T04:04:15Z</time>
      </trkpt>
      <trkpt lat="45.62278" lon="6.81501">
        <ele>1043</ele>
        <time>2018-02-22T04:05:15Z</time>
      </trkpt>
      <trkpt lat="45.6233" lon="6.8146">
        <ele>1042</ele>
        <time>2018-02-22T04:06:15Z</time>
      </trkpt>
      <trkpt lat="45.6239" lon="6.81429">
        <ele>1044</ele>
        <time>2018-02-22T04:07:15Z</time>
      </trkpt>
      <trkpt lat="45.62395" lon="6.81425">
        <ele>1043</ele>
        <time>2018-02-22T04:08:15Z</time>
      </trkpt>
      <trkpt lat="45.62408" lon="6.81407">
        <ele>1041</ele>
        <time>2018-02-22T04:09:15Z</time>
      </trkpt>
      <trkpt lat="45.62437" lon="6.81347">
        <ele>1033</ele>
        <time>2018-02-22T04:10:15Z</time>
      </trkpt>
      <trkpt lat="45.62448" lon="6.81335">
        <ele>1032</ele>
        <time>2018-02-22T04:11:15Z</time>
      </trkpt>
      <trkpt lat="45.62491" lon="6.81303">
        <ele>1032</ele>
        <time>2018-02-22T04:12:15Z</time>
      </trkpt>
      <trkpt lat="45.6252" lon="6.81274">
        <ele>1026</ele>
        <time>2018-02-22T04:13:15Z</time>
      </trkpt>
      <trkpt lat="45.6253" lon="6.81269">
        <ele>1025</ele>
        <time>2018-02-22T04:14:15Z</time>
      </trkpt>
      <trkpt lat="45.62536" lon="6.81268">
        <ele>1025</ele>
        <time>2018-02-22T04:15:15Z</time>
      </trkpt>
      <trkpt lat="45.62543" lon="6.81271">
        <ele>1026</ele>
        <time>2018-02-22T04:16:15Z</time>
      </trkpt>
      <trkpt lat="45.62582" lon="6.81304">
        <ele>1039</ele>
        <time>2018-02-22T04:17:15Z</time>
      </trkpt>
      <trkpt lat="45.62593" lon="6.81307">
        <ele>1041</ele>
        <time>2018-02-22T04:18:15Z</time>
      </trkpt>
      <trkpt lat="45.62604" lon="6.81305">
        <ele>1041</ele>
        <time>2018-02-22T04:19:15Z</time>
      </trkpt>
      <trkpt lat="45.62621" lon="6.81292">
        <ele>1038</ele>
        <time>2018-02-22T04:20:15Z</time>
      </trkpt>
      <trkpt lat="45.62665" lon="6.81252">
        <ele>1024</ele>
        <time>2018-02-22T04:21:15Z</time>
      </trkpt>
      <trkpt lat="45.62673" lon="6.81242">
        <ele>1023</ele>
        <time>2018-02-22T04:22:15Z</time>
      </trkpt>
      <trkpt lat="45.62677" lon="6.81236">
        <ele>1023</ele>
        <time>2018-02-22T04:23:15Z</time>
      </trkpt>
      <trkpt lat="45.62669" lon="6.81228">
        <ele>1021</ele>
        <time>2018-02-22T04:24:15Z</time>
      </trkpt>
      <trkpt lat="45.6265" lon="6.81225">
        <ele>1019</ele>
        <time>2018-02-22T04:25:15Z</time>
      </trkpt>
      <trkpt lat="45.62611" lon="6.81222">
        <ele>1016</ele>
        <time>2018-02-22T04:26:15Z</time>
      </trkpt>
      <trkpt lat="45.6255" lon="6.81205">
        <ele>1009</ele>
        <time>2018-02-22T04:27:15Z</time>
      </trkpt>
      <trkpt lat="45.62542" lon="6.81196">
        <ele>1006</ele>
        <time>2018-02-22T04:28:15Z</time>
      </trkpt>
      <trkpt lat="45.62532" lon="6.81179">
        <ele>1000</ele>
        <time>2018-02-22T04:29:15Z</time>
      </trkpt>
      <trkpt lat="45.62527" lon="6.81165">
        <ele>996</ele>
        <time>2018-02-22T04:30:15Z</time>
      </trkpt>
      <trkpt lat="45.62522" lon="6.81163">
        <ele>996</ele>
        <time>2018-02-22T04:31:15Z</time>
      </trkpt>
      <trkpt lat="45.62519" lon="6.8116">
        <ele>995</ele>
        <time>2018-02-22T04:32:15Z</time>
      </trkpt>
      <trkpt lat="45.62506" lon="6.81159">
        <ele>994</ele>
        <time>2018-02-22T04:33:15Z</time>
      </trkpt>
      <trkpt lat="45.62494" lon="6.8115">
        <ele>992</ele>
        <time>2018-02-22T04:34:15Z</time>
      </trkpt>
      <trkpt lat="45.62479" lon="6.81131">
        <ele>988</ele>
        <time>2018-02-22T04:35:15Z</time>
      </trkpt>
      <trkpt lat="45.62468" lon="6.81112">
        <ele>984</ele>
        <time>2018-02-22T04:36:15Z</time>
      </trkpt>
      <trkpt lat="45.62459" lon="6.81078">
        <ele>979</ele>
        <time>2018-02-22T04:37:15Z</time>
      </trkpt>
      <trkpt lat="45.62446" lon="6.81044">
        <ele>976</ele>
        <time>2018-02-22T04:38:15Z</time>
      </trkpt>
      <trkpt lat="45.62436" lon="6.8103">
        <ele>974</ele>
        <time>2018-02-22T04:39:15Z</time>
      </trkpt>
      <trkpt lat="45.62419" lon="6.81015">
        <ele>971</ele>
        <time>2018-02-22T04:40:15Z</time>
      </trkpt>
      <trkpt lat="45.62416" lon="6.81006">
        <ele>970</ele>
        <time>2018-02-22T04:41:15Z</time>
      </trkpt>
      <trkpt lat="45.62417" lon="6.80967">
        <ele>969</ele>
        <time>2018-02-22T04:42:15Z</time>
      </trkpt>
      <trkpt lat="45.62414" lon="6.80947">
        <ele>968</ele>
        <time>2018-02-22T04:43:15Z</time>
      </trkpt>
      <trkpt lat="45.62407" lon="6.80914">
        <ele>966</ele>
        <time>2018-02-22T04:44:15Z</time>
      </trkpt>
      <trkpt lat="45.62402" lon="6.80902">
        <ele>965</ele>
        <time>2018-02-22T04:45:15Z</time>
      </trkpt>
      <trkpt lat="45.62396" lon="6.80895">
        <ele>964</ele>
        <time>2018-02-22T04:46:15Z</time>
      </trkpt>
      <trkpt lat="45.62393" lon="6.80861">
        <ele>962</ele>
        <time>2018-02-22T04:47:15Z</time>
      </trkpt>
      <trkpt lat="45.62393" lon="6.80823">
        <ele>961</ele>
        <time>2018-02-22T04:48:15Z</time>
      </trkpt>
      <trkpt lat="45.62387" lon="6.80791">
        <ele>959</ele>
        <time>2018-02-22T04:49:15Z</time>
      </trkpt>
      <trkpt lat="45.62374" lon="6.80744">
        <ele>956</ele>
        <time>2018-02-22T04:50:15Z</time>
      </trkpt>
      <trkpt lat="45.62358" lon="6.807">
        <ele>952</ele>
        <time>2018-02-22T04:51:15Z</time>
      </trkpt>
      <trkpt lat="45.62343" lon="6.80683">
        <ele>950</ele>
        <time>2018-02-22T04:52:15Z</time>
      </trkpt>
      <trkpt lat="45.62336" lon="6.80672">
        <ele>949</ele>
        <time>2018-02-22T04:53:15Z</time>
      </trkpt>
      <trkpt lat="45.6233" lon="6.80656">
        <ele>948</ele>
        <time>2018-02-22T04:54:15Z</time>
      </trkpt>
      <trkpt lat="45.62327" lon="6.80635">
        <ele>946</ele>
        <time>2018-02-22T04:55:15Z</time>
      </trkpt>
      <trkpt lat="45.62341" lon="6.80515">
        <ele>938</ele>
        <time>2018-02-22T04:56:15Z</time>
      </trkpt>
      <trkpt lat="45.62332" lon="6.80487">
        <ele>935</ele>
        <time>2018-02-22T04:57:15Z</time>
      </trkpt>
      <trkpt lat="45.62331" lon="6.80471">
        <ele>933</ele>
        <time>2018-02-22T04:58:15Z</time>
      </trkpt>
      <trkpt lat="45.62336" lon="6.80409">
        <ele>929</ele>
        <time>2018-02-22T04:59:15Z</time>
      </trkpt>
      <trkpt lat="45.62334" lon="6.80387">
        <ele>927</ele>
        <time>2018-02-22T05:00:15Z</time>
      </trkpt>
      <trkpt lat="45.62331" lon="6.80373">
        <ele>925</ele>
        <time>2018-02-22T05:01:15Z</time>
      </trkpt>
      <trkpt lat="45.62316" lon="6.80331">
        <ele>920</ele>
        <time>2018-02-22T05:02:15Z</time>
      </trkpt>
      <trkpt lat="45.62319" lon="6.80298">
        <ele>918</ele>
        <time>2018-02-22T05:03:15Z</time>
      </trkpt>
      <trkpt lat="45.62316" lon="6.8029">
        <ele>918</ele>
        <time>2018-02-22T05:04:15Z</time>
      </trkpt>
      <trkpt lat="45.62299" lon="6.80266">
        <ele>915</ele>
        <time>2018-02-22T05:05:15Z</time>
      </trkpt>
      <trkpt lat="45.62287" lon="6.80254">
        <ele>913</ele>
        <time>2018-02-22T05:06:15Z</time>
      </trkpt>
      <trkpt lat="45.62248" lon="6.80234">
        <ele>909</ele>
        <time>2018-02-22T05:07:15Z</time>
      </trkpt>
      <trkpt lat="45.6223" lon="6.8025">
        <ele>908</ele>
        <time>2018-02-22T05:08:15Z</time>
      </trkpt>
      <trkpt lat="45.62228" lon="6.80246">
        <ele>907</ele>
        <time>2018-02-22T05:09:15Z</time>
      </trkpt>
      <trkpt lat="45.62227" lon="6.80226">
        <ele>906</ele>
        <time>2018-02-22T05:10:15Z</time>
      </trkpt>
      <trkpt lat="45.62186" lon="6.80166">
        <ele>898</ele>
        <time>2018-02-22T05:11:15Z</time>
      </trkpt>
      <trkpt lat="45.62185" lon="6.80154">
        <ele>897</ele>
        <time>2018-02-22T05:12:15Z</time>
      </trkpt>
      <trkpt lat="45.62182" lon="6.8015">
        <ele>896</ele>
        <time>2018-02-22T05:13:15Z</time>
      </trkpt>
      <trkpt lat="45.62208" lon="6.80076">
        <ele>894</ele>
        <time>2018-02-22T05:14:15Z</time>
      </trkpt>
      <trkpt lat="45.62208" lon="6.80076">
        <ele>894</ele>
        <time>2018-02-22T05:15:15Z</time>
      </trkpt>
      <trkpt lat="45.62225" lon="6.80043">
        <ele>893</ele>
        <time>2018-02-22T05:16:15Z</time>
      </trkpt>
      <trkpt lat="45.62233" lon="6.80031">
        <ele>893</ele>
        <time>2018-02-22T05:17:15Z</time>
      </trkpt>
      <trkpt lat="45.62274" lon="6.79975">
        <ele>892</ele>
        <time>2018-02-22T05:18:15Z</time>
      </trkpt>
      <trkpt lat="45.62286" lon="6.7996">
        <ele>892</ele>
        <time>2018-02-22T05:19:15Z</time>
      </trkpt>
      <trkpt lat="45.62294" lon="6.79945">
        <ele>891</ele>
        <time>2018-02-22T05:20:15Z</time>
      </trkpt>
      <trkpt lat="45.62321" lon="6.79879">
        <ele>887</ele>
        <time>2018-02-22T05:21:15Z</time>
      </trkpt>
      <trkpt lat="45.62339" lon="6.79844">
        <ele>886</ele>
        <time>2018-02-22T05:22:15Z</time>
      </trkpt>
      <trkpt lat="45.62459" lon="6.79589">
        <ele>872</ele>
        <time>2018-02-22T05:23:15Z</time>
      </trkpt>
      <trkpt lat="45.62508" lon="6.79492">
        <ele>870</ele>
        <time>2018-02-22T05:24:15Z</time>
      </trkpt>
      <trkpt lat="45.62527" lon="6.7947">
        <ele>870</ele>
        <time>2018-02-22T05:25:15Z</time>
      </trkpt>
      <trkpt lat="45.62536" lon="6.79467">
        <ele>870</ele>
        <time>2018-02-22T05:26:15Z</time>
      </trkpt>
      <trkpt lat="45.6254" lon="6.79458">
        <ele>870</ele>
        <time>2018-02-22T05:27:15Z</time>
      </trkpt>
      <trkpt lat="45.6254" lon="6.79451">
        <ele>869</ele>
        <time>2018-02-22T05:28:15Z</time>
      </trkpt>
      <trkpt lat="45.62559" lon="6.79421">
        <ele>868</ele>
        <time>2018-02-22T05:29:15Z</time>
      </trkpt>
      <trkpt lat="45.62581" lon="6.79401">
        <ele>867</ele>
        <time>2018-02-22T05:30:15Z</time>
      </trkpt>
      <trkpt lat="45.626" lon="6.79374">
        <ele>871</ele>
        <time>2018-02-22T05:31:15Z</time>
      </trkpt>
      <trkpt lat="45.62621" lon="6.79331">
        <ele>873</ele>
        <time>2018-02-22T05:32:15Z</time>
      </trkpt>
      <trkpt lat="45.62635" lon="6.79281">
        <ele>873</ele>
        <time>2018-02-22T05:33:15Z</time>
      </trkpt>
      <trkpt lat="45.62646" lon="6.79219">
        <ele>869</ele>
        <time>2018-02-22T05:34:15Z</time>
      </trkpt>
      <trkpt lat="45.62664" lon="6.79151">
        <ele>863</ele>
        <time>2018-02-22T05:35:15Z</time>
      </trkpt>
      <trkpt lat="45.62683" lon="6.79054">
        <ele>860</ele>
        <time>2018-02-22T05:36:15Z</time>
      </trkpt>
      <trkpt lat="45.62688" lon="6.79017">
        <ele>858</ele>
        <time>2018-02-22T05:37:15Z</time>
      </trkpt>
      <trkpt lat="45.62695" lon="6.78936">
        <ele>855</ele>
        <time>2018-02-22T05:38:15Z</time>
      </trkpt>
      <trkpt lat="45.62694" lon="6.78923">
        <ele>854</ele>
        <time>2018-02-22T05:39:15Z</time>
      </trkpt>
      <trkpt lat="45.6271" lon="6.78721">
        <ele>838</ele>
        <time>2018-02-22T05:40:15Z</time>
      </trkpt>
      <trkpt lat="45.6271" lon="6.78691">
        <ele>838</ele>
        <time>2018-02-22T05:41:15Z</time>
      </trkpt>
      <trkpt lat="45.62704" lon="6.78642">
        <ele>839</ele>
        <time>2018-02-22T05:42:15Z</time>
      </trkpt>
      <trkpt lat="45.62692" lon="6.78611">
        <ele>840</ele>
        <time>2018-02-22T05:43:15Z</time>
      </trkpt>
      <trkpt lat="45.62647" lon="6.78561">
        <ele>837</ele>
        <time>2018-02-22T05:44:15Z</time>
      </trkpt>
      <trkpt lat="45.62629" lon="6.78538">
        <ele>836</ele>
        <time>2018-02-22T05:45:15Z</time>
      </trkpt>
      <trkpt lat="45.62612" lon="6.78486">
        <ele>835</ele>
        <time>2018-02-22T05:46:15Z</time>
      </trkpt>
      <trkpt lat="45.62572" lon="6.78353">
        <ele>836</ele>
        <time>2018-02-22T05:47:15Z</time>
      </trkpt>
      <trkpt lat="45.62564" lon="6.78296">
        <ele>835</ele>
        <time>2018-02-22T05:48:15Z</time>
      </trkpt>
      <trkpt lat="45.62566" lon="6.78216">
        <ele>833</ele>
        <time>2018-02-22T05:49:15Z</time>
      </trkpt>
      <trkpt lat="45.6256" lon="6.78141">
        <ele>831</ele>
        <time>2018-02-22T05:50:15Z</time>
      </trkpt>
      <trkpt lat="45.62532" lon="6.78062">
        <ele>825</ele>
        <time>2018-02-22T05:51:15Z</time>
      </trkpt>
      <trkpt lat="45.62495" lon="6.77998">
        <ele>818</ele>
        <time>2018-02-22T05:52:15Z</time>
      </trkpt>
      <trkpt lat="45.62375" lon="6.77855">
        <ele>813</ele>
        <time>2018-02-22T05:53:15Z</time>
      </trkpt>
      <trkpt lat="45.62358" lon="6.7784">
        <ele>812</ele>
        <time>2018-02-22T05:54:15Z</time>
      </trkpt>
      <trkpt lat="45.62357" lon="6.77832">
        <ele>812</ele>
        <time>2018-02-22T05:55:15Z</time>
      </trkpt>
      <trkpt lat="45.62353" lon="6.77822">
        <ele>812</ele>
        <time>2018-02-22T05:56:15Z</time>
      </trkpt>
      <trkpt lat="45.62344" lon="6.77817">
        <ele>811</ele>
        <time>2018-02-22T05:57:15Z</time>
      </trkpt>
      <trkpt lat="45.6234" lon="6.77817">
        <ele>811</ele>
        <time>2018-02-22T05:58:15Z</time>
      </trkpt>
      <trkpt lat="45.62323" lon="6.77793">
        <ele>810</ele>
        <time>2018-02-22T05:59:15Z</time>
      </trkpt>
      <trkpt lat="45.62274" lon="6.7768">
        <ele>809</ele>
        <time>2018-02-22T06:00:15Z</time>
      </trkpt>
      <trkpt lat="45.62176" lon="6.77463">
        <ele>809</ele>
        <time>2018-02-22T06:01:15Z</time>
      </trkpt>
      <trkpt lat="45.62131" lon="6.77341">
        <ele>810</ele>
        <time>2018-02-22T06:02:15Z</time>
      </trkpt>
      <trkpt lat="45.62049" lon="6.77143">
        <ele>814</ele>
        <time>2018-02-22T06:03:15Z</time>
      </trkpt>
      <trkpt lat="45.62045" lon="6.77122">
        <ele>815</ele>
        <time>2018-02-22T06:04:15Z</time>
      </trkpt>
      <trkpt lat="45.62047" lon="6.77116">
        <ele>815</ele>
        <time>2018-02-22T06:05:15Z</time>
      </trkpt>
      <trkpt lat="45.62048" lon="6.77108">
        <ele>815</ele>
        <time>2018-02-22T06:06:15Z</time>
      </trkpt>
      <trkpt lat="45.62058" lon="6.77094">
        <ele>815</ele>
        <time>2018-02-22T06:07:15Z</time>
      </trkpt>
      <trkpt lat="45.62045" lon="6.77096">
        <ele>815</ele>
        <time>2018-02-22T06:08:15Z</time>
      </trkpt>
      <trkpt lat="45.62045" lon="6.77096">
        <ele>815</ele>
        <time>2018-02-22T06:09:15Z</time>
      </trkpt>
      <trkpt lat="45.62033" lon="6.77093">
        <ele>815</ele>
        <time>2018-02-22T06:10:15Z</time>
      </trkpt>
      <trkpt lat="45.62027" lon="6.77097">
        <ele>815</ele>
        <time>2018-02-22T06:11:15Z</time>
      </trkpt>
      <trkpt lat="45.62024" lon="6.77102">
        <ele>815</ele>
        <time>2018-02-22T06:12:15Z</time>
      </trkpt>
      <trkpt lat="45.62023" lon="6.77109">
        <ele>815</ele>
        <time>2018-02-22T06:13:15Z</time>
      </trkpt>
      <trkpt lat="45.62023" lon="6.77116">
        <ele>814</ele>
        <time>2018-02-22T06:14:15Z</time>
      </trkpt>
      <trkpt lat="45.62029" lon="6.77127">
        <ele>814</ele>
        <time>2018-02-22T06:15:15Z</time>
      </trkpt>
      <trkpt lat="45.62038" lon="6.77128">
        <ele>814</ele>
        <time>2018-02-22T06:16:15Z</time>
      </trkpt>
      <trkpt lat="45.62045" lon="6.77122">
        <ele>815</ele>
        <time>2018-02-22T06:17:15Z</time>
      </trkpt>
      <trkpt lat="45.62047" lon="6.77116">
        <ele>815</ele>
        <time>2018-02-22T06:18:15Z</time>
      </trkpt>
      <trkpt lat="45.62048" lon="6.77108">
        <ele>815</ele>
        <time>2018-02-22T06:19:15Z</time>
      </trkpt>
      <trkpt lat="45.62058" lon="6.77094">
        <ele>815</ele>
        <time>2018-02-22T06:20:15Z</time>
      </trkpt>
      <trkpt lat="45.62068" lon="6.77088">
        <ele>816</ele>
        <time>2018-02-22T06:21:15Z</time>
      </trkpt>
      <trkpt lat="45.62081" lon="6.77086">
        <ele>816</ele>
        <time>2018-02-22T06:22:15Z</time>
      </trkpt>
      <trkpt lat="45.62129" lon="6.77088">
        <ele>816</ele>
        <time>2018-02-22T06:23:15Z</time>
      </trkpt>
      <trkpt lat="45.62173" lon="6.77085">
        <ele>817</ele>
        <time>2018-02-22T06:24:15Z</time>
      </trkpt>
      <trkpt lat="45.62219" lon="6.77087">
        <ele>819</ele>
        <time>2018-02-22T06:25:15Z</time>
      </trkpt>
      <trkpt lat="45.62249" lon="6.77094">
        <ele>821</ele>
        <time>2018-02-22T06:26:15Z</time>
      </trkpt>
      <trkpt lat="45.6228" lon="6.77108">
        <ele>824</ele>
        <time>2018-02-22T06:27:15Z</time>
      </trkpt>
      <trkpt lat="45.62317" lon="6.77132">
        <ele>828</ele>
        <time>2018-02-22T06:28:15Z</time>
      </trkpt>
      <trkpt lat="45.62334" lon="6.77152">
        <ele>830</ele>
        <time>2018-02-22T06:29:15Z</time>
      </trkpt>
      <trkpt lat="45.62347" lon="6.77173">
        <ele>835</ele>
        <time>2018-02-22T06:30:15Z</time>
      </trkpt>
      <trkpt lat="45.62363" lon="6.772">
        <ele>838</ele>
        <time>2018-02-22T06:31:15Z</time>
      </trkpt>
      <trkpt lat="45.62398" lon="6.77272">
        <ele>841</ele>
        <time>2018-02-22T06:32:15Z</time>
      </trkpt>
      <trkpt lat="45.62446" lon="6.77397">
        <ele>846</ele>
        <time>2018-02-22T06:33:15Z</time>
      </trkpt>
      <trkpt lat="45.6247" lon="6.77467">
        <ele>849</ele>
        <time>2018-02-22T06:34:15Z</time>
      </trkpt>
      <trkpt lat="45.62485" lon="6.77506">
        <ele>852</ele>
        <time>2018-02-22T06:35:15Z</time>
      </trkpt>
      <trkpt lat="45.62506" lon="6.77551">
        <ele>861</ele>
        <time>2018-02-22T06:36:15Z</time>
      </trkpt>
      <trkpt lat="45.6251" lon="6.7757">
        <ele>862</ele>
        <time>2018-02-22T06:37:15Z</time>
      </trkpt>
      <trkpt lat="45.62507" lon="6.77587">
        <ele>860</ele>
        <time>2018-02-22T06:38:15Z</time>
      </trkpt>
      <trkpt lat="45.62496" lon="6.77633">
        <ele>853</ele>
        <time>2018-02-22T06:39:15Z</time>
      </trkpt>
      <trkpt lat="45.62498" lon="6.77668">
        <ele>853</ele>
        <time>2018-02-22T06:40:15Z</time>
      </trkpt>
      <trkpt lat="45.62502" lon="6.77704">
        <ele>853</ele>
        <time>2018-02-22T06:41:15Z</time>
      </trkpt>
      <trkpt lat="45.62518" lon="6.77756">
        <ele>856</ele>
        <time>2018-02-22T06:42:15Z</time>
      </trkpt>
      <trkpt lat="45.62527" lon="6.77774">
        <ele>856</ele>
        <time>2018-02-22T06:43:15Z</time>
      </trkpt>
      <trkpt lat="45.62537" lon="6.77783">
        <ele>859</ele>
        <time>2018-02-22T06:44:15Z</time>
      </trkpt>
      <trkpt lat="45.62565" lon="6.77783">
        <ele>868</ele>
        <time>2018-02-22T06:45:15Z</time>
      </trkpt>
      <trkpt lat="45.62582" lon="6.7778">
        <ele>875</ele>
        <time>2018-02-22T06:46:15Z</time>
      </trkpt>
      <trkpt lat="45.62597" lon="6.77782">
        <ele>881</ele>
        <time>2018-02-22T06:47:15Z</time>
      </trkpt>
      <trkpt lat="45.62615" lon="6.77796">
        <ele>887</ele>
        <time>2018-02-22T06:48:15Z</time>
      </trkpt>
      <trkpt lat="45.62618" lon="6.7781">
        <ele>886</ele>
        <time>2018-02-22T06:49:15Z</time>
      </trkpt>
      <trkpt lat="45.62618" lon="6.77834">
        <ele>882</ele>
        <time>2018-02-22T06:50:15Z</time>
      </trkpt>
      <trkpt lat="45.62613" lon="6.77852">
        <ele>879</ele>
        <time>2018-02-22T06:51:15Z</time>
      </trkpt>
      <trkpt lat="45.62606" lon="6.77889">
        <ele>873</ele>
        <time>2018-02-22T06:52:15Z</time>
      </trkpt>
      <trkpt lat="45.62607" lon="6.77904">
        <ele>872</ele>
        <time>2018-02-22T06:53:15Z</time>
      </trkpt>
      <trkpt lat="45.62611" lon="6.77918">
        <ele>873</ele>
        <time>2018-02-22T06:54:15Z</time>
      </trkpt>
      <trkpt lat="45.62652" lon="6.77968">
        <ele>882</ele>
        <time>2018-02-22T06:55:15Z</time>
      </trkpt>
      <trkpt lat="45.62666" lon="6.77999">
        <ele>881</ele>
        <time>2018-02-22T06:56:15Z</time>
      </trkpt>
      <trkpt lat="45.62677" lon="6.78037">
        <ele>884</ele>
        <time>2018-02-22T06:57:15Z</time>
      </trkpt>
      <trkpt lat="45.6269" lon="6.78073">
        <ele>886</ele>
        <time>2018-02-22T06:58:15Z</time>
      </trkpt>
      <trkpt lat="45.62702" lon="6.78101">
        <ele>889</ele>
        <time>2018-02-22T06:59:15Z</time>
      </trkpt>
      <trkpt lat="45.62737" lon="6.78169">
        <ele>897</ele>
        <time>2018-02-22T07:00:15Z</time>
      </trkpt>
      <trkpt lat="45.62753" lon="6.78212">
        <ele>903</ele>
        <time>2018-02-22T07:01:15Z</time>
      </trkpt>
      <trkpt lat="45.6276" lon="6.7825">
        <ele>906</ele>
        <time>2018-02-22T07:02:15Z</time>
      </trkpt>
      <trkpt lat="45.62775" lon="6.78358">
        <ele>904</ele>
        <time>2018-02-22T07:03:15Z</time>
      </trkpt>
      <trkpt lat="45.62785" lon="6.78381">
        <ele>905</ele>
        <time>2018-02-22T07:04:15Z</time>
      </trkpt>
      <trkpt lat="45.62812" lon="6.78407">
        <ele>911</ele>
        <time>2018-02-22T07:05:15Z</time>
      </trkpt>
      <trkpt lat="45.62821" lon="6.78428">
        <ele>911</ele>
        <time>2018-02-22T07:06:15Z</time>
      </trkpt>
      <trkpt lat="45.62851" lon="6.78475">
        <ele>910</ele>
        <time>2018-02-22T07:07:15Z</time>
      </trkpt>
      <trkpt lat="45.62889" lon="6.78519">
        <ele>910</ele>
        <time>2018-02-22T07:08:15Z</time>
      </trkpt>
      <trkpt lat="45.62908" lon="6.7853">
        <ele>913</ele>
        <time>2018-02-22T07:09:15Z</time>
      </trkpt>
      <trkpt lat="45.62928" lon="6.78535">
        <ele>916</ele>
        <time>2018-02-22T07:10:15Z</time>
      </trkpt>
      <trkpt lat="45.62952" lon="6.78543">
        <ele>918</ele>
        <time>2018-02-22T07:11:15Z</time>
      </trkpt>
      <trkpt lat="45.62968" lon="6.78551">
        <ele>919</ele>
        <time>2018-02-22T07:12:15Z</time>
      </trkpt>
      <trkpt lat="45.62981" lon="6.78562">
        <ele>920</ele>
        <time>2018-02-22T07:13:15Z</time>
      </trkpt>
      <trkpt lat="45.62992" lon="6.78567">
        <ele>921</ele>
        <time>2018-02-22T07:14:15Z</time>
      </trkpt>
      <trkpt lat="45.62999" lon="6.78564">
        <ele>923</ele>
        <time>2018-02-22T07:15:15Z</time>
      </trkpt>
      <trkpt lat="45.63003" lon="6.78555">
        <ele>924</ele>
        <time>2018-02-22T07:16:15Z</time>
      </trkpt>
      <trkpt lat="45.62999" lon="6.78544">
        <ele>926</ele>
        <time>2018-02-22T07:17:15Z</time>
      </trkpt>
      <trkpt lat="45.6299" lon="6.78536">
        <ele>926</ele>
        <time>2018-02-22T07:18:15Z</time>
      </trkpt>
      <trkpt lat="45.62964" lon="6.78522">
        <ele>925</ele>
        <time>2018-02-22T07:19:15Z</time>
      </trkpt>
      <trkpt lat="45.62913" lon="6.78488">
        <ele>924</ele>
        <time>2018-02-22T07:20:15Z</time>
      </trkpt>
      <trkpt lat="45.62889" lon="6.7846">
        <ele>922</ele>
        <time>2018-02-22T07:21:15Z</time>
      </trkpt>
      <trkpt lat="45.6288" lon="6.78429">
        <ele>925</ele>
        <time>2018-02-22T07:22:15Z</time>
      </trkpt>
      <trkpt lat="45.62876" lon="6.78392">
        <ele>929</ele>
        <time>2018-02-22T07:23:15Z</time>
      </trkpt>
      <trkpt lat="45.62874" lon="6.78355">
        <ele>932</ele>
        <time>2018-02-22T07:24:15Z</time>
      </trkpt>
      <trkpt lat="45.62876" lon="6.78334">
        <ele>935</ele>
        <time>2018-02-22T07:25:15Z</time>
      </trkpt>
      <trkpt lat="45.6288" lon="6.78322">
        <ele>937</ele>
        <time>2018-02-22T07:26:15Z</time>
      </trkpt>
      <trkpt lat="45.62887" lon="6.78311">
        <ele>939</ele>
        <time>2018-02-22T07:27:15Z</time>
      </trkpt>
      <trkpt lat="45.62898" lon="6.78301">
        <ele>942</ele>
        <time>2018-02-22T07:28:15Z</time>
      </trkpt>
      <trkpt lat="45.62907" lon="6.78298">
        <ele>944</ele>
        <time>2018-02-22T07:29:15Z</time>
      </trkpt>
      <trkpt lat="45.62917" lon="6.78298">
        <ele>946</ele>
        <time>2018-02-22T07:30:15Z</time>
      </trkpt>
      <trkpt lat="45.62931" lon="6.78307">
        <ele>947</ele>
        <time>2018-02-22T07:31:15Z</time>
      </trkpt>
      <trkpt lat="45.62973" lon="6.78351">
        <ele>948</ele>
        <time>2018-02-22T07:32:15Z</time>
      </trkpt>
      <trkpt lat="45.63001" lon="6.78376">
        <ele>950</ele>
        <time>2018-02-22T07:33:15Z</time>
      </trkpt>
      <trkpt lat="45.63031" lon="6.78393">
        <ele>951</ele>
        <time>2018-02-22T07:34:15Z</time>
      </trkpt>
      <trkpt lat="45.63061" lon="6.78407">
        <ele>953</ele>
        <time>2018-02-22T07:35:15Z</time>
      </trkpt>
      <trkpt lat="45.63117" lon="6.78421">
        <ele>955</ele>
        <time>2018-02-22T07:36:15Z</time>
      </trkpt>
      <trkpt lat="45.6318" lon="6.78416">
        <ele>961</ele>
        <time>2018-02-22T07:37:15Z</time>
      </trkpt>
      <trkpt lat="45.63229" lon="6.78419">
        <ele>969</ele>
        <time>2018-02-22T07:38:15Z</time>
      </trkpt>
      <trkpt lat="45.63248" lon="6.78431">
        <ele>966</ele>
        <time>2018-02-22T07:39:15Z</time>
      </trkpt>
      <trkpt lat="45.63262" lon="6.7845">
        <ele>962</ele>
        <time>2018-02-22T07:40:15Z</time>
      </trkpt>
      <trkpt lat="45.63313" lon="6.78492">
        <ele>961</ele>
        <time>2018-02-22T07:41:15Z</time>
      </trkpt>
      <trkpt lat="45.63338" lon="6.78508">
        <ele>962</ele>
        <time>2018-02-22T07:42:15Z</time>
      </trkpt>
      <trkpt lat="45.63357" lon="6.78514">
        <ele>965</ele>
        <time>2018-02-22T07:43:15Z</time>
      </trkpt>
      <trkpt lat="45.63373" lon="6.78528">
        <ele>962</ele>
        <time>2018-02-22T07:44:15Z</time>
      </trkpt>
      <trkpt lat="45.63388" lon="6.78543">
        <ele>959</ele>
        <time>2018-02-22T07:45:15Z</time>
      </trkpt>
      <trkpt lat="45.63406" lon="6.7855">
        <ele>961</ele>
        <time>2018-02-22T07:46:15Z</time>
      </trkpt>
      <trkpt lat="45.63425" lon="6.78552">
        <ele>964</ele>
        <time>2018-02-22T07:47:15Z</time>
      </trkpt>
      <trkpt lat="45.63466" lon="6.78541">
        <ele>972</ele>
        <time>2018-02-22T07:48:15Z</time>
      </trkpt>
      <trkpt lat="45.63485" lon="6.78543">
        <ele>971</ele>
        <time>2018-02-22T07:49:15Z</time>
      </trkpt>
      <trkpt lat="45.63511" lon="6.78549">
        <ele>968</ele>
        <time>2018-02-22T07:50:15Z</time>
      </trkpt>
      <trkpt lat="45.63545" lon="6.78553">
        <ele>962</ele>
        <time>2018-02-22T07:51:15Z</time>
      </trkpt>
      <trkpt lat="45.63567" lon="6.78553">
        <ele>961</ele>
        <time>2018-02-22T07:52:15Z</time>
      </trkpt>
      <trkpt lat="45.63609" lon="6.78538">
        <ele>966</ele>
        <time>2018-02-22T07:53:15Z</time>
      </trkpt>
      <trkpt lat="45.63635" lon="6.78532">
        <ele>969</ele>
        <time>2018-02-22T07:54:15Z</time>
      </trkpt>
      <trkpt lat="45.63659" lon="6.78519">
        <ele>975</ele>
        <time>2018-02-22T07:55:15Z</time>
      </trkpt>
      <trkpt lat="45.637" lon="6.78485">
        <ele>984</ele>
        <time>2018-02-22T07:56:15Z</time>
      </trkpt>
      <trkpt lat="45.63728" lon="6.78471">
        <ele>986</ele>
        <time>2018-02-22T07:57:15Z</time>
      </trkpt>
      <trkpt lat="45.63784" lon="6.7845">
        <ele>988</ele>
        <time>2018-02-22T07:58:15Z</time>
      </trkpt>
      <trkpt lat="45.63821" lon="6.78451">
        <ele>983</ele>
        <time>2018-02-22T07:59:15Z</time>
      </trkpt>
      <trkpt lat="45.6385" lon="6.78448">
        <ele>984</ele>
        <time>2018-02-22T08:00:15Z</time>
      </trkpt>
      <trkpt lat="45.63889" lon="6.78439">
        <ele>993</ele>
        <time>2018-02-22T08:01:15Z</time>
      </trkpt>
      <trkpt lat="45.63899" lon="6.7844">
        <ele>993</ele>
        <time>2018-02-22T08:02:15Z</time>
      </trkpt>
      <trkpt lat="45.63909" lon="6.78446">
        <ele>991</ele>
        <time>2018-02-22T08:03:15Z</time>
      </trkpt>
      <trkpt lat="45.63946" lon="6.78481">
        <ele>981</ele>
        <time>2018-02-22T08:04:15Z</time>
      </trkpt>
      <trkpt lat="45.63971" lon="6.78494">
        <ele>979</ele>
        <time>2018-02-22T08:05:15Z</time>
      </trkpt>
      <trkpt lat="45.63994" lon="6.78502">
        <ele>980</ele>
        <time>2018-02-22T08:06:15Z</time>
      </trkpt>
      <trkpt lat="45.64048" lon="6.78512">
        <ele>992</ele>
        <time>2018-02-22T08:07:15Z</time>
      </trkpt>
      <trkpt lat="45.64075" lon="6.78526">
        <ele>993</ele>
        <time>2018-02-22T08:08:15Z</time>
      </trkpt>
      <trkpt lat="45.64112" lon="6.78552">
        <ele>990</ele>
        <time>2018-02-22T08:09:15Z</time>
      </trkpt>
      <trkpt lat="45.64174" lon="6.78605">
        <ele>988</ele>
        <time>2018-02-22T08:10:15Z</time>
      </trkpt>
      <trkpt lat="45.64196" lon="6.78615">
        <ele>992</ele>
        <time>2018-02-22T08:11:15Z</time>
      </trkpt>
      <trkpt lat="45.64216" lon="6.78619">
        <ele>996</ele>
        <time>2018-02-22T08:12:15Z</time>
      </trkpt>
      <trkpt lat="45.6434" lon="6.78613">
        <ele>1002</ele>
        <time>2018-02-22T08:13:15Z</time>
      </trkpt>
      <trkpt lat="45.64381" lon="6.78608">
        <ele>1002</ele>
        <time>2018-02-22T08:14:15Z</time>
      </trkpt>
      <trkpt lat="45.6446" lon="6.78591">
        <ele>1012</ele>
        <time>2018-02-22T08:15:15Z</time>
      </trkpt>
      <trkpt lat="45.6454" lon="6.78585">
        <ele>1012</ele>
        <time>2018-02-22T08:16:15Z</time>
      </trkpt>
      <trkpt lat="45.64561" lon="6.78586">
        <ele>1009</ele>
        <time>2018-02-22T08:17:15Z</time>
      </trkpt>
      <trkpt lat="45.64609" lon="6.78603">
        <ele>1006</ele>
        <time>2018-02-22T08:18:15Z</time>
      </trkpt>
      <trkpt lat="45.64639" lon="6.7861">
        <ele>1008</ele>
        <time>2018-02-22T08:19:15Z</time>
      </trkpt>
      <trkpt lat="45.64694" lon="6.78609">
        <ele>1013</ele>
        <time>2018-02-22T08:20:15Z</time>
      </trkpt>
      <trkpt lat="45.64721" lon="6.78613">
        <ele>1014</ele>
        <time>2018-02-22T08:21:15Z</time>
      </trkpt>
      <trkpt lat="45.64751" lon="6.78621">
        <ele>1014</ele>
        <time>2018-02-22T08:22:15Z</time>
      </trkpt>
      <trkpt lat="45.6478" lon="6.78632">
        <ele>1014</ele>
        <time>2018-02-22T08:23:15Z</time>
      </trkpt>
      <trkpt lat="45.64839" lon="6.78666">
        <ele>1012</ele>
        <time>2018-02-22T08:24:15Z</time>
      </trkpt>
      <trkpt lat="45.64939" lon="6.78748">
        <ele>1015</ele>
        <time>2018-02-22T08:25:15Z</time>
      </trkpt>
      <trkpt lat="45.6497" lon="6.7877">
        <ele>1025</ele>
        <time>2018-02-22T08:26:15Z</time>
      </trkpt>
      <trkpt lat="45.64998" lon="6.78781">
        <ele>1030</ele>
        <time>2018-02-22T08:27:15Z</time>
      </trkpt>
      <trkpt lat="45.65027" lon="6.78781">
        <ele>1033</ele>
        <time>2018-02-22T08:28:15Z</time>
      </trkpt>
      <trkpt lat="45.65111" lon="6.78774">
        <ele>1045</ele>
        <time>2018-02-22T08:29:15Z</time>
      </trkpt>
      <trkpt lat="45.65132" lon="6.7877">
        <ele>1049</ele>
        <time>2018-02-22T08:30:15Z</time>
      </trkpt>
      <trkpt lat="45.65176" lon="6.7874">
        <ele>1055</ele>
        <time>2018-02-22T08:31:15Z</time>
      </trkpt>
      <trkpt lat="45.65257" lon="6.78696">
        <ele>1059</ele>
        <time>2018-02-22T08:32:15Z</time>
      </trkpt>
      <trkpt lat="45.65277" lon="6.78693">
        <ele>1061</ele>
        <time>2018-02-22T08:33:15Z</time>
      </trkpt>
      <trkpt lat="45.65336" lon="6.78695">
        <ele>1066</ele>
        <time>2018-02-22T08:34:15Z</time>
      </trkpt>
      <trkpt lat="45.65357" lon="6.78683">
        <ele>1068</ele>
        <time>2018-02-22T08:35:15Z</time>
      </trkpt>
      <trkpt lat="45.65388" lon="6.7866">
        <ele>1070</ele>
        <time>2018-02-22T08:36:15Z</time>
      </trkpt>
      <trkpt lat="45.6545" lon="6.78605">
        <ele>1078</ele>
        <time>2018-02-22T08:37:15Z</time>
      </trkpt>
      <trkpt lat="45.65509" lon="6.78541">
        <ele>1083</ele>
        <time>2018-02-22T08:38:15Z</time>
      </trkpt>
      <trkpt lat="45.65566" lon="6.78484">
        <ele>1090</ele>
        <time>2018-02-22T08:39:15Z</time>
      </trkpt>
      <trkpt lat="45.65645" lon="6.7839">
        <ele>1099</ele>
        <time>2018-02-22T08:40:15Z</time>
      </trkpt>
      <trkpt lat="45.65752" lon="6.78314">
        <ele>1103</ele>
        <time>2018-02-22T08:41:15Z</time>
      </trkpt>
      <trkpt lat="45.65777" lon="6.78302">
        <ele>1109</ele>
        <time>2018-02-22T08:42:15Z</time>
      </trkpt>
      <trkpt lat="45.65843" lon="6.78279">
        <ele>1117</ele>
        <time>2018-02-22T08:43:15Z</time>
      </trkpt>
      <trkpt lat="45.65864" lon="6.78267">
        <ele>1120</ele>
        <time>2018-02-22T08:44:15Z</time>
      </trkpt>
      <trkpt lat="45.65879" lon="6.78254">
        <ele>1120</ele>
        <time>2018-02-22T08:45:15Z</time>
      </trkpt>
      <trkpt lat="45.65932" lon="6.7818">
        <ele>1124</ele>
        <time>2018-02-22T08:46:15Z</time>
      </trkpt>
      <trkpt lat="45.65969" lon="6.78167">
        <ele>1127</ele>
        <time>2018-02-22T08:47:15Z</time>
      </trkpt>
      <trkpt lat="45.65987" lon="6.78165">
        <ele>1130</ele>
        <time>2018-02-22T08:48:15Z</time>
      </trkpt>
      <trkpt lat="45.66007" lon="6.78171">
        <ele>1135</ele>
        <time>2018-02-22T08:49:15Z</time>
      </trkpt>
      <trkpt lat="45.66022" lon="6.78172">
        <ele>1139</ele>
        <time>2018-02-22T08:50:15Z</time>
      </trkpt>
      <trkpt lat="45.66038" lon="6.78163">
        <ele>1142</ele>
        <time>2018-02-22T08:51:15Z</time>
      </trkpt>
      <trkpt lat="45.6605" lon="6.78148">
        <ele>1144</ele>
        <time>2018-02-22T08:52:15Z</time>
      </trkpt>
      <trkpt lat="45.66069" lon="6.78116">
        <ele>1143</ele>
        <time>2018-02-22T08:53:15Z</time>
      </trkpt>
      <trkpt lat="45.66103" lon="6.78068">
        <ele>1144</ele>
        <time>2018-02-22T08:54:15Z</time>
      </trkpt>
      <trkpt lat="45.66119" lon="6.78054">
        <ele>1147</ele>
        <time>2018-02-22T08:55:15Z</time>
      </trkpt>
      <trkpt lat="45.66156" lon="6.7803">
        <ele>1149</ele>
        <time>2018-02-22T08:56:15Z</time>
      </trkpt>
      <trkpt lat="45.66191" lon="6.78002">
        <ele>1150</ele>
        <time>2018-02-22T08:57:15Z</time>
      </trkpt>
      <trkpt lat="45.66204" lon="6.77989">
        <ele>1153</ele>
        <time>2018-02-22T08:58:15Z</time>
      </trkpt>
      <trkpt lat="45.66235" lon="6.7794">
        <ele>1155</ele>
        <time>2018-02-22T08:59:15Z</time>
      </trkpt>
      <trkpt lat="45.66244" lon="6.77927">
        <ele>1153</ele>
        <time>2018-02-22T09:00:15Z</time>
      </trkpt>
      <trkpt lat="45.66259" lon="6.77921">
        <ele>1154</ele>
        <time>2018-02-22T09:01:15Z</time>
      </trkpt>
      <trkpt lat="45.66287" lon="6.77924">
        <ele>1162</ele>
        <time>2018-02-22T09:02:15Z</time>
      </trkpt>
      <trkpt lat="45.66298" lon="6.77922">
        <ele>1164</ele>
        <time>2018-02-22T09:03:15Z</time>
      </trkpt>
      <trkpt lat="45.66311" lon="6.77914">
        <ele>1166</ele>
        <time>2018-02-22T09:04:15Z</time>
      </trkpt>
      <trkpt lat="45.66321" lon="6.77904">
        <ele>1167</ele>
        <time>2018-02-22T09:05:15Z</time>
      </trkpt>
      <trkpt lat="45.66343" lon="6.77858">
        <ele>1166</ele>
        <time>2018-02-22T09:06:15Z</time>
      </trkpt>
      <trkpt lat="45.66372" lon="6.7782">
        <ele>1166</ele>
        <time>2018-02-22T09:07:15Z</time>
      </trkpt>
      <trkpt lat="45.66394" lon="6.77798">
        <ele>1167</ele>
        <time>2018-02-22T09:08:15Z</time>
      </trkpt>
      <trkpt lat="45.66433" lon="6.77768">
        <ele>1167</ele>
        <time>2018-02-22T09:09:15Z</time>
      </trkpt>
      <trkpt lat="45.66459" lon="6.77743">
        <ele>1171</ele>
        <time>2018-02-22T09:10:15Z</time>
      </trkpt>
      <trkpt lat="45.66476" lon="6.77729">
        <ele>1175</ele>
        <time>2018-02-22T09:11:15Z</time>
      </trkpt>
      <trkpt lat="45.66494" lon="6.77702">
        <ele>1177</ele>
        <time>2018-02-22T09:12:15Z</time>
      </trkpt>
      <trkpt lat="45.66504" lon="6.7768">
        <ele>1177</ele>
        <time>2018-02-22T09:13:15Z</time>
      </trkpt>
      <trkpt lat="45.66532" lon="6.77581">
        <ele>1174</ele>
        <time>2018-02-22T09:14:15Z</time>
      </trkpt>
      <trkpt lat="45.66543" lon="6.77553">
        <ele>1177</ele>
        <time>2018-02-22T09:15:15Z</time>
      </trkpt>
      <trkpt lat="45.6659" lon="6.77462">
        <ele>1185</ele>
        <time>2018-02-22T09:16:15Z</time>
      </trkpt>
      <trkpt lat="45.66601" lon="6.77447">
        <ele>1189</ele>
        <time>2018-02-22T09:17:15Z</time>
      </trkpt>
      <trkpt lat="45.66609" lon="6.77441">
        <ele>1191</ele>
        <time>2018-02-22T09:18:15Z</time>
      </trkpt>
      <trkpt lat="45.66613" lon="6.77439">
        <ele>1193</ele>
        <time>2018-02-22T09:19:15Z</time>
      </trkpt>
      <trkpt lat="45.66619" lon="6.77443">
        <ele>1194</ele>
        <time>2018-02-22T09:20:15Z</time>
      </trkpt>
      <trkpt lat="45.66621" lon="6.77449">
        <ele>1195</ele>
        <time>2018-02-22T09:21:15Z</time>
      </trkpt>
      <trkpt lat="45.66621" lon="6.77459">
        <ele>1195</ele>
        <time>2018-02-22T09:22:15Z</time>
      </trkpt>
      <trkpt lat="45.66611" lon="6.77496">
        <ele>1191</ele>
        <time>2018-02-22T09:23:15Z</time>
      </trkpt>
      <trkpt lat="45.66611" lon="6.77508">
        <ele>1191</ele>
        <time>2018-02-22T09:24:15Z</time>
      </trkpt>
      <trkpt lat="45.66616" lon="6.77524">
        <ele>1194</ele>
        <time>2018-02-22T09:25:15Z</time>
      </trkpt>
      <trkpt lat="45.66633" lon="6.77547">
        <ele>1201</ele>
        <time>2018-02-22T09:26:15Z</time>
      </trkpt>
      <trkpt lat="45.66642" lon="6.77564">
        <ele>1205</ele>
        <time>2018-02-22T09:27:15Z</time>
      </trkpt>
      <trkpt lat="45.66645" lon="6.77597">
        <ele>1208</ele>
        <time>2018-02-22T09:28:15Z</time>
      </trkpt>
      <trkpt lat="45.66647" lon="6.77602">
        <ele>1210</ele>
        <time>2018-02-22T09:29:15Z</time>
      </trkpt>
      <trkpt lat="45.66653" lon="6.77603">
        <ele>1212</ele>
        <time>2018-02-22T09:30:15Z</time>
      </trkpt>
      <trkpt lat="45.66656" lon="6.77598">
        <ele>1212</ele>
        <time>2018-02-22T09:31:15Z</time>
      </trkpt>
      <trkpt lat="45.66671" lon="6.77542">
        <ele>1214</ele>
        <time>2018-02-22T09:32:15Z</time>
      </trkpt>
      <trkpt lat="45.66682" lon="6.77511">
        <ele>1217</ele>
        <time>2018-02-22T09:33:15Z</time>
      </trkpt>
      <trkpt lat="45.66694" lon="6.77486">
        <ele>1220</ele>
        <time>2018-02-22T09:34:15Z</time>
      </trkpt>
      <trkpt lat="45.66704" lon="6.77453">
        <ele>1223</ele>
        <time>2018-02-22T09:35:15Z</time>
      </trkpt>
      <trkpt lat="45.66705" lon="6.77422">
        <ele>1222</ele>
        <time>2018-02-22T09:36:15Z</time>
      </trkpt>
      <trkpt lat="45.66701" lon="6.77404">
        <ele>1221</ele>
        <time>2018-02-22T09:37:15Z</time>
      </trkpt>
      <trkpt lat="45.66696" lon="6.77391">
        <ele>1220</ele>
        <time>2018-02-22T09:38:15Z</time>
      </trkpt>
      <trkpt lat="45.66684" lon="6.77367">
        <ele>1216</ele>
        <time>2018-02-22T09:39:15Z</time>
      </trkpt>
      <trkpt lat="45.66681" lon="6.77334">
        <ele>1215</ele>
        <time>2018-02-22T09:40:15Z</time>
      </trkpt>
      <trkpt lat="45.66682" lon="6.77314">
        <ele>1216</ele>
        <time>2018-02-22T09:41:15Z</time>
      </trkpt>
      <trkpt lat="45.66702" lon="6.77244">
        <ele>1228</ele>
        <time>2018-02-22T09:42:15Z</time>
      </trkpt>
      <trkpt lat="45.66705" lon="6.77217">
        <ele>1229</ele>
        <time>2018-02-22T09:43:15Z</time>
      </trkpt>
      <trkpt lat="45.66707" lon="6.77214">
        <ele>1230</ele>
        <time>2018-02-22T09:44:15Z</time>
      </trkpt>
      <trkpt lat="45.66712" lon="6.77215">
        <ele>1232</ele>
        <time>2018-02-22T09:45:15Z</time>
      </trkpt>
      <trkpt lat="45.66714" lon="6.77219">
        <ele>1233</ele>
        <time>2018-02-22T09:46:15Z</time>
      </trkpt>
      <trkpt lat="45.66712" lon="6.77255">
        <ele>1232</ele>
        <time>2018-02-22T09:47:15Z</time>
      </trkpt>
      <trkpt lat="45.66715" lon="6.77277">
        <ele>1232</ele>
        <time>2018-02-22T09:48:15Z</time>
      </trkpt>
      <trkpt lat="45.66729" lon="6.77301">
        <ele>1237</ele>
        <time>2018-02-22T09:49:15Z</time>
      </trkpt>
      <trkpt lat="45.66733" lon="6.77318">
        <ele>1238</ele>
        <time>2018-02-22T09:50:15Z</time>
      </trkpt>
      <trkpt lat="45.66732" lon="6.77364">
        <ele>1235</ele>
        <time>2018-02-22T09:51:15Z</time>
      </trkpt>
      <trkpt lat="45.66735" lon="6.77376">
        <ele>1236</ele>
        <time>2018-02-22T09:52:15Z</time>
      </trkpt>
      <trkpt lat="45.6674" lon="6.77387">
        <ele>1237</ele>
        <time>2018-02-22T09:53:15Z</time>
      </trkpt>
      <trkpt lat="45.66756" lon="6.77412">
        <ele>1242</ele>
        <time>2018-02-22T09:54:15Z</time>
      </trkpt>
      <trkpt lat="45.66762" lon="6.77423">
        <ele>1244</ele>
        <time>2018-02-22T09:55:15Z</time>
      </trkpt>
      <trkpt lat="45.66768" lon="6.77439">
        <ele>1248</ele>
        <time>2018-02-22T09:56:15Z</time>
      </trkpt>
      <trkpt lat="45.66778" lon="6.77484">
        <ele>1254</ele>
        <time>2018-02-22T09:57:15Z</time>
      </trkpt>
      <trkpt lat="45.6678" lon="6.77486">
        <ele>1255</ele>
        <time>2018-02-22T09:58:15Z</time>
      </trkpt>
      <trkpt lat="45.66783" lon="6.77485">
        <ele>1256</ele>
        <time>2018-02-22T09:59:15Z</time>
      </trkpt>
      <trkpt lat="45.66786" lon="6.77484">
        <ele>1258</ele>
        <time>2018-02-22T10:00:15Z</time>
      </trkpt>
      <trkpt lat="45.66786" lon="6.77473">
        <ele>1258</ele>
        <time>2018-02-22T10:01:15Z</time>
      </trkpt>
      <trkpt lat="45.66775" lon="6.77436">
        <ele>1251</ele>
        <time>2018-02-22T10:02:15Z</time>
      </trkpt>
      <trkpt lat="45.66764" lon="6.77371">
        <ele>1249</ele>
        <time>2018-02-22T10:03:15Z</time>
      </trkpt>
      <trkpt lat="45.66761" lon="6.77325">
        <ele>1251</ele>
        <time>2018-02-22T10:04:15Z</time>
      </trkpt>
      <trkpt lat="45.66762" lon="6.77275">
        <ele>1254</ele>
        <time>2018-02-22T10:05:15Z</time>
      </trkpt>
      <trkpt lat="45.6676" lon="6.77259">
        <ele>1254</ele>
        <time>2018-02-22T10:06:15Z</time>
      </trkpt>
      <trkpt lat="45.6676" lon="6.77246">
        <ele>1254</ele>
        <time>2018-02-22T10:07:15Z</time>
      </trkpt>
      <trkpt lat="45.66761" lon="6.77239">
        <ele>1254</ele>
        <time>2018-02-22T10:08:15Z</time>
      </trkpt>
      <trkpt lat="45.66767" lon="6.77233">
        <ele>1256</ele>
        <time>2018-02-22T10:09:15Z</time>
      </trkpt>
      <trkpt lat="45.66796" lon="6.77218">
        <ele>1269</ele>
        <time>2018-02-22T10:10:15Z</time>
      </trkpt>
      <trkpt lat="45.66799" lon="6.7721">
        <ele>1270</ele>
        <time>2018-02-22T10:11:15Z</time>
      </trkpt>
      <trkpt lat="45.66804" lon="6.7717">
        <ele>1267</ele>
        <time>2018-02-22T10:12:15Z</time>
      </trkpt>
      <trkpt lat="45.66807" lon="6.77168">
        <ele>1269</ele>
        <time>2018-02-22T10:13:15Z</time>
      </trkpt>
      <trkpt lat="45.6681" lon="6.77168">
        <ele>1270</ele>
        <time>2018-02-22T10:14:15Z</time>
      </trkpt>
      <trkpt lat="45.66813" lon="6.7718">
        <ele>1273</ele>
        <time>2018-02-22T10:15:15Z</time>
      </trkpt>
      <trkpt lat="45.66812" lon="6.77212">
        <ele>1277</ele>
        <time>2018-02-22T10:16:15Z</time>
      </trkpt>
      <trkpt lat="45.66808" lon="6.77227">
        <ele>1277</ele>
        <time>2018-02-22T10:17:15Z</time>
      </trkpt>
      <trkpt lat="45.66798" lon="6.77256">
        <ele>1274</ele>
        <time>2018-02-22T10:18:15Z</time>
      </trkpt>
      <trkpt lat="45.66798" lon="6.77281">
        <ele>1272</ele>
        <time>2018-02-22T10:19:15Z</time>
      </trkpt>
      <trkpt lat="45.66802" lon="6.77298">
        <ele>1273</ele>
        <time>2018-02-22T10:20:15Z</time>
      </trkpt>
      <trkpt lat="45.66817" lon="6.77342">
        <ele>1277</ele>
        <time>2018-02-22T10:21:15Z</time>
      </trkpt>
      <trkpt lat="45.66821" lon="6.77359">
        <ele>1279</ele>
        <time>2018-02-22T10:22:15Z</time>
      </trkpt>
      <trkpt lat="45.66825" lon="6.77406">
        <ele>1278</ele>
        <time>2018-02-22T10:23:15Z</time>
      </trkpt>
      <trkpt lat="45.66828" lon="6.77421">
        <ele>1279</ele>
        <time>2018-02-22T10:24:15Z</time>
      </trkpt>
      <trkpt lat="45.66842" lon="6.77446">
        <ele>1287</ele>
        <time>2018-02-22T10:25:15Z</time>
      </trkpt>
      <trkpt lat="45.66853" lon="6.77459">
        <ele>1294</ele>
        <time>2018-02-22T10:26:15Z</time>
      </trkpt>
      <trkpt lat="45.66859" lon="6.77473">
        <ele>1297</ele>
        <time>2018-02-22T10:27:15Z</time>
      </trkpt>
      <trkpt lat="45.6686" lon="6.7749">
        <ele>1298</ele>
        <time>2018-02-22T10:28:15Z</time>
      </trkpt>
      <trkpt lat="45.66853" lon="6.77515">
        <ele>1297</ele>
        <time>2018-02-22T10:29:15Z</time>
      </trkpt>
      <trkpt lat="45.66851" lon="6.77536">
        <ele>1299</ele>
        <time>2018-02-22T10:30:15Z</time>
      </trkpt>
      <trkpt lat="45.66853" lon="6.77541">
        <ele>1301</ele>
        <time>2018-02-22T10:31:15Z</time>
      </trkpt>
      <trkpt lat="45.66856" lon="6.77542">
        <ele>1303</ele>
        <time>2018-02-22T10:32:15Z</time>
      </trkpt>
      <trkpt lat="45.66859" lon="6.77539">
        <ele>1304</ele>
        <time>2018-02-22T10:33:15Z</time>
      </trkpt>
      <trkpt lat="45.6687" lon="6.7751">
        <ele>1305</ele>
        <time>2018-02-22T10:34:15Z</time>
      </trkpt>
      <trkpt lat="45.66877" lon="6.77482">
        <ele>1308</ele>
        <time>2018-02-22T10:35:15Z</time>
      </trkpt>
      <trkpt lat="45.66875" lon="6.77465">
        <ele>1306</ele>
        <time>2018-02-22T10:36:15Z</time>
      </trkpt>
      <trkpt lat="45.66869" lon="6.77452">
        <ele>1303</ele>
        <time>2018-02-22T10:37:15Z</time>
      </trkpt>
      <trkpt lat="45.66861" lon="6.77427">
        <ele>1298</ele>
        <time>2018-02-22T10:38:15Z</time>
      </trkpt>
      <trkpt lat="45.66864" lon="6.77386">
        <ele>1301</ele>
        <time>2018-02-22T10:39:15Z</time>
      </trkpt>
      <trkpt lat="45.66864" lon="6.77302">
        <ele>1305</ele>
        <time>2018-02-22T10:40:15Z</time>
      </trkpt>
      <trkpt lat="45.66878" lon="6.77202">
        <ele>1310</ele>
        <time>2018-02-22T10:41:15Z</time>
      </trkpt>
      <trkpt lat="45.66882" lon="6.77184">
        <ele>1309</ele>
        <time>2018-02-22T10:42:15Z</time>
      </trkpt>
      <trkpt lat="45.66886" lon="6.77181">
        <ele>1311</ele>
        <time>2018-02-22T10:43:15Z</time>
      </trkpt>
      <trkpt lat="45.66888" lon="6.77183">
        <ele>1312</ele>
        <time>2018-02-22T10:44:15Z</time>
      </trkpt>
      <trkpt lat="45.6689" lon="6.77205">
        <ele>1316</ele>
        <time>2018-02-22T10:45:15Z</time>
      </trkpt>
      <trkpt lat="45.66893" lon="6.77267">
        <ele>1322</ele>
        <time>2018-02-22T10:46:15Z</time>
      </trkpt>
      <trkpt lat="45.66899" lon="6.77312">
        <ele>1323</ele>
        <time>2018-02-22T10:47:15Z</time>
      </trkpt>
      <trkpt lat="45.66918" lon="6.77383">
        <ele>1331</ele>
        <time>2018-02-22T10:48:15Z</time>
      </trkpt>
      <trkpt lat="45.6692" lon="6.77408">
        <ele>1332</ele>
        <time>2018-02-22T10:49:15Z</time>
      </trkpt>
      <trkpt lat="45.66923" lon="6.77413">
        <ele>1333</ele>
        <time>2018-02-22T10:50:15Z</time>
      </trkpt>
      <trkpt lat="45.66926" lon="6.77413">
        <ele>1335</ele>
        <time>2018-02-22T10:51:15Z</time>
      </trkpt>
      <trkpt lat="45.66929" lon="6.77406">
        <ele>1337</ele>
        <time>2018-02-22T10:52:15Z</time>
      </trkpt>
      <trkpt lat="45.6693" lon="6.77399">
        <ele>1337</ele>
        <time>2018-02-22T10:53:15Z</time>
      </trkpt>
      <trkpt lat="45.66925" lon="6.77337">
        <ele>1335</ele>
        <time>2018-02-22T10:54:15Z</time>
      </trkpt>
      <trkpt lat="45.66927" lon="6.77257">
        <ele>1339</ele>
        <time>2018-02-22T10:55:15Z</time>
      </trkpt>
      <trkpt lat="45.66931" lon="6.77237">
        <ele>1340</ele>
        <time>2018-02-22T10:56:15Z</time>
      </trkpt>
      <trkpt lat="45.66951" lon="6.77193">
        <ele>1347</ele>
        <time>2018-02-22T10:57:15Z</time>
      </trkpt>
      <trkpt lat="45.66956" lon="6.77171">
        <ele>1348</ele>
        <time>2018-02-22T10:58:15Z</time>
      </trkpt>
      <trkpt lat="45.66959" lon="6.77166">
        <ele>1350</ele>
        <time>2018-02-22T10:59:15Z</time>
      </trkpt>
      <trkpt lat="45.66965" lon="6.77164">
        <ele>1353</ele>
        <time>2018-02-22T11:00:15Z</time>
      </trkpt>
      <trkpt lat="45.66968" lon="6.77173">
        <ele>1355</ele>
        <time>2018-02-22T11:01:15Z</time>
      </trkpt>
      <trkpt lat="45.66963" lon="6.77201">
        <ele>1353</ele>
        <time>2018-02-22T11:02:15Z</time>
      </trkpt>
      <trkpt lat="45.66963" lon="6.77246">
        <ele>1354</ele>
        <time>2018-02-22T11:03:15Z</time>
      </trkpt>
      <trkpt lat="45.66976" lon="6.77373">
        <ele>1361</ele>
        <time>2018-02-22T11:04:15Z</time>
      </trkpt>
      <trkpt lat="45.66977" lon="6.77402">
        <ele>1362</ele>
        <time>2018-02-22T11:05:15Z</time>
      </trkpt>
      <trkpt lat="45.66973" lon="6.77434">
        <ele>1361</ele>
        <time>2018-02-22T11:06:15Z</time>
      </trkpt>
      <trkpt lat="45.66973" lon="6.77439">
        <ele>1361</ele>
        <time>2018-02-22T11:07:15Z</time>
      </trkpt>
      <trkpt lat="45.66976" lon="6.77442">
        <ele>1362</ele>
        <time>2018-02-22T11:08:15Z</time>
      </trkpt>
      <trkpt lat="45.6698" lon="6.77442">
        <ele>1365</ele>
        <time>2018-02-22T11:09:15Z</time>
      </trkpt>
      <trkpt lat="45.66982" lon="6.77437">
        <ele>1366</ele>
        <time>2018-02-22T11:10:15Z</time>
      </trkpt>
      <trkpt lat="45.66984" lon="6.77421">
        <ele>1366</ele>
        <time>2018-02-22T11:11:15Z</time>
      </trkpt>
      <trkpt lat="45.66991" lon="6.77392">
        <ele>1369</ele>
        <time>2018-02-22T11:12:15Z</time>
      </trkpt>
      <trkpt lat="45.66999" lon="6.77366">
        <ele>1372</ele>
        <time>2018-02-22T11:13:15Z</time>
      </trkpt>
      <trkpt lat="45.67007" lon="6.77325">
        <ele>1375</ele>
        <time>2018-02-22T11:14:15Z</time>
      </trkpt>
      <trkpt lat="45.67008" lon="6.77283">
        <ele>1375</ele>
        <time>2018-02-22T11:15:15Z</time>
      </trkpt>
      <trkpt lat="45.6701" lon="6.77266">
        <ele>1375</ele>
        <time>2018-02-22T11:16:15Z</time>
      </trkpt>
      <trkpt lat="45.67008" lon="6.77215">
        <ele>1375</ele>
        <time>2018-02-22T11:17:15Z</time>
      </trkpt>
      <trkpt lat="45.67009" lon="6.77183">
        <ele>1377</ele>
        <time>2018-02-22T11:18:15Z</time>
      </trkpt>
      <trkpt lat="45.67018" lon="6.77127">
        <ele>1385</ele>
        <time>2018-02-22T11:19:15Z</time>
      </trkpt>
      <trkpt lat="45.67023" lon="6.77114">
        <ele>1389</ele>
        <time>2018-02-22T11:20:15Z</time>
      </trkpt>
      <trkpt lat="45.67034" lon="6.771">
        <ele>1396</ele>
        <time>2018-02-22T11:21:15Z</time>
      </trkpt>
      <trkpt lat="45.67035" lon="6.77093">
        <ele>1397</ele>
        <time>2018-02-22T11:22:15Z</time>
      </trkpt>
      <trkpt lat="45.67035" lon="6.77082">
        <ele>1398</ele>
        <time>2018-02-22T11:23:15Z</time>
      </trkpt>
      <trkpt lat="45.67034" lon="6.77077">
        <ele>1398</ele>
        <time>2018-02-22T11:24:15Z</time>
      </trkpt>
      <trkpt lat="45.67018" lon="6.77055">
        <ele>1388</ele>
        <time>2018-02-22T11:25:15Z</time>
      </trkpt>
      <trkpt lat="45.67015" lon="6.77042">
        <ele>1387</ele>
        <time>2018-02-22T11:26:15Z</time>
      </trkpt>
      <trkpt lat="45.67016" lon="6.77031">
        <ele>1388</ele>
        <time>2018-02-22T11:27:15Z</time>
      </trkpt>
      <trkpt lat="45.6702" lon="6.77018">
        <ele>1391</ele>
        <time>2018-02-22T11:28:15Z</time>
      </trkpt>
      <trkpt lat="45.67036" lon="6.76987">
        <ele>1399</ele>
        <time>2018-02-22T11:29:15Z</time>
      </trkpt>
      <trkpt lat="45.67063" lon="6.76949">
        <ele>1410</ele>
        <time>2018-02-22T11:30:15Z</time>
      </trkpt>
      <trkpt lat="45.67078" lon="6.76912">
        <ele>1414</ele>
        <time>2018-02-22T11:31:15Z</time>
      </trkpt>
      <trkpt lat="45.67088" lon="6.76867">
        <ele>1416</ele>
        <time>2018-02-22T11:32:15Z</time>
      </trkpt>
      <trkpt lat="45.671" lon="6.76795">
        <ele>1422</ele>
        <time>2018-02-22T11:33:15Z</time>
      </trkpt>
      <trkpt lat="45.67101" lon="6.76681">
        <ele>1425</ele>
        <time>2018-02-22T11:34:15Z</time>
      </trkpt>
      <trkpt lat="45.67107" lon="6.76618">
        <ele>1428</ele>
        <time>2018-02-22T11:35:15Z</time>
      </trkpt>
      <trkpt lat="45.67109" lon="6.76565">
        <ele>1429</ele>
        <time>2018-02-22T11:36:15Z</time>
      </trkpt>
      <trkpt lat="45.67112" lon="6.76524">
        <ele>1431</ele>
        <time>2018-02-22T11:37:15Z</time>
      </trkpt>
      <trkpt lat="45.67119" lon="6.76496">
        <ele>1436</ele>
        <time>2018-02-22T11:38:15Z</time>
      </trkpt>
      <trkpt lat="45.6712" lon="6.76475">
        <ele>1437</ele>
        <time>2018-02-22T11:39:15Z</time>
      </trkpt>
      <trkpt lat="45.67111" lon="6.76426">
        <ele>1433</ele>
        <time>2018-02-22T11:40:15Z</time>
      </trkpt>
      <trkpt lat="45.67107" lon="6.76364">
        <ele>1430</ele>
        <time>2018-02-22T11:41:15Z</time>
      </trkpt>
      <trkpt lat="45.67107" lon="6.7635">
        <ele>1430</ele>
        <time>2018-02-22T11:42:15Z</time>
      </trkpt>
      <trkpt lat="45.67119" lon="6.76289">
        <ele>1439</ele>
        <time>2018-02-22T11:43:15Z</time>
      </trkpt>
      <trkpt lat="45.67122" lon="6.76263">
        <ele>1441</ele>
        <time>2018-02-22T11:44:15Z</time>
      </trkpt>
      <trkpt lat="45.67126" lon="6.76124">
        <ele>1456</ele>
        <time>2018-02-22T11:45:15Z</time>
      </trkpt>
      <trkpt lat="45.67124" lon="6.76099">
        <ele>1459</ele>
        <time>2018-02-22T11:46:15Z</time>
      </trkpt>
      <trkpt lat="45.67108" lon="6.76038">
        <ele>1459</ele>
        <time>2018-02-22T11:47:15Z</time>
      </trkpt>
      <trkpt lat="45.67106" lon="6.76021">
        <ele>1461</ele>
        <time>2018-02-22T11:48:15Z</time>
      </trkpt>
      <trkpt lat="45.67106" lon="6.76005">
        <ele>1464</ele>
        <time>2018-02-22T11:49:15Z</time>
      </trkpt>
      <trkpt lat="45.67104" lon="6.75991">
        <ele>1465</ele>
        <time>2018-02-22T11:50:15Z</time>
      </trkpt>
      <trkpt lat="45.67099" lon="6.7598">
        <ele>1465</ele>
        <time>2018-02-22T11:51:15Z</time>
      </trkpt>
      <trkpt lat="45.67085" lon="6.75961">
        <ele>1464</ele>
        <time>2018-02-22T11:52:15Z</time>
      </trkpt>
      <trkpt lat="45.67048" lon="6.7592">
        <ele>1454</ele>
        <time>2018-02-22T11:53:15Z</time>
      </trkpt>
      <trkpt lat="45.67045" lon="6.75912">
        <ele>1453</ele>
        <time>2018-02-22T11:54:15Z</time>
      </trkpt>
      <trkpt lat="45.67044" lon="6.75903">
        <ele>1453</ele>
        <time>2018-02-22T11:55:15Z</time>
      </trkpt>
      <trkpt lat="45.67046" lon="6.75894">
        <ele>1455</ele>
        <time>2018-02-22T11:56:15Z</time>
      </trkpt>
      <trkpt lat="45.67053" lon="6.75875">
        <ele>1458</ele>
        <time>2018-02-22T11:57:15Z</time>
      </trkpt>
      <trkpt lat="45.67067" lon="6.75848">
        <ele>1464</ele>
        <time>2018-02-22T11:58:15Z</time>
      </trkpt>
      <trkpt lat="45.67102" lon="6.75774">
        <ele>1467</ele>
        <time>2018-02-22T11:59:15Z</time>
      </trkpt>
      <trkpt lat="45.6711" lon="6.75762">
        <ele>1467</ele>
        <time>2018-02-22T12:00:15Z</time>
      </trkpt>
      <trkpt lat="45.67117" lon="6.75754">
        <ele>1467</ele>
        <time>2018-02-22T12:01:15Z</time>
      </trkpt>
      <trkpt lat="45.67125" lon="6.75748">
        <ele>1468</ele>
        <time>2018-02-22T12:02:15Z</time>
      </trkpt>
      <trkpt lat="45.67133" lon="6.75747">
        <ele>1469</ele>
        <time>2018-02-22T12:03:15Z</time>
      </trkpt>
      <trkpt lat="45.67146" lon="6.75748">
        <ele>1471</ele>
        <time>2018-02-22T12:04:15Z</time>
      </trkpt>
      <trkpt lat="45.67165" lon="6.75754">
        <ele>1474</ele>
        <time>2018-02-22T12:05:15Z</time>
      </trkpt>
      <trkpt lat="45.67176" lon="6.75752">
        <ele>1476</ele>
        <time>2018-02-22T12:06:15Z</time>
      </trkpt>
      <trkpt lat="45.67212" lon="6.75735">
        <ele>1482</ele>
        <time>2018-02-22T12:07:15Z</time>
      </trkpt>
      <trkpt lat="45.6724" lon="6.7571">
        <ele>1484</ele>
        <time>2018-02-22T12:08:15Z</time>
      </trkpt>
      <trkpt lat="45.67282" lon="6.75652">
        <ele>1486</ele>
        <time>2018-02-22T12:09:15Z</time>
      </trkpt>
      <trkpt lat="45.67294" lon="6.75629">
        <ele>1485</ele>
        <time>2018-02-22T12:10:15Z</time>
      </trkpt>
      <trkpt lat="45.67312" lon="6.75574">
        <ele>1480</ele>
        <time>2018-02-22T12:11:15Z</time>
      </trkpt>
      <trkpt lat="45.67332" lon="6.75524">
        <ele>1476</ele>
        <time>2018-02-22T12:12:15Z</time>
      </trkpt>
      <trkpt lat="45.67351" lon="6.75498">
        <ele>1479</ele>
        <time>2018-02-22T12:13:15Z</time>
      </trkpt>
      <trkpt lat="45.6737" lon="6.75476">
        <ele>1484</ele>
        <time>2018-02-22T12:14:15Z</time>
      </trkpt>
      <trkpt lat="45.67384" lon="6.75453">
        <ele>1486</ele>
        <time>2018-02-22T12:15:15Z</time>
      </trkpt>
      <trkpt lat="45.674" lon="6.75415">
        <ele>1487</ele>
        <time>2018-02-22T12:16:15Z</time>
      </trkpt>
      <trkpt lat="45.67413" lon="6.75371">
        <ele>1486</ele>
        <time>2018-02-22T12:17:15Z</time>
      </trkpt>
      <trkpt lat="45.67415" lon="6.75353">
        <ele>1483</ele>
        <time>2018-02-22T12:18:15Z</time>
      </trkpt>
      <trkpt lat="45.67415" lon="6.75323">
        <ele>1480</ele>
        <time>2018-02-22T12:19:15Z</time>
      </trkpt>
      <trkpt lat="45.6741" lon="6.75251">
        <ele>1477</ele>
        <time>2018-02-22T12:20:15Z</time>
      </trkpt>
      <trkpt lat="45.67412" lon="6.75213">
        <ele>1478</ele>
        <time>2018-02-22T12:21:15Z</time>
      </trkpt>
      <trkpt lat="45.67416" lon="6.75184">
        <ele>1479</ele>
        <time>2018-02-22T12:22:15Z</time>
      </trkpt>
      <trkpt lat="45.67423" lon="6.75155">
        <ele>1480</ele>
        <time>2018-02-22T12:23:15Z</time>
      </trkpt>
      <trkpt lat="45.67438" lon="6.75129">
        <ele>1482</ele>
        <time>2018-02-22T12:24:15Z</time>
      </trkpt>
      <trkpt lat="45.67479" lon="6.75074">
        <ele>1484</ele>
        <time>2018-02-22T12:25:15Z</time>
      </trkpt>
      <trkpt lat="45.67533" lon="6.75008">
        <ele>1493</ele>
        <time>2018-02-22T12:26:15Z</time>
      </trkpt>
      <trkpt lat="45.67545" lon="6.74983">
        <ele>1495</ele>
        <time>2018-02-22T12:27:15Z</time>
      </trkpt>
      <trkpt lat="45.67553" lon="6.74958">
        <ele>1495</ele>
        <time>2018-02-22T12:28:15Z</time>
      </trkpt>
      <trkpt lat="45.67561" lon="6.74928">
        <ele>1495</ele>
        <time>2018-02-22T12:29:15Z</time>
      </trkpt>
      <trkpt lat="45.67566" lon="6.74852">
        <ele>1494</ele>
        <time>2018-02-22T12:30:15Z</time>
      </trkpt>
      <trkpt lat="45.67583" lon="6.7481">
        <ele>1492</ele>
        <time>2018-02-22T12:31:15Z</time>
      </trkpt>
      <trkpt lat="45.67601" lon="6.74778">
        <ele>1495</ele>
        <time>2018-02-22T12:32:15Z</time>
      </trkpt>
      <trkpt lat="45.67616" lon="6.74725">
        <ele>1496</ele>
        <time>2018-02-22T12:33:15Z</time>
      </trkpt>
      <trkpt lat="45.67629" lon="6.74703">
        <ele>1498</ele>
        <time>2018-02-22T12:34:15Z</time>
      </trkpt>
      <trkpt lat="45.67676" lon="6.7467">
        <ele>1500</ele>
        <time>2018-02-22T12:35:15Z</time>
      </trkpt>
      <trkpt lat="45.67695" lon="6.74648">
        <ele>1503</ele>
        <time>2018-02-22T12:36:15Z</time>
      </trkpt>
      <trkpt lat="45.6772" lon="6.74612">
        <ele>1503</ele>
        <time>2018-02-22T12:37:15Z</time>
      </trkpt>
      <trkpt lat="45.67748" lon="6.74545">
        <ele>1496</ele>
        <time>2018-02-22T12:38:15Z</time>
      </trkpt>
      <trkpt lat="45.67811" lon="6.74372">
        <ele>1508</ele>
        <time>2018-02-22T12:39:15Z</time>
      </trkpt>
      <trkpt lat="45.67861" lon="6.74285">
        <ele>1517</ele>
        <time>2018-02-22T12:40:15Z</time>
      </trkpt>
      <trkpt lat="45.68037" lon="6.7408">
        <ele>1527</ele>
        <time>2018-02-22T12:41:15Z</time>
      </trkpt>
      <trkpt lat="45.68123" lon="6.73993">
        <ele>1535</ele>
        <time>2018-02-22T12:42:15Z</time>
      </trkpt>
      <trkpt lat="45.68192" lon="6.73954">
        <ele>1535</ele>
        <time>2018-02-22T12:43:15Z</time>
      </trkpt>
      <trkpt lat="45.68207" lon="6.73942">
        <ele>1535</ele>
        <time>2018-02-22T12:44:15Z</time>
      </trkpt>
      <trkpt lat="45.68274" lon="6.73822">
        <ele>1542</ele>
        <time>2018-02-22T12:45:15Z</time>
      </trkpt>
      <trkpt lat="45.68303" lon="6.73781">
        <ele>1542</ele>
        <time>2018-02-22T12:46:15Z</time>
      </trkpt>
      <trkpt lat="45.68325" lon="6.73765">
        <ele>1540</ele>
        <time>2018-02-22T12:47:15Z</time>
      </trkpt>
      <trkpt lat="45.68343" lon="6.73755">
        <ele>1539</ele>
        <time>2018-02-22T12:48:15Z</time>
      </trkpt>
      <trkpt lat="45.68447" lon="6.73724">
        <ele>1540</ele>
        <time>2018-02-22T12:49:15Z</time>
      </trkpt>
      <trkpt lat="45.68468" lon="6.73714">
        <ele>1541</ele>
        <time>2018-02-22T12:50:15Z</time>
      </trkpt>
      <trkpt lat="45.6849" lon="6.73699">
        <ele>1542</ele>
        <time>2018-02-22T12:51:15Z</time>
      </trkpt>
      <trkpt lat="45.68516" lon="6.73675">
        <ele>1542</ele>
        <time>2018-02-22T12:52:15Z</time>
      </trkpt>
      <trkpt lat="45.68558" lon="6.73594">
        <ele>1548</ele>
        <time>2018-02-22T12:53:15Z</time>
      </trkpt>
      <trkpt lat="45.68581" lon="6.73523">
        <ele>1548</ele>
        <time>2018-02-22T12:54:15Z</time>
      </trkpt>
      <trkpt lat="45.68585" lon="6.73489">
        <ele>1548</ele>
        <time>2018-02-22T12:55:15Z</time>
      </trkpt>
      <trkpt lat="45.68584" lon="6.73409">
        <ele>1554</ele>
        <time>2018-02-22T12:56:15Z</time>
      </trkpt>
      <trkpt lat="45.68596" lon="6.73367">
        <ele>1561</ele>
        <time>2018-02-22T12:57:15Z</time>
      </trkpt>
      <trkpt lat="45.68615" lon="6.7334">
        <ele>1565</ele>
        <time>2018-02-22T12:58:15Z</time>
      </trkpt>
      <trkpt lat="45.68651" lon="6.73315">
        <ele>1568</ele>
        <time>2018-02-22T12:59:15Z</time>
      </trkpt>
      <trkpt lat="45.68743" lon="6.73289">
        <ele>1572</ele>
        <time>2018-02-22T13:00:15Z</time>
      </trkpt>
      <trkpt lat="45.68797" lon="6.73277">
        <ele>1580</ele>
        <time>2018-02-22T13:01:15Z</time>
      </trkpt>
      <trkpt lat="45.68854" lon="6.73295">
        <ele>1580</ele>
        <time>2018-02-22T13:02:15Z</time>
      </trkpt>
      <trkpt lat="45.68887" lon="6.7331">
        <ele>1580</ele>
        <time>2018-02-22T13:03:15Z</time>
      </trkpt>
      <trkpt lat="45.68907" lon="6.73308">
        <ele>1584</ele>
        <time>2018-02-22T13:04:15Z</time>
      </trkpt>
      <trkpt lat="45.69009" lon="6.73287">
        <ele>1589</ele>
        <time>2018-02-22T13:05:15Z</time>
      </trkpt>
      <trkpt lat="45.69067" lon="6.73266">
        <ele>1599</ele>
        <time>2018-02-22T13:06:15Z</time>
      </trkpt>
      <trkpt lat="45.69174" lon="6.73256">
        <ele>1606</ele>
        <time>2018-02-22T13:07:15Z</time>
      </trkpt>
      <trkpt lat="45.69283" lon="6.73231">
        <ele>1611</ele>
        <time>2018-02-22T13:08:15Z</time>
      </trkpt>
      <trkpt lat="45.6933" lon="6.73198">
        <ele>1609</ele>
        <time>2018-02-22T13:09:15Z</time>
      </trkpt>
      <trkpt lat="45.69335" lon="6.73182">
        <ele>1611</ele>
        <time>2018-02-22T13:10:15Z</time>
      </trkpt>
      <trkpt lat="45.69335" lon="6.73162">
        <ele>1616</ele>
        <time>2018-02-22T13:11:15Z</time>
      </trkpt>
      <trkpt lat="45.69332" lon="6.73121">
        <ele>1623</ele>
        <time>2018-02-22T13:12:15Z</time>
      </trkpt>
      <trkpt lat="45.69333" lon="6.73096">
        <ele>1626</ele>
        <time>2018-02-22T13:13:15Z</time>
      </trkpt>
      <trkpt lat="45.69353" lon="6.72971">
        <ele>1634</ele>
        <time>2018-02-22T13:14:15Z</time>
      </trkpt>
      <trkpt lat="45.69361" lon="6.72892">
        <ele>1636</ele>
        <time>2018-02-22T13:15:15Z</time>
      </trkpt>
      <trkpt lat="45.694" lon="6.72667">
        <ele>1655</ele>
        <time>2018-02-22T13:16:15Z</time>
      </trkpt>
      <trkpt lat="45.69403" lon="6.72633">
        <ele>1657</ele>
        <time>2018-02-22T13:17:15Z</time>
      </trkpt>
      <trkpt lat="45.69405" lon="6.72591">
        <ele>1660</ele>
        <time>2018-02-22T13:18:15Z</time>
      </trkpt>
      <trkpt lat="45.69388" lon="6.72396">
        <ele>1680</ele>
        <time>2018-02-22T13:19:15Z</time>
      </trkpt>
      <trkpt lat="45.6939" lon="6.72358">
        <ele>1682</ele>
        <time>2018-02-22T13:20:15Z</time>
      </trkpt>
      <trkpt lat="45.69399" lon="6.72326">
        <ele>1682</ele>
        <time>2018-02-22T13:21:15Z</time>
      </trkpt>
      <trkpt lat="45.69426" lon="6.72257">
        <ele>1689</ele>
        <time>2018-02-22T13:22:15Z</time>
      </trkpt>
      <trkpt lat="45.69445" lon="6.72228">
        <ele>1697</ele>
        <time>2018-02-22T13:23:15Z</time>
      </trkpt>
      <trkpt lat="45.69464" lon="6.72207">
        <ele>1703</ele>
        <time>2018-02-22T13:24:15Z</time>
      </trkpt>
      <trkpt lat="45.69476" lon="6.72202">
        <ele>1705</ele>
        <time>2018-02-22T13:25:15Z</time>
      </trkpt>
      <trkpt lat="45.69485" lon="6.72203">
        <ele>1706</ele>
        <time>2018-02-22T13:26:15Z</time>
      </trkpt>
      <trkpt lat="45.69494" lon="6.72207">
        <ele>1705</ele>
        <time>2018-02-22T13:27:15Z</time>
      </trkpt>
      <trkpt lat="45.69507" lon="6.72224">
        <ele>1704</ele>
        <time>2018-02-22T13:28:15Z</time>
      </trkpt>
      <trkpt lat="45.69518" lon="6.72248">
        <ele>1702</ele>
        <time>2018-02-22T13:29:15Z</time>
      </trkpt>
      <trkpt lat="45.69529" lon="6.72313">
        <ele>1702</ele>
        <time>2018-02-22T13:30:15Z</time>
      </trkpt>
      <trkpt lat="45.6953" lon="6.72327">
        <ele>1702</ele>
        <time>2018-02-22T13:31:15Z</time>
      </trkpt>
      <trkpt lat="45.69529" lon="6.72341">
        <ele>1700</ele>
        <time>2018-02-22T13:32:15Z</time>
      </trkpt>
      <trkpt lat="45.69516" lon="6.72394">
        <ele>1691</ele>
        <time>2018-02-22T13:33:15Z</time>
      </trkpt>
      <trkpt lat="45.69516" lon="6.72413">
        <ele>1690</ele>
        <time>2018-02-22T13:34:15Z</time>
      </trkpt>
      <trkpt lat="45.69519" lon="6.72425">
        <ele>1690</ele>
        <time>2018-02-22T13:35:15Z</time>
      </trkpt>
      <trkpt lat="45.69525" lon="6.72438">
        <ele>1690</ele>
        <time>2018-02-22T13:36:15Z</time>
      </trkpt>
      <trkpt lat="45.69547" lon="6.72474">
        <ele>1695</ele>
        <time>2018-02-22T13:37:15Z</time>
      </trkpt>
      <trkpt lat="45.69562" lon="6.72505">
        <ele>1697</ele>
        <time>2018-02-22T13:38:15Z</time>
      </trkpt>
      <trkpt lat="45.69576" lon="6.72544">
        <ele>1697</ele>
        <time>2018-02-22T13:39:15Z</time>
      </trkpt>
      <trkpt lat="45.69597" lon="6.72616">
        <ele>1693</ele>
        <time>2018-02-22T13:40:15Z</time>
      </trkpt>
      <trkpt lat="45.69601" lon="6.7265">
        <ele>1690</ele>
        <time>2018-02-22T13:41:15Z</time>
      </trkpt>
      <trkpt lat="45.69605" lon="6.72667">
        <ele>1689</ele>
        <time>2018-02-22T13:42:15Z</time>
      </trkpt>
      <trkpt lat="45.69609" lon="6.72673">
        <ele>1689</ele>
        <time>2018-02-22T13:43:15Z</time>
      </trkpt>
      <trkpt lat="45.69613" lon="6.72676">
        <ele>1690</ele>
        <time>2018-02-22T13:44:15Z</time>
      </trkpt>
      <trkpt lat="45.6962" lon="6.72677">
        <ele>1692</ele>
        <time>2018-02-22T13:45:15Z</time>
      </trkpt>
      <trkpt lat="45.69627" lon="6.72673">
        <ele>1694</ele>
        <time>2018-02-22T13:46:15Z</time>
      </trkpt>
      <trkpt lat="45.69632" lon="6.72664">
        <ele>1697</ele>
        <time>2018-02-22T13:47:15Z</time>
      </trkpt>
      <trkpt lat="45.69635" lon="6.7265">
        <ele>1700</ele>
        <time>2018-02-22T13:48:15Z</time>
      </trkpt>
      <trkpt lat="45.69633" lon="6.72624">
        <ele>1702</ele>
        <time>2018-02-22T13:49:15Z</time>
      </trkpt>
      <trkpt lat="45.69629" lon="6.72603">
        <ele>1704</ele>
        <time>2018-02-22T13:50:15Z</time>
      </trkpt>
      <trkpt lat="45.69614" lon="6.7255">
        <ele>1708</ele>
        <time>2018-02-22T13:51:15Z</time>
      </trkpt>
      <trkpt lat="45.69612" lon="6.72532">
        <ele>1710</ele>
        <time>2018-02-22T13:52:15Z</time>
      </trkpt>
      <trkpt lat="45.69609" lon="6.72477">
        <ele>1717</ele>
        <time>2018-02-22T13:53:15Z</time>
      </trkpt>
      <trkpt lat="45.6961" lon="6.72375">
        <ele>1726</ele>
        <time>2018-02-22T13:54:15Z</time>
      </trkpt>
      <trkpt lat="45.69609" lon="6.72351">
        <ele>1728</ele>
        <time>2018-02-22T13:55:15Z</time>
      </trkpt>
      <trkpt lat="45.69603" lon="6.7232">
        <ele>1728</ele>
        <time>2018-02-22T13:56:15Z</time>
      </trkpt>
      <trkpt lat="45.69598" lon="6.72306">
        <ele>1727</ele>
        <time>2018-02-22T13:57:15Z</time>
      </trkpt>
      <trkpt lat="45.69583" lon="6.72278">
        <ele>1724</ele>
        <time>2018-02-22T13:58:15Z</time>
      </trkpt>
      <trkpt lat="45.69581" lon="6.72268">
        <ele>1723</ele>
        <time>2018-02-22T13:59:15Z</time>
      </trkpt>
      <trkpt lat="45.69585" lon="6.72256">
        <ele>1725</ele>
        <time>2018-02-22T14:00:15Z</time>
      </trkpt>
      <trkpt lat="45.6959" lon="6.72253">
        <ele>1727</ele>
        <time>2018-02-22T14:01:15Z</time>
      </trkpt>
      <trkpt lat="45.69597" lon="6.72254">
        <ele>1729</ele>
        <time>2018-02-22T14:02:15Z</time>
      </trkpt>
      <trkpt lat="45.69602" lon="6.7226">
        <ele>1730</ele>
        <time>2018-02-22T14:03:15Z</time>
      </trkpt>
      <trkpt lat="45.69607" lon="6.72269">
        <ele>1732</ele>
        <time>2018-02-22T14:04:15Z</time>
      </trkpt>
      <trkpt lat="45.69678" lon="6.72424">
        <ele>1745</ele>
        <time>2018-02-22T14:05:15Z</time>
      </trkpt>
      <trkpt lat="45.69707" lon="6.72492">
        <ele>1746</ele>
        <time>2018-02-22T14:06:15Z</time>
      </trkpt>
      <trkpt lat="45.69714" lon="6.72505">
        <ele>1746</ele>
        <time>2018-02-22T14:07:15Z</time>
      </trkpt>
      <trkpt lat="45.69728" lon="6.72514">
        <ele>1749</ele>
        <time>2018-02-22T14:08:15Z</time>
      </trkpt>
      <trkpt lat="45.69774" lon="6.72533">
        <ele>1754</ele>
        <time>2018-02-22T14:09:15Z</time>
      </trkpt>
      <trkpt lat="45.69787" lon="6.72533">
        <ele>1756</ele>
        <time>2018-02-22T14:10:15Z</time>
      </trkpt>
      <trkpt lat="45.69796" lon="6.72528">
        <ele>1758</ele>
        <time>2018-02-22T14:11:15Z</time>
      </trkpt>
      <trkpt lat="45.69803" lon="6.72522">
        <ele>1761</ele>
        <time>2018-02-22T14:12:15Z</time>
      </trkpt>
      <trkpt lat="45.69807" lon="6.72509">
        <ele>1764</ele>
        <time>2018-02-22T14:13:15Z</time>
      </trkpt>
      <trkpt lat="45.69809" lon="6.72493">
        <ele>1766</ele>
        <time>2018-02-22T14:14:15Z</time>
      </trkpt>
      <trkpt lat="45.69806" lon="6.72479">
        <ele>1767</ele>
        <time>2018-02-22T14:15:15Z</time>
      </trkpt>
      <trkpt lat="45.69795" lon="6.7246">
        <ele>1768</ele>
        <time>2018-02-22T14:16:15Z</time>
      </trkpt>
      <trkpt lat="45.6978" lon="6.7244">
        <ele>1768</ele>
        <time>2018-02-22T14:17:15Z</time>
      </trkpt>
      <trkpt lat="45.69754" lon="6.72413">
        <ele>1768</ele>
        <time>2018-02-22T14:18:15Z</time>
      </trkpt>
      <trkpt lat="45.69746" lon="6.72399">
        <ele>1767</ele>
        <time>2018-02-22T14:19:15Z</time>
      </trkpt>
      <trkpt lat="45.69741" lon="6.72376">
        <ele>1766</ele>
        <time>2018-02-22T14:20:15Z</time>
      </trkpt>
      <trkpt lat="45.6974" lon="6.72354">
        <ele>1767</ele>
        <time>2018-02-22T14:21:15Z</time>
      </trkpt>
      <trkpt lat="45.69744" lon="6.72333">
        <ele>1769</ele>
        <time>2018-02-22T14:22:15Z</time>
      </trkpt>
      <trkpt lat="45.6976" lon="6.72299">
        <ele>1774</ele>
        <time>2018-02-22T14:23:15Z</time>
      </trkpt>
      <trkpt lat="45.69771" lon="6.72263">
        <ele>1779</ele>
        <time>2018-02-22T14:24:15Z</time>
      </trkpt>
      <trkpt lat="45.69768" lon="6.72226">
        <ele>1779</ele>
        <time>2018-02-22T14:25:15Z</time>
      </trkpt>
      <trkpt lat="45.69765" lon="6.72214">
        <ele>1779</ele>
        <time>2018-02-22T14:26:15Z</time>
      </trkpt>
      <trkpt lat="45.69755" lon="6.72195">
        <ele>1777</ele>
        <time>2018-02-22T14:27:15Z</time>
      </trkpt>
      <trkpt lat="45.69732" lon="6.72164">
        <ele>1773</ele>
        <time>2018-02-22T14:28:15Z</time>
      </trkpt>
      <trkpt lat="45.69728" lon="6.72147">
        <ele>1773</ele>
        <time>2018-02-22T14:29:15Z</time>
      </trkpt>
      <trkpt lat="45.69736" lon="6.72051">
        <ele>1780</ele>
        <time>2018-02-22T14:30:15Z</time>
      </trkpt>
      <trkpt lat="45.6974" lon="6.71973">
        <ele>1789</ele>
        <time>2018-02-22T14:31:15Z</time>
      </trkpt>
      <trkpt lat="45.69737" lon="6.71958">
        <ele>1792</ele>
        <time>2018-02-22T14:32:15Z</time>
      </trkpt>
      <trkpt lat="45.69727" lon="6.71942">
        <ele>1794</ele>
        <time>2018-02-22T14:33:15Z</time>
      </trkpt>
      <trkpt lat="45.69701" lon="6.71925">
        <ele>1792</ele>
        <time>2018-02-22T14:34:15Z</time>
      </trkpt>
      <trkpt lat="45.69603" lon="6.71865">
        <ele>1791</ele>
        <time>2018-02-22T14:35:15Z</time>
      </trkpt>
      <trkpt lat="45.69583" lon="6.71837">
        <ele>1791</ele>
        <time>2018-02-22T14:36:15Z</time>
      </trkpt>
      <trkpt lat="45.69573" lon="6.71806">
        <ele>1793</ele>
        <time>2018-02-22T14:37:15Z</time>
      </trkpt>
      <trkpt lat="45.69568" lon="6.71759">
        <ele>1797</ele>
        <time>2018-02-22T14:38:15Z</time>
      </trkpt>
      <trkpt lat="45.69569" lon="6.71728">
        <ele>1800</ele>
        <time>2018-02-22T14:39:15Z</time>
      </trkpt>
      <trkpt lat="45.69587" lon="6.71685">
        <ele>1803</ele>
        <time>2018-02-22T14:40:15Z</time>
      </trkpt>
      <trkpt lat="45.69587" lon="6.71664">
        <ele>1804</ele>
        <time>2018-02-22T14:41:15Z</time>
      </trkpt>
      <trkpt lat="45.69579" lon="6.71644">
        <ele>1806</ele>
        <time>2018-02-22T14:42:15Z</time>
      </trkpt>
      <trkpt lat="45.69557" lon="6.71634">
        <ele>1808</ele>
        <time>2018-02-22T14:43:15Z</time>
      </trkpt>
      <trkpt lat="45.69532" lon="6.71637">
        <ele>1808</ele>
        <time>2018-02-22T14:44:15Z</time>
      </trkpt>
      <trkpt lat="45.69479" lon="6.71664">
        <ele>1802</ele>
        <time>2018-02-22T14:45:15Z</time>
      </trkpt>
      <trkpt lat="45.69464" lon="6.71665">
        <ele>1801</ele>
        <time>2018-02-22T14:46:15Z</time>
      </trkpt>
      <trkpt lat="45.6945" lon="6.71653">
        <ele>1802</ele>
        <time>2018-02-22T14:47:15Z</time>
      </trkpt>
      <trkpt lat="45.69441" lon="6.71642">
        <ele>1803</ele>
        <time>2018-02-22T14:48:15Z</time>
      </trkpt>
      <trkpt lat="45.69433" lon="6.71619">
        <ele>1805</ele>
        <time>2018-02-22T14:49:15Z</time>
      </trkpt>
      <trkpt lat="45.6943" lon="6.71601">
        <ele>1806</ele>
        <time>2018-02-22T14:50:15Z</time>
      </trkpt>
      <trkpt lat="45.69432" lon="6.71583">
        <ele>1809</ele>
        <time>2018-02-22T14:51:15Z</time>
      </trkpt>
      <trkpt lat="45.69449" lon="6.71508">
        <ele>1818</ele>
        <time>2018-02-22T14:52:15Z</time>
      </trkpt>
      <trkpt lat="45.69447" lon="6.71467">
        <ele>1822</ele>
        <time>2018-02-22T14:53:15Z</time>
      </trkpt>
      <trkpt lat="45.69428" lon="6.71392">
        <ele>1824</ele>
        <time>2018-02-22T14:54:15Z</time>
      </trkpt>
      <trkpt lat="45.69404" lon="6.71321">
        <ele>1826</ele>
        <time>2018-02-22T14:55:15Z</time>
      </trkpt>
      <trkpt lat="45.69389" lon="6.71247">
        <ele>1828</ele>
        <time>2018-02-22T14:56:15Z</time>
      </trkpt>
      <trkpt lat="45.69298" lon="6.70479">
        <ele>1875</ele>
        <time>2018-02-22T14:57:15Z</time>
      </trkpt>
      <trkpt lat="45.69281" lon="6.70407">
        <ele>1875</ele>
        <time>2018-02-22T14:58:15Z</time>
      </trkpt>
      <trkpt lat="45.69261" lon="6.7033">
        <ele>1875</ele>
        <time>2018-02-22T14:59:15Z</time>
      </trkpt>
      <trkpt lat="45.69216" lon="6.70189">
        <ele>1894</ele>
        <time>2018-02-22T15:00:15Z</time>
      </trkpt>
      <trkpt lat="45.69212" lon="6.70151">
        <ele>1897</ele>
        <time>2018-02-22T15:01:15Z</time>
      </trkpt>
      <trkpt lat="45.69211" lon="6.70114">
        <ele>1898</ele>
        <time>2018-02-22T15:02:15Z</time>
      </trkpt>
      <trkpt lat="45.69217" lon="6.70075">
        <ele>1900</ele>
        <time>2018-02-22T15:03:15Z</time>
      </trkpt>
      <trkpt lat="45.69227" lon="6.70037">
        <ele>1901</ele>
        <time>2018-02-22T15:04:15Z</time>
      </trkpt>
      <trkpt lat="45.69341" lon="6.69772">
        <ele>1915</ele>
        <time>2018-02-22T15:05:15Z</time>
      </trkpt>
      <trkpt lat="45.69364" lon="6.697">
        <ele>1917</ele>
        <time>2018-02-22T15:06:15Z</time>
      </trkpt>
      <trkpt lat="45.69379" lon="6.69627">
        <ele>1921</ele>
        <time>2018-02-22T15:07:15Z</time>
      </trkpt>
      <trkpt lat="45.69387" lon="6.69552">
        <ele>1927</ele>
        <time>2018-02-22T15:08:15Z</time>
      </trkpt>
      <trkpt lat="45.6939" lon="6.69518">
        <ele>1931</ele>
        <time>2018-02-22T15:09:15Z</time>
      </trkpt>
      <trkpt lat="45.69389" lon="6.69473">
        <ele>1936</ele>
        <time>2018-02-22T15:10:15Z</time>
      </trkpt>
      <trkpt lat="45.69385" lon="6.69438">
        <ele>1941</ele>
        <time>2018-02-22T15:11:15Z</time>
      </trkpt>
      <trkpt lat="45.69377" lon="6.694">
        <ele>1944</ele>
        <time>2018-02-22T15:12:15Z</time>
      </trkpt>
      <trkpt lat="45.69348" lon="6.69332">
        <ele>1948</ele>
        <time>2018-02-22T15:13:15Z</time>
      </trkpt>
      <trkpt lat="45.69333" lon="6.69304">
        <ele>1949</ele>
        <time>2018-02-22T15:14:15Z</time>
      </trkpt>
      <trkpt lat="45.69313" lon="6.69276">
        <ele>1953</ele>
        <time>2018-02-22T15:15:15Z</time>
      </trkpt>
      <trkpt lat="45.69289" lon="6.69256">
        <ele>1956</ele>
        <time>2018-02-22T15:16:15Z</time>
      </trkpt>
      <trkpt lat="45.69264" lon="6.69249">
        <ele>1956</ele>
        <time>2018-02-22T15:17:15Z</time>
      </trkpt>
      <trkpt lat="45.69207" lon="6.69243">
        <ele>1962</ele>
        <time>2018-02-22T15:18:15Z</time>
      </trkpt>
      <trkpt lat="45.69195" lon="6.69239">
        <ele>1963</ele>
        <time>2018-02-22T15:19:15Z</time>
      </trkpt>
      <trkpt lat="45.69183" lon="6.6923">
        <ele>1965</ele>
        <time>2018-02-22T15:20:15Z</time>
      </trkpt>
      <trkpt lat="45.69172" lon="6.69217">
        <ele>1966</ele>
        <time>2018-02-22T15:21:15Z</time>
      </trkpt>
      <trkpt lat="45.69161" lon="6.69193">
        <ele>1967</ele>
        <time>2018-02-22T15:22:15Z</time>
      </trkpt>
      <trkpt lat="45.69144" lon="6.69122">
        <ele>1972</ele>
        <time>2018-02-22T15:23:15Z</time>
      </trkpt>
      <trkpt lat="45.69131" lon="6.69055">
        <ele>1974</ele>
        <time>2018-02-22T15:24:15Z</time>
      </trkpt>
      <trkpt lat="45.6912" lon="6.68985">
        <ele>1972</ele>
        <time>2018-02-22T15:25:15Z</time>
      </trkpt>
      <trkpt lat="45.6912" lon="6.68964">
        <ele>1970</ele>
        <time>2018-02-22T15:26:15Z</time>
      </trkpt>
      <trkpt lat="45.69123" lon="6.68945">
        <ele>1969</ele>
        <time>2018-02-22T15:27:15Z</time>
      </trkpt>
      <trkpt lat="45.69133" lon="6.68899">
        <ele>1968</ele>
        <time>2018-02-22T15:28:15Z</time>
      </trkpt>
      <trkpt lat="45.69134" lon="6.68885">
        <ele>1968</ele>
        <time>2018-02-22T15:29:15Z</time>
      </trkpt>
      <trkpt lat="45.69132" lon="6.6884">
        <ele>1966</ele>
        <time>2018-02-22T15:30:15Z</time>
      </trkpt>
      <trkpt lat="45.69136" lon="6.68813">
        <ele>1966</ele>
        <time>2018-02-22T15:31:15Z</time>
      </trkpt>
      <trkpt lat="45.69145" lon="6.68782">
        <ele>1966</ele>
        <time>2018-02-22T15:32:15Z</time>
      </trkpt>
      <trkpt lat="45.69144" lon="6.68762">
        <ele>1964</ele>
        <time>2018-02-22T15:33:15Z</time>
      </trkpt>
      <trkpt lat="45.69139" lon="6.68745">
        <ele>1963</ele>
        <time>2018-02-22T15:34:15Z</time>
      </trkpt>
      <trkpt lat="45.69115" lon="6.68717">
        <ele>1960</ele>
        <time>2018-02-22T15:35:15Z</time>
      </trkpt>
      <trkpt lat="45.69105" lon="6.68699">
        <ele>1958</ele>
        <time>2018-02-22T15:36:15Z</time>
      </trkpt>
      <trkpt lat="45.69105" lon="6.68682">
        <ele>1958</ele>
        <time>2018-02-22T15:37:15Z</time>
      </trkpt>
      <trkpt lat="45.69118" lon="6.68507">
        <ele>1953</ele>
        <time>2018-02-22T15:38:15Z</time>
      </trkpt>
      <trkpt lat="45.69134" lon="6.6847">
        <ele>1953</ele>
        <time>2018-02-22T15:39:15Z</time>
      </trkpt>
      <trkpt lat="45.69155" lon="6.68435">
        <ele>1953</ele>
        <time>2018-02-22T15:40:15Z</time>
      </trkpt>
      <trkpt lat="45.69157" lon="6.68416">
        <ele>1952</ele>
        <time>2018-02-22T15:41:15Z</time>
      </trkpt>
      <trkpt lat="45.69153" lon="6.68396">
        <ele>1951</ele>
        <time>2018-02-22T15:42:15Z</time>
      </trkpt>
      <trkpt lat="45.69122" lon="6.68345">
        <ele>1947</ele>
        <time>2018-02-22T15:43:15Z</time>
      </trkpt>
      <trkpt lat="45.69103" lon="6.68298">
        <ele>1944</ele>
        <time>2018-02-22T15:44:15Z</time>
      </trkpt>
      <trkpt lat="45.69093" lon="6.68265">
        <ele>1943</ele>
        <time>2018-02-22T15:45:15Z</time>
      </trkpt>
      <trkpt lat="45.69074" lon="6.68238">
        <ele>1942</ele>
        <time>2018-02-22T15:46:15Z</time>
      </trkpt>
      <trkpt lat="45.69025" lon="6.68198">
        <ele>1941</ele>
        <time>2018-02-22T15:47:15Z</time>
      </trkpt>
      <trkpt lat="45.69008" lon="6.6817">
        <ele>1940</ele>
        <time>2018-02-22T15:48:15Z</time>
      </trkpt>
      <trkpt lat="45.69001" lon="6.68132">
        <ele>1939</ele>
        <time>2018-02-22T15:49:15Z</time>
      </trkpt>
      <trkpt lat="45.69006" lon="6.68082">
        <ele>1937</ele>
        <time>2018-02-22T15:50:15Z</time>
      </trkpt>
      <trkpt lat="45.69017" lon="6.68047">
        <ele>1934</ele>
        <time>2018-02-22T15:51:15Z</time>
      </trkpt>
      <trkpt lat="45.69032" lon="6.68022">
        <ele>1930</ele>
        <time>2018-02-22T15:52:15Z</time>
      </trkpt>
      <trkpt lat="45.69047" lon="6.68009">
        <ele>1928</ele>
        <time>2018-02-22T15:53:15Z</time>
      </trkpt>
      <trkpt lat="45.69061" lon="6.68">
        <ele>1926</ele>
        <time>2018-02-22T15:54:15Z</time>
      </trkpt>
      <trkpt lat="45.69078" lon="6.67996">
        <ele>1924</ele>
        <time>2018-02-22T15:55:15Z</time>
      </trkpt>
      <trkpt lat="45.69093" lon="6.67999">
        <ele>1922</ele>
        <time>2018-02-22T15:56:15Z</time>
      </trkpt>
      <trkpt lat="45.6912" lon="6.68017">
        <ele>1920</ele>
        <time>2018-02-22T15:57:15Z</time>
      </trkpt>
      <trkpt lat="45.6917" lon="6.68065">
        <ele>1919</ele>
        <time>2018-02-22T15:58:15Z</time>
      </trkpt>
      <trkpt lat="45.69242" lon="6.68161">
        <ele>1917</ele>
        <time>2018-02-22T15:59:15Z</time>
      </trkpt>
      <trkpt lat="45.69255" lon="6.68176">
        <ele>1917</ele>
        <time>2018-02-22T16:00:15Z</time>
      </trkpt>
      <trkpt lat="45.69272" lon="6.68189">
        <ele>1916</ele>
        <time>2018-02-22T16:01:15Z</time>
      </trkpt>
      <trkpt lat="45.69366" lon="6.68246">
        <ele>1910</ele>
        <time>2018-02-22T16:02:15Z</time>
      </trkpt>
      <trkpt lat="45.69402" lon="6.68275">
        <ele>1909</ele>
        <time>2018-02-22T16:03:15Z</time>
      </trkpt>
      <trkpt lat="45.69408" lon="6.68277">
        <ele>1909</ele>
        <time>2018-02-22T16:04:15Z</time>
      </trkpt>
      <trkpt lat="45.69418" lon="6.68274">
        <ele>1906</ele>
        <time>2018-02-22T16:05:15Z</time>
      </trkpt>
      <trkpt lat="45.69423" lon="6.68266">
        <ele>1903</ele>
        <time>2018-02-22T16:06:15Z</time>
      </trkpt>
      <trkpt lat="45.69424" lon="6.68261">
        <ele>1902</ele>
        <time>2018-02-22T16:07:15Z</time>
      </trkpt>
      <trkpt lat="45.69421" lon="6.68245">
        <ele>1899</ele>
        <time>2018-02-22T16:08:15Z</time>
      </trkpt>
      <trkpt lat="45.69349" lon="6.68169">
        <ele>1898</ele>
        <time>2018-02-22T16:09:15Z</time>
      </trkpt>
      <trkpt lat="45.6934" lon="6.68155">
        <ele>1898</ele>
        <time>2018-02-22T16:10:15Z</time>
      </trkpt>
      <trkpt lat="45.69332" lon="6.68132">
        <ele>1896</ele>
        <time>2018-02-22T16:11:15Z</time>
      </trkpt>
      <trkpt lat="45.69314" lon="6.68023">
        <ele>1883</ele>
        <time>2018-02-22T16:12:15Z</time>
      </trkpt>
      <trkpt lat="45.69304" lon="6.67988">
        <ele>1879</ele>
        <time>2018-02-22T16:13:15Z</time>
      </trkpt>
      <trkpt lat="45.69295" lon="6.6797">
        <ele>1878</ele>
        <time>2018-02-22T16:14:15Z</time>
      </trkpt>
      <trkpt lat="45.69288" lon="6.67958">
        <ele>1877</ele>
        <time>2018-02-22T16:15:15Z</time>
      </trkpt>
      <trkpt lat="45.69275" lon="6.67946">
        <ele>1877</ele>
        <time>2018-02-22T16:16:15Z</time>
      </trkpt>
      <trkpt lat="45.69236" lon="6.67925">
        <ele>1880</ele>
        <time>2018-02-22T16:17:15Z</time>
      </trkpt>
      <trkpt lat="45.69222" lon="6.67904">
        <ele>1879</ele>
        <time>2018-02-22T16:18:15Z</time>
      </trkpt>
      <trkpt lat="45.69198" lon="6.67854">
        <ele>1874</ele>
        <time>2018-02-22T16:19:15Z</time>
      </trkpt>
      <trkpt lat="45.69121" lon="6.67731">
        <ele>1869</ele>
        <time>2018-02-22T16:20:15Z</time>
      </trkpt>
      <trkpt lat="45.69117" lon="6.67721">
        <ele>1869</ele>
        <time>2018-02-22T16:21:15Z</time>
      </trkpt>
      <trkpt lat="45.69114" lon="6.6771">
        <ele>1868</ele>
        <time>2018-02-22T16:22:15Z</time>
      </trkpt>
      <trkpt lat="45.69108" lon="6.67665">
        <ele>1865</ele>
        <time>2018-02-22T16:23:15Z</time>
      </trkpt>
      <trkpt lat="45.69095" lon="6.676">
        <ele>1862</ele>
        <time>2018-02-22T16:24:15Z</time>
      </trkpt>
      <trkpt lat="45.69088" lon="6.6755">
        <ele>1859</ele>
        <time>2018-02-22T16:25:15Z</time>
      </trkpt>
      <trkpt lat="45.69086" lon="6.67505">
        <ele>1855</ele>
        <time>2018-02-22T16:26:15Z</time>
      </trkpt>
      <trkpt lat="45.69093" lon="6.67445">
        <ele>1852</ele>
        <time>2018-02-22T16:27:15Z</time>
      </trkpt>
      <trkpt lat="45.69098" lon="6.67427">
        <ele>1850</ele>
        <time>2018-02-22T16:28:15Z</time>
      </trkpt>
      <trkpt lat="45.69109" lon="6.67405">
        <ele>1847</ele>
        <time>2018-02-22T16:29:15Z</time>
      </trkpt>
      <trkpt lat="45.69112" lon="6.67393">
        <ele>1847</ele>
        <time>2018-02-22T16:30:15Z</time>
      </trkpt>
      <trkpt lat="45.69114" lon="6.67353">
        <ele>1847</ele>
        <time>2018-02-22T16:31:15Z</time>
      </trkpt>
      <trkpt lat="45.69122" lon="6.67325">
        <ele>1846</ele>
        <time>2018-02-22T16:32:15Z</time>
      </trkpt>
      <trkpt lat="45.69127" lon="6.67314">
        <ele>1845</ele>
        <time>2018-02-22T16:33:15Z</time>
      </trkpt>
      <trkpt lat="45.69137" lon="6.67301">
        <ele>1843</ele>
        <time>2018-02-22T16:34:15Z</time>
      </trkpt>
      <trkpt lat="45.69173" lon="6.67273">
        <ele>1837</ele>
        <time>2018-02-22T16:35:15Z</time>
      </trkpt>
      <trkpt lat="45.69182" lon="6.67262">
        <ele>1836</ele>
        <time>2018-02-22T16:36:15Z</time>
      </trkpt>
      <trkpt lat="45.69206" lon="6.6721">
        <ele>1834</ele>
        <time>2018-02-22T16:37:15Z</time>
      </trkpt>
      <trkpt lat="45.69246" lon="6.67147">
        <ele>1828</ele>
        <time>2018-02-22T16:38:15Z</time>
      </trkpt>
      <trkpt lat="45.69251" lon="6.67131">
        <ele>1827</ele>
        <time>2018-02-22T16:39:15Z</time>
      </trkpt>
      <trkpt lat="45.69258" lon="6.67095">
        <ele>1827</ele>
        <time>2018-02-22T16:40:15Z</time>
      </trkpt>
      <trkpt lat="45.69263" lon="6.6708">
        <ele>1826</ele>
        <time>2018-02-22T16:41:15Z</time>
      </trkpt>
      <trkpt lat="45.6929" lon="6.67029">
        <ele>1822</ele>
        <time>2018-02-22T16:42:15Z</time>
      </trkpt>
      <trkpt lat="45.69297" lon="6.67014">
        <ele>1821</ele>
        <time>2018-02-22T16:43:15Z</time>
      </trkpt>
      <trkpt lat="45.69352" lon="6.66768">
        <ele>1813</ele>
        <time>2018-02-22T16:44:15Z</time>
      </trkpt>
      <trkpt lat="45.69354" lon="6.66748">
        <ele>1812</ele>
        <time>2018-02-22T16:45:15Z</time>
      </trkpt>
      <trkpt lat="45.69354" lon="6.66674">
        <ele>1811</ele>
        <time>2018-02-22T16:46:15Z</time>
      </trkpt>
      <trkpt lat="45.69356" lon="6.66654">
        <ele>1812</ele>
        <time>2018-02-22T16:47:15Z</time>
      </trkpt>
      <trkpt lat="45.69362" lon="6.66623">
        <ele>1812</ele>
        <time>2018-02-22T16:48:15Z</time>
      </trkpt>
      <trkpt lat="45.69379" lon="6.66573">
        <ele>1809</ele>
        <time>2018-02-22T16:49:15Z</time>
      </trkpt>
      <trkpt lat="45.69388" lon="6.66549">
        <ele>1810</ele>
        <time>2018-02-22T16:50:15Z</time>
      </trkpt>
      <trkpt lat="45.69399" lon="6.66537">
        <ele>1808</ele>
        <time>2018-02-22T16:51:15Z</time>
      </trkpt>
      <trkpt lat="45.69415" lon="6.66524">
        <ele>1803</ele>
        <time>2018-02-22T16:52:15Z</time>
      </trkpt>
      <trkpt lat="45.69442" lon="6.66508">
        <ele>1803</ele>
        <time>2018-02-22T16:53:15Z</time>
      </trkpt>
      <trkpt lat="45.69486" lon="6.66494">
        <ele>1801</ele>
        <time>2018-02-22T16:54:15Z</time>
      </trkpt>
      <trkpt lat="45.69505" lon="6.66494">
        <ele>1799</ele>
        <time>2018-02-22T16:55:15Z</time>
      </trkpt>
      <trkpt lat="45.69528" lon="6.6651">
        <ele>1794</ele>
        <time>2018-02-22T16:56:15Z</time>
      </trkpt>
      <trkpt lat="45.69542" lon="6.66516">
        <ele>1793</ele>
        <time>2018-02-22T16:57:15Z</time>
      </trkpt>
      <trkpt lat="45.69551" lon="6.66515">
        <ele>1793</ele>
        <time>2018-02-22T16:58:15Z</time>
      </trkpt>
      <trkpt lat="45.6956" lon="6.66509">
        <ele>1792</ele>
        <time>2018-02-22T16:59:15Z</time>
      </trkpt>
      <trkpt lat="45.69581" lon="6.66474">
        <ele>1793</ele>
        <time>2018-02-22T17:00:15Z</time>
      </trkpt>
      <trkpt lat="45.69627" lon="6.66383">
        <ele>1776</ele>
        <time>2018-02-22T17:01:15Z</time>
      </trkpt>
      <trkpt lat="45.69632" lon="6.66367">
        <ele>1771</ele>
        <time>2018-02-22T17:02:15Z</time>
      </trkpt>
      <trkpt lat="45.69626" lon="6.66285">
        <ele>1773</ele>
        <time>2018-02-22T17:03:15Z</time>
      </trkpt>
      <trkpt lat="45.69614" lon="6.66225">
        <ele>1774</ele>
        <time>2018-02-22T17:04:15Z</time>
      </trkpt>
      <trkpt lat="45.69596" lon="6.66166">
        <ele>1768</ele>
        <time>2018-02-22T17:05:15Z</time>
      </trkpt>
      <trkpt lat="45.69562" lon="6.66098">
        <ele>1761</ele>
        <time>2018-02-22T17:06:15Z</time>
      </trkpt>
      <trkpt lat="45.69544" lon="6.66058">
        <ele>1755</ele>
        <time>2018-02-22T17:07:15Z</time>
      </trkpt>
      <trkpt lat="45.69528" lon="6.66033">
        <ele>1752</ele>
        <time>2018-02-22T17:08:15Z</time>
      </trkpt>
      <trkpt lat="45.69477" lon="6.65986">
        <ele>1752</ele>
        <time>2018-02-22T17:09:15Z</time>
      </trkpt>
      <trkpt lat="45.69441" lon="6.65949">
        <ele>1749</ele>
        <time>2018-02-22T17:10:15Z</time>
      </trkpt>
      <trkpt lat="45.69386" lon="6.65874">
        <ele>1740</ele>
        <time>2018-02-22T17:11:15Z</time>
      </trkpt>
      <trkpt lat="45.69344" lon="6.65809">
        <ele>1733</ele>
        <time>2018-02-22T17:12:15Z</time>
      </trkpt>
      <trkpt lat="45.6933" lon="6.65792">
        <ele>1733</ele>
        <time>2018-02-22T17:13:15Z</time>
      </trkpt>
      <trkpt lat="45.6932" lon="6.65776">
        <ele>1733</ele>
        <time>2018-02-22T17:14:15Z</time>
      </trkpt>
      <trkpt lat="45.69299" lon="6.65732">
        <ele>1726</ele>
        <time>2018-02-22T17:15:15Z</time>
      </trkpt>
      <trkpt lat="45.69232" lon="6.65617">
        <ele>1716</ele>
        <time>2018-02-22T17:16:15Z</time>
      </trkpt>
      <trkpt lat="45.69175" lon="6.65475">
        <ele>1700</ele>
        <time>2018-02-22T17:17:15Z</time>
      </trkpt>
      <trkpt lat="45.69126" lon="6.65403">
        <ele>1695</ele>
        <time>2018-02-22T17:18:15Z</time>
      </trkpt>
      <trkpt lat="45.69105" lon="6.65378">
        <ele>1693</ele>
        <time>2018-02-22T17:19:15Z</time>
      </trkpt>
      <trkpt lat="45.69104" lon="6.65372">
        <ele>1692</ele>
        <time>2018-02-22T17:20:15Z</time>
      </trkpt>
      <trkpt lat="45.69105" lon="6.65366">
        <ele>1689</ele>
        <time>2018-02-22T17:21:15Z</time>
      </trkpt>
      <trkpt lat="45.69108" lon="6.65361">
        <ele>1686</ele>
        <time>2018-02-22T17:22:15Z</time>
      </trkpt>
      <trkpt lat="45.69112" lon="6.6536">
        <ele>1685</ele>
        <time>2018-02-22T17:23:15Z</time>
      </trkpt>
      <trkpt lat="45.69118" lon="6.65362">
        <ele>1683</ele>
        <time>2018-02-22T17:24:15Z</time>
      </trkpt>
      <trkpt lat="45.69124" lon="6.65367">
        <ele>1683</ele>
        <time>2018-02-22T17:25:15Z</time>
      </trkpt>
      <trkpt lat="45.69166" lon="6.65424">
        <ele>1689</ele>
        <time>2018-02-22T17:26:15Z</time>
      </trkpt>
      <trkpt lat="45.69207" lon="6.6547">
        <ele>1685</ele>
        <time>2018-02-22T17:27:15Z</time>
      </trkpt>
      <trkpt lat="45.69252" lon="6.65544">
        <ele>1684</ele>
        <time>2018-02-22T17:28:15Z</time>
      </trkpt>
      <trkpt lat="45.69342" lon="6.65633">
        <ele>1673</ele>
        <time>2018-02-22T17:29:15Z</time>
      </trkpt>
      <trkpt lat="45.69382" lon="6.65683">
        <ele>1669</ele>
        <time>2018-02-22T17:30:15Z</time>
      </trkpt>
      <trkpt lat="45.69398" lon="6.65707">
        <ele>1671</ele>
        <time>2018-02-22T17:31:15Z</time>
      </trkpt>
      <trkpt lat="45.69412" lon="6.65746">
        <ele>1682</ele>
        <time>2018-02-22T17:32:15Z</time>
      </trkpt>
      <trkpt lat="45.69417" lon="6.65757">
        <ele>1684</ele>
        <time>2018-02-22T17:33:15Z</time>
      </trkpt>
      <trkpt lat="45.69422" lon="6.65762">
        <ele>1684</ele>
        <time>2018-02-22T17:34:15Z</time>
      </trkpt>
      <trkpt lat="45.69451" lon="6.65776">
        <ele>1679</ele>
        <time>2018-02-22T17:35:15Z</time>
      </trkpt>
      <trkpt lat="45.69553" lon="6.65799">
        <ele>1659</ele>
        <time>2018-02-22T17:36:15Z</time>
      </trkpt>
      <trkpt lat="45.69571" lon="6.65797">
        <ele>1655</ele>
        <time>2018-02-22T17:37:15Z</time>
      </trkpt>
      <trkpt lat="45.69582" lon="6.65787">
        <ele>1651</ele>
        <time>2018-02-22T17:38:15Z</time>
      </trkpt>
      <trkpt lat="45.69592" lon="6.65772">
        <ele>1647</ele>
        <time>2018-02-22T17:39:15Z</time>
      </trkpt>
      <trkpt lat="45.696" lon="6.65741">
        <ele>1642</ele>
        <time>2018-02-22T17:40:15Z</time>
      </trkpt>
      <trkpt lat="45.69598" lon="6.65714">
        <ele>1639</ele>
        <time>2018-02-22T17:41:15Z</time>
      </trkpt>
      <trkpt lat="45.69587" lon="6.65692">
        <ele>1638</ele>
        <time>2018-02-22T17:42:15Z</time>
      </trkpt>
      <trkpt lat="45.69574" lon="6.65677">
        <ele>1637</ele>
        <time>2018-02-22T17:43:15Z</time>
      </trkpt>
      <trkpt lat="45.69551" lon="6.65675">
        <ele>1637</ele>
        <time>2018-02-22T17:44:15Z</time>
      </trkpt>
      <trkpt lat="45.69492" lon="6.65681">
        <ele>1638</ele>
        <time>2018-02-22T17:45:15Z</time>
      </trkpt>
      <trkpt lat="45.69478" lon="6.65681">
        <ele>1640</ele>
        <time>2018-02-22T17:46:15Z</time>
      </trkpt>
      <trkpt lat="45.69465" lon="6.65674">
        <ele>1640</ele>
        <time>2018-02-22T17:47:15Z</time>
      </trkpt>
      <trkpt lat="45.69454" lon="6.65659">
        <ele>1639</ele>
        <time>2018-02-22T17:48:15Z</time>
      </trkpt>
      <trkpt lat="45.69444" lon="6.65639">
        <ele>1638</ele>
        <time>2018-02-22T17:49:15Z</time>
      </trkpt>
      <trkpt lat="45.69439" lon="6.65612">
        <ele>1635</ele>
        <time>2018-02-22T17:50:15Z</time>
      </trkpt>
      <trkpt lat="45.6944" lon="6.65598">
        <ele>1634</ele>
        <time>2018-02-22T17:51:15Z</time>
      </trkpt>
      <trkpt lat="45.69446" lon="6.65572">
        <ele>1630</ele>
        <time>2018-02-22T17:52:15Z</time>
      </trkpt>
      <trkpt lat="45.69451" lon="6.65563">
        <ele>1628</ele>
        <time>2018-02-22T17:53:15Z</time>
      </trkpt>
      <trkpt lat="45.69458" lon="6.65553">
        <ele>1625</ele>
        <time>2018-02-22T17:54:15Z</time>
      </trkpt>
      <trkpt lat="45.69469" lon="6.65545">
        <ele>1622</ele>
        <time>2018-02-22T17:55:15Z</time>
      </trkpt>
      <trkpt lat="45.69492" lon="6.65543">
        <ele>1618</ele>
        <time>2018-02-22T17:56:15Z</time>
      </trkpt>
      <trkpt lat="45.69555" lon="6.65563">
        <ele>1616</ele>
        <time>2018-02-22T17:57:15Z</time>
      </trkpt>
      <trkpt lat="45.69621" lon="6.65588">
        <ele>1611</ele>
        <time>2018-02-22T17:58:15Z</time>
      </trkpt>
      <trkpt lat="45.69697" lon="6.65624">
        <ele>1607</ele>
        <time>2018-02-22T17:59:15Z</time>
      </trkpt>
      <trkpt lat="45.6973" lon="6.65636">
        <ele>1604</ele>
        <time>2018-02-22T18:00:15Z</time>
      </trkpt>
      <trkpt lat="45.6976" lon="6.65639">
        <ele>1600</ele>
        <time>2018-02-22T18:01:15Z</time>
      </trkpt>
      <trkpt lat="45.69788" lon="6.65634">
        <ele>1597</ele>
        <time>2018-02-22T18:02:15Z</time>
      </trkpt>
      <trkpt lat="45.6981" lon="6.65619">
        <ele>1593</ele>
        <time>2018-02-22T18:03:15Z</time>
      </trkpt>
      <trkpt lat="45.69826" lon="6.65603">
        <ele>1589</ele>
        <time>2018-02-22T18:04:15Z</time>
      </trkpt>
      <trkpt lat="45.69872" lon="6.65542">
        <ele>1586</ele>
        <time>2018-02-22T18:05:15Z</time>
      </trkpt>
      <trkpt lat="45.69888" lon="6.65533">
        <ele>1587</ele>
        <time>2018-02-22T18:06:15Z</time>
      </trkpt>
      <trkpt lat="45.69932" lon="6.65523">
        <ele>1593</ele>
        <time>2018-02-22T18:07:15Z</time>
      </trkpt>
      <trkpt lat="45.69949" lon="6.65514">
        <ele>1596</ele>
        <time>2018-02-22T18:08:15Z</time>
      </trkpt>
      <trkpt lat="45.69965" lon="6.65483">
        <ele>1595</ele>
        <time>2018-02-22T18:09:15Z</time>
      </trkpt>
      <trkpt lat="45.6998" lon="6.65419">
        <ele>1590</ele>
        <time>2018-02-22T18:10:15Z</time>
      </trkpt>
      <trkpt lat="45.69994" lon="6.65388">
        <ele>1591</ele>
        <time>2018-02-22T18:11:15Z</time>
      </trkpt>
      <trkpt lat="45.70018" lon="6.65352">
        <ele>1597</ele>
        <time>2018-02-22T18:12:15Z</time>
      </trkpt>
      <trkpt lat="45.70029" lon="6.65328">
        <ele>1600</ele>
        <time>2018-02-22T18:13:15Z</time>
      </trkpt>
      <trkpt lat="45.70036" lon="6.65299">
        <ele>1602</ele>
        <time>2018-02-22T18:14:15Z</time>
      </trkpt>
      <trkpt lat="45.70033" lon="6.65256">
        <ele>1600</ele>
        <time>2018-02-22T18:15:15Z</time>
      </trkpt>
      <trkpt lat="45.70027" lon="6.65209">
        <ele>1598</ele>
        <time>2018-02-22T18:16:15Z</time>
      </trkpt>
      <trkpt lat="45.70027" lon="6.65136">
        <ele>1601</ele>
        <time>2018-02-22T18:17:15Z</time>
      </trkpt>
      <trkpt lat="45.70024" lon="6.65099">
        <ele>1602</ele>
        <time>2018-02-22T18:18:15Z</time>
      </trkpt>
      <trkpt lat="45.70018" lon="6.65061">
        <ele>1601</ele>
        <time>2018-02-22T18:19:15Z</time>
      </trkpt>
      <trkpt lat="45.70021" lon="6.65036">
        <ele>1602</ele>
        <time>2018-02-22T18:20:15Z</time>
      </trkpt>
      <trkpt lat="45.7003" lon="6.65014">
        <ele>1604</ele>
        <time>2018-02-22T18:21:15Z</time>
      </trkpt>
      <trkpt lat="45.70043" lon="6.65002">
        <ele>1606</ele>
        <time>2018-02-22T18:22:15Z</time>
      </trkpt>
      <trkpt lat="45.70069" lon="6.64982">
        <ele>1609</ele>
        <time>2018-02-22T18:23:15Z</time>
      </trkpt>
      <trkpt lat="45.70082" lon="6.64968">
        <ele>1610</ele>
        <time>2018-02-22T18:24:15Z</time>
      </trkpt>
      <trkpt lat="45.70095" lon="6.64948">
        <ele>1612</ele>
        <time>2018-02-22T18:25:15Z</time>
      </trkpt>
      <trkpt lat="45.70104" lon="6.64919">
        <ele>1612</ele>
        <time>2018-02-22T18:26:15Z</time>
      </trkpt>
      <trkpt lat="45.70106" lon="6.64885">
        <ele>1617</ele>
        <time>2018-02-22T18:27:15Z</time>
      </trkpt>
      <trkpt lat="45.70102" lon="6.64853">
        <ele>1619</ele>
        <time>2018-02-22T18:28:15Z</time>
      </trkpt>
      <trkpt lat="45.70091" lon="6.64828">
        <ele>1618</ele>
        <time>2018-02-22T18:29:15Z</time>
      </trkpt>
      <trkpt lat="45.70043" lon="6.64762">
        <ele>1610</ele>
        <time>2018-02-22T18:30:15Z</time>
      </trkpt>
      <trkpt lat="45.70036" lon="6.64749">
        <ele>1610</ele>
        <time>2018-02-22T18:31:15Z</time>
      </trkpt>
      <trkpt lat="45.69982" lon="6.64613">
        <ele>1600</ele>
        <time>2018-02-22T18:32:15Z</time>
      </trkpt>
      <trkpt lat="45.69976" lon="6.64593">
        <ele>1598</ele>
        <time>2018-02-22T18:33:15Z</time>
      </trkpt>
      <trkpt lat="45.69975" lon="6.6458">
        <ele>1597</ele>
        <time>2018-02-22T18:34:15Z</time>
      </trkpt>
      <trkpt lat="45.69977" lon="6.64564">
        <ele>1596</ele>
        <time>2018-02-22T18:35:15Z</time>
      </trkpt>
      <trkpt lat="45.69982" lon="6.64549">
        <ele>1597</ele>
        <time>2018-02-22T18:36:15Z</time>
      </trkpt>
      <trkpt lat="45.69995" lon="6.64532">
        <ele>1601</ele>
        <time>2018-02-22T18:37:15Z</time>
      </trkpt>
      <trkpt lat="45.70047" lon="6.64498">
        <ele>1608</ele>
        <time>2018-02-22T18:38:15Z</time>
      </trkpt>
      <trkpt lat="45.70058" lon="6.64484">
        <ele>1609</ele>
        <time>2018-02-22T18:39:15Z</time>
      </trkpt>
      <trkpt lat="45.70067" lon="6.64466">
        <ele>1610</ele>
        <time>2018-02-22T18:40:15Z</time>
      </trkpt>
      <trkpt lat="45.70073" lon="6.64438">
        <ele>1611</ele>
        <time>2018-02-22T18:41:15Z</time>
      </trkpt>
      <trkpt lat="45.70075" lon="6.64414">
        <ele>1611</ele>
        <time>2018-02-22T18:42:15Z</time>
      </trkpt>
      <trkpt lat="45.70071" lon="6.64389">
        <ele>1611</ele>
        <time>2018-02-22T18:43:15Z</time>
      </trkpt>
      <trkpt lat="45.70044" lon="6.64317">
        <ele>1607</ele>
        <time>2018-02-22T18:44:15Z</time>
      </trkpt>
      <trkpt lat="45.7003" lon="6.64237">
        <ele>1612</ele>
        <time>2018-02-22T18:45:15Z</time>
      </trkpt>
      <trkpt lat="45.70004" lon="6.64166">
        <ele>1615</ele>
        <time>2018-02-22T18:46:15Z</time>
      </trkpt>
      <trkpt lat="45.69975" lon="6.64097">
        <ele>1621</ele>
        <time>2018-02-22T18:47:15Z</time>
      </trkpt>
      <trkpt lat="45.6994" lon="6.64035">
        <ele>1622</ele>
        <time>2018-02-22T18:48:15Z</time>
      </trkpt>
      <trkpt lat="45.69798" lon="6.63851">
        <ele>1623</ele>
        <time>2018-02-22T18:49:15Z</time>
      </trkpt>
      <trkpt lat="45.69769" lon="6.63829">
        <ele>1618</ele>
        <time>2018-02-22T18:50:15Z</time>
      </trkpt>
      <trkpt lat="45.69717" lon="6.63794">
        <ele>1610</ele>
        <time>2018-02-22T18:51:15Z</time>
      </trkpt>
      <trkpt lat="45.69703" lon="6.63781">
        <ele>1610</ele>
        <time>2018-02-22T18:52:15Z</time>
      </trkpt>
      <trkpt lat="45.69679" lon="6.63749">
        <ele>1611</ele>
        <time>2018-02-22T18:53:15Z</time>
      </trkpt>
      <trkpt lat="45.6964" lon="6.63671">
        <ele>1622</ele>
        <time>2018-02-22T18:54:15Z</time>
      </trkpt>
      <trkpt lat="45.69625" lon="6.63656">
        <ele>1619</ele>
        <time>2018-02-22T18:55:15Z</time>
      </trkpt>
      <trkpt lat="45.6959" lon="6.63629">
        <ele>1610</ele>
        <time>2018-02-22T18:56:15Z</time>
      </trkpt>
      <trkpt lat="45.69577" lon="6.63612">
        <ele>1610</ele>
        <time>2018-02-22T18:57:15Z</time>
      </trkpt>
      <trkpt lat="45.69537" lon="6.63545">
        <ele>1615</ele>
        <time>2018-02-22T18:58:15Z</time>
      </trkpt>
      <trkpt lat="45.6952" lon="6.63513">
        <ele>1616</ele>
        <time>2018-02-22T18:59:15Z</time>
      </trkpt>
      <trkpt lat="45.69512" lon="6.63495">
        <ele>1617</ele>
        <time>2018-02-22T19:00:15Z</time>
      </trkpt>
      <trkpt lat="45.69497" lon="6.63447">
        <ele>1614</ele>
        <time>2018-02-22T19:01:15Z</time>
      </trkpt>
      <trkpt lat="45.69491" lon="6.63411">
        <ele>1614</ele>
        <time>2018-02-22T19:02:15Z</time>
      </trkpt>
      <trkpt lat="45.69489" lon="6.63387">
        <ele>1614</ele>
        <time>2018-02-22T19:03:15Z</time>
      </trkpt>
      <trkpt lat="45.69489" lon="6.63364">
        <ele>1614</ele>
        <time>2018-02-22T19:04:15Z</time>
      </trkpt>
      <trkpt lat="45.69462" lon="6.63329">
        <ele>1610</ele>
        <time>2018-02-22T19:05:15Z</time>
      </trkpt>
      <trkpt lat="45.69425" lon="6.6327">
        <ele>1607</ele>
        <time>2018-02-22T19:06:15Z</time>
      </trkpt>
      <trkpt lat="45.69419" lon="6.6325">
        <ele>1607</ele>
        <time>2018-02-22T19:07:15Z</time>
      </trkpt>
      <trkpt lat="45.69416" lon="6.63231">
        <ele>1607</ele>
        <time>2018-02-22T19:08:15Z</time>
      </trkpt>
      <trkpt lat="45.69415" lon="6.63206">
        <ele>1608</ele>
        <time>2018-02-22T19:09:15Z</time>
      </trkpt>
      <trkpt lat="45.69417" lon="6.63164">
        <ele>1610</ele>
        <time>2018-02-22T19:10:15Z</time>
      </trkpt>
      <trkpt lat="45.69413" lon="6.63149">
        <ele>1612</ele>
        <time>2018-02-22T19:11:15Z</time>
      </trkpt>
      <trkpt lat="45.69408" lon="6.63142">
        <ele>1613</ele>
        <time>2018-02-22T19:12:15Z</time>
      </trkpt>
      <trkpt lat="45.69378" lon="6.63128">
        <ele>1608</ele>
        <time>2018-02-22T19:13:15Z</time>
      </trkpt>
      <trkpt lat="45.69325" lon="6.63081">
        <ele>1602</ele>
        <time>2018-02-22T19:14:15Z</time>
      </trkpt>
      <trkpt lat="45.69309" lon="6.63073">
        <ele>1600</ele>
        <time>2018-02-22T19:15:15Z</time>
      </trkpt>
      <trkpt lat="45.69275" lon="6.6306">
        <ele>1594</ele>
        <time>2018-02-22T19:16:15Z</time>
      </trkpt>
      <trkpt lat="45.69214" lon="6.63027">
        <ele>1590</ele>
        <time>2018-02-22T19:17:15Z</time>
      </trkpt>
      <trkpt lat="45.69191" lon="6.63011">
        <ele>1590</ele>
        <time>2018-02-22T19:18:15Z</time>
      </trkpt>
      <trkpt lat="45.69164" lon="6.6299">
        <ele>1592</ele>
        <time>2018-02-22T19:19:15Z</time>
      </trkpt>
      <trkpt lat="45.69104" lon="6.62931">
        <ele>1589</ele>
        <time>2018-02-22T19:20:15Z</time>
      </trkpt>
      <trkpt lat="45.69079" lon="6.62915">
        <ele>1584</ele>
        <time>2018-02-22T19:21:15Z</time>
      </trkpt>
      <trkpt lat="45.69057" lon="6.62898">
        <ele>1578</ele>
        <time>2018-02-22T19:22:15Z</time>
      </trkpt>
      <trkpt lat="45.69037" lon="6.62873">
        <ele>1577</ele>
        <time>2018-02-22T19:23:15Z</time>
      </trkpt>
      <trkpt lat="45.68997" lon="6.62814">
        <ele>1581</ele>
        <time>2018-02-22T19:24:15Z</time>
      </trkpt>
      <trkpt lat="45.68951" lon="6.62762">
        <ele>1576</ele>
        <time>2018-02-22T19:25:15Z</time>
      </trkpt>
      <trkpt lat="45.68925" lon="6.62727">
        <ele>1575</ele>
        <time>2018-02-22T19:26:15Z</time>
      </trkpt>
      <trkpt lat="45.68905" lon="6.62697">
        <ele>1576</ele>
        <time>2018-02-22T19:27:15Z</time>
      </trkpt>
      <trkpt lat="45.68876" lon="6.62633">
        <ele>1578</ele>
        <time>2018-02-22T19:28:15Z</time>
      </trkpt>
      <trkpt lat="45.68822" lon="6.62548">
        <ele>1568</ele>
        <time>2018-02-22T19:29:15Z</time>
      </trkpt>
      <trkpt lat="45.68789" lon="6.62475">
        <ele>1556</ele>
        <time>2018-02-22T19:30:15Z</time>
      </trkpt>
      <trkpt lat="45.68782" lon="6.62466">
        <ele>1552</ele>
        <time>2018-02-22T19:31:15Z</time>
      </trkpt>
      <trkpt lat="45.68776" lon="6.6246">
        <ele>1549</ele>
        <time>2018-02-22T19:32:15Z</time>
      </trkpt>
      <trkpt lat="45.68758" lon="6.6245">
        <ele>1541</ele>
        <time>2018-02-22T19:33:15Z</time>
      </trkpt>
      <trkpt lat="45.68737" lon="6.62442">
        <ele>1534</ele>
        <time>2018-02-22T19:34:15Z</time>
      </trkpt>
      <trkpt lat="45.6868" lon="6.62407">
        <ele>1521</ele>
        <time>2018-02-22T19:35:15Z</time>
      </trkpt>
      <trkpt lat="45.68626" lon="6.62366">
        <ele>1512</ele>
        <time>2018-02-22T19:36:15Z</time>
      </trkpt>
      <trkpt lat="45.68587" lon="6.62319">
        <ele>1509</ele>
        <time>2018-02-22T19:37:15Z</time>
      </trkpt>
      <trkpt lat="45.6857" lon="6.62295">
        <ele>1508</ele>
        <time>2018-02-22T19:38:15Z</time>
      </trkpt>
      <trkpt lat="45.68538" lon="6.62242">
        <ele>1507</ele>
        <time>2018-02-22T19:39:15Z</time>
      </trkpt>
      <trkpt lat="45.68358" lon="6.61851">
        <ele>1525</ele>
        <time>2018-02-22T19:40:15Z</time>
      </trkpt>
      <trkpt lat="45.6829" lon="6.61724">
        <ele>1557</ele>
        <time>2018-02-22T19:41:15Z</time>
      </trkpt>
      <trkpt lat="45.68277" lon="6.61704">
        <ele>1563</ele>
        <time>2018-02-22T19:42:15Z</time>
      </trkpt>
      <trkpt lat="45.68259" lon="6.61679">
        <ele>1568</ele>
        <time>2018-02-22T19:43:15Z</time>
      </trkpt>
      <trkpt lat="45.68188" lon="6.61609">
        <ele>1569</ele>
        <time>2018-02-22T19:44:15Z</time>
      </trkpt>
      <trkpt lat="45.68128" lon="6.61556">
        <ele>1570</ele>
        <time>2018-02-22T19:45:15Z</time>
      </trkpt>
      <trkpt lat="45.68089" lon="6.61534">
        <ele>1571</ele>
        <time>2018-02-22T19:46:15Z</time>
      </trkpt>
      <trkpt lat="45.6806" lon="6.61522">
        <ele>1572</ele>
        <time>2018-02-22T19:47:15Z</time>
      </trkpt>
      <trkpt lat="45.68058" lon="6.61515">
        <ele>1574</ele>
        <time>2018-02-22T19:48:15Z</time>
      </trkpt>
      <trkpt lat="45.68058" lon="6.61512">
        <ele>1576</ele>
        <time>2018-02-22T19:49:15Z</time>
      </trkpt>
      <trkpt lat="45.68065" lon="6.61508">
        <ele>1578</ele>
        <time>2018-02-22T19:50:15Z</time>
      </trkpt>
      <trkpt lat="45.68214" lon="6.61534">
        <ele>1589</ele>
        <time>2018-02-22T19:51:15Z</time>
      </trkpt>
      <trkpt lat="45.68234" lon="6.61541">
        <ele>1591</ele>
        <time>2018-02-22T19:52:15Z</time>
      </trkpt>
      <trkpt lat="45.68253" lon="6.61554">
        <ele>1593</ele>
        <time>2018-02-22T19:53:15Z</time>
      </trkpt>
      <trkpt lat="45.6828" lon="6.61576">
        <ele>1598</ele>
        <time>2018-02-22T19:54:15Z</time>
      </trkpt>
      <trkpt lat="45.68314" lon="6.61646">
        <ele>1591</ele>
        <time>2018-02-22T19:55:15Z</time>
      </trkpt>
      <trkpt lat="45.68325" lon="6.6166">
        <ele>1590</ele>
        <time>2018-02-22T19:56:15Z</time>
      </trkpt>
      <trkpt lat="45.68332" lon="6.61664">
        <ele>1591</ele>
        <time>2018-02-22T19:57:15Z</time>
      </trkpt>
      <trkpt lat="45.68338" lon="6.61664">
        <ele>1592</ele>
        <time>2018-02-22T19:58:15Z</time>
      </trkpt>
      <trkpt lat="45.68341" lon="6.61658">
        <ele>1594</ele>
        <time>2018-02-22T19:59:15Z</time>
      </trkpt>
      <trkpt lat="45.68339" lon="6.61649">
        <ele>1595</ele>
        <time>2018-02-22T20:00:15Z</time>
      </trkpt>
      <trkpt lat="45.68319" lon="6.61611">
        <ele>1600</ele>
        <time>2018-02-22T20:01:15Z</time>
      </trkpt>
      <trkpt lat="45.68314" lon="6.61595">
        <ele>1603</ele>
        <time>2018-02-22T20:02:15Z</time>
      </trkpt>
      <trkpt lat="45.68316" lon="6.61584">
        <ele>1606</ele>
        <time>2018-02-22T20:03:15Z</time>
      </trkpt>
      <trkpt lat="45.68322" lon="6.61577">
        <ele>1607</ele>
        <time>2018-02-22T20:04:15Z</time>
      </trkpt>
      <trkpt lat="45.68358" lon="6.61569">
        <ele>1610</ele>
        <time>2018-02-22T20:05:15Z</time>
      </trkpt>
      <trkpt lat="45.68375" lon="6.61562">
        <ele>1611</ele>
        <time>2018-02-22T20:06:15Z</time>
      </trkpt>
      <trkpt lat="45.68399" lon="6.61536">
        <ele>1612</ele>
        <time>2018-02-22T20:07:15Z</time>
      </trkpt>
      <trkpt lat="45.68407" lon="6.61524">
        <ele>1613</ele>
        <time>2018-02-22T20:08:15Z</time>
      </trkpt>
      <trkpt lat="45.68412" lon="6.61507">
        <ele>1613</ele>
        <time>2018-02-22T20:09:15Z</time>
      </trkpt>
      <trkpt lat="45.68412" lon="6.61491">
        <ele>1614</ele>
        <time>2018-02-22T20:10:15Z</time>
      </trkpt>
      <trkpt lat="45.6841" lon="6.61482">
        <ele>1614</ele>
        <time>2018-02-22T20:11:15Z</time>
      </trkpt>
      <trkpt lat="45.68386" lon="6.61437">
        <ele>1616</ele>
        <time>2018-02-22T20:12:15Z</time>
      </trkpt>
      <trkpt lat="45.6838" lon="6.61425">
        <ele>1616</ele>
        <time>2018-02-22T20:13:15Z</time>
      </trkpt>
      <trkpt lat="45.68371" lon="6.61397">
        <ele>1620</ele>
        <time>2018-02-22T20:14:15Z</time>
      </trkpt>
      <trkpt lat="45.68352" lon="6.61331">
        <ele>1628</ele>
        <time>2018-02-22T20:15:15Z</time>
      </trkpt>
      <trkpt lat="45.68348" lon="6.61321">
        <ele>1631</ele>
        <time>2018-02-22T20:16:15Z</time>
      </trkpt>
      <trkpt lat="45.68344" lon="6.61316">
        <ele>1632</ele>
        <time>2018-02-22T20:17:15Z</time>
      </trkpt>
      <trkpt lat="45.6833" lon="6.6131">
        <ele>1633</ele>
        <time>2018-02-22T20:18:15Z</time>
      </trkpt>
      <trkpt lat="45.68199" lon="6.61297">
        <ele>1645</ele>
        <time>2018-02-22T20:19:15Z</time>
      </trkpt>
      <trkpt lat="45.68197" lon="6.61296">
        <ele>1645</ele>
        <time>2018-02-22T20:20:15Z</time>
      </trkpt>
      <trkpt lat="45.68194" lon="6.6129">
        <ele>1647</ele>
        <time>2018-02-22T20:21:15Z</time>
      </trkpt>
      <trkpt lat="45.68197" lon="6.61284">
        <ele>1649</ele>
        <time>2018-02-22T20:22:15Z</time>
      </trkpt>
      <trkpt lat="45.68229" lon="6.61273">
        <ele>1650</ele>
        <time>2018-02-22T20:23:15Z</time>
      </trkpt>
      <trkpt lat="45.68243" lon="6.61266">
        <ele>1651</ele>
        <time>2018-02-22T20:24:15Z</time>
      </trkpt>
      <trkpt lat="45.68316" lon="6.61221">
        <ele>1662</ele>
        <time>2018-02-22T20:25:15Z</time>
      </trkpt>
      <trkpt lat="45.68337" lon="6.61212">
        <ele>1664</ele>
        <time>2018-02-22T20:26:15Z</time>
      </trkpt>
      <trkpt lat="45.68357" lon="6.61198">
        <ele>1669</ele>
        <time>2018-02-22T20:27:15Z</time>
      </trkpt>
      <trkpt lat="45.68367" lon="6.61198">
        <ele>1670</ele>
        <time>2018-02-22T20:28:15Z</time>
      </trkpt>
      <trkpt lat="45.68386" lon="6.61203">
        <ele>1669</ele>
        <time>2018-02-22T20:29:15Z</time>
      </trkpt>
      <trkpt lat="45.68411" lon="6.61201">
        <ele>1671</ele>
        <time>2018-02-22T20:30:15Z</time>
      </trkpt>
      <trkpt lat="45.68417" lon="6.61195">
        <ele>1673</ele>
        <time>2018-02-22T20:31:15Z</time>
      </trkpt>
      <trkpt lat="45.68418" lon="6.61188">
        <ele>1675</ele>
        <time>2018-02-22T20:32:15Z</time>
      </trkpt>
      <trkpt lat="45.68413" lon="6.61184">
        <ele>1675</ele>
        <time>2018-02-22T20:33:15Z</time>
      </trkpt>
      <trkpt lat="45.68397" lon="6.61186">
        <ele>1674</ele>
        <time>2018-02-22T20:34:15Z</time>
      </trkpt>
      <trkpt lat="45.68384" lon="6.61182">
        <ele>1675</ele>
        <time>2018-02-22T20:35:15Z</time>
      </trkpt>
      <trkpt lat="45.68367" lon="6.6116">
        <ele>1680</ele>
        <time>2018-02-22T20:36:15Z</time>
      </trkpt>
      <trkpt lat="45.68361" lon="6.61156">
        <ele>1681</ele>
        <time>2018-02-22T20:37:15Z</time>
      </trkpt>
      <trkpt lat="45.68341" lon="6.61164">
        <ele>1679</ele>
        <time>2018-02-22T20:38:15Z</time>
      </trkpt>
      <trkpt lat="45.68337" lon="6.61164">
        <ele>1679</ele>
        <time>2018-02-22T20:39:15Z</time>
      </trkpt>
      <trkpt lat="45.68317" lon="6.61155">
        <ele>1681</ele>
        <time>2018-02-22T20:40:15Z</time>
      </trkpt>
      <trkpt lat="45.68231" lon="6.61142">
        <ele>1689</ele>
        <time>2018-02-22T20:41:15Z</time>
      </trkpt>
      <trkpt lat="45.68224" lon="6.6114">
        <ele>1690</ele>
        <time>2018-02-22T20:42:15Z</time>
      </trkpt>
      <trkpt lat="45.68221" lon="6.61134">
        <ele>1692</ele>
        <time>2018-02-22T20:43:15Z</time>
      </trkpt>
      <trkpt lat="45.68224" lon="6.6113">
        <ele>1693</ele>
        <time>2018-02-22T20:44:15Z</time>
      </trkpt>
      <trkpt lat="45.68258" lon="6.61116">
        <ele>1695</ele>
        <time>2018-02-22T20:45:15Z</time>
      </trkpt>
      <trkpt lat="45.68283" lon="6.61098">
        <ele>1698</ele>
        <time>2018-02-22T20:46:15Z</time>
      </trkpt>
      <trkpt lat="45.68317" lon="6.61065">
        <ele>1701</ele>
        <time>2018-02-22T20:47:15Z</time>
      </trkpt>
      <trkpt lat="45.68327" lon="6.6105">
        <ele>1703</ele>
        <time>2018-02-22T20:48:15Z</time>
      </trkpt>
      <trkpt lat="45.68346" lon="6.61016">
        <ele>1710</ele>
        <time>2018-02-22T20:49:15Z</time>
      </trkpt>
      <trkpt lat="45.68353" lon="6.61007">
        <ele>1712</ele>
        <time>2018-02-22T20:50:15Z</time>
      </trkpt>
      <trkpt lat="45.68364" lon="6.61001">
        <ele>1712</ele>
        <time>2018-02-22T20:51:15Z</time>
      </trkpt>
      <trkpt lat="45.68373" lon="6.61">
        <ele>1712</ele>
        <time>2018-02-22T20:52:15Z</time>
      </trkpt>
      <trkpt lat="45.6839" lon="6.61004">
        <ele>1709</ele>
        <time>2018-02-22T20:53:15Z</time>
      </trkpt>
      <trkpt lat="45.684" lon="6.61002">
        <ele>1709</ele>
        <time>2018-02-22T20:54:15Z</time>
      </trkpt>
      <trkpt lat="45.68411" lon="6.60996">
        <ele>1709</ele>
        <time>2018-02-22T20:55:15Z</time>
      </trkpt>
      <trkpt lat="45.68419" lon="6.60988">
        <ele>1710</ele>
        <time>2018-02-22T20:56:15Z</time>
      </trkpt>
      <trkpt lat="45.68439" lon="6.60962">
        <ele>1713</ele>
        <time>2018-02-22T20:57:15Z</time>
      </trkpt>
      <trkpt lat="45.68444" lon="6.60951">
        <ele>1714</ele>
        <time>2018-02-22T20:58:15Z</time>
      </trkpt>
      <trkpt lat="45.68447" lon="6.60941">
        <ele>1715</ele>
        <time>2018-02-22T20:59:15Z</time>
      </trkpt>
      <trkpt lat="45.68448" lon="6.60905">
        <ele>1721</ele>
        <time>2018-02-22T21:00:15Z</time>
      </trkpt>
      <trkpt lat="45.68453" lon="6.60882">
        <ele>1724</ele>
        <time>2018-02-22T21:01:15Z</time>
      </trkpt>
      <trkpt lat="45.68463" lon="6.60857">
        <ele>1727</ele>
        <time>2018-02-22T21:02:15Z</time>
      </trkpt>
      <trkpt lat="45.68472" lon="6.60844">
        <ele>1728</ele>
        <time>2018-02-22T21:03:15Z</time>
      </trkpt>
      <trkpt lat="45.6848" lon="6.60838">
        <ele>1728</ele>
        <time>2018-02-22T21:04:15Z</time>
      </trkpt>
      <trkpt lat="45.68488" lon="6.60837">
        <ele>1727</ele>
        <time>2018-02-22T21:05:15Z</time>
      </trkpt>
      <trkpt lat="45.68496" lon="6.60838">
        <ele>1726</ele>
        <time>2018-02-22T21:06:15Z</time>
      </trkpt>
      <trkpt lat="45.68528" lon="6.60851">
        <ele>1723</ele>
        <time>2018-02-22T21:07:15Z</time>
      </trkpt>
      <trkpt lat="45.68542" lon="6.60846">
        <ele>1723</ele>
        <time>2018-02-22T21:08:15Z</time>
      </trkpt>
      <trkpt lat="45.6856" lon="6.60832">
        <ele>1723</ele>
        <time>2018-02-22T21:09:15Z</time>
      </trkpt>
      <trkpt lat="45.68624" lon="6.60759">
        <ele>1728</ele>
        <time>2018-02-22T21:10:15Z</time>
      </trkpt>
      <trkpt lat="45.68637" lon="6.60739">
        <ele>1727</ele>
        <time>2018-02-22T21:11:15Z</time>
      </trkpt>
      <trkpt lat="45.68669" lon="6.60667">
        <ele>1729</ele>
        <time>2018-02-22T21:12:15Z</time>
      </trkpt>
      <trkpt lat="45.68688" lon="6.6064">
        <ele>1728</ele>
        <time>2018-02-22T21:13:15Z</time>
      </trkpt>
      <trkpt lat="45.68714" lon="6.60584">
        <ele>1728</ele>
        <time>2018-02-22T21:14:15Z</time>
      </trkpt>
      <trkpt lat="45.68721" lon="6.60559">
        <ele>1730</ele>
        <time>2018-02-22T21:15:15Z</time>
      </trkpt>
      <trkpt lat="45.68725" lon="6.60532">
        <ele>1732</ele>
        <time>2018-02-22T21:16:15Z</time>
      </trkpt>
      <trkpt lat="45.6873" lon="6.60483">
        <ele>1736</ele>
        <time>2018-02-22T21:17:15Z</time>
      </trkpt>
      <trkpt lat="45.68735" lon="6.60456">
        <ele>1737</ele>
        <time>2018-02-22T21:18:15Z</time>
      </trkpt>
      <trkpt lat="45.6875" lon="6.60409">
        <ele>1736</ele>
        <time>2018-02-22T21:19:15Z</time>
      </trkpt>
      <trkpt lat="45.68763" lon="6.60396">
        <ele>1735</ele>
        <time>2018-02-22T21:20:15Z</time>
      </trkpt>
      <trkpt lat="45.688" lon="6.60377">
        <ele>1729</ele>
        <time>2018-02-22T21:21:15Z</time>
      </trkpt>
      <trkpt lat="45.68804" lon="6.60371">
        <ele>1729</ele>
        <time>2018-02-22T21:22:15Z</time>
      </trkpt>
      <trkpt lat="45.68809" lon="6.60363">
        <ele>1729</ele>
        <time>2018-02-22T21:23:15Z</time>
      </trkpt>
      <trkpt lat="45.68819" lon="6.60323">
        <ele>1734</ele>
        <time>2018-02-22T21:24:15Z</time>
      </trkpt>
      <trkpt lat="45.68825" lon="6.60311">
        <ele>1733</ele>
        <time>2018-02-22T21:25:15Z</time>
      </trkpt>
      <trkpt lat="45.68832" lon="6.60302">
        <ele>1732</ele>
        <time>2018-02-22T21:26:15Z</time>
      </trkpt>
      <trkpt lat="45.68861" lon="6.60272">
        <ele>1726</ele>
        <time>2018-02-22T21:27:15Z</time>
      </trkpt>
      <trkpt lat="45.68871" lon="6.60257">
        <ele>1725</ele>
        <time>2018-02-22T21:28:15Z</time>
      </trkpt>
      <trkpt lat="45.68877" lon="6.60234">
        <ele>1725</ele>
        <time>2018-02-22T21:29:15Z</time>
      </trkpt>
      <trkpt lat="45.68887" lon="6.60172">
        <ele>1729</ele>
        <time>2018-02-22T21:30:15Z</time>
      </trkpt>
      <trkpt lat="45.68893" lon="6.60105">
        <ele>1736</ele>
        <time>2018-02-22T21:31:15Z</time>
      </trkpt>
      <trkpt lat="45.68897" lon="6.60091">
        <ele>1737</ele>
        <time>2018-02-22T21:32:15Z</time>
      </trkpt>
      <trkpt lat="45.6891" lon="6.60076">
        <ele>1735</ele>
        <time>2018-02-22T21:33:15Z</time>
      </trkpt>
      <trkpt lat="45.68949" lon="6.60048">
        <ele>1725</ele>
        <time>2018-02-22T21:34:15Z</time>
      </trkpt>
      <trkpt lat="45.68963" lon="6.60025">
        <ele>1721</ele>
        <time>2018-02-22T21:35:15Z</time>
      </trkpt>
      <trkpt lat="45.68985" lon="6.59972">
        <ele>1713</ele>
        <time>2018-02-22T21:36:15Z</time>
      </trkpt>
      <trkpt lat="45.68994" lon="6.59939">
        <ele>1711</ele>
        <time>2018-02-22T21:37:15Z</time>
      </trkpt>
      <trkpt lat="45.68999" lon="6.59901">
        <ele>1711</ele>
        <time>2018-02-22T21:38:15Z</time>
      </trkpt>
      <trkpt lat="45.68996" lon="6.59859">
        <ele>1713</ele>
        <time>2018-02-22T21:39:15Z</time>
      </trkpt>
      <trkpt lat="45.68997" lon="6.59852">
        <ele>1713</ele>
        <time>2018-02-22T21:40:15Z</time>
      </trkpt>
      <trkpt lat="45.69004" lon="6.59833">
        <ele>1712</ele>
        <time>2018-02-22T21:41:15Z</time>
      </trkpt>
      <trkpt lat="45.69012" lon="6.59819">
        <ele>1710</ele>
        <time>2018-02-22T21:42:15Z</time>
      </trkpt>
      <trkpt lat="45.69027" lon="6.598">
        <ele>1708</ele>
        <time>2018-02-22T21:43:15Z</time>
      </trkpt>
      <trkpt lat="45.69031" lon="6.59776">
        <ele>1706</ele>
        <time>2018-02-22T21:44:15Z</time>
      </trkpt>
      <trkpt lat="45.6903" lon="6.59762">
        <ele>1705</ele>
        <time>2018-02-22T21:45:15Z</time>
      </trkpt>
      <trkpt lat="45.69026" lon="6.59747">
        <ele>1705</ele>
        <time>2018-02-22T21:46:15Z</time>
      </trkpt>
      <trkpt lat="45.69005" lon="6.59689">
        <ele>1699</ele>
        <time>2018-02-22T21:47:15Z</time>
      </trkpt>
      <trkpt lat="45.68983" lon="6.59642">
        <ele>1698</ele>
        <time>2018-02-22T21:48:15Z</time>
      </trkpt>
      <trkpt lat="45.68967" lon="6.59612">
        <ele>1696</ele>
        <time>2018-02-22T21:49:15Z</time>
      </trkpt>
      <trkpt lat="45.68948" lon="6.59571">
        <ele>1688</ele>
        <time>2018-02-22T21:50:15Z</time>
      </trkpt>
      <trkpt lat="45.68921" lon="6.59539">
        <ele>1676</ele>
        <time>2018-02-22T21:51:15Z</time>
      </trkpt>
      <trkpt lat="45.68908" lon="6.59506">
        <ele>1671</ele>
        <time>2018-02-22T21:52:15Z</time>
      </trkpt>
      <trkpt lat="45.68928" lon="6.59469">
        <ele>1676</ele>
        <time>2018-02-22T21:53:15Z</time>
      </trkpt>
      <trkpt lat="45.68934" lon="6.59419">
        <ele>1678</ele>
        <time>2018-02-22T21:54:15Z</time>
      </trkpt>
      <trkpt lat="45.68917" lon="6.5933">
        <ele>1670</ele>
        <time>2018-02-22T21:55:15Z</time>
      </trkpt>
      <trkpt lat="45.68914" lon="6.5926">
        <ele>1670</ele>
        <time>2018-02-22T21:56:15Z</time>
      </trkpt>
      <trkpt lat="45.68902" lon="6.59209">
        <ele>1661</ele>
        <time>2018-02-22T21:57:15Z</time>
      </trkpt>
      <trkpt lat="45.68911" lon="6.59069">
        <ele>1655</ele>
        <time>2018-02-22T21:58:15Z</time>
      </trkpt>
      <trkpt lat="45.68911" lon="6.58994">
        <ele>1645</ele>
        <time>2018-02-22T21:59:15Z</time>
      </trkpt>
      <trkpt lat="45.68965" lon="6.5878">
        <ele>1636</ele>
        <time>2018-02-22T22:00:15Z</time>
      </trkpt>
      <trkpt lat="45.68972" lon="6.58707">
        <ele>1631</ele>
        <time>2018-02-22T22:01:15Z</time>
      </trkpt>
      <trkpt lat="45.68965" lon="6.58626">
        <ele>1619</ele>
        <time>2018-02-22T22:02:15Z</time>
      </trkpt>
      <trkpt lat="45.68961" lon="6.586">
        <ele>1614</ele>
        <time>2018-02-22T22:03:15Z</time>
      </trkpt>
      <trkpt lat="45.68962" lon="6.58579">
        <ele>1613</ele>
        <time>2018-02-22T22:04:15Z</time>
      </trkpt>
      <trkpt lat="45.6899" lon="6.58475">
        <ele>1616</ele>
        <time>2018-02-22T22:05:15Z</time>
      </trkpt>
      <trkpt lat="45.69" lon="6.58387">
        <ele>1602</ele>
        <time>2018-02-22T22:06:15Z</time>
      </trkpt>
      <trkpt lat="45.6904" lon="6.58296">
        <ele>1597</ele>
        <time>2018-02-22T22:07:15Z</time>
      </trkpt>
      <trkpt lat="45.69052" lon="6.58253">
        <ele>1592</ele>
        <time>2018-02-22T22:08:15Z</time>
      </trkpt>
      <trkpt lat="45.69046" lon="6.58191">
        <ele>1574</ele>
        <time>2018-02-22T22:09:15Z</time>
      </trkpt>
      <trkpt lat="45.69068" lon="6.58122">
        <ele>1570</ele>
        <time>2018-02-22T22:10:15Z</time>
      </trkpt>
      <trkpt lat="45.69104" lon="6.58065">
        <ele>1568</ele>
        <time>2018-02-22T22:11:15Z</time>
      </trkpt>
      <trkpt lat="45.69114" lon="6.58057">
        <ele>1569</ele>
        <time>2018-02-22T22:12:15Z</time>
      </trkpt>
      <trkpt lat="45.69117" lon="6.58044">
        <ele>1565</ele>
        <time>2018-02-22T22:13:15Z</time>
      </trkpt>
      <trkpt lat="45.69114" lon="6.58036">
        <ele>1560</ele>
        <time>2018-02-22T22:14:15Z</time>
      </trkpt>
      <trkpt lat="45.69089" lon="6.58061">
        <ele>1561</ele>
        <time>2018-02-22T22:15:15Z</time>
      </trkpt>
      <trkpt lat="45.69041" lon="6.58123">
        <ele>1554</ele>
        <time>2018-02-22T22:16:15Z</time>
      </trkpt>
      <trkpt lat="45.69008" lon="6.58175">
        <ele>1546</ele>
        <time>2018-02-22T22:17:15Z</time>
      </trkpt>
      <trkpt lat="45.68988" lon="6.58258">
        <ele>1551</ele>
        <time>2018-02-22T22:18:15Z</time>
      </trkpt>
      <trkpt lat="45.68971" lon="6.58284">
        <ele>1552</ele>
        <time>2018-02-22T22:19:15Z</time>
      </trkpt>
      <trkpt lat="45.68904" lon="6.58318">
        <ele>1529</ele>
        <time>2018-02-22T22:20:15Z</time>
      </trkpt>
      <trkpt lat="45.6885" lon="6.58429">
        <ele>1518</ele>
        <time>2018-02-22T22:21:15Z</time>
      </trkpt>
      <trkpt lat="45.68824" lon="6.58527">
        <ele>1507</ele>
        <time>2018-02-22T22:22:15Z</time>
      </trkpt>
      <trkpt lat="45.68813" lon="6.58644">
        <ele>1511</ele>
        <time>2018-02-22T22:23:15Z</time>
      </trkpt>
      <trkpt lat="45.68807" lon="6.58676">
        <ele>1511</ele>
        <time>2018-02-22T22:24:15Z</time>
      </trkpt>
      <trkpt lat="45.68801" lon="6.58687">
        <ele>1509</ele>
        <time>2018-02-22T22:25:15Z</time>
      </trkpt>
      <trkpt lat="45.68796" lon="6.5868">
        <ele>1504</ele>
        <time>2018-02-22T22:26:15Z</time>
      </trkpt>
      <trkpt lat="45.68805" lon="6.58623">
        <ele>1503</ele>
        <time>2018-02-22T22:27:15Z</time>
      </trkpt>
      <trkpt lat="45.68794" lon="6.58548">
        <ele>1486</ele>
        <time>2018-02-22T22:28:15Z</time>
      </trkpt>
      <trkpt lat="45.68794" lon="6.58415">
        <ele>1474</ele>
        <time>2018-02-22T22:29:15Z</time>
      </trkpt>
      <trkpt lat="45.68796" lon="6.58355">
        <ele>1468</ele>
        <time>2018-02-22T22:30:15Z</time>
      </trkpt>
      <trkpt lat="45.68801" lon="6.58327">
        <ele>1468</ele>
        <time>2018-02-22T22:31:15Z</time>
      </trkpt>
      <trkpt lat="45.68808" lon="6.58308">
        <ele>1467</ele>
        <time>2018-02-22T22:32:15Z</time>
      </trkpt>
      <trkpt lat="45.6883" lon="6.58262">
        <ele>1465</ele>
        <time>2018-02-22T22:33:15Z</time>
      </trkpt>
      <trkpt lat="45.68842" lon="6.58244">
        <ele>1466</ele>
        <time>2018-02-22T22:34:15Z</time>
      </trkpt>
      <trkpt lat="45.68862" lon="6.58225">
        <ele>1471</ele>
        <time>2018-02-22T22:35:15Z</time>
      </trkpt>
      <trkpt lat="45.68869" lon="6.58215">
        <ele>1472</ele>
        <time>2018-02-22T22:36:15Z</time>
      </trkpt>
      <trkpt lat="45.68872" lon="6.58203">
        <ele>1470</ele>
        <time>2018-02-22T22:37:15Z</time>
      </trkpt>
      <trkpt lat="45.68874" lon="6.58181">
        <ele>1464</ele>
        <time>2018-02-22T22:38:15Z</time>
      </trkpt>
      <trkpt lat="45.68873" lon="6.5816">
        <ele>1458</ele>
        <time>2018-02-22T22:39:15Z</time>
      </trkpt>
      <trkpt lat="45.68856" lon="6.58093">
        <ele>1439</ele>
        <time>2018-02-22T22:40:15Z</time>
      </trkpt>
      <trkpt lat="45.68853" lon="6.5799">
        <ele>1434</ele>
        <time>2018-02-22T22:41:15Z</time>
      </trkpt>
      <trkpt lat="45.68845" lon="6.5795">
        <ele>1428</ele>
        <time>2018-02-22T22:42:15Z</time>
      </trkpt>
      <trkpt lat="45.68825" lon="6.57901">
        <ele>1418</ele>
        <time>2018-02-22T22:43:15Z</time>
      </trkpt>
      <trkpt lat="45.68823" lon="6.57848">
        <ele>1415</ele>
        <time>2018-02-22T22:44:15Z</time>
      </trkpt>
      <trkpt lat="45.68825" lon="6.57826">
        <ele>1414</ele>
        <time>2018-02-22T22:45:15Z</time>
      </trkpt>
      <trkpt lat="45.68832" lon="6.57816">
        <ele>1415</ele>
        <time>2018-02-22T22:46:15Z</time>
      </trkpt>
      <trkpt lat="45.68861" lon="6.57812">
        <ele>1419</ele>
        <time>2018-02-22T22:47:15Z</time>
      </trkpt>
      <trkpt lat="45.68862" lon="6.57802">
        <ele>1416</ele>
        <time>2018-02-22T22:48:15Z</time>
      </trkpt>
      <trkpt lat="45.68846" lon="6.57797">
        <ele>1414</ele>
        <time>2018-02-22T22:49:15Z</time>
      </trkpt>
      <trkpt lat="45.68822" lon="6.57802">
        <ele>1410</ele>
        <time>2018-02-22T22:50:15Z</time>
      </trkpt>
      <trkpt lat="45.68801" lon="6.57811">
        <ele>1405</ele>
        <time>2018-02-22T22:51:15Z</time>
      </trkpt>
      <trkpt lat="45.68779" lon="6.57851">
        <ele>1401</ele>
        <time>2018-02-22T22:52:15Z</time>
      </trkpt>
      <trkpt lat="45.68773" lon="6.57886">
        <ele>1398</ele>
        <time>2018-02-22T22:53:15Z</time>
      </trkpt>
      <trkpt lat="45.68793" lon="6.57929">
        <ele>1405</ele>
        <time>2018-02-22T22:54:15Z</time>
      </trkpt>
      <trkpt lat="45.68797" lon="6.57954">
        <ele>1406</ele>
        <time>2018-02-22T22:55:15Z</time>
      </trkpt>
      <trkpt lat="45.68772" lon="6.58055">
        <ele>1391</ele>
        <time>2018-02-22T22:56:15Z</time>
      </trkpt>
      <trkpt lat="45.68775" lon="6.58098">
        <ele>1395</ele>
        <time>2018-02-22T22:57:15Z</time>
      </trkpt>
      <trkpt lat="45.68774" lon="6.58125">
        <ele>1398</ele>
        <time>2018-02-22T22:58:15Z</time>
      </trkpt>
      <trkpt lat="45.68766" lon="6.58144">
        <ele>1397</ele>
        <time>2018-02-22T22:59:15Z</time>
      </trkpt>
      <trkpt lat="45.68763" lon="6.58146">
        <ele>1395</ele>
        <time>2018-02-22T23:00:15Z</time>
      </trkpt>
      <trkpt lat="45.68758" lon="6.58144">
        <ele>1392</ele>
        <time>2018-02-22T23:01:15Z</time>
      </trkpt>
      <trkpt lat="45.68756" lon="6.58134">
        <ele>1390</ele>
        <time>2018-02-22T23:02:15Z</time>
      </trkpt>
      <trkpt lat="45.68758" lon="6.58121">
        <ele>1389</ele>
        <time>2018-02-22T23:03:15Z</time>
      </trkpt>
      <trkpt lat="45.68758" lon="6.58076">
        <ele>1384</ele>
        <time>2018-02-22T23:04:15Z</time>
      </trkpt>
      <trkpt lat="45.68745" lon="6.58026">
        <ele>1375</ele>
        <time>2018-02-22T23:05:15Z</time>
      </trkpt>
      <trkpt lat="45.68711" lon="6.57931">
        <ele>1369</ele>
        <time>2018-02-22T23:06:15Z</time>
      </trkpt>
      <trkpt lat="45.68664" lon="6.57855">
        <ele>1356</ele>
        <time>2018-02-22T23:07:15Z</time>
      </trkpt>
      <trkpt lat="45.68657" lon="6.57814">
        <ele>1352</ele>
        <time>2018-02-22T23:08:15Z</time>
      </trkpt>
      <trkpt lat="45.68661" lon="6.57764">
        <ele>1350</ele>
        <time>2018-02-22T23:09:15Z</time>
      </trkpt>
      <trkpt lat="45.68673" lon="6.57728">
        <ele>1349</ele>
        <time>2018-02-22T23:10:15Z</time>
      </trkpt>
      <trkpt lat="45.68684" lon="6.5768">
        <ele>1342</ele>
        <time>2018-02-22T23:11:15Z</time>
      </trkpt>
      <trkpt lat="45.68698" lon="6.57657">
        <ele>1339</ele>
        <time>2018-02-22T23:12:15Z</time>
      </trkpt>
      <trkpt lat="45.68711" lon="6.57653">
        <ele>1341</ele>
        <time>2018-02-22T23:13:15Z</time>
      </trkpt>
      <trkpt lat="45.68711" lon="6.57642">
        <ele>1336</ele>
        <time>2018-02-22T23:14:15Z</time>
      </trkpt>
      <trkpt lat="45.68694" lon="6.57647">
        <ele>1333</ele>
        <time>2018-02-22T23:15:15Z</time>
      </trkpt>
      <trkpt lat="45.68637" lon="6.57721">
        <ele>1330</ele>
        <time>2018-02-22T23:16:15Z</time>
      </trkpt>
      <trkpt lat="45.68618" lon="6.57758">
        <ele>1328</ele>
        <time>2018-02-22T23:17:15Z</time>
      </trkpt>
      <trkpt lat="45.68594" lon="6.57832">
        <ele>1320</ele>
        <time>2018-02-22T23:18:15Z</time>
      </trkpt>
      <trkpt lat="45.68578" lon="6.57868">
        <ele>1310</ele>
        <time>2018-02-22T23:19:15Z</time>
      </trkpt>
      <trkpt lat="45.6859" lon="6.57904">
        <ele>1315</ele>
        <time>2018-02-22T23:20:15Z</time>
      </trkpt>
      <trkpt lat="45.68609" lon="6.57993">
        <ele>1314</ele>
        <time>2018-02-22T23:21:15Z</time>
      </trkpt>
      <trkpt lat="45.68625" lon="6.58043">
        <ele>1317</ele>
        <time>2018-02-22T23:22:15Z</time>
      </trkpt>
      <trkpt lat="45.68621" lon="6.58052">
        <ele>1315</ele>
        <time>2018-02-22T23:23:15Z</time>
      </trkpt>
      <trkpt lat="45.68609" lon="6.58055">
        <ele>1310</ele>
        <time>2018-02-22T23:24:15Z</time>
      </trkpt>
      <trkpt lat="45.686" lon="6.58022">
        <ele>1307</ele>
        <time>2018-02-22T23:25:15Z</time>
      </trkpt>
      <trkpt lat="45.68583" lon="6.57975">
        <ele>1304</ele>
        <time>2018-02-22T23:26:15Z</time>
      </trkpt>
      <trkpt lat="45.68537" lon="6.57895">
        <ele>1289</ele>
        <time>2018-02-22T23:27:15Z</time>
      </trkpt>
      <trkpt lat="45.68528" lon="6.57854">
        <ele>1285</ele>
        <time>2018-02-22T23:28:15Z</time>
      </trkpt>
      <trkpt lat="45.68511" lon="6.57807">
        <ele>1275</ele>
        <time>2018-02-22T23:29:15Z</time>
      </trkpt>
      <trkpt lat="45.68507" lon="6.57776">
        <ele>1272</ele>
        <time>2018-02-22T23:30:15Z</time>
      </trkpt>
      <trkpt lat="45.68521" lon="6.57716">
        <ele>1270</ele>
        <time>2018-02-22T23:31:15Z</time>
      </trkpt>
      <trkpt lat="45.68539" lon="6.57672">
        <ele>1269</ele>
        <time>2018-02-22T23:32:15Z</time>
      </trkpt>
      <trkpt lat="45.68559" lon="6.57636">
        <ele>1268</ele>
        <time>2018-02-22T23:33:15Z</time>
      </trkpt>
      <trkpt lat="45.68587" lon="6.57595">
        <ele>1268</ele>
        <time>2018-02-22T23:34:15Z</time>
      </trkpt>
      <trkpt lat="45.68604" lon="6.57558">
        <ele>1262</ele>
        <time>2018-02-22T23:35:15Z</time>
      </trkpt>
      <trkpt lat="45.68604" lon="6.57549">
        <ele>1258</ele>
        <time>2018-02-22T23:36:15Z</time>
      </trkpt>
      <trkpt lat="45.68599" lon="6.57547">
        <ele>1255</ele>
        <time>2018-02-22T23:37:15Z</time>
      </trkpt>
      <trkpt lat="45.68582" lon="6.57583">
        <ele>1262</ele>
        <time>2018-02-22T23:38:15Z</time>
      </trkpt>
      <trkpt lat="45.68551" lon="6.57617">
        <ele>1259</ele>
        <time>2018-02-22T23:39:15Z</time>
      </trkpt>
      <trkpt lat="45.68441" lon="6.57703">
        <ele>1228</ele>
        <time>2018-02-22T23:40:15Z</time>
      </trkpt>
      <trkpt lat="45.68427" lon="6.57739">
        <ele>1227</ele>
        <time>2018-02-22T23:41:15Z</time>
      </trkpt>
      <trkpt lat="45.68428" lon="6.57773">
        <ele>1228</ele>
        <time>2018-02-22T23:42:15Z</time>
      </trkpt>
      <trkpt lat="45.6842" lon="6.57782">
        <ele>1223</ele>
        <time>2018-02-22T23:43:15Z</time>
      </trkpt>
      <trkpt lat="45.68416" lon="6.57777">
        <ele>1221</ele>
        <time>2018-02-22T23:44:15Z</time>
      </trkpt>
      <trkpt lat="45.68415" lon="6.57752">
        <ele>1222</ele>
        <time>2018-02-22T23:45:15Z</time>
      </trkpt>
      <trkpt lat="45.68427" lon="6.57682">
        <ele>1219</ele>
        <time>2018-02-22T23:46:15Z</time>
      </trkpt>
      <trkpt lat="45.68451" lon="6.5763">
        <ele>1220</ele>
        <time>2018-02-22T23:47:15Z</time>
      </trkpt>
      <trkpt lat="45.68489" lon="6.57597">
        <ele>1226</ele>
        <time>2018-02-22T23:48:15Z</time>
      </trkpt>
      <trkpt lat="45.68493" lon="6.57581">
        <ele>1223</ele>
        <time>2018-02-22T23:49:15Z</time>
      </trkpt>
      <trkpt lat="45.68483" lon="6.57571">
        <ele>1217</ele>
        <time>2018-02-22T23:50:15Z</time>
      </trkpt>
      <trkpt lat="45.68444" lon="6.57588">
        <ele>1209</ele>
        <time>2018-02-22T23:51:15Z</time>
      </trkpt>
      <trkpt lat="45.68405" lon="6.57636">
        <ele>1202</ele>
        <time>2018-02-22T23:52:15Z</time>
      </trkpt>
      <trkpt lat="45.68347" lon="6.57685">
        <ele>1187</ele>
        <time>2018-02-22T23:53:15Z</time>
      </trkpt>
      <trkpt lat="45.68342" lon="6.57692">
        <ele>1186</ele>
        <time>2018-02-22T23:54:15Z</time>
      </trkpt>
      <trkpt lat="45.68332" lon="6.57715">
        <ele>1185</ele>
        <time>2018-02-22T23:55:15Z</time>
      </trkpt>
      <trkpt lat="45.68328" lon="6.5772">
        <ele>1185</ele>
        <time>2018-02-22T23:56:15Z</time>
      </trkpt>
      <trkpt lat="45.6832" lon="6.57715">
        <ele>1183</ele>
        <time>2018-02-22T23:57:15Z</time>
      </trkpt>
      <trkpt lat="45.68319" lon="6.5771">
        <ele>1182</ele>
        <time>2018-02-22T23:58:15Z</time>
      </trkpt>
      <trkpt lat="45.6832" lon="6.577">
        <ele>1181</ele>
        <time>2018-02-22T23:59:15Z</time>
      </trkpt>
      <trkpt lat="45.68327" lon="6.57682">
        <ele>1180</ele>
        <time>2018-02-23T00:00:15Z</time>
      </trkpt>
      <trkpt lat="45.68368" lon="6.57581">
        <ele>1178</ele>
        <time>2018-02-23T00:01:15Z</time>
      </trkpt>
      <trkpt lat="45.68385" lon="6.57494">
        <ele>1170</ele>
        <time>2018-02-23T00:02:15Z</time>
      </trkpt>
      <trkpt lat="45.68402" lon="6.57464">
        <ele>1168</ele>
        <time>2018-02-23T00:03:15Z</time>
      </trkpt>
      <trkpt lat="45.68425" lon="6.57463">
        <ele>1174</ele>
        <time>2018-02-23T00:04:15Z</time>
      </trkpt>
      <trkpt lat="45.68433" lon="6.57452">
        <ele>1172</ele>
        <time>2018-02-23T00:05:15Z</time>
      </trkpt>
      <trkpt lat="45.68427" lon="6.57441">
        <ele>1168</ele>
        <time>2018-02-23T00:06:15Z</time>
      </trkpt>
      <trkpt lat="45.68377" lon="6.57426">
        <ele>1154</ele>
        <time>2018-02-23T00:07:15Z</time>
      </trkpt>
      <trkpt lat="45.6836" lon="6.57431">
        <ele>1151</ele>
        <time>2018-02-23T00:08:15Z</time>
      </trkpt>
      <trkpt lat="45.68342" lon="6.57454">
        <ele>1150</ele>
        <time>2018-02-23T00:09:15Z</time>
      </trkpt>
      <trkpt lat="45.6833" lon="6.57488">
        <ele>1153</ele>
        <time>2018-02-23T00:10:15Z</time>
      </trkpt>
      <trkpt lat="45.68326" lon="6.57542">
        <ele>1158</ele>
        <time>2018-02-23T00:11:15Z</time>
      </trkpt>
      <trkpt lat="45.68324" lon="6.57548">
        <ele>1158</ele>
        <time>2018-02-23T00:12:15Z</time>
      </trkpt>
      <trkpt lat="45.6832" lon="6.57552">
        <ele>1158</ele>
        <time>2018-02-23T00:13:15Z</time>
      </trkpt>
      <trkpt lat="45.68317" lon="6.57551">
        <ele>1158</ele>
        <time>2018-02-23T00:14:15Z</time>
      </trkpt>
      <trkpt lat="45.68316" lon="6.57537">
        <ele>1156</ele>
        <time>2018-02-23T00:15:15Z</time>
      </trkpt>
      <trkpt lat="45.68316" lon="6.57524">
        <ele>1154</ele>
        <time>2018-02-23T00:16:15Z</time>
      </trkpt>
      <trkpt lat="45.68307" lon="6.57483">
        <ele>1147</ele>
        <time>2018-02-23T00:17:15Z</time>
      </trkpt>
      <trkpt lat="45.68306" lon="6.57465">
        <ele>1144</ele>
        <time>2018-02-23T00:18:15Z</time>
      </trkpt>
      <trkpt lat="45.68308" lon="6.57452">
        <ele>1142</ele>
        <time>2018-02-23T00:19:15Z</time>
      </trkpt>
      <trkpt lat="45.68324" lon="6.57375">
        <ele>1129</ele>
        <time>2018-02-23T00:20:15Z</time>
      </trkpt>
      <trkpt lat="45.68329" lon="6.57363">
        <ele>1126</ele>
        <time>2018-02-23T00:21:15Z</time>
      </trkpt>
      <trkpt lat="45.68346" lon="6.57351">
        <ele>1125</ele>
        <time>2018-02-23T00:22:15Z</time>
      </trkpt>
      <trkpt lat="45.68389" lon="6.57338">
        <ele>1126</ele>
        <time>2018-02-23T00:23:15Z</time>
      </trkpt>
      <trkpt lat="45.68427" lon="6.5733">
        <ele>1127</ele>
        <time>2018-02-23T00:24:15Z</time>
      </trkpt>
      <trkpt lat="45.68448" lon="6.57314">
        <ele>1125</ele>
        <time>2018-02-23T00:25:15Z</time>
      </trkpt>
      <trkpt lat="45.6848" lon="6.57271">
        <ele>1115</ele>
        <time>2018-02-23T00:26:15Z</time>
      </trkpt>
      <trkpt lat="45.6851" lon="6.57253">
        <ele>1113</ele>
        <time>2018-02-23T00:27:15Z</time>
      </trkpt>
      <trkpt lat="45.68515" lon="6.57237">
        <ele>1109</ele>
        <time>2018-02-23T00:28:15Z</time>
      </trkpt>
      <trkpt lat="45.68513" lon="6.57232">
        <ele>1107</ele>
        <time>2018-02-23T00:29:15Z</time>
      </trkpt>
      <trkpt lat="45.68504" lon="6.57225">
        <ele>1105</ele>
        <time>2018-02-23T00:30:15Z</time>
      </trkpt>
      <trkpt lat="45.68498" lon="6.57226">
        <ele>1105</ele>
        <time>2018-02-23T00:31:15Z</time>
      </trkpt>
      <trkpt lat="45.68457" lon="6.57238">
        <ele>1104</ele>
        <time>2018-02-23T00:32:15Z</time>
      </trkpt>
      <trkpt lat="45.68425" lon="6.57259">
        <ele>1107</ele>
        <time>2018-02-23T00:33:15Z</time>
      </trkpt>
      <trkpt lat="45.68387" lon="6.57258">
        <ele>1103</ele>
        <time>2018-02-23T00:34:15Z</time>
      </trkpt>
      <trkpt lat="45.68334" lon="6.57264">
        <ele>1099</ele>
        <time>2018-02-23T00:35:15Z</time>
      </trkpt>
      <trkpt lat="45.68305" lon="6.57283">
        <ele>1105</ele>
        <time>2018-02-23T00:36:15Z</time>
      </trkpt>
      <trkpt lat="45.683" lon="6.57283">
        <ele>1105</ele>
        <time>2018-02-23T00:37:15Z</time>
      </trkpt>
      <trkpt lat="45.68296" lon="6.57276">
        <ele>1104</ele>
        <time>2018-02-23T00:38:15Z</time>
      </trkpt>
      <trkpt lat="45.68299" lon="6.57261">
        <ele>1101</ele>
        <time>2018-02-23T00:39:15Z</time>
      </trkpt>
      <trkpt lat="45.68305" lon="6.57254">
        <ele>1099</ele>
        <time>2018-02-23T00:40:15Z</time>
      </trkpt>
      <trkpt lat="45.6835" lon="6.57231">
        <ele>1095</ele>
        <time>2018-02-23T00:41:15Z</time>
      </trkpt>
      <trkpt lat="45.68424" lon="6.5717">
        <ele>1082</ele>
        <time>2018-02-23T00:42:15Z</time>
      </trkpt>
      <trkpt lat="45.68465" lon="6.57129">
        <ele>1077</ele>
        <time>2018-02-23T00:43:15Z</time>
      </trkpt>
      <trkpt lat="45.68515" lon="6.57099">
        <ele>1073</ele>
        <time>2018-02-23T00:44:15Z</time>
      </trkpt>
      <trkpt lat="45.6853" lon="6.57088">
        <ele>1070</ele>
        <time>2018-02-23T00:45:15Z</time>
      </trkpt>
      <trkpt lat="45.68584" lon="6.57021">
        <ele>1059</ele>
        <time>2018-02-23T00:46:15Z</time>
      </trkpt>
      <trkpt lat="45.68595" lon="6.57015">
        <ele>1058</ele>
        <time>2018-02-23T00:47:15Z</time>
      </trkpt>
      <trkpt lat="45.68602" lon="6.57014">
        <ele>1057</ele>
        <time>2018-02-23T00:48:15Z</time>
      </trkpt>
      <trkpt lat="45.68619" lon="6.57021">
        <ele>1058</ele>
        <time>2018-02-23T00:49:15Z</time>
      </trkpt>
      <trkpt lat="45.68628" lon="6.57022">
        <ele>1058</ele>
        <time>2018-02-23T00:50:15Z</time>
      </trkpt>
      <trkpt lat="45.68633" lon="6.5702">
        <ele>1057</ele>
        <time>2018-02-23T00:51:15Z</time>
      </trkpt>
      <trkpt lat="45.68636" lon="6.57013">
        <ele>1056</ele>
        <time>2018-02-23T00:52:15Z</time>
      </trkpt>
      <trkpt lat="45.68637" lon="6.57003">
        <ele>1054</ele>
        <time>2018-02-23T00:53:15Z</time>
      </trkpt>
      <trkpt lat="45.68632" lon="6.56994">
        <ele>1052</ele>
        <time>2018-02-23T00:54:15Z</time>
      </trkpt>
      <trkpt lat="45.68611" lon="6.56989">
        <ele>1052</ele>
        <time>2018-02-23T00:55:15Z</time>
      </trkpt>
      <trkpt lat="45.68591" lon="6.56976">
        <ele>1051</ele>
        <time>2018-02-23T00:56:15Z</time>
      </trkpt>
      <trkpt lat="45.68574" lon="6.56973">
        <ele>1051</ele>
        <time>2018-02-23T00:57:15Z</time>
      </trkpt>
      <trkpt lat="45.6856" lon="6.56974">
        <ele>1052</ele>
        <time>2018-02-23T00:58:15Z</time>
      </trkpt>
      <trkpt lat="45.6855" lon="6.56968">
        <ele>1051</ele>
        <time>2018-02-23T00:59:15Z</time>
      </trkpt>
      <trkpt lat="45.68543" lon="6.56928">
        <ele>1046</ele>
        <time>2018-02-23T01:00:15Z</time>
      </trkpt>
      <trkpt lat="45.68534" lon="6.56899">
        <ele>1044</ele>
        <time>2018-02-23T01:01:15Z</time>
      </trkpt>
      <trkpt lat="45.68537" lon="6.56881">
        <ele>1042</ele>
        <time>2018-02-23T01:02:15Z</time>
      </trkpt>
      <trkpt lat="45.68544" lon="6.56878">
        <ele>1041</ele>
        <time>2018-02-23T01:03:15Z</time>
      </trkpt>
      <trkpt lat="45.68581" lon="6.56888">
        <ele>1040</ele>
        <time>2018-02-23T01:04:15Z</time>
      </trkpt>
      <trkpt lat="45.68619" lon="6.56877">
        <ele>1038</ele>
        <time>2018-02-23T01:05:15Z</time>
      </trkpt>
      <trkpt lat="45.68687" lon="6.56893">
        <ele>1036</ele>
        <time>2018-02-23T01:06:15Z</time>
      </trkpt>
      <trkpt lat="45.68685" lon="6.5694">
        <ele>1042</ele>
        <time>2018-02-23T01:07:15Z</time>
      </trkpt>
      <trkpt lat="45.68685" lon="6.5694">
        <ele>1042</ele>
        <time>2018-02-23T01:08:15Z</time>
      </trkpt>
      <trkpt lat="45.68687" lon="6.56893">
        <ele>1036</ele>
        <time>2018-02-23T01:09:15Z</time>
      </trkpt>
      <trkpt lat="45.68698" lon="6.56895">
        <ele>1036</ele>
        <time>2018-02-23T01:10:15Z</time>
      </trkpt>
      <trkpt lat="45.68782" lon="6.5688">
        <ele>1033</ele>
        <time>2018-02-23T01:11:15Z</time>
      </trkpt>
      <trkpt lat="45.68851" lon="6.56865">
        <ele>1033</ele>
        <time>2018-02-23T01:12:15Z</time>
      </trkpt>
      <trkpt lat="45.68972" lon="6.56837">
        <ele>1031</ele>
        <time>2018-02-23T01:13:15Z</time>
      </trkpt>
      <trkpt lat="45.69048" lon="6.56812">
        <ele>1029</ele>
        <time>2018-02-23T01:14:15Z</time>
      </trkpt>
      <trkpt lat="45.69092" lon="6.56807">
        <ele>1029</ele>
        <time>2018-02-23T01:15:15Z</time>
      </trkpt>
      <trkpt lat="45.69132" lon="6.56813">
        <ele>1031</ele>
        <time>2018-02-23T01:16:15Z</time>
      </trkpt>
      <trkpt lat="45.69152" lon="6.56808">
        <ele>1030</ele>
        <time>2018-02-23T01:17:15Z</time>
      </trkpt>
      <trkpt lat="45.69206" lon="6.56768">
        <ele>1025</ele>
        <time>2018-02-23T01:18:15Z</time>
      </trkpt>
      <trkpt lat="45.69266" lon="6.56741">
        <ele>1025</ele>
        <time>2018-02-23T01:19:15Z</time>
      </trkpt>
      <trkpt lat="45.69294" lon="6.56724">
        <ele>1022</ele>
        <time>2018-02-23T01:20:15Z</time>
      </trkpt>
      <trkpt lat="45.69314" lon="6.56715">
        <ele>1020</ele>
        <time>2018-02-23T01:21:15Z</time>
      </trkpt>
      <trkpt lat="45.69328" lon="6.56713">
        <ele>1020</ele>
        <time>2018-02-23T01:22:15Z</time>
      </trkpt>
      <trkpt lat="45.6935" lon="6.56713">
        <ele>1021</ele>
        <time>2018-02-23T01:23:15Z</time>
      </trkpt>
      <trkpt lat="45.69417" lon="6.56723">
        <ele>1025</ele>
        <time>2018-02-23T01:24:15Z</time>
      </trkpt>
      <trkpt lat="45.69437" lon="6.56729">
        <ele>1025</ele>
        <time>2018-02-23T01:25:15Z</time>
      </trkpt>
      <trkpt lat="45.69466" lon="6.56753">
        <ele>1028</ele>
        <time>2018-02-23T01:26:15Z</time>
      </trkpt>
      <trkpt lat="45.69478" lon="6.56757">
        <ele>1028</ele>
        <time>2018-02-23T01:27:15Z</time>
      </trkpt>
      <trkpt lat="45.6949" lon="6.56756">
        <ele>1027</ele>
        <time>2018-02-23T01:28:15Z</time>
      </trkpt>
      <trkpt lat="45.69502" lon="6.56752">
        <ele>1025</ele>
        <time>2018-02-23T01:29:15Z</time>
      </trkpt>
      <trkpt lat="45.69542" lon="6.56731">
        <ele>1019</ele>
        <time>2018-02-23T01:30:15Z</time>
      </trkpt>
      <trkpt lat="45.69566" lon="6.56721">
        <ele>1017</ele>
        <time>2018-02-23T01:31:15Z</time>
      </trkpt>
      <trkpt lat="45.69598" lon="6.56703">
        <ele>1014</ele>
        <time>2018-02-23T01:32:15Z</time>
      </trkpt>
      <trkpt lat="45.69654" lon="6.56666">
        <ele>1007</ele>
        <time>2018-02-23T01:33:15Z</time>
      </trkpt>
      <trkpt lat="45.69683" lon="6.56653">
        <ele>1005</ele>
        <time>2018-02-23T01:34:15Z</time>
      </trkpt>
      <trkpt lat="45.69745" lon="6.56638">
        <ele>1003</ele>
        <time>2018-02-23T01:35:15Z</time>
      </trkpt>
      <trkpt lat="45.69772" lon="6.56636">
        <ele>1002</ele>
        <time>2018-02-23T01:36:15Z</time>
      </trkpt>
      <trkpt lat="45.69791" lon="6.56639">
        <ele>1001</ele>
        <time>2018-02-23T01:37:15Z</time>
      </trkpt>
      <trkpt lat="45.69819" lon="6.56647">
        <ele>999</ele>
        <time>2018-02-23T01:38:15Z</time>
      </trkpt>
      <trkpt lat="45.69909" lon="6.5665">
        <ele>992</ele>
        <time>2018-02-23T01:39:15Z</time>
      </trkpt>
      <trkpt lat="45.69987" lon="6.56669">
        <ele>984</ele>
        <time>2018-02-23T01:40:15Z</time>
      </trkpt>
      <trkpt lat="45.70136" lon="6.5671">
        <ele>973</ele>
        <time>2018-02-23T01:41:15Z</time>
      </trkpt>
      <trkpt lat="45.70186" lon="6.56711">
        <ele>967</ele>
        <time>2018-02-23T01:42:15Z</time>
      </trkpt>
      <trkpt lat="45.70207" lon="6.56717">
        <ele>966</ele>
        <time>2018-02-23T01:43:15Z</time>
      </trkpt>
      <trkpt lat="45.7022" lon="6.56726">
        <ele>967</ele>
        <time>2018-02-23T01:44:15Z</time>
      </trkpt>
      <trkpt lat="45.7026" lon="6.56744">
        <ele>965</ele>
        <time>2018-02-23T01:45:15Z</time>
      </trkpt>
      <trkpt lat="45.70329" lon="6.56764">
        <ele>960</ele>
        <time>2018-02-23T01:46:15Z</time>
      </trkpt>
      <trkpt lat="45.70391" lon="6.56774">
        <ele>956</ele>
        <time>2018-02-23T01:47:15Z</time>
      </trkpt>
      <trkpt lat="45.70444" lon="6.56797">
        <ele>952</ele>
        <time>2018-02-23T01:48:15Z</time>
      </trkpt>
      <trkpt lat="45.70521" lon="6.56846">
        <ele>946</ele>
        <time>2018-02-23T01:49:15Z</time>
      </trkpt>
      <trkpt lat="45.70535" lon="6.5685">
        <ele>946</ele>
        <time>2018-02-23T01:50:15Z</time>
      </trkpt>
      <trkpt lat="45.70552" lon="6.56849">
        <ele>943</ele>
        <time>2018-02-23T01:51:15Z</time>
      </trkpt>
      <trkpt lat="45.70605" lon="6.56836">
        <ele>935</ele>
        <time>2018-02-23T01:52:15Z</time>
      </trkpt>
      <trkpt lat="45.7065" lon="6.56821">
        <ele>932</ele>
        <time>2018-02-23T01:53:15Z</time>
      </trkpt>
      <trkpt lat="45.70718" lon="6.56819">
        <ele>924</ele>
        <time>2018-02-23T01:54:15Z</time>
      </trkpt>
      <trkpt lat="45.70733" lon="6.56827">
        <ele>925</ele>
        <time>2018-02-23T01:55:15Z</time>
      </trkpt>
      <trkpt lat="45.70754" lon="6.56842">
        <ele>925</ele>
        <time>2018-02-23T01:56:15Z</time>
      </trkpt>
      <trkpt lat="45.70863" lon="6.56955">
        <ele>913</ele>
        <time>2018-02-23T01:57:15Z</time>
      </trkpt>
      <trkpt lat="45.70886" lon="6.56984">
        <ele>909</ele>
        <time>2018-02-23T01:58:15Z</time>
      </trkpt>
      <trkpt lat="45.709" lon="6.57013">
        <ele>908</ele>
        <time>2018-02-23T01:59:15Z</time>
      </trkpt>
      <trkpt lat="45.70911" lon="6.57046">
        <ele>909</ele>
        <time>2018-02-23T02:00:15Z</time>
      </trkpt>
      <trkpt lat="45.70925" lon="6.57072">
        <ele>907</ele>
        <time>2018-02-23T02:01:15Z</time>
      </trkpt>
      <trkpt lat="45.70944" lon="6.57094">
        <ele>907</ele>
        <time>2018-02-23T02:02:15Z</time>
      </trkpt>
      <trkpt lat="45.70984" lon="6.57124">
        <ele>904</ele>
        <time>2018-02-23T02:03:15Z</time>
      </trkpt>
      <trkpt lat="45.71024" lon="6.57158">
        <ele>899</ele>
        <time>2018-02-23T02:04:15Z</time>
      </trkpt>
      <trkpt lat="45.71032" lon="6.57162">
        <ele>897</ele>
        <time>2018-02-23T02:05:15Z</time>
      </trkpt>
      <trkpt lat="45.71038" lon="6.57155">
        <ele>893</ele>
        <time>2018-02-23T02:06:15Z</time>
      </trkpt>
      <trkpt lat="45.71038" lon="6.57146">
        <ele>891</ele>
        <time>2018-02-23T02:07:15Z</time>
      </trkpt>
      <trkpt lat="45.71032" lon="6.57136">
        <ele>891</ele>
        <time>2018-02-23T02:08:15Z</time>
      </trkpt>
      <trkpt lat="45.71006" lon="6.57108">
        <ele>893</ele>
        <time>2018-02-23T02:09:15Z</time>
      </trkpt>
      <trkpt lat="45.70995" lon="6.57087">
        <ele>891</ele>
        <time>2018-02-23T02:10:15Z</time>
      </trkpt>
      <trkpt lat="45.70987" lon="6.57061">
        <ele>890</ele>
        <time>2018-02-23T02:11:15Z</time>
      </trkpt>
      <trkpt lat="45.70985" lon="6.5702">
        <ele>885</ele>
        <time>2018-02-23T02:12:15Z</time>
      </trkpt>
      <trkpt lat="45.70986" lon="6.56995">
        <ele>882</ele>
        <time>2018-02-23T02:13:15Z</time>
      </trkpt>
      <trkpt lat="45.70988" lon="6.56965">
        <ele>879</ele>
        <time>2018-02-23T02:14:15Z</time>
      </trkpt>
      <trkpt lat="45.70988" lon="6.5694">
        <ele>877</ele>
        <time>2018-02-23T02:15:15Z</time>
      </trkpt>
      <trkpt lat="45.70984" lon="6.56916">
        <ele>876</ele>
        <time>2018-02-23T02:16:15Z</time>
      </trkpt>
      <trkpt lat="45.7097" lon="6.56874">
        <ele>872</ele>
        <time>2018-02-23T02:17:15Z</time>
      </trkpt>
      <trkpt lat="45.7097" lon="6.56864">
        <ele>870</ele>
        <time>2018-02-23T02:18:15Z</time>
      </trkpt>
      <trkpt lat="45.70971" lon="6.56856">
        <ele>868</ele>
        <time>2018-02-23T02:19:15Z</time>
      </trkpt>
      <trkpt lat="45.70974" lon="6.56852">
        <ele>866</ele>
        <time>2018-02-23T02:20:15Z</time>
      </trkpt>
      <trkpt lat="45.70982" lon="6.5685">
        <ele>863</ele>
        <time>2018-02-23T02:21:15Z</time>
      </trkpt>
      <trkpt lat="45.70988" lon="6.56857">
        <ele>863</ele>
        <time>2018-02-23T02:22:15Z</time>
      </trkpt>
      <trkpt lat="45.70999" lon="6.56896">
        <ele>868</ele>
        <time>2018-02-23T02:23:15Z</time>
      </trkpt>
      <trkpt lat="45.71021" lon="6.56934">
        <ele>868</ele>
        <time>2018-02-23T02:24:15Z</time>
      </trkpt>
      <trkpt lat="45.71094" lon="6.57042">
        <ele>857</ele>
        <time>2018-02-23T02:25:15Z</time>
      </trkpt>
      <trkpt lat="45.71129" lon="6.57102">
        <ele>852</ele>
        <time>2018-02-23T02:26:15Z</time>
      </trkpt>
      <trkpt lat="45.71155" lon="6.57134">
        <ele>849</ele>
        <time>2018-02-23T02:27:15Z</time>
      </trkpt>
      <trkpt lat="45.71168" lon="6.57152">
        <ele>847</ele>
        <time>2018-02-23T02:28:15Z</time>
      </trkpt>
      <trkpt lat="45.71176" lon="6.57172">
        <ele>848</ele>
        <time>2018-02-23T02:29:15Z</time>
      </trkpt>
      <trkpt lat="45.71185" lon="6.57199">
        <ele>852</ele>
        <time>2018-02-23T02:30:15Z</time>
      </trkpt>
      <trkpt lat="45.71196" lon="6.57202">
        <ele>849</ele>
        <time>2018-02-23T02:31:15Z</time>
      </trkpt>
      <trkpt lat="45.71199" lon="6.57191">
        <ele>846</ele>
        <time>2018-02-23T02:32:15Z</time>
      </trkpt>
      <trkpt lat="45.71198" lon="6.57179">
        <ele>844</ele>
        <time>2018-02-23T02:33:15Z</time>
      </trkpt>
      <trkpt lat="45.71178" lon="6.57123">
        <ele>841</ele>
        <time>2018-02-23T02:34:15Z</time>
      </trkpt>
      <trkpt lat="45.71176" lon="6.5711">
        <ele>840</ele>
        <time>2018-02-23T02:35:15Z</time>
      </trkpt>
      <trkpt lat="45.7118" lon="6.57101">
        <ele>838</ele>
        <time>2018-02-23T02:36:15Z</time>
      </trkpt>
      <trkpt lat="45.7119" lon="6.57097">
        <ele>835</ele>
        <time>2018-02-23T02:37:15Z</time>
      </trkpt>
      <trkpt lat="45.71203" lon="6.57112">
        <ele>834</ele>
        <time>2018-02-23T02:38:15Z</time>
      </trkpt>
      <trkpt lat="45.71241" lon="6.57182">
        <ele>833</ele>
        <time>2018-02-23T02:39:15Z</time>
      </trkpt>
      <trkpt lat="45.71253" lon="6.57219">
        <ele>830</ele>
        <time>2018-02-23T02:40:15Z</time>
      </trkpt>
      <trkpt lat="45.71265" lon="6.57243">
        <ele>828</ele>
        <time>2018-02-23T02:41:15Z</time>
      </trkpt>
      <trkpt lat="45.71292" lon="6.57277">
        <ele>824</ele>
        <time>2018-02-23T02:42:15Z</time>
      </trkpt>
      <trkpt lat="45.71302" lon="6.57301">
        <ele>822</ele>
        <time>2018-02-23T02:43:15Z</time>
      </trkpt>
      <trkpt lat="45.71308" lon="6.57323">
        <ele>821</ele>
        <time>2018-02-23T02:44:15Z</time>
      </trkpt>
      <trkpt lat="45.71312" lon="6.57346">
        <ele>821</ele>
        <time>2018-02-23T02:45:15Z</time>
      </trkpt>
      <trkpt lat="45.71319" lon="6.57486">
        <ele>827</ele>
        <time>2018-02-23T02:46:15Z</time>
      </trkpt>
      <trkpt lat="45.71324" lon="6.57508">
        <ele>825</ele>
        <time>2018-02-23T02:47:15Z</time>
      </trkpt>
      <trkpt lat="45.71331" lon="6.57525">
        <ele>821</ele>
        <time>2018-02-23T02:48:15Z</time>
      </trkpt>
      <trkpt lat="45.7134" lon="6.57538">
        <ele>819</ele>
        <time>2018-02-23T02:49:15Z</time>
      </trkpt>
      <trkpt lat="45.71356" lon="6.57545">
        <ele>815</ele>
        <time>2018-02-23T02:50:15Z</time>
      </trkpt>
      <trkpt lat="45.71371" lon="6.57536">
        <ele>812</ele>
        <time>2018-02-23T02:51:15Z</time>
      </trkpt>
      <trkpt lat="45.714" lon="6.57496">
        <ele>807</ele>
        <time>2018-02-23T02:52:15Z</time>
      </trkpt>
      <trkpt lat="45.71454" lon="6.57406">
        <ele>803</ele>
        <time>2018-02-23T02:53:15Z</time>
      </trkpt>
      <trkpt lat="45.71462" lon="6.57377">
        <ele>798</ele>
        <time>2018-02-23T02:54:15Z</time>
      </trkpt>
      <trkpt lat="45.71461" lon="6.5735">
        <ele>795</ele>
        <time>2018-02-23T02:55:15Z</time>
      </trkpt>
      <trkpt lat="45.7146" lon="6.57334">
        <ele>794</ele>
        <time>2018-02-23T02:56:15Z</time>
      </trkpt>
      <trkpt lat="45.71445" lon="6.57265">
        <ele>790</ele>
        <time>2018-02-23T02:57:15Z</time>
      </trkpt>
      <trkpt lat="45.71445" lon="6.57244">
        <ele>787</ele>
        <time>2018-02-23T02:58:15Z</time>
      </trkpt>
      <trkpt lat="45.71452" lon="6.57236">
        <ele>785</ele>
        <time>2018-02-23T02:59:15Z</time>
      </trkpt>
      <trkpt lat="45.71456" lon="6.57236">
        <ele>784</ele>
        <time>2018-02-23T03:00:15Z</time>
      </trkpt>
      <trkpt lat="45.71461" lon="6.5724">
        <ele>784</ele>
        <time>2018-02-23T03:01:15Z</time>
      </trkpt>
      <trkpt lat="45.71471" lon="6.57253">
        <ele>784</ele>
        <time>2018-02-23T03:02:15Z</time>
      </trkpt>
      <trkpt lat="45.71517" lon="6.57319">
        <ele>779</ele>
        <time>2018-02-23T03:03:15Z</time>
      </trkpt>
      <trkpt lat="45.71523" lon="6.57329">
        <ele>778</ele>
        <time>2018-02-23T03:04:15Z</time>
      </trkpt>
      <trkpt lat="45.71534" lon="6.5736">
        <ele>780</ele>
        <time>2018-02-23T03:05:15Z</time>
      </trkpt>
      <trkpt lat="45.71538" lon="6.57363">
        <ele>779</ele>
        <time>2018-02-23T03:06:15Z</time>
      </trkpt>
      <trkpt lat="45.71543" lon="6.57362">
        <ele>777</ele>
        <time>2018-02-23T03:07:15Z</time>
      </trkpt>
      <trkpt lat="45.71546" lon="6.57358">
        <ele>775</ele>
        <time>2018-02-23T03:08:15Z</time>
      </trkpt>
      <trkpt lat="45.71548" lon="6.57352">
        <ele>774</ele>
        <time>2018-02-23T03:09:15Z</time>
      </trkpt>
      <trkpt lat="45.71546" lon="6.57335">
        <ele>772</ele>
        <time>2018-02-23T03:10:15Z</time>
      </trkpt>
      <trkpt lat="45.71525" lon="6.57231">
        <ele>767</ele>
        <time>2018-02-23T03:11:15Z</time>
      </trkpt>
      <trkpt lat="45.71525" lon="6.57225">
        <ele>766</ele>
        <time>2018-02-23T03:12:15Z</time>
      </trkpt>
      <trkpt lat="45.7153" lon="6.57217">
        <ele>763</ele>
        <time>2018-02-23T03:13:15Z</time>
      </trkpt>
      <trkpt lat="45.71535" lon="6.57218">
        <ele>762</ele>
        <time>2018-02-23T03:14:15Z</time>
      </trkpt>
      <trkpt lat="45.71538" lon="6.57222">
        <ele>762</ele>
        <time>2018-02-23T03:15:15Z</time>
      </trkpt>
      <trkpt lat="45.71562" lon="6.57309">
        <ele>764</ele>
        <time>2018-02-23T03:16:15Z</time>
      </trkpt>
      <trkpt lat="45.7157" lon="6.57326">
        <ele>763</ele>
        <time>2018-02-23T03:17:15Z</time>
      </trkpt>
      <trkpt lat="45.71576" lon="6.5733">
        <ele>762</ele>
        <time>2018-02-23T03:18:15Z</time>
      </trkpt>
      <trkpt lat="45.71582" lon="6.57327">
        <ele>760</ele>
        <time>2018-02-23T03:19:15Z</time>
      </trkpt>
      <trkpt lat="45.71585" lon="6.5732">
        <ele>758</ele>
        <time>2018-02-23T03:20:15Z</time>
      </trkpt>
      <trkpt lat="45.71584" lon="6.57313">
        <ele>758</ele>
        <time>2018-02-23T03:21:15Z</time>
      </trkpt>
      <trkpt lat="45.71566" lon="6.57289">
        <ele>761</ele>
        <time>2018-02-23T03:22:15Z</time>
      </trkpt>
      <trkpt lat="45.71561" lon="6.57275">
        <ele>761</ele>
        <time>2018-02-23T03:23:15Z</time>
      </trkpt>
      <trkpt lat="45.71561" lon="6.57266">
        <ele>761</ele>
        <time>2018-02-23T03:24:15Z</time>
      </trkpt>
      <trkpt lat="45.71565" lon="6.5726">
        <ele>759</ele>
        <time>2018-02-23T03:25:15Z</time>
      </trkpt>
      <trkpt lat="45.7157" lon="6.57258">
        <ele>757</ele>
        <time>2018-02-23T03:26:15Z</time>
      </trkpt>
      <trkpt lat="45.71575" lon="6.5726">
        <ele>756</ele>
        <time>2018-02-23T03:27:15Z</time>
      </trkpt>
      <trkpt lat="45.71583" lon="6.57272">
        <ele>754</ele>
        <time>2018-02-23T03:28:15Z</time>
      </trkpt>
      <trkpt lat="45.7159" lon="6.57291">
        <ele>755</ele>
        <time>2018-02-23T03:29:15Z</time>
      </trkpt>
      <trkpt lat="45.71689" lon="6.57413">
        <ele>752</ele>
        <time>2018-02-23T03:30:15Z</time>
      </trkpt>
      <trkpt lat="45.71702" lon="6.57423">
        <ele>750</ele>
        <time>2018-02-23T03:31:15Z</time>
      </trkpt>
      <trkpt lat="45.71712" lon="6.57436">
        <ele>749</ele>
        <time>2018-02-23T03:32:15Z</time>
      </trkpt>
      <trkpt lat="45.71718" lon="6.57451">
        <ele>749</ele>
        <time>2018-02-23T03:33:15Z</time>
      </trkpt>
      <trkpt lat="45.71726" lon="6.57456">
        <ele>747</ele>
        <time>2018-02-23T03:34:15Z</time>
      </trkpt>
      <trkpt lat="45.71751" lon="6.57454">
        <ele>743</ele>
        <time>2018-02-23T03:35:15Z</time>
      </trkpt>
      <trkpt lat="45.71762" lon="6.57469">
        <ele>743</ele>
        <time>2018-02-23T03:36:15Z</time>
      </trkpt>
      <trkpt lat="45.7179" lon="6.57522">
        <ele>744</ele>
        <time>2018-02-23T03:37:15Z</time>
      </trkpt>
      <trkpt lat="45.71813" lon="6.57493">
        <ele>741</ele>
        <time>2018-02-23T03:38:15Z</time>
      </trkpt>
      <trkpt lat="45.71866" lon="6.57416">
        <ele>737</ele>
        <time>2018-02-23T03:39:15Z</time>
      </trkpt>
      <trkpt lat="45.71882" lon="6.57407">
        <ele>737</ele>
        <time>2018-02-23T03:40:15Z</time>
      </trkpt>
      <trkpt lat="45.71886" lon="6.57407">
        <ele>737</ele>
        <time>2018-02-23T03:41:15Z</time>
      </trkpt>
      <trkpt lat="45.7189" lon="6.57403">
        <ele>737</ele>
        <time>2018-02-23T03:42:15Z</time>
      </trkpt>
      <trkpt lat="45.71892" lon="6.57395">
        <ele>737</ele>
        <time>2018-02-23T03:43:15Z</time>
      </trkpt>
      <trkpt lat="45.71905" lon="6.57381">
        <ele>736</ele>
        <time>2018-02-23T03:44:15Z</time>
      </trkpt>
      <trkpt lat="45.7194" lon="6.57333">
        <ele>735</ele>
        <time>2018-02-23T03:45:15Z</time>
      </trkpt>
      <trkpt lat="45.71967" lon="6.57281">
        <ele>734</ele>
        <time>2018-02-23T03:46:15Z</time>
      </trkpt>
      <trkpt lat="45.71987" lon="6.57239">
        <ele>731</ele>
        <time>2018-02-23T03:47:15Z</time>
      </trkpt>
      <trkpt lat="45.72001" lon="6.57228">
        <ele>731</ele>
        <time>2018-02-23T03:48:15Z</time>
      </trkpt>
      <trkpt lat="45.72005" lon="6.57223">
        <ele>732</ele>
        <time>2018-02-23T03:49:15Z</time>
      </trkpt>
      <trkpt lat="45.72007" lon="6.57219">
        <ele>733</ele>
        <time>2018-02-23T03:50:15Z</time>
      </trkpt>
      <trkpt lat="45.72007" lon="6.57215">
        <ele>733</ele>
        <time>2018-02-23T03:51:15Z</time>
      </trkpt>
      <trkpt lat="45.72005" lon="6.57206">
        <ele>732</ele>
        <time>2018-02-23T03:52:15Z</time>
      </trkpt>
      <trkpt lat="45.72002" lon="6.57203">
        <ele>731</ele>
        <time>2018-02-23T03:53:15Z</time>
      </trkpt>
      <trkpt lat="45.71991" lon="6.56986">
        <ele>725</ele>
        <time>2018-02-23T03:54:15Z</time>
      </trkpt>
      <trkpt lat="45.71976" lon="6.56783">
        <ele>728</ele>
        <time>2018-02-23T03:55:15Z</time>
      </trkpt>
      <trkpt lat="45.71965" lon="6.56606">
        <ele>728</ele>
        <time>2018-02-23T03:56:15Z</time>
      </trkpt>
      <trkpt lat="45.71974" lon="6.5656">
        <ele>729</ele>
        <time>2018-02-23T03:57:15Z</time>
      </trkpt>
      <trkpt lat="45.71973" lon="6.56544">
        <ele>729</ele>
        <time>2018-02-23T03:58:15Z</time>
      </trkpt>
      <trkpt lat="45.71969" lon="6.56521">
        <ele>729</ele>
        <time>2018-02-23T03:59:15Z</time>
      </trkpt>
      <trkpt lat="45.7196" lon="6.56488">
        <ele>727</ele>
        <time>2018-02-23T04:00:15Z</time>
      </trkpt>
      <trkpt lat="45.71953" lon="6.56405">
        <ele>723</ele>
        <time>2018-02-23T04:01:15Z</time>
      </trkpt>
      <trkpt lat="45.71955" lon="6.56353">
        <ele>720</ele>
        <time>2018-02-23T04:02:15Z</time>
      </trkpt>
      <trkpt lat="45.7196" lon="6.56306">
        <ele>718</ele>
        <time>2018-02-23T04:03:15Z</time>
      </trkpt>
      <trkpt lat="45.71974" lon="6.56242">
        <ele>714</ele>
        <time>2018-02-23T04:04:15Z</time>
      </trkpt>
      <trkpt lat="45.72042" lon="6.56066">
        <ele>712</ele>
        <time>2018-02-23T04:05:15Z</time>
      </trkpt>
      <trkpt lat="45.72076" lon="6.55971">
        <ele>707</ele>
        <time>2018-02-23T04:06:15Z</time>
      </trkpt>
      <trkpt lat="45.72145" lon="6.55799">
        <ele>705</ele>
        <time>2018-02-23T04:07:15Z</time>
      </trkpt>
      <trkpt lat="45.72184" lon="6.55727">
        <ele>705</ele>
        <time>2018-02-23T04:08:15Z</time>
      </trkpt>
      <trkpt lat="45.72461" lon="6.55288">
        <ele>698</ele>
        <time>2018-02-23T04:09:15Z</time>
      </trkpt>
      <trkpt lat="45.72497" lon="6.5523">
        <ele>696</ele>
        <time>2018-02-23T04:10:15Z</time>
      </trkpt>
      <trkpt lat="45.72526" lon="6.55165">
        <ele>698</ele>
        <time>2018-02-23T04:11:15Z</time>
      </trkpt>
      <trkpt lat="45.72552" lon="6.55089">
        <ele>698</ele>
        <time>2018-02-23T04:12:15Z</time>
      </trkpt>
      <trkpt lat="45.72567" lon="6.55015">
        <ele>697</ele>
        <time>2018-02-23T04:13:15Z</time>
      </trkpt>
      <trkpt lat="45.72577" lon="6.54933">
        <ele>698</ele>
        <time>2018-02-23T04:14:15Z</time>
      </trkpt>
      <trkpt lat="45.72584" lon="6.54851">
        <ele>701</ele>
        <time>2018-02-23T04:15:15Z</time>
      </trkpt>
      <trkpt lat="45.72593" lon="6.54768">
        <ele>704</ele>
        <time>2018-02-23T04:16:15Z</time>
      </trkpt>
      <trkpt lat="45.72604" lon="6.54732">
        <ele>704</ele>
        <time>2018-02-23T04:17:15Z</time>
      </trkpt>
      <trkpt lat="45.72647" lon="6.54659">
        <ele>703</ele>
        <time>2018-02-23T04:18:15Z</time>
      </trkpt>
      <trkpt lat="45.72674" lon="6.546">
        <ele>709</ele>
        <time>2018-02-23T04:19:15Z</time>
      </trkpt>
      <trkpt lat="45.72683" lon="6.54561">
        <ele>715</ele>
        <time>2018-02-23T04:20:15Z</time>
      </trkpt>
      <trkpt lat="45.72686" lon="6.54517">
        <ele>718</ele>
        <time>2018-02-23T04:21:15Z</time>
      </trkpt>
      <trkpt lat="45.72683" lon="6.54472">
        <ele>718</ele>
        <time>2018-02-23T04:22:15Z</time>
      </trkpt>
      <trkpt lat="45.72676" lon="6.5442">
        <ele>716</ele>
        <time>2018-02-23T04:23:15Z</time>
      </trkpt>
      <trkpt lat="45.72657" lon="6.54328">
        <ele>711</ele>
        <time>2018-02-23T04:24:15Z</time>
      </trkpt>
      <trkpt lat="45.72636" lon="6.54273">
        <ele>711</ele>
        <time>2018-02-23T04:25:15Z</time>
      </trkpt>
      <trkpt lat="45.72619" lon="6.54242">
        <ele>709</ele>
        <time>2018-02-23T04:26:15Z</time>
      </trkpt>
      <trkpt lat="45.72549" lon="6.5413">
        <ele>703</ele>
        <time>2018-02-23T04:27:15Z</time>
      </trkpt>
      <trkpt lat="45.72534" lon="6.54095">
        <ele>704</ele>
        <time>2018-02-23T04:28:15Z</time>
      </trkpt>
      <trkpt lat="45.72525" lon="6.54056">
        <ele>705</ele>
        <time>2018-02-23T04:29:15Z</time>
      </trkpt>
      <trkpt lat="45.72515" lon="6.53921">
        <ele>707</ele>
        <time>2018-02-23T04:30:15Z</time>
      </trkpt>
      <trkpt lat="45.72517" lon="6.53819">
        <ele>711</ele>
        <time>2018-02-23T04:31:15Z</time>
      </trkpt>
      <trkpt lat="45.72561" lon="6.53682">
        <ele>713</ele>
        <time>2018-02-23T04:32:15Z</time>
      </trkpt>
      <trkpt lat="45.7259" lon="6.53608">
        <ele>713</ele>
        <time>2018-02-23T04:33:15Z</time>
      </trkpt>
      <trkpt lat="45.72648" lon="6.53533">
        <ele>716</ele>
        <time>2018-02-23T04:34:15Z</time>
      </trkpt>
      <trkpt lat="45.72658" lon="6.53511">
        <ele>716</ele>
        <time>2018-02-23T04:35:15Z</time>
      </trkpt>
      <trkpt lat="45.72668" lon="6.53481">
        <ele>716</ele>
        <time>2018-02-23T04:36:15Z</time>
      </trkpt>
      <trkpt lat="45.72675" lon="6.53445">
        <ele>715</ele>
        <time>2018-02-23T04:37:15Z</time>
      </trkpt>
      <trkpt lat="45.72693" lon="6.53327">
        <ele>710</ele>
        <time>2018-02-23T04:38:15Z</time>
      </trkpt>
      <trkpt lat="45.7269" lon="6.53269">
        <ele>709</ele>
        <time>2018-02-23T04:39:15Z</time>
      </trkpt>
      <trkpt lat="45.72674" lon="6.53213">
        <ele>708</ele>
        <time>2018-02-23T04:40:15Z</time>
      </trkpt>
      <trkpt lat="45.7266" lon="6.53181">
        <ele>707</ele>
        <time>2018-02-23T04:41:15Z</time>
      </trkpt>
      <trkpt lat="45.72625" lon="6.53125">
        <ele>705</ele>
        <time>2018-02-23T04:42:15Z</time>
      </trkpt>
      <trkpt lat="45.72594" lon="6.53038">
        <ele>703</ele>
        <time>2018-02-23T04:43:15Z</time>
      </trkpt>
      <trkpt lat="45.72523" lon="6.52903">
        <ele>696</ele>
        <time>2018-02-23T04:44:15Z</time>
      </trkpt>
      <trkpt lat="45.72488" lon="6.52816">
        <ele>694</ele>
        <time>2018-02-23T04:45:15Z</time>
      </trkpt>
      <trkpt lat="45.7246" lon="6.52735">
        <ele>693</ele>
        <time>2018-02-23T04:46:15Z</time>
      </trkpt>
      <trkpt lat="45.72441" lon="6.52659">
        <ele>691</ele>
        <time>2018-02-23T04:47:15Z</time>
      </trkpt>
      <trkpt lat="45.72424" lon="6.52561">
        <ele>687</ele>
        <time>2018-02-23T04:48:15Z</time>
      </trkpt>
      <trkpt lat="45.72401" lon="6.52494">
        <ele>683</ele>
        <time>2018-02-23T04:49:15Z</time>
      </trkpt>
      <trkpt lat="45.72336" lon="6.52339">
        <ele>674</ele>
        <time>2018-02-23T04:50:15Z</time>
      </trkpt>
      <trkpt lat="45.72308" lon="6.52283">
        <ele>673</ele>
        <time>2018-02-23T04:51:15Z</time>
      </trkpt>
      <trkpt lat="45.72258" lon="6.5221">
        <ele>671</ele>
        <time>2018-02-23T04:52:15Z</time>
      </trkpt>
      <trkpt lat="45.72227" lon="6.52178">
        <ele>670</ele>
        <time>2018-02-23T04:53:15Z</time>
      </trkpt>
      <trkpt lat="45.722" lon="6.52168">
        <ele>668</ele>
        <time>2018-02-23T04:54:15Z</time>
      </trkpt>
      <trkpt lat="45.72171" lon="6.52169">
        <ele>666</ele>
        <time>2018-02-23T04:55:15Z</time>
      </trkpt>
      <trkpt lat="45.72142" lon="6.5218">
        <ele>668</ele>
        <time>2018-02-23T04:56:15Z</time>
      </trkpt>
      <trkpt lat="45.72121" lon="6.52178">
        <ele>670</ele>
        <time>2018-02-23T04:57:15Z</time>
      </trkpt>
      <trkpt lat="45.72097" lon="6.52163">
        <ele>668</ele>
        <time>2018-02-23T04:58:15Z</time>
      </trkpt>
      <trkpt lat="45.72039" lon="6.52081">
        <ele>660</ele>
        <time>2018-02-23T04:59:15Z</time>
      </trkpt>
      <trkpt lat="45.72016" lon="6.52024">
        <ele>660</ele>
        <time>2018-02-23T05:00:15Z</time>
      </trkpt>
      <trkpt lat="45.72006" lon="6.51961">
        <ele>660</ele>
        <time>2018-02-23T05:01:15Z</time>
      </trkpt>
      <trkpt lat="45.72015" lon="6.51694">
        <ele>659</ele>
        <time>2018-02-23T05:02:15Z</time>
      </trkpt>
      <trkpt lat="45.72013" lon="6.51648">
        <ele>657</ele>
        <time>2018-02-23T05:03:15Z</time>
      </trkpt>
      <trkpt lat="45.72006" lon="6.51605">
        <ele>655</ele>
        <time>2018-02-23T05:04:15Z</time>
      </trkpt>
      <trkpt lat="45.71977" lon="6.51502">
        <ele>652</ele>
        <time>2018-02-23T05:05:15Z</time>
      </trkpt>
      <trkpt lat="45.71808" lon="6.50973">
        <ele>648</ele>
        <time>2018-02-23T05:06:15Z</time>
      </trkpt>
      <trkpt lat="45.71794" lon="6.50911">
        <ele>648</ele>
        <time>2018-02-23T05:07:15Z</time>
      </trkpt>
      <trkpt lat="45.7179" lon="6.50867">
        <ele>649</ele>
        <time>2018-02-23T05:08:15Z</time>
      </trkpt>
      <trkpt lat="45.71788" lon="6.50802">
        <ele>651</ele>
        <time>2018-02-23T05:09:15Z</time>
      </trkpt>
      <trkpt lat="45.71783" lon="6.50754">
        <ele>653</ele>
        <time>2018-02-23T05:10:15Z</time>
      </trkpt>
      <trkpt lat="45.71772" lon="6.50715">
        <ele>652</ele>
        <time>2018-02-23T05:11:15Z</time>
      </trkpt>
      <trkpt lat="45.71725" lon="6.50607">
        <ele>649</ele>
        <time>2018-02-23T05:12:15Z</time>
      </trkpt>
      <trkpt lat="45.71715" lon="6.5058">
        <ele>647</ele>
        <time>2018-02-23T05:13:15Z</time>
      </trkpt>
      <trkpt lat="45.71704" lon="6.50528">
        <ele>645</ele>
        <time>2018-02-23T05:14:15Z</time>
      </trkpt>
      <trkpt lat="45.71701" lon="6.5048">
        <ele>642</ele>
        <time>2018-02-23T05:15:15Z</time>
      </trkpt>
      <trkpt lat="45.71708" lon="6.50435">
        <ele>642</ele>
        <time>2018-02-23T05:16:15Z</time>
      </trkpt>
      <trkpt lat="45.71802" lon="6.50054">
        <ele>651</ele>
        <time>2018-02-23T05:17:15Z</time>
      </trkpt>
      <trkpt lat="45.71829" lon="6.49984">
        <ele>649</ele>
        <time>2018-02-23T05:18:15Z</time>
      </trkpt>
      <trkpt lat="45.71855" lon="6.49901">
        <ele>651</ele>
        <time>2018-02-23T05:19:15Z</time>
      </trkpt>
      <trkpt lat="45.71867" lon="6.49803">
        <ele>649</ele>
        <time>2018-02-23T05:20:15Z</time>
      </trkpt>
      <trkpt lat="45.71856" lon="6.49667">
        <ele>652</ele>
        <time>2018-02-23T05:21:15Z</time>
      </trkpt>
      <trkpt lat="45.71859" lon="6.49626">
        <ele>655</ele>
        <time>2018-02-23T05:22:15Z</time>
      </trkpt>
      <trkpt lat="45.71865" lon="6.49598">
        <ele>659</ele>
        <time>2018-02-23T05:23:15Z</time>
      </trkpt>
      <trkpt lat="45.71879" lon="6.49561">
        <ele>674</ele>
        <time>2018-02-23T05:24:15Z</time>
      </trkpt>
      <trkpt lat="45.71877" lon="6.49546">
        <ele>676</ele>
        <time>2018-02-23T05:25:15Z</time>
      </trkpt>
      <trkpt lat="45.71873" lon="6.49539">
        <ele>675</ele>
        <time>2018-02-23T05:26:15Z</time>
      </trkpt>
      <trkpt lat="45.7184" lon="6.49501">
        <ele>656</ele>
        <time>2018-02-23T05:27:15Z</time>
      </trkpt>
      <trkpt lat="45.71823" lon="6.49476">
        <ele>655</ele>
        <time>2018-02-23T05:28:15Z</time>
      </trkpt>
      <trkpt lat="45.71781" lon="6.49333">
        <ele>661</ele>
        <time>2018-02-23T05:29:15Z</time>
      </trkpt>
      <trkpt lat="45.71776" lon="6.49301">
        <ele>661</ele>
        <time>2018-02-23T05:30:15Z</time>
      </trkpt>
      <trkpt lat="45.71778" lon="6.49265">
        <ele>667</ele>
        <time>2018-02-23T05:31:15Z</time>
      </trkpt>
      <trkpt lat="45.71774" lon="6.4924">
        <ele>667</ele>
        <time>2018-02-23T05:32:15Z</time>
      </trkpt>
      <trkpt lat="45.71736" lon="6.49157">
        <ele>652</ele>
        <time>2018-02-23T05:33:15Z</time>
      </trkpt>
      <trkpt lat="45.7172" lon="6.49126">
        <ele>648</ele>
        <time>2018-02-23T05:34:15Z</time>
      </trkpt>
      <trkpt lat="45.71706" lon="6.49082">
        <ele>643</ele>
        <time>2018-02-23T05:35:15Z</time>
      </trkpt>
      <trkpt lat="45.717" lon="6.49054">
        <ele>638</ele>
        <time>2018-02-23T05:36:15Z</time>
      </trkpt>
      <trkpt lat="45.717" lon="6.49012">
        <ele>634</ele>
        <time>2018-02-23T05:37:15Z</time>
      </trkpt>
      <trkpt lat="45.71713" lon="6.48975">
        <ele>635</ele>
        <time>2018-02-23T05:38:15Z</time>
      </trkpt>
      <trkpt lat="45.71731" lon="6.48917">
        <ele>629</ele>
        <time>2018-02-23T05:39:15Z</time>
      </trkpt>
      <trkpt lat="45.71734" lon="6.48855">
        <ele>628</ele>
        <time>2018-02-23T05:40:15Z</time>
      </trkpt>
      <trkpt lat="45.71735" lon="6.48786">
        <ele>629</ele>
        <time>2018-02-23T05:41:15Z</time>
      </trkpt>
      <trkpt lat="45.71727" lon="6.48742">
        <ele>628</ele>
        <time>2018-02-23T05:42:15Z</time>
      </trkpt>
      <trkpt lat="45.71704" lon="6.48681">
        <ele>624</ele>
        <time>2018-02-23T05:43:15Z</time>
      </trkpt>
      <trkpt lat="45.71688" lon="6.48598">
        <ele>619</ele>
        <time>2018-02-23T05:44:15Z</time>
      </trkpt>
      <trkpt lat="45.71657" lon="6.48443">
        <ele>620</ele>
        <time>2018-02-23T05:45:15Z</time>
      </trkpt>
      <trkpt lat="45.71644" lon="6.48411">
        <ele>619</ele>
        <time>2018-02-23T05:46:15Z</time>
      </trkpt>
      <trkpt lat="45.71623" lon="6.48378">
        <ele>610</ele>
        <time>2018-02-23T05:47:15Z</time>
      </trkpt>
      <trkpt lat="45.71597" lon="6.48355">
        <ele>602</ele>
        <time>2018-02-23T05:48:15Z</time>
      </trkpt>
      <trkpt lat="45.71533" lon="6.4833">
        <ele>594</ele>
        <time>2018-02-23T05:49:15Z</time>
      </trkpt>
      <trkpt lat="45.71469" lon="6.4822">
        <ele>593</ele>
        <time>2018-02-23T05:50:15Z</time>
      </trkpt>
      <trkpt lat="45.71449" lon="6.48202">
        <ele>588</ele>
        <time>2018-02-23T05:51:15Z</time>
      </trkpt>
      <trkpt lat="45.71437" lon="6.48176">
        <ele>585</ele>
        <time>2018-02-23T05:52:15Z</time>
      </trkpt>
      <trkpt lat="45.71436" lon="6.48143">
        <ele>583</ele>
        <time>2018-02-23T05:53:15Z</time>
      </trkpt>
      <trkpt lat="45.71445" lon="6.48115">
        <ele>583</ele>
        <time>2018-02-23T05:54:15Z</time>
      </trkpt>
      <trkpt lat="45.71469" lon="6.48083">
        <ele>582</ele>
        <time>2018-02-23T05:55:15Z</time>
      </trkpt>
      <trkpt lat="45.71507" lon="6.48025">
        <ele>583</ele>
        <time>2018-02-23T05:56:15Z</time>
      </trkpt>
      <trkpt lat="45.71595" lon="6.47906">
        <ele>603</ele>
        <time>2018-02-23T05:57:15Z</time>
      </trkpt>
      <trkpt lat="45.71616" lon="6.47841">
        <ele>607</ele>
        <time>2018-02-23T05:58:15Z</time>
      </trkpt>
      <trkpt lat="45.71616" lon="6.47779">
        <ele>604</ele>
        <time>2018-02-23T05:59:15Z</time>
      </trkpt>
      <trkpt lat="45.71589" lon="6.47623">
        <ele>592</ele>
        <time>2018-02-23T06:00:15Z</time>
      </trkpt>
      <trkpt lat="45.71585" lon="6.47604">
        <ele>593</ele>
        <time>2018-02-23T06:01:15Z</time>
      </trkpt>
      <trkpt lat="45.71576" lon="6.47586">
        <ele>593</ele>
        <time>2018-02-23T06:02:15Z</time>
      </trkpt>
      <trkpt lat="45.71541" lon="6.47547">
        <ele>587</ele>
        <time>2018-02-23T06:03:15Z</time>
      </trkpt>
      <trkpt lat="45.71531" lon="6.47531">
        <ele>584</ele>
        <time>2018-02-23T06:04:15Z</time>
      </trkpt>
      <trkpt lat="45.71524" lon="6.4749">
        <ele>583</ele>
        <time>2018-02-23T06:05:15Z</time>
      </trkpt>
      <trkpt lat="45.71529" lon="6.47426">
        <ele>592</ele>
        <time>2018-02-23T06:06:15Z</time>
      </trkpt>
      <trkpt lat="45.71528" lon="6.47383">
        <ele>597</ele>
        <time>2018-02-23T06:07:15Z</time>
      </trkpt>
      <trkpt lat="45.71492" lon="6.47272">
        <ele>581</ele>
        <time>2018-02-23T06:08:15Z</time>
      </trkpt>
      <trkpt lat="45.71483" lon="6.47213">
        <ele>581</ele>
        <time>2018-02-23T06:09:15Z</time>
      </trkpt>
      <trkpt lat="45.71481" lon="6.47157">
        <ele>581</ele>
        <time>2018-02-23T06:10:15Z</time>
      </trkpt>
      <trkpt lat="45.71487" lon="6.47104">
        <ele>579</ele>
        <time>2018-02-23T06:11:15Z</time>
      </trkpt>
      <trkpt lat="45.71505" lon="6.47051">
        <ele>578</ele>
        <time>2018-02-23T06:12:15Z</time>
      </trkpt>
      <trkpt lat="45.71544" lon="6.46954">
        <ele>587</ele>
        <time>2018-02-23T06:13:15Z</time>
      </trkpt>
      <trkpt lat="45.71597" lon="6.46796">
        <ele>574</ele>
        <time>2018-02-23T06:14:15Z</time>
      </trkpt>
      <trkpt lat="45.71625" lon="6.46735">
        <ele>576</ele>
        <time>2018-02-23T06:15:15Z</time>
      </trkpt>
      <trkpt lat="45.71665" lon="6.46679">
        <ele>577</ele>
        <time>2018-02-23T06:16:15Z</time>
      </trkpt>
      <trkpt lat="45.71697" lon="6.46638">
        <ele>586</ele>
        <time>2018-02-23T06:17:15Z</time>
      </trkpt>
      <trkpt lat="45.71725" lon="6.46584">
        <ele>584</ele>
        <time>2018-02-23T06:18:15Z</time>
      </trkpt>
      <trkpt lat="45.71739" lon="6.46541">
        <ele>582</ele>
        <time>2018-02-23T06:19:15Z</time>
      </trkpt>
      <trkpt lat="45.71743" lon="6.46499">
        <ele>578</ele>
        <time>2018-02-23T06:20:15Z</time>
      </trkpt>
      <trkpt lat="45.71734" lon="6.46456">
        <ele>571</ele>
        <time>2018-02-23T06:21:15Z</time>
      </trkpt>
      <trkpt lat="45.71718" lon="6.46402">
        <ele>564</ele>
        <time>2018-02-23T06:22:15Z</time>
      </trkpt>
      <trkpt lat="45.71688" lon="6.46289">
        <ele>555</ele>
        <time>2018-02-23T06:23:15Z</time>
      </trkpt>
      <trkpt lat="45.71673" lon="6.46117">
        <ele>545</ele>
        <time>2018-02-23T06:24:15Z</time>
      </trkpt>
      <trkpt lat="45.71671" lon="6.46045">
        <ele>542</ele>
        <time>2018-02-23T06:25:15Z</time>
      </trkpt>
      <trkpt lat="45.71673" lon="6.46011">
        <ele>540</ele>
        <time>2018-02-23T06:26:15Z</time>
      </trkpt>
      <trkpt lat="45.71677" lon="6.45988">
        <ele>540</ele>
        <time>2018-02-23T06:27:15Z</time>
      </trkpt>
      <trkpt lat="45.7169" lon="6.45959">
        <ele>540</ele>
        <time>2018-02-23T06:28:15Z</time>
      </trkpt>
      <trkpt lat="45.71708" lon="6.45933">
        <ele>540</ele>
        <time>2018-02-23T06:29:15Z</time>
      </trkpt>
      <trkpt lat="45.71735" lon="6.45904">
        <ele>540</ele>
        <time>2018-02-23T06:30:15Z</time>
      </trkpt>
      <trkpt lat="45.71766" lon="6.45861">
        <ele>542</ele>
        <time>2018-02-23T06:31:15Z</time>
      </trkpt>
      <trkpt lat="45.71774" lon="6.4586">
        <ele>543</ele>
        <time>2018-02-23T06:32:15Z</time>
      </trkpt>
      <trkpt lat="45.71778" lon="6.45856">
        <ele>543</ele>
        <time>2018-02-23T06:33:15Z</time>
      </trkpt>
      <trkpt lat="45.71781" lon="6.45849">
        <ele>544</ele>
        <time>2018-02-23T06:34:15Z</time>
      </trkpt>
      <trkpt lat="45.71793" lon="6.45794">
        <ele>544</ele>
        <time>2018-02-23T06:35:15Z</time>
      </trkpt>
      <trkpt lat="45.71797" lon="6.45767">
        <ele>543</ele>
        <time>2018-02-23T06:36:15Z</time>
      </trkpt>
      <trkpt lat="45.71799" lon="6.45742">
        <ele>542</ele>
        <time>2018-02-23T06:37:15Z</time>
      </trkpt>
      <trkpt lat="45.71798" lon="6.45702">
        <ele>540</ele>
        <time>2018-02-23T06:38:15Z</time>
      </trkpt>
      <trkpt lat="45.71778" lon="6.45551">
        <ele>531</ele>
        <time>2018-02-23T06:39:15Z</time>
      </trkpt>
      <trkpt lat="45.71774" lon="6.45509">
        <ele>530</ele>
        <time>2018-02-23T06:40:15Z</time>
      </trkpt>
      <trkpt lat="45.71775" lon="6.45489">
        <ele>530</ele>
        <time>2018-02-23T06:41:15Z</time>
      </trkpt>
      <trkpt lat="45.71784" lon="6.45421">
        <ele>531</ele>
        <time>2018-02-23T06:42:15Z</time>
      </trkpt>
      <trkpt lat="45.71803" lon="6.45302">
        <ele>533</ele>
        <time>2018-02-23T06:43:15Z</time>
      </trkpt>
      <trkpt lat="45.71805" lon="6.45268">
        <ele>535</ele>
        <time>2018-02-23T06:44:15Z</time>
      </trkpt>
      <trkpt lat="45.71802" lon="6.45233">
        <ele>537</ele>
        <time>2018-02-23T06:45:15Z</time>
      </trkpt>
      <trkpt lat="45.71792" lon="6.45177">
        <ele>539</ele>
        <time>2018-02-23T06:46:15Z</time>
      </trkpt>
      <trkpt lat="45.71789" lon="6.45113">
        <ele>543</ele>
        <time>2018-02-23T06:47:15Z</time>
      </trkpt>
      <trkpt lat="45.71797" lon="6.45068">
        <ele>546</ele>
        <time>2018-02-23T06:48:15Z</time>
      </trkpt>
      <trkpt lat="45.71808" lon="6.45024">
        <ele>546</ele>
        <time>2018-02-23T06:49:15Z</time>
      </trkpt>
      <trkpt lat="45.71813" lon="6.44996">
        <ele>545</ele>
        <time>2018-02-23T06:50:15Z</time>
      </trkpt>
      <trkpt lat="45.71814" lon="6.44973">
        <ele>543</ele>
        <time>2018-02-23T06:51:15Z</time>
      </trkpt>
      <trkpt lat="45.71838" lon="6.44859">
        <ele>538</ele>
        <time>2018-02-23T06:52:15Z</time>
      </trkpt>
      <trkpt lat="45.71844" lon="6.44825">
        <ele>544</ele>
        <time>2018-02-23T06:53:15Z</time>
      </trkpt>
      <trkpt lat="45.7184" lon="6.44806">
        <ele>546</ele>
        <time>2018-02-23T06:54:15Z</time>
      </trkpt>
      <trkpt lat="45.71829" lon="6.44783">
        <ele>546</ele>
        <time>2018-02-23T06:55:15Z</time>
      </trkpt>
      <trkpt lat="45.71809" lon="6.44764">
        <ele>544</ele>
        <time>2018-02-23T06:56:15Z</time>
      </trkpt>
      <trkpt lat="45.71764" lon="6.44734">
        <ele>537</ele>
        <time>2018-02-23T06:57:15Z</time>
      </trkpt>
      <trkpt lat="45.71715" lon="6.44707">
        <ele>533</ele>
        <time>2018-02-23T06:58:15Z</time>
      </trkpt>
      <trkpt lat="45.71683" lon="6.44665">
        <ele>530</ele>
        <time>2018-02-23T06:59:15Z</time>
      </trkpt>
      <trkpt lat="45.7159" lon="6.44504">
        <ele>531</ele>
        <time>2018-02-23T07:00:15Z</time>
      </trkpt>
      <trkpt lat="45.7156" lon="6.44458">
        <ele>535</ele>
        <time>2018-02-23T07:01:15Z</time>
      </trkpt>
      <trkpt lat="45.71519" lon="6.44417">
        <ele>533</ele>
        <time>2018-02-23T07:02:15Z</time>
      </trkpt>
      <trkpt lat="45.71433" lon="6.44377">
        <ele>526</ele>
        <time>2018-02-23T07:03:15Z</time>
      </trkpt>
      <trkpt lat="45.71407" lon="6.4435">
        <ele>528</ele>
        <time>2018-02-23T07:04:15Z</time>
      </trkpt>
      <trkpt lat="45.71383" lon="6.44305">
        <ele>532</ele>
        <time>2018-02-23T07:05:15Z</time>
      </trkpt>
      <trkpt lat="45.71378" lon="6.44282">
        <ele>531</ele>
        <time>2018-02-23T07:06:15Z</time>
      </trkpt>
      <trkpt lat="45.71381" lon="6.44247">
        <ele>530</ele>
        <time>2018-02-23T07:07:15Z</time>
      </trkpt>
      <trkpt lat="45.7138" lon="6.44221">
        <ele>532</ele>
        <time>2018-02-23T07:08:15Z</time>
      </trkpt>
      <trkpt lat="45.71372" lon="6.4417">
        <ele>536</ele>
        <time>2018-02-23T07:09:15Z</time>
      </trkpt>
      <trkpt lat="45.71365" lon="6.44144">
        <ele>543</ele>
        <time>2018-02-23T07:10:15Z</time>
      </trkpt>
      <trkpt lat="45.7135" lon="6.44118">
        <ele>546</ele>
        <time>2018-02-23T07:11:15Z</time>
      </trkpt>
      <trkpt lat="45.71267" lon="6.4401">
        <ele>544</ele>
        <time>2018-02-23T07:12:15Z</time>
      </trkpt>
      <trkpt lat="45.71241" lon="6.43972">
        <ele>545</ele>
        <time>2018-02-23T07:13:15Z</time>
      </trkpt>
      <trkpt lat="45.71202" lon="6.43929">
        <ele>542</ele>
        <time>2018-02-23T07:14:15Z</time>
      </trkpt>
      <trkpt lat="45.71158" lon="6.43904">
        <ele>529</ele>
        <time>2018-02-23T07:15:15Z</time>
      </trkpt>
      <trkpt lat="45.71123" lon="6.43865">
        <ele>535</ele>
        <time>2018-02-23T07:16:15Z</time>
      </trkpt>
      <trkpt lat="45.71104" lon="6.43823">
        <ele>535</ele>
        <time>2018-02-23T07:17:15Z</time>
      </trkpt>
      <trkpt lat="45.71084" lon="6.43791">
        <ele>540</ele>
        <time>2018-02-23T07:18:15Z</time>
      </trkpt>
      <trkpt lat="45.71054" lon="6.43765">
        <ele>538</ele>
        <time>2018-02-23T07:19:15Z</time>
      </trkpt>
      <trkpt lat="45.70983" lon="6.4366">
        <ele>545</ele>
        <time>2018-02-23T07:20:15Z</time>
      </trkpt>
      <trkpt lat="45.70954" lon="6.43637">
        <ele>541</ele>
        <time>2018-02-23T07:21:15Z</time>
      </trkpt>
      <trkpt lat="45.70923" lon="6.43602">
        <ele>536</ele>
        <time>2018-02-23T07:22:15Z</time>
      </trkpt>
      <trkpt lat="45.70882" lon="6.43574">
        <ele>533</ele>
        <time>2018-02-23T07:23:15Z</time>
      </trkpt>
      <trkpt lat="45.70837" lon="6.43522">
        <ele>533</ele>
        <time>2018-02-23T07:24:15Z</time>
      </trkpt>
      <trkpt lat="45.7082" lon="6.43484">
        <ele>541</ele>
        <time>2018-02-23T07:25:15Z</time>
      </trkpt>
      <trkpt lat="45.70803" lon="6.43465">
        <ele>545</ele>
        <time>2018-02-23T07:26:15Z</time>
      </trkpt>
      <trkpt lat="45.70776" lon="6.43455">
        <ele>538</ele>
        <time>2018-02-23T07:27:15Z</time>
      </trkpt>
      <trkpt lat="45.70758" lon="6.4344">
        <ele>536</ele>
        <time>2018-02-23T07:28:15Z</time>
      </trkpt>
      <trkpt lat="45.70732" lon="6.43425">
        <ele>534</ele>
        <time>2018-02-23T07:29:15Z</time>
      </trkpt>
      <trkpt lat="45.70711" lon="6.43418">
        <ele>530</ele>
        <time>2018-02-23T07:30:15Z</time>
      </trkpt>
      <trkpt lat="45.70654" lon="6.43364">
        <ele>523</ele>
        <time>2018-02-23T07:31:15Z</time>
      </trkpt>
      <trkpt lat="45.70627" lon="6.43319">
        <ele>523</ele>
        <time>2018-02-23T07:32:15Z</time>
      </trkpt>
      <trkpt lat="45.70599" lon="6.43255">
        <ele>519</ele>
        <time>2018-02-23T07:33:15Z</time>
      </trkpt>
      <trkpt lat="45.70542" lon="6.43188">
        <ele>514</ele>
        <time>2018-02-23T07:34:15Z</time>
      </trkpt>
      <trkpt lat="45.70516" lon="6.4313">
        <ele>513</ele>
        <time>2018-02-23T07:35:15Z</time>
      </trkpt>
      <trkpt lat="45.70502" lon="6.43105">
        <ele>513</ele>
        <time>2018-02-23T07:36:15Z</time>
      </trkpt>
      <trkpt lat="45.70447" lon="6.43071">
        <ele>512</ele>
        <time>2018-02-23T07:37:15Z</time>
      </trkpt>
      <trkpt lat="45.70403" lon="6.43053">
        <ele>509</ele>
        <time>2018-02-23T07:38:15Z</time>
      </trkpt>
      <trkpt lat="45.7039" lon="6.43053">
        <ele>509</ele>
        <time>2018-02-23T07:39:15Z</time>
      </trkpt>
      <trkpt lat="45.70375" lon="6.43061">
        <ele>507</ele>
        <time>2018-02-23T07:40:15Z</time>
      </trkpt>
      <trkpt lat="45.70357" lon="6.43096">
        <ele>509</ele>
        <time>2018-02-23T07:41:15Z</time>
      </trkpt>
      <trkpt lat="45.70344" lon="6.43101">
        <ele>511</ele>
        <time>2018-02-23T07:42:15Z</time>
      </trkpt>
      <trkpt lat="45.70327" lon="6.43096">
        <ele>510</ele>
        <time>2018-02-23T07:43:15Z</time>
      </trkpt>
      <trkpt lat="45.70272" lon="6.43054">
        <ele>510</ele>
        <time>2018-02-23T07:44:15Z</time>
      </trkpt>
      <trkpt lat="45.70219" lon="6.43006">
        <ele>512</ele>
        <time>2018-02-23T07:45:15Z</time>
      </trkpt>
      <trkpt lat="45.70177" lon="6.42939">
        <ele>508</ele>
        <time>2018-02-23T07:46:15Z</time>
      </trkpt>
      <trkpt lat="45.70153" lon="6.42919">
        <ele>506</ele>
        <time>2018-02-23T07:47:15Z</time>
      </trkpt>
      <trkpt lat="45.7012" lon="6.42908">
        <ele>510</ele>
        <time>2018-02-23T07:48:15Z</time>
      </trkpt>
      <trkpt lat="45.701" lon="6.42898">
        <ele>510</ele>
        <time>2018-02-23T07:49:15Z</time>
      </trkpt>
      <trkpt lat="45.70081" lon="6.42866">
        <ele>503</ele>
        <time>2018-02-23T07:50:15Z</time>
      </trkpt>
      <trkpt lat="45.70068" lon="6.42855">
        <ele>502</ele>
        <time>2018-02-23T07:51:15Z</time>
      </trkpt>
      <trkpt lat="45.70048" lon="6.42851">
        <ele>504</ele>
        <time>2018-02-23T07:52:15Z</time>
      </trkpt>
      <trkpt lat="45.70023" lon="6.42863">
        <ele>511</ele>
        <time>2018-02-23T07:53:15Z</time>
      </trkpt>
      <trkpt lat="45.70009" lon="6.42861">
        <ele>513</ele>
        <time>2018-02-23T07:54:15Z</time>
      </trkpt>
      <trkpt lat="45.69865" lon="6.42756">
        <ele>507</ele>
        <time>2018-02-23T07:55:15Z</time>
      </trkpt>
      <trkpt lat="45.6982" lon="6.42714">
        <ele>506</ele>
        <time>2018-02-23T07:56:15Z</time>
      </trkpt>
      <trkpt lat="45.69803" lon="6.42714">
        <ele>511</ele>
        <time>2018-02-23T07:57:15Z</time>
      </trkpt>
      <trkpt lat="45.69792" lon="6.4271">
        <ele>512</ele>
        <time>2018-02-23T07:58:15Z</time>
      </trkpt>
      <trkpt lat="45.69781" lon="6.4269">
        <ele>508</ele>
        <time>2018-02-23T07:59:15Z</time>
      </trkpt>
      <trkpt lat="45.69776" lon="6.42676">
        <ele>504</ele>
        <time>2018-02-23T08:00:15Z</time>
      </trkpt>
      <trkpt lat="45.69767" lon="6.42668">
        <ele>503</ele>
        <time>2018-02-23T08:01:15Z</time>
      </trkpt>
      <trkpt lat="45.69747" lon="6.42667">
        <ele>508</ele>
        <time>2018-02-23T08:02:15Z</time>
      </trkpt>
      <trkpt lat="45.69733" lon="6.42676">
        <ele>515</ele>
        <time>2018-02-23T08:03:15Z</time>
      </trkpt>
      <trkpt lat="45.69716" lon="6.42682">
        <ele>522</ele>
        <time>2018-02-23T08:04:15Z</time>
      </trkpt>
      <trkpt lat="45.69696" lon="6.42669">
        <ele>522</ele>
        <time>2018-02-23T08:05:15Z</time>
      </trkpt>
      <trkpt lat="45.69649" lon="6.42651">
        <ele>531</ele>
        <time>2018-02-23T08:06:15Z</time>
      </trkpt>
      <trkpt lat="45.69621" lon="6.42626">
        <ele>535</ele>
        <time>2018-02-23T08:07:15Z</time>
      </trkpt>
      <trkpt lat="45.69598" lon="6.42576">
        <ele>526</ele>
        <time>2018-02-23T08:08:15Z</time>
      </trkpt>
      <trkpt lat="45.69539" lon="6.42494">
        <ele>520</ele>
        <time>2018-02-23T08:09:15Z</time>
      </trkpt>
      <trkpt lat="45.69509" lon="6.42474">
        <ele>525</ele>
        <time>2018-02-23T08:10:15Z</time>
      </trkpt>
      <trkpt lat="45.69474" lon="6.42461">
        <ele>535</ele>
        <time>2018-02-23T08:11:15Z</time>
      </trkpt>
      <trkpt lat="45.69444" lon="6.42439">
        <ele>539</ele>
        <time>2018-02-23T08:12:15Z</time>
      </trkpt>
      <trkpt lat="45.69353" lon="6.42285">
        <ele>530</ele>
        <time>2018-02-23T08:13:15Z</time>
      </trkpt>
      <trkpt lat="45.69316" lon="6.42214">
        <ele>524</ele>
        <time>2018-02-23T08:14:15Z</time>
      </trkpt>
      <trkpt lat="45.69277" lon="6.4216">
        <ele>524</ele>
        <time>2018-02-23T08:15:15Z</time>
      </trkpt>
      <trkpt lat="45.69257" lon="6.42143">
        <ele>525</ele>
        <time>2018-02-23T08:16:15Z</time>
      </trkpt>
      <trkpt lat="45.69194" lon="6.42116">
        <ele>528</ele>
        <time>2018-02-23T08:17:15Z</time>
      </trkpt>
      <trkpt lat="45.69159" lon="6.42112">
        <ele>537</ele>
        <time>2018-02-23T08:18:15Z</time>
      </trkpt>
      <trkpt lat="45.6915" lon="6.42106">
        <ele>538</ele>
        <time>2018-02-23T08:19:15Z</time>
      </trkpt>
      <trkpt lat="45.69142" lon="6.42097">
        <ele>538</ele>
        <time>2018-02-23T08:20:15Z</time>
      </trkpt>
      <trkpt lat="45.69138" lon="6.42087">
        <ele>537</ele>
        <time>2018-02-23T08:21:15Z</time>
      </trkpt>
      <trkpt lat="45.6913" lon="6.42056">
        <ele>525</ele>
        <time>2018-02-23T08:22:15Z</time>
      </trkpt>
      <trkpt lat="45.69095" lon="6.42021">
        <ele>523</ele>
        <time>2018-02-23T08:23:15Z</time>
      </trkpt>
      <trkpt lat="45.69077" lon="6.42005">
        <ele>524</ele>
        <time>2018-02-23T08:24:15Z</time>
      </trkpt>
      <trkpt lat="45.69036" lon="6.41982">
        <ele>532</ele>
        <time>2018-02-23T08:25:15Z</time>
      </trkpt>
      <trkpt lat="45.68994" lon="6.41964">
        <ele>543</ele>
        <time>2018-02-23T08:26:15Z</time>
      </trkpt>
      <trkpt lat="45.68977" lon="6.41953">
        <ele>547</ele>
        <time>2018-02-23T08:27:15Z</time>
      </trkpt>
      <trkpt lat="45.68963" lon="6.41929">
        <ele>545</ele>
        <time>2018-02-23T08:28:15Z</time>
      </trkpt>
      <trkpt lat="45.68945" lon="6.4186">
        <ele>538</ele>
        <time>2018-02-23T08:29:15Z</time>
      </trkpt>
      <trkpt lat="45.6894" lon="6.41821">
        <ele>534</ele>
        <time>2018-02-23T08:30:15Z</time>
      </trkpt>
      <trkpt lat="45.68944" lon="6.4177">
        <ele>526</ele>
        <time>2018-02-23T08:31:15Z</time>
      </trkpt>
      <trkpt lat="45.68939" lon="6.41735">
        <ele>523</ele>
        <time>2018-02-23T08:32:15Z</time>
      </trkpt>
      <trkpt lat="45.68925" lon="6.41675">
        <ele>518</ele>
        <time>2018-02-23T08:33:15Z</time>
      </trkpt>
      <trkpt lat="45.68914" lon="6.41639">
        <ele>517</ele>
        <time>2018-02-23T08:34:15Z</time>
      </trkpt>
      <trkpt lat="45.68911" lon="6.41622">
        <ele>516</ele>
        <time>2018-02-23T08:35:15Z</time>
      </trkpt>
      <trkpt lat="45.68911" lon="6.41604">
        <ele>513</ele>
        <time>2018-02-23T08:36:15Z</time>
      </trkpt>
      <trkpt lat="45.68914" lon="6.4159">
        <ele>511</ele>
        <time>2018-02-23T08:37:15Z</time>
      </trkpt>
      <trkpt lat="45.6892" lon="6.41579">
        <ele>508</ele>
        <time>2018-02-23T08:38:15Z</time>
      </trkpt>
      <trkpt lat="45.68932" lon="6.41561">
        <ele>504</ele>
        <time>2018-02-23T08:39:15Z</time>
      </trkpt>
      <trkpt lat="45.68941" lon="6.41543">
        <ele>501</ele>
        <time>2018-02-23T08:40:15Z</time>
      </trkpt>
      <trkpt lat="45.68946" lon="6.41512">
        <ele>500</ele>
        <time>2018-02-23T08:41:15Z</time>
      </trkpt>
      <trkpt lat="45.68949" lon="6.41469">
        <ele>499</ele>
        <time>2018-02-23T08:42:15Z</time>
      </trkpt>
      <trkpt lat="45.68962" lon="6.41423">
        <ele>497</ele>
        <time>2018-02-23T08:43:15Z</time>
      </trkpt>
      <trkpt lat="45.6897" lon="6.41402">
        <ele>496</ele>
        <time>2018-02-23T08:44:15Z</time>
      </trkpt>
      <trkpt lat="45.68993" lon="6.41363">
        <ele>493</ele>
        <time>2018-02-23T08:45:15Z</time>
      </trkpt>
      <trkpt lat="45.69003" lon="6.41337">
        <ele>493</ele>
        <time>2018-02-23T08:46:15Z</time>
      </trkpt>
      <trkpt lat="45.69007" lon="6.41316">
        <ele>490</ele>
        <time>2018-02-23T08:47:15Z</time>
      </trkpt>
      <trkpt lat="45.69022" lon="6.41253">
        <ele>484</ele>
        <time>2018-02-23T08:48:15Z</time>
      </trkpt>
      <trkpt lat="45.69023" lon="6.41224">
        <ele>482</ele>
        <time>2018-02-23T08:49:15Z</time>
      </trkpt>
      <trkpt lat="45.69012" lon="6.41191">
        <ele>483</ele>
        <time>2018-02-23T08:50:15Z</time>
      </trkpt>
      <trkpt lat="45.68981" lon="6.41157">
        <ele>486</ele>
        <time>2018-02-23T08:51:15Z</time>
      </trkpt>
      <trkpt lat="45.68976" lon="6.41134">
        <ele>484</ele>
        <time>2018-02-23T08:52:15Z</time>
      </trkpt>
      <trkpt lat="45.68981" lon="6.41112">
        <ele>482</ele>
        <time>2018-02-23T08:53:15Z</time>
      </trkpt>
      <trkpt lat="45.68996" lon="6.41078">
        <ele>479</ele>
        <time>2018-02-23T08:54:15Z</time>
      </trkpt>
      <trkpt lat="45.69002" lon="6.41053">
        <ele>477</ele>
        <time>2018-02-23T08:55:15Z</time>
      </trkpt>
      <trkpt lat="45.69007" lon="6.40981">
        <ele>474</ele>
        <time>2018-02-23T08:56:15Z</time>
      </trkpt>
      <trkpt lat="45.69019" lon="6.40962">
        <ele>472</ele>
        <time>2018-02-23T08:57:15Z</time>
      </trkpt>
      <trkpt lat="45.6905" lon="6.40946">
        <ele>468</ele>
        <time>2018-02-23T08:58:15Z</time>
      </trkpt>
      <trkpt lat="45.6907" lon="6.4094">
        <ele>466</ele>
        <time>2018-02-23T08:59:15Z</time>
      </trkpt>
      <trkpt lat="45.69081" lon="6.40929">
        <ele>464</ele>
        <time>2018-02-23T09:00:15Z</time>
      </trkpt>
      <trkpt lat="45.69088" lon="6.40913">
        <ele>462</ele>
        <time>2018-02-23T09:01:15Z</time>
      </trkpt>
      <trkpt lat="45.69089" lon="6.40899">
        <ele>460</ele>
        <time>2018-02-23T09:02:15Z</time>
      </trkpt>
      <trkpt lat="45.69088" lon="6.40885">
        <ele>458</ele>
        <time>2018-02-23T09:03:15Z</time>
      </trkpt>
      <trkpt lat="45.69073" lon="6.40864">
        <ele>458</ele>
        <time>2018-02-23T09:04:15Z</time>
      </trkpt>
      <trkpt lat="45.69026" lon="6.40821">
        <ele>459</ele>
        <time>2018-02-23T09:05:15Z</time>
      </trkpt>
      <trkpt lat="45.69011" lon="6.40789">
        <ele>459</ele>
        <time>2018-02-23T09:06:15Z</time>
      </trkpt>
      <trkpt lat="45.69007" lon="6.40764">
        <ele>457</ele>
        <time>2018-02-23T09:07:15Z</time>
      </trkpt>
      <trkpt lat="45.69008" lon="6.40737">
        <ele>455</ele>
        <time>2018-02-23T09:08:15Z</time>
      </trkpt>
      <trkpt lat="45.69014" lon="6.4071">
        <ele>454</ele>
        <time>2018-02-23T09:09:15Z</time>
      </trkpt>
      <trkpt lat="45.6903" lon="6.40677">
        <ele>450</ele>
        <time>2018-02-23T09:10:15Z</time>
      </trkpt>
      <trkpt lat="45.69033" lon="6.40657">
        <ele>448</ele>
        <time>2018-02-23T09:11:15Z</time>
      </trkpt>
      <trkpt lat="45.69028" lon="6.40637">
        <ele>446</ele>
        <time>2018-02-23T09:12:15Z</time>
      </trkpt>
      <trkpt lat="45.69025" lon="6.40631">
        <ele>446</ele>
        <time>2018-02-23T09:13:15Z</time>
      </trkpt>
      <trkpt lat="45.68989" lon="6.40601">
        <ele>444</ele>
        <time>2018-02-23T09:14:15Z</time>
      </trkpt>
      <trkpt lat="45.68965" lon="6.40587">
        <ele>442</ele>
        <time>2018-02-23T09:15:15Z</time>
      </trkpt>
      <trkpt lat="45.68954" lon="6.40585">
        <ele>442</ele>
        <time>2018-02-23T09:16:15Z</time>
      </trkpt>
      <trkpt lat="45.68944" lon="6.40588">
        <ele>442</ele>
        <time>2018-02-23T09:17:15Z</time>
      </trkpt>
      <trkpt lat="45.68913" lon="6.40606">
        <ele>445</ele>
        <time>2018-02-23T09:18:15Z</time>
      </trkpt>
      <trkpt lat="45.68897" lon="6.40602">
        <ele>447</ele>
        <time>2018-02-23T09:19:15Z</time>
      </trkpt>
      <trkpt lat="45.68883" lon="6.40585">
        <ele>446</ele>
        <time>2018-02-23T09:20:15Z</time>
      </trkpt>
      <trkpt lat="45.68874" lon="6.40547">
        <ele>440</ele>
        <time>2018-02-23T09:21:15Z</time>
      </trkpt>
      <trkpt lat="45.68865" lon="6.40532">
        <ele>438</ele>
        <time>2018-02-23T09:22:15Z</time>
      </trkpt>
      <trkpt lat="45.68857" lon="6.40517">
        <ele>436</ele>
        <time>2018-02-23T09:23:15Z</time>
      </trkpt>
      <trkpt lat="45.68841" lon="6.40501">
        <ele>434</ele>
        <time>2018-02-23T09:24:15Z</time>
      </trkpt>
      <trkpt lat="45.688" lon="6.40497">
        <ele>438</ele>
        <time>2018-02-23T09:25:15Z</time>
      </trkpt>
      <trkpt lat="45.68783" lon="6.40474">
        <ele>436</ele>
        <time>2018-02-23T09:26:15Z</time>
      </trkpt>
      <trkpt lat="45.68777" lon="6.40455">
        <ele>433</ele>
        <time>2018-02-23T09:27:15Z</time>
      </trkpt>
      <trkpt lat="45.68768" lon="6.40438">
        <ele>431</ele>
        <time>2018-02-23T09:28:15Z</time>
      </trkpt>
      <trkpt lat="45.68749" lon="6.40422">
        <ele>430</ele>
        <time>2018-02-23T09:29:15Z</time>
      </trkpt>
      <trkpt lat="45.68704" lon="6.40397">
        <ele>431</ele>
        <time>2018-02-23T09:30:15Z</time>
      </trkpt>
      <trkpt lat="45.6867" lon="6.40356">
        <ele>430</ele>
        <time>2018-02-23T09:31:15Z</time>
      </trkpt>
      <trkpt lat="45.68654" lon="6.40266">
        <ele>421</ele>
        <time>2018-02-23T09:32:15Z</time>
      </trkpt>
      <trkpt lat="45.68622" lon="6.40184">
        <ele>411</ele>
        <time>2018-02-23T09:33:15Z</time>
      </trkpt>
      <trkpt lat="45.68608" lon="6.4014">
        <ele>402</ele>
        <time>2018-02-23T09:34:15Z</time>
      </trkpt>
      <trkpt lat="45.6858" lon="6.40111">
        <ele>401</ele>
        <time>2018-02-23T09:35:15Z</time>
      </trkpt>
      <trkpt lat="45.68533" lon="6.40093">
        <ele>407</ele>
        <time>2018-02-23T09:36:15Z</time>
      </trkpt>
      <trkpt lat="45.68447" lon="6.4004">
        <ele>409</ele>
        <time>2018-02-23T09:37:15Z</time>
      </trkpt>
      <trkpt lat="45.68358" lon="6.39949">
        <ele>405</ele>
        <time>2018-02-23T09:38:15Z</time>
      </trkpt>
      <trkpt lat="45.68317" lon="6.3988">
        <ele>392</ele>
        <time>2018-02-23T09:39:15Z</time>
      </trkpt>
      <trkpt lat="45.68286" lon="6.39854">
        <ele>390</ele>
        <time>2018-02-23T09:40:15Z</time>
      </trkpt>
      <trkpt lat="45.68203" lon="6.39822">
        <ele>397</ele>
        <time>2018-02-23T09:41:15Z</time>
      </trkpt>
      <trkpt lat="45.68166" lon="6.39795">
        <ele>393</ele>
        <time>2018-02-23T09:42:15Z</time>
      </trkpt>
      <trkpt lat="45.68019" lon="6.39741">
        <ele>387</ele>
        <time>2018-02-23T09:43:15Z</time>
      </trkpt>
      <trkpt lat="45.67935" lon="6.39701">
        <ele>377</ele>
        <time>2018-02-23T09:44:15Z</time>
      </trkpt>
      <trkpt lat="45.67893" lon="6.39669">
        <ele>367</ele>
        <time>2018-02-23T09:45:15Z</time>
      </trkpt>
      <trkpt lat="45.67862" lon="6.39638">
        <ele>362</ele>
        <time>2018-02-23T09:46:15Z</time>
      </trkpt>
      <trkpt lat="45.67839" lon="6.39628">
        <ele>360</ele>
        <time>2018-02-23T09:47:15Z</time>
      </trkpt>
      <trkpt lat="45.67798" lon="6.39641">
        <ele>364</ele>
        <time>2018-02-23T09:48:15Z</time>
      </trkpt>
      <trkpt lat="45.67783" lon="6.3964">
        <ele>363</ele>
        <time>2018-02-23T09:49:15Z</time>
      </trkpt>
      <trkpt lat="45.67768" lon="6.39632">
        <ele>362</ele>
        <time>2018-02-23T09:50:15Z</time>
      </trkpt>
      <trkpt lat="45.67749" lon="6.39607">
        <ele>357</ele>
        <time>2018-02-23T09:51:15Z</time>
      </trkpt>
      <trkpt lat="45.67731" lon="6.3959">
        <ele>355</ele>
        <time>2018-02-23T09:52:15Z</time>
      </trkpt>
      <trkpt lat="45.67592" lon="6.39539">
        <ele>351</ele>
        <time>2018-02-23T09:53:15Z</time>
      </trkpt>
      <trkpt lat="45.67603" lon="6.39528">
        <ele>350</ele>
        <time>2018-02-23T09:54:15Z</time>
      </trkpt>
      <trkpt lat="45.67615" lon="6.39507">
        <ele>348</ele>
        <time>2018-02-23T09:55:15Z</time>
      </trkpt>
      <trkpt lat="45.67621" lon="6.39483">
        <ele>347</ele>
        <time>2018-02-23T09:56:15Z</time>
      </trkpt>
      <trkpt lat="45.67648" lon="6.39333">
        <ele>350</ele>
        <time>2018-02-23T09:57:15Z</time>
      </trkpt>
      <trkpt lat="45.6755" lon="6.39298">
        <ele>348</ele>
        <time>2018-02-23T09:58:15Z</time>
      </trkpt>
    </trkseg>
  </trk>
</gpx>